<?xml version="1.0" encoding="UTF-8" standalone="yes"?>
<gpx
 xmlns="http://www.topografix.com/GPX/1/1"
 creator="OziExplorer Version 396 - http://www.oziexplorer.com"
 version="1.1"
 xmlns:xsi="http://www.w3.org/2001/XMLSchema-instance"
 xsi:schemaLocation="http://www.topografix.com/GPX/1/1 http://www.topografix.com/GPX/1/1/gpx.xsd">
<metadata>
 <time>2026-04-23T09:43:47Z</time>
 <bounds minlat="59.083335" minlon="29.912350" maxlat="59.169486" maxlon="30.095474"/>
</metadata>
<trk>
 <name>20260422_Avtonom2</name>
 <desc>20260422_Avtonom2</desc>
<trkseg>
<trkpt lat="59.1020710" lon="29.9782840">
<ele>78.821281</ele>
<time>2026-04-22T14:45:18.003Z</time>
</trkpt>
<trkpt lat="59.1022410" lon="29.9781620">
<ele>76.504799</ele>
<time>2026-04-22T14:46:58.002Z</time>
</trkpt>
<trkpt lat="59.1026240" lon="29.9782540">
<ele>73.792084</ele>
<time>2026-04-22T14:47:32.001Z</time>
</trkpt>
<trkpt lat="59.1027060" lon="29.9781510">
<ele>75.041756</ele>
<time>2026-04-22T14:47:38.999Z</time>
</trkpt>
<trkpt lat="59.1027970" lon="29.9774110">
<ele>78.364082</ele>
<time>2026-04-22T14:48:12.004Z</time>
</trkpt>
<trkpt lat="59.1028810" lon="29.9773490">
<ele>78.303116</ele>
<time>2026-04-22T14:48:27.003Z</time>
</trkpt>
<trkpt lat="59.1033500" lon="29.9775660">
<ele>74.828400</ele>
<time>2026-04-22T14:49:05.002Z</time>
</trkpt>
<trkpt lat="59.1048790" lon="29.9779650">
<ele>76.535278</ele>
<time>2026-04-22T14:51:04.000Z</time>
</trkpt>
<trkpt lat="59.1057210" lon="29.9782720">
<ele>76.626717</ele>
<time>2026-04-22T14:52:19.004Z</time>
</trkpt>
<trkpt lat="59.1059090" lon="29.9782810">
<ele>75.316078</ele>
<time>2026-04-22T14:52:34.997Z</time>
</trkpt>
<trkpt lat="59.1060950" lon="29.9784020">
<ele>74.157845</ele>
<time>2026-04-22T14:52:49.996Z</time>
</trkpt>
<trkpt lat="59.1061040" lon="29.9787850">
<ele>71.719444</ele>
<time>2026-04-22T14:53:09.997Z</time>
</trkpt>
<trkpt lat="59.1061890" lon="29.9789110">
<ele>74.706482</ele>
<time>2026-04-22T14:53:20.996Z</time>
</trkpt>
<trkpt lat="59.1063800" lon="29.9790100">
<ele>74.005440</ele>
<time>2026-04-22T14:53:40.998Z</time>
</trkpt>
<trkpt lat="59.1064280" lon="29.9791650">
<ele>72.877686</ele>
<time>2026-04-22T14:53:51.003Z</time>
</trkpt>
<trkpt lat="59.1065150" lon="29.9792270">
<ele>72.755760</ele>
<time>2026-04-22T14:53:59.997Z</time>
</trkpt>
<trkpt lat="59.1065970" lon="29.9791400">
<ele>71.231758</ele>
<time>2026-04-22T14:54:10.002Z</time>
</trkpt>
<trkpt lat="59.1067850" lon="29.9791760">
<ele>73.914001</ele>
<time>2026-04-22T14:54:30.004Z</time>
</trkpt>
<trkpt lat="59.1070730" lon="29.9792800">
<ele>73.212959</ele>
<time>2026-04-22T14:54:54.999Z</time>
</trkpt>
<trkpt lat="59.1071220" lon="29.9794360">
<ele>71.567039</ele>
<time>2026-04-22T14:55:04.996Z</time>
</trkpt>
<trkpt lat="59.1071910" lon="29.9793220">
<ele>72.146156</ele>
<time>2026-04-22T14:55:13.999Z</time>
</trkpt>
<trkpt lat="59.1073710" lon="29.9793550">
<ele>73.030083</ele>
<time>2026-04-22T14:55:31.002Z</time>
</trkpt>
<trkpt lat="59.1074560" lon="29.9792860">
<ele>74.035919</ele>
<time>2026-04-22T14:55:39.996Z</time>
</trkpt>
<trkpt lat="59.1075470" lon="29.9793040">
<ele>72.511917</ele>
<time>2026-04-22T14:56:01.000Z</time>
</trkpt>
<trkpt lat="59.1076140" lon="29.9794260">
<ele>73.060562</ele>
<time>2026-04-22T14:56:10.997Z</time>
</trkpt>
<trkpt lat="59.1075510" lon="29.9790840">
<ele>74.249283</ele>
<time>2026-04-22T14:56:41.004Z</time>
</trkpt>
<trkpt lat="59.1080090" lon="29.9791020">
<ele>72.268082</ele>
<time>2026-04-22T14:57:39.004Z</time>
</trkpt>
<trkpt lat="59.1080990" lon="29.9791710">
<ele>70.683121</ele>
<time>2026-04-22T14:57:51.998Z</time>
</trkpt>
<trkpt lat="59.1085600" lon="29.9792770">
<ele>71.597519</ele>
<time>2026-04-22T14:58:48.996Z</time>
</trkpt>
<trkpt lat="59.1100330" lon="29.9797800">
<ele>72.207115</ele>
<time>2026-04-22T15:03:09.000Z</time>
</trkpt>
<trkpt lat="59.1101200" lon="29.9798450">
<ele>74.523598</ele>
<time>2026-04-22T15:03:18.996Z</time>
</trkpt>
<trkpt lat="59.1101430" lon="29.9800250">
<ele>72.024239</ele>
<time>2026-04-22T15:03:33.002Z</time>
</trkpt>
<trkpt lat="59.1102150" lon="29.9799220">
<ele>73.304398</ele>
<time>2026-04-22T15:03:57.997Z</time>
</trkpt>
<trkpt lat="59.1102890" lon="29.9795880">
<ele>76.139038</ele>
<time>2026-04-22T15:04:40.999Z</time>
</trkpt>
<trkpt lat="59.1103910" lon="29.9795910">
<ele>76.961998</ele>
<time>2026-04-22T15:05:05.001Z</time>
</trkpt>
<trkpt lat="59.1104710" lon="29.9794860">
<ele>72.389999</ele>
<time>2026-04-22T15:05:34.999Z</time>
</trkpt>
<trkpt lat="59.1105410" lon="29.9793590">
<ele>72.085197</ele>
<time>2026-04-22T15:05:44.002Z</time>
</trkpt>
<trkpt lat="59.1105630" lon="29.9791880">
<ele>71.262238</ele>
<time>2026-04-22T15:05:57.998Z</time>
</trkpt>
<trkpt lat="59.1104820" lon="29.9790880">
<ele>74.279762</ele>
<time>2026-04-22T15:06:09.999Z</time>
</trkpt>
<trkpt lat="59.1100060" lon="29.9790260">
<ele>76.078079</ele>
<time>2026-04-22T15:07:13.002Z</time>
</trkpt>
<trkpt lat="59.1094490" lon="29.9791060">
<ele>76.718163</ele>
<time>2026-04-22T15:08:27.997Z</time>
</trkpt>
<trkpt lat="59.1088850" lon="29.9790890">
<ele>75.438004</ele>
<time>2026-04-22T15:09:33.998Z</time>
</trkpt>
<trkpt lat="59.1075800" lon="29.9786790">
<ele>76.718163</ele>
<time>2026-04-22T15:12:14.003Z</time>
</trkpt>
<trkpt lat="59.1075370" lon="29.9785230">
<ele>77.480156</ele>
<time>2026-04-22T15:12:26.997Z</time>
</trkpt>
<trkpt lat="59.1075820" lon="29.9783510">
<ele>76.078079</ele>
<time>2026-04-22T15:12:34.998Z</time>
</trkpt>
<trkpt lat="59.1078190" lon="29.9780290">
<ele>76.291443</ele>
<time>2026-04-22T15:13:12.003Z</time>
</trkpt>
<trkpt lat="59.1079080" lon="29.9779980">
<ele>72.542397</ele>
<time>2026-04-22T15:13:55.998Z</time>
</trkpt>
<trkpt lat="59.1078800" lon="29.9781660">
<ele>73.304398</ele>
<time>2026-04-22T15:14:10.997Z</time>
</trkpt>
<trkpt lat="59.1076970" lon="29.9780930">
<ele>70.987915</ele>
<time>2026-04-22T15:14:33.003Z</time>
</trkpt>
<trkpt lat="59.1075280" lon="29.9779350">
<ele>72.024239</ele>
<time>2026-04-22T15:14:55.000Z</time>
</trkpt>
<trkpt lat="59.1070710" lon="29.9779300">
<ele>71.749916</ele>
<time>2026-04-22T15:15:46.996Z</time>
</trkpt>
<trkpt lat="59.1069960" lon="29.9778220">
<ele>72.664322</ele>
<time>2026-04-22T15:15:58.997Z</time>
</trkpt>
<trkpt lat="59.1068100" lon="29.9777290">
<ele>73.883514</ele>
<time>2026-04-22T15:16:21.996Z</time>
</trkpt>
<trkpt lat="59.1067570" lon="29.9775790">
<ele>76.078079</ele>
<time>2026-04-22T15:16:32.995Z</time>
</trkpt>
<trkpt lat="59.1067620" lon="29.9773950">
<ele>76.626717</ele>
<time>2026-04-22T15:16:41.998Z</time>
</trkpt>
<trkpt lat="59.1064920" lon="29.9772920">
<ele>76.931519</ele>
<time>2026-04-22T15:17:15.003Z</time>
</trkpt>
<trkpt lat="59.1066860" lon="29.9772860">
<ele>77.723999</ele>
<time>2026-04-22T15:22:28.004Z</time>
</trkpt>
<trkpt lat="59.1067610" lon="29.9773820">
<ele>75.102715</ele>
<time>2026-04-22T15:22:36.998Z</time>
</trkpt>
<trkpt lat="59.1067390" lon="29.9775770">
<ele>74.127357</ele>
<time>2026-04-22T15:22:46.001Z</time>
</trkpt>
<trkpt lat="59.1067730" lon="29.9777430">
<ele>73.304398</ele>
<time>2026-04-22T15:22:54.002Z</time>
</trkpt>
<trkpt lat="59.1067910" lon="29.9783110">
<ele>75.803757</ele>
<time>2026-04-22T15:23:25.002Z</time>
</trkpt>
<trkpt lat="59.1068710" lon="29.9784200">
<ele>77.541115</ele>
<time>2026-04-22T15:23:37.003Z</time>
</trkpt>
<trkpt lat="59.1069150" lon="29.9785860">
<ele>77.998322</ele>
<time>2026-04-22T15:23:47.000Z</time>
</trkpt>
<trkpt lat="59.1070030" lon="29.9786430">
<ele>77.541115</ele>
<time>2026-04-22T15:23:53.998Z</time>
</trkpt>
<trkpt lat="59.1080670" lon="29.9789900">
<ele>77.205841</ele>
<time>2026-04-22T15:25:22.999Z</time>
</trkpt>
<trkpt lat="59.1082640" lon="29.9790110">
<ele>77.388718</ele>
<time>2026-04-22T15:25:39.000Z</time>
</trkpt>
<trkpt lat="59.1088190" lon="29.9792350">
<ele>77.906883</ele>
<time>2026-04-22T15:26:26.002Z</time>
</trkpt>
<trkpt lat="59.1090310" lon="29.9792630">
<ele>78.242165</ele>
<time>2026-04-22T15:26:42.003Z</time>
</trkpt>
<trkpt lat="59.1091250" lon="29.9791660">
<ele>78.668884</ele>
<time>2026-04-22T15:26:56.000Z</time>
</trkpt>
<trkpt lat="59.1093890" lon="29.9790580">
<ele>77.845917</ele>
<time>2026-04-22T15:27:21.997Z</time>
</trkpt>
<trkpt lat="59.1104740" lon="29.9790800">
<ele>78.303116</ele>
<time>2026-04-22T15:28:49.002Z</time>
</trkpt>
<trkpt lat="59.1104090" lon="29.9792080">
<ele>75.255119</ele>
<time>2026-04-22T15:32:02.996Z</time>
</trkpt>
<trkpt lat="59.1101240" lon="29.9791310">
<ele>76.992485</ele>
<time>2026-04-22T15:32:32.001Z</time>
</trkpt>
<trkpt lat="59.1095590" lon="29.9791120">
<ele>76.291443</ele>
<time>2026-04-22T15:33:22.000Z</time>
</trkpt>
<trkpt lat="59.1091870" lon="29.9791700">
<ele>76.199997</ele>
<time>2026-04-22T15:33:58.997Z</time>
</trkpt>
<trkpt lat="59.1090270" lon="29.9794030">
<ele>76.748642</ele>
<time>2026-04-22T15:34:20.001Z</time>
</trkpt>
<trkpt lat="59.1088400" lon="29.9793070">
<ele>77.449684</ele>
<time>2026-04-22T15:34:37.004Z</time>
</trkpt>
<trkpt lat="59.1073040" lon="29.9788140">
<ele>77.205841</ele>
<time>2026-04-22T15:36:50.000Z</time>
</trkpt>
<trkpt lat="59.1072150" lon="29.9787720">
<ele>77.541115</ele>
<time>2026-04-22T15:36:56.998Z</time>
</trkpt>
<trkpt lat="59.1071670" lon="29.9786130">
<ele>77.784958</ele>
<time>2026-04-22T15:37:07.997Z</time>
</trkpt>
<trkpt lat="59.1070760" lon="29.9785420">
<ele>77.723999</ele>
<time>2026-04-22T15:37:18.996Z</time>
</trkpt>
<trkpt lat="59.1068110" lon="29.9784330">
<ele>77.784958</ele>
<time>2026-04-22T15:37:45.002Z</time>
</trkpt>
<trkpt lat="59.1067720" lon="29.9782590">
<ele>74.188316</ele>
<time>2026-04-22T15:37:58.999Z</time>
</trkpt>
<trkpt lat="59.1067690" lon="29.9773650">
<ele>73.273918</ele>
<time>2026-04-22T15:38:40.998Z</time>
</trkpt>
<trkpt lat="59.1072490" lon="29.9774650">
<ele>73.914001</ele>
<time>2026-04-22T15:39:21.001Z</time>
</trkpt>
<trkpt lat="59.1078330" lon="29.9776820">
<ele>73.792084</ele>
<time>2026-04-22T15:40:09.998Z</time>
</trkpt>
<trkpt lat="59.1083120" lon="29.9776240">
<ele>71.902321</ele>
<time>2026-04-22T15:40:53.000Z</time>
</trkpt>
<trkpt lat="59.1085020" lon="29.9776910">
<ele>71.445122</ele>
<time>2026-04-22T15:41:10.003Z</time>
</trkpt>
<trkpt lat="59.1087730" lon="29.9779260">
<ele>71.353683</ele>
<time>2026-04-22T15:41:37.003Z</time>
</trkpt>
<trkpt lat="59.1096190" lon="29.9782400">
<ele>70.896484</ele>
<time>2026-04-22T15:42:51.998Z</time>
</trkpt>
<trkpt lat="59.1098920" lon="29.9781860">
<ele>71.445122</ele>
<time>2026-04-22T15:43:52.997Z</time>
</trkpt>
<trkpt lat="59.1102230" lon="29.9778480">
<ele>72.755760</ele>
<time>2026-04-22T15:44:39.998Z</time>
</trkpt>
<trkpt lat="59.1103150" lon="29.9778090">
<ele>70.073517</ele>
<time>2026-04-22T15:48:15.998Z</time>
</trkpt>
<trkpt lat="59.1103740" lon="29.9776630">
<ele>70.744080</ele>
<time>2026-04-22T15:48:25.001Z</time>
</trkpt>
<trkpt lat="59.1104550" lon="29.9775790">
<ele>71.749916</ele>
<time>2026-04-22T15:48:34.004Z</time>
</trkpt>
<trkpt lat="59.1107270" lon="29.9774400">
<ele>73.548241</ele>
<time>2026-04-22T15:49:07.000Z</time>
</trkpt>
<trkpt lat="59.1108480" lon="29.9777180">
<ele>72.420479</ele>
<time>2026-04-22T15:49:39.996Z</time>
</trkpt>
<trkpt lat="59.1111310" lon="29.9777180">
<ele>75.773285</ele>
<time>2026-04-22T15:50:32.001Z</time>
</trkpt>
<trkpt lat="59.1112020" lon="29.9778460">
<ele>75.438004</ele>
<time>2026-04-22T15:50:52.002Z</time>
</trkpt>
<trkpt lat="59.1112260" lon="29.9780150">
<ele>76.748642</ele>
<time>2026-04-22T15:51:09.999Z</time>
</trkpt>
<trkpt lat="59.1110760" lon="29.9777860">
<ele>76.565758</ele>
<time>2026-04-22T15:53:42.996Z</time>
</trkpt>
<trkpt lat="59.1109790" lon="29.9777860">
<ele>80.375763</ele>
<time>2026-04-22T15:53:50.004Z</time>
</trkpt>
<trkpt lat="59.1108930" lon="29.9777090">
<ele>76.687683</ele>
<time>2026-04-22T15:54:01.996Z</time>
</trkpt>
<trkpt lat="59.1106690" lon="29.9773570">
<ele>71.231758</ele>
<time>2026-04-22T15:54:24.002Z</time>
</trkpt>
<trkpt lat="59.1105810" lon="29.9772960">
<ele>71.506081</ele>
<time>2026-04-22T15:54:36.003Z</time>
</trkpt>
<trkpt lat="59.1104230" lon="29.9775000">
<ele>72.389999</ele>
<time>2026-04-22T15:54:54.000Z</time>
</trkpt>
<trkpt lat="59.1103310" lon="29.9778270">
<ele>72.847198</ele>
<time>2026-04-22T15:55:12.999Z</time>
</trkpt>
<trkpt lat="59.1099050" lon="29.9782320">
<ele>70.073517</ele>
<time>2026-04-22T15:56:09.997Z</time>
</trkpt>
<trkpt lat="59.1097100" lon="29.9782680">
<ele>69.921120</ele>
<time>2026-04-22T15:56:28.997Z</time>
</trkpt>
<trkpt lat="59.1092270" lon="29.9781600">
<ele>69.890640</ele>
<time>2026-04-22T15:57:14.003Z</time>
</trkpt>
<trkpt lat="59.1090570" lon="29.9780170">
<ele>70.713600</ele>
<time>2026-04-22T15:57:33.996Z</time>
</trkpt>
<trkpt lat="59.1086930" lon="29.9779390">
<ele>70.225922</ele>
<time>2026-04-22T15:58:11.001Z</time>
</trkpt>
<trkpt lat="59.1086150" lon="29.9778420">
<ele>70.744080</ele>
<time>2026-04-22T15:58:20.997Z</time>
</trkpt>
<trkpt lat="59.1083370" lon="29.9776720">
<ele>70.225922</ele>
<time>2026-04-22T15:58:51.997Z</time>
</trkpt>
<trkpt lat="59.1081460" lon="29.9777400">
<ele>71.780403</ele>
<time>2026-04-22T15:59:13.995Z</time>
</trkpt>
<trkpt lat="59.1078670" lon="29.9777290">
<ele>71.109840</ele>
<time>2026-04-22T15:59:42.999Z</time>
</trkpt>
<trkpt lat="59.1072230" lon="29.9774620">
<ele>73.974960</ele>
<time>2026-04-22T16:00:54.996Z</time>
</trkpt>
<trkpt lat="59.1070380" lon="29.9774630">
<ele>75.651360</ele>
<time>2026-04-22T16:01:14.998Z</time>
</trkpt>
<trkpt lat="59.1067670" lon="29.9773200">
<ele>69.402962</ele>
<time>2026-04-22T16:01:40.996Z</time>
</trkpt>
<trkpt lat="59.1065820" lon="29.9773430">
<ele>71.567039</ele>
<time>2026-04-22T16:02:00.997Z</time>
</trkpt>
<trkpt lat="59.1060350" lon="29.9771480">
<ele>74.066399</ele>
<time>2026-04-22T16:03:02.998Z</time>
</trkpt>
<trkpt lat="59.1059380" lon="29.9771330">
<ele>74.157845</ele>
<time>2026-04-22T16:03:13.997Z</time>
</trkpt>
<trkpt lat="59.1058670" lon="29.9772520">
<ele>74.310242</ele>
<time>2026-04-22T16:03:29.998Z</time>
</trkpt>
<trkpt lat="59.1058650" lon="29.9774340">
<ele>76.535278</ele>
<time>2026-04-22T16:03:40.003Z</time>
</trkpt>
<trkpt lat="59.1057690" lon="29.9774730">
<ele>74.706482</ele>
<time>2026-04-22T16:03:52.004Z</time>
</trkpt>
<trkpt lat="59.1054040" lon="29.9773570">
<ele>68.244720</ele>
<time>2026-04-22T16:04:41.995Z</time>
</trkpt>
<trkpt lat="59.1051420" lon="29.9771740">
<ele>67.939919</ele>
<time>2026-04-22T16:05:23.001Z</time>
</trkpt>
<trkpt lat="59.1048480" lon="29.9771590">
<ele>75.590401</ele>
<time>2026-04-22T16:05:56.999Z</time>
</trkpt>
<trkpt lat="59.1042170" lon="29.9769210">
<ele>74.066399</ele>
<time>2026-04-22T16:07:23.002Z</time>
</trkpt>
<trkpt lat="59.1040250" lon="29.9769540">
<ele>71.475601</ele>
<time>2026-04-22T16:07:51.997Z</time>
</trkpt>
<trkpt lat="59.1039550" lon="29.9768390">
<ele>69.677284</ele>
<time>2026-04-22T16:08:02.003Z</time>
</trkpt>
<trkpt lat="59.1038580" lon="29.9768410">
<ele>70.835518</ele>
<time>2026-04-22T16:08:11.999Z</time>
</trkpt>
<trkpt lat="59.1036720" lon="29.9767280">
<ele>67.360802</ele>
<time>2026-04-22T16:08:34.999Z</time>
</trkpt>
<trkpt lat="59.1034920" lon="29.9768100">
<ele>66.934082</ele>
<time>2026-04-22T16:08:56.003Z</time>
</trkpt>
<trkpt lat="59.1033270" lon="29.9766490">
<ele>67.787521</ele>
<time>2026-04-22T16:09:15.996Z</time>
</trkpt>
<trkpt lat="59.1032290" lon="29.9766410">
<ele>73.731117</ele>
<time>2026-04-22T16:09:42.996Z</time>
</trkpt>
<trkpt lat="59.1031470" lon="29.9767160">
<ele>72.633842</ele>
<time>2026-04-22T16:09:53.001Z</time>
</trkpt>
<trkpt lat="59.1029580" lon="29.9766690">
<ele>69.646797</ele>
<time>2026-04-22T16:10:10.004Z</time>
</trkpt>
<trkpt lat="59.1027790" lon="29.9765400">
<ele>66.812157</ele>
<time>2026-04-22T16:10:28.001Z</time>
</trkpt>
<trkpt lat="59.1024050" lon="29.9764570">
<ele>66.781685</ele>
<time>2026-04-22T16:11:07.996Z</time>
</trkpt>
<trkpt lat="59.1021300" lon="29.9762450">
<ele>66.751198</ele>
<time>2026-04-22T16:11:38.996Z</time>
</trkpt>
<trkpt lat="59.1014760" lon="29.9761120">
<ele>73.731117</ele>
<time>2026-04-22T16:12:43.001Z</time>
</trkpt>
<trkpt lat="59.1008330" lon="29.9757140">
<ele>64.739517</ele>
<time>2026-04-22T16:14:28.997Z</time>
</trkpt>
<trkpt lat="59.1006440" lon="29.9757420">
<ele>67.818001</ele>
<time>2026-04-22T16:14:47.996Z</time>
</trkpt>
<trkpt lat="59.1002700" lon="29.9755970">
<ele>69.555359</ele>
<time>2026-04-22T16:15:30.997Z</time>
</trkpt>
<trkpt lat="59.0998950" lon="29.9755470">
<ele>74.797920</ele>
<time>2026-04-22T16:16:13.999Z</time>
</trkpt>
<trkpt lat="59.0995150" lon="29.9754310">
<ele>75.712318</ele>
<time>2026-04-22T16:16:59.998Z</time>
</trkpt>
<trkpt lat="59.0994260" lon="29.9753520">
<ele>73.670158</ele>
<time>2026-04-22T16:17:10.997Z</time>
</trkpt>
<trkpt lat="59.0993350" lon="29.9753660">
<ele>74.706482</ele>
<time>2026-04-22T16:17:21.002Z</time>
</trkpt>
<trkpt lat="59.0989660" lon="29.9751400">
<ele>71.018402</ele>
<time>2026-04-22T16:18:05.999Z</time>
</trkpt>
<trkpt lat="59.0987680" lon="29.9751300">
<ele>73.334885</ele>
<time>2026-04-22T16:18:30.001Z</time>
</trkpt>
<trkpt lat="59.0981140" lon="29.9748800">
<ele>72.969116</ele>
<time>2026-04-22T16:19:44.003Z</time>
</trkpt>
<trkpt lat="59.0976210" lon="29.9748450">
<ele>76.199997</ele>
<time>2026-04-22T16:20:35.998Z</time>
</trkpt>
<trkpt lat="59.0974390" lon="29.9747910">
<ele>75.407516</ele>
<time>2026-04-22T16:21:00.000Z</time>
</trkpt>
<trkpt lat="59.0972700" lon="29.9746180">
<ele>71.048882</ele>
<time>2026-04-22T16:21:28.002Z</time>
</trkpt>
<trkpt lat="59.0967190" lon="29.9745700">
<ele>77.815437</ele>
<time>2026-04-22T16:22:42.004Z</time>
</trkpt>
<trkpt lat="59.0965610" lon="29.9743880">
<ele>72.268082</ele>
<time>2026-04-22T16:23:43.002Z</time>
</trkpt>
<trkpt lat="59.0961740" lon="29.9744120">
<ele>77.967842</ele>
<time>2026-04-22T16:24:22.997Z</time>
</trkpt>
<trkpt lat="59.0958230" lon="29.9741980">
<ele>71.018402</ele>
<time>2026-04-22T16:25:01.004Z</time>
</trkpt>
<trkpt lat="59.0948960" lon="29.9740610">
<ele>82.235039</ele>
<time>2026-04-22T16:26:40.001Z</time>
</trkpt>
<trkpt lat="59.0946230" lon="29.9739770">
<ele>81.808319</ele>
<time>2026-04-22T16:27:12.004Z</time>
</trkpt>
<trkpt lat="59.0942630" lon="29.9737280">
<ele>77.784958</ele>
<time>2026-04-22T16:27:50.996Z</time>
</trkpt>
<trkpt lat="59.0938950" lon="29.9736790">
<ele>77.784958</ele>
<time>2026-04-22T16:28:35.000Z</time>
</trkpt>
<trkpt lat="59.0937090" lon="29.9735820">
<ele>72.054718</ele>
<time>2026-04-22T16:29:03.002Z</time>
</trkpt>
<trkpt lat="59.0936410" lon="29.9734500">
<ele>72.755760</ele>
<time>2026-04-22T16:29:19.003Z</time>
</trkpt>
<trkpt lat="59.0935600" lon="29.9735290">
<ele>75.102715</ele>
<time>2026-04-22T16:29:31.998Z</time>
</trkpt>
<trkpt lat="59.0934720" lon="29.9734840">
<ele>75.986641</ele>
<time>2026-04-22T16:29:41.001Z</time>
</trkpt>
<trkpt lat="59.0934300" lon="29.9733270">
<ele>73.822556</ele>
<time>2026-04-22T16:29:49.995Z</time>
</trkpt>
<trkpt lat="59.0933550" lon="29.9732240">
<ele>75.285599</ele>
<time>2026-04-22T16:29:57.996Z</time>
</trkpt>
<trkpt lat="59.0933360" lon="29.9730440">
<ele>77.022957</ele>
<time>2026-04-22T16:30:47.002Z</time>
</trkpt>
<trkpt lat="59.0933850" lon="29.9726980">
<ele>74.767441</ele>
<time>2026-04-22T16:32:06.999Z</time>
</trkpt>
<trkpt lat="59.0933860" lon="29.9725050">
<ele>76.169518</ele>
<time>2026-04-22T16:32:16.002Z</time>
</trkpt>
<trkpt lat="59.0933500" lon="29.9723260">
<ele>75.986641</ele>
<time>2026-04-22T16:32:24.996Z</time>
</trkpt>
<trkpt lat="59.0931870" lon="29.9721640">
<ele>77.876404</ele>
<time>2026-04-22T16:32:42.000Z</time>
</trkpt>
<trkpt lat="59.0931170" lon="29.9722810">
<ele>76.047600</ele>
<time>2026-04-22T16:32:50.001Z</time>
</trkpt>
<trkpt lat="59.0930960" lon="29.9724570">
<ele>77.571602</ele>
<time>2026-04-22T16:32:59.997Z</time>
</trkpt>
<trkpt lat="59.0931510" lon="29.9725960">
<ele>74.401680</ele>
<time>2026-04-22T16:33:19.999Z</time>
</trkpt>
<trkpt lat="59.0931710" lon="29.9724230">
<ele>79.339439</ele>
<time>2026-04-22T16:34:51.997Z</time>
</trkpt>
<trkpt lat="59.0931310" lon="29.9722640">
<ele>78.943199</ele>
<time>2026-04-22T16:35:02.003Z</time>
</trkpt>
<trkpt lat="59.0932080" lon="29.9721580">
<ele>77.358238</ele>
<time>2026-04-22T16:35:32.001Z</time>
</trkpt>
<trkpt lat="59.0932870" lon="29.9722500">
<ele>77.480156</ele>
<time>2026-04-22T16:35:41.004Z</time>
</trkpt>
<trkpt lat="59.0933880" lon="29.9725540">
<ele>77.144882</ele>
<time>2026-04-22T16:36:00.003Z</time>
</trkpt>
<trkpt lat="59.0933800" lon="29.9729230">
<ele>81.351120</ele>
<time>2026-04-22T16:36:18.000Z</time>
</trkpt>
<trkpt lat="59.0933260" lon="29.9732580">
<ele>78.607918</ele>
<time>2026-04-22T16:36:34.001Z</time>
</trkpt>
<trkpt lat="59.0932730" lon="29.9741690">
<ele>78.181198</ele>
<time>2026-04-22T16:37:33.997Z</time>
</trkpt>
<trkpt lat="59.0934140" lon="29.9744030">
<ele>78.699364</ele>
<time>2026-04-22T16:38:03.002Z</time>
</trkpt>
<trkpt lat="59.0934500" lon="29.9745780">
<ele>79.248001</ele>
<time>2026-04-22T16:38:18.001Z</time>
</trkpt>
<trkpt lat="59.0939940" lon="29.9748390">
<ele>80.101433</ele>
<time>2026-04-22T16:40:15.997Z</time>
</trkpt>
<trkpt lat="59.0943710" lon="29.9748720">
<ele>79.857597</ele>
<time>2026-04-22T16:41:05.004Z</time>
</trkpt>
<trkpt lat="59.0945000" lon="29.9751250">
<ele>78.516479</ele>
<time>2026-04-22T16:41:36.997Z</time>
</trkpt>
<trkpt lat="59.0948640" lon="29.9752380">
<ele>78.181198</ele>
<time>2026-04-22T16:42:29.995Z</time>
</trkpt>
<trkpt lat="59.0949550" lon="29.9752420">
<ele>77.693520</ele>
<time>2026-04-22T16:42:42.998Z</time>
</trkpt>
<trkpt lat="59.0950440" lon="29.9751830">
<ele>78.089767</ele>
<time>2026-04-22T16:43:00.002Z</time>
</trkpt>
<trkpt lat="59.0952300" lon="29.9752560">
<ele>77.815437</ele>
<time>2026-04-22T16:43:23.002Z</time>
</trkpt>
<trkpt lat="59.0953980" lon="29.9753980">
<ele>78.455521</ele>
<time>2026-04-22T16:43:55.998Z</time>
</trkpt>
<trkpt lat="59.0955790" lon="29.9752840">
<ele>77.510643</ele>
<time>2026-04-22T16:44:26.998Z</time>
</trkpt>
<trkpt lat="59.0957650" lon="29.9753790">
<ele>77.327759</ele>
<time>2026-04-22T16:45:03.001Z</time>
</trkpt>
<trkpt lat="59.0958200" lon="29.9755280">
<ele>77.266800</ele>
<time>2026-04-22T16:45:14.000Z</time>
</trkpt>
<trkpt lat="59.0959060" lon="29.9755900">
<ele>75.712318</ele>
<time>2026-04-22T16:45:30.001Z</time>
</trkpt>
<trkpt lat="59.0959790" lon="29.9754860">
<ele>76.748642</ele>
<time>2026-04-22T16:45:42.002Z</time>
</trkpt>
<trkpt lat="59.0962600" lon="29.9755050">
<ele>76.718163</ele>
<time>2026-04-22T16:46:21.996Z</time>
</trkpt>
<trkpt lat="59.0963510" lon="29.9755360">
<ele>76.504799</ele>
<time>2026-04-22T16:46:33.997Z</time>
</trkpt>
<trkpt lat="59.0963790" lon="29.9757210">
<ele>76.657204</ele>
<time>2026-04-22T16:46:44.996Z</time>
</trkpt>
<trkpt lat="59.0966640" lon="29.9756040">
<ele>77.053444</ele>
<time>2026-04-22T16:47:26.002Z</time>
</trkpt>
<trkpt lat="59.0967100" lon="29.9759520">
<ele>75.346558</ele>
<time>2026-04-22T16:48:51.002Z</time>
</trkpt>
<trkpt lat="59.0968930" lon="29.9759110">
<ele>76.382881</ele>
<time>2026-04-22T16:50:29.999Z</time>
</trkpt>
<trkpt lat="59.0969810" lon="29.9759680">
<ele>73.853043</ele>
<time>2026-04-22T16:50:43.002Z</time>
</trkpt>
<trkpt lat="59.0971510" lon="29.9758450">
<ele>77.083916</ele>
<time>2026-04-22T16:51:19.999Z</time>
</trkpt>
<trkpt lat="59.0974210" lon="29.9759830">
<ele>79.217522</ele>
<time>2026-04-22T16:51:50.999Z</time>
</trkpt>
<trkpt lat="59.0975150" lon="29.9759390">
<ele>77.876404</ele>
<time>2026-04-22T16:52:16.003Z</time>
</trkpt>
<trkpt lat="59.0976130" lon="29.9759670">
<ele>79.857597</ele>
<time>2026-04-22T16:52:35.003Z</time>
</trkpt>
<trkpt lat="59.0976930" lon="29.9760650">
<ele>77.358238</ele>
<time>2026-04-22T16:52:43.003Z</time>
</trkpt>
<trkpt lat="59.0977860" lon="29.9760570">
<ele>77.663040</ele>
<time>2026-04-22T16:52:53.000Z</time>
</trkpt>
<trkpt lat="59.0979350" lon="29.9762990">
<ele>72.054718</ele>
<time>2026-04-22T16:53:13.001Z</time>
</trkpt>
<trkpt lat="59.0981120" lon="29.9761590">
<ele>76.443840</ele>
<time>2026-04-22T16:53:37.997Z</time>
</trkpt>
<trkpt lat="59.0989200" lon="29.9764600">
<ele>74.676003</ele>
<time>2026-04-22T16:55:13.002Z</time>
</trkpt>
<trkpt lat="59.0989370" lon="29.9766420">
<ele>74.889359</ele>
<time>2026-04-22T16:55:21.996Z</time>
</trkpt>
<trkpt lat="59.0990030" lon="29.9765160">
<ele>79.644234</ele>
<time>2026-04-22T16:55:45.998Z</time>
</trkpt>
<trkpt lat="59.0990940" lon="29.9764800">
<ele>78.120239</ele>
<time>2026-04-22T16:55:56.997Z</time>
</trkpt>
<trkpt lat="59.0991670" lon="29.9765920">
<ele>77.083916</ele>
<time>2026-04-22T16:56:07.002Z</time>
</trkpt>
<trkpt lat="59.0992420" lon="29.9764850">
<ele>78.242165</ele>
<time>2026-04-22T16:56:15.996Z</time>
</trkpt>
<trkpt lat="59.0993250" lon="29.9766100">
<ele>76.748642</ele>
<time>2026-04-22T16:56:24.999Z</time>
</trkpt>
<trkpt lat="59.0995080" lon="29.9765850">
<ele>74.615044</ele>
<time>2026-04-22T16:57:04.000Z</time>
</trkpt>
<trkpt lat="59.0995670" lon="29.9767390">
<ele>75.834244</ele>
<time>2026-04-22T16:57:13.997Z</time>
</trkpt>
<trkpt lat="59.0997530" lon="29.9768040">
<ele>77.602081</ele>
<time>2026-04-22T16:57:51.002Z</time>
</trkpt>
<trkpt lat="59.0998330" lon="29.9769080">
<ele>75.742798</ele>
<time>2026-04-22T16:58:03.003Z</time>
</trkpt>
<trkpt lat="59.0999260" lon="29.9768820">
<ele>77.388718</ele>
<time>2026-04-22T16:58:14.002Z</time>
</trkpt>
<trkpt lat="59.1000110" lon="29.9769600">
<ele>76.901039</ele>
<time>2026-04-22T16:58:25.000Z</time>
</trkpt>
<trkpt lat="59.1002850" lon="29.9770820">
<ele>74.980797</ele>
<time>2026-04-22T16:58:54.998Z</time>
</trkpt>
<trkpt lat="59.1004690" lon="29.9771000">
<ele>75.133202</ele>
<time>2026-04-22T16:59:16.002Z</time>
</trkpt>
<trkpt lat="59.1006300" lon="29.9773130">
<ele>71.658485</ele>
<time>2026-04-22T16:59:35.002Z</time>
</trkpt>
<trkpt lat="59.1007200" lon="29.9769910">
<ele>73.517761</ele>
<time>2026-04-22T16:59:51.996Z</time>
</trkpt>
<trkpt lat="59.1010340" lon="29.9774000">
<ele>69.342003</ele>
<time>2026-04-22T17:00:30.004Z</time>
</trkpt>
<trkpt lat="59.1013000" lon="29.9773770">
<ele>76.169518</ele>
<time>2026-04-22T17:01:08.003Z</time>
</trkpt>
<trkpt lat="59.1013940" lon="29.9774090">
<ele>75.895203</ele>
<time>2026-04-22T17:01:20.997Z</time>
</trkpt>
<trkpt lat="59.1014770" lon="29.9775070">
<ele>72.024239</ele>
<time>2026-04-22T17:01:31.996Z</time>
</trkpt>
<trkpt lat="59.1015720" lon="29.9774970">
<ele>73.670158</ele>
<time>2026-04-22T17:01:40.999Z</time>
</trkpt>
<trkpt lat="59.1016510" lon="29.9773870">
<ele>75.468483</ele>
<time>2026-04-22T17:01:51.997Z</time>
</trkpt>
<trkpt lat="59.1018430" lon="29.9774990">
<ele>76.108559</ele>
<time>2026-04-22T17:02:18.004Z</time>
</trkpt>
<trkpt lat="59.1019150" lon="29.9776050">
<ele>75.194160</ele>
<time>2026-04-22T17:02:26.998Z</time>
</trkpt>
<trkpt lat="59.1022910" lon="29.9776390">
<ele>75.163681</ele>
<time>2026-04-22T17:03:11.002Z</time>
</trkpt>
<trkpt lat="59.1024720" lon="29.9775940">
<ele>76.961998</ele>
<time>2026-04-22T17:03:34.995Z</time>
</trkpt>
<trkpt lat="59.1026640" lon="29.9776200">
<ele>79.705200</ele>
<time>2026-04-22T17:03:55.999Z</time>
</trkpt>
<trkpt lat="59.1027530" lon="29.9776900">
<ele>79.552803</ele>
<time>2026-04-22T17:04:06.997Z</time>
</trkpt>
<trkpt lat="59.1027660" lon="29.9780460">
<ele>78.577438</ele>
<time>2026-04-22T17:04:25.003Z</time>
</trkpt>
<trkpt lat="59.1027100" lon="29.9782020">
<ele>83.728561</ele>
<time>2026-04-22T17:04:37.004Z</time>
</trkpt>
<trkpt lat="59.1023170" lon="29.9781470">
<ele>77.144882</ele>
<time>2026-04-22T17:05:15.996Z</time>
</trkpt>
<trkpt lat="59.1021260" lon="29.9781960">
<ele>75.742798</ele>
<time>2026-04-22T17:05:33.000Z</time>
</trkpt>
</trkseg>
</trk>
<trk>
 <name>20260423_Lisa59</name>
 <desc>20260423_Lisa59</desc>
<trkseg>
<trkpt lat="59.1022760" lon="29.9783700">
<ele>80.802483</ele>
<time>2026-04-22T18:24:53.001Z</time>
</trkpt>
<trkpt lat="59.1022970" lon="29.9782850">
<ele>75.986641</ele>
<time>2026-04-22T18:28:15.997Z</time>
</trkpt>
<trkpt lat="59.1022760" lon="29.9783520">
<ele>74.706482</ele>
<time>2026-04-22T18:29:19.000Z</time>
</trkpt>
<trkpt lat="59.1023000" lon="29.9783240">
<ele>73.853043</ele>
<time>2026-04-22T18:29:51.996Z</time>
</trkpt>
<trkpt lat="59.1023100" lon="29.9783660">
<ele>74.066399</ele>
<time>2026-04-22T18:30:25.001Z</time>
</trkpt>
<trkpt lat="59.1023120" lon="29.9783030">
<ele>75.834244</ele>
<time>2026-04-22T18:32:36.001Z</time>
</trkpt>
<trkpt lat="59.1023180" lon="29.9783860">
<ele>77.967842</ele>
<time>2026-04-22T18:33:34.001Z</time>
</trkpt>
<trkpt lat="59.1021970" lon="29.9780960">
<ele>77.845917</ele>
<time>2026-04-22T18:33:55.999Z</time>
</trkpt>
<trkpt lat="59.1019720" lon="29.9779780">
<ele>77.723999</ele>
<time>2026-04-22T18:34:06.004Z</time>
</trkpt>
<trkpt lat="59.1008140" lon="29.9776390">
<ele>77.388718</ele>
<time>2026-04-22T18:34:41.998Z</time>
</trkpt>
<trkpt lat="59.1003020" lon="29.9774410">
<ele>76.779121</ele>
<time>2026-04-22T18:34:52.997Z</time>
</trkpt>
<trkpt lat="59.0981330" lon="29.9768490">
<ele>73.639679</ele>
<time>2026-04-22T18:35:50.004Z</time>
</trkpt>
<trkpt lat="59.0956470" lon="29.9759970">
<ele>55.260242</ele>
<time>2026-04-22T18:36:48.004Z</time>
</trkpt>
<trkpt lat="59.0944060" lon="29.9760390">
<ele>62.209682</ele>
<time>2026-04-22T18:37:15.997Z</time>
</trkpt>
<trkpt lat="59.0931610" lon="29.9759170">
<ele>72.481438</ele>
<time>2026-04-22T18:37:35.999Z</time>
</trkpt>
<trkpt lat="59.0927990" lon="29.9802290">
<ele>77.906883</ele>
<time>2026-04-22T18:38:25.999Z</time>
</trkpt>
<trkpt lat="59.0927190" lon="29.9806980">
<ele>74.188316</ele>
<time>2026-04-22T18:38:39.002Z</time>
</trkpt>
<trkpt lat="59.0926930" lon="29.9811540">
<ele>74.371201</ele>
<time>2026-04-22T18:38:55.003Z</time>
</trkpt>
<trkpt lat="59.0924280" lon="29.9836950">
<ele>71.262238</ele>
<time>2026-04-22T18:39:56.002Z</time>
</trkpt>
<trkpt lat="59.0924220" lon="29.9841040">
<ele>70.652641</ele>
<time>2026-04-22T18:40:08.003Z</time>
</trkpt>
<trkpt lat="59.0922670" lon="29.9855580">
<ele>71.810883</ele>
<time>2026-04-22T18:40:39.996Z</time>
</trkpt>
<trkpt lat="59.0922370" lon="29.9863170">
<ele>72.207115</ele>
<time>2026-04-22T18:40:55.004Z</time>
</trkpt>
<trkpt lat="59.0925420" lon="29.9880540">
<ele>73.974960</ele>
<time>2026-04-22T18:41:29.996Z</time>
</trkpt>
<trkpt lat="59.0925110" lon="29.9878670">
<ele>74.005440</ele>
<time>2026-04-22T18:41:47.000Z</time>
</trkpt>
<trkpt lat="59.0926410" lon="29.9884990">
<ele>74.401680</ele>
<time>2026-04-22T18:42:16.004Z</time>
</trkpt>
<trkpt lat="59.0927550" lon="29.9887910">
<ele>73.456802</ele>
<time>2026-04-22T18:42:27.003Z</time>
</trkpt>
<trkpt lat="59.0928270" lon="29.9893160">
<ele>72.450958</ele>
<time>2026-04-22T18:42:47.998Z</time>
</trkpt>
<trkpt lat="59.0929100" lon="29.9896360">
<ele>71.902321</ele>
<time>2026-04-22T18:43:02.997Z</time>
</trkpt>
<trkpt lat="59.0927450" lon="29.9896400">
<ele>72.481438</ele>
<time>2026-04-22T18:44:18.001Z</time>
</trkpt>
<trkpt lat="59.0927670" lon="29.9896790">
<ele>74.950317</ele>
<time>2026-04-22T18:44:50.997Z</time>
</trkpt>
<trkpt lat="59.0927180" lon="29.9897100">
<ele>76.809601</ele>
<time>2026-04-22T18:45:28.996Z</time>
</trkpt>
<trkpt lat="59.0927960" lon="29.9897360">
<ele>76.139038</ele>
<time>2026-04-22T18:46:03.003Z</time>
</trkpt>
<trkpt lat="59.0927470" lon="29.9896730">
<ele>73.091042</ele>
<time>2026-04-22T18:46:34.003Z</time>
</trkpt>
<trkpt lat="59.0928130" lon="29.9895940">
<ele>73.792084</ele>
<time>2026-04-22T18:47:40.998Z</time>
</trkpt>
<trkpt lat="59.0928370" lon="29.9896320">
<ele>73.853043</ele>
<time>2026-04-22T18:48:00.999Z</time>
</trkpt>
<trkpt lat="59.0927950" lon="29.9895740">
<ele>73.974960</ele>
<time>2026-04-22T18:48:34.998Z</time>
</trkpt>
<trkpt lat="59.0927400" lon="29.9896050">
<ele>73.761597</ele>
<time>2026-04-22T18:49:01.998Z</time>
</trkpt>
<trkpt lat="59.0927830" lon="29.9896650">
<ele>74.706482</ele>
<time>2026-04-22T18:49:28.004Z</time>
</trkpt>
<trkpt lat="59.0929630" lon="29.9903290">
<ele>76.474319</ele>
<time>2026-04-22T18:50:10.003Z</time>
</trkpt>
<trkpt lat="59.0929590" lon="29.9905700">
<ele>79.126083</ele>
<time>2026-04-22T18:51:28.999Z</time>
</trkpt>
<trkpt lat="59.0930440" lon="29.9907450">
<ele>79.400398</ele>
<time>2026-04-22T18:51:49.000Z</time>
</trkpt>
<trkpt lat="59.0931650" lon="29.9913490">
<ele>76.596237</ele>
<time>2026-04-22T18:52:26.999Z</time>
</trkpt>
<trkpt lat="59.0932540" lon="29.9921180">
<ele>66.476883</ele>
<time>2026-04-22T18:53:11.003Z</time>
</trkpt>
<trkpt lat="59.0935240" lon="29.9935570">
<ele>62.819283</ele>
<time>2026-04-22T18:54:35.001Z</time>
</trkpt>
<trkpt lat="59.0936630" lon="29.9941220">
<ele>66.324478</ele>
<time>2026-04-22T18:55:30.003Z</time>
</trkpt>
<trkpt lat="59.0937040" lon="29.9946150">
<ele>65.440559</ele>
<time>2026-04-22T18:55:57.003Z</time>
</trkpt>
<trkpt lat="59.0937790" lon="29.9948810">
<ele>65.501518</ele>
<time>2026-04-22T18:56:19.000Z</time>
</trkpt>
<trkpt lat="59.0939090" lon="29.9950730">
<ele>66.690239</ele>
<time>2026-04-22T18:56:36.997Z</time>
</trkpt>
<trkpt lat="59.0938290" lon="29.9951990">
<ele>68.061844</ele>
<time>2026-04-22T18:56:55.997Z</time>
</trkpt>
<trkpt lat="59.0940330" lon="29.9963320">
<ele>68.488556</ele>
<time>2026-04-22T18:57:54.999Z</time>
</trkpt>
<trkpt lat="59.0941870" lon="29.9975280">
<ele>65.775841</ele>
<time>2026-04-22T18:58:58.996Z</time>
</trkpt>
<trkpt lat="59.0942980" lon="29.9979420">
<ele>66.690239</ele>
<time>2026-04-22T18:59:22.998Z</time>
</trkpt>
<trkpt lat="59.0946060" lon="29.9998490">
<ele>62.575439</ele>
<time>2026-04-22T19:01:06.004Z</time>
</trkpt>
<trkpt lat="59.0947270" lon="30.0002080">
<ele>61.264801</ele>
<time>2026-04-22T19:01:28.001Z</time>
</trkpt>
<trkpt lat="59.0947940" lon="30.0005570">
<ele>59.100719</ele>
<time>2026-04-22T19:01:44.996Z</time>
</trkpt>
<trkpt lat="59.0948230" lon="30.0010120">
<ele>57.424316</ele>
<time>2026-04-22T19:02:07.996Z</time>
</trkpt>
<trkpt lat="59.0949100" lon="30.0014860">
<ele>55.199284</ele>
<time>2026-04-22T19:02:31.998Z</time>
</trkpt>
<trkpt lat="59.0949280" lon="30.0019260">
<ele>53.888641</ele>
<time>2026-04-22T19:02:54.004Z</time>
</trkpt>
<trkpt lat="59.0949920" lon="30.0022940">
<ele>55.077358</ele>
<time>2026-04-22T19:03:10.999Z</time>
</trkpt>
<trkpt lat="59.0950970" lon="30.0026190">
<ele>53.096161</ele>
<time>2026-04-22T19:03:29.998Z</time>
</trkpt>
<trkpt lat="59.0954700" lon="30.0048960">
<ele>55.778400</ele>
<time>2026-04-22T19:05:31.001Z</time>
</trkpt>
<trkpt lat="59.0956660" lon="30.0057340">
<ele>60.258961</ele>
<time>2026-04-22T19:06:13.000Z</time>
</trkpt>
<trkpt lat="59.0956960" lon="30.0060290">
<ele>60.868561</ele>
<time>2026-04-22T19:06:26.997Z</time>
</trkpt>
<trkpt lat="59.0958230" lon="30.0067500">
<ele>63.002159</ele>
<time>2026-04-22T19:07:05.998Z</time>
</trkpt>
<trkpt lat="59.0959290" lon="30.0071840">
<ele>63.215519</ele>
<time>2026-04-22T19:07:30.000Z</time>
</trkpt>
<trkpt lat="59.0960160" lon="30.0078420">
<ele>63.733681</ele>
<time>2026-04-22T19:08:02.996Z</time>
</trkpt>
<trkpt lat="59.0962270" lon="30.0090400">
<ele>61.203842</ele>
<time>2026-04-22T19:09:05.999Z</time>
</trkpt>
<trkpt lat="59.0965110" lon="30.0106020">
<ele>48.127918</ele>
<time>2026-04-22T19:10:26.999Z</time>
</trkpt>
<trkpt lat="59.0966180" lon="30.0110110">
<ele>42.672001</ele>
<time>2026-04-22T19:10:52.003Z</time>
</trkpt>
<trkpt lat="59.0967150" lon="30.0118240">
<ele>33.375599</ele>
<time>2026-04-22T19:11:31.004Z</time>
</trkpt>
<trkpt lat="59.0968830" lon="30.0125240">
<ele>29.108400</ele>
<time>2026-04-22T19:12:09.003Z</time>
</trkpt>
<trkpt lat="59.0969730" lon="30.0133190">
<ele>37.886642</ele>
<time>2026-04-22T19:12:48.997Z</time>
</trkpt>
<trkpt lat="59.0970570" lon="30.0137280">
<ele>38.130478</ele>
<time>2026-04-22T19:13:11.997Z</time>
</trkpt>
<trkpt lat="59.0970390" lon="30.0138670">
<ele>45.506641</ele>
<time>2026-04-22T19:13:33.001Z</time>
</trkpt>
<trkpt lat="59.0971140" lon="30.0139330">
<ele>59.405518</ele>
<time>2026-04-22T19:14:23.001Z</time>
</trkpt>
<trkpt lat="59.0973060" lon="30.0149600">
<ele>61.965839</ele>
<time>2026-04-22T19:15:25.001Z</time>
</trkpt>
<trkpt lat="59.0974770" lon="30.0164190">
<ele>69.037201</ele>
<time>2026-04-22T19:17:18.004Z</time>
</trkpt>
<trkpt lat="59.0975470" lon="30.0165900">
<ele>68.732399</ele>
<time>2026-04-22T19:17:41.997Z</time>
</trkpt>
<trkpt lat="59.0975210" lon="30.0166650">
<ele>69.433441</ele>
<time>2026-04-22T19:18:12.997Z</time>
</trkpt>
<trkpt lat="59.0976390" lon="30.0166470">
<ele>71.445122</ele>
<time>2026-04-22T19:19:17.996Z</time>
</trkpt>
<trkpt lat="59.0976450" lon="30.0166100">
<ele>71.079361</ele>
<time>2026-04-22T19:19:44.996Z</time>
</trkpt>
<trkpt lat="59.0975910" lon="30.0166310">
<ele>72.755760</ele>
<time>2026-04-22T19:20:18.001Z</time>
</trkpt>
<trkpt lat="59.0975340" lon="30.0165810">
<ele>72.085197</ele>
<time>2026-04-22T19:20:42.996Z</time>
</trkpt>
<trkpt lat="59.0975720" lon="30.0166430">
<ele>70.987915</ele>
<time>2026-04-22T19:21:13.997Z</time>
</trkpt>
<trkpt lat="59.0976720" lon="30.0172750">
<ele>67.848480</ele>
<time>2026-04-22T19:22:19.998Z</time>
</trkpt>
<trkpt lat="59.0976380" lon="30.0174110">
<ele>69.555359</ele>
<time>2026-04-22T19:23:15.000Z</time>
</trkpt>
<trkpt lat="59.0976490" lon="30.0175290">
<ele>69.433441</ele>
<time>2026-04-22T19:23:43.996Z</time>
</trkpt>
<trkpt lat="59.0977560" lon="30.0174760">
<ele>67.056000</ele>
<time>2026-04-22T19:25:09.998Z</time>
</trkpt>
<trkpt lat="59.0978460" lon="30.0184850">
<ele>67.970398</ele>
<time>2026-04-22T19:26:36.001Z</time>
</trkpt>
<trkpt lat="59.0979210" lon="30.0188220">
<ele>67.177917</ele>
<time>2026-04-22T19:26:56.996Z</time>
</trkpt>
<trkpt lat="59.0979360" lon="30.0190270">
<ele>67.147438</ele>
<time>2026-04-22T19:27:19.002Z</time>
</trkpt>
<trkpt lat="59.0980130" lon="30.0191870">
<ele>66.873116</ele>
<time>2026-04-22T19:28:08.000Z</time>
</trkpt>
<trkpt lat="59.0980870" lon="30.0197800">
<ele>66.659760</ele>
<time>2026-04-22T19:28:47.001Z</time>
</trkpt>
<trkpt lat="59.0983320" lon="30.0208760">
<ele>63.154560</ele>
<time>2026-04-22T19:29:53.002Z</time>
</trkpt>
<trkpt lat="59.0983450" lon="30.0212030">
<ele>64.800484</ele>
<time>2026-04-22T19:30:16.001Z</time>
</trkpt>
<trkpt lat="59.0984680" lon="30.0219670">
<ele>66.172081</ele>
<time>2026-04-22T19:31:15.997Z</time>
</trkpt>
<trkpt lat="59.0985690" lon="30.0223920">
<ele>66.354958</ele>
<time>2026-04-22T19:31:45.002Z</time>
</trkpt>
<trkpt lat="59.0986260" lon="30.0229170">
<ele>70.683121</ele>
<time>2026-04-22T19:32:51.003Z</time>
</trkpt>
<trkpt lat="59.0986800" lon="30.0229210">
<ele>76.870560</ele>
<time>2026-04-22T19:34:05.998Z</time>
</trkpt>
<trkpt lat="59.0986640" lon="30.0229390">
<ele>76.474319</ele>
<time>2026-04-22T19:34:35.003Z</time>
</trkpt>
<trkpt lat="59.0987710" lon="30.0235250">
<ele>73.334885</ele>
<time>2026-04-22T19:35:17.002Z</time>
</trkpt>
<trkpt lat="59.0987950" lon="30.0239120">
<ele>69.799202</ele>
<time>2026-04-22T19:35:42.999Z</time>
</trkpt>
<trkpt lat="59.0988910" lon="30.0244160">
<ele>68.580002</ele>
<time>2026-04-22T19:36:20.998Z</time>
</trkpt>
<trkpt lat="59.0989850" lon="30.0247470">
<ele>68.244720</ele>
<time>2026-04-22T19:36:43.998Z</time>
</trkpt>
<trkpt lat="59.0990850" lon="30.0255560">
<ele>65.166245</ele>
<time>2026-04-22T19:37:28.001Z</time>
</trkpt>
<trkpt lat="59.0991960" lon="30.0257460">
<ele>66.080643</ele>
<time>2026-04-22T19:37:48.996Z</time>
</trkpt>
<trkpt lat="59.0992150" lon="30.0261190">
<ele>66.293999</ele>
<time>2026-04-22T19:38:12.998Z</time>
</trkpt>
<trkpt lat="59.0993460" lon="30.0270680">
<ele>68.000885</ele>
<time>2026-04-22T19:39:21.004Z</time>
</trkpt>
<trkpt lat="59.0994390" lon="30.0274160">
<ele>68.183762</ele>
<time>2026-04-22T19:39:41.999Z</time>
</trkpt>
<trkpt lat="59.0995130" lon="30.0281950">
<ele>66.233040</ele>
<time>2026-04-22T19:40:26.003Z</time>
</trkpt>
<trkpt lat="59.0995890" lon="30.0285770">
<ele>65.379601</ele>
<time>2026-04-22T19:40:46.004Z</time>
</trkpt>
<trkpt lat="59.0996560" lon="30.0287210">
<ele>66.842644</ele>
<time>2026-04-22T19:41:12.002Z</time>
</trkpt>
<trkpt lat="59.0997110" lon="30.0290640">
<ele>64.769997</ele>
<time>2026-04-22T19:41:32.997Z</time>
</trkpt>
<trkpt lat="59.0997220" lon="30.0294880">
<ele>61.874401</ele>
<time>2026-04-22T19:41:55.003Z</time>
</trkpt>
<trkpt lat="59.0998730" lon="30.0303280">
<ele>52.059841</ele>
<time>2026-04-22T19:42:57.004Z</time>
</trkpt>
<trkpt lat="59.0999650" lon="30.0315500">
<ele>48.127918</ele>
<time>2026-04-22T19:44:25.996Z</time>
</trkpt>
<trkpt lat="59.1000570" lon="30.0321460">
<ele>49.682400</ele>
<time>2026-04-22T19:45:07.001Z</time>
</trkpt>
<trkpt lat="59.1003760" lon="30.0328240">
<ele>57.759602</ele>
<time>2026-04-22T19:46:16.000Z</time>
</trkpt>
<trkpt lat="59.1004390" lon="30.0330380">
<ele>60.899040</ele>
<time>2026-04-22T19:46:36.002Z</time>
</trkpt>
<trkpt lat="59.1003280" lon="30.0327200">
<ele>64.648079</ele>
<time>2026-04-22T19:47:15.996Z</time>
</trkpt>
<trkpt lat="59.1002760" lon="30.0327350">
<ele>65.958717</ele>
<time>2026-04-22T19:47:42.003Z</time>
</trkpt>
<trkpt lat="59.1002650" lon="30.0325050">
<ele>66.172081</ele>
<time>2026-04-22T19:48:21.997Z</time>
</trkpt>
<trkpt lat="59.1003060" lon="30.0323730">
<ele>67.574158</ele>
<time>2026-04-22T19:49:10.001Z</time>
</trkpt>
<trkpt lat="59.1002950" lon="30.0324550">
<ele>66.720718</ele>
<time>2026-04-22T19:49:38.004Z</time>
</trkpt>
<trkpt lat="59.1001520" lon="30.0326250">
<ele>71.048882</ele>
<time>2026-04-22T19:50:51.996Z</time>
</trkpt>
<trkpt lat="59.1001730" lon="30.0326720">
<ele>70.835518</ele>
<time>2026-04-22T19:51:19.999Z</time>
</trkpt>
<trkpt lat="59.1001330" lon="30.0325990">
<ele>71.201279</ele>
<time>2026-04-22T19:51:48.001Z</time>
</trkpt>
<trkpt lat="59.0999310" lon="30.0328660">
<ele>73.395844</ele>
<time>2026-04-22T19:52:59.998Z</time>
</trkpt>
<trkpt lat="59.0998490" lon="30.0328110">
<ele>71.810883</ele>
<time>2026-04-22T19:53:45.004Z</time>
</trkpt>
<trkpt lat="59.0997660" lon="30.0329580">
<ele>71.506081</ele>
<time>2026-04-22T19:54:09.999Z</time>
</trkpt>
<trkpt lat="59.0995470" lon="30.0329560">
<ele>68.122803</ele>
<time>2026-04-22T19:55:21.003Z</time>
</trkpt>
<trkpt lat="59.0993430" lon="30.0331220">
<ele>66.934082</ele>
<time>2026-04-22T19:55:57.999Z</time>
</trkpt>
<trkpt lat="59.0991480" lon="30.0331980">
<ele>67.330315</ele>
<time>2026-04-22T19:56:37.000Z</time>
</trkpt>
<trkpt lat="59.0991270" lon="30.0331170">
<ele>68.640961</ele>
<time>2026-04-22T19:57:29.998Z</time>
</trkpt>
<trkpt lat="59.0990000" lon="30.0332450">
<ele>67.391281</ele>
<time>2026-04-22T19:58:30.996Z</time>
</trkpt>
<trkpt lat="59.0989930" lon="30.0333870">
<ele>66.903603</ele>
<time>2026-04-22T19:59:20.003Z</time>
</trkpt>
<trkpt lat="59.0990220" lon="30.0333090">
<ele>66.690239</ele>
<time>2026-04-22T19:59:43.002Z</time>
</trkpt>
<trkpt lat="59.0988810" lon="30.0334150">
<ele>67.665604</ele>
<time>2026-04-22T20:00:25.001Z</time>
</trkpt>
<trkpt lat="59.0987100" lon="30.0333290">
<ele>67.421761</ele>
<time>2026-04-22T20:01:15.001Z</time>
</trkpt>
<trkpt lat="59.0984660" lon="30.0334500">
<ele>69.006721</ele>
<time>2026-04-22T20:02:18.004Z</time>
</trkpt>
<trkpt lat="59.0983710" lon="30.0334450">
<ele>67.787521</ele>
<time>2026-04-22T20:02:41.997Z</time>
</trkpt>
<trkpt lat="59.0982400" lon="30.0335930">
<ele>69.463921</ele>
<time>2026-04-22T20:03:35.004Z</time>
</trkpt>
<trkpt lat="59.0981300" lon="30.0334960">
<ele>71.262238</ele>
<time>2026-04-22T20:04:25.003Z</time>
</trkpt>
<trkpt lat="59.0978600" lon="30.0337150">
<ele>71.780403</ele>
<time>2026-04-22T20:05:11.996Z</time>
</trkpt>
<trkpt lat="59.0977310" lon="30.0337910">
<ele>71.109840</ele>
<time>2026-04-22T20:05:35.998Z</time>
</trkpt>
<trkpt lat="59.0975300" lon="30.0337870">
<ele>71.445122</ele>
<time>2026-04-22T20:06:28.996Z</time>
</trkpt>
<trkpt lat="59.0974560" lon="30.0338880">
<ele>71.810883</ele>
<time>2026-04-22T20:06:48.004Z</time>
</trkpt>
<trkpt lat="59.0973620" lon="30.0339090">
<ele>72.298561</ele>
<time>2026-04-22T20:07:10.001Z</time>
</trkpt>
<trkpt lat="59.0971680" lon="30.0341020">
<ele>72.207115</ele>
<time>2026-04-22T20:07:52.000Z</time>
</trkpt>
<trkpt lat="59.0969920" lon="30.0341440">
<ele>72.755760</ele>
<time>2026-04-22T20:08:33.999Z</time>
</trkpt>
<trkpt lat="59.0964430" lon="30.0344510">
<ele>72.664322</ele>
<time>2026-04-22T20:11:11.999Z</time>
</trkpt>
<trkpt lat="59.0963190" lon="30.0343720">
<ele>73.609200</ele>
<time>2026-04-22T20:12:01.999Z</time>
</trkpt>
<trkpt lat="59.0962120" lon="30.0344090">
<ele>73.822556</ele>
<time>2026-04-22T20:12:19.002Z</time>
</trkpt>
<trkpt lat="59.0961250" lon="30.0345660">
<ele>75.072243</ele>
<time>2026-04-22T20:12:42.002Z</time>
</trkpt>
<trkpt lat="59.0960960" lon="30.0345710">
<ele>74.736961</ele>
<time>2026-04-22T20:12:58.997Z</time>
</trkpt>
<trkpt lat="59.0960760" lon="30.0344800">
<ele>75.712318</ele>
<time>2026-04-22T20:13:28.001Z</time>
</trkpt>
<trkpt lat="59.0959700" lon="30.0344880">
<ele>76.199997</ele>
<time>2026-04-22T20:14:00.997Z</time>
</trkpt>
<trkpt lat="59.0957610" lon="30.0347420">
<ele>75.651360</ele>
<time>2026-04-22T20:14:42.003Z</time>
</trkpt>
<trkpt lat="59.0956060" lon="30.0348410">
<ele>75.255119</ele>
<time>2026-04-22T20:15:01.002Z</time>
</trkpt>
<trkpt lat="59.0953160" lon="30.0348510">
<ele>75.133202</ele>
<time>2026-04-22T20:15:52.004Z</time>
</trkpt>
<trkpt lat="59.0950600" lon="30.0349590">
<ele>74.005440</ele>
<time>2026-04-22T20:16:45.002Z</time>
</trkpt>
<trkpt lat="59.0949640" lon="30.0350440">
<ele>73.761597</ele>
<time>2026-04-22T20:17:04.001Z</time>
</trkpt>
<trkpt lat="59.0949080" lon="30.0352190">
<ele>73.091042</ele>
<time>2026-04-22T20:17:28.997Z</time>
</trkpt>
<trkpt lat="59.0947350" lon="30.0352520">
<ele>73.395844</ele>
<time>2026-04-22T20:18:03.997Z</time>
</trkpt>
<trkpt lat="59.0947260" lon="30.0351530">
<ele>74.554085</ele>
<time>2026-04-22T20:18:52.001Z</time>
</trkpt>
<trkpt lat="59.0946250" lon="30.0352260">
<ele>81.320633</ele>
<time>2026-04-22T20:20:10.997Z</time>
</trkpt>
<trkpt lat="59.0944290" lon="30.0351680">
<ele>80.528160</ele>
<time>2026-04-22T20:20:47.000Z</time>
</trkpt>
<trkpt lat="59.0942880" lon="30.0353020">
<ele>81.991203</ele>
<time>2026-04-22T20:21:35.997Z</time>
</trkpt>
<trkpt lat="59.0942430" lon="30.0351910">
<ele>82.753197</ele>
<time>2026-04-22T20:22:03.999Z</time>
</trkpt>
<trkpt lat="59.0942840" lon="30.0351740">
<ele>83.240883</ele>
<time>2026-04-22T20:22:37.998Z</time>
</trkpt>
<trkpt lat="59.0942500" lon="30.0351350">
<ele>84.033363</ele>
<time>2026-04-22T20:23:23.004Z</time>
</trkpt>
<trkpt lat="59.0940830" lon="30.0353610">
<ele>81.320633</ele>
<time>2026-04-22T20:24:01.002Z</time>
</trkpt>
<trkpt lat="59.0940330" lon="30.0352640">
<ele>81.137764</ele>
<time>2026-04-22T20:24:21.997Z</time>
</trkpt>
<trkpt lat="59.0940360" lon="30.0354770">
<ele>77.541115</ele>
<time>2026-04-22T20:25:07.997Z</time>
</trkpt>
<trkpt lat="59.0941720" lon="30.0358870">
<ele>74.157845</ele>
<time>2026-04-22T20:26:20.003Z</time>
</trkpt>
<trkpt lat="59.0942650" lon="30.0358570">
<ele>73.517761</ele>
<time>2026-04-22T20:26:44.998Z</time>
</trkpt>
<trkpt lat="59.0944100" lon="30.0360120">
<ele>72.450958</ele>
<time>2026-04-22T20:27:21.001Z</time>
</trkpt>
<trkpt lat="59.0944330" lon="30.0361300">
<ele>71.841362</ele>
<time>2026-04-22T20:28:08.996Z</time>
</trkpt>
<trkpt lat="59.0944990" lon="30.0362220">
<ele>72.572884</ele>
<time>2026-04-22T20:28:36.998Z</time>
</trkpt>
<trkpt lat="59.0944880" lon="30.0364750">
<ele>72.237602</ele>
<time>2026-04-22T20:28:59.998Z</time>
</trkpt>
<trkpt lat="59.0945310" lon="30.0366750">
<ele>74.157845</ele>
<time>2026-04-22T20:29:22.998Z</time>
</trkpt>
<trkpt lat="59.0944280" lon="30.0367110">
<ele>73.944481</ele>
<time>2026-04-22T20:30:19.002Z</time>
</trkpt>
<trkpt lat="59.0942270" lon="30.0366800">
<ele>75.895203</ele>
<time>2026-04-22T20:31:16.000Z</time>
</trkpt>
<trkpt lat="59.0941610" lon="30.0366050">
<ele>77.175362</ele>
<time>2026-04-22T20:32:04.998Z</time>
</trkpt>
<trkpt lat="59.0942390" lon="30.0366490">
<ele>74.706482</ele>
<time>2026-04-22T20:32:50.004Z</time>
</trkpt>
<trkpt lat="59.0941630" lon="30.0366800">
<ele>74.096878</ele>
<time>2026-04-22T20:33:09.996Z</time>
</trkpt>
<trkpt lat="59.0941070" lon="30.0364380">
<ele>74.828400</ele>
<time>2026-04-22T20:34:03.003Z</time>
</trkpt>
<trkpt lat="59.0939880" lon="30.0363400">
<ele>72.664322</ele>
<time>2026-04-22T20:34:50.998Z</time>
</trkpt>
<trkpt lat="59.0938800" lon="30.0363690">
<ele>72.054718</ele>
<time>2026-04-22T20:35:36.004Z</time>
</trkpt>
<trkpt lat="59.0939050" lon="30.0364240">
<ele>70.134483</ele>
<time>2026-04-22T20:36:05.000Z</time>
</trkpt>
<trkpt lat="59.0935000" lon="30.0364580">
<ele>69.128639</ele>
<time>2026-04-22T20:37:54.002Z</time>
</trkpt>
<trkpt lat="59.0933800" lon="30.0363590">
<ele>72.542397</ele>
<time>2026-04-22T20:39:01.999Z</time>
</trkpt>
<trkpt lat="59.0932720" lon="30.0364120">
<ele>71.658485</ele>
<time>2026-04-22T20:39:20.998Z</time>
</trkpt>
<trkpt lat="59.0930940" lon="30.0366240">
<ele>71.506081</ele>
<time>2026-04-22T20:40:03.999Z</time>
</trkpt>
<trkpt lat="59.0929770" lon="30.0368630">
<ele>70.134483</ele>
<time>2026-04-22T20:40:52.997Z</time>
</trkpt>
<trkpt lat="59.0927940" lon="30.0367940">
<ele>70.835518</ele>
<time>2026-04-22T20:41:27.004Z</time>
</trkpt>
<trkpt lat="59.0926690" lon="30.0368190">
<ele>71.048882</ele>
<time>2026-04-22T20:41:58.004Z</time>
</trkpt>
<trkpt lat="59.0925240" lon="30.0367220">
<ele>71.445122</ele>
<time>2026-04-22T20:42:36.996Z</time>
</trkpt>
<trkpt lat="59.0923440" lon="30.0367000">
<ele>71.079361</ele>
<time>2026-04-22T20:43:11.004Z</time>
</trkpt>
<trkpt lat="59.0922160" lon="30.0365920">
<ele>71.871841</ele>
<time>2026-04-22T20:43:57.996Z</time>
</trkpt>
<trkpt lat="59.0921220" lon="30.0366090">
<ele>72.450958</ele>
<time>2026-04-22T20:44:24.996Z</time>
</trkpt>
<trkpt lat="59.0920290" lon="30.0367940">
<ele>70.744080</ele>
<time>2026-04-22T20:45:19.999Z</time>
</trkpt>
<trkpt lat="59.0917950" lon="30.0368500">
<ele>72.481438</ele>
<time>2026-04-22T20:46:17.999Z</time>
</trkpt>
<trkpt lat="59.0917360" lon="30.0369100">
<ele>71.627998</ele>
<time>2026-04-22T20:46:51.997Z</time>
</trkpt>
<trkpt lat="59.0917480" lon="30.0368010">
<ele>71.292717</ele>
<time>2026-04-22T20:47:33.996Z</time>
</trkpt>
<trkpt lat="59.0915660" lon="30.0367540">
<ele>72.511917</ele>
<time>2026-04-22T20:48:23.996Z</time>
</trkpt>
<trkpt lat="59.0915290" lon="30.0368570">
<ele>71.841362</ele>
<time>2026-04-22T20:48:43.998Z</time>
</trkpt>
<trkpt lat="59.0914690" lon="30.0368110">
<ele>71.932800</ele>
<time>2026-04-22T20:48:57.001Z</time>
</trkpt>
<trkpt lat="59.0914480" lon="30.0367120">
<ele>72.146156</ele>
<time>2026-04-22T20:49:10.004Z</time>
</trkpt>
<trkpt lat="59.0914010" lon="30.0367240">
<ele>72.207115</ele>
<time>2026-04-22T20:49:21.996Z</time>
</trkpt>
<trkpt lat="59.0913530" lon="30.0369150">
<ele>71.445122</ele>
<time>2026-04-22T20:49:39.000Z</time>
</trkpt>
<trkpt lat="59.0913640" lon="30.0371640">
<ele>69.463921</ele>
<time>2026-04-22T20:50:11.996Z</time>
</trkpt>
<trkpt lat="59.0912520" lon="30.0375540">
<ele>67.604637</ele>
<time>2026-04-22T20:50:54.004Z</time>
</trkpt>
<trkpt lat="59.0912430" lon="30.0378610">
<ele>64.160400</ele>
<time>2026-04-22T20:51:23.000Z</time>
</trkpt>
<trkpt lat="59.0909980" lon="30.0382280">
<ele>66.781685</ele>
<time>2026-04-22T20:52:46.004Z</time>
</trkpt>
<trkpt lat="59.0908070" lon="30.0382830">
<ele>69.372482</ele>
<time>2026-04-22T20:53:27.001Z</time>
</trkpt>
<trkpt lat="59.0906450" lon="30.0384960">
<ele>72.146156</ele>
<time>2026-04-22T20:55:04.996Z</time>
</trkpt>
<trkpt lat="59.0905310" lon="30.0385270">
<ele>73.060562</ele>
<time>2026-04-22T20:55:24.004Z</time>
</trkpt>
<trkpt lat="59.0904500" lon="30.0383390">
<ele>73.456802</ele>
<time>2026-04-22T20:55:40.999Z</time>
</trkpt>
<trkpt lat="59.0904120" lon="30.0381340">
<ele>74.523598</ele>
<time>2026-04-22T20:55:58.996Z</time>
</trkpt>
<trkpt lat="59.0903810" lon="30.0378580">
<ele>75.316078</ele>
<time>2026-04-22T20:56:28.000Z</time>
</trkpt>
<trkpt lat="59.0904140" lon="30.0376860">
<ele>74.919838</ele>
<time>2026-04-22T20:56:41.997Z</time>
</trkpt>
<trkpt lat="59.0904540" lon="30.0376910">
<ele>72.450958</ele>
<time>2026-04-22T20:57:24.998Z</time>
</trkpt>
<trkpt lat="59.0903780" lon="30.0374860">
<ele>71.567039</ele>
<time>2026-04-22T20:57:45.000Z</time>
</trkpt>
<trkpt lat="59.0903490" lon="30.0372120">
<ele>71.993759</ele>
<time>2026-04-22T20:58:21.996Z</time>
</trkpt>
<trkpt lat="59.0903860" lon="30.0374550">
<ele>70.774559</ele>
<time>2026-04-22T20:58:44.003Z</time>
</trkpt>
<trkpt lat="59.0903990" lon="30.0380460">
<ele>67.970398</ele>
<time>2026-04-22T20:59:24.999Z</time>
</trkpt>
<trkpt lat="59.0904570" lon="30.0382160">
<ele>67.391281</ele>
<time>2026-04-22T20:59:42.996Z</time>
</trkpt>
<trkpt lat="59.0905350" lon="30.0383300">
<ele>67.086479</ele>
<time>2026-04-22T20:59:58.004Z</time>
</trkpt>
<trkpt lat="59.0906120" lon="30.0382920">
<ele>68.397118</ele>
<time>2026-04-22T21:00:08.001Z</time>
</trkpt>
<trkpt lat="59.0906930" lon="30.0382120">
<ele>70.073517</ele>
<time>2026-04-22T21:00:21.997Z</time>
</trkpt>
<trkpt lat="59.0907350" lon="30.0379760">
<ele>71.658485</ele>
<time>2026-04-22T21:00:48.004Z</time>
</trkpt>
<trkpt lat="59.0909990" lon="30.0375340">
<ele>72.359520</ele>
<time>2026-04-22T21:02:23.001Z</time>
</trkpt>
<trkpt lat="59.0911130" lon="30.0369610">
<ele>71.506081</ele>
<time>2026-04-22T21:04:27.002Z</time>
</trkpt>
<trkpt lat="59.0917240" lon="30.0364040">
<ele>70.530716</ele>
<time>2026-04-22T21:06:39.004Z</time>
</trkpt>
<trkpt lat="59.0918440" lon="30.0361880">
<ele>70.561203</ele>
<time>2026-04-22T21:07:25.997Z</time>
</trkpt>
<trkpt lat="59.0919520" lon="30.0362240">
<ele>71.262238</ele>
<time>2026-04-22T21:07:57.999Z</time>
</trkpt>
<trkpt lat="59.0921710" lon="30.0360910">
<ele>69.677284</ele>
<time>2026-04-22T21:08:46.003Z</time>
</trkpt>
<trkpt lat="59.0924920" lon="30.0355420">
<ele>73.182480</ele>
<time>2026-04-22T21:10:26.996Z</time>
</trkpt>
<trkpt lat="59.0926500" lon="30.0355780">
<ele>71.506081</ele>
<time>2026-04-22T21:11:02.999Z</time>
</trkpt>
<trkpt lat="59.0928700" lon="30.0353920">
<ele>72.176643</ele>
<time>2026-04-22T21:12:03.004Z</time>
</trkpt>
<trkpt lat="59.0930130" lon="30.0351920">
<ele>72.481438</ele>
<time>2026-04-22T21:12:45.996Z</time>
</trkpt>
<trkpt lat="59.0929940" lon="30.0350820">
<ele>72.115685</ele>
<time>2026-04-22T21:13:12.003Z</time>
</trkpt>
<trkpt lat="59.0930190" lon="30.0350060">
<ele>73.609200</ele>
<time>2026-04-22T21:13:39.003Z</time>
</trkpt>
<trkpt lat="59.0930870" lon="30.0350500">
<ele>78.546967</ele>
<time>2026-04-22T21:15:34.001Z</time>
</trkpt>
<trkpt lat="59.0931200" lon="30.0349970">
<ele>79.461365</ele>
<time>2026-04-22T21:16:48.996Z</time>
</trkpt>
<trkpt lat="59.0932710" lon="30.0346400">
<ele>78.912720</ele>
<time>2026-04-22T21:17:51.999Z</time>
</trkpt>
<trkpt lat="59.0933570" lon="30.0346090">
<ele>79.248001</ele>
<time>2026-04-22T21:18:12.001Z</time>
</trkpt>
<trkpt lat="59.0935250" lon="30.0348640">
<ele>75.590401</ele>
<time>2026-04-22T21:19:17.000Z</time>
</trkpt>
<trkpt lat="59.0934630" lon="30.0347150">
<ele>76.017120</ele>
<time>2026-04-22T21:20:13.998Z</time>
</trkpt>
<trkpt lat="59.0933170" lon="30.0345590">
<ele>75.681839</ele>
<time>2026-04-22T21:20:51.003Z</time>
</trkpt>
<trkpt lat="59.0932100" lon="30.0346030">
<ele>74.889359</ele>
<time>2026-04-22T21:21:07.998Z</time>
</trkpt>
<trkpt lat="59.0931430" lon="30.0347760">
<ele>73.395844</ele>
<time>2026-04-22T21:21:52.001Z</time>
</trkpt>
<trkpt lat="59.0929760" lon="30.0347980">
<ele>73.944481</ele>
<time>2026-04-22T21:22:36.998Z</time>
</trkpt>
<trkpt lat="59.0928170" lon="30.0347330">
<ele>73.091042</ele>
<time>2026-04-22T21:23:02.996Z</time>
</trkpt>
<trkpt lat="59.0926880" lon="30.0351260">
<ele>72.603355</ele>
<time>2026-04-22T21:24:11.002Z</time>
</trkpt>
<trkpt lat="59.0926020" lon="30.0355550">
<ele>71.414642</ele>
<time>2026-04-22T21:24:54.003Z</time>
</trkpt>
<trkpt lat="59.0925600" lon="30.0355730">
<ele>71.140320</ele>
<time>2026-04-22T21:25:17.996Z</time>
</trkpt>
<trkpt lat="59.0923800" lon="30.0353590">
<ele>71.475601</ele>
<time>2026-04-22T21:26:34.996Z</time>
</trkpt>
<trkpt lat="59.0919590" lon="30.0351890">
<ele>72.420479</ele>
<time>2026-04-22T21:27:59.003Z</time>
</trkpt>
<trkpt lat="59.0918100" lon="30.0346600">
<ele>71.841362</ele>
<time>2026-04-22T21:29:16.996Z</time>
</trkpt>
<trkpt lat="59.0916870" lon="30.0347010">
<ele>72.115685</ele>
<time>2026-04-22T21:29:40.998Z</time>
</trkpt>
<trkpt lat="59.0916550" lon="30.0346040">
<ele>73.883514</ele>
<time>2026-04-22T21:30:21.001Z</time>
</trkpt>
<trkpt lat="59.0915590" lon="30.0345750">
<ele>73.578720</ele>
<time>2026-04-22T21:30:37.002Z</time>
</trkpt>
<trkpt lat="59.0916070" lon="30.0344830">
<ele>71.993759</ele>
<time>2026-04-22T21:30:52.001Z</time>
</trkpt>
<trkpt lat="59.0915070" lon="30.0347510">
<ele>71.688957</ele>
<time>2026-04-22T21:31:31.996Z</time>
</trkpt>
<trkpt lat="59.0915550" lon="30.0350380">
<ele>71.201279</ele>
<time>2026-04-22T21:31:57.000Z</time>
</trkpt>
<trkpt lat="59.0915740" lon="30.0353430">
<ele>70.805038</ele>
<time>2026-04-22T21:32:24.000Z</time>
</trkpt>
<trkpt lat="59.0914910" lon="30.0357320">
<ele>70.987915</ele>
<time>2026-04-22T21:33:12.997Z</time>
</trkpt>
<trkpt lat="59.0914850" lon="30.0358930">
<ele>71.414642</ele>
<time>2026-04-22T21:33:28.999Z</time>
</trkpt>
<trkpt lat="59.0914100" lon="30.0360990">
<ele>68.580002</ele>
<time>2026-04-22T21:34:16.000Z</time>
</trkpt>
<trkpt lat="59.0913360" lon="30.0361850">
<ele>68.915283</ele>
<time>2026-04-22T21:34:33.997Z</time>
</trkpt>
<trkpt lat="59.0913030" lon="30.0363190">
<ele>68.976242</ele>
<time>2026-04-22T21:34:52.003Z</time>
</trkpt>
<trkpt lat="59.0911630" lon="30.0364870">
<ele>68.488556</ele>
<time>2026-04-22T21:35:23.997Z</time>
</trkpt>
<trkpt lat="59.0910160" lon="30.0364940">
<ele>69.250557</ele>
<time>2026-04-22T21:36:01.002Z</time>
</trkpt>
<trkpt lat="59.0910000" lon="30.0365630">
<ele>69.860161</ele>
<time>2026-04-22T21:37:03.003Z</time>
</trkpt>
<trkpt lat="59.0908720" lon="30.0365530">
<ele>70.408798</ele>
<time>2026-04-22T21:37:53.996Z</time>
</trkpt>
<trkpt lat="59.0907320" lon="30.0364290">
<ele>72.054718</ele>
<time>2026-04-22T21:38:32.997Z</time>
</trkpt>
<trkpt lat="59.0906080" lon="30.0365850">
<ele>73.517761</ele>
<time>2026-04-22T21:39:10.996Z</time>
</trkpt>
<trkpt lat="59.0903020" lon="30.0366520">
<ele>75.773285</ele>
<time>2026-04-22T21:40:28.998Z</time>
</trkpt>
<trkpt lat="59.0903950" lon="30.0363330">
<ele>73.578720</ele>
<time>2026-04-22T21:41:05.001Z</time>
</trkpt>
<trkpt lat="59.0903650" lon="30.0363180">
<ele>73.456802</ele>
<time>2026-04-22T21:41:25.996Z</time>
</trkpt>
<trkpt lat="59.0905020" lon="30.0361940">
<ele>74.767441</ele>
<time>2026-04-22T21:42:19.002Z</time>
</trkpt>
<trkpt lat="59.0905240" lon="30.0360820">
<ele>76.047600</ele>
<time>2026-04-22T21:42:39.004Z</time>
</trkpt>
<trkpt lat="59.0906590" lon="30.0359230">
<ele>78.577438</ele>
<time>2026-04-22T21:43:21.996Z</time>
</trkpt>
<trkpt lat="59.0906420" lon="30.0358520">
<ele>80.253838</ele>
<time>2026-04-22T21:43:47.001Z</time>
</trkpt>
<trkpt lat="59.0913010" lon="30.0351570">
<ele>76.961998</ele>
<time>2026-04-22T21:45:24.002Z</time>
</trkpt>
<trkpt lat="59.0916650" lon="30.0344550">
<ele>76.840080</ele>
<time>2026-04-22T21:47:32.004Z</time>
</trkpt>
<trkpt lat="59.0916320" lon="30.0344730">
<ele>76.139038</ele>
<time>2026-04-22T21:47:46.000Z</time>
</trkpt>
<trkpt lat="59.0917740" lon="30.0348340">
<ele>73.121521</ele>
<time>2026-04-22T21:48:59.000Z</time>
</trkpt>
<trkpt lat="59.0920000" lon="30.0347450">
<ele>67.269356</ele>
<time>2026-04-22T21:49:39.003Z</time>
</trkpt>
<trkpt lat="59.0920640" lon="30.0346400">
<ele>66.568321</ele>
<time>2026-04-22T21:49:58.996Z</time>
</trkpt>
<trkpt lat="59.0921010" lon="30.0343820">
<ele>65.074799</ele>
<time>2026-04-22T21:50:21.002Z</time>
</trkpt>
<trkpt lat="59.0921930" lon="30.0342760">
<ele>65.288162</ele>
<time>2026-04-22T21:50:41.004Z</time>
</trkpt>
<trkpt lat="59.0923530" lon="30.0343270">
<ele>70.378319</ele>
<time>2026-04-22T21:51:30.001Z</time>
</trkpt>
<trkpt lat="59.0924010" lon="30.0344200">
<ele>72.085197</ele>
<time>2026-04-22T21:51:49.000Z</time>
</trkpt>
<trkpt lat="59.0926430" lon="30.0343580">
<ele>71.749916</ele>
<time>2026-04-22T21:52:29.997Z</time>
</trkpt>
<trkpt lat="59.0929530" lon="30.0340670">
<ele>78.394562</ele>
<time>2026-04-22T21:54:05.003Z</time>
</trkpt>
<trkpt lat="59.0932550" lon="30.0342600">
<ele>80.101433</ele>
<time>2026-04-22T21:55:04.999Z</time>
</trkpt>
<trkpt lat="59.0934010" lon="30.0341960">
<ele>77.541115</ele>
<time>2026-04-22T21:55:26.996Z</time>
</trkpt>
<trkpt lat="59.0935960" lon="30.0340140">
<ele>74.980797</ele>
<time>2026-04-22T21:56:05.004Z</time>
</trkpt>
<trkpt lat="59.0936780" lon="30.0338510">
<ele>73.609200</ele>
<time>2026-04-22T21:56:23.001Z</time>
</trkpt>
<trkpt lat="59.0937490" lon="30.0335470">
<ele>71.536560</ele>
<time>2026-04-22T21:56:43.996Z</time>
</trkpt>
<trkpt lat="59.0938490" lon="30.0334020">
<ele>71.414642</ele>
<time>2026-04-22T21:57:03.997Z</time>
</trkpt>
<trkpt lat="59.0939970" lon="30.0333070">
<ele>69.829681</ele>
<time>2026-04-22T21:57:25.001Z</time>
</trkpt>
<trkpt lat="59.0941180" lon="30.0332600">
<ele>69.585838</ele>
<time>2026-04-22T21:57:46.999Z</time>
</trkpt>
<trkpt lat="59.0942380" lon="30.0333510">
<ele>69.738243</ele>
<time>2026-04-22T21:58:07.000Z</time>
</trkpt>
<trkpt lat="59.0945930" lon="30.0330220">
<ele>80.893921</ele>
<time>2026-04-22T22:00:23.003Z</time>
</trkpt>
<trkpt lat="59.0946450" lon="30.0331280">
<ele>82.783684</ele>
<time>2026-04-22T22:00:43.004Z</time>
</trkpt>
<trkpt lat="59.0946790" lon="30.0333870">
<ele>83.149437</ele>
<time>2026-04-22T22:01:02.997Z</time>
</trkpt>
<trkpt lat="59.0950480" lon="30.0338590">
<ele>78.059280</ele>
<time>2026-04-22T22:02:10.000Z</time>
</trkpt>
<trkpt lat="59.0951870" lon="30.0339320">
<ele>78.333603</ele>
<time>2026-04-22T22:02:30.002Z</time>
</trkpt>
<trkpt lat="59.0954550" lon="30.0338200">
<ele>80.314796</ele>
<time>2026-04-22T22:03:21.004Z</time>
</trkpt>
<trkpt lat="59.0955760" lon="30.0338210">
<ele>80.772003</ele>
<time>2026-04-22T22:03:36.996Z</time>
</trkpt>
<trkpt lat="59.0959170" lon="30.0335950">
<ele>76.840080</ele>
<time>2026-04-22T22:04:34.003Z</time>
</trkpt>
<trkpt lat="59.0961620" lon="30.0332170">
<ele>68.671440</ele>
<time>2026-04-22T22:05:39.002Z</time>
</trkpt>
<trkpt lat="59.0967190" lon="30.0328290">
<ele>75.925682</ele>
<time>2026-04-22T22:07:03.000Z</time>
</trkpt>
<trkpt lat="59.0971000" lon="30.0328470">
<ele>81.473038</ele>
<time>2026-04-22T22:08:03.998Z</time>
</trkpt>
<trkpt lat="59.0971660" lon="30.0327970">
<ele>81.168236</ele>
<time>2026-04-22T22:08:14.997Z</time>
</trkpt>
<trkpt lat="59.0973950" lon="30.0327630">
<ele>84.521034</ele>
<time>2026-04-22T22:08:52.996Z</time>
</trkpt>
<trkpt lat="59.0976680" lon="30.0328610">
<ele>85.252563</ele>
<time>2026-04-22T22:09:27.003Z</time>
</trkpt>
<trkpt lat="59.0978470" lon="30.0329920">
<ele>83.210403</ele>
<time>2026-04-22T22:09:58.003Z</time>
</trkpt>
<trkpt lat="59.0980400" lon="30.0328930">
<ele>85.953598</ele>
<time>2026-04-22T22:10:55.001Z</time>
</trkpt>
<trkpt lat="59.0981200" lon="30.0329540">
<ele>85.344002</ele>
<time>2026-04-22T22:11:11.003Z</time>
</trkpt>
<trkpt lat="59.0982870" lon="30.0329460">
<ele>85.374481</ele>
<time>2026-04-22T22:11:31.004Z</time>
</trkpt>
<trkpt lat="59.0986640" lon="30.0325970">
<ele>78.821281</ele>
<time>2026-04-22T22:12:32.003Z</time>
</trkpt>
<trkpt lat="59.0987440" lon="30.0326520">
<ele>77.083916</ele>
<time>2026-04-22T22:12:55.002Z</time>
</trkpt>
<trkpt lat="59.0987740" lon="30.0324810">
<ele>76.139038</ele>
<time>2026-04-22T22:13:19.004Z</time>
</trkpt>
<trkpt lat="59.0989020" lon="30.0323360">
<ele>76.078079</ele>
<time>2026-04-22T22:13:42.004Z</time>
</trkpt>
<trkpt lat="59.0990650" lon="30.0319600">
<ele>74.584557</ele>
<time>2026-04-22T22:14:24.996Z</time>
</trkpt>
<trkpt lat="59.0992420" lon="30.0309240">
<ele>67.635117</ele>
<time>2026-04-22T22:15:53.997Z</time>
</trkpt>
<trkpt lat="59.0993170" lon="30.0308130">
<ele>69.494400</ele>
<time>2026-04-22T22:16:15.001Z</time>
</trkpt>
<trkpt lat="59.0995350" lon="30.0308420">
<ele>73.731117</ele>
<time>2026-04-22T22:16:57.000Z</time>
</trkpt>
<trkpt lat="59.0995760" lon="30.0306880">
<ele>73.273918</ele>
<time>2026-04-22T22:17:15.999Z</time>
</trkpt>
<trkpt lat="59.0997480" lon="30.0305960">
<ele>72.450958</ele>
<time>2026-04-22T22:18:03.001Z</time>
</trkpt>
<trkpt lat="59.0998010" lon="30.0304110">
<ele>74.218803</ele>
<time>2026-04-22T22:18:36.999Z</time>
</trkpt>
<trkpt lat="59.0998260" lon="30.0300080">
<ele>74.554085</ele>
<time>2026-04-22T22:19:21.996Z</time>
</trkpt>
<trkpt lat="59.0999070" lon="30.0299680">
<ele>73.761597</ele>
<time>2026-04-22T22:19:40.996Z</time>
</trkpt>
<trkpt lat="59.0997720" lon="30.0289570">
<ele>67.116959</ele>
<time>2026-04-22T22:20:58.998Z</time>
</trkpt>
<trkpt lat="59.0993500" lon="30.0273680">
<ele>58.247280</ele>
<time>2026-04-22T22:22:41.002Z</time>
</trkpt>
<trkpt lat="59.0992550" lon="30.0266120">
<ele>53.644798</ele>
<time>2026-04-22T22:23:16.002Z</time>
</trkpt>
<trkpt lat="59.0991830" lon="30.0262460">
<ele>54.315357</ele>
<time>2026-04-22T22:23:33.999Z</time>
</trkpt>
<trkpt lat="59.0991820" lon="30.0257620">
<ele>55.900318</ele>
<time>2026-04-22T22:23:56.999Z</time>
</trkpt>
<trkpt lat="59.0990870" lon="30.0255380">
<ele>56.235600</ele>
<time>2026-04-22T22:24:17.001Z</time>
</trkpt>
<trkpt lat="59.0990000" lon="30.0250840">
<ele>52.699917</ele>
<time>2026-04-22T22:24:37.996Z</time>
</trkpt>
<trkpt lat="59.0989580" lon="30.0246590">
<ele>53.157120</ele>
<time>2026-04-22T22:25:00.002Z</time>
</trkpt>
<trkpt lat="59.0988760" lon="30.0244080">
<ele>56.997601</ele>
<time>2026-04-22T22:25:19.001Z</time>
</trkpt>
<trkpt lat="59.0988000" lon="30.0241030">
<ele>54.894482</ele>
<time>2026-04-22T22:25:39.996Z</time>
</trkpt>
<trkpt lat="59.0987450" lon="30.0236790">
<ele>53.279041</ele>
<time>2026-04-22T22:26:01.000Z</time>
</trkpt>
<trkpt lat="59.0986510" lon="30.0233650">
<ele>52.821842</ele>
<time>2026-04-22T22:26:22.998Z</time>
</trkpt>
<trkpt lat="59.0984940" lon="30.0223710">
<ele>50.840641</ele>
<time>2026-04-22T22:27:18.000Z</time>
</trkpt>
<trkpt lat="59.0984060" lon="30.0214280">
<ele>52.943760</ele>
<time>2026-04-22T22:28:02.004Z</time>
</trkpt>
<trkpt lat="59.0983220" lon="30.0211690">
<ele>51.023518</ele>
<time>2026-04-22T22:28:22.999Z</time>
</trkpt>
<trkpt lat="59.0982350" lon="30.0205290">
<ele>50.139599</ele>
<time>2026-04-22T22:28:59.002Z</time>
</trkpt>
<trkpt lat="59.0981280" lon="30.0200970">
<ele>49.560482</ele>
<time>2026-04-22T22:29:20.999Z</time>
</trkpt>
<trkpt lat="59.0978330" lon="30.0178160">
<ele>49.103283</ele>
<time>2026-04-22T22:31:07.997Z</time>
</trkpt>
<trkpt lat="59.0976850" lon="30.0174560">
<ele>49.895760</ele>
<time>2026-04-22T22:31:26.996Z</time>
</trkpt>
<trkpt lat="59.0975800" lon="30.0166290">
<ele>50.932083</ele>
<time>2026-04-22T22:32:09.004Z</time>
</trkpt>
<trkpt lat="59.0974210" lon="30.0158780">
<ele>46.360081</ele>
<time>2026-04-22T22:32:46.000Z</time>
</trkpt>
<trkpt lat="59.0973970" lon="30.0154770">
<ele>46.085758</ele>
<time>2026-04-22T22:33:07.004Z</time>
</trkpt>
<trkpt lat="59.0972070" lon="30.0145370">
<ele>47.335442</ele>
<time>2026-04-22T22:33:46.999Z</time>
</trkpt>
<trkpt lat="59.0971870" lon="30.0141900">
<ele>46.512482</ele>
<time>2026-04-22T22:34:04.996Z</time>
</trkpt>
<trkpt lat="59.0967650" lon="30.0120610">
<ele>49.438560</ele>
<time>2026-04-22T22:35:48.002Z</time>
</trkpt>
<trkpt lat="59.0964740" lon="30.0101520">
<ele>52.334160</ele>
<time>2026-04-22T22:37:09.002Z</time>
</trkpt>
<trkpt lat="59.0962290" lon="30.0088210">
<ele>54.924957</ele>
<time>2026-04-22T22:38:06.000Z</time>
</trkpt>
<trkpt lat="59.0960430" lon="30.0081990">
<ele>57.729118</ele>
<time>2026-04-22T22:38:38.996Z</time>
</trkpt>
<trkpt lat="59.0958110" lon="30.0068500">
<ele>57.790081</ele>
<time>2026-04-22T22:39:40.003Z</time>
</trkpt>
<trkpt lat="59.0956150" lon="30.0059100">
<ele>56.570881</ele>
<time>2026-04-22T22:40:19.004Z</time>
</trkpt>
<trkpt lat="59.0955790" lon="30.0056200">
<ele>54.406799</ele>
<time>2026-04-22T22:40:31.999Z</time>
</trkpt>
<trkpt lat="59.0954900" lon="30.0052700">
<ele>50.718719</ele>
<time>2026-04-22T22:40:48.000Z</time>
</trkpt>
<trkpt lat="59.0953840" lon="30.0043550">
<ele>52.029358</ele>
<time>2026-04-22T22:41:24.003Z</time>
</trkpt>
<trkpt lat="59.0950060" lon="30.0022600">
<ele>49.225201</ele>
<time>2026-04-22T22:43:01.004Z</time>
</trkpt>
<trkpt lat="59.0948880" lon="30.0013140">
<ele>47.122082</ele>
<time>2026-04-22T22:43:42.001Z</time>
</trkpt>
<trkpt lat="59.0946910" lon="30.0002080">
<ele>44.378883</ele>
<time>2026-04-22T22:44:29.996Z</time>
</trkpt>
<trkpt lat="59.0943500" lon="29.9985650">
<ele>38.374321</ele>
<time>2026-04-22T22:45:43.998Z</time>
</trkpt>
<trkpt lat="59.0942490" lon="29.9977090">
<ele>31.120079</ele>
<time>2026-04-22T22:46:25.003Z</time>
</trkpt>
<trkpt lat="59.0939540" lon="29.9962450">
<ele>26.426159</ele>
<time>2026-04-22T22:47:27.997Z</time>
</trkpt>
<trkpt lat="59.0937870" lon="29.9949760">
<ele>27.675840</ele>
<time>2026-04-22T22:48:23.000Z</time>
</trkpt>
<trkpt lat="59.0937010" lon="29.9947200">
<ele>30.083759</ele>
<time>2026-04-22T22:48:33.998Z</time>
</trkpt>
<trkpt lat="59.0936580" lon="29.9942280">
<ele>32.887920</ele>
<time>2026-04-22T22:48:52.004Z</time>
</trkpt>
<trkpt lat="59.0934210" lon="29.9928980">
<ele>38.191441</ele>
<time>2026-04-22T22:49:52.000Z</time>
</trkpt>
<trkpt lat="59.0933880" lon="29.9925170">
<ele>44.683681</ele>
<time>2026-04-22T22:50:05.004Z</time>
</trkpt>
<trkpt lat="59.0931770" lon="29.9914430">
<ele>45.598083</ele>
<time>2026-04-22T22:50:58.001Z</time>
</trkpt>
<trkpt lat="59.0929600" lon="29.9905690">
<ele>39.105843</ele>
<time>2026-04-22T22:51:40.000Z</time>
</trkpt>
<trkpt lat="59.0928630" lon="29.9900730">
<ele>42.732960</ele>
<time>2026-04-22T22:52:01.004Z</time>
</trkpt>
<trkpt lat="59.0928500" lon="29.9897920">
<ele>42.519600</ele>
<time>2026-04-22T22:52:20.997Z</time>
</trkpt>
<trkpt lat="59.0927970" lon="29.9895990">
<ele>64.526161</ele>
<time>2026-04-22T22:53:45.997Z</time>
</trkpt>
<trkpt lat="59.0928120" lon="29.9896680">
<ele>65.074799</ele>
<time>2026-04-22T22:54:03.001Z</time>
</trkpt>
<trkpt lat="59.0929030" lon="29.9897300">
<ele>64.068962</ele>
<time>2026-04-22T22:55:29.004Z</time>
</trkpt>
</trkseg>
</trk>
<trk>
 <name>20260423_Lisa60</name>
 <desc>20260423_Lisa60</desc>
<trkseg>
<trkpt lat="59.1021660" lon="29.9784500">
<ele>296.753265</ele>
<time>2026-04-22T18:39:33.002Z</time>
</trkpt>
<trkpt lat="59.1021130" lon="29.9783270">
<ele>291.967926</ele>
<time>2026-04-22T18:40:17.999Z</time>
</trkpt>
<trkpt lat="59.1021160" lon="29.9782640">
<ele>278.434814</ele>
<time>2026-04-22T18:42:12.997Z</time>
</trkpt>
<trkpt lat="59.1021310" lon="29.9782910">
<ele>273.222717</ele>
<time>2026-04-22T18:43:06.997Z</time>
</trkpt>
<trkpt lat="59.1021130" lon="29.9782990">
<ele>262.188965</ele>
<time>2026-04-22T18:44:42.003Z</time>
</trkpt>
<trkpt lat="59.1021550" lon="29.9782840">
<ele>241.218735</ele>
<time>2026-04-22T18:48:18.996Z</time>
</trkpt>
<trkpt lat="59.1021390" lon="29.9783650">
<ele>239.786163</ele>
<time>2026-04-22T18:48:40.000Z</time>
</trkpt>
<trkpt lat="59.1021820" lon="29.9783370">
<ele>237.561127</ele>
<time>2026-04-22T18:49:15.001Z</time>
</trkpt>
<trkpt lat="59.1021770" lon="29.9784000">
<ele>233.415833</ele>
<time>2026-04-22T18:49:48.999Z</time>
</trkpt>
<trkpt lat="59.1021510" lon="29.9782180">
<ele>228.569534</ele>
<time>2026-04-22T18:50:28.000Z</time>
</trkpt>
<trkpt lat="59.1018530" lon="29.9779520">
<ele>228.051361</ele>
<time>2026-04-22T18:50:45.004Z</time>
</trkpt>
<trkpt lat="59.1008370" lon="29.9776870">
<ele>224.576630</ele>
<time>2026-04-22T18:51:16.004Z</time>
</trkpt>
<trkpt lat="59.1006580" lon="29.9775840">
<ele>223.479370</ele>
<time>2026-04-22T18:51:27.003Z</time>
</trkpt>
<trkpt lat="59.0992500" lon="29.9771320">
<ele>219.395035</ele>
<time>2026-04-22T18:52:13.002Z</time>
</trkpt>
<trkpt lat="59.0977060" lon="29.9765700">
<ele>216.590866</ele>
<time>2026-04-22T18:53:00.004Z</time>
</trkpt>
<trkpt lat="59.0968820" lon="29.9763960">
<ele>215.371674</ele>
<time>2026-04-22T18:53:15.996Z</time>
</trkpt>
<trkpt lat="59.0957350" lon="29.9760730">
<ele>213.634323</ele>
<time>2026-04-22T18:53:42.003Z</time>
</trkpt>
<trkpt lat="59.0935160" lon="29.9759300">
<ele>212.598007</ele>
<time>2026-04-22T18:54:20.002Z</time>
</trkpt>
<trkpt lat="59.0932730" lon="29.9755760">
<ele>211.927429</ele>
<time>2026-04-22T18:54:25.998Z</time>
</trkpt>
<trkpt lat="59.0932530" lon="29.9746370">
<ele>210.433929</ele>
<time>2026-04-22T18:54:40.003Z</time>
</trkpt>
<trkpt lat="59.0935910" lon="29.9705190">
<ele>207.934570</ele>
<time>2026-04-22T18:55:18.002Z</time>
</trkpt>
<trkpt lat="59.0937660" lon="29.9685780">
<ele>206.319122</ele>
<time>2026-04-22T18:55:33.001Z</time>
</trkpt>
<trkpt lat="59.0939850" lon="29.9668350">
<ele>207.355438</ele>
<time>2026-04-22T18:55:45.002Z</time>
</trkpt>
<trkpt lat="59.0949140" lon="29.9572030">
<ele>202.935837</ele>
<time>2026-04-22T18:56:51.996Z</time>
</trkpt>
<trkpt lat="59.0961300" lon="29.9430970">
<ele>199.522079</ele>
<time>2026-04-22T18:58:28.004Z</time>
</trkpt>
<trkpt lat="59.0962750" lon="29.9411040">
<ele>197.967606</ele>
<time>2026-04-22T18:58:43.003Z</time>
</trkpt>
<trkpt lat="59.0964410" lon="29.9398460">
<ele>197.144638</ele>
<time>2026-04-22T18:58:54.002Z</time>
</trkpt>
<trkpt lat="59.0965760" lon="29.9385620">
<ele>196.900803</ele>
<time>2026-04-22T18:59:06.003Z</time>
</trkpt>
<trkpt lat="59.0968530" lon="29.9347310">
<ele>195.834000</ele>
<time>2026-04-22T18:59:30.998Z</time>
</trkpt>
<trkpt lat="59.0970640" lon="29.9322270">
<ele>193.761368</ele>
<time>2026-04-22T18:59:49.998Z</time>
</trkpt>
<trkpt lat="59.0970040" lon="29.9316120">
<ele>193.852798</ele>
<time>2026-04-22T18:59:55.000Z</time>
</trkpt>
<trkpt lat="59.0965330" lon="29.9295560">
<ele>192.877441</ele>
<time>2026-04-22T19:00:09.999Z</time>
</trkpt>
<trkpt lat="59.0949470" lon="29.9238270">
<ele>190.256165</ele>
<time>2026-04-22T19:00:51.998Z</time>
</trkpt>
<trkpt lat="59.0935320" lon="29.9183420">
<ele>187.726334</ele>
<time>2026-04-22T19:01:29.997Z</time>
</trkpt>
<trkpt lat="59.0932990" lon="29.9172710">
<ele>187.482468</ele>
<time>2026-04-22T19:01:39.000Z</time>
</trkpt>
<trkpt lat="59.0937450" lon="29.9171770">
<ele>188.579758</ele>
<time>2026-04-22T19:01:45.998Z</time>
</trkpt>
<trkpt lat="59.1053490" lon="29.9162390">
<ele>181.325531</ele>
<time>2026-04-22T19:02:51.999Z</time>
</trkpt>
<trkpt lat="59.1275970" lon="29.9135570">
<ele>184.221130</ele>
<time>2026-04-22T19:04:30.996Z</time>
</trkpt>
<trkpt lat="59.1328420" lon="29.9132050">
<ele>182.910477</ele>
<time>2026-04-22T19:04:53.003Z</time>
</trkpt>
<trkpt lat="59.1350570" lon="29.9128330">
<ele>183.641998</ele>
<time>2026-04-22T19:05:02.999Z</time>
</trkpt>
<trkpt lat="59.1434490" lon="29.9125730">
<ele>184.221130</ele>
<time>2026-04-22T19:05:40.998Z</time>
</trkpt>
<trkpt lat="59.1507670" lon="29.9125090">
<ele>179.313843</ele>
<time>2026-04-22T19:06:18.003Z</time>
</trkpt>
<trkpt lat="59.1529960" lon="29.9128710">
<ele>179.313843</ele>
<time>2026-04-22T19:06:30.004Z</time>
</trkpt>
<trkpt lat="59.1569880" lon="29.9136620">
<ele>177.302170</ele>
<time>2026-04-22T19:06:56.002Z</time>
</trkpt>
<trkpt lat="59.1571880" lon="29.9145680">
<ele>176.082962</ele>
<time>2026-04-22T19:07:04.996Z</time>
</trkpt>
<trkpt lat="59.1586350" lon="29.9197380">
<ele>176.631607</ele>
<time>2026-04-22T19:07:36.998Z</time>
</trkpt>
<trkpt lat="59.1641720" lon="29.9389150">
<ele>180.472076</ele>
<time>2026-04-22T19:09:05.999Z</time>
</trkpt>
<trkpt lat="59.1646070" lon="29.9406750">
<ele>183.550568</ele>
<time>2026-04-22T19:09:16.998Z</time>
</trkpt>
<trkpt lat="59.1646610" lon="29.9410600">
<ele>184.221130</ele>
<time>2026-04-22T19:09:19.002Z</time>
</trkpt>
<trkpt lat="59.1648300" lon="29.9431570">
<ele>184.830734</ele>
<time>2026-04-22T19:09:27.996Z</time>
</trkpt>
<trkpt lat="59.1649570" lon="29.9441470">
<ele>183.062866</ele>
<time>2026-04-22T19:09:32.999Z</time>
</trkpt>
<trkpt lat="59.1655310" lon="29.9448760">
<ele>180.959763</ele>
<time>2026-04-22T19:09:41.000Z</time>
</trkpt>
<trkpt lat="59.1661680" lon="29.9450500">
<ele>180.685440</ele>
<time>2026-04-22T19:09:50.003Z</time>
</trkpt>
<trkpt lat="59.1670940" lon="29.9454680">
<ele>181.295029</ele>
<time>2026-04-22T19:09:58.003Z</time>
</trkpt>
<trkpt lat="59.1681780" lon="29.9462230">
<ele>180.197769</ele>
<time>2026-04-22T19:10:09.002Z</time>
</trkpt>
<trkpt lat="59.1694330" lon="29.9471760">
<ele>179.588165</ele>
<time>2026-04-22T19:10:22.999Z</time>
</trkpt>
<trkpt lat="59.1694860" lon="29.9478990">
<ele>179.009033</ele>
<time>2026-04-22T19:10:30.999Z</time>
</trkpt>
<trkpt lat="59.1692480" lon="29.9494830">
<ele>177.698395</ele>
<time>2026-04-22T19:10:40.996Z</time>
</trkpt>
<trkpt lat="59.1690320" lon="29.9498960">
<ele>177.546005</ele>
<time>2026-04-22T19:10:44.996Z</time>
</trkpt>
<trkpt lat="59.1679580" lon="29.9514030">
<ele>177.241196</ele>
<time>2026-04-22T19:10:59.002Z</time>
</trkpt>
<trkpt lat="59.1670470" lon="29.9530000">
<ele>176.357269</ele>
<time>2026-04-22T19:11:11.996Z</time>
</trkpt>
<trkpt lat="59.1661240" lon="29.9540330">
<ele>175.625763</ele>
<time>2026-04-22T19:11:23.997Z</time>
</trkpt>
<trkpt lat="59.1648360" lon="29.9544320">
<ele>174.924728</ele>
<time>2026-04-22T19:11:38.003Z</time>
</trkpt>
<trkpt lat="59.1639450" lon="29.9552980">
<ele>174.589432</ele>
<time>2026-04-22T19:11:46.997Z</time>
</trkpt>
<trkpt lat="59.1592070" lon="29.9611080">
<ele>168.859207</ele>
<time>2026-04-22T19:12:25.998Z</time>
</trkpt>
<trkpt lat="59.1538370" lon="29.9679360">
<ele>162.397430</ele>
<time>2026-04-22T19:13:14.002Z</time>
</trkpt>
<trkpt lat="59.1525100" lon="29.9697580">
<ele>162.245041</ele>
<time>2026-04-22T19:13:27.998Z</time>
</trkpt>
<trkpt lat="59.1517980" lon="29.9712490">
<ele>160.812469</ele>
<time>2026-04-22T19:13:38.997Z</time>
</trkpt>
<trkpt lat="59.1508390" lon="29.9736870">
<ele>158.861771</ele>
<time>2026-04-22T19:13:53.996Z</time>
</trkpt>
<trkpt lat="59.1490180" lon="29.9781150">
<ele>157.215836</ele>
<time>2026-04-22T19:14:20.996Z</time>
</trkpt>
<trkpt lat="59.1477390" lon="29.9805050">
<ele>155.905197</ele>
<time>2026-04-22T19:14:36.004Z</time>
</trkpt>
<trkpt lat="59.1462850" lon="29.9827260">
<ele>154.838394</ele>
<time>2026-04-22T19:14:51.003Z</time>
</trkpt>
<trkpt lat="59.1423490" lon="29.9884840">
<ele>151.790405</ele>
<time>2026-04-22T19:15:29.002Z</time>
</trkpt>
<trkpt lat="59.1419640" lon="29.9891200">
<ele>150.845520</ele>
<time>2026-04-22T19:15:34.004Z</time>
</trkpt>
<trkpt lat="59.1418400" lon="29.9894550">
<ele>150.845520</ele>
<time>2026-04-22T19:15:37.002Z</time>
</trkpt>
<trkpt lat="59.1417160" lon="29.9903510">
<ele>150.784561</ele>
<time>2026-04-22T19:15:50.999Z</time>
</trkpt>
<trkpt lat="59.1414070" lon="29.9911240">
<ele>149.900635</ele>
<time>2026-04-22T19:15:57.997Z</time>
</trkpt>
<trkpt lat="59.1404170" lon="29.9922660">
<ele>150.083511</ele>
<time>2026-04-22T19:16:09.998Z</time>
</trkpt>
<trkpt lat="59.1389920" lon="29.9933520">
<ele>149.047195</ele>
<time>2026-04-22T19:16:21.999Z</time>
</trkpt>
<trkpt lat="59.1376070" lon="29.9946740">
<ele>147.706085</ele>
<time>2026-04-22T19:16:34.000Z</time>
</trkpt>
<trkpt lat="59.1362570" lon="29.9966370">
<ele>147.096481</ele>
<time>2026-04-22T19:16:47.997Z</time>
</trkpt>
<trkpt lat="59.1349850" lon="29.9989860">
<ele>144.597122</ele>
<time>2026-04-22T19:17:07.999Z</time>
</trkpt>
<trkpt lat="59.1342990" lon="30.0003460">
<ele>147.005035</ele>
<time>2026-04-22T19:17:18.004Z</time>
</trkpt>
<trkpt lat="59.1338850" lon="30.0017090">
<ele>147.797516</ele>
<time>2026-04-22T19:17:28.000Z</time>
</trkpt>
<trkpt lat="59.1325150" lon="30.0079280">
<ele>141.975830</ele>
<time>2026-04-22T19:17:56.996Z</time>
</trkpt>
<trkpt lat="59.1312370" lon="30.0134540">
<ele>140.939514</ele>
<time>2026-04-22T19:18:34.001Z</time>
</trkpt>
<trkpt lat="59.1294130" lon="30.0215550">
<ele>137.708633</ele>
<time>2026-04-22T19:19:36.002Z</time>
</trkpt>
<trkpt lat="59.1291370" lon="30.0229590">
<ele>137.251434</ele>
<time>2026-04-22T19:19:48.996Z</time>
</trkpt>
<trkpt lat="59.1283810" lon="30.0262110">
<ele>134.752075</ele>
<time>2026-04-22T19:20:18.001Z</time>
</trkpt>
<trkpt lat="59.1279020" lon="30.0281410">
<ele>132.801361</ele>
<time>2026-04-22T19:20:38.996Z</time>
</trkpt>
<trkpt lat="59.1273640" lon="30.0306590">
<ele>131.307831</ele>
<time>2026-04-22T19:21:00.000Z</time>
</trkpt>
<trkpt lat="59.1257150" lon="30.0378060">
<ele>126.949203</ele>
<time>2026-04-22T19:21:47.002Z</time>
</trkpt>
<trkpt lat="59.1252860" lon="30.0395320">
<ele>126.979683</ele>
<time>2026-04-22T19:22:02.001Z</time>
</trkpt>
<trkpt lat="59.1245920" lon="30.0427160">
<ele>127.955040</ele>
<time>2026-04-22T19:22:21.000Z</time>
</trkpt>
<trkpt lat="59.1241540" lon="30.0444310">
<ele>127.650238</ele>
<time>2026-04-22T19:22:33.001Z</time>
</trkpt>
<trkpt lat="59.1238380" lon="30.0460600">
<ele>127.071121</ele>
<time>2026-04-22T19:22:46.004Z</time>
</trkpt>
<trkpt lat="59.1226990" lon="30.0511790">
<ele>122.742966</ele>
<time>2026-04-22T19:23:25.999Z</time>
</trkpt>
<trkpt lat="59.1222440" lon="30.0529180">
<ele>122.011436</ele>
<time>2026-04-22T19:23:43.996Z</time>
</trkpt>
<trkpt lat="59.1218290" lon="30.0549400">
<ele>121.005600</ele>
<time>2026-04-22T19:24:05.000Z</time>
</trkpt>
<trkpt lat="59.1214370" lon="30.0564750">
<ele>119.786400</ele>
<time>2026-04-22T19:24:18.996Z</time>
</trkpt>
<trkpt lat="59.1208290" lon="30.0584560">
<ele>118.963440</ele>
<time>2026-04-22T19:24:37.996Z</time>
</trkpt>
<trkpt lat="59.1203190" lon="30.0598710">
<ele>118.597679</ele>
<time>2026-04-22T19:24:52.001Z</time>
</trkpt>
<trkpt lat="59.1198730" lon="30.0609330">
<ele>117.774719</ele>
<time>2026-04-22T19:25:05.998Z</time>
</trkpt>
<trkpt lat="59.1196520" lon="30.0612980">
<ele>117.866165</ele>
<time>2026-04-22T19:25:11.001Z</time>
</trkpt>
<trkpt lat="59.1179290" lon="30.0634630">
<ele>115.031517</ele>
<time>2026-04-22T19:25:55.004Z</time>
</trkpt>
<trkpt lat="59.1174370" lon="30.0641850">
<ele>115.732567</ele>
<time>2026-04-22T19:26:10.003Z</time>
</trkpt>
<trkpt lat="59.1170040" lon="30.0649550">
<ele>115.641121</ele>
<time>2026-04-22T19:26:25.996Z</time>
</trkpt>
<trkpt lat="59.1164300" lon="30.0657050">
<ele>114.879120</ele>
<time>2026-04-22T19:26:41.004Z</time>
</trkpt>
<trkpt lat="59.1159370" lon="30.0664680">
<ele>114.482880</ele>
<time>2026-04-22T19:26:52.996Z</time>
</trkpt>
<trkpt lat="59.1155200" lon="30.0667380">
<ele>114.513367</ele>
<time>2026-04-22T19:26:55.000Z</time>
</trkpt>
<trkpt lat="59.1150440" lon="30.0676400">
<ele>113.873283</ele>
<time>2026-04-22T19:27:08.997Z</time>
</trkpt>
<trkpt lat="59.1143780" lon="30.0687470">
<ele>114.300003</ele>
<time>2026-04-22T19:27:26.001Z</time>
</trkpt>
<trkpt lat="59.1135250" lon="30.0704100">
<ele>111.587280</ele>
<time>2026-04-22T19:27:54.996Z</time>
</trkpt>
<trkpt lat="59.1129400" lon="30.0716720">
<ele>110.337601</ele>
<time>2026-04-22T19:28:33.004Z</time>
</trkpt>
<trkpt lat="59.1127820" lon="30.0720850">
<ele>110.002319</ele>
<time>2026-04-22T19:28:40.996Z</time>
</trkpt>
<trkpt lat="59.1123620" lon="30.0729330">
<ele>108.356400</ele>
<time>2026-04-22T19:28:52.997Z</time>
</trkpt>
<trkpt lat="59.1115720" lon="30.0748850">
<ele>105.948479</ele>
<time>2026-04-22T19:29:22.001Z</time>
</trkpt>
<trkpt lat="59.1109660" lon="30.0761000">
<ele>105.247437</ele>
<time>2026-04-22T19:29:46.003Z</time>
</trkpt>
<trkpt lat="59.1107570" lon="30.0763380">
<ele>103.875839</ele>
<time>2026-04-22T19:29:53.002Z</time>
</trkpt>
<trkpt lat="59.1092550" lon="30.0795140">
<ele>102.778564</ele>
<time>2026-04-22T19:31:02.001Z</time>
</trkpt>
<trkpt lat="59.1087660" lon="30.0803000">
<ele>102.382317</ele>
<time>2026-04-22T19:31:29.001Z</time>
</trkpt>
<trkpt lat="59.1088110" lon="30.0801220">
<ele>102.229919</ele>
<time>2026-04-22T19:31:57.003Z</time>
</trkpt>
<trkpt lat="59.1087740" lon="30.0802380">
<ele>100.248718</ele>
<time>2026-04-22T19:32:36.997Z</time>
</trkpt>
<trkpt lat="59.1087960" lon="30.0802550">
<ele>99.882965</ele>
<time>2026-04-22T19:32:59.004Z</time>
</trkpt>
<trkpt lat="59.1088430" lon="30.0802510">
<ele>99.761040</ele>
<time>2026-04-22T19:33:03.997Z</time>
</trkpt>
<trkpt lat="59.1088840" lon="30.0801490">
<ele>99.821999</ele>
<time>2026-04-22T19:33:18.996Z</time>
</trkpt>
<trkpt lat="59.1088430" lon="30.0800270">
<ele>98.968567</ele>
<time>2026-04-22T19:35:21.002Z</time>
</trkpt>
<trkpt lat="59.1088690" lon="30.0800910">
<ele>98.602798</ele>
<time>2026-04-22T19:35:48.002Z</time>
</trkpt>
<trkpt lat="59.1088520" lon="30.0801830">
<ele>98.724716</ele>
<time>2026-04-22T19:36:12.004Z</time>
</trkpt>
<trkpt lat="59.1088800" lon="30.0802040">
<ele>97.871284</ele>
<time>2026-04-22T19:36:36.999Z</time>
</trkpt>
<trkpt lat="59.1089130" lon="30.0801320">
<ele>96.103439</ele>
<time>2026-04-22T19:37:32.002Z</time>
</trkpt>
<trkpt lat="59.1088730" lon="30.0801810">
<ele>96.042480</ele>
<time>2026-04-22T19:38:42.003Z</time>
</trkpt>
<trkpt lat="59.1089130" lon="30.0801780">
<ele>94.183197</ele>
<time>2026-04-22T19:39:44.004Z</time>
</trkpt>
<trkpt lat="59.1088900" lon="30.0801650">
<ele>94.731834</ele>
<time>2026-04-22T19:40:08.999Z</time>
</trkpt>
<trkpt lat="59.1087200" lon="30.0804890">
<ele>94.183197</ele>
<time>2026-04-22T19:40:39.999Z</time>
</trkpt>
<trkpt lat="59.1083140" lon="30.0811110">
<ele>92.049599</ele>
<time>2026-04-22T19:41:28.997Z</time>
</trkpt>
<trkpt lat="59.1081360" lon="30.0811830">
<ele>91.135201</ele>
<time>2026-04-22T19:41:43.996Z</time>
</trkpt>
<trkpt lat="59.1078730" lon="30.0811060">
<ele>90.342720</ele>
<time>2026-04-22T19:42:07.004Z</time>
</trkpt>
<trkpt lat="59.1076780" lon="30.0808630">
<ele>89.976967</ele>
<time>2026-04-22T19:42:23.999Z</time>
</trkpt>
<trkpt lat="59.1075300" lon="30.0804390">
<ele>88.849197</ele>
<time>2026-04-22T19:44:03.998Z</time>
</trkpt>
<trkpt lat="59.1073410" lon="30.0800610">
<ele>86.776566</ele>
<time>2026-04-22T19:44:33.003Z</time>
</trkpt>
<trkpt lat="59.1066820" lon="30.0794360">
<ele>82.692238</ele>
<time>2026-04-22T19:45:39.997Z</time>
</trkpt>
<trkpt lat="59.1066160" lon="30.0791250">
<ele>82.448402</ele>
<time>2026-04-22T19:45:54.996Z</time>
</trkpt>
<trkpt lat="59.1064860" lon="30.0780220">
<ele>81.473038</ele>
<time>2026-04-22T19:47:18.001Z</time>
</trkpt>
<trkpt lat="59.1065430" lon="30.0770500">
<ele>84.734398</ele>
<time>2026-04-22T19:48:06.998Z</time>
</trkpt>
<trkpt lat="59.1063720" lon="30.0762970">
<ele>82.875114</ele>
<time>2026-04-22T19:48:59.996Z</time>
</trkpt>
<trkpt lat="59.1062480" lon="30.0759930">
<ele>81.533997</ele>
<time>2026-04-22T19:51:40.000Z</time>
</trkpt>
<trkpt lat="59.1062840" lon="30.0760310">
<ele>83.728561</ele>
<time>2026-04-22T19:53:28.000Z</time>
</trkpt>
<trkpt lat="59.1062470" lon="30.0760540">
<ele>83.515198</ele>
<time>2026-04-22T19:53:56.996Z</time>
</trkpt>
<trkpt lat="59.1062250" lon="30.0765470">
<ele>82.631279</ele>
<time>2026-04-22T19:55:21.996Z</time>
</trkpt>
<trkpt lat="59.1061690" lon="30.0768660">
<ele>83.027519</ele>
<time>2026-04-22T19:56:07.002Z</time>
</trkpt>
<trkpt lat="59.1062050" lon="30.0770160">
<ele>82.722717</ele>
<time>2026-04-22T19:56:31.998Z</time>
</trkpt>
<trkpt lat="59.1062060" lon="30.0772130">
<ele>82.509361</ele>
<time>2026-04-22T19:56:58.998Z</time>
</trkpt>
<trkpt lat="59.1059860" lon="30.0775920">
<ele>82.082634</ele>
<time>2026-04-22T19:58:07.003Z</time>
</trkpt>
<trkpt lat="59.1059100" lon="30.0771620">
<ele>81.930237</ele>
<time>2026-04-22T19:59:01.997Z</time>
</trkpt>
<trkpt lat="59.1057600" lon="30.0772060">
<ele>81.991203</ele>
<time>2026-04-22T20:00:26.997Z</time>
</trkpt>
<trkpt lat="59.1058420" lon="30.0772250">
<ele>82.448402</ele>
<time>2026-04-22T20:01:20.997Z</time>
</trkpt>
<trkpt lat="59.1058160" lon="30.0772210">
<ele>81.930237</ele>
<time>2026-04-22T20:02:13.001Z</time>
</trkpt>
<trkpt lat="59.1058440" lon="30.0771180">
<ele>81.381599</ele>
<time>2026-04-22T20:03:08.004Z</time>
</trkpt>
<trkpt lat="59.1058090" lon="30.0771370">
<ele>81.625435</ele>
<time>2026-04-22T20:03:35.004Z</time>
</trkpt>
<trkpt lat="59.1058700" lon="30.0771740">
<ele>81.991203</ele>
<time>2026-04-22T20:04:21.996Z</time>
</trkpt>
<trkpt lat="59.1058140" lon="30.0771870">
<ele>82.143600</ele>
<time>2026-04-22T20:06:40.997Z</time>
</trkpt>
<trkpt lat="59.1059210" lon="30.0770950">
<ele>81.564484</ele>
<time>2026-04-22T20:08:09.004Z</time>
</trkpt>
<trkpt lat="59.1058180" lon="30.0770720">
<ele>81.290161</ele>
<time>2026-04-22T20:08:40.004Z</time>
</trkpt>
<trkpt lat="59.1058460" lon="30.0768710">
<ele>81.290161</ele>
<time>2026-04-22T20:09:50.999Z</time>
</trkpt>
<trkpt lat="59.1058080" lon="30.0768010">
<ele>81.808319</ele>
<time>2026-04-22T20:10:16.003Z</time>
</trkpt>
<trkpt lat="59.1057160" lon="30.0761880">
<ele>81.533997</ele>
<time>2026-04-22T20:11:38.999Z</time>
</trkpt>
<trkpt lat="59.1056680" lon="30.0760210">
<ele>82.295998</ele>
<time>2026-04-22T20:11:56.003Z</time>
</trkpt>
<trkpt lat="59.1056810" lon="30.0758430">
<ele>81.412079</ele>
<time>2026-04-22T20:12:19.002Z</time>
</trkpt>
<trkpt lat="59.1054990" lon="30.0758730">
<ele>81.290161</ele>
<time>2026-04-22T20:13:28.001Z</time>
</trkpt>
<trkpt lat="59.1053350" lon="30.0758240">
<ele>81.594963</ele>
<time>2026-04-22T20:14:54.004Z</time>
</trkpt>
<trkpt lat="59.1053440" lon="30.0757820">
<ele>81.594963</ele>
<time>2026-04-22T20:15:47.002Z</time>
</trkpt>
<trkpt lat="59.1053290" lon="30.0758410">
<ele>81.747360</ele>
<time>2026-04-22T20:16:10.001Z</time>
</trkpt>
<trkpt lat="59.1053540" lon="30.0758500">
<ele>81.594963</ele>
<time>2026-04-22T20:17:13.004Z</time>
</trkpt>
<trkpt lat="59.1053000" lon="30.0758730">
<ele>81.655922</ele>
<time>2026-04-22T20:17:43.002Z</time>
</trkpt>
<trkpt lat="59.1053830" lon="30.0757970">
<ele>81.655922</ele>
<time>2026-04-22T20:18:06.002Z</time>
</trkpt>
<trkpt lat="59.1053830" lon="30.0756140">
<ele>81.533997</ele>
<time>2026-04-22T20:18:57.004Z</time>
</trkpt>
<trkpt lat="59.1051890" lon="30.0751700">
<ele>81.808319</ele>
<time>2026-04-22T20:20:13.001Z</time>
</trkpt>
<trkpt lat="59.1051840" lon="30.0750910">
<ele>80.680565</ele>
<time>2026-04-22T20:20:29.003Z</time>
</trkpt>
<trkpt lat="59.1051090" lon="30.0751060">
<ele>82.113121</ele>
<time>2026-04-22T20:21:53.001Z</time>
</trkpt>
<trkpt lat="59.1051470" lon="30.0750830">
<ele>81.747360</ele>
<time>2026-04-22T20:22:48.003Z</time>
</trkpt>
<trkpt lat="59.1050950" lon="30.0749330">
<ele>82.265518</ele>
<time>2026-04-22T20:23:31.004Z</time>
</trkpt>
<trkpt lat="59.1049280" lon="30.0747550">
<ele>82.387436</ele>
<time>2026-04-22T20:24:13.003Z</time>
</trkpt>
<trkpt lat="59.1046980" lon="30.0743290">
<ele>81.960716</ele>
<time>2026-04-22T20:25:17.000Z</time>
</trkpt>
<trkpt lat="59.1047460" lon="30.0741890">
<ele>81.564484</ele>
<time>2026-04-22T20:26:17.998Z</time>
</trkpt>
<trkpt lat="59.1047610" lon="30.0742490">
<ele>81.777840</ele>
<time>2026-04-22T20:27:22.997Z</time>
</trkpt>
<trkpt lat="59.1046880" lon="30.0742240">
<ele>81.137764</ele>
<time>2026-04-22T20:28:24.004Z</time>
</trkpt>
<trkpt lat="59.1045950" lon="30.0740320">
<ele>81.259682</ele>
<time>2026-04-22T20:30:27.996Z</time>
</trkpt>
<trkpt lat="59.1045570" lon="30.0740220">
<ele>81.229202</ele>
<time>2026-04-22T20:31:17.996Z</time>
</trkpt>
<trkpt lat="59.1045040" lon="30.0738450">
<ele>81.655922</ele>
<time>2026-04-22T20:32:15.996Z</time>
</trkpt>
<trkpt lat="59.1045220" lon="30.0739390">
<ele>81.899765</ele>
<time>2026-04-22T20:33:18.999Z</time>
</trkpt>
<trkpt lat="59.1044680" lon="30.0738510">
<ele>82.387436</ele>
<time>2026-04-22T20:34:03.003Z</time>
</trkpt>
<trkpt lat="59.1043860" lon="30.0734940">
<ele>82.905602</ele>
<time>2026-04-22T20:34:57.003Z</time>
</trkpt>
<trkpt lat="59.1043220" lon="30.0734280">
<ele>82.265518</ele>
<time>2026-04-22T20:35:16.996Z</time>
</trkpt>
<trkpt lat="59.1042670" lon="30.0734390">
<ele>82.356964</ele>
<time>2026-04-22T20:35:36.004Z</time>
</trkpt>
<trkpt lat="59.1042250" lon="30.0731960">
<ele>81.777840</ele>
<time>2026-04-22T20:36:17.001Z</time>
</trkpt>
<trkpt lat="59.1042260" lon="30.0730320">
<ele>81.747360</ele>
<time>2026-04-22T20:36:34.004Z</time>
</trkpt>
<trkpt lat="59.1042580" lon="30.0728440">
<ele>81.930237</ele>
<time>2026-04-22T20:36:54.999Z</time>
</trkpt>
<trkpt lat="59.1042500" lon="30.0726790">
<ele>81.899765</ele>
<time>2026-04-22T20:38:21.002Z</time>
</trkpt>
<trkpt lat="59.1042870" lon="30.0726750">
<ele>81.015839</ele>
<time>2026-04-22T20:40:10.004Z</time>
</trkpt>
<trkpt lat="59.1043260" lon="30.0723770">
<ele>80.863434</ele>
<time>2026-04-22T20:43:31.999Z</time>
</trkpt>
<trkpt lat="59.1043440" lon="30.0723800">
<ele>80.253838</ele>
<time>2026-04-22T20:44:12.002Z</time>
</trkpt>
<trkpt lat="59.1042510" lon="30.0725480">
<ele>79.248001</ele>
<time>2026-04-22T20:45:03.004Z</time>
</trkpt>
<trkpt lat="59.1040550" lon="30.0722790">
<ele>78.394562</ele>
<time>2026-04-22T20:47:38.999Z</time>
</trkpt>
<trkpt lat="59.1034100" lon="30.0723720">
<ele>77.784958</ele>
<time>2026-04-22T20:49:02.004Z</time>
</trkpt>
<trkpt lat="59.1030530" lon="30.0722380">
<ele>76.535278</ele>
<time>2026-04-22T20:50:50.997Z</time>
</trkpt>
<trkpt lat="59.1030720" lon="30.0722040">
<ele>76.230484</ele>
<time>2026-04-22T20:51:09.996Z</time>
</trkpt>
<trkpt lat="59.1029830" lon="30.0722620">
<ele>75.590401</ele>
<time>2026-04-22T20:53:11.000Z</time>
</trkpt>
<trkpt lat="59.1027640" lon="30.0721720">
<ele>74.035919</ele>
<time>2026-04-22T20:53:55.997Z</time>
</trkpt>
<trkpt lat="59.1027150" lon="30.0722320">
<ele>75.194160</ele>
<time>2026-04-22T20:54:14.996Z</time>
</trkpt>
<trkpt lat="59.1026600" lon="30.0721470">
<ele>74.340721</ele>
<time>2026-04-22T20:54:40.000Z</time>
</trkpt>
<trkpt lat="59.1025380" lon="30.0721690">
<ele>74.706482</ele>
<time>2026-04-22T20:55:01.004Z</time>
</trkpt>
<trkpt lat="59.1024730" lon="30.0722440">
<ele>75.011284</ele>
<time>2026-04-22T20:55:20.997Z</time>
</trkpt>
<trkpt lat="59.1024650" lon="30.0721830">
<ele>73.974960</ele>
<time>2026-04-22T20:56:06.003Z</time>
</trkpt>
<trkpt lat="59.1024670" lon="30.0722820">
<ele>74.523598</ele>
<time>2026-04-22T20:56:56.003Z</time>
</trkpt>
<trkpt lat="59.1024990" lon="30.0722280">
<ele>74.096878</ele>
<time>2026-04-22T20:58:03.999Z</time>
</trkpt>
<trkpt lat="59.1024420" lon="30.0721180">
<ele>74.676003</ele>
<time>2026-04-22T20:58:51.001Z</time>
</trkpt>
<trkpt lat="59.1024310" lon="30.0722340">
<ele>75.346558</ele>
<time>2026-04-22T21:00:18.999Z</time>
</trkpt>
<trkpt lat="59.1024140" lon="30.0721180">
<ele>75.072243</ele>
<time>2026-04-22T21:01:02.001Z</time>
</trkpt>
<trkpt lat="59.1014910" lon="30.0716850">
<ele>74.797920</ele>
<time>2026-04-22T21:03:09.000Z</time>
</trkpt>
<trkpt lat="59.1011660" lon="30.0716140">
<ele>72.420479</ele>
<time>2026-04-22T21:03:50.999Z</time>
</trkpt>
<trkpt lat="59.1010210" lon="30.0716310">
<ele>73.060562</ele>
<time>2026-04-22T21:04:08.996Z</time>
</trkpt>
<trkpt lat="59.1009430" lon="30.0717020">
<ele>73.304398</ele>
<time>2026-04-22T21:05:01.000Z</time>
</trkpt>
<trkpt lat="59.1009200" lon="30.0716450">
<ele>73.182480</ele>
<time>2026-04-22T21:06:05.999Z</time>
</trkpt>
<trkpt lat="59.1009380" lon="30.0715440">
<ele>74.035919</ele>
<time>2026-04-22T21:07:17.003Z</time>
</trkpt>
<trkpt lat="59.1008740" lon="30.0716550">
<ele>74.188316</ele>
<time>2026-04-22T21:07:39.000Z</time>
</trkpt>
<trkpt lat="59.1003120" lon="30.0716840">
<ele>74.980797</ele>
<time>2026-04-22T21:09:29.998Z</time>
</trkpt>
<trkpt lat="59.0999460" lon="30.0715300">
<ele>75.407516</ele>
<time>2026-04-22T21:10:37.001Z</time>
</trkpt>
<trkpt lat="59.0998260" lon="30.0714460">
<ele>75.224640</ele>
<time>2026-04-22T21:11:19.000Z</time>
</trkpt>
<trkpt lat="59.0998540" lon="30.0714290">
<ele>75.255119</ele>
<time>2026-04-22T21:11:44.998Z</time>
</trkpt>
<trkpt lat="59.0998480" lon="30.0713300">
<ele>75.438004</ele>
<time>2026-04-22T21:12:40.000Z</time>
</trkpt>
<trkpt lat="59.0997990" lon="30.0713430">
<ele>75.438004</ele>
<time>2026-04-22T21:13:07.000Z</time>
</trkpt>
<trkpt lat="59.0998200" lon="30.0713230">
<ele>75.834244</ele>
<time>2026-04-22T21:13:34.000Z</time>
</trkpt>
<trkpt lat="59.0997680" lon="30.0712800">
<ele>76.139038</ele>
<time>2026-04-22T21:15:03.001Z</time>
</trkpt>
<trkpt lat="59.0997160" lon="30.0713570">
<ele>75.956161</ele>
<time>2026-04-22T21:15:23.996Z</time>
</trkpt>
<trkpt lat="59.0995190" lon="30.0713440">
<ele>75.742798</ele>
<time>2026-04-22T21:16:26.999Z</time>
</trkpt>
<trkpt lat="59.0981640" lon="30.0706840">
<ele>75.255119</ele>
<time>2026-04-22T21:20:32.004Z</time>
</trkpt>
<trkpt lat="59.0982210" lon="30.0698570">
<ele>74.615044</ele>
<time>2026-04-22T21:21:54.999Z</time>
</trkpt>
<trkpt lat="59.0982470" lon="30.0695860">
<ele>75.041756</ele>
<time>2026-04-22T21:22:12.996Z</time>
</trkpt>
<trkpt lat="59.0982960" lon="30.0694230">
<ele>75.102715</ele>
<time>2026-04-22T21:22:32.998Z</time>
</trkpt>
<trkpt lat="59.0983080" lon="30.0691890">
<ele>74.676003</ele>
<time>2026-04-22T21:24:57.001Z</time>
</trkpt>
<trkpt lat="59.0982750" lon="30.0692120">
<ele>74.157845</ele>
<time>2026-04-22T21:25:52.003Z</time>
</trkpt>
<trkpt lat="59.0980800" lon="30.0690870">
<ele>74.310242</ele>
<time>2026-04-22T21:26:35.998Z</time>
</trkpt>
<trkpt lat="59.0979930" lon="30.0689740">
<ele>74.066399</ele>
<time>2026-04-22T21:26:56.000Z</time>
</trkpt>
<trkpt lat="59.0977890" lon="30.0685490">
<ele>73.609200</ele>
<time>2026-04-22T21:27:51.002Z</time>
</trkpt>
<trkpt lat="59.0975730" lon="30.0682240">
<ele>73.792084</ele>
<time>2026-04-22T21:28:42.004Z</time>
</trkpt>
<trkpt lat="59.0975450" lon="30.0680630">
<ele>74.371201</ele>
<time>2026-04-22T21:29:28.003Z</time>
</trkpt>
<trkpt lat="59.0975270" lon="30.0681070">
<ele>74.310242</ele>
<time>2026-04-22T21:29:51.003Z</time>
</trkpt>
<trkpt lat="59.0975000" lon="30.0680050">
<ele>73.944481</ele>
<time>2026-04-22T21:30:49.003Z</time>
</trkpt>
<trkpt lat="59.0975230" lon="30.0679920">
<ele>74.005440</ele>
<time>2026-04-22T21:31:51.004Z</time>
</trkpt>
<trkpt lat="59.0975140" lon="30.0680460">
<ele>73.548241</ele>
<time>2026-04-22T21:32:42.999Z</time>
</trkpt>
<trkpt lat="59.0975830" lon="30.0681400">
<ele>72.603355</ele>
<time>2026-04-22T21:35:06.000Z</time>
</trkpt>
<trkpt lat="59.0973810" lon="30.0679430">
<ele>72.725281</ele>
<time>2026-04-22T21:36:59.003Z</time>
</trkpt>
<trkpt lat="59.0970550" lon="30.0677610">
<ele>71.810883</ele>
<time>2026-04-22T21:38:43.002Z</time>
</trkpt>
<trkpt lat="59.0967380" lon="30.0673120">
<ele>71.719444</ele>
<time>2026-04-22T21:40:01.004Z</time>
</trkpt>
<trkpt lat="59.0966970" lon="30.0671970">
<ele>72.511917</ele>
<time>2026-04-22T21:41:01.000Z</time>
</trkpt>
<trkpt lat="59.0967430" lon="30.0672260">
<ele>71.445122</ele>
<time>2026-04-22T21:42:23.003Z</time>
</trkpt>
<trkpt lat="59.0966850" lon="30.0672290">
<ele>71.262238</ele>
<time>2026-04-22T21:44:54.997Z</time>
</trkpt>
<trkpt lat="59.0965700" lon="30.0669750">
<ele>71.506081</ele>
<time>2026-04-22T21:45:39.001Z</time>
</trkpt>
<trkpt lat="59.0964940" lon="30.0666370">
<ele>71.902321</ele>
<time>2026-04-22T21:46:11.004Z</time>
</trkpt>
<trkpt lat="59.0964490" lon="30.0662050">
<ele>71.201279</ele>
<time>2026-04-22T21:46:53.996Z</time>
</trkpt>
<trkpt lat="59.0961840" lon="30.0658480">
<ele>70.835518</ele>
<time>2026-04-22T21:48:14.003Z</time>
</trkpt>
<trkpt lat="59.0958480" lon="30.0659450">
<ele>70.500244</ele>
<time>2026-04-22T21:50:24.000Z</time>
</trkpt>
<trkpt lat="59.0958260" lon="30.0658680">
<ele>72.389999</ele>
<time>2026-04-22T21:52:06.997Z</time>
</trkpt>
<trkpt lat="59.0958460" lon="30.0659120">
<ele>70.805038</ele>
<time>2026-04-22T21:52:37.998Z</time>
</trkpt>
<trkpt lat="59.0954920" lon="30.0659260">
<ele>69.768715</ele>
<time>2026-04-22T21:54:17.004Z</time>
</trkpt>
<trkpt lat="59.0952030" lon="30.0658440">
<ele>69.982079</ele>
<time>2026-04-22T21:55:11.004Z</time>
</trkpt>
<trkpt lat="59.0949880" lon="30.0658930">
<ele>69.799202</ele>
<time>2026-04-22T21:55:48.000Z</time>
</trkpt>
<trkpt lat="59.0948420" lon="30.0660470">
<ele>69.311516</ele>
<time>2026-04-22T21:56:36.004Z</time>
</trkpt>
<trkpt lat="59.0947940" lon="30.0659710">
<ele>69.768715</ele>
<time>2026-04-22T21:57:53.997Z</time>
</trkpt>
<trkpt lat="59.0948130" lon="30.0660640">
<ele>69.921120</ele>
<time>2026-04-22T21:58:57.000Z</time>
</trkpt>
<trkpt lat="59.0948360" lon="30.0660180">
<ele>68.336159</ele>
<time>2026-04-22T21:59:33.996Z</time>
</trkpt>
<trkpt lat="59.0945480" lon="30.0659510">
<ele>70.805038</ele>
<time>2026-04-22T22:02:50.997Z</time>
</trkpt>
<trkpt lat="59.0937260" lon="30.0652830">
<ele>70.103996</ele>
<time>2026-04-22T22:05:13.004Z</time>
</trkpt>
<trkpt lat="59.0935800" lon="30.0650950">
<ele>69.921120</ele>
<time>2026-04-22T22:06:09.000Z</time>
</trkpt>
<trkpt lat="59.0935630" lon="30.0650120">
<ele>70.134483</ele>
<time>2026-04-22T22:07:11.001Z</time>
</trkpt>
<trkpt lat="59.0935320" lon="30.0649930">
<ele>69.585838</ele>
<time>2026-04-22T22:07:39.996Z</time>
</trkpt>
<trkpt lat="59.0935790" lon="30.0651170">
<ele>69.768715</ele>
<time>2026-04-22T22:08:29.003Z</time>
</trkpt>
<trkpt lat="59.0934800" lon="30.0649160">
<ele>69.128639</ele>
<time>2026-04-22T22:09:36.999Z</time>
</trkpt>
<trkpt lat="59.0931320" lon="30.0645570">
<ele>69.372482</ele>
<time>2026-04-22T22:10:36.002Z</time>
</trkpt>
<trkpt lat="59.0930510" lon="30.0644320">
<ele>69.372482</ele>
<time>2026-04-22T22:11:00.997Z</time>
</trkpt>
<trkpt lat="59.0930750" lon="30.0643790">
<ele>69.372482</ele>
<time>2026-04-22T22:11:27.004Z</time>
</trkpt>
<trkpt lat="59.0930610" lon="30.0642880">
<ele>69.707756</ele>
<time>2026-04-22T22:12:25.998Z</time>
</trkpt>
<trkpt lat="59.0931500" lon="30.0654580">
<ele>69.281044</ele>
<time>2026-04-22T22:14:51.003Z</time>
</trkpt>
<trkpt lat="59.0932270" lon="30.0660370">
<ele>69.128639</ele>
<time>2026-04-22T22:15:34.998Z</time>
</trkpt>
<trkpt lat="59.0933010" lon="30.0663440">
<ele>68.884804</ele>
<time>2026-04-22T22:16:11.001Z</time>
</trkpt>
<trkpt lat="59.0933230" lon="30.0667210">
<ele>67.696083</ele>
<time>2026-04-22T22:20:06.000Z</time>
</trkpt>
<trkpt lat="59.0933730" lon="30.0668830">
<ele>68.549515</ele>
<time>2026-04-22T22:21:05.003Z</time>
</trkpt>
<trkpt lat="59.0933140" lon="30.0670190">
<ele>68.031357</ele>
<time>2026-04-22T22:21:47.002Z</time>
</trkpt>
<trkpt lat="59.0932010" lon="30.0670950">
<ele>65.379601</ele>
<time>2026-04-22T22:23:04.001Z</time>
</trkpt>
<trkpt lat="59.0931780" lon="30.0671880">
<ele>64.983360</ele>
<time>2026-04-22T22:23:19.000Z</time>
</trkpt>
<trkpt lat="59.0932490" lon="30.0674790">
<ele>64.861443</ele>
<time>2026-04-22T22:24:07.998Z</time>
</trkpt>
<trkpt lat="59.0933360" lon="30.0685000">
<ele>63.337440</ele>
<time>2026-04-22T22:25:35.996Z</time>
</trkpt>
<trkpt lat="59.0933240" lon="30.0688700">
<ele>61.874401</ele>
<time>2026-04-22T22:26:11.999Z</time>
</trkpt>
<trkpt lat="59.0932340" lon="30.0689150">
<ele>66.354958</ele>
<time>2026-04-22T22:27:26.001Z</time>
</trkpt>
<trkpt lat="59.0932710" lon="30.0688540">
<ele>63.977520</ele>
<time>2026-04-22T22:29:19.003Z</time>
</trkpt>
<trkpt lat="59.0932730" lon="30.0689160">
<ele>66.050156</ele>
<time>2026-04-22T22:29:47.999Z</time>
</trkpt>
<trkpt lat="59.0933110" lon="30.0687810">
<ele>65.928238</ele>
<time>2026-04-22T22:32:16.002Z</time>
</trkpt>
<trkpt lat="59.0932260" lon="30.0670860">
<ele>65.471039</ele>
<time>2026-04-22T22:34:35.003Z</time>
</trkpt>
<trkpt lat="59.0931670" lon="30.0669010">
<ele>66.720718</ele>
<time>2026-04-22T22:35:10.997Z</time>
</trkpt>
<trkpt lat="59.0930010" lon="30.0666680">
<ele>66.537842</ele>
<time>2026-04-22T22:36:03.001Z</time>
</trkpt>
<trkpt lat="59.0929340" lon="30.0666340">
<ele>66.781685</ele>
<time>2026-04-22T22:36:18.000Z</time>
</trkpt>
<trkpt lat="59.0929200" lon="30.0665030">
<ele>66.507362</ele>
<time>2026-04-22T22:36:35.004Z</time>
</trkpt>
<trkpt lat="59.0929440" lon="30.0664140">
<ele>66.385445</ele>
<time>2026-04-22T22:36:50.996Z</time>
</trkpt>
<trkpt lat="59.0928970" lon="30.0662730">
<ele>67.025520</ele>
<time>2026-04-22T22:39:28.002Z</time>
</trkpt>
<trkpt lat="59.0928970" lon="30.0663070">
<ele>66.354958</ele>
<time>2026-04-22T22:39:48.997Z</time>
</trkpt>
<trkpt lat="59.0929570" lon="30.0662280">
<ele>66.172081</ele>
<time>2026-04-22T22:40:03.996Z</time>
</trkpt>
<trkpt lat="59.0930910" lon="30.0658500">
<ele>66.659760</ele>
<time>2026-04-22T22:40:50.998Z</time>
</trkpt>
<trkpt lat="59.0931450" lon="30.0657820">
<ele>66.354958</ele>
<time>2026-04-22T22:41:13.004Z</time>
</trkpt>
<trkpt lat="59.0931440" lon="30.0655250">
<ele>66.263519</ele>
<time>2026-04-22T22:41:35.002Z</time>
</trkpt>
<trkpt lat="59.0930360" lon="30.0643360">
<ele>67.543678</ele>
<time>2026-04-22T22:42:49.997Z</time>
</trkpt>
<trkpt lat="59.0929910" lon="30.0633350">
<ele>67.269356</ele>
<time>2026-04-22T22:45:08.997Z</time>
</trkpt>
<trkpt lat="59.0930000" lon="30.0634480">
<ele>67.056000</ele>
<time>2026-04-22T22:46:08.000Z</time>
</trkpt>
<trkpt lat="59.0930070" lon="30.0633960">
<ele>67.238884</ele>
<time>2026-04-22T22:47:16.999Z</time>
</trkpt>
<trkpt lat="59.0930070" lon="30.0634460">
<ele>67.177917</ele>
<time>2026-04-22T22:48:21.004Z</time>
</trkpt>
<trkpt lat="59.0929250" lon="30.0627620">
<ele>67.543678</ele>
<time>2026-04-22T22:49:18.002Z</time>
</trkpt>
<trkpt lat="59.0928990" lon="30.0621070">
<ele>65.562485</ele>
<time>2026-04-22T22:50:23.001Z</time>
</trkpt>
<trkpt lat="59.0930130" lon="30.0619430">
<ele>66.903603</ele>
<time>2026-04-22T22:52:55.004Z</time>
</trkpt>
<trkpt lat="59.0932790" lon="30.0618220">
<ele>66.019684</ele>
<time>2026-04-22T22:53:36.001Z</time>
</trkpt>
<trkpt lat="59.0934190" lon="30.0616730">
<ele>66.964561</ele>
<time>2026-04-22T22:53:55.000Z</time>
</trkpt>
<trkpt lat="59.0938260" lon="30.0609120">
<ele>66.019684</ele>
<time>2026-04-22T22:55:21.003Z</time>
</trkpt>
<trkpt lat="59.0938510" lon="30.0608160">
<ele>66.415916</ele>
<time>2026-04-22T22:55:40.996Z</time>
</trkpt>
<trkpt lat="59.0938300" lon="30.0607290">
<ele>66.629280</ele>
<time>2026-04-22T22:55:55.001Z</time>
</trkpt>
<trkpt lat="59.0942300" lon="30.0601240">
<ele>67.574158</ele>
<time>2026-04-22T22:57:02.998Z</time>
</trkpt>
<trkpt lat="59.0943390" lon="30.0601410">
<ele>66.354958</ele>
<time>2026-04-22T22:58:46.004Z</time>
</trkpt>
<trkpt lat="59.0943020" lon="30.0601270">
<ele>66.751198</ele>
<time>2026-04-22T22:59:43.996Z</time>
</trkpt>
<trkpt lat="59.0943720" lon="30.0599810">
<ele>66.415916</ele>
<time>2026-04-22T23:01:12.996Z</time>
</trkpt>
<trkpt lat="59.0948150" lon="30.0593500">
<ele>65.013840</ele>
<time>2026-04-22T23:02:21.002Z</time>
</trkpt>
<trkpt lat="59.0950300" lon="30.0589370">
<ele>64.282318</ele>
<time>2026-04-22T23:02:59.001Z</time>
</trkpt>
<trkpt lat="59.0951190" lon="30.0589320">
<ele>65.074799</ele>
<time>2026-04-22T23:03:12.997Z</time>
</trkpt>
<trkpt lat="59.0951820" lon="30.0590650">
<ele>65.592957</ele>
<time>2026-04-22T23:04:10.998Z</time>
</trkpt>
<trkpt lat="59.0952400" lon="30.0590110">
<ele>65.166245</ele>
<time>2026-04-22T23:04:25.003Z</time>
</trkpt>
<trkpt lat="59.0952250" lon="30.0591810">
<ele>64.434715</ele>
<time>2026-04-22T23:04:59.002Z</time>
</trkpt>
<trkpt lat="59.0952610" lon="30.0592530">
<ele>64.983360</ele>
<time>2026-04-22T23:05:15.003Z</time>
</trkpt>
<trkpt lat="59.0953300" lon="30.0592380">
<ele>64.678558</ele>
<time>2026-04-22T23:06:08.001Z</time>
</trkpt>
<trkpt lat="59.0954250" lon="30.0593560">
<ele>65.440559</ele>
<time>2026-04-22T23:06:39.001Z</time>
</trkpt>
<trkpt lat="59.0956040" lon="30.0592690">
<ele>65.257683</ele>
<time>2026-04-22T23:07:42.997Z</time>
</trkpt>
<trkpt lat="59.0957680" lon="30.0590190">
<ele>65.227203</ele>
<time>2026-04-22T23:08:27.001Z</time>
</trkpt>
<trkpt lat="59.0958180" lon="30.0588760">
<ele>64.952881</ele>
<time>2026-04-22T23:09:13.000Z</time>
</trkpt>
<trkpt lat="59.0961020" lon="30.0583750">
<ele>66.141602</ele>
<time>2026-04-22T23:12:26.001Z</time>
</trkpt>
<trkpt lat="59.0962900" lon="30.0576820">
<ele>65.166245</ele>
<time>2026-04-22T23:14:00.004Z</time>
</trkpt>
<trkpt lat="59.0963820" lon="30.0576790">
<ele>65.196716</ele>
<time>2026-04-22T23:14:51.999Z</time>
</trkpt>
<trkpt lat="59.0964390" lon="30.0578500">
<ele>64.617599</ele>
<time>2026-04-22T23:15:16.001Z</time>
</trkpt>
<trkpt lat="59.0968890" lon="30.0585810">
<ele>65.836800</ele>
<time>2026-04-22T23:16:37.001Z</time>
</trkpt>
<trkpt lat="59.0969740" lon="30.0585780">
<ele>65.684402</ele>
<time>2026-04-22T23:18:02.002Z</time>
</trkpt>
<trkpt lat="59.0970830" lon="30.0587200">
<ele>66.690239</ele>
<time>2026-04-22T23:19:13.999Z</time>
</trkpt>
<trkpt lat="59.0976880" lon="30.0592080">
<ele>66.476883</ele>
<time>2026-04-22T23:20:36.001Z</time>
</trkpt>
<trkpt lat="59.0980240" lon="30.0593710">
<ele>66.111115</ele>
<time>2026-04-22T23:21:26.001Z</time>
</trkpt>
<trkpt lat="59.0981680" lon="30.0591280">
<ele>65.410080</ele>
<time>2026-04-22T23:22:10.004Z</time>
</trkpt>
<trkpt lat="59.0983410" lon="30.0590470">
<ele>65.562485</ele>
<time>2026-04-22T23:22:36.002Z</time>
</trkpt>
<trkpt lat="59.0986570" lon="30.0591130">
<ele>65.958717</ele>
<time>2026-04-22T23:23:19.003Z</time>
</trkpt>
<trkpt lat="59.0989200" lon="30.0592420">
<ele>64.160400</ele>
<time>2026-04-22T23:23:50.997Z</time>
</trkpt>
<trkpt lat="59.0990850" lon="30.0593830">
<ele>64.251839</ele>
<time>2026-04-22T23:24:21.004Z</time>
</trkpt>
<trkpt lat="59.0991410" lon="30.0593790">
<ele>64.373756</ele>
<time>2026-04-22T23:25:41.002Z</time>
</trkpt>
<trkpt lat="59.0991380" lon="30.0593510">
<ele>65.105286</ele>
<time>2026-04-22T23:26:38.000Z</time>
</trkpt>
<trkpt lat="59.0993010" lon="30.0594540">
<ele>64.739517</ele>
<time>2026-04-22T23:27:07.998Z</time>
</trkpt>
<trkpt lat="59.0996890" lon="30.0600860">
<ele>66.354958</ele>
<time>2026-04-22T23:28:04.002Z</time>
</trkpt>
<trkpt lat="59.0998200" lon="30.0604610">
<ele>65.288162</ele>
<time>2026-04-22T23:28:27.002Z</time>
</trkpt>
<trkpt lat="59.1000430" lon="30.0608380">
<ele>65.806320</ele>
<time>2026-04-22T23:28:55.004Z</time>
</trkpt>
<trkpt lat="59.1002220" lon="30.0613140">
<ele>65.867279</ele>
<time>2026-04-22T23:29:33.996Z</time>
</trkpt>
<trkpt lat="59.1002110" lon="30.0613910">
<ele>66.507362</ele>
<time>2026-04-22T23:31:25.997Z</time>
</trkpt>
<trkpt lat="59.1007380" lon="30.0618790">
<ele>66.141602</ele>
<time>2026-04-22T23:33:16.001Z</time>
</trkpt>
<trkpt lat="59.1011860" lon="30.0619690">
<ele>66.019684</ele>
<time>2026-04-22T23:33:55.002Z</time>
</trkpt>
<trkpt lat="59.1014440" lon="30.0621220">
<ele>66.476883</ele>
<time>2026-04-22T23:34:26.996Z</time>
</trkpt>
<trkpt lat="59.1015890" lon="30.0623220">
<ele>66.293999</ele>
<time>2026-04-22T23:34:42.997Z</time>
</trkpt>
<trkpt lat="59.1017440" lon="30.0628920">
<ele>66.812157</ele>
<time>2026-04-22T23:35:16.002Z</time>
</trkpt>
<trkpt lat="59.1022630" lon="30.0636990">
<ele>66.842644</ele>
<time>2026-04-22T23:37:19.001Z</time>
</trkpt>
<trkpt lat="59.1024580" lon="30.0642190">
<ele>67.543678</ele>
<time>2026-04-22T23:38:59.001Z</time>
</trkpt>
<trkpt lat="59.1024630" lon="30.0651580">
<ele>67.208397</ele>
<time>2026-04-22T23:41:51.999Z</time>
</trkpt>
<trkpt lat="59.1026820" lon="30.0663290">
<ele>66.781685</ele>
<time>2026-04-22T23:42:58.000Z</time>
</trkpt>
<trkpt lat="59.1027560" lon="30.0670240">
<ele>66.598801</ele>
<time>2026-04-22T23:43:34.997Z</time>
</trkpt>
<trkpt lat="59.1027750" lon="30.0673760">
<ele>65.806320</ele>
<time>2026-04-22T23:43:52.000Z</time>
</trkpt>
<trkpt lat="59.1027320" lon="30.0677070">
<ele>65.958717</ele>
<time>2026-04-22T23:44:11.000Z</time>
</trkpt>
<trkpt lat="59.1027880" lon="30.0679910">
<ele>67.086479</ele>
<time>2026-04-22T23:47:14.997Z</time>
</trkpt>
<trkpt lat="59.1027530" lon="30.0689940">
<ele>67.482719</ele>
<time>2026-04-22T23:48:12.004Z</time>
</trkpt>
<trkpt lat="59.1028540" lon="30.0695620">
<ele>66.873116</ele>
<time>2026-04-22T23:48:42.002Z</time>
</trkpt>
<trkpt lat="59.1030620" lon="30.0702050">
<ele>67.177917</ele>
<time>2026-04-22T23:49:17.003Z</time>
</trkpt>
<trkpt lat="59.1033250" lon="30.0707110">
<ele>66.720718</ele>
<time>2026-04-22T23:51:21.004Z</time>
</trkpt>
<trkpt lat="59.1033120" lon="30.0706840">
<ele>66.842644</ele>
<time>2026-04-22T23:51:47.002Z</time>
</trkpt>
<trkpt lat="59.1033340" lon="30.0706460">
<ele>67.116959</ele>
<time>2026-04-22T23:52:06.001Z</time>
</trkpt>
<trkpt lat="59.1037570" lon="30.0715900">
<ele>65.989197</ele>
<time>2026-04-22T23:54:25.001Z</time>
</trkpt>
<trkpt lat="59.1040320" lon="30.0722980">
<ele>66.964561</ele>
<time>2026-04-22T23:55:47.004Z</time>
</trkpt>
<trkpt lat="59.1040080" lon="30.0723430">
<ele>67.147438</ele>
<time>2026-04-22T23:56:56.996Z</time>
</trkpt>
<trkpt lat="59.1040330" lon="30.0723050">
<ele>66.568321</ele>
<time>2026-04-22T23:58:37.998Z</time>
</trkpt>
<trkpt lat="59.1042260" lon="30.0726730">
<ele>66.263519</ele>
<time>2026-04-22T23:59:12.998Z</time>
</trkpt>
<trkpt lat="59.1043900" lon="30.0728490">
<ele>65.958717</ele>
<time>2026-04-22T23:59:34.996Z</time>
</trkpt>
<trkpt lat="59.1049700" lon="30.0730050">
<ele>64.526161</ele>
<time>2026-04-23T00:00:36.996Z</time>
</trkpt>
<trkpt lat="59.1051370" lon="30.0731130">
<ele>64.373756</ele>
<time>2026-04-23T00:00:55.002Z</time>
</trkpt>
<trkpt lat="59.1052950" lon="30.0732540">
<ele>64.038483</ele>
<time>2026-04-23T00:01:11.997Z</time>
</trkpt>
<trkpt lat="59.1054370" lon="30.0734730">
<ele>63.886082</ele>
<time>2026-04-23T00:01:30.003Z</time>
</trkpt>
<trkpt lat="59.1056280" lon="30.0740450">
<ele>63.337440</ele>
<time>2026-04-23T00:02:05.997Z</time>
</trkpt>
<trkpt lat="59.1061640" lon="30.0759510">
<ele>64.587120</ele>
<time>2026-04-23T00:04:28.998Z</time>
</trkpt>
<trkpt lat="59.1063810" lon="30.0764300">
<ele>64.587120</ele>
<time>2026-04-23T00:05:20.000Z</time>
</trkpt>
<trkpt lat="59.1064550" lon="30.0767090">
<ele>64.830956</ele>
<time>2026-04-23T00:05:37.003Z</time>
</trkpt>
<trkpt lat="59.1064530" lon="30.0782160">
<ele>61.447681</ele>
<time>2026-04-23T00:07:10.998Z</time>
</trkpt>
<trkpt lat="59.1065760" lon="30.0791270">
<ele>60.167519</ele>
<time>2026-04-23T00:08:07.002Z</time>
</trkpt>
<trkpt lat="59.1066410" lon="30.0793310">
<ele>61.203842</ele>
<time>2026-04-23T00:08:29.000Z</time>
</trkpt>
<trkpt lat="59.1067570" lon="30.0794810">
<ele>61.752483</ele>
<time>2026-04-23T00:08:46.003Z</time>
</trkpt>
<trkpt lat="59.1070660" lon="30.0797080">
<ele>62.788799</ele>
<time>2026-04-23T00:09:23.000Z</time>
</trkpt>
<trkpt lat="59.1072940" lon="30.0800170">
<ele>63.825119</ele>
<time>2026-04-23T00:09:55.002Z</time>
</trkpt>
<trkpt lat="59.1074680" lon="30.0803340">
<ele>64.221359</ele>
<time>2026-04-23T00:10:22.002Z</time>
</trkpt>
<trkpt lat="59.1076750" lon="30.0808400">
<ele>63.185040</ele>
<time>2026-04-23T00:10:58.999Z</time>
</trkpt>
<trkpt lat="59.1078040" lon="30.0810090">
<ele>62.941200</ele>
<time>2026-04-23T00:11:15.000Z</time>
</trkpt>
<trkpt lat="59.1080690" lon="30.0812070">
<ele>63.886082</ele>
<time>2026-04-23T00:11:51.003Z</time>
</trkpt>
<trkpt lat="59.1082020" lon="30.0811690">
<ele>63.947041</ele>
<time>2026-04-23T00:12:10.002Z</time>
</trkpt>
<trkpt lat="59.1086180" lon="30.0805430">
<ele>64.221359</ele>
<time>2026-04-23T00:13:08.003Z</time>
</trkpt>
<trkpt lat="59.1087250" lon="30.0802740">
<ele>64.221359</ele>
<time>2026-04-23T00:13:26.000Z</time>
</trkpt>
<trkpt lat="59.1093440" lon="30.0790430">
<ele>64.190880</ele>
<time>2026-04-23T00:14:52.002Z</time>
</trkpt>
<trkpt lat="59.1095410" lon="30.0787650">
<ele>63.367920</ele>
<time>2026-04-23T00:15:15.002Z</time>
</trkpt>
<trkpt lat="59.1097550" lon="30.0782150">
<ele>63.459358</ele>
<time>2026-04-23T00:15:51.998Z</time>
</trkpt>
<trkpt lat="59.1100220" lon="30.0777220">
<ele>63.794640</ele>
<time>2026-04-23T00:16:28.001Z</time>
</trkpt>
<trkpt lat="59.1102580" lon="30.0771640">
<ele>63.642242</ele>
<time>2026-04-23T00:17:06.000Z</time>
</trkpt>
<trkpt lat="59.1104240" lon="30.0769220">
<ele>64.008003</ele>
<time>2026-04-23T00:17:24.999Z</time>
</trkpt>
<trkpt lat="59.1107520" lon="30.0762890">
<ele>63.855598</ele>
<time>2026-04-23T00:18:10.999Z</time>
</trkpt>
<trkpt lat="59.1109640" lon="30.0758630">
<ele>63.825119</ele>
<time>2026-04-23T00:18:43.001Z</time>
</trkpt>
<trkpt lat="59.1111790" lon="30.0752470">
<ele>64.983360</ele>
<time>2026-04-23T00:19:22.996Z</time>
</trkpt>
<trkpt lat="59.1116030" lon="30.0744590">
<ele>64.282318</ele>
<time>2026-04-23T00:20:15.000Z</time>
</trkpt>
<trkpt lat="59.1118250" lon="30.0738580">
<ele>64.556641</ele>
<time>2026-04-23T00:20:48.998Z</time>
</trkpt>
<trkpt lat="59.1125460" lon="30.0724000">
<ele>66.324478</ele>
<time>2026-04-23T00:22:20.997Z</time>
</trkpt>
<trkpt lat="59.1126870" lon="30.0721680">
<ele>64.983360</ele>
<time>2026-04-23T00:23:02.996Z</time>
</trkpt>
<trkpt lat="59.1132750" lon="30.0707310">
<ele>65.410080</ele>
<time>2026-04-23T00:23:41.004Z</time>
</trkpt>
<trkpt lat="59.1141190" lon="30.0689040">
<ele>65.471039</ele>
<time>2026-04-23T00:24:18.000Z</time>
</trkpt>
<trkpt lat="59.1144260" lon="30.0680860">
<ele>65.105286</ele>
<time>2026-04-23T00:24:32.999Z</time>
</trkpt>
<trkpt lat="59.1155750" lon="30.0663730">
<ele>64.129921</ele>
<time>2026-04-23T00:25:01.001Z</time>
</trkpt>
<trkpt lat="59.1161120" lon="30.0657060">
<ele>62.880241</ele>
<time>2026-04-23T00:25:13.996Z</time>
</trkpt>
<trkpt lat="59.1164060" lon="30.0651760">
<ele>63.063118</ele>
<time>2026-04-23T00:25:21.996Z</time>
</trkpt>
<trkpt lat="59.1168470" lon="30.0645360">
<ele>62.575439</ele>
<time>2026-04-23T00:25:33.997Z</time>
</trkpt>
<trkpt lat="59.1178110" lon="30.0632870">
<ele>60.594242</ele>
<time>2026-04-23T00:26:00.004Z</time>
</trkpt>
<trkpt lat="59.1193630" lon="30.0614190">
<ele>61.691517</ele>
<time>2026-04-23T00:26:35.998Z</time>
</trkpt>
<trkpt lat="59.1196460" lon="30.0609770">
<ele>61.874401</ele>
<time>2026-04-23T00:26:42.003Z</time>
</trkpt>
<trkpt lat="59.1204280" lon="30.0592490">
<ele>61.051441</ele>
<time>2026-04-23T00:27:02.998Z</time>
</trkpt>
<trkpt lat="59.1214590" lon="30.0563360">
<ele>61.539120</ele>
<time>2026-04-23T00:27:33.998Z</time>
</trkpt>
<trkpt lat="59.1217370" lon="30.0554360">
<ele>62.209682</ele>
<time>2026-04-23T00:27:41.999Z</time>
</trkpt>
<trkpt lat="59.1225840" lon="30.0520910">
<ele>62.666882</ele>
<time>2026-04-23T00:28:14.002Z</time>
</trkpt>
<trkpt lat="59.1229440" lon="30.0508410">
<ele>63.367920</ele>
<time>2026-04-23T00:28:26.996Z</time>
</trkpt>
<trkpt lat="59.1241360" lon="30.0456270">
<ele>66.324478</ele>
<time>2026-04-23T00:29:06.999Z</time>
</trkpt>
<trkpt lat="59.1246640" lon="30.0436490">
<ele>66.019684</ele>
<time>2026-04-23T00:29:23.001Z</time>
</trkpt>
<trkpt lat="59.1250180" lon="30.0419610">
<ele>65.440559</ele>
<time>2026-04-23T00:29:36.004Z</time>
</trkpt>
<trkpt lat="59.1254470" lon="30.0402510">
<ele>65.135757</ele>
<time>2026-04-23T00:29:47.996Z</time>
</trkpt>
<trkpt lat="59.1257700" lon="30.0386580">
<ele>64.617599</ele>
<time>2026-04-23T00:29:59.997Z</time>
</trkpt>
<trkpt lat="59.1259290" lon="30.0377000">
<ele>64.739517</ele>
<time>2026-04-23T00:30:07.998Z</time>
</trkpt>
<trkpt lat="59.1274630" lon="30.0312180">
<ele>65.989197</ele>
<time>2026-04-23T00:30:54.999Z</time>
</trkpt>
<trkpt lat="59.1287070" lon="30.0246660">
<ele>68.854317</ele>
<time>2026-04-23T00:31:47.004Z</time>
</trkpt>
<trkpt lat="59.1293530" lon="30.0216550">
<ele>69.707756</ele>
<time>2026-04-23T00:32:11.999Z</time>
</trkpt>
<trkpt lat="59.1299000" lon="30.0194690">
<ele>70.164963</ele>
<time>2026-04-23T00:32:30.998Z</time>
</trkpt>
<trkpt lat="59.1303960" lon="30.0170910">
<ele>69.799202</ele>
<time>2026-04-23T00:32:51.000Z</time>
</trkpt>
<trkpt lat="59.1310710" lon="30.0134980">
<ele>69.951599</ele>
<time>2026-04-23T00:33:22.000Z</time>
</trkpt>
<trkpt lat="59.1318200" lon="30.0103150">
<ele>69.342003</ele>
<time>2026-04-23T00:33:45.000Z</time>
</trkpt>
<trkpt lat="59.1322350" lon="30.0089990">
<ele>68.701920</ele>
<time>2026-04-23T00:33:54.003Z</time>
</trkpt>
<trkpt lat="59.1327530" lon="30.0070460">
<ele>68.732399</ele>
<time>2026-04-23T00:34:05.002Z</time>
</trkpt>
<trkpt lat="59.1340060" lon="30.0012800">
<ele>73.243439</ele>
<time>2026-04-23T00:34:40.002Z</time>
</trkpt>
<trkpt lat="59.1348030" lon="29.9993900">
<ele>71.323196</ele>
<time>2026-04-23T00:34:52.003Z</time>
</trkpt>
<trkpt lat="59.1363740" lon="29.9963950">
<ele>69.982079</ele>
<time>2026-04-23T00:35:14.001Z</time>
</trkpt>
<trkpt lat="59.1374650" lon="29.9948770">
<ele>70.805038</ele>
<time>2026-04-23T00:35:26.002Z</time>
</trkpt>
<trkpt lat="59.1385280" lon="29.9937320">
<ele>71.658485</ele>
<time>2026-04-23T00:35:38.003Z</time>
</trkpt>
<trkpt lat="59.1398070" lon="29.9927500">
<ele>72.786240</ele>
<time>2026-04-23T00:35:51.999Z</time>
</trkpt>
<trkpt lat="59.1409220" lon="29.9918190">
<ele>72.481438</ele>
<time>2026-04-23T00:36:02.998Z</time>
</trkpt>
<trkpt lat="59.1415640" lon="29.9908020">
<ele>72.542397</ele>
<time>2026-04-23T00:36:10.999Z</time>
</trkpt>
<trkpt lat="59.1418140" lon="29.9897290">
<ele>72.847198</ele>
<time>2026-04-23T00:36:21.004Z</time>
</trkpt>
<trkpt lat="59.1423260" lon="29.9885810">
<ele>72.603355</ele>
<time>2026-04-23T00:36:29.998Z</time>
</trkpt>
<trkpt lat="59.1456660" lon="29.9835510">
<ele>73.670158</ele>
<time>2026-04-23T00:37:12.999Z</time>
</trkpt>
<trkpt lat="59.1476010" lon="29.9807630">
<ele>75.956161</ele>
<time>2026-04-23T00:37:38.004Z</time>
</trkpt>
<trkpt lat="59.1485610" lon="29.9791260">
<ele>75.377045</ele>
<time>2026-04-23T00:37:50.998Z</time>
</trkpt>
<trkpt lat="59.1494590" lon="29.9770600">
<ele>75.529442</ele>
<time>2026-04-23T00:38:05.004Z</time>
</trkpt>
<trkpt lat="59.1503040" lon="29.9749690">
<ele>76.565758</ele>
<time>2026-04-23T00:38:17.998Z</time>
</trkpt>
<trkpt lat="59.1506610" lon="29.9739500">
<ele>75.590401</ele>
<time>2026-04-23T00:38:24.996Z</time>
</trkpt>
<trkpt lat="59.1513660" lon="29.9722660">
<ele>77.510643</ele>
<time>2026-04-23T00:38:38.000Z</time>
</trkpt>
<trkpt lat="59.1520570" lon="29.9707520">
<ele>77.815437</ele>
<time>2026-04-23T00:38:50.001Z</time>
</trkpt>
<trkpt lat="59.1527880" lon="29.9694480">
<ele>78.333603</ele>
<time>2026-04-23T00:39:00.999Z</time>
</trkpt>
<trkpt lat="59.1537410" lon="29.9681370">
<ele>78.699364</ele>
<time>2026-04-23T00:39:14.003Z</time>
</trkpt>
<trkpt lat="59.1547880" lon="29.9668210">
<ele>79.461365</ele>
<time>2026-04-23T00:39:26.997Z</time>
</trkpt>
<trkpt lat="59.1608950" lon="29.9594540">
<ele>84.368637</ele>
<time>2026-04-23T00:40:39.996Z</time>
</trkpt>
<trkpt lat="59.1645710" lon="29.9547920">
<ele>89.275917</ele>
<time>2026-04-23T00:41:18.004Z</time>
</trkpt>
<trkpt lat="59.1664420" lon="29.9539130">
<ele>88.361519</ele>
<time>2026-04-23T00:41:36.001Z</time>
</trkpt>
<trkpt lat="59.1672480" lon="29.9527800">
<ele>88.483437</ele>
<time>2026-04-23T00:41:48.002Z</time>
</trkpt>
<trkpt lat="59.1682990" lon="29.9509940">
<ele>89.184479</ele>
<time>2026-04-23T00:42:03.001Z</time>
</trkpt>
<trkpt lat="59.1691290" lon="29.9498340">
<ele>88.300560</ele>
<time>2026-04-23T00:42:12.997Z</time>
</trkpt>
<trkpt lat="59.1692730" lon="29.9491770">
<ele>88.727280</ele>
<time>2026-04-23T00:42:16.998Z</time>
</trkpt>
<trkpt lat="59.1694470" lon="29.9473640">
<ele>89.550240</ele>
<time>2026-04-23T00:42:26.001Z</time>
</trkpt>
<trkpt lat="59.1692870" lon="29.9469810">
<ele>89.245438</ele>
<time>2026-04-23T00:42:31.003Z</time>
</trkpt>
<trkpt lat="59.1667110" lon="29.9451260">
<ele>89.824562</ele>
<time>2026-04-23T00:42:49.000Z</time>
</trkpt>
<trkpt lat="59.1653500" lon="29.9446050">
<ele>89.702637</ele>
<time>2026-04-23T00:42:57.001Z</time>
</trkpt>
<trkpt lat="59.1647380" lon="29.9437280">
<ele>91.196167</ele>
<time>2026-04-23T00:43:02.997Z</time>
</trkpt>
<trkpt lat="59.1643820" lon="29.9397710">
<ele>90.678001</ele>
<time>2026-04-23T00:43:17.003Z</time>
</trkpt>
<trkpt lat="59.1641860" lon="29.9389350">
<ele>89.428322</ele>
<time>2026-04-23T00:43:20.001Z</time>
</trkpt>
<trkpt lat="59.1632680" lon="29.9356780">
<ele>87.020401</ele>
<time>2026-04-23T00:43:30.999Z</time>
</trkpt>
<trkpt lat="59.1573350" lon="29.9152810">
<ele>80.375763</ele>
<time>2026-04-23T00:44:31.998Z</time>
</trkpt>
<trkpt lat="59.1570260" lon="29.9141840">
<ele>79.491837</ele>
<time>2026-04-23T00:44:37.000Z</time>
</trkpt>
<trkpt lat="59.1569340" lon="29.9133010">
<ele>77.906883</ele>
<time>2026-04-23T00:44:43.999Z</time>
</trkpt>
<trkpt lat="59.1559010" lon="29.9132160">
<ele>80.253838</ele>
<time>2026-04-23T00:44:54.997Z</time>
</trkpt>
<trkpt lat="59.1505310" lon="29.9123500">
<ele>82.235039</ele>
<time>2026-04-23T00:45:25.004Z</time>
</trkpt>
<trkpt lat="59.1419890" lon="29.9124750">
<ele>87.020401</ele>
<time>2026-04-23T00:46:11.997Z</time>
</trkpt>
<trkpt lat="59.1318260" lon="29.9125270">
<ele>85.404961</ele>
<time>2026-04-23T00:46:57.003Z</time>
</trkpt>
<trkpt lat="59.1261270" lon="29.9134660">
<ele>82.265518</ele>
<time>2026-04-23T00:47:21.998Z</time>
</trkpt>
<trkpt lat="59.1057080" lon="29.9159530">
<ele>73.517761</ele>
<time>2026-04-23T00:49:00.002Z</time>
</trkpt>
<trkpt lat="59.0934620" lon="29.9169970">
<ele>73.609200</ele>
<time>2026-04-23T00:50:06.996Z</time>
</trkpt>
<trkpt lat="59.0896930" lon="29.9171900">
<ele>72.024239</ele>
<time>2026-04-23T00:50:30.998Z</time>
</trkpt>
<trkpt lat="59.0896180" lon="29.9176760">
<ele>72.237602</ele>
<time>2026-04-23T00:50:37.003Z</time>
</trkpt>
<trkpt lat="59.0900830" lon="29.9178060">
<ele>74.035919</ele>
<time>2026-04-23T00:50:41.997Z</time>
</trkpt>
<trkpt lat="59.0931710" lon="29.9173570">
<ele>72.359520</ele>
<time>2026-04-23T00:51:01.999Z</time>
</trkpt>
<trkpt lat="59.0934110" lon="29.9179120">
<ele>70.378319</ele>
<time>2026-04-23T00:51:08.004Z</time>
</trkpt>
<trkpt lat="59.0939390" lon="29.9201680">
<ele>70.469757</ele>
<time>2026-04-23T00:51:23.996Z</time>
</trkpt>
<trkpt lat="59.0945180" lon="29.9223920">
<ele>71.140320</ele>
<time>2026-04-23T00:51:43.998Z</time>
</trkpt>
<trkpt lat="59.0954520" lon="29.9264130">
<ele>71.475601</ele>
<time>2026-04-23T00:52:21.996Z</time>
</trkpt>
<trkpt lat="59.0966670" lon="29.9307860">
<ele>71.749916</ele>
<time>2026-04-23T00:53:00.997Z</time>
</trkpt>
<trkpt lat="59.0968550" lon="29.9316180">
<ele>71.902321</ele>
<time>2026-04-23T00:53:08.998Z</time>
</trkpt>
<trkpt lat="59.0968500" lon="29.9326020">
<ele>71.658485</ele>
<time>2026-04-23T00:53:18.001Z</time>
</trkpt>
<trkpt lat="59.0966040" lon="29.9353490">
<ele>72.085197</ele>
<time>2026-04-23T00:53:43.999Z</time>
</trkpt>
<trkpt lat="59.0963920" lon="29.9389940">
<ele>72.633842</ele>
<time>2026-04-23T00:54:14.999Z</time>
</trkpt>
<trkpt lat="59.0962260" lon="29.9404520">
<ele>71.871841</ele>
<time>2026-04-23T00:54:29.998Z</time>
</trkpt>
<trkpt lat="59.0960920" lon="29.9421560">
<ele>72.481438</ele>
<time>2026-04-23T00:54:45.999Z</time>
</trkpt>
<trkpt lat="59.0958980" lon="29.9440540">
<ele>72.725281</ele>
<time>2026-04-23T00:55:00.998Z</time>
</trkpt>
<trkpt lat="59.0958700" lon="29.9453060">
<ele>72.664322</ele>
<time>2026-04-23T00:55:12.999Z</time>
</trkpt>
<trkpt lat="59.0957260" lon="29.9468920">
<ele>72.542397</ele>
<time>2026-04-23T00:55:26.996Z</time>
</trkpt>
<trkpt lat="59.0953820" lon="29.9499390">
<ele>72.329041</ele>
<time>2026-04-23T00:55:57.996Z</time>
</trkpt>
<trkpt lat="59.0949870" lon="29.9540110">
<ele>71.902321</ele>
<time>2026-04-23T00:56:31.001Z</time>
</trkpt>
<trkpt lat="59.0947520" lon="29.9579000">
<ele>71.353683</ele>
<time>2026-04-23T00:57:03.997Z</time>
</trkpt>
<trkpt lat="59.0944810" lon="29.9611690">
<ele>72.511917</ele>
<time>2026-04-23T00:57:34.998Z</time>
</trkpt>
<trkpt lat="59.0943750" lon="29.9628750">
<ele>72.085197</ele>
<time>2026-04-23T00:57:49.997Z</time>
</trkpt>
<trkpt lat="59.0940800" lon="29.9663980">
<ele>71.445122</ele>
<time>2026-04-23T00:58:17.999Z</time>
</trkpt>
<trkpt lat="59.0938350" lon="29.9686230">
<ele>70.865997</ele>
<time>2026-04-23T00:58:34.000Z</time>
</trkpt>
<trkpt lat="59.0936710" lon="29.9706280">
<ele>71.597519</ele>
<time>2026-04-23T00:58:50.002Z</time>
</trkpt>
<trkpt lat="59.0931760" lon="29.9753820">
<ele>71.780403</ele>
<time>2026-04-23T00:59:32.001Z</time>
</trkpt>
<trkpt lat="59.0933500" lon="29.9758030">
<ele>72.268082</ele>
<time>2026-04-23T00:59:37.997Z</time>
</trkpt>
<trkpt lat="59.0940800" lon="29.9760140">
<ele>72.054718</ele>
<time>2026-04-23T00:59:49.998Z</time>
</trkpt>
<trkpt lat="59.0957010" lon="29.9760620">
<ele>69.921120</ele>
<time>2026-04-23T01:00:16.998Z</time>
</trkpt>
<trkpt lat="59.0964580" lon="29.9763090">
<ele>69.616318</ele>
<time>2026-04-23T01:00:30.001Z</time>
</trkpt>
<trkpt lat="59.0982290" lon="29.9769790">
<ele>68.092316</ele>
<time>2026-04-23T01:01:05.002Z</time>
</trkpt>
<trkpt lat="59.0994800" lon="29.9772650">
<ele>68.945763</ele>
<time>2026-04-23T01:01:26.999Z</time>
</trkpt>
<trkpt lat="59.1014120" lon="29.9779160">
<ele>67.574158</ele>
<time>2026-04-23T01:02:11.996Z</time>
</trkpt>
<trkpt lat="59.1019550" lon="29.9780380">
<ele>67.574158</ele>
<time>2026-04-23T01:02:26.002Z</time>
</trkpt>
<trkpt lat="59.1021130" lon="29.9782790">
<ele>69.220085</ele>
<time>2026-04-23T01:03:00.000Z</time>
</trkpt>
<trkpt lat="59.1020770" lon="29.9783340">
<ele>66.019684</ele>
<time>2026-04-23T01:03:32.996Z</time>
</trkpt>
<trkpt lat="59.1020640" lon="29.9782700">
<ele>70.134483</ele>
<time>2026-04-23T01:04:49.002Z</time>
</trkpt>
</trkseg>
</trk>
<trk>
 <name>20260423_Lisa61</name>
 <desc>20260423_Lisa61</desc>
<trkseg>
<trkpt lat="59.1088540" lon="30.0800230">
<ele>66.263519</ele>
<time>2026-04-22T19:39:31.000Z</time>
</trkpt>
<trkpt lat="59.1083720" lon="30.0809690">
<ele>62.118240</ele>
<time>2026-04-22T19:41:17.998Z</time>
</trkpt>
<trkpt lat="59.1082350" lon="30.0811770">
<ele>61.661041</ele>
<time>2026-04-22T19:41:32.997Z</time>
</trkpt>
<trkpt lat="59.1081150" lon="30.0811770">
<ele>61.630558</ele>
<time>2026-04-22T19:41:43.996Z</time>
</trkpt>
<trkpt lat="59.1078300" lon="30.0810030">
<ele>59.405518</ele>
<time>2026-04-22T19:42:11.998Z</time>
</trkpt>
<trkpt lat="59.1077100" lon="30.0808300">
<ele>59.070240</ele>
<time>2026-04-22T19:42:25.001Z</time>
</trkpt>
<trkpt lat="59.1075220" lon="30.0803500">
<ele>61.478161</ele>
<time>2026-04-22T19:44:07.999Z</time>
</trkpt>
<trkpt lat="59.1072820" lon="30.0798980">
<ele>64.099442</ele>
<time>2026-04-22T19:44:41.997Z</time>
</trkpt>
<trkpt lat="59.1066910" lon="30.0793440">
<ele>64.404243</ele>
<time>2026-04-22T19:45:41.000Z</time>
</trkpt>
<trkpt lat="59.1066340" lon="30.0791380">
<ele>63.733681</ele>
<time>2026-04-22T19:45:54.003Z</time>
</trkpt>
<trkpt lat="59.1065430" lon="30.0782080">
<ele>61.569599</ele>
<time>2026-04-22T19:47:00.997Z</time>
</trkpt>
<trkpt lat="59.1064790" lon="30.0779300">
<ele>63.093601</ele>
<time>2026-04-22T19:47:15.003Z</time>
</trkpt>
<trkpt lat="59.1065480" lon="30.0771600">
<ele>59.832241</ele>
<time>2026-04-22T19:47:54.997Z</time>
</trkpt>
<trkpt lat="59.1065110" lon="30.0767370">
<ele>58.795918</ele>
<time>2026-04-22T19:48:14.999Z</time>
</trkpt>
<trkpt lat="59.1063540" lon="30.0763200">
<ele>59.679840</ele>
<time>2026-04-22T19:48:36.996Z</time>
</trkpt>
<trkpt lat="59.1062370" lon="30.0761570">
<ele>62.362083</ele>
<time>2026-04-22T19:50:02.999Z</time>
</trkpt>
<trkpt lat="59.1062650" lon="30.0761070">
<ele>67.025520</ele>
<time>2026-04-22T19:50:31.001Z</time>
</trkpt>
<trkpt lat="59.1062260" lon="30.0760420">
<ele>74.432159</ele>
<time>2026-04-22T19:53:22.998Z</time>
</trkpt>
<trkpt lat="59.1062570" lon="30.0760110">
<ele>75.194160</ele>
<time>2026-04-22T19:53:52.002Z</time>
</trkpt>
<trkpt lat="59.1062270" lon="30.0761260">
<ele>75.620880</ele>
<time>2026-04-22T19:54:18.000Z</time>
</trkpt>
<trkpt lat="59.1062680" lon="30.0762390">
<ele>73.304398</ele>
<time>2026-04-22T19:54:43.998Z</time>
</trkpt>
<trkpt lat="59.1060480" lon="30.0769440">
<ele>69.463921</ele>
<time>2026-04-22T19:56:11.996Z</time>
</trkpt>
<trkpt lat="59.1058670" lon="30.0770670">
<ele>66.781685</ele>
<time>2026-04-22T19:56:45.001Z</time>
</trkpt>
<trkpt lat="59.1057240" lon="30.0767650">
<ele>61.234318</ele>
<time>2026-04-22T19:57:18.999Z</time>
</trkpt>
<trkpt lat="59.1056690" lon="30.0764170">
<ele>58.552082</ele>
<time>2026-04-22T19:57:55.996Z</time>
</trkpt>
<trkpt lat="59.1055310" lon="30.0761720">
<ele>58.552082</ele>
<time>2026-04-22T19:58:19.004Z</time>
</trkpt>
<trkpt lat="59.1054510" lon="30.0761190">
<ele>60.289440</ele>
<time>2026-04-22T19:58:37.001Z</time>
</trkpt>
<trkpt lat="59.1053310" lon="30.0763000">
<ele>63.276482</ele>
<time>2026-04-22T19:58:57.996Z</time>
</trkpt>
<trkpt lat="59.1051680" lon="30.0763280">
<ele>61.264801</ele>
<time>2026-04-22T19:59:16.996Z</time>
</trkpt>
<trkpt lat="59.1050980" lon="30.0762640">
<ele>61.630558</ele>
<time>2026-04-22T19:59:36.004Z</time>
</trkpt>
<trkpt lat="59.1049900" lon="30.0763630">
<ele>66.598801</ele>
<time>2026-04-22T20:00:36.000Z</time>
</trkpt>
<trkpt lat="59.1050070" lon="30.0765290">
<ele>68.884804</ele>
<time>2026-04-22T20:01:20.997Z</time>
</trkpt>
<trkpt lat="59.1050450" lon="30.0764930">
<ele>71.201279</ele>
<time>2026-04-22T20:01:48.999Z</time>
</trkpt>
<trkpt lat="59.1050100" lon="30.0764960">
<ele>73.304398</ele>
<time>2026-04-22T20:02:18.997Z</time>
</trkpt>
<trkpt lat="59.1050000" lon="30.0765640">
<ele>74.858879</ele>
<time>2026-04-22T20:03:24.998Z</time>
</trkpt>
<trkpt lat="59.1048890" lon="30.0765000">
<ele>72.755760</ele>
<time>2026-04-22T20:04:14.998Z</time>
</trkpt>
<trkpt lat="59.1047980" lon="30.0763590">
<ele>70.805038</ele>
<time>2026-04-22T20:04:52.997Z</time>
</trkpt>
<trkpt lat="59.1047410" lon="30.0763550">
<ele>72.054718</ele>
<time>2026-04-22T20:05:11.996Z</time>
</trkpt>
<trkpt lat="59.1046270" lon="30.0765020">
<ele>71.506081</ele>
<time>2026-04-22T20:05:34.002Z</time>
</trkpt>
<trkpt lat="59.1042150" lon="30.0765530">
<ele>68.488556</ele>
<time>2026-04-22T20:06:36.003Z</time>
</trkpt>
<trkpt lat="59.1041540" lon="30.0764140">
<ele>69.189598</ele>
<time>2026-04-22T20:07:30.996Z</time>
</trkpt>
<trkpt lat="59.1041260" lon="30.0765200">
<ele>70.347839</ele>
<time>2026-04-22T20:08:29.999Z</time>
</trkpt>
<trkpt lat="59.1041230" lon="30.0764490">
<ele>72.085197</ele>
<time>2026-04-22T20:09:27.999Z</time>
</trkpt>
<trkpt lat="59.1041330" lon="30.0764830">
<ele>74.401680</ele>
<time>2026-04-22T20:10:21.999Z</time>
</trkpt>
<trkpt lat="59.1040750" lon="30.0764430">
<ele>74.188316</ele>
<time>2026-04-22T20:10:38.001Z</time>
</trkpt>
<trkpt lat="59.1040580" lon="30.0760120">
<ele>72.786240</ele>
<time>2026-04-22T20:11:33.996Z</time>
</trkpt>
<trkpt lat="59.1041730" lon="30.0764230">
<ele>68.671440</ele>
<time>2026-04-22T20:12:19.996Z</time>
</trkpt>
<trkpt lat="59.1040020" lon="30.0765970">
<ele>68.031357</ele>
<time>2026-04-22T20:12:39.004Z</time>
</trkpt>
<trkpt lat="59.1037900" lon="30.0765710">
<ele>68.549515</ele>
<time>2026-04-22T20:12:58.003Z</time>
</trkpt>
<trkpt lat="59.1035560" lon="30.0765090">
<ele>66.720718</ele>
<time>2026-04-22T20:13:33.004Z</time>
</trkpt>
<trkpt lat="59.1035150" lon="30.0764630">
<ele>68.153282</ele>
<time>2026-04-22T20:13:53.999Z</time>
</trkpt>
<trkpt lat="59.1035390" lon="30.0764100">
<ele>69.463921</ele>
<time>2026-04-22T20:14:22.001Z</time>
</trkpt>
<trkpt lat="59.1034990" lon="30.0763570">
<ele>70.713600</ele>
<time>2026-04-22T20:15:13.003Z</time>
</trkpt>
<trkpt lat="59.1034650" lon="30.0764230">
<ele>72.664322</ele>
<time>2026-04-22T20:15:36.003Z</time>
</trkpt>
<trkpt lat="59.1034590" lon="30.0763850">
<ele>74.919838</ele>
<time>2026-04-22T20:16:53.996Z</time>
</trkpt>
<trkpt lat="59.1031720" lon="30.0763000">
<ele>71.353683</ele>
<time>2026-04-22T20:17:54.001Z</time>
</trkpt>
<trkpt lat="59.1031850" lon="30.0761060">
<ele>71.414642</ele>
<time>2026-04-22T20:18:11.998Z</time>
</trkpt>
<trkpt lat="59.1030360" lon="30.0758350">
<ele>72.085197</ele>
<time>2026-04-22T20:18:49.997Z</time>
</trkpt>
<trkpt lat="59.1029460" lon="30.0757810">
<ele>71.414642</ele>
<time>2026-04-22T20:19:05.998Z</time>
</trkpt>
<trkpt lat="59.1028330" lon="30.0758330">
<ele>70.043037</ele>
<time>2026-04-22T20:19:21.999Z</time>
</trkpt>
<trkpt lat="59.1026830" lon="30.0757570">
<ele>69.677284</ele>
<time>2026-04-22T20:19:57.000Z</time>
</trkpt>
<trkpt lat="59.1026510" lon="30.0756820">
<ele>72.908157</ele>
<time>2026-04-22T20:21:04.003Z</time>
</trkpt>
<trkpt lat="59.1024870" lon="30.0756800">
<ele>72.694801</ele>
<time>2026-04-22T20:22:53.999Z</time>
</trkpt>
<trkpt lat="59.1023400" lon="30.0755800">
<ele>72.877686</ele>
<time>2026-04-22T20:23:24.999Z</time>
</trkpt>
<trkpt lat="59.1023430" lon="30.0756500">
<ele>72.816719</ele>
<time>2026-04-22T20:23:39.998Z</time>
</trkpt>
<trkpt lat="59.1019440" lon="30.0757870">
<ele>72.024239</ele>
<time>2026-04-22T20:24:44.997Z</time>
</trkpt>
<trkpt lat="59.1017560" lon="30.0755960">
<ele>69.951599</ele>
<time>2026-04-22T20:25:22.002Z</time>
</trkpt>
<trkpt lat="59.1017330" lon="30.0755170">
<ele>71.536560</ele>
<time>2026-04-22T20:25:41.002Z</time>
</trkpt>
<trkpt lat="59.1017550" lon="30.0754530">
<ele>71.871841</ele>
<time>2026-04-22T20:26:50.001Z</time>
</trkpt>
<trkpt lat="59.1017160" lon="30.0755290">
<ele>71.567039</ele>
<time>2026-04-22T20:28:24.004Z</time>
</trkpt>
<trkpt lat="59.1015360" lon="30.0752650">
<ele>71.445122</ele>
<time>2026-04-22T20:30:28.999Z</time>
</trkpt>
<trkpt lat="59.1013970" lon="30.0751930">
<ele>71.963280</ele>
<time>2026-04-22T20:31:30.999Z</time>
</trkpt>
<trkpt lat="59.1013240" lon="30.0752850">
<ele>70.073517</ele>
<time>2026-04-22T20:32:19.003Z</time>
</trkpt>
<trkpt lat="59.1011510" lon="30.0752000">
<ele>71.018402</ele>
<time>2026-04-22T20:32:47.999Z</time>
</trkpt>
<trkpt lat="59.1010290" lon="30.0752360">
<ele>67.452240</ele>
<time>2026-04-22T20:33:05.996Z</time>
</trkpt>
<trkpt lat="59.1008110" lon="30.0754050">
<ele>63.276482</ele>
<time>2026-04-22T20:33:52.004Z</time>
</trkpt>
<trkpt lat="59.1006140" lon="30.0752360">
<ele>70.530716</ele>
<time>2026-04-22T20:35:47.003Z</time>
</trkpt>
<trkpt lat="59.1004850" lon="30.0752040">
<ele>69.372482</ele>
<time>2026-04-22T20:36:07.998Z</time>
</trkpt>
<trkpt lat="59.1003980" lon="30.0752700">
<ele>68.183762</ele>
<time>2026-04-22T20:36:22.997Z</time>
</trkpt>
<trkpt lat="59.1002980" lon="30.0752690">
<ele>65.531998</ele>
<time>2026-04-22T20:36:38.998Z</time>
</trkpt>
<trkpt lat="59.1000040" lon="30.0750780">
<ele>63.611759</ele>
<time>2026-04-22T20:37:35.003Z</time>
</trkpt>
<trkpt lat="59.0998430" lon="30.0751590">
<ele>66.507362</ele>
<time>2026-04-22T20:38:14.004Z</time>
</trkpt>
<trkpt lat="59.0998170" lon="30.0751020">
<ele>65.745361</ele>
<time>2026-04-22T20:38:47.000Z</time>
</trkpt>
<trkpt lat="59.0998380" lon="30.0751580">
<ele>65.501518</ele>
<time>2026-04-22T20:39:20.998Z</time>
</trkpt>
<trkpt lat="59.0997920" lon="30.0752400">
<ele>67.116959</ele>
<time>2026-04-22T20:40:35.000Z</time>
</trkpt>
<trkpt lat="59.0998420" lon="30.0752710">
<ele>62.880241</ele>
<time>2026-04-22T20:42:36.996Z</time>
</trkpt>
<trkpt lat="59.0997870" lon="30.0752750">
<ele>64.068962</ele>
<time>2026-04-22T20:42:50.000Z</time>
</trkpt>
<trkpt lat="59.0995530" lon="30.0755190">
<ele>65.684402</ele>
<time>2026-04-22T20:43:31.999Z</time>
</trkpt>
<trkpt lat="59.0993590" lon="30.0755620">
<ele>68.854317</ele>
<time>2026-04-22T20:43:58.999Z</time>
</trkpt>
<trkpt lat="59.0992840" lon="30.0756850">
<ele>68.976242</ele>
<time>2026-04-22T20:44:20.996Z</time>
</trkpt>
<trkpt lat="59.0991440" lon="30.0757340">
<ele>68.275200</ele>
<time>2026-04-22T20:44:56.999Z</time>
</trkpt>
<trkpt lat="59.0990510" lon="30.0756330">
<ele>70.012558</ele>
<time>2026-04-22T20:45:14.003Z</time>
</trkpt>
<trkpt lat="59.0989250" lon="30.0755990">
<ele>69.555359</ele>
<time>2026-04-22T20:45:46.999Z</time>
</trkpt>
<trkpt lat="59.0988470" lon="30.0756650">
<ele>71.201279</ele>
<time>2026-04-22T20:48:03.001Z</time>
</trkpt>
<trkpt lat="59.0985510" lon="30.0756940">
<ele>68.397118</ele>
<time>2026-04-22T20:48:43.004Z</time>
</trkpt>
<trkpt lat="59.0984720" lon="30.0757650">
<ele>68.976242</ele>
<time>2026-04-22T20:48:57.001Z</time>
</trkpt>
<trkpt lat="59.0980040" lon="30.0759130">
<ele>67.878960</ele>
<time>2026-04-22T20:49:56.004Z</time>
</trkpt>
<trkpt lat="59.0979500" lon="30.0758780">
<ele>66.263519</ele>
<time>2026-04-22T20:50:38.003Z</time>
</trkpt>
<trkpt lat="59.0978910" lon="30.0759970">
<ele>68.945763</ele>
<time>2026-04-22T20:51:09.996Z</time>
</trkpt>
<trkpt lat="59.0978900" lon="30.0761000">
<ele>72.298561</ele>
<time>2026-04-22T20:52:10.001Z</time>
</trkpt>
<trkpt lat="59.0977580" lon="30.0759870">
<ele>72.633842</ele>
<time>2026-04-22T20:52:50.998Z</time>
</trkpt>
<trkpt lat="59.0974730" lon="30.0761000">
<ele>72.938644</ele>
<time>2026-04-22T20:53:54.001Z</time>
</trkpt>
<trkpt lat="59.0973740" lon="30.0760400">
<ele>72.633842</ele>
<time>2026-04-22T20:54:11.998Z</time>
</trkpt>
<trkpt lat="59.0971400" lon="30.0760160">
<ele>72.725281</ele>
<time>2026-04-22T20:54:53.997Z</time>
</trkpt>
<trkpt lat="59.0970900" lon="30.0761020">
<ele>71.902321</ele>
<time>2026-04-22T20:55:16.003Z</time>
</trkpt>
<trkpt lat="59.0968920" lon="30.0761140">
<ele>72.085197</ele>
<time>2026-04-22T20:56:13.001Z</time>
</trkpt>
<trkpt lat="59.0969000" lon="30.0762030">
<ele>72.542397</ele>
<time>2026-04-22T20:56:34.999Z</time>
</trkpt>
<trkpt lat="59.0969440" lon="30.0761910">
<ele>76.718163</ele>
<time>2026-04-22T20:58:21.996Z</time>
</trkpt>
<trkpt lat="59.0969630" lon="30.0760720">
<ele>76.961998</ele>
<time>2026-04-22T20:58:47.001Z</time>
</trkpt>
<trkpt lat="59.0969400" lon="30.0758930">
<ele>81.168236</ele>
<time>2026-04-22T20:59:16.999Z</time>
</trkpt>
<trkpt lat="59.0969370" lon="30.0759680">
<ele>83.759033</ele>
<time>2026-04-22T20:59:38.996Z</time>
</trkpt>
<trkpt lat="59.0968620" lon="30.0760820">
<ele>82.021683</ele>
<time>2026-04-22T21:00:00.000Z</time>
</trkpt>
<trkpt lat="59.0967320" lon="30.0761480">
<ele>79.491837</ele>
<time>2026-04-22T21:00:17.997Z</time>
</trkpt>
<trkpt lat="59.0964790" lon="30.0761240">
<ele>75.590401</ele>
<time>2026-04-22T21:00:54.000Z</time>
</trkpt>
<trkpt lat="59.0964070" lon="30.0762010">
<ele>72.572884</ele>
<time>2026-04-22T21:01:11.004Z</time>
</trkpt>
<trkpt lat="59.0963050" lon="30.0761900">
<ele>72.786240</ele>
<time>2026-04-22T21:01:26.996Z</time>
</trkpt>
<trkpt lat="59.0961450" lon="30.0760600">
<ele>71.353683</ele>
<time>2026-04-22T21:02:02.999Z</time>
</trkpt>
<trkpt lat="59.0960550" lon="30.0762340">
<ele>69.677284</ele>
<time>2026-04-22T21:02:20.996Z</time>
</trkpt>
<trkpt lat="59.0959250" lon="30.0767210">
<ele>69.555359</ele>
<time>2026-04-22T21:03:17.001Z</time>
</trkpt>
<trkpt lat="59.0958830" lon="30.0767300">
<ele>65.349121</ele>
<time>2026-04-22T21:04:39.003Z</time>
</trkpt>
<trkpt lat="59.0959250" lon="30.0767290">
<ele>65.623444</ele>
<time>2026-04-22T21:05:33.996Z</time>
</trkpt>
<trkpt lat="59.0957970" lon="30.0767760">
<ele>67.513199</ele>
<time>2026-04-22T21:06:12.997Z</time>
</trkpt>
<trkpt lat="59.0957240" lon="30.0766690">
<ele>67.299843</ele>
<time>2026-04-22T21:06:30.001Z</time>
</trkpt>
<trkpt lat="59.0955690" lon="30.0766910">
<ele>67.757042</ele>
<time>2026-04-22T21:06:47.998Z</time>
</trkpt>
<trkpt lat="59.0951610" lon="30.0769680">
<ele>67.757042</ele>
<time>2026-04-22T21:07:45.998Z</time>
</trkpt>
<trkpt lat="59.0950620" lon="30.0769420">
<ele>67.452240</ele>
<time>2026-04-22T21:08:02.000Z</time>
</trkpt>
<trkpt lat="59.0948900" lon="30.0770550">
<ele>67.665604</ele>
<time>2026-04-22T21:09:05.996Z</time>
</trkpt>
<trkpt lat="59.0948170" lon="30.0770380">
<ele>66.385445</ele>
<time>2026-04-22T21:10:04.999Z</time>
</trkpt>
<trkpt lat="59.0948460" lon="30.0770310">
<ele>68.488556</ele>
<time>2026-04-22T21:10:30.996Z</time>
</trkpt>
<trkpt lat="59.0948220" lon="30.0769740">
<ele>69.433441</ele>
<time>2026-04-22T21:10:52.000Z</time>
</trkpt>
<trkpt lat="59.0947080" lon="30.0769640">
<ele>69.646797</ele>
<time>2026-04-22T21:11:11.000Z</time>
</trkpt>
<trkpt lat="59.0945140" lon="30.0771080">
<ele>69.159119</ele>
<time>2026-04-22T21:11:47.996Z</time>
</trkpt>
<trkpt lat="59.0939490" lon="30.0773460">
<ele>68.549515</ele>
<time>2026-04-22T21:13:16.003Z</time>
</trkpt>
<trkpt lat="59.0939500" lon="30.0774290">
<ele>71.231758</ele>
<time>2026-04-22T21:13:48.999Z</time>
</trkpt>
<trkpt lat="59.0939980" lon="30.0774710">
<ele>73.121521</ele>
<time>2026-04-22T21:14:18.004Z</time>
</trkpt>
<trkpt lat="59.0939480" lon="30.0774380">
<ele>77.388718</ele>
<time>2026-04-22T21:15:42.002Z</time>
</trkpt>
<trkpt lat="59.0939230" lon="30.0773310">
<ele>75.651360</ele>
<time>2026-04-22T21:16:12.000Z</time>
</trkpt>
<trkpt lat="59.0938810" lon="30.0774020">
<ele>71.567039</ele>
<time>2026-04-22T21:16:44.996Z</time>
</trkpt>
<trkpt lat="59.0938990" lon="30.0773930">
<ele>70.835518</ele>
<time>2026-04-22T21:17:15.003Z</time>
</trkpt>
<trkpt lat="59.0937750" lon="30.0774160">
<ele>67.939919</ele>
<time>2026-04-22T21:18:05.996Z</time>
</trkpt>
<trkpt lat="59.0936820" lon="30.0775040">
<ele>67.208397</ele>
<time>2026-04-22T21:18:23.000Z</time>
</trkpt>
<trkpt lat="59.0935040" lon="30.0778560">
<ele>68.061844</ele>
<time>2026-04-22T21:19:15.004Z</time>
</trkpt>
<trkpt lat="59.0934480" lon="30.0781020">
<ele>67.147438</ele>
<time>2026-04-22T21:19:38.004Z</time>
</trkpt>
<trkpt lat="59.0934490" lon="30.0782800">
<ele>67.238884</ele>
<time>2026-04-22T21:20:01.003Z</time>
</trkpt>
<trkpt lat="59.0933250" lon="30.0784850">
<ele>70.439285</ele>
<time>2026-04-22T21:20:47.003Z</time>
</trkpt>
<trkpt lat="59.0932710" lon="30.0784770">
<ele>70.591682</ele>
<time>2026-04-22T21:21:17.001Z</time>
</trkpt>
<trkpt lat="59.0933250" lon="30.0785370">
<ele>73.822556</ele>
<time>2026-04-22T21:21:42.998Z</time>
</trkpt>
<trkpt lat="59.0932670" lon="30.0785140">
<ele>75.712318</ele>
<time>2026-04-22T21:22:43.997Z</time>
</trkpt>
<trkpt lat="59.0931370" lon="30.0788090">
<ele>77.906883</ele>
<time>2026-04-22T21:23:52.002Z</time>
</trkpt>
<trkpt lat="59.0931430" lon="30.0791890">
<ele>80.680565</ele>
<time>2026-04-22T21:24:39.004Z</time>
</trkpt>
<trkpt lat="59.0930770" lon="30.0794150">
<ele>83.271362</ele>
<time>2026-04-22T21:24:55.999Z</time>
</trkpt>
<trkpt lat="59.0929450" lon="30.0795060">
<ele>81.046318</ele>
<time>2026-04-22T21:25:14.998Z</time>
</trkpt>
<trkpt lat="59.0927180" lon="30.0799220">
<ele>76.687683</ele>
<time>2026-04-22T21:26:10.000Z</time>
</trkpt>
<trkpt lat="59.0927070" lon="30.0800580">
<ele>76.199997</ele>
<time>2026-04-22T21:26:30.002Z</time>
</trkpt>
<trkpt lat="59.0925880" lon="30.0801530">
<ele>77.022957</ele>
<time>2026-04-22T21:26:54.004Z</time>
</trkpt>
<trkpt lat="59.0927390" lon="30.0802430">
<ele>80.893921</ele>
<time>2026-04-22T21:27:54.000Z</time>
</trkpt>
<trkpt lat="59.0926950" lon="30.0802420">
<ele>80.345284</ele>
<time>2026-04-22T21:28:19.998Z</time>
</trkpt>
<trkpt lat="59.0927280" lon="30.0801340">
<ele>83.027519</ele>
<time>2026-04-22T21:28:44.000Z</time>
</trkpt>
<trkpt lat="59.0925740" lon="30.0804970">
<ele>81.168236</ele>
<time>2026-04-22T21:29:25.999Z</time>
</trkpt>
<trkpt lat="59.0925490" lon="30.0806900">
<ele>80.162399</ele>
<time>2026-04-22T21:29:51.003Z</time>
</trkpt>
<trkpt lat="59.0926740" lon="30.0809000">
<ele>85.679283</ele>
<time>2026-04-22T21:30:52.001Z</time>
</trkpt>
<trkpt lat="59.0924830" lon="30.0806050">
<ele>84.642967</ele>
<time>2026-04-22T21:31:39.996Z</time>
</trkpt>
<trkpt lat="59.0924610" lon="30.0806940">
<ele>83.545685</ele>
<time>2026-04-22T21:32:01.000Z</time>
</trkpt>
<trkpt lat="59.0923630" lon="30.0805550">
<ele>80.497681</ele>
<time>2026-04-22T21:32:18.004Z</time>
</trkpt>
<trkpt lat="59.0923240" lon="30.0806810">
<ele>79.674721</ele>
<time>2026-04-22T21:32:37.003Z</time>
</trkpt>
<trkpt lat="59.0922890" lon="30.0811540">
<ele>78.973679</ele>
<time>2026-04-22T21:33:22.000Z</time>
</trkpt>
<trkpt lat="59.0922070" lon="30.0812760">
<ele>80.436722</ele>
<time>2026-04-22T21:33:43.004Z</time>
</trkpt>
<trkpt lat="59.0920930" lon="30.0810470">
<ele>79.827118</ele>
<time>2026-04-22T21:34:21.996Z</time>
</trkpt>
<trkpt lat="59.0919970" lon="30.0809950">
<ele>79.095596</ele>
<time>2026-04-22T21:34:37.004Z</time>
</trkpt>
<trkpt lat="59.0918250" lon="30.0811470">
<ele>79.004166</ele>
<time>2026-04-22T21:35:51.999Z</time>
</trkpt>
<trkpt lat="59.0919330" lon="30.0810710">
<ele>79.461365</ele>
<time>2026-04-22T21:36:25.004Z</time>
</trkpt>
<trkpt lat="59.0918920" lon="30.0811280">
<ele>79.065117</ele>
<time>2026-04-22T21:36:55.996Z</time>
</trkpt>
<trkpt lat="59.0919100" lon="30.0813580">
<ele>80.375763</ele>
<time>2026-04-22T21:37:38.997Z</time>
</trkpt>
<trkpt lat="59.0917750" lon="30.0815180">
<ele>79.918564</ele>
<time>2026-04-22T21:38:19.000Z</time>
</trkpt>
<trkpt lat="59.0917280" lon="30.0814970">
<ele>79.034637</ele>
<time>2026-04-22T21:38:38.000Z</time>
</trkpt>
<trkpt lat="59.0915980" lon="30.0816770">
<ele>80.253838</ele>
<time>2026-04-22T21:39:18.996Z</time>
</trkpt>
<trkpt lat="59.0913580" lon="30.0813360">
<ele>75.285599</ele>
<time>2026-04-22T21:40:28.004Z</time>
</trkpt>
<trkpt lat="59.0910780" lon="30.0811200">
<ele>73.974960</ele>
<time>2026-04-22T21:41:15.999Z</time>
</trkpt>
<trkpt lat="59.0909400" lon="30.0810700">
<ele>73.152000</ele>
<time>2026-04-22T21:42:24.998Z</time>
</trkpt>
<trkpt lat="59.0909630" lon="30.0810500">
<ele>74.249283</ele>
<time>2026-04-22T21:42:57.001Z</time>
</trkpt>
<trkpt lat="59.0909210" lon="30.0810780">
<ele>75.529442</ele>
<time>2026-04-22T21:43:57.999Z</time>
</trkpt>
<trkpt lat="59.0906390" lon="30.0807690">
<ele>69.433441</ele>
<time>2026-04-22T21:44:47.999Z</time>
</trkpt>
<trkpt lat="59.0905240" lon="30.0806960">
<ele>70.012558</ele>
<time>2026-04-22T21:45:01.996Z</time>
</trkpt>
<trkpt lat="59.0900680" lon="30.0806500">
<ele>69.524879</ele>
<time>2026-04-22T21:47:56.999Z</time>
</trkpt>
<trkpt lat="59.0898560" lon="30.0803220">
<ele>69.982079</ele>
<time>2026-04-22T21:48:54.999Z</time>
</trkpt>
<trkpt lat="59.0897080" lon="30.0802620">
<ele>71.719444</ele>
<time>2026-04-22T21:49:12.996Z</time>
</trkpt>
<trkpt lat="59.0895570" lon="30.0803500">
<ele>72.542397</ele>
<time>2026-04-22T21:49:35.996Z</time>
</trkpt>
<trkpt lat="59.0893980" lon="30.0802810">
<ele>73.152000</ele>
<time>2026-04-22T21:49:55.004Z</time>
</trkpt>
<trkpt lat="59.0893380" lon="30.0801890">
<ele>74.005440</ele>
<time>2026-04-22T21:50:13.001Z</time>
</trkpt>
<trkpt lat="59.0893570" lon="30.0801780">
<ele>73.914001</ele>
<time>2026-04-22T21:50:36.001Z</time>
</trkpt>
<trkpt lat="59.0893080" lon="30.0801470">
<ele>74.980797</ele>
<time>2026-04-22T21:51:32.999Z</time>
</trkpt>
<trkpt lat="59.0893270" lon="30.0801750">
<ele>75.468483</ele>
<time>2026-04-22T21:52:02.004Z</time>
</trkpt>
<trkpt lat="59.0893370" lon="30.0801160">
<ele>78.668884</ele>
<time>2026-04-22T21:53:27.004Z</time>
</trkpt>
<trkpt lat="59.0891100" lon="30.0798230">
<ele>77.419197</ele>
<time>2026-04-22T21:54:29.998Z</time>
</trkpt>
<trkpt lat="59.0890290" lon="30.0795340">
<ele>76.870560</ele>
<time>2026-04-22T21:54:54.000Z</time>
</trkpt>
<trkpt lat="59.0888740" lon="30.0793920">
<ele>72.572884</ele>
<time>2026-04-22T21:55:49.002Z</time>
</trkpt>
<trkpt lat="59.0887780" lon="30.0794890">
<ele>71.231758</ele>
<time>2026-04-22T21:56:09.004Z</time>
</trkpt>
<trkpt lat="59.0887280" lon="30.0797550">
<ele>69.646797</ele>
<time>2026-04-22T21:56:32.997Z</time>
</trkpt>
<trkpt lat="59.0887280" lon="30.0800010">
<ele>70.012558</ele>
<time>2026-04-22T21:56:54.001Z</time>
</trkpt>
<trkpt lat="59.0884510" lon="30.0806300">
<ele>70.469757</ele>
<time>2026-04-22T21:58:04.996Z</time>
</trkpt>
<trkpt lat="59.0884210" lon="30.0806370">
<ele>71.231758</ele>
<time>2026-04-22T21:58:12.996Z</time>
</trkpt>
<trkpt lat="59.0884180" lon="30.0808810">
<ele>72.085197</ele>
<time>2026-04-22T21:58:35.996Z</time>
</trkpt>
<trkpt lat="59.0883040" lon="30.0807080">
<ele>72.237602</ele>
<time>2026-04-22T21:58:55.998Z</time>
</trkpt>
<trkpt lat="59.0880010" lon="30.0806570">
<ele>73.822556</ele>
<time>2026-04-22T21:59:52.996Z</time>
</trkpt>
<trkpt lat="59.0880210" lon="30.0807290">
<ele>75.864716</ele>
<time>2026-04-22T22:00:23.003Z</time>
</trkpt>
<trkpt lat="59.0879860" lon="30.0807940">
<ele>76.901039</ele>
<time>2026-04-22T22:00:51.998Z</time>
</trkpt>
<trkpt lat="59.0880470" lon="30.0808040">
<ele>80.223366</ele>
<time>2026-04-22T22:01:24.001Z</time>
</trkpt>
<trkpt lat="59.0879800" lon="30.0806720">
<ele>79.308960</ele>
<time>2026-04-22T22:01:56.004Z</time>
</trkpt>
<trkpt lat="59.0879130" lon="30.0809480">
<ele>79.339439</ele>
<time>2026-04-22T22:02:38.996Z</time>
</trkpt>
<trkpt lat="59.0877760" lon="30.0810680">
<ele>79.888084</ele>
<time>2026-04-22T22:03:33.998Z</time>
</trkpt>
<trkpt lat="59.0874710" lon="30.0809260">
<ele>75.834244</ele>
<time>2026-04-22T22:04:34.003Z</time>
</trkpt>
<trkpt lat="59.0873290" lon="30.0804600">
<ele>72.511917</ele>
<time>2026-04-22T22:05:31.001Z</time>
</trkpt>
<trkpt lat="59.0873150" lon="30.0800900">
<ele>73.121521</ele>
<time>2026-04-22T22:06:03.997Z</time>
</trkpt>
<trkpt lat="59.0872120" lon="30.0799650">
<ele>75.529442</ele>
<time>2026-04-22T22:07:34.000Z</time>
</trkpt>
<trkpt lat="59.0873500" lon="30.0799970">
<ele>74.980797</ele>
<time>2026-04-22T22:09:18.000Z</time>
</trkpt>
<trkpt lat="59.0872470" lon="30.0799840">
<ele>75.742798</ele>
<time>2026-04-22T22:10:13.002Z</time>
</trkpt>
<trkpt lat="59.0872630" lon="30.0800030">
<ele>75.194160</ele>
<time>2026-04-22T22:10:43.000Z</time>
</trkpt>
<trkpt lat="59.0873200" lon="30.0797450">
<ele>74.828400</ele>
<time>2026-04-22T22:11:27.004Z</time>
</trkpt>
<trkpt lat="59.0873530" lon="30.0797140">
<ele>75.681839</ele>
<time>2026-04-22T22:12:27.000Z</time>
</trkpt>
<trkpt lat="59.0873010" lon="30.0797110">
<ele>75.590401</ele>
<time>2026-04-22T22:13:22.002Z</time>
</trkpt>
<trkpt lat="59.0872310" lon="30.0798160">
<ele>73.974960</ele>
<time>2026-04-22T22:13:42.004Z</time>
</trkpt>
<trkpt lat="59.0872150" lon="30.0800690">
<ele>73.487282</ele>
<time>2026-04-22T22:14:16.002Z</time>
</trkpt>
<trkpt lat="59.0872210" lon="30.0796080">
<ele>71.536560</ele>
<time>2026-04-22T22:14:52.999Z</time>
</trkpt>
<trkpt lat="59.0870530" lon="30.0792790">
<ele>70.987915</ele>
<time>2026-04-22T22:15:21.001Z</time>
</trkpt>
<trkpt lat="59.0862550" lon="30.0782480">
<ele>67.482719</ele>
<time>2026-04-22T22:19:40.996Z</time>
</trkpt>
<trkpt lat="59.0858790" lon="30.0776930">
<ele>67.177917</ele>
<time>2026-04-22T22:21:08.001Z</time>
</trkpt>
<trkpt lat="59.0858390" lon="30.0776900">
<ele>67.482719</ele>
<time>2026-04-22T22:21:33.998Z</time>
</trkpt>
<trkpt lat="59.0858180" lon="30.0775860">
<ele>69.982079</ele>
<time>2026-04-22T22:23:23.001Z</time>
</trkpt>
<trkpt lat="59.0857290" lon="30.0775230">
<ele>69.159119</ele>
<time>2026-04-22T22:23:43.996Z</time>
</trkpt>
<trkpt lat="59.0855680" lon="30.0772420">
<ele>66.050156</ele>
<time>2026-04-22T22:24:23.999Z</time>
</trkpt>
<trkpt lat="59.0853810" lon="30.0771030">
<ele>64.190880</ele>
<time>2026-04-22T22:25:01.998Z</time>
</trkpt>
<trkpt lat="59.0852300" lon="30.0767470">
<ele>67.177917</ele>
<time>2026-04-22T22:27:54.003Z</time>
</trkpt>
<trkpt lat="59.0851330" lon="30.0766380">
<ele>70.591682</ele>
<time>2026-04-22T22:30:48.004Z</time>
</trkpt>
<trkpt lat="59.0851600" lon="30.0766460">
<ele>70.103996</ele>
<time>2026-04-22T22:31:15.997Z</time>
</trkpt>
<trkpt lat="59.0850440" lon="30.0765930">
<ele>68.580002</ele>
<time>2026-04-22T22:32:51.996Z</time>
</trkpt>
<trkpt lat="59.0847400" lon="30.0762340">
<ele>66.507362</ele>
<time>2026-04-22T22:33:49.997Z</time>
</trkpt>
<trkpt lat="59.0846590" lon="30.0760080">
<ele>66.537842</ele>
<time>2026-04-22T22:34:05.998Z</time>
</trkpt>
<trkpt lat="59.0845900" lon="30.0759190">
<ele>65.775841</ele>
<time>2026-04-22T22:34:23.002Z</time>
</trkpt>
<trkpt lat="59.0844410" lon="30.0754980">
<ele>62.697357</ele>
<time>2026-04-22T22:35:11.999Z</time>
</trkpt>
<trkpt lat="59.0843960" lon="30.0754720">
<ele>65.471039</ele>
<time>2026-04-22T22:35:33.003Z</time>
</trkpt>
<trkpt lat="59.0843910" lon="30.0753960">
<ele>63.185040</ele>
<time>2026-04-22T22:36:53.001Z</time>
</trkpt>
<trkpt lat="59.0842490" lon="30.0755380">
<ele>67.482719</ele>
<time>2026-04-22T22:38:02.000Z</time>
</trkpt>
<trkpt lat="59.0841390" lon="30.0755570">
<ele>68.153282</ele>
<time>2026-04-22T22:38:20.999Z</time>
</trkpt>
<trkpt lat="59.0840890" lon="30.0754900">
<ele>68.275200</ele>
<time>2026-04-22T22:38:33.000Z</time>
</trkpt>
<trkpt lat="59.0840340" lon="30.0755480">
<ele>68.153282</ele>
<time>2026-04-22T22:38:54.997Z</time>
</trkpt>
<trkpt lat="59.0839930" lon="30.0757740">
<ele>67.665604</ele>
<time>2026-04-22T22:39:16.001Z</time>
</trkpt>
<trkpt lat="59.0839870" lon="30.0760240">
<ele>68.031357</ele>
<time>2026-04-22T22:39:37.999Z</time>
</trkpt>
<trkpt lat="59.0838710" lon="30.0761340">
<ele>66.446404</ele>
<time>2026-04-22T22:39:55.002Z</time>
</trkpt>
<trkpt lat="59.0837440" lon="30.0759120">
<ele>65.562485</ele>
<time>2026-04-22T22:40:14.002Z</time>
</trkpt>
<trkpt lat="59.0836600" lon="30.0759190">
<ele>63.764160</ele>
<time>2026-04-22T22:40:30.003Z</time>
</trkpt>
<trkpt lat="59.0836170" lon="30.0760420">
<ele>63.002159</ele>
<time>2026-04-22T22:40:50.998Z</time>
</trkpt>
<trkpt lat="59.0835900" lon="30.0762640">
<ele>65.074799</ele>
<time>2026-04-22T22:41:15.000Z</time>
</trkpt>
<trkpt lat="59.0835710" lon="30.0767960">
<ele>65.379601</ele>
<time>2026-04-22T22:41:58.001Z</time>
</trkpt>
<trkpt lat="59.0834790" lon="30.0769610">
<ele>68.275200</ele>
<time>2026-04-22T22:42:37.002Z</time>
</trkpt>
<trkpt lat="59.0835070" lon="30.0770400">
<ele>77.022957</ele>
<time>2026-04-22T22:44:37.997Z</time>
</trkpt>
<trkpt lat="59.0834750" lon="30.0770910">
<ele>80.863434</ele>
<time>2026-04-22T22:45:11.002Z</time>
</trkpt>
<trkpt lat="59.0834320" lon="30.0770900">
<ele>82.509361</ele>
<time>2026-04-22T22:45:43.004Z</time>
</trkpt>
<trkpt lat="59.0834440" lon="30.0770330">
<ele>82.753197</ele>
<time>2026-04-22T22:46:10.998Z</time>
</trkpt>
<trkpt lat="59.0833350" lon="30.0771830">
<ele>82.448402</ele>
<time>2026-04-22T22:47:03.002Z</time>
</trkpt>
<trkpt lat="59.0833430" lon="30.0774010">
<ele>81.137764</ele>
<time>2026-04-22T22:47:27.004Z</time>
</trkpt>
<trkpt lat="59.0834320" lon="30.0774920">
<ele>80.497681</ele>
<time>2026-04-22T22:47:49.001Z</time>
</trkpt>
<trkpt lat="59.0836530" lon="30.0774890">
<ele>80.741516</ele>
<time>2026-04-22T22:48:28.002Z</time>
</trkpt>
<trkpt lat="59.0838370" lon="30.0780440">
<ele>74.157845</ele>
<time>2026-04-22T22:49:26.996Z</time>
</trkpt>
<trkpt lat="59.0840410" lon="30.0782000">
<ele>76.321915</ele>
<time>2026-04-22T22:50:36.004Z</time>
</trkpt>
<trkpt lat="59.0840380" lon="30.0783330">
<ele>79.369919</ele>
<time>2026-04-22T22:53:22.998Z</time>
</trkpt>
<trkpt lat="59.0840650" lon="30.0782850">
<ele>80.832962</ele>
<time>2026-04-22T22:53:49.004Z</time>
</trkpt>
<trkpt lat="59.0841050" lon="30.0783460">
<ele>80.954880</ele>
<time>2026-04-22T22:54:09.999Z</time>
</trkpt>
<trkpt lat="59.0841020" lon="30.0785210">
<ele>79.705200</ele>
<time>2026-04-22T22:54:31.003Z</time>
</trkpt>
<trkpt lat="59.0843410" lon="30.0787500">
<ele>75.255119</ele>
<time>2026-04-22T22:55:29.997Z</time>
</trkpt>
<trkpt lat="59.0844220" lon="30.0786500">
<ele>71.323196</ele>
<time>2026-04-22T22:55:45.998Z</time>
</trkpt>
<trkpt lat="59.0844820" lon="30.0787590">
<ele>68.214241</ele>
<time>2026-04-22T22:56:03.002Z</time>
</trkpt>
<trkpt lat="59.0844210" lon="30.0788450">
<ele>68.275200</ele>
<time>2026-04-22T22:56:20.999Z</time>
</trkpt>
<trkpt lat="59.0843330" lon="30.0788270">
<ele>66.141602</ele>
<time>2026-04-22T22:56:35.998Z</time>
</trkpt>
<trkpt lat="59.0842870" lon="30.0789100">
<ele>65.013840</ele>
<time>2026-04-22T22:56:50.997Z</time>
</trkpt>
<trkpt lat="59.0843170" lon="30.0789320">
<ele>64.922401</ele>
<time>2026-04-22T22:57:17.004Z</time>
</trkpt>
<trkpt lat="59.0844390" lon="30.0787000">
<ele>79.827118</ele>
<time>2026-04-22T22:58:30.003Z</time>
</trkpt>
<trkpt lat="59.0844040" lon="30.0787060">
<ele>68.153282</ele>
<time>2026-04-22T22:58:35.999Z</time>
</trkpt>
<trkpt lat="59.0843410" lon="30.0789760">
<ele>75.346558</ele>
<time>2026-04-22T22:58:56.001Z</time>
</trkpt>
<trkpt lat="59.0843960" lon="30.0789840">
<ele>76.565758</ele>
<time>2026-04-22T22:59:11.000Z</time>
</trkpt>
<trkpt lat="59.0844210" lon="30.0791060">
<ele>74.340721</ele>
<time>2026-04-22T22:59:24.003Z</time>
</trkpt>
<trkpt lat="59.0844860" lon="30.0791680">
<ele>74.858879</ele>
<time>2026-04-22T22:59:43.002Z</time>
</trkpt>
<trkpt lat="59.0846830" lon="30.0791810">
<ele>74.127357</ele>
<time>2026-04-22T23:00:34.004Z</time>
</trkpt>
<trkpt lat="59.0847090" lon="30.0792860">
<ele>73.487282</ele>
<time>2026-04-22T23:00:50.999Z</time>
</trkpt>
<trkpt lat="59.0846950" lon="30.0793340">
<ele>73.243439</ele>
<time>2026-04-22T23:01:13.999Z</time>
</trkpt>
<trkpt lat="59.0847920" lon="30.0793250">
<ele>77.541115</ele>
<time>2026-04-22T23:03:34.001Z</time>
</trkpt>
<trkpt lat="59.0849580" lon="30.0794950">
<ele>77.083916</ele>
<time>2026-04-22T23:04:24.001Z</time>
</trkpt>
<trkpt lat="59.0852100" lon="30.0800190">
<ele>74.279762</ele>
<time>2026-04-22T23:05:42.003Z</time>
</trkpt>
<trkpt lat="59.0852470" lon="30.0802300">
<ele>72.999603</ele>
<time>2026-04-22T23:06:01.002Z</time>
</trkpt>
<trkpt lat="59.0853240" lon="30.0802860">
<ele>70.805038</ele>
<time>2026-04-22T23:06:17.004Z</time>
</trkpt>
<trkpt lat="59.0853880" lon="30.0804270">
<ele>67.086479</ele>
<time>2026-04-22T23:06:33.998Z</time>
</trkpt>
<trkpt lat="59.0854650" lon="30.0804220">
<ele>73.700638</ele>
<time>2026-04-22T23:08:33.999Z</time>
</trkpt>
<trkpt lat="59.0855760" lon="30.0806950">
<ele>74.584557</ele>
<time>2026-04-22T23:09:25.001Z</time>
</trkpt>
<trkpt lat="59.0856300" lon="30.0810250">
<ele>74.828400</ele>
<time>2026-04-22T23:10:12.996Z</time>
</trkpt>
<trkpt lat="59.0857600" lon="30.0813480">
<ele>71.140320</ele>
<time>2026-04-22T23:10:34.000Z</time>
</trkpt>
<trkpt lat="59.0860200" lon="30.0816960">
<ele>64.830956</ele>
<time>2026-04-22T23:11:13.001Z</time>
</trkpt>
<trkpt lat="59.0861770" lon="30.0817060">
<ele>78.425034</ele>
<time>2026-04-22T23:13:06.004Z</time>
</trkpt>
<trkpt lat="59.0861880" lon="30.0818220">
<ele>75.956161</ele>
<time>2026-04-22T23:13:28.001Z</time>
</trkpt>
<trkpt lat="59.0862580" lon="30.0818980">
<ele>71.627998</ele>
<time>2026-04-22T23:13:48.003Z</time>
</trkpt>
<trkpt lat="59.0866230" lon="30.0820790">
<ele>68.671440</ele>
<time>2026-04-22T23:15:21.997Z</time>
</trkpt>
<trkpt lat="59.0865960" lon="30.0819740">
<ele>70.439285</ele>
<time>2026-04-22T23:16:31.999Z</time>
</trkpt>
<trkpt lat="59.0863840" lon="30.0823870">
<ele>68.519043</ele>
<time>2026-04-22T23:17:09.997Z</time>
</trkpt>
<trkpt lat="59.0860550" lon="30.0831810">
<ele>64.190880</ele>
<time>2026-04-22T23:18:00.999Z</time>
</trkpt>
<trkpt lat="59.0858730" lon="30.0834630">
<ele>62.026798</ele>
<time>2026-04-22T23:19:16.003Z</time>
</trkpt>
<trkpt lat="59.0858860" lon="30.0835160">
<ele>61.386719</ele>
<time>2026-04-22T23:20:10.997Z</time>
</trkpt>
<trkpt lat="59.0855930" lon="30.0844010">
<ele>66.903603</ele>
<time>2026-04-22T23:21:45.000Z</time>
</trkpt>
<trkpt lat="59.0855020" lon="30.0849280">
<ele>66.995041</ele>
<time>2026-04-22T23:22:53.999Z</time>
</trkpt>
<trkpt lat="59.0854550" lon="30.0849870">
<ele>66.751198</ele>
<time>2026-04-22T23:23:22.001Z</time>
</trkpt>
<trkpt lat="59.0854970" lon="30.0848940">
<ele>67.909439</ele>
<time>2026-04-22T23:23:54.997Z</time>
</trkpt>
<trkpt lat="59.0854410" lon="30.0851160">
<ele>64.769997</ele>
<time>2026-04-22T23:25:22.996Z</time>
</trkpt>
<trkpt lat="59.0853420" lon="30.0859420">
<ele>56.814716</ele>
<time>2026-04-22T23:26:25.999Z</time>
</trkpt>
<trkpt lat="59.0851980" lon="30.0863770">
<ele>55.991760</ele>
<time>2026-04-22T23:27:03.004Z</time>
</trkpt>
<trkpt lat="59.0851430" lon="30.0864920">
<ele>59.344559</ele>
<time>2026-04-22T23:27:22.997Z</time>
</trkpt>
<trkpt lat="59.0851080" lon="30.0864960">
<ele>64.251839</ele>
<time>2026-04-22T23:28:21.999Z</time>
</trkpt>
<trkpt lat="59.0851340" lon="30.0864740">
<ele>65.257683</ele>
<time>2026-04-22T23:29:25.002Z</time>
</trkpt>
<trkpt lat="59.0851340" lon="30.0866220">
<ele>65.806320</ele>
<time>2026-04-22T23:29:47.000Z</time>
</trkpt>
<trkpt lat="59.0850660" lon="30.0867940">
<ele>67.056000</ele>
<time>2026-04-22T23:30:35.004Z</time>
</trkpt>
<trkpt lat="59.0849060" lon="30.0869400">
<ele>62.758320</ele>
<time>2026-04-22T23:33:37.999Z</time>
</trkpt>
<trkpt lat="59.0848860" lon="30.0870600">
<ele>61.813442</ele>
<time>2026-04-22T23:33:59.996Z</time>
</trkpt>
<trkpt lat="59.0845020" lon="30.0878300">
<ele>62.362083</ele>
<time>2026-04-22T23:35:50.001Z</time>
</trkpt>
<trkpt lat="59.0842070" lon="30.0883180">
<ele>63.276482</ele>
<time>2026-04-22T23:37:39.996Z</time>
</trkpt>
<trkpt lat="59.0844290" lon="30.0883620">
<ele>68.183762</ele>
<time>2026-04-22T23:39:22.000Z</time>
</trkpt>
<trkpt lat="59.0846100" lon="30.0884810">
<ele>69.159119</ele>
<time>2026-04-22T23:39:42.002Z</time>
</trkpt>
<trkpt lat="59.0847400" lon="30.0886920">
<ele>69.463921</ele>
<time>2026-04-22T23:39:59.999Z</time>
</trkpt>
<trkpt lat="59.0848770" lon="30.0888260">
<ele>70.378319</ele>
<time>2026-04-22T23:40:16.000Z</time>
</trkpt>
<trkpt lat="59.0849550" lon="30.0888170">
<ele>70.744080</ele>
<time>2026-04-22T23:40:33.997Z</time>
</trkpt>
<trkpt lat="59.0848800" lon="30.0889010">
<ele>69.860161</ele>
<time>2026-04-22T23:41:31.004Z</time>
</trkpt>
<trkpt lat="59.0848860" lon="30.0890220">
<ele>69.494400</ele>
<time>2026-04-22T23:42:48.997Z</time>
</trkpt>
<trkpt lat="59.0847070" lon="30.0893340">
<ele>69.128639</ele>
<time>2026-04-22T23:43:29.001Z</time>
</trkpt>
<trkpt lat="59.0845070" lon="30.0898830">
<ele>63.642242</ele>
<time>2026-04-22T23:44:04.001Z</time>
</trkpt>
<trkpt lat="59.0844160" lon="30.0904330">
<ele>64.922401</ele>
<time>2026-04-22T23:44:39.002Z</time>
</trkpt>
<trkpt lat="59.0844340" lon="30.0904490">
<ele>66.690239</ele>
<time>2026-04-22T23:45:05.000Z</time>
</trkpt>
<trkpt lat="59.0844110" lon="30.0904040">
<ele>64.891914</ele>
<time>2026-04-22T23:46:46.001Z</time>
</trkpt>
<trkpt lat="59.0843770" lon="30.0905330">
<ele>65.044319</ele>
<time>2026-04-22T23:47:42.999Z</time>
</trkpt>
<trkpt lat="59.0843530" lon="30.0907720">
<ele>65.562485</ele>
<time>2026-04-22T23:47:56.996Z</time>
</trkpt>
<trkpt lat="59.0842250" lon="30.0912780">
<ele>66.263519</ele>
<time>2026-04-22T23:48:23.996Z</time>
</trkpt>
<trkpt lat="59.0842530" lon="30.0920050">
<ele>65.471039</ele>
<time>2026-04-22T23:49:01.001Z</time>
</trkpt>
<trkpt lat="59.0841990" lon="30.0925110">
<ele>63.581284</ele>
<time>2026-04-22T23:50:02.000Z</time>
</trkpt>
<trkpt lat="59.0840520" lon="30.0931780">
<ele>66.293999</ele>
<time>2026-04-22T23:50:38.996Z</time>
</trkpt>
<trkpt lat="59.0842530" lon="30.0936530">
<ele>66.233040</ele>
<time>2026-04-22T23:52:07.997Z</time>
</trkpt>
<trkpt lat="59.0842650" lon="30.0937860">
<ele>70.652641</ele>
<time>2026-04-22T23:54:11.998Z</time>
</trkpt>
<trkpt lat="59.0843070" lon="30.0938210">
<ele>70.896484</ele>
<time>2026-04-22T23:54:30.997Z</time>
</trkpt>
<trkpt lat="59.0843240" lon="30.0937250">
<ele>69.311516</ele>
<time>2026-04-22T23:55:28.004Z</time>
</trkpt>
<trkpt lat="59.0843500" lon="30.0937140">
<ele>68.427597</ele>
<time>2026-04-22T23:57:28.999Z</time>
</trkpt>
<trkpt lat="59.0843150" lon="30.0937320">
<ele>67.635117</ele>
<time>2026-04-22T23:59:54.997Z</time>
</trkpt>
<trkpt lat="59.0843180" lon="30.0936840">
<ele>68.183762</ele>
<time>2026-04-23T00:00:25.004Z</time>
</trkpt>
<trkpt lat="59.0843310" lon="30.0937800">
<ele>68.122803</ele>
<time>2026-04-23T00:02:08.002Z</time>
</trkpt>
<trkpt lat="59.0843840" lon="30.0938010">
<ele>66.354958</ele>
<time>2026-04-23T00:03:46.999Z</time>
</trkpt>
<trkpt lat="59.0843490" lon="30.0936860">
<ele>68.275200</ele>
<time>2026-04-23T00:04:12.003Z</time>
</trkpt>
<trkpt lat="59.0842970" lon="30.0937360">
<ele>67.574158</ele>
<time>2026-04-23T00:04:34.000Z</time>
</trkpt>
<trkpt lat="59.0843460" lon="30.0939510">
<ele>67.299843</ele>
<time>2026-04-23T00:05:14.004Z</time>
</trkpt>
<trkpt lat="59.0844330" lon="30.0940470">
<ele>66.111115</ele>
<time>2026-04-23T00:05:30.998Z</time>
</trkpt>
<trkpt lat="59.0844940" lon="30.0940140">
<ele>66.385445</ele>
<time>2026-04-23T00:05:37.997Z</time>
</trkpt>
<trkpt lat="59.0846070" lon="30.0937730">
<ele>66.964561</ele>
<time>2026-04-23T00:05:55.000Z</time>
</trkpt>
<trkpt lat="59.0847910" lon="30.0936790">
<ele>65.897758</ele>
<time>2026-04-23T00:06:15.002Z</time>
</trkpt>
<trkpt lat="59.0850630" lon="30.0934440">
<ele>62.758320</ele>
<time>2026-04-23T00:06:50.003Z</time>
</trkpt>
<trkpt lat="59.0851570" lon="30.0931960">
<ele>63.245998</ele>
<time>2026-04-23T00:07:21.996Z</time>
</trkpt>
<trkpt lat="59.0852350" lon="30.0932610">
<ele>68.336159</ele>
<time>2026-04-23T00:07:52.003Z</time>
</trkpt>
<trkpt lat="59.0852580" lon="30.0930570">
<ele>76.230484</ele>
<time>2026-04-23T00:09:59.996Z</time>
</trkpt>
<trkpt lat="59.0852430" lon="30.0930640">
<ele>75.712318</ele>
<time>2026-04-23T00:10:26.996Z</time>
</trkpt>
<trkpt lat="59.0853260" lon="30.0929050">
<ele>73.182480</ele>
<time>2026-04-23T00:10:46.998Z</time>
</trkpt>
<trkpt lat="59.0853950" lon="30.0922460">
<ele>70.500244</ele>
<time>2026-04-23T00:11:24.996Z</time>
</trkpt>
<trkpt lat="59.0854720" lon="30.0920410">
<ele>69.768715</ele>
<time>2026-04-23T00:11:38.000Z</time>
</trkpt>
<trkpt lat="59.0856610" lon="30.0921540">
<ele>69.494400</ele>
<time>2026-04-23T00:11:59.997Z</time>
</trkpt>
<trkpt lat="59.0858550" lon="30.0921200">
<ele>68.092316</ele>
<time>2026-04-23T00:12:32.000Z</time>
</trkpt>
<trkpt lat="59.0859750" lon="30.0917590">
<ele>66.354958</ele>
<time>2026-04-23T00:14:51.000Z</time>
</trkpt>
<trkpt lat="59.0860160" lon="30.0915540">
<ele>66.781685</ele>
<time>2026-04-23T00:15:01.999Z</time>
</trkpt>
<trkpt lat="59.0861330" lon="30.0913250">
<ele>68.397118</ele>
<time>2026-04-23T00:15:19.002Z</time>
</trkpt>
<trkpt lat="59.0864810" lon="30.0910450">
<ele>65.257683</ele>
<time>2026-04-23T00:16:05.002Z</time>
</trkpt>
<trkpt lat="59.0865140" lon="30.0908060">
<ele>66.233040</ele>
<time>2026-04-23T00:18:36.003Z</time>
</trkpt>
<trkpt lat="59.0865740" lon="30.0906550">
<ele>65.684402</ele>
<time>2026-04-23T00:18:45.999Z</time>
</trkpt>
<trkpt lat="59.0868660" lon="30.0904010">
<ele>67.025520</ele>
<time>2026-04-23T00:19:19.998Z</time>
</trkpt>
<trkpt lat="59.0869140" lon="30.0902150">
<ele>68.854317</ele>
<time>2026-04-23T00:19:33.001Z</time>
</trkpt>
<trkpt lat="59.0869580" lon="30.0895720">
<ele>74.127357</ele>
<time>2026-04-23T00:22:32.998Z</time>
</trkpt>
<trkpt lat="59.0872530" lon="30.0890060">
<ele>69.829681</ele>
<time>2026-04-23T00:23:22.998Z</time>
</trkpt>
<trkpt lat="59.0873180" lon="30.0887960">
<ele>70.073517</ele>
<time>2026-04-23T00:23:37.997Z</time>
</trkpt>
<trkpt lat="59.0874240" lon="30.0885980">
<ele>69.860161</ele>
<time>2026-04-23T00:23:55.000Z</time>
</trkpt>
<trkpt lat="59.0874380" lon="30.0882660">
<ele>71.506081</ele>
<time>2026-04-23T00:24:23.003Z</time>
</trkpt>
<trkpt lat="59.0874190" lon="30.0882810">
<ele>68.488556</ele>
<time>2026-04-23T00:25:01.001Z</time>
</trkpt>
<trkpt lat="59.0875160" lon="30.0877480">
<ele>69.098160</ele>
<time>2026-04-23T00:26:50.004Z</time>
</trkpt>
<trkpt lat="59.0875870" lon="30.0869910">
<ele>63.550800</ele>
<time>2026-04-23T00:27:39.001Z</time>
</trkpt>
<trkpt lat="59.0875440" lon="30.0869290">
<ele>62.575439</ele>
<time>2026-04-23T00:28:03.003Z</time>
</trkpt>
<trkpt lat="59.0875540" lon="30.0868510">
<ele>59.923683</ele>
<time>2026-04-23T00:29:36.997Z</time>
</trkpt>
<trkpt lat="59.0876400" lon="30.0869590">
<ele>61.325760</ele>
<time>2026-04-23T00:29:59.997Z</time>
</trkpt>
<trkpt lat="59.0880150" lon="30.0871560">
<ele>64.343285</ele>
<time>2026-04-23T00:30:32.000Z</time>
</trkpt>
<trkpt lat="59.0884810" lon="30.0875580">
<ele>65.897758</ele>
<time>2026-04-23T00:31:20.004Z</time>
</trkpt>
<trkpt lat="59.0887300" lon="30.0876130">
<ele>66.598801</ele>
<time>2026-04-23T00:35:04.004Z</time>
</trkpt>
<trkpt lat="59.0891200" lon="30.0878280">
<ele>68.854317</ele>
<time>2026-04-23T00:35:47.999Z</time>
</trkpt>
<trkpt lat="59.0894060" lon="30.0878850">
<ele>70.073517</ele>
<time>2026-04-23T00:36:25.998Z</time>
</trkpt>
<trkpt lat="59.0894410" lon="30.0878250">
<ele>68.793358</ele>
<time>2026-04-23T00:37:10.001Z</time>
</trkpt>
<trkpt lat="59.0894010" lon="30.0878460">
<ele>70.530716</ele>
<time>2026-04-23T00:39:19.999Z</time>
</trkpt>
<trkpt lat="59.0894450" lon="30.0878820">
<ele>71.384155</ele>
<time>2026-04-23T00:40:12.996Z</time>
</trkpt>
<trkpt lat="59.0894140" lon="30.0879120">
<ele>74.127357</ele>
<time>2026-04-23T00:40:43.003Z</time>
</trkpt>
<trkpt lat="59.0894650" lon="30.0878600">
<ele>75.834244</ele>
<time>2026-04-23T00:41:07.999Z</time>
</trkpt>
<trkpt lat="59.0897490" lon="30.0878750">
<ele>73.944481</ele>
<time>2026-04-23T00:41:38.999Z</time>
</trkpt>
<trkpt lat="59.0901820" lon="30.0879940">
<ele>72.115685</ele>
<time>2026-04-23T00:42:27.996Z</time>
</trkpt>
<trkpt lat="59.0901160" lon="30.0879460">
<ele>67.574158</ele>
<time>2026-04-23T00:43:44.003Z</time>
</trkpt>
<trkpt lat="59.0902340" lon="30.0879190">
<ele>70.926956</ele>
<time>2026-04-23T00:45:13.997Z</time>
</trkpt>
<trkpt lat="59.0903460" lon="30.0880420">
<ele>69.768715</ele>
<time>2026-04-23T00:45:28.996Z</time>
</trkpt>
<trkpt lat="59.0906840" lon="30.0882530">
<ele>70.622162</ele>
<time>2026-04-23T00:46:06.001Z</time>
</trkpt>
<trkpt lat="59.0909500" lon="30.0885430">
<ele>72.207115</ele>
<time>2026-04-23T00:46:42.997Z</time>
</trkpt>
<trkpt lat="59.0910620" lon="30.0885110">
<ele>69.799202</ele>
<time>2026-04-23T00:47:05.004Z</time>
</trkpt>
<trkpt lat="59.0910300" lon="30.0884690">
<ele>72.115685</ele>
<time>2026-04-23T00:47:35.002Z</time>
</trkpt>
<trkpt lat="59.0910420" lon="30.0883970">
<ele>75.255119</ele>
<time>2026-04-23T00:48:05.000Z</time>
</trkpt>
<trkpt lat="59.0911030" lon="30.0885910">
<ele>75.133202</ele>
<time>2026-04-23T00:49:03.000Z</time>
</trkpt>
<trkpt lat="59.0912170" lon="30.0886870">
<ele>73.822556</ele>
<time>2026-04-23T00:49:19.001Z</time>
</trkpt>
<trkpt lat="59.0912230" lon="30.0889030">
<ele>73.030083</ele>
<time>2026-04-23T00:49:31.002Z</time>
</trkpt>
<trkpt lat="59.0911640" lon="30.0894770">
<ele>73.731117</ele>
<time>2026-04-23T00:50:02.996Z</time>
</trkpt>
<trkpt lat="59.0911610" lon="30.0901300">
<ele>71.749916</ele>
<time>2026-04-23T00:50:51.000Z</time>
</trkpt>
<trkpt lat="59.0911950" lon="30.0901740">
<ele>71.475601</ele>
<time>2026-04-23T00:52:16.000Z</time>
</trkpt>
<trkpt lat="59.0910860" lon="30.0904630">
<ele>71.627998</ele>
<time>2026-04-23T00:52:51.001Z</time>
</trkpt>
<trkpt lat="59.0911740" lon="30.0906480">
<ele>72.054718</ele>
<time>2026-04-23T00:53:07.996Z</time>
</trkpt>
<trkpt lat="59.0912790" lon="30.0906610">
<ele>70.134483</ele>
<time>2026-04-23T00:54:36.996Z</time>
</trkpt>
<trkpt lat="59.0913490" lon="30.0907200">
<ele>70.591682</ele>
<time>2026-04-23T00:55:22.002Z</time>
</trkpt>
<trkpt lat="59.0914760" lon="30.0906280">
<ele>70.134483</ele>
<time>2026-04-23T00:55:39.999Z</time>
</trkpt>
<trkpt lat="59.0915420" lon="30.0904370">
<ele>69.433441</ele>
<time>2026-04-23T00:55:54.998Z</time>
</trkpt>
<trkpt lat="59.0916040" lon="30.0904990">
<ele>73.517761</ele>
<time>2026-04-23T00:56:09.997Z</time>
</trkpt>
<trkpt lat="59.0917520" lon="30.0905250">
<ele>70.347839</ele>
<time>2026-04-23T00:56:28.997Z</time>
</trkpt>
<trkpt lat="59.0918260" lon="30.0905960">
<ele>76.108559</ele>
<time>2026-04-23T00:57:41.996Z</time>
</trkpt>
<trkpt lat="59.0918440" lon="30.0908250">
<ele>75.864716</ele>
<time>2026-04-23T00:58:20.997Z</time>
</trkpt>
<trkpt lat="59.0918720" lon="30.0907790">
<ele>78.394562</ele>
<time>2026-04-23T00:58:48.999Z</time>
</trkpt>
<trkpt lat="59.0918900" lon="30.0908600">
<ele>82.448402</ele>
<time>2026-04-23T00:59:21.002Z</time>
</trkpt>
<trkpt lat="59.0918540" lon="30.0908960">
<ele>81.777840</ele>
<time>2026-04-23T00:59:56.003Z</time>
</trkpt>
<trkpt lat="59.0918760" lon="30.0911440">
<ele>80.497681</ele>
<time>2026-04-23T01:00:15.002Z</time>
</trkpt>
<trkpt lat="59.0918620" lon="30.0913610">
<ele>73.487282</ele>
<time>2026-04-23T01:00:38.002Z</time>
</trkpt>
<trkpt lat="59.0918180" lon="30.0913970">
<ele>73.670158</ele>
<time>2026-04-23T01:01:06.997Z</time>
</trkpt>
<trkpt lat="59.0918230" lon="30.0915140">
<ele>74.035919</ele>
<time>2026-04-23T01:01:33.997Z</time>
</trkpt>
<trkpt lat="59.0921030" lon="30.0914180">
<ele>71.170799</ele>
<time>2026-04-23T01:02:38.003Z</time>
</trkpt>
<trkpt lat="59.0922390" lon="30.0914750">
<ele>71.902321</ele>
<time>2026-04-23T01:03:09.996Z</time>
</trkpt>
<trkpt lat="59.0925420" lon="30.0918070">
<ele>60.502800</ele>
<time>2026-04-23T01:03:47.002Z</time>
</trkpt>
<trkpt lat="59.0926230" lon="30.0919870">
<ele>62.118240</ele>
<time>2026-04-23T01:04:03.996Z</time>
</trkpt>
<trkpt lat="59.0929390" lon="30.0923510">
<ele>64.922401</ele>
<time>2026-04-23T01:07:21.999Z</time>
</trkpt>
<trkpt lat="59.0930190" lon="30.0926030">
<ele>63.459358</ele>
<time>2026-04-23T01:07:43.997Z</time>
</trkpt>
<trkpt lat="59.0932620" lon="30.0930090">
<ele>61.112400</ele>
<time>2026-04-23T01:09:03.001Z</time>
</trkpt>
<trkpt lat="59.0934930" lon="30.0930330">
<ele>65.074799</ele>
<time>2026-04-23T01:10:01.001Z</time>
</trkpt>
<trkpt lat="59.0935170" lon="30.0929770">
<ele>71.567039</ele>
<time>2026-04-23T01:11:04.004Z</time>
</trkpt>
<trkpt lat="59.0938020" lon="30.0934560">
<ele>71.963280</ele>
<time>2026-04-23T01:12:37.999Z</time>
</trkpt>
<trkpt lat="59.0940950" lon="30.0934690">
<ele>67.421761</ele>
<time>2026-04-23T01:13:39.999Z</time>
</trkpt>
<trkpt lat="59.0942390" lon="30.0935120">
<ele>69.921120</ele>
<time>2026-04-23T01:14:09.997Z</time>
</trkpt>
<trkpt lat="59.0943580" lon="30.0936440">
<ele>71.932800</ele>
<time>2026-04-23T01:14:56.999Z</time>
</trkpt>
<trkpt lat="59.0943450" lon="30.0935310">
<ele>72.389999</ele>
<time>2026-04-23T01:15:27.999Z</time>
</trkpt>
<trkpt lat="59.0943850" lon="30.0936340">
<ele>72.969116</ele>
<time>2026-04-23T01:15:59.000Z</time>
</trkpt>
<trkpt lat="59.0943770" lon="30.0936950">
<ele>77.480156</ele>
<time>2026-04-23T01:16:24.997Z</time>
</trkpt>
<trkpt lat="59.0944720" lon="30.0938090">
<ele>78.089767</ele>
<time>2026-04-23T01:16:47.004Z</time>
</trkpt>
<trkpt lat="59.0946020" lon="30.0938520">
<ele>77.053444</ele>
<time>2026-04-23T01:17:06.996Z</time>
</trkpt>
<trkpt lat="59.0947270" lon="30.0941500">
<ele>76.260956</ele>
<time>2026-04-23T01:17:45.004Z</time>
</trkpt>
<trkpt lat="59.0948130" lon="30.0941890">
<ele>76.413361</ele>
<time>2026-04-23T01:18:03.001Z</time>
</trkpt>
<trkpt lat="59.0949050" lon="30.0941420">
<ele>74.615044</ele>
<time>2026-04-23T01:18:20.998Z</time>
</trkpt>
<trkpt lat="59.0951700" lon="30.0945030">
<ele>70.195442</ele>
<time>2026-04-23T01:19:18.998Z</time>
</trkpt>
<trkpt lat="59.0951870" lon="30.0944700">
<ele>69.829681</ele>
<time>2026-04-23T01:19:44.996Z</time>
</trkpt>
<trkpt lat="59.0951810" lon="30.0945820">
<ele>79.126083</ele>
<time>2026-04-23T01:20:42.996Z</time>
</trkpt>
<trkpt lat="59.0953030" lon="30.0948030">
<ele>79.065117</ele>
<time>2026-04-23T01:21:24.002Z</time>
</trkpt>
<trkpt lat="59.0954110" lon="30.0948950">
<ele>77.906883</ele>
<time>2026-04-23T01:21:44.004Z</time>
</trkpt>
<trkpt lat="59.0956390" lon="30.0947630">
<ele>69.463921</ele>
<time>2026-04-23T01:22:19.998Z</time>
</trkpt>
<trkpt lat="59.0957590" lon="30.0948710">
<ele>69.006721</ele>
<time>2026-04-23T01:22:39.999Z</time>
</trkpt>
<trkpt lat="59.0957100" lon="30.0950410">
<ele>67.056000</ele>
<time>2026-04-23T01:23:29.999Z</time>
</trkpt>
<trkpt lat="59.0960540" lon="30.0949990">
<ele>67.513199</ele>
<time>2026-04-23T01:25:57.000Z</time>
</trkpt>
<trkpt lat="59.0960270" lon="30.0950080">
<ele>67.787521</ele>
<time>2026-04-23T01:26:28.000Z</time>
</trkpt>
<trkpt lat="59.0960100" lon="30.0951430">
<ele>66.507362</ele>
<time>2026-04-23T01:27:00.003Z</time>
</trkpt>
<trkpt lat="59.0960920" lon="30.0952460">
<ele>66.903603</ele>
<time>2026-04-23T01:27:19.996Z</time>
</trkpt>
<trkpt lat="59.0960900" lon="30.0954740">
<ele>69.921120</ele>
<time>2026-04-23T01:28:24.001Z</time>
</trkpt>
<trkpt lat="59.0960910" lon="30.0951590">
<ele>70.408798</ele>
<time>2026-04-23T01:28:48.003Z</time>
</trkpt>
<trkpt lat="59.0962000" lon="30.0948980">
<ele>66.415916</ele>
<time>2026-04-23T01:29:07.996Z</time>
</trkpt>
<trkpt lat="59.0963600" lon="30.0946500">
<ele>63.611759</ele>
<time>2026-04-23T01:29:47.999Z</time>
</trkpt>
<trkpt lat="59.0964220" lon="30.0945100">
<ele>61.935360</ele>
<time>2026-04-23T01:30:08.001Z</time>
</trkpt>
<trkpt lat="59.0964190" lon="30.0943710">
<ele>60.655201</ele>
<time>2026-04-23T01:30:25.004Z</time>
</trkpt>
<trkpt lat="59.0965640" lon="30.0944910">
<ele>61.935360</ele>
<time>2026-04-23T01:31:07.003Z</time>
</trkpt>
<trkpt lat="59.0966980" lon="30.0947630">
<ele>65.227203</ele>
<time>2026-04-23T01:31:48.000Z</time>
</trkpt>
<trkpt lat="59.0968110" lon="30.0946420">
<ele>63.306957</ele>
<time>2026-04-23T01:33:36.000Z</time>
</trkpt>
<trkpt lat="59.0968190" lon="30.0944720">
<ele>61.386719</ele>
<time>2026-04-23T01:34:40.999Z</time>
</trkpt>
<trkpt lat="59.0968500" lon="30.0944200">
<ele>65.227203</ele>
<time>2026-04-23T01:35:37.003Z</time>
</trkpt>
<trkpt lat="59.0969300" lon="30.0943550">
<ele>65.714882</ele>
<time>2026-04-23T01:36:23.003Z</time>
</trkpt>
<trkpt lat="59.0970340" lon="30.0943650">
<ele>68.366638</ele>
<time>2026-04-23T01:36:49.000Z</time>
</trkpt>
<trkpt lat="59.0970970" lon="30.0943010">
<ele>69.982079</ele>
<time>2026-04-23T01:37:18.998Z</time>
</trkpt>
<trkpt lat="59.0971740" lon="30.0941340">
<ele>69.372482</ele>
<time>2026-04-23T01:37:37.004Z</time>
</trkpt>
<trkpt lat="59.0971280" lon="30.0931170">
<ele>60.959999</ele>
<time>2026-04-23T01:38:45.001Z</time>
</trkpt>
<trkpt lat="59.0970650" lon="30.0929020">
<ele>55.290718</ele>
<time>2026-04-23T01:39:29.998Z</time>
</trkpt>
<trkpt lat="59.0970050" lon="30.0928430">
<ele>57.302399</ele>
<time>2026-04-23T01:39:48.997Z</time>
</trkpt>
<trkpt lat="59.0970210" lon="30.0926760">
<ele>58.003441</ele>
<time>2026-04-23T01:40:07.003Z</time>
</trkpt>
<trkpt lat="59.0970710" lon="30.0925890">
<ele>65.775841</ele>
<time>2026-04-23T01:42:07.004Z</time>
</trkpt>
<trkpt lat="59.0970540" lon="30.0926820">
<ele>66.934082</ele>
<time>2026-04-23T01:43:11.001Z</time>
</trkpt>
<trkpt lat="59.0971070" lon="30.0928500">
<ele>65.714882</ele>
<time>2026-04-23T01:43:32.998Z</time>
</trkpt>
<trkpt lat="59.0971590" lon="30.0928410">
<ele>65.257683</ele>
<time>2026-04-23T01:43:51.004Z</time>
</trkpt>
<trkpt lat="59.0971880" lon="30.0919680">
<ele>60.929520</ele>
<time>2026-04-23T01:45:01.999Z</time>
</trkpt>
<trkpt lat="59.0971050" lon="30.0917240">
<ele>61.264801</ele>
<time>2026-04-23T01:45:49.000Z</time>
</trkpt>
<trkpt lat="59.0970970" lon="30.0913790">
<ele>59.405518</ele>
<time>2026-04-23T01:46:32.002Z</time>
</trkpt>
<trkpt lat="59.0971430" lon="30.0911400">
<ele>55.625999</ele>
<time>2026-04-23T01:48:17.997Z</time>
</trkpt>
<trkpt lat="59.0973490" lon="30.0912450">
<ele>50.200558</ele>
<time>2026-04-23T01:49:02.001Z</time>
</trkpt>
<trkpt lat="59.0973980" lon="30.0913640">
<ele>49.316643</ele>
<time>2026-04-23T01:49:15.997Z</time>
</trkpt>
<trkpt lat="59.0974490" lon="30.0913260">
<ele>53.736240</ele>
<time>2026-04-23T01:49:39.999Z</time>
</trkpt>
<trkpt lat="59.0975110" lon="30.0911580">
<ele>50.627281</ele>
<time>2026-04-23T01:49:57.003Z</time>
</trkpt>
<trkpt lat="59.0975480" lon="30.0908640">
<ele>45.841919</ele>
<time>2026-04-23T01:50:17.998Z</time>
</trkpt>
<trkpt lat="59.0975450" lon="30.0900360">
<ele>45.323757</ele>
<time>2026-04-23T01:51:14.003Z</time>
</trkpt>
<trkpt lat="59.0974510" lon="30.0895520">
<ele>53.736240</ele>
<time>2026-04-23T01:53:29.996Z</time>
</trkpt>
<trkpt lat="59.0974510" lon="30.0893830">
<ele>54.162960</ele>
<time>2026-04-23T01:54:50.996Z</time>
</trkpt>
<trkpt lat="59.0974950" lon="30.0892760">
<ele>54.162960</ele>
<time>2026-04-23T01:55:48.003Z</time>
</trkpt>
<trkpt lat="59.0973500" lon="30.0889310">
<ele>51.846481</ele>
<time>2026-04-23T01:56:58.004Z</time>
</trkpt>
<trkpt lat="59.0973180" lon="30.0884870">
<ele>55.107841</ele>
<time>2026-04-23T01:57:48.004Z</time>
</trkpt>
<trkpt lat="59.0973250" lon="30.0885540">
<ele>55.930801</ele>
<time>2026-04-23T01:58:49.996Z</time>
</trkpt>
<trkpt lat="59.0973930" lon="30.0885280">
<ele>60.015118</ele>
<time>2026-04-23T01:59:50.001Z</time>
</trkpt>
<trkpt lat="59.0974010" lon="30.0885900">
<ele>62.118240</ele>
<time>2026-04-23T02:00:53.997Z</time>
</trkpt>
<trkpt lat="59.0972930" lon="30.0886040">
<ele>64.769997</ele>
<time>2026-04-23T02:02:18.004Z</time>
</trkpt>
<trkpt lat="59.0973640" lon="30.0884990">
<ele>62.026798</ele>
<time>2026-04-23T02:03:04.997Z</time>
</trkpt>
<trkpt lat="59.0973480" lon="30.0885620">
<ele>61.630558</ele>
<time>2026-04-23T02:03:27.996Z</time>
</trkpt>
<trkpt lat="59.0972280" lon="30.0878840">
<ele>60.106560</ele>
<time>2026-04-23T02:04:52.003Z</time>
</trkpt>
<trkpt lat="59.0972320" lon="30.0877900">
<ele>61.935360</ele>
<time>2026-04-23T02:05:26.002Z</time>
</trkpt>
<trkpt lat="59.0972600" lon="30.0877790">
<ele>61.935360</ele>
<time>2026-04-23T02:05:57.002Z</time>
</trkpt>
<trkpt lat="59.0972370" lon="30.0878350">
<ele>67.878960</ele>
<time>2026-04-23T02:06:17.004Z</time>
</trkpt>
<trkpt lat="59.0973230" lon="30.0865300">
<ele>63.367920</ele>
<time>2026-04-23T02:08:35.002Z</time>
</trkpt>
<trkpt lat="59.0973670" lon="30.0864040">
<ele>62.575439</ele>
<time>2026-04-23T02:08:55.997Z</time>
</trkpt>
<trkpt lat="59.0974090" lon="30.0859940">
<ele>63.337440</ele>
<time>2026-04-23T02:09:37.002Z</time>
</trkpt>
<trkpt lat="59.0975400" lon="30.0853850">
<ele>61.325760</ele>
<time>2026-04-23T02:10:38.001Z</time>
</trkpt>
<trkpt lat="59.0975440" lon="30.0852590">
<ele>59.283600</ele>
<time>2026-04-23T02:11:07.999Z</time>
</trkpt>
<trkpt lat="59.0975110" lon="30.0852540">
<ele>61.752483</ele>
<time>2026-04-23T02:13:29.997Z</time>
</trkpt>
<trkpt lat="59.0975490" lon="30.0852670">
<ele>66.629280</ele>
<time>2026-04-23T02:14:27.004Z</time>
</trkpt>
<trkpt lat="59.0972120" lon="30.0846870">
<ele>64.221359</ele>
<time>2026-04-23T02:17:19.000Z</time>
</trkpt>
<trkpt lat="59.0971270" lon="30.0840120">
<ele>63.489841</ele>
<time>2026-04-23T02:18:06.002Z</time>
</trkpt>
<trkpt lat="59.0971130" lon="30.0834030">
<ele>66.873116</ele>
<time>2026-04-23T02:20:51.000Z</time>
</trkpt>
<trkpt lat="59.0971840" lon="30.0828340">
<ele>63.886082</ele>
<time>2026-04-23T02:21:46.996Z</time>
</trkpt>
<trkpt lat="59.0972560" lon="30.0825510">
<ele>62.209682</ele>
<time>2026-04-23T02:22:20.001Z</time>
</trkpt>
<trkpt lat="59.0973030" lon="30.0822050">
<ele>59.314083</ele>
<time>2026-04-23T02:22:44.996Z</time>
</trkpt>
<trkpt lat="59.0972850" lon="30.0821100">
<ele>60.441841</ele>
<time>2026-04-23T02:23:07.996Z</time>
</trkpt>
<trkpt lat="59.0973970" lon="30.0818280">
<ele>68.762878</ele>
<time>2026-04-23T02:25:26.996Z</time>
</trkpt>
<trkpt lat="59.0974610" lon="30.0817800">
<ele>66.507362</ele>
<time>2026-04-23T02:25:53.003Z</time>
</trkpt>
<trkpt lat="59.0976160" lon="30.0811770">
<ele>65.592957</ele>
<time>2026-04-23T02:27:05.000Z</time>
</trkpt>
<trkpt lat="59.0977610" lon="30.0808840">
<ele>63.306957</ele>
<time>2026-04-23T02:28:21.999Z</time>
</trkpt>
<trkpt lat="59.0978880" lon="30.0805040">
<ele>59.893200</ele>
<time>2026-04-23T02:29:05.001Z</time>
</trkpt>
<trkpt lat="59.0979850" lon="30.0803960">
<ele>63.154560</ele>
<time>2026-04-23T02:30:49.000Z</time>
</trkpt>
<trkpt lat="59.0982480" lon="30.0799300">
<ele>56.753757</ele>
<time>2026-04-23T02:31:51.001Z</time>
</trkpt>
<trkpt lat="59.0982800" lon="30.0796300">
<ele>57.759602</ele>
<time>2026-04-23T02:32:39.998Z</time>
</trkpt>
<trkpt lat="59.0986270" lon="30.0793460">
<ele>58.765442</ele>
<time>2026-04-23T02:34:03.996Z</time>
</trkpt>
<trkpt lat="59.0987570" lon="30.0791540">
<ele>63.855598</ele>
<time>2026-04-23T02:35:16.002Z</time>
</trkpt>
<trkpt lat="59.0987220" lon="30.0792190">
<ele>65.562485</ele>
<time>2026-04-23T02:35:47.003Z</time>
</trkpt>
<trkpt lat="59.0988090" lon="30.0792790">
<ele>64.434715</ele>
<time>2026-04-23T02:36:09.000Z</time>
</trkpt>
<trkpt lat="59.0989610" lon="30.0791790">
<ele>60.167519</ele>
<time>2026-04-23T02:36:30.004Z</time>
</trkpt>
<trkpt lat="59.0990950" lon="30.0788720">
<ele>57.271919</ele>
<time>2026-04-23T02:36:52.001Z</time>
</trkpt>
<trkpt lat="59.0994280" lon="30.0785870">
<ele>59.009281</ele>
<time>2026-04-23T02:37:55.998Z</time>
</trkpt>
<trkpt lat="59.0994180" lon="30.0786850">
<ele>68.427597</ele>
<time>2026-04-23T02:38:56.003Z</time>
</trkpt>
<trkpt lat="59.0994190" lon="30.0786170">
<ele>68.854317</ele>
<time>2026-04-23T02:39:58.997Z</time>
</trkpt>
<trkpt lat="59.0995370" lon="30.0785730">
<ele>66.446404</ele>
<time>2026-04-23T02:40:13.002Z</time>
</trkpt>
<trkpt lat="59.0999770" lon="30.0781620">
<ele>62.544960</ele>
<time>2026-04-23T02:41:20.999Z</time>
</trkpt>
<trkpt lat="59.1001630" lon="30.0777250">
<ele>59.679840</ele>
<time>2026-04-23T02:42:02.998Z</time>
</trkpt>
<trkpt lat="59.1002910" lon="30.0775750">
<ele>55.839359</ele>
<time>2026-04-23T02:42:21.997Z</time>
</trkpt>
<trkpt lat="59.1005260" lon="30.0776250">
<ele>62.057281</ele>
<time>2026-04-23T02:44:19.000Z</time>
</trkpt>
<trkpt lat="59.1005520" lon="30.0777490">
<ele>64.800484</ele>
<time>2026-04-23T02:44:43.996Z</time>
</trkpt>
<trkpt lat="59.1009270" lon="30.0781320">
<ele>57.515759</ele>
<time>2026-04-23T02:45:26.997Z</time>
</trkpt>
<trkpt lat="59.1012470" lon="30.0782720">
<ele>49.682400</ele>
<time>2026-04-23T02:46:05.998Z</time>
</trkpt>
<trkpt lat="59.1015280" lon="30.0783610">
<ele>67.665604</ele>
<time>2026-04-23T02:47:11.999Z</time>
</trkpt>
<trkpt lat="59.1015100" lon="30.0783570">
<ele>67.696083</ele>
<time>2026-04-23T02:47:36.001Z</time>
</trkpt>
<trkpt lat="59.1016390" lon="30.0783280">
<ele>67.696083</ele>
<time>2026-04-23T02:48:01.999Z</time>
</trkpt>
<trkpt lat="59.1018400" lon="30.0784680">
<ele>60.838081</ele>
<time>2026-04-23T02:48:23.996Z</time>
</trkpt>
<trkpt lat="59.1025100" lon="30.0785960">
<ele>61.051441</ele>
<time>2026-04-23T02:50:11.003Z</time>
</trkpt>
<trkpt lat="59.1028970" lon="30.0788060">
<ele>64.495682</ele>
<time>2026-04-23T02:51:44.004Z</time>
</trkpt>
<trkpt lat="59.1031800" lon="30.0787630">
<ele>66.568321</ele>
<time>2026-04-23T02:52:35.999Z</time>
</trkpt>
<trkpt lat="59.1034400" lon="30.0789050">
<ele>66.537842</ele>
<time>2026-04-23T02:53:01.003Z</time>
</trkpt>
<trkpt lat="59.1035810" lon="30.0788900">
<ele>72.877686</ele>
<time>2026-04-23T02:54:19.999Z</time>
</trkpt>
<trkpt lat="59.1036200" lon="30.0788250">
<ele>79.949036</ele>
<time>2026-04-23T02:54:52.001Z</time>
</trkpt>
<trkpt lat="59.1044060" lon="30.0788450">
<ele>66.934082</ele>
<time>2026-04-23T02:56:33.003Z</time>
</trkpt>
<trkpt lat="59.1045400" lon="30.0787020">
<ele>73.548241</ele>
<time>2026-04-23T02:58:32.002Z</time>
</trkpt>
<trkpt lat="59.1048080" lon="30.0786850">
<ele>71.109840</ele>
<time>2026-04-23T02:59:04.998Z</time>
</trkpt>
<trkpt lat="59.1050790" lon="30.0784140">
<ele>63.428883</ele>
<time>2026-04-23T02:59:38.996Z</time>
</trkpt>
<trkpt lat="59.1051780" lon="30.0783970">
<ele>62.636398</ele>
<time>2026-04-23T02:59:54.004Z</time>
</trkpt>
<trkpt lat="59.1053590" lon="30.0785260">
<ele>63.185040</ele>
<time>2026-04-23T03:00:28.002Z</time>
</trkpt>
<trkpt lat="59.1054430" lon="30.0785300">
<ele>64.099442</ele>
<time>2026-04-23T03:01:22.996Z</time>
</trkpt>
<trkpt lat="59.1057170" lon="30.0783410">
<ele>67.421761</ele>
<time>2026-04-23T03:02:44.998Z</time>
</trkpt>
<trkpt lat="59.1058160" lon="30.0781160">
<ele>63.489841</ele>
<time>2026-04-23T03:03:03.004Z</time>
</trkpt>
<trkpt lat="59.1060730" lon="30.0779340">
<ele>55.869843</ele>
<time>2026-04-23T03:03:41.996Z</time>
</trkpt>
<trkpt lat="59.1061740" lon="30.0779260">
<ele>64.404243</ele>
<time>2026-04-23T03:04:34.000Z</time>
</trkpt>
<trkpt lat="59.1061420" lon="30.0779160">
<ele>68.092316</ele>
<time>2026-04-23T03:05:02.003Z</time>
</trkpt>
<trkpt lat="59.1062160" lon="30.0780040">
<ele>71.780403</ele>
<time>2026-04-23T03:05:29.003Z</time>
</trkpt>
<trkpt lat="59.1064620" lon="30.0780440">
<ele>67.116959</ele>
<time>2026-04-23T03:06:54.996Z</time>
</trkpt>
<trkpt lat="59.1064560" lon="30.0781760">
<ele>66.812157</ele>
<time>2026-04-23T03:07:22.999Z</time>
</trkpt>
<trkpt lat="59.1065880" lon="30.0791320">
<ele>63.794640</ele>
<time>2026-04-23T03:08:23.997Z</time>
</trkpt>
<trkpt lat="59.1066400" lon="30.0793620">
<ele>66.995041</ele>
<time>2026-04-23T03:08:37.000Z</time>
</trkpt>
<trkpt lat="59.1067610" lon="30.0795330">
<ele>68.640961</ele>
<time>2026-04-23T03:08:50.997Z</time>
</trkpt>
<trkpt lat="59.1070820" lon="30.0797800">
<ele>70.652641</ele>
<time>2026-04-23T03:09:33.998Z</time>
</trkpt>
</trkseg>
</trk>
<trk>
 <name>20260423_Lisa62</name>
 <desc>20260423_Lisa62</desc>
<trkseg>
<trkpt lat="59.1025260" lon="29.9784500">
<ele>277.794739</ele>
<time>2026-04-22T18:52:56.004Z</time>
</trkpt>
<trkpt lat="59.1023700" lon="29.9783760">
<ele>273.618958</ele>
<time>2026-04-22T18:53:49.001Z</time>
</trkpt>
<trkpt lat="59.1023530" lon="29.9784200">
<ele>270.540466</ele>
<time>2026-04-22T18:54:16.001Z</time>
</trkpt>
<trkpt lat="59.1022490" lon="29.9783980">
<ele>253.715530</ele>
<time>2026-04-22T18:57:03.004Z</time>
</trkpt>
<trkpt lat="59.1022680" lon="29.9782200">
<ele>252.191528</ele>
<time>2026-04-22T18:57:14.003Z</time>
</trkpt>
<trkpt lat="59.1023400" lon="29.9781650">
<ele>251.886734</ele>
<time>2026-04-22T18:57:17.001Z</time>
</trkpt>
<trkpt lat="59.1029120" lon="29.9783130">
<ele>249.905533</ele>
<time>2026-04-22T18:57:34.004Z</time>
</trkpt>
<trkpt lat="59.1041080" lon="29.9787470">
<ele>247.528076</ele>
<time>2026-04-22T18:57:57.997Z</time>
</trkpt>
<trkpt lat="59.1048460" lon="29.9789410">
<ele>245.973602</ele>
<time>2026-04-22T18:58:20.004Z</time>
</trkpt>
<trkpt lat="59.1047890" lon="29.9789580">
<ele>240.548157</ele>
<time>2026-04-22T18:59:13.001Z</time>
</trkpt>
<trkpt lat="59.1049070" lon="29.9790420">
<ele>234.269272</ele>
<time>2026-04-22T19:00:07.001Z</time>
</trkpt>
<trkpt lat="59.1048370" lon="29.9789600">
<ele>233.994965</ele>
<time>2026-04-22T19:00:12.997Z</time>
</trkpt>
<trkpt lat="59.1032640" lon="29.9785050">
<ele>232.592865</ele>
<time>2026-04-22T19:00:35.997Z</time>
</trkpt>
<trkpt lat="59.1026770" lon="29.9782480">
<ele>231.282242</ele>
<time>2026-04-22T19:00:46.002Z</time>
</trkpt>
<trkpt lat="59.1022160" lon="29.9781680">
<ele>230.337357</ele>
<time>2026-04-22T19:00:54.996Z</time>
</trkpt>
<trkpt lat="59.1021410" lon="29.9783350">
<ele>228.356171</ele>
<time>2026-04-22T19:01:26.999Z</time>
</trkpt>
<trkpt lat="59.1020510" lon="29.9783190">
<ele>225.186234</ele>
<time>2026-04-22T19:02:07.002Z</time>
</trkpt>
<trkpt lat="59.1020890" lon="29.9783880">
<ele>218.785431</ele>
<time>2026-04-22T19:03:18.999Z</time>
</trkpt>
<trkpt lat="59.1020920" lon="29.9782810">
<ele>215.798401</ele>
<time>2026-04-22T19:03:50.000Z</time>
</trkpt>
<trkpt lat="59.1021240" lon="29.9783550">
<ele>212.750397</ele>
<time>2026-04-22T19:04:30.003Z</time>
</trkpt>
<trkpt lat="59.1021670" lon="29.9782650">
<ele>208.147934</ele>
<time>2026-04-22T19:05:05.004Z</time>
</trkpt>
<trkpt lat="59.1023340" lon="29.9782270">
<ele>207.751678</ele>
<time>2026-04-22T19:05:12.002Z</time>
</trkpt>
<trkpt lat="59.1027770" lon="29.9782930">
<ele>206.288635</ele>
<time>2026-04-22T19:05:25.999Z</time>
</trkpt>
<trkpt lat="59.1047550" lon="29.9789330">
<ele>203.819763</ele>
<time>2026-04-22T19:05:59.004Z</time>
</trkpt>
<trkpt lat="59.1048530" lon="29.9792990">
<ele>203.423523</ele>
<time>2026-04-22T19:06:06.002Z</time>
</trkpt>
<trkpt lat="59.1047980" lon="29.9801120">
<ele>203.027267</ele>
<time>2026-04-22T19:06:17.001Z</time>
</trkpt>
<trkpt lat="59.1044670" lon="29.9830230">
<ele>198.577194</ele>
<time>2026-04-22T19:07:04.002Z</time>
</trkpt>
<trkpt lat="59.1056260" lon="29.9844370">
<ele>197.053207</ele>
<time>2026-04-22T19:07:35.003Z</time>
</trkpt>
<trkpt lat="59.1065870" lon="29.9854880">
<ele>192.785995</ele>
<time>2026-04-22T19:08:10.003Z</time>
</trkpt>
<trkpt lat="59.1073310" lon="29.9864150">
<ele>188.915039</ele>
<time>2026-04-22T19:08:36.001Z</time>
</trkpt>
<trkpt lat="59.1072440" lon="29.9863150">
<ele>187.726334</ele>
<time>2026-04-22T19:08:52.002Z</time>
</trkpt>
<trkpt lat="59.1072040" lon="29.9863230">
<ele>186.994797</ele>
<time>2026-04-22T19:09:05.999Z</time>
</trkpt>
<trkpt lat="59.1073340" lon="29.9864650">
<ele>181.051193</ele>
<time>2026-04-22T19:10:39.000Z</time>
</trkpt>
<trkpt lat="59.1073010" lon="29.9864940">
<ele>176.966873</ele>
<time>2026-04-22T19:11:43.999Z</time>
</trkpt>
<trkpt lat="59.1072990" lon="29.9864370">
<ele>170.748962</ele>
<time>2026-04-22T19:13:23.998Z</time>
</trkpt>
<trkpt lat="59.1073230" lon="29.9864630">
<ele>163.555679</ele>
<time>2026-04-22T19:16:01.004Z</time>
</trkpt>
<trkpt lat="59.1072660" lon="29.9863940">
<ele>160.568634</ele>
<time>2026-04-22T19:16:53.000Z</time>
</trkpt>
<trkpt lat="59.1073170" lon="29.9864140">
<ele>158.892242</ele>
<time>2026-04-22T19:17:20.000Z</time>
</trkpt>
<trkpt lat="59.1072390" lon="29.9864040">
<ele>157.429199</ele>
<time>2026-04-22T19:17:56.003Z</time>
</trkpt>
<trkpt lat="59.1072780" lon="29.9863850">
<ele>155.112717</ele>
<time>2026-04-22T19:18:43.004Z</time>
</trkpt>
<trkpt lat="59.1072950" lon="29.9864800">
<ele>153.680161</ele>
<time>2026-04-22T19:19:10.004Z</time>
</trkpt>
<trkpt lat="59.1072750" lon="29.9864740">
<ele>152.765762</ele>
<time>2026-04-22T19:19:40.002Z</time>
</trkpt>
<trkpt lat="59.1072980" lon="29.9864410">
<ele>145.481033</ele>
<time>2026-04-22T19:21:13.997Z</time>
</trkpt>
<trkpt lat="59.1072790" lon="29.9864190">
<ele>145.846802</ele>
<time>2026-04-22T19:22:11.004Z</time>
</trkpt>
<trkpt lat="59.1073240" lon="29.9864270">
<ele>144.597122</ele>
<time>2026-04-22T19:23:04.001Z</time>
</trkpt>
<trkpt lat="59.1072980" lon="29.9864720">
<ele>142.036804</ele>
<time>2026-04-22T19:23:59.997Z</time>
</trkpt>
<trkpt lat="59.1074900" lon="29.9866620">
<ele>139.903198</ele>
<time>2026-04-22T19:24:53.004Z</time>
</trkpt>
<trkpt lat="59.1074590" lon="29.9867370">
<ele>136.794235</ele>
<time>2026-04-22T19:26:07.999Z</time>
</trkpt>
<trkpt lat="59.1074950" lon="29.9866820">
<ele>135.239761</ele>
<time>2026-04-22T19:26:37.997Z</time>
</trkpt>
<trkpt lat="59.1074490" lon="29.9865240">
<ele>134.691116</ele>
<time>2026-04-22T19:27:05.999Z</time>
</trkpt>
<trkpt lat="59.1073600" lon="29.9864610">
<ele>134.843521</ele>
<time>2026-04-22T19:27:27.996Z</time>
</trkpt>
<trkpt lat="59.1073210" lon="29.9863070">
<ele>132.100311</ele>
<time>2026-04-22T19:28:25.003Z</time>
</trkpt>
<trkpt lat="59.1072710" lon="29.9863940">
<ele>129.539993</ele>
<time>2026-04-22T19:29:23.997Z</time>
</trkpt>
<trkpt lat="59.1074750" lon="29.9866670">
<ele>126.857765</ele>
<time>2026-04-22T19:30:10.999Z</time>
</trkpt>
<trkpt lat="59.1075060" lon="29.9868170">
<ele>125.821434</ele>
<time>2026-04-22T19:31:19.998Z</time>
</trkpt>
<trkpt lat="59.1074880" lon="29.9869610">
<ele>123.504967</ele>
<time>2026-04-22T19:31:45.002Z</time>
</trkpt>
<trkpt lat="59.1072320" lon="29.9877120">
<ele>121.218964</ele>
<time>2026-04-22T19:32:52.999Z</time>
</trkpt>
<trkpt lat="59.1071680" lon="29.9880640">
<ele>119.694962</ele>
<time>2026-04-22T19:33:54.999Z</time>
</trkpt>
<trkpt lat="59.1071310" lon="29.9879740">
<ele>119.024399</ele>
<time>2026-04-22T19:34:12.003Z</time>
</trkpt>
<trkpt lat="59.1071540" lon="29.9880970">
<ele>117.348000</ele>
<time>2026-04-22T19:34:28.998Z</time>
</trkpt>
<trkpt lat="59.1070660" lon="29.9888710">
<ele>116.189766</ele>
<time>2026-04-22T19:35:33.996Z</time>
</trkpt>
<trkpt lat="59.1070690" lon="29.9895720">
<ele>114.208565</ele>
<time>2026-04-22T19:36:36.999Z</time>
</trkpt>
<trkpt lat="59.1070170" lon="29.9897980">
<ele>111.495834</ele>
<time>2026-04-22T19:38:23.004Z</time>
</trkpt>
<trkpt lat="59.1070650" lon="29.9898200">
<ele>109.575600</ele>
<time>2026-04-22T19:39:10.999Z</time>
</trkpt>
<trkpt lat="59.1070320" lon="29.9896920">
<ele>109.118401</ele>
<time>2026-04-22T19:39:43.001Z</time>
</trkpt>
<trkpt lat="59.1070700" lon="29.9896340">
<ele>107.411522</ele>
<time>2026-04-22T19:40:11.997Z</time>
</trkpt>
<trkpt lat="59.1070320" lon="29.9897100">
<ele>107.868721</ele>
<time>2026-04-22T19:40:37.001Z</time>
</trkpt>
<trkpt lat="59.1070340" lon="29.9901080">
<ele>106.771439</ele>
<time>2026-04-22T19:41:23.001Z</time>
</trkpt>
<trkpt lat="59.1069270" lon="29.9905440">
<ele>103.723434</ele>
<time>2026-04-22T19:42:34.998Z</time>
</trkpt>
<trkpt lat="59.1070170" lon="29.9902060">
<ele>103.296715</ele>
<time>2026-04-22T19:43:16.997Z</time>
</trkpt>
<trkpt lat="59.1070670" lon="29.9902350">
<ele>102.290878</ele>
<time>2026-04-22T19:43:38.001Z</time>
</trkpt>
<trkpt lat="59.1071510" lon="29.9903090">
<ele>101.467918</ele>
<time>2026-04-22T19:44:01.000Z</time>
</trkpt>
<trkpt lat="59.1073410" lon="29.9908210">
<ele>98.297997</ele>
<time>2026-04-22T19:45:39.004Z</time>
</trkpt>
<trkpt lat="59.1072590" lon="29.9912960">
<ele>96.743515</ele>
<time>2026-04-22T19:46:57.999Z</time>
</trkpt>
<trkpt lat="59.1072810" lon="29.9916710">
<ele>95.676720</ele>
<time>2026-04-22T19:47:30.002Z</time>
</trkpt>
<trkpt lat="59.1072450" lon="29.9922640">
<ele>93.786964</ele>
<time>2026-04-22T19:48:25.998Z</time>
</trkpt>
<trkpt lat="59.1070960" lon="29.9920230">
<ele>91.714317</ele>
<time>2026-04-22T19:49:26.003Z</time>
</trkpt>
<trkpt lat="59.1070680" lon="29.9920970">
<ele>93.756485</ele>
<time>2026-04-22T19:49:45.002Z</time>
</trkpt>
<trkpt lat="59.1070110" lon="29.9920210">
<ele>91.043762</ele>
<time>2026-04-22T19:50:02.999Z</time>
</trkpt>
<trkpt lat="59.1069220" lon="29.9916710">
<ele>90.007439</ele>
<time>2026-04-22T19:52:08.003Z</time>
</trkpt>
<trkpt lat="59.1068980" lon="29.9917250">
<ele>89.702637</ele>
<time>2026-04-22T19:52:35.003Z</time>
</trkpt>
<trkpt lat="59.1069220" lon="29.9916930">
<ele>90.708481</ele>
<time>2026-04-22T19:53:24.000Z</time>
</trkpt>
<trkpt lat="59.1069960" lon="29.9917840">
<ele>88.331039</ele>
<time>2026-04-22T19:54:46.996Z</time>
</trkpt>
<trkpt lat="59.1070030" lon="29.9916050">
<ele>87.934799</ele>
<time>2026-04-22T19:55:29.004Z</time>
</trkpt>
<trkpt lat="59.1070430" lon="29.9916500">
<ele>87.751915</ele>
<time>2026-04-22T19:56:23.997Z</time>
</trkpt>
<trkpt lat="59.1070300" lon="29.9917760">
<ele>86.715599</ele>
<time>2026-04-22T19:56:43.999Z</time>
</trkpt>
<trkpt lat="59.1070800" lon="29.9918150">
<ele>86.807037</ele>
<time>2026-04-22T19:57:33.998Z</time>
</trkpt>
<trkpt lat="59.1071400" lon="29.9917870">
<ele>86.989922</ele>
<time>2026-04-22T19:57:52.004Z</time>
</trkpt>
<trkpt lat="59.1071490" lon="29.9916330">
<ele>85.374481</ele>
<time>2026-04-22T19:58:30.003Z</time>
</trkpt>
<trkpt lat="59.1071170" lon="29.9916080">
<ele>85.039200</ele>
<time>2026-04-22T19:58:56.001Z</time>
</trkpt>
<trkpt lat="59.1071740" lon="29.9917560">
<ele>85.831680</ele>
<time>2026-04-22T19:59:43.996Z</time>
</trkpt>
<trkpt lat="59.1072470" lon="29.9918160">
<ele>85.222084</ele>
<time>2026-04-22T19:59:59.997Z</time>
</trkpt>
<trkpt lat="59.1072680" lon="29.9919700">
<ele>84.368637</ele>
<time>2026-04-22T20:00:15.998Z</time>
</trkpt>
<trkpt lat="59.1072320" lon="29.9920540">
<ele>84.947762</ele>
<time>2026-04-22T20:00:54.999Z</time>
</trkpt>
<trkpt lat="59.1072230" lon="29.9920190">
<ele>83.484718</ele>
<time>2026-04-22T20:02:22.004Z</time>
</trkpt>
<trkpt lat="59.1072410" lon="29.9920050">
<ele>82.387436</ele>
<time>2026-04-22T20:03:43.004Z</time>
</trkpt>
<trkpt lat="59.1072100" lon="29.9921100">
<ele>80.863434</ele>
<time>2026-04-22T20:05:42.003Z</time>
</trkpt>
<trkpt lat="59.1072510" lon="29.9920710">
<ele>80.192879</ele>
<time>2026-04-22T20:08:32.004Z</time>
</trkpt>
<trkpt lat="59.1072310" lon="29.9920640">
<ele>80.314796</ele>
<time>2026-04-22T20:09:32.000Z</time>
</trkpt>
<trkpt lat="59.1072490" lon="29.9920740">
<ele>79.979515</ele>
<time>2026-04-22T20:10:39.003Z</time>
</trkpt>
<trkpt lat="59.1072710" lon="29.9918500">
<ele>79.705200</ele>
<time>2026-04-22T20:12:32.999Z</time>
</trkpt>
<trkpt lat="59.1073380" lon="29.9907010">
<ele>79.857597</ele>
<time>2026-04-22T20:13:57.999Z</time>
</trkpt>
<trkpt lat="59.1074370" lon="29.9902820">
<ele>80.101433</ele>
<time>2026-04-22T20:14:38.003Z</time>
</trkpt>
<trkpt lat="59.1075050" lon="29.9902610">
<ele>79.339439</ele>
<time>2026-04-22T20:15:41.999Z</time>
</trkpt>
<trkpt lat="59.1074730" lon="29.9902640">
<ele>78.882233</ele>
<time>2026-04-22T20:16:12.999Z</time>
</trkpt>
<trkpt lat="59.1074560" lon="29.9901780">
<ele>79.674721</ele>
<time>2026-04-22T20:17:24.003Z</time>
</trkpt>
<trkpt lat="59.1075680" lon="29.9898280">
<ele>78.943199</ele>
<time>2026-04-22T20:18:33.002Z</time>
</trkpt>
<trkpt lat="59.1075970" lon="29.9899490">
<ele>79.126083</ele>
<time>2026-04-22T20:18:53.004Z</time>
</trkpt>
<trkpt lat="59.1075690" lon="29.9900410">
<ele>78.699364</ele>
<time>2026-04-22T20:19:19.001Z</time>
</trkpt>
<trkpt lat="59.1075730" lon="29.9894250">
<ele>76.352402</ele>
<time>2026-04-22T20:23:38.003Z</time>
</trkpt>
<trkpt lat="59.1076020" lon="29.9894640">
<ele>75.407516</ele>
<time>2026-04-22T20:26:46.000Z</time>
</trkpt>
<trkpt lat="59.1076070" lon="29.9893110">
<ele>74.005440</ele>
<time>2026-04-22T20:29:37.997Z</time>
</trkpt>
<trkpt lat="59.1076050" lon="29.9893830">
<ele>73.609200</ele>
<time>2026-04-22T20:30:35.997Z</time>
</trkpt>
<trkpt lat="59.1076160" lon="29.9892750">
<ele>73.487282</ele>
<time>2026-04-22T20:31:33.004Z</time>
</trkpt>
<trkpt lat="59.1076880" lon="29.9891200">
<ele>73.212959</ele>
<time>2026-04-22T20:31:48.996Z</time>
</trkpt>
<trkpt lat="59.1078090" lon="29.9891440">
<ele>72.755760</ele>
<time>2026-04-22T20:32:34.002Z</time>
</trkpt>
<trkpt lat="59.1078170" lon="29.9890720">
<ele>73.121521</ele>
<time>2026-04-22T20:33:23.000Z</time>
</trkpt>
<trkpt lat="59.1077800" lon="29.9890650">
<ele>72.908157</ele>
<time>2026-04-22T20:33:56.998Z</time>
</trkpt>
<trkpt lat="59.1076120" lon="29.9892990">
<ele>72.847198</ele>
<time>2026-04-22T20:34:44.000Z</time>
</trkpt>
<trkpt lat="59.1076130" lon="29.9894730">
<ele>72.725281</ele>
<time>2026-04-22T20:35:05.997Z</time>
</trkpt>
<trkpt lat="59.1075830" lon="29.9895360">
<ele>72.146156</ele>
<time>2026-04-22T20:35:15.000Z</time>
</trkpt>
<trkpt lat="59.1075230" lon="29.9900290">
<ele>72.054718</ele>
<time>2026-04-22T20:35:55.997Z</time>
</trkpt>
<trkpt lat="59.1073700" lon="29.9905760">
<ele>72.146156</ele>
<time>2026-04-22T20:36:37.996Z</time>
</trkpt>
<trkpt lat="59.1073110" lon="29.9909220">
<ele>71.902321</ele>
<time>2026-04-22T20:36:57.997Z</time>
</trkpt>
<trkpt lat="59.1072620" lon="29.9913310">
<ele>71.719444</ele>
<time>2026-04-22T20:37:19.001Z</time>
</trkpt>
<trkpt lat="59.1072790" lon="29.9916950">
<ele>71.323196</ele>
<time>2026-04-22T20:37:39.003Z</time>
</trkpt>
<trkpt lat="59.1072290" lon="29.9920640">
<ele>71.201279</ele>
<time>2026-04-22T20:38:02.003Z</time>
</trkpt>
<trkpt lat="59.1072650" lon="29.9919860">
<ele>70.622162</ele>
<time>2026-04-22T20:40:29.004Z</time>
</trkpt>
<trkpt lat="59.1072640" lon="29.9919520">
<ele>70.805038</ele>
<time>2026-04-22T20:41:04.004Z</time>
</trkpt>
<trkpt lat="59.1071530" lon="29.9920640">
<ele>70.439285</ele>
<time>2026-04-22T20:41:24.999Z</time>
</trkpt>
<trkpt lat="59.1070810" lon="29.9922460">
<ele>70.561203</ele>
<time>2026-04-22T20:41:42.003Z</time>
</trkpt>
<trkpt lat="59.1071260" lon="29.9921140">
<ele>70.347839</ele>
<time>2026-04-22T20:42:09.003Z</time>
</trkpt>
<trkpt lat="59.1070300" lon="29.9919680">
<ele>70.713600</ele>
<time>2026-04-22T20:42:25.998Z</time>
</trkpt>
<trkpt lat="59.1069590" lon="29.9917680">
<ele>70.439285</ele>
<time>2026-04-22T20:43:02.001Z</time>
</trkpt>
<trkpt lat="59.1069370" lon="29.9915900">
<ele>70.043037</ele>
<time>2026-04-22T20:43:52.000Z</time>
</trkpt>
<trkpt lat="59.1068780" lon="29.9917380">
<ele>70.957443</ele>
<time>2026-04-22T20:44:29.999Z</time>
</trkpt>
<trkpt lat="59.1066850" lon="29.9914830">
<ele>70.683121</ele>
<time>2026-04-22T20:46:24.004Z</time>
</trkpt>
<trkpt lat="59.1067090" lon="29.9913330">
<ele>71.292717</ele>
<time>2026-04-22T20:47:11.999Z</time>
</trkpt>
<trkpt lat="59.1068570" lon="29.9913100">
<ele>70.865997</ele>
<time>2026-04-22T20:48:50.003Z</time>
</trkpt>
<trkpt lat="59.1068400" lon="29.9912070">
<ele>70.622162</ele>
<time>2026-04-22T20:49:10.004Z</time>
</trkpt>
<trkpt lat="59.1067890" lon="29.9913080">
<ele>71.506081</ele>
<time>2026-04-22T20:50:19.997Z</time>
</trkpt>
<trkpt lat="59.1067330" lon="29.9911890">
<ele>71.963280</ele>
<time>2026-04-22T20:50:45.001Z</time>
</trkpt>
<trkpt lat="59.1067240" lon="29.9909750">
<ele>71.262238</ele>
<time>2026-04-22T20:51:33.998Z</time>
</trkpt>
<trkpt lat="59.1067640" lon="29.9912490">
<ele>71.445122</ele>
<time>2026-04-22T20:52:37.001Z</time>
</trkpt>
<trkpt lat="59.1069070" lon="29.9911780">
<ele>71.658485</ele>
<time>2026-04-22T20:53:17.998Z</time>
</trkpt>
<trkpt lat="59.1069630" lon="29.9908920">
<ele>71.109840</ele>
<time>2026-04-22T20:55:12.003Z</time>
</trkpt>
<trkpt lat="59.1069100" lon="29.9906970">
<ele>70.805038</ele>
<time>2026-04-22T20:56:02.996Z</time>
</trkpt>
<trkpt lat="59.1068230" lon="29.9906560">
<ele>71.048882</ele>
<time>2026-04-22T20:56:52.002Z</time>
</trkpt>
<trkpt lat="59.1067920" lon="29.9907350">
<ele>70.378319</ele>
<time>2026-04-22T20:57:39.997Z</time>
</trkpt>
<trkpt lat="59.1069510" lon="29.9905400">
<ele>69.951599</ele>
<time>2026-04-22T20:58:43.000Z</time>
</trkpt>
<trkpt lat="59.1069950" lon="29.9903220">
<ele>69.707756</ele>
<time>2026-04-22T20:59:07.996Z</time>
</trkpt>
<trkpt lat="59.1069640" lon="29.9904350">
<ele>69.342003</ele>
<time>2026-04-22T20:59:34.002Z</time>
</trkpt>
<trkpt lat="59.1068770" lon="29.9905730">
<ele>69.189598</ele>
<time>2026-04-22T20:59:54.997Z</time>
</trkpt>
<trkpt lat="59.1067100" lon="29.9906730">
<ele>68.640961</ele>
<time>2026-04-22T21:00:33.998Z</time>
</trkpt>
<trkpt lat="59.1066670" lon="29.9905620">
<ele>68.153282</ele>
<time>2026-04-22T21:00:56.998Z</time>
</trkpt>
<trkpt lat="59.1066700" lon="29.9904070">
<ele>68.793358</ele>
<time>2026-04-22T21:01:18.002Z</time>
</trkpt>
<trkpt lat="59.1066190" lon="29.9902210">
<ele>67.665604</ele>
<time>2026-04-22T21:01:49.002Z</time>
</trkpt>
<trkpt lat="59.1066390" lon="29.9902520">
<ele>67.878960</ele>
<time>2026-04-22T21:02:05.004Z</time>
</trkpt>
<trkpt lat="59.1064510" lon="29.9903660">
<ele>67.482719</ele>
<time>2026-04-22T21:03:00.999Z</time>
</trkpt>
<trkpt lat="59.1064570" lon="29.9901930">
<ele>68.061844</ele>
<time>2026-04-22T21:03:53.997Z</time>
</trkpt>
<trkpt lat="59.1063580" lon="29.9902650">
<ele>67.208397</ele>
<time>2026-04-22T21:04:40.999Z</time>
</trkpt>
<trkpt lat="59.1064300" lon="29.9902700">
<ele>67.116959</ele>
<time>2026-04-22T21:05:10.003Z</time>
</trkpt>
<trkpt lat="59.1063150" lon="29.9903010">
<ele>67.543678</ele>
<time>2026-04-22T21:05:59.001Z</time>
</trkpt>
<trkpt lat="59.1062800" lon="29.9903920">
<ele>67.574158</ele>
<time>2026-04-22T21:06:19.996Z</time>
</trkpt>
<trkpt lat="59.1062860" lon="29.9905610">
<ele>68.580002</ele>
<time>2026-04-22T21:07:03.999Z</time>
</trkpt>
<trkpt lat="59.1062140" lon="29.9904820">
<ele>68.458084</ele>
<time>2026-04-22T21:07:52.997Z</time>
</trkpt>
<trkpt lat="59.1062150" lon="29.9905880">
<ele>66.842644</ele>
<time>2026-04-22T21:08:15.003Z</time>
</trkpt>
<trkpt lat="59.1061900" lon="29.9905990">
<ele>67.909439</ele>
<time>2026-04-22T21:08:46.003Z</time>
</trkpt>
<trkpt lat="59.1062050" lon="29.9906480">
<ele>68.884804</ele>
<time>2026-04-22T21:08:51.999Z</time>
</trkpt>
<trkpt lat="59.1061720" lon="29.9906480">
<ele>69.098160</ele>
<time>2026-04-22T21:09:18.999Z</time>
</trkpt>
<trkpt lat="59.1062100" lon="29.9906210">
<ele>68.915283</ele>
<time>2026-04-22T21:09:47.002Z</time>
</trkpt>
<trkpt lat="59.1061740" lon="29.9905900">
<ele>69.463921</ele>
<time>2026-04-22T21:10:18.002Z</time>
</trkpt>
<trkpt lat="59.1062130" lon="29.9905760">
<ele>68.519043</ele>
<time>2026-04-22T21:10:53.996Z</time>
</trkpt>
<trkpt lat="59.1062240" lon="29.9906400">
<ele>68.610481</ele>
<time>2026-04-22T21:11:01.003Z</time>
</trkpt>
<trkpt lat="59.1060720" lon="29.9904370">
<ele>69.616318</ele>
<time>2026-04-22T21:11:55.997Z</time>
</trkpt>
<trkpt lat="59.1060130" lon="29.9904390">
<ele>70.195442</ele>
<time>2026-04-22T21:12:22.003Z</time>
</trkpt>
<trkpt lat="59.1059850" lon="29.9906080">
<ele>70.012558</ele>
<time>2026-04-22T21:12:49.997Z</time>
</trkpt>
<trkpt lat="59.1058900" lon="29.9906710">
<ele>70.347839</ele>
<time>2026-04-22T21:13:16.997Z</time>
</trkpt>
<trkpt lat="59.1058700" lon="29.9909210">
<ele>70.256401</ele>
<time>2026-04-22T21:14:05.001Z</time>
</trkpt>
<trkpt lat="59.1058100" lon="29.9910620">
<ele>70.378319</ele>
<time>2026-04-22T21:15:14.000Z</time>
</trkpt>
<trkpt lat="59.1057660" lon="29.9909850">
<ele>70.439285</ele>
<time>2026-04-22T21:15:35.997Z</time>
</trkpt>
<trkpt lat="59.1056490" lon="29.9910170">
<ele>71.384155</ele>
<time>2026-04-22T21:16:25.997Z</time>
</trkpt>
<trkpt lat="59.1055650" lon="29.9908080">
<ele>71.567039</ele>
<time>2026-04-22T21:17:38.996Z</time>
</trkpt>
<trkpt lat="59.1053290" lon="29.9908300">
<ele>70.835518</ele>
<time>2026-04-22T21:19:02.001Z</time>
</trkpt>
<trkpt lat="59.1052280" lon="29.9909670">
<ele>70.805038</ele>
<time>2026-04-22T21:19:52.000Z</time>
</trkpt>
<trkpt lat="59.1052770" lon="29.9910390">
<ele>71.780403</ele>
<time>2026-04-22T21:20:20.996Z</time>
</trkpt>
<trkpt lat="59.1052810" lon="29.9909760">
<ele>71.231758</ele>
<time>2026-04-22T21:21:02.002Z</time>
</trkpt>
<trkpt lat="59.1052990" lon="29.9910400">
<ele>71.810883</ele>
<time>2026-04-22T21:21:26.004Z</time>
</trkpt>
<trkpt lat="59.1052840" lon="29.9910880">
<ele>72.207115</ele>
<time>2026-04-22T21:21:54.999Z</time>
</trkpt>
<trkpt lat="59.1052580" lon="29.9910350">
<ele>72.054718</ele>
<time>2026-04-22T21:22:28.004Z</time>
</trkpt>
<trkpt lat="59.1052460" lon="29.9911070">
<ele>72.085197</ele>
<time>2026-04-22T21:23:01.000Z</time>
</trkpt>
<trkpt lat="59.1053470" lon="29.9912030">
<ele>71.475601</ele>
<time>2026-04-22T21:24:16.998Z</time>
</trkpt>
<trkpt lat="59.1053700" lon="29.9912860">
<ele>71.414642</ele>
<time>2026-04-22T21:24:39.004Z</time>
</trkpt>
<trkpt lat="59.1053440" lon="29.9914200">
<ele>71.231758</ele>
<time>2026-04-22T21:25:26.999Z</time>
</trkpt>
<trkpt lat="59.1054190" lon="29.9916950">
<ele>70.012558</ele>
<time>2026-04-22T21:26:45.001Z</time>
</trkpt>
<trkpt lat="59.1052940" lon="29.9917760">
<ele>70.043037</ele>
<time>2026-04-22T21:27:55.002Z</time>
</trkpt>
<trkpt lat="59.1052650" lon="29.9918810">
<ele>69.921120</ele>
<time>2026-04-22T21:28:15.997Z</time>
</trkpt>
<trkpt lat="59.1052770" lon="29.9920560">
<ele>69.738243</ele>
<time>2026-04-22T21:29:29.999Z</time>
</trkpt>
<trkpt lat="59.1052110" lon="29.9923620">
<ele>69.372482</ele>
<time>2026-04-22T21:30:46.999Z</time>
</trkpt>
<trkpt lat="59.1052810" lon="29.9924350">
<ele>70.286880</ele>
<time>2026-04-22T21:31:08.003Z</time>
</trkpt>
<trkpt lat="59.1052190" lon="29.9925290">
<ele>69.738243</ele>
<time>2026-04-22T21:31:28.004Z</time>
</trkpt>
<trkpt lat="59.1052810" lon="29.9926300">
<ele>69.890640</ele>
<time>2026-04-22T21:31:50.002Z</time>
</trkpt>
<trkpt lat="59.1052720" lon="29.9927190">
<ele>69.707756</ele>
<time>2026-04-22T21:32:18.004Z</time>
</trkpt>
<trkpt lat="59.1052080" lon="29.9927020">
<ele>69.524879</ele>
<time>2026-04-22T21:34:32.002Z</time>
</trkpt>
<trkpt lat="59.1052680" lon="29.9927240">
<ele>69.067680</ele>
<time>2026-04-22T21:36:00.000Z</time>
</trkpt>
<trkpt lat="59.1052120" lon="29.9927080">
<ele>69.890640</ele>
<time>2026-04-22T21:36:28.002Z</time>
</trkpt>
<trkpt lat="59.1052510" lon="29.9927580">
<ele>68.884804</ele>
<time>2026-04-22T21:36:55.002Z</time>
</trkpt>
<trkpt lat="59.1052510" lon="29.9926450">
<ele>68.427597</ele>
<time>2026-04-22T21:38:20.996Z</time>
</trkpt>
<trkpt lat="59.1052770" lon="29.9927120">
<ele>68.701920</ele>
<time>2026-04-22T21:39:22.003Z</time>
</trkpt>
<trkpt lat="59.1052380" lon="29.9928640">
<ele>68.092316</ele>
<time>2026-04-22T21:40:20.004Z</time>
</trkpt>
<trkpt lat="59.1052850" lon="29.9929150">
<ele>68.305679</ele>
<time>2026-04-22T21:40:36.998Z</time>
</trkpt>
<trkpt lat="59.1053540" lon="29.9931570">
<ele>68.671440</ele>
<time>2026-04-22T21:41:17.002Z</time>
</trkpt>
<trkpt lat="59.1054670" lon="29.9933020">
<ele>67.939919</ele>
<time>2026-04-22T21:42:00.996Z</time>
</trkpt>
<trkpt lat="59.1054710" lon="29.9932580">
<ele>68.762878</ele>
<time>2026-04-22T21:42:20.998Z</time>
</trkpt>
<trkpt lat="59.1054450" lon="29.9933440">
<ele>68.122803</ele>
<time>2026-04-22T21:42:42.002Z</time>
</trkpt>
<trkpt lat="59.1054930" lon="29.9934210">
<ele>68.244720</ele>
<time>2026-04-22T21:43:01.001Z</time>
</trkpt>
<trkpt lat="59.1054140" lon="29.9936140">
<ele>67.848480</ele>
<time>2026-04-22T21:43:44.996Z</time>
</trkpt>
<trkpt lat="59.1054590" lon="29.9936140">
<ele>68.183762</ele>
<time>2026-04-22T21:45:00.000Z</time>
</trkpt>
<trkpt lat="59.1055120" lon="29.9937110">
<ele>67.787521</ele>
<time>2026-04-22T21:45:24.002Z</time>
</trkpt>
<trkpt lat="59.1055260" lon="29.9938650">
<ele>69.433441</ele>
<time>2026-04-22T21:45:48.004Z</time>
</trkpt>
<trkpt lat="59.1054920" lon="29.9939470">
<ele>67.970398</ele>
<time>2026-04-22T21:46:11.997Z</time>
</trkpt>
<trkpt lat="59.1055590" lon="29.9940630">
<ele>68.366638</ele>
<time>2026-04-22T21:46:27.998Z</time>
</trkpt>
<trkpt lat="59.1055380" lon="29.9941470">
<ele>68.580002</ele>
<time>2026-04-22T21:46:45.002Z</time>
</trkpt>
<trkpt lat="59.1055580" lon="29.9942040">
<ele>68.122803</ele>
<time>2026-04-22T21:47:17.998Z</time>
</trkpt>
<trkpt lat="59.1056580" lon="29.9942170">
<ele>67.513199</ele>
<time>2026-04-22T21:48:33.002Z</time>
</trkpt>
<trkpt lat="59.1056490" lon="29.9942740">
<ele>67.604637</ele>
<time>2026-04-22T21:49:01.998Z</time>
</trkpt>
<trkpt lat="59.1056800" lon="29.9942370">
<ele>68.762878</ele>
<time>2026-04-22T21:50:40.001Z</time>
</trkpt>
<trkpt lat="59.1056350" lon="29.9942520">
<ele>68.945763</ele>
<time>2026-04-22T21:51:31.003Z</time>
</trkpt>
<trkpt lat="59.1056120" lon="29.9945410">
<ele>67.665604</ele>
<time>2026-04-22T21:52:29.004Z</time>
</trkpt>
<trkpt lat="59.1056410" lon="29.9944920">
<ele>67.208397</ele>
<time>2026-04-22T21:52:41.998Z</time>
</trkpt>
<trkpt lat="59.1056360" lon="29.9944150">
<ele>68.397118</ele>
<time>2026-04-22T21:53:16.999Z</time>
</trkpt>
<trkpt lat="59.1057970" lon="29.9943030">
<ele>68.031357</ele>
<time>2026-04-22T21:54:43.001Z</time>
</trkpt>
<trkpt lat="59.1058370" lon="29.9945440">
<ele>67.665604</ele>
<time>2026-04-22T21:55:29.001Z</time>
</trkpt>
<trkpt lat="59.1057480" lon="29.9946560">
<ele>68.122803</ele>
<time>2026-04-22T21:56:42.000Z</time>
</trkpt>
<trkpt lat="59.1057960" lon="29.9945720">
<ele>68.122803</ele>
<time>2026-04-22T21:57:06.002Z</time>
</trkpt>
<trkpt lat="59.1060220" lon="29.9944180">
<ele>67.787521</ele>
<time>2026-04-22T21:58:15.001Z</time>
</trkpt>
<trkpt lat="59.1060070" lon="29.9945260">
<ele>67.787521</ele>
<time>2026-04-22T21:58:40.999Z</time>
</trkpt>
<trkpt lat="59.1059550" lon="29.9945240">
<ele>68.366638</ele>
<time>2026-04-22T22:00:03.001Z</time>
</trkpt>
<trkpt lat="59.1060900" lon="29.9940440">
<ele>69.494400</ele>
<time>2026-04-22T22:01:16.000Z</time>
</trkpt>
<trkpt lat="59.1061310" lon="29.9941050">
<ele>68.762878</ele>
<time>2026-04-22T22:02:19.997Z</time>
</trkpt>
<trkpt lat="59.1059050" lon="29.9944790">
<ele>69.494400</ele>
<time>2026-04-22T22:04:57.996Z</time>
</trkpt>
<trkpt lat="59.1057850" lon="29.9948620">
<ele>69.616318</ele>
<time>2026-04-22T22:05:40.998Z</time>
</trkpt>
<trkpt lat="59.1057990" lon="29.9950090">
<ele>68.976242</ele>
<time>2026-04-22T22:06:03.004Z</time>
</trkpt>
<trkpt lat="59.1058520" lon="29.9950380">
<ele>68.823837</ele>
<time>2026-04-22T22:06:57.004Z</time>
</trkpt>
<trkpt lat="59.1058450" lon="29.9953180">
<ele>69.829681</ele>
<time>2026-04-22T22:07:39.996Z</time>
</trkpt>
<trkpt lat="59.1059100" lon="29.9953320">
<ele>68.976242</ele>
<time>2026-04-22T22:08:37.003Z</time>
</trkpt>
<trkpt lat="59.1059670" lon="29.9952140">
<ele>69.311516</ele>
<time>2026-04-22T22:10:02.997Z</time>
</trkpt>
<trkpt lat="59.1058830" lon="29.9953350">
<ele>68.945763</ele>
<time>2026-04-22T22:11:29.000Z</time>
</trkpt>
<trkpt lat="59.1059050" lon="29.9952190">
<ele>69.677284</ele>
<time>2026-04-22T22:13:03.003Z</time>
</trkpt>
<trkpt lat="59.1058480" lon="29.9952410">
<ele>69.189598</ele>
<time>2026-04-22T22:14:28.003Z</time>
</trkpt>
<trkpt lat="59.1058620" lon="29.9953050">
<ele>69.220085</ele>
<time>2026-04-22T22:15:25.001Z</time>
</trkpt>
<trkpt lat="59.1058800" lon="29.9952850">
<ele>69.524879</ele>
<time>2026-04-22T22:15:54.999Z</time>
</trkpt>
<trkpt lat="59.1057920" lon="29.9952370">
<ele>67.452240</ele>
<time>2026-04-22T22:17:20.000Z</time>
</trkpt>
<trkpt lat="59.1058140" lon="29.9952720">
<ele>69.738243</ele>
<time>2026-04-22T22:17:48.002Z</time>
</trkpt>
<trkpt lat="59.1057730" lon="29.9949210">
<ele>69.281044</ele>
<time>2026-04-22T22:18:54.003Z</time>
</trkpt>
<trkpt lat="59.1057810" lon="29.9944280">
<ele>68.122803</ele>
<time>2026-04-22T22:20:04.004Z</time>
</trkpt>
<trkpt lat="59.1057490" lon="29.9943470">
<ele>69.037201</ele>
<time>2026-04-22T22:20:31.004Z</time>
</trkpt>
<trkpt lat="59.1057510" lon="29.9941450">
<ele>69.463921</ele>
<time>2026-04-22T22:20:54.004Z</time>
</trkpt>
<trkpt lat="59.1057220" lon="29.9940070">
<ele>69.555359</ele>
<time>2026-04-22T22:21:12.001Z</time>
</trkpt>
<trkpt lat="59.1057790" lon="29.9937830">
<ele>68.762878</ele>
<time>2026-04-22T22:21:36.003Z</time>
</trkpt>
<trkpt lat="59.1057520" lon="29.9932640">
<ele>67.757042</ele>
<time>2026-04-22T22:23:24.003Z</time>
</trkpt>
<trkpt lat="59.1059670" lon="29.9929190">
<ele>67.269356</ele>
<time>2026-04-22T22:24:49.997Z</time>
</trkpt>
<trkpt lat="59.1061180" lon="29.9924080">
<ele>67.299843</ele>
<time>2026-04-22T22:25:39.003Z</time>
</trkpt>
<trkpt lat="59.1061660" lon="29.9921840">
<ele>66.781685</ele>
<time>2026-04-22T22:25:59.998Z</time>
</trkpt>
<trkpt lat="59.1061550" lon="29.9920940">
<ele>67.056000</ele>
<time>2026-04-22T22:26:25.996Z</time>
</trkpt>
<trkpt lat="59.1062370" lon="29.9918960">
<ele>66.050156</ele>
<time>2026-04-22T22:27:05.999Z</time>
</trkpt>
<trkpt lat="59.1063670" lon="29.9917450">
<ele>64.739517</ele>
<time>2026-04-22T22:27:55.999Z</time>
</trkpt>
<trkpt lat="59.1062630" lon="29.9911820">
<ele>62.727840</ele>
<time>2026-04-22T22:28:44.996Z</time>
</trkpt>
<trkpt lat="59.1064190" lon="29.9908090">
<ele>63.185040</ele>
<time>2026-04-22T22:29:30.002Z</time>
</trkpt>
<trkpt lat="59.1067530" lon="29.9906360">
<ele>62.849758</ele>
<time>2026-04-22T22:30:16.001Z</time>
</trkpt>
<trkpt lat="59.1068470" lon="29.9905330">
<ele>63.367920</ele>
<time>2026-04-22T22:30:39.001Z</time>
</trkpt>
<trkpt lat="59.1069910" lon="29.9901950">
<ele>65.196716</ele>
<time>2026-04-22T22:31:44.000Z</time>
</trkpt>
<trkpt lat="59.1070630" lon="29.9897770">
<ele>65.989197</ele>
<time>2026-04-22T22:32:31.001Z</time>
</trkpt>
<trkpt lat="59.1070830" lon="29.9895080">
<ele>66.172081</ele>
<time>2026-04-22T22:32:54.001Z</time>
</trkpt>
<trkpt lat="59.1070340" lon="29.9892030">
<ele>65.928238</ele>
<time>2026-04-22T22:33:14.003Z</time>
</trkpt>
<trkpt lat="59.1070320" lon="29.9884650">
<ele>67.787521</ele>
<time>2026-04-22T22:34:11.001Z</time>
</trkpt>
<trkpt lat="59.1071650" lon="29.9877120">
<ele>66.019684</ele>
<time>2026-04-22T22:35:29.003Z</time>
</trkpt>
<trkpt lat="59.1072800" lon="29.9875120">
<ele>65.227203</ele>
<time>2026-04-22T22:35:51.000Z</time>
</trkpt>
<trkpt lat="59.1074310" lon="29.9871400">
<ele>64.861443</ele>
<time>2026-04-22T22:36:15.002Z</time>
</trkpt>
<trkpt lat="59.1074330" lon="29.9866510">
<ele>64.739517</ele>
<time>2026-04-22T22:36:51.998Z</time>
</trkpt>
<trkpt lat="59.1073130" lon="29.9863860">
<ele>65.653915</ele>
<time>2026-04-22T22:37:39.000Z</time>
</trkpt>
<trkpt lat="59.1072810" lon="29.9864090">
<ele>65.410080</ele>
<time>2026-04-22T22:39:41.999Z</time>
</trkpt>
<trkpt lat="59.1072900" lon="29.9864890">
<ele>74.736961</ele>
<time>2026-04-22T22:41:11.000Z</time>
</trkpt>
<trkpt lat="59.1019250" lon="29.9782830">
<ele>76.657204</ele>
<time>2026-04-22T22:53:02.996Z</time>
</trkpt>
<trkpt lat="59.1020580" lon="29.9782540">
<ele>77.967842</ele>
<time>2026-04-22T22:54:04.997Z</time>
</trkpt>
<trkpt lat="59.1020380" lon="29.9782740">
<ele>78.242165</ele>
<time>2026-04-22T22:54:30.001Z</time>
</trkpt>
<trkpt lat="59.1021020" lon="29.9781910">
<ele>78.699364</ele>
<time>2026-04-22T22:55:21.003Z</time>
</trkpt>
<trkpt lat="59.1020620" lon="29.9781510">
<ele>79.065117</ele>
<time>2026-04-22T22:56:07.002Z</time>
</trkpt>
<trkpt lat="59.1021080" lon="29.9781490">
<ele>77.541115</ele>
<time>2026-04-22T22:58:02.001Z</time>
</trkpt>
<trkpt lat="59.1020810" lon="29.9779890">
<ele>77.632561</ele>
<time>2026-04-22T22:59:35.002Z</time>
</trkpt>
<trkpt lat="59.1020420" lon="29.9780120">
<ele>76.779121</ele>
<time>2026-04-22T23:01:39.996Z</time>
</trkpt>
<trkpt lat="59.1021170" lon="29.9780780">
<ele>76.078079</ele>
<time>2026-04-22T23:01:58.002Z</time>
</trkpt>
<trkpt lat="59.1027780" lon="29.9782440">
<ele>76.321915</ele>
<time>2026-04-22T23:02:56.996Z</time>
</trkpt>
<trkpt lat="59.1029400" lon="29.9783400">
<ele>76.230484</ele>
<time>2026-04-22T23:03:08.004Z</time>
</trkpt>
<trkpt lat="59.1036720" lon="29.9785860">
<ele>75.712318</ele>
<time>2026-04-22T23:03:39.004Z</time>
</trkpt>
<trkpt lat="59.1030040" lon="29.9783310">
<ele>76.047600</ele>
<time>2026-04-22T23:04:10.998Z</time>
</trkpt>
<trkpt lat="59.1030450" lon="29.9784120">
<ele>76.169518</ele>
<time>2026-04-22T23:04:14.998Z</time>
</trkpt>
<trkpt lat="59.1030450" lon="29.9785650">
<ele>75.773285</ele>
<time>2026-04-22T23:04:17.996Z</time>
</trkpt>
<trkpt lat="59.1029200" lon="29.9802180">
<ele>75.590401</ele>
<time>2026-04-22T23:04:45.998Z</time>
</trkpt>
<trkpt lat="59.1027430" lon="29.9818890">
<ele>75.712318</ele>
<time>2026-04-22T23:05:30.002Z</time>
</trkpt>
<trkpt lat="59.1026810" lon="29.9833470">
<ele>75.255119</ele>
<time>2026-04-22T23:05:50.997Z</time>
</trkpt>
<trkpt lat="59.1028050" lon="29.9834470">
<ele>75.529442</ele>
<time>2026-04-22T23:05:56.000Z</time>
</trkpt>
<trkpt lat="59.1035360" lon="29.9830540">
<ele>75.620880</ele>
<time>2026-04-22T23:06:17.997Z</time>
</trkpt>
<trkpt lat="59.1038140" lon="29.9829370">
<ele>76.504799</ele>
<time>2026-04-22T23:06:29.998Z</time>
</trkpt>
<trkpt lat="59.1041410" lon="29.9829010">
<ele>76.961998</ele>
<time>2026-04-22T23:06:43.001Z</time>
</trkpt>
<trkpt lat="59.1044230" lon="29.9831290">
<ele>76.443840</ele>
<time>2026-04-22T23:06:52.004Z</time>
</trkpt>
<trkpt lat="59.1049560" lon="29.9837140">
<ele>74.797920</ele>
<time>2026-04-22T23:07:04.999Z</time>
</trkpt>
<trkpt lat="59.1051860" lon="29.9840220">
<ele>76.139038</ele>
<time>2026-04-22T23:07:11.004Z</time>
</trkpt>
<trkpt lat="59.1065340" lon="29.9855460">
<ele>74.371201</ele>
<time>2026-04-22T23:07:50.998Z</time>
</trkpt>
<trkpt lat="59.1071940" lon="29.9863940">
<ele>71.048882</ele>
<time>2026-04-22T23:08:46.000Z</time>
</trkpt>
<trkpt lat="59.1073660" lon="29.9864940">
<ele>70.103996</ele>
<time>2026-04-22T23:09:36.000Z</time>
</trkpt>
<trkpt lat="59.1074740" lon="29.9866520">
<ele>70.134483</ele>
<time>2026-04-22T23:09:54.999Z</time>
</trkpt>
<trkpt lat="59.1074190" lon="29.9871040">
<ele>70.439285</ele>
<time>2026-04-22T23:10:35.003Z</time>
</trkpt>
<trkpt lat="59.1072060" lon="29.9878360">
<ele>70.530716</ele>
<time>2026-04-22T23:11:14.997Z</time>
</trkpt>
<trkpt lat="59.1070930" lon="29.9890750">
<ele>69.646797</ele>
<time>2026-04-22T23:12:20.998Z</time>
</trkpt>
<trkpt lat="59.1070350" lon="29.9893660">
<ele>69.890640</ele>
<time>2026-04-22T23:12:46.002Z</time>
</trkpt>
<trkpt lat="59.1070850" lon="29.9897430">
<ele>69.433441</ele>
<time>2026-04-22T23:13:29.997Z</time>
</trkpt>
<trkpt lat="59.1070640" lon="29.9898770">
<ele>69.128639</ele>
<time>2026-04-22T23:13:43.000Z</time>
</trkpt>
<trkpt lat="59.1070140" lon="29.9901130">
<ele>68.275200</ele>
<time>2026-04-22T23:14:07.002Z</time>
</trkpt>
<trkpt lat="59.1068700" lon="29.9903560">
<ele>68.640961</ele>
<time>2026-04-22T23:14:30.002Z</time>
</trkpt>
<trkpt lat="59.1064130" lon="29.9907910">
<ele>68.214241</ele>
<time>2026-04-22T23:15:10.999Z</time>
</trkpt>
<trkpt lat="59.1062590" lon="29.9910980">
<ele>67.391281</ele>
<time>2026-04-22T23:15:31.000Z</time>
</trkpt>
<trkpt lat="59.1062430" lon="29.9915580">
<ele>67.482719</ele>
<time>2026-04-22T23:15:51.002Z</time>
</trkpt>
<trkpt lat="59.1061190" lon="29.9923960">
<ele>67.452240</ele>
<time>2026-04-22T23:16:58.999Z</time>
</trkpt>
<trkpt lat="59.1060310" lon="29.9926510">
<ele>66.537842</ele>
<time>2026-04-22T23:17:20.003Z</time>
</trkpt>
<trkpt lat="59.1059030" lon="29.9928260">
<ele>66.720718</ele>
<time>2026-04-22T23:17:47.003Z</time>
</trkpt>
<trkpt lat="59.1058500" lon="29.9936240">
<ele>66.568321</ele>
<time>2026-04-22T23:18:27.999Z</time>
</trkpt>
<trkpt lat="59.1057520" lon="29.9939810">
<ele>65.836800</ele>
<time>2026-04-22T23:18:45.996Z</time>
</trkpt>
<trkpt lat="59.1057720" lon="29.9940830">
<ele>65.013840</ele>
<time>2026-04-22T23:18:53.004Z</time>
</trkpt>
<trkpt lat="59.1057160" lon="29.9947220">
<ele>65.349121</ele>
<time>2026-04-22T23:19:30.000Z</time>
</trkpt>
<trkpt lat="59.1056560" lon="29.9948180">
<ele>65.897758</ele>
<time>2026-04-22T23:20:06.996Z</time>
</trkpt>
<trkpt lat="59.1056970" lon="29.9948570">
<ele>65.318642</ele>
<time>2026-04-22T23:21:28.999Z</time>
</trkpt>
<trkpt lat="59.1054840" lon="29.9945780">
<ele>65.074799</ele>
<time>2026-04-22T23:23:15.003Z</time>
</trkpt>
<trkpt lat="59.1054730" lon="29.9943320">
<ele>65.623444</ele>
<time>2026-04-22T23:24:01.996Z</time>
</trkpt>
<trkpt lat="59.1052860" lon="29.9943010">
<ele>65.684402</ele>
<time>2026-04-22T23:24:43.001Z</time>
</trkpt>
<trkpt lat="59.1052100" lon="29.9942490">
<ele>66.293999</ele>
<time>2026-04-22T23:25:03.996Z</time>
</trkpt>
<trkpt lat="59.1051810" lon="29.9941570">
<ele>65.897758</ele>
<time>2026-04-22T23:25:22.996Z</time>
</trkpt>
<trkpt lat="59.1050140" lon="29.9944770">
<ele>65.867279</ele>
<time>2026-04-22T23:26:58.001Z</time>
</trkpt>
<trkpt lat="59.1048780" lon="29.9944750">
<ele>65.379601</ele>
<time>2026-04-22T23:28:00.002Z</time>
</trkpt>
<trkpt lat="59.1049330" lon="29.9949170">
<ele>65.562485</ele>
<time>2026-04-22T23:29:07.999Z</time>
</trkpt>
<trkpt lat="59.1049380" lon="29.9952770">
<ele>65.592957</ele>
<time>2026-04-22T23:29:37.997Z</time>
</trkpt>
<trkpt lat="59.1049020" lon="29.9955290">
<ele>65.013840</ele>
<time>2026-04-22T23:30:09.999Z</time>
</trkpt>
<trkpt lat="59.1048270" lon="29.9956660">
<ele>65.623444</ele>
<time>2026-04-22T23:30:31.997Z</time>
</trkpt>
<trkpt lat="59.1047270" lon="29.9956410">
<ele>65.501518</ele>
<time>2026-04-22T23:30:57.001Z</time>
</trkpt>
<trkpt lat="59.1046140" lon="29.9953190">
<ele>65.196716</ele>
<time>2026-04-22T23:31:40.002Z</time>
</trkpt>
<trkpt lat="59.1044810" lon="29.9946840">
<ele>64.952881</ele>
<time>2026-04-22T23:33:32.003Z</time>
</trkpt>
<trkpt lat="59.1044530" lon="29.9946610">
<ele>64.952881</ele>
<time>2026-04-22T23:33:55.996Z</time>
</trkpt>
<trkpt lat="59.1043940" lon="29.9947670">
<ele>65.623444</ele>
<time>2026-04-22T23:34:25.000Z</time>
</trkpt>
<trkpt lat="59.1041560" lon="29.9947500">
<ele>65.562485</ele>
<time>2026-04-22T23:35:27.001Z</time>
</trkpt>
<trkpt lat="59.1040570" lon="29.9950340">
<ele>66.019684</ele>
<time>2026-04-22T23:36:57.997Z</time>
</trkpt>
<trkpt lat="59.1040640" lon="29.9949930">
<ele>65.836800</ele>
<time>2026-04-22T23:37:28.004Z</time>
</trkpt>
<trkpt lat="59.1039950" lon="29.9949020">
<ele>66.934082</ele>
<time>2026-04-22T23:37:46.001Z</time>
</trkpt>
<trkpt lat="59.1039730" lon="29.9947930">
<ele>66.781685</ele>
<time>2026-04-22T23:38:10.003Z</time>
</trkpt>
<trkpt lat="59.1038770" lon="29.9947420">
<ele>66.903603</ele>
<time>2026-04-22T23:38:28.000Z</time>
</trkpt>
<trkpt lat="59.1038790" lon="29.9946510">
<ele>67.056000</ele>
<time>2026-04-22T23:38:51.000Z</time>
</trkpt>
<trkpt lat="59.1038090" lon="29.9944490">
<ele>66.629280</ele>
<time>2026-04-22T23:39:23.003Z</time>
</trkpt>
<trkpt lat="59.1038120" lon="29.9943270">
<ele>66.903603</ele>
<time>2026-04-22T23:39:50.003Z</time>
</trkpt>
<trkpt lat="59.1037150" lon="29.9942630">
<ele>66.934082</ele>
<time>2026-04-22T23:40:13.996Z</time>
</trkpt>
<trkpt lat="59.1038230" lon="29.9939640">
<ele>67.238884</ele>
<time>2026-04-22T23:41:29.000Z</time>
</trkpt>
<trkpt lat="59.1040120" lon="29.9938110">
<ele>66.781685</ele>
<time>2026-04-22T23:42:09.003Z</time>
</trkpt>
<trkpt lat="59.1040010" lon="29.9935640">
<ele>66.903603</ele>
<time>2026-04-22T23:42:56.998Z</time>
</trkpt>
<trkpt lat="59.1040300" lon="29.9932660">
<ele>67.970398</ele>
<time>2026-04-22T23:44:08.002Z</time>
</trkpt>
<trkpt lat="59.1038860" lon="29.9930710">
<ele>67.665604</ele>
<time>2026-04-22T23:44:58.001Z</time>
</trkpt>
<trkpt lat="59.1037670" lon="29.9925750">
<ele>68.671440</ele>
<time>2026-04-22T23:46:00.002Z</time>
</trkpt>
<trkpt lat="59.1039290" lon="29.9921430">
<ele>68.549515</ele>
<time>2026-04-22T23:47:21.002Z</time>
</trkpt>
<trkpt lat="59.1036850" lon="29.9917350">
<ele>68.732399</ele>
<time>2026-04-22T23:48:28.999Z</time>
</trkpt>
<trkpt lat="59.1035460" lon="29.9916900">
<ele>68.458084</ele>
<time>2026-04-22T23:49:24.001Z</time>
</trkpt>
<trkpt lat="59.1032710" lon="29.9918110">
<ele>68.275200</ele>
<time>2026-04-22T23:51:43.001Z</time>
</trkpt>
<trkpt lat="59.1034510" lon="29.9915130">
<ele>68.976242</ele>
<time>2026-04-22T23:53:24.996Z</time>
</trkpt>
<trkpt lat="59.1036360" lon="29.9913150">
<ele>68.701920</ele>
<time>2026-04-22T23:54:05.000Z</time>
</trkpt>
<trkpt lat="59.1035830" lon="29.9909820">
<ele>69.921120</ele>
<time>2026-04-22T23:55:21.999Z</time>
</trkpt>
<trkpt lat="59.1038370" lon="29.9909590">
<ele>68.488556</ele>
<time>2026-04-22T23:56:53.998Z</time>
</trkpt>
<trkpt lat="59.1038860" lon="29.9914640">
<ele>68.214241</ele>
<time>2026-04-22T23:57:38.002Z</time>
</trkpt>
<trkpt lat="59.1039880" lon="29.9920090">
<ele>68.183762</ele>
<time>2026-04-22T23:58:37.998Z</time>
</trkpt>
<trkpt lat="59.1039420" lon="29.9928380">
<ele>67.604637</ele>
<time>2026-04-22T23:59:46.003Z</time>
</trkpt>
<trkpt lat="59.1038910" lon="29.9929990">
<ele>67.513199</ele>
<time>2026-04-23T00:00:06.998Z</time>
</trkpt>
<trkpt lat="59.1039860" lon="29.9932460">
<ele>67.238884</ele>
<time>2026-04-23T00:01:23.998Z</time>
</trkpt>
<trkpt lat="59.1039670" lon="29.9934170">
<ele>67.604637</ele>
<time>2026-04-23T00:01:53.003Z</time>
</trkpt>
<trkpt lat="59.1040430" lon="29.9933840">
<ele>67.513199</ele>
<time>2026-04-23T00:02:20.996Z</time>
</trkpt>
<trkpt lat="59.1041980" lon="29.9937100">
<ele>67.147438</ele>
<time>2026-04-23T00:03:32.000Z</time>
</trkpt>
<trkpt lat="59.1042620" lon="29.9937470">
<ele>67.665604</ele>
<time>2026-04-23T00:03:45.996Z</time>
</trkpt>
<trkpt lat="59.1043190" lon="29.9939240">
<ele>67.116959</ele>
<time>2026-04-23T00:04:07.000Z</time>
</trkpt>
<trkpt lat="59.1043260" lon="29.9942640">
<ele>66.720718</ele>
<time>2026-04-23T00:05:03.998Z</time>
</trkpt>
<trkpt lat="59.1043270" lon="29.9942150">
<ele>66.354958</ele>
<time>2026-04-23T00:05:34.999Z</time>
</trkpt>
<trkpt lat="59.1044160" lon="29.9944540">
<ele>67.391281</ele>
<time>2026-04-23T00:08:24.999Z</time>
</trkpt>
<trkpt lat="59.1044470" lon="29.9943470">
<ele>67.635117</ele>
<time>2026-04-23T00:08:51.999Z</time>
</trkpt>
<trkpt lat="59.1044080" lon="29.9943760">
<ele>67.848480</ele>
<time>2026-04-23T00:09:21.004Z</time>
</trkpt>
<trkpt lat="59.1044590" lon="29.9943590">
<ele>67.909439</ele>
<time>2026-04-23T00:09:44.997Z</time>
</trkpt>
<trkpt lat="59.1044870" lon="29.9944780">
<ele>67.330315</ele>
<time>2026-04-23T00:10:03.996Z</time>
</trkpt>
<trkpt lat="59.1045210" lon="29.9944270">
<ele>67.635117</ele>
<time>2026-04-23T00:10:30.996Z</time>
</trkpt>
<trkpt lat="59.1044460" lon="29.9943560">
<ele>67.574158</ele>
<time>2026-04-23T00:11:01.003Z</time>
</trkpt>
<trkpt lat="59.1045230" lon="29.9946420">
<ele>68.061844</ele>
<time>2026-04-23T00:11:51.003Z</time>
</trkpt>
<trkpt lat="59.1045430" lon="29.9939210">
<ele>68.031357</ele>
<time>2026-04-23T00:14:33.003Z</time>
</trkpt>
<trkpt lat="59.1044010" lon="29.9936550">
<ele>68.823837</ele>
<time>2026-04-23T00:15:19.996Z</time>
</trkpt>
<trkpt lat="59.1043720" lon="29.9935010">
<ele>68.671440</ele>
<time>2026-04-23T00:15:43.998Z</time>
</trkpt>
<trkpt lat="59.1044290" lon="29.9932330">
<ele>70.439285</ele>
<time>2026-04-23T00:16:13.996Z</time>
</trkpt>
<trkpt lat="59.1044280" lon="29.9931160">
<ele>68.275200</ele>
<time>2026-04-23T00:16:48.996Z</time>
</trkpt>
<trkpt lat="59.1044130" lon="29.9931290">
<ele>69.372482</ele>
<time>2026-04-23T00:17:00.004Z</time>
</trkpt>
<trkpt lat="59.1044380" lon="29.9930680">
<ele>69.524879</ele>
<time>2026-04-23T00:17:26.002Z</time>
</trkpt>
<trkpt lat="59.1044400" lon="29.9928070">
<ele>69.738243</ele>
<time>2026-04-23T00:17:50.004Z</time>
</trkpt>
<trkpt lat="59.1045250" lon="29.9925150">
<ele>69.494400</ele>
<time>2026-04-23T00:18:21.004Z</time>
</trkpt>
<trkpt lat="59.1044440" lon="29.9923140">
<ele>70.347839</ele>
<time>2026-04-23T00:18:56.998Z</time>
</trkpt>
<trkpt lat="59.1043540" lon="29.9922860">
<ele>70.286880</ele>
<time>2026-04-23T00:19:19.004Z</time>
</trkpt>
<trkpt lat="59.1041180" lon="29.9920030">
<ele>70.926956</ele>
<time>2026-04-23T00:20:23.001Z</time>
</trkpt>
<trkpt lat="59.1040300" lon="29.9915530">
<ele>71.749916</ele>
<time>2026-04-23T00:21:56.002Z</time>
</trkpt>
<trkpt lat="59.1040540" lon="29.9914600">
<ele>71.780403</ele>
<time>2026-04-23T00:22:24.997Z</time>
</trkpt>
<trkpt lat="59.1040790" lon="29.9916000">
<ele>71.627998</ele>
<time>2026-04-23T00:23:07.999Z</time>
</trkpt>
<trkpt lat="59.1041330" lon="29.9914840">
<ele>71.536560</ele>
<time>2026-04-23T00:23:55.000Z</time>
</trkpt>
<trkpt lat="59.1041610" lon="29.9915100">
<ele>72.085197</ele>
<time>2026-04-23T00:24:08.004Z</time>
</trkpt>
<trkpt lat="59.1040890" lon="29.9915450">
<ele>71.597519</ele>
<time>2026-04-23T00:24:19.996Z</time>
</trkpt>
<trkpt lat="59.1040780" lon="29.9914930">
<ele>70.622162</ele>
<time>2026-04-23T00:24:28.999Z</time>
</trkpt>
<trkpt lat="59.1041860" lon="29.9913540">
<ele>71.902321</ele>
<time>2026-04-23T00:24:54.003Z</time>
</trkpt>
<trkpt lat="59.1042270" lon="29.9911240">
<ele>72.207115</ele>
<time>2026-04-23T00:25:17.996Z</time>
</trkpt>
<trkpt lat="59.1041750" lon="29.9909420">
<ele>68.732399</ele>
<time>2026-04-23T00:25:37.004Z</time>
</trkpt>
<trkpt lat="59.1041330" lon="29.9909210">
<ele>71.749916</ele>
<time>2026-04-23T00:25:44.996Z</time>
</trkpt>
<trkpt lat="59.1043830" lon="29.9907220">
<ele>71.170799</ele>
<time>2026-04-23T00:26:56.000Z</time>
</trkpt>
<trkpt lat="59.1044180" lon="29.9907580">
<ele>72.633842</ele>
<time>2026-04-23T00:27:27.000Z</time>
</trkpt>
<trkpt lat="59.1044460" lon="29.9910330">
<ele>72.481438</ele>
<time>2026-04-23T00:28:22.996Z</time>
</trkpt>
<trkpt lat="59.1043650" lon="29.9912440">
<ele>72.237602</ele>
<time>2026-04-23T00:29:21.998Z</time>
</trkpt>
<trkpt lat="59.1044400" lon="29.9916370">
<ele>71.932800</ele>
<time>2026-04-23T00:30:03.997Z</time>
</trkpt>
<trkpt lat="59.1044280" lon="29.9922420">
<ele>71.780403</ele>
<time>2026-04-23T00:31:11.001Z</time>
</trkpt>
<trkpt lat="59.1044700" lon="29.9923290">
<ele>74.127357</ele>
<time>2026-04-23T00:31:30.000Z</time>
</trkpt>
<trkpt lat="59.1044740" lon="29.9924700">
<ele>71.688957</ele>
<time>2026-04-23T00:31:55.004Z</time>
</trkpt>
<trkpt lat="59.1045480" lon="29.9927820">
<ele>71.109840</ele>
<time>2026-04-23T00:32:29.003Z</time>
</trkpt>
<trkpt lat="59.1045170" lon="29.9932200">
<ele>71.292717</ele>
<time>2026-04-23T00:33:03.001Z</time>
</trkpt>
<trkpt lat="59.1045850" lon="29.9934170">
<ele>71.018402</ele>
<time>2026-04-23T00:33:28.999Z</time>
</trkpt>
<trkpt lat="59.1045840" lon="29.9936010">
<ele>70.926956</ele>
<time>2026-04-23T00:33:50.996Z</time>
</trkpt>
<trkpt lat="59.1046340" lon="29.9936370">
<ele>71.048882</ele>
<time>2026-04-23T00:34:41.998Z</time>
</trkpt>
<trkpt lat="59.1047260" lon="29.9938340">
<ele>70.622162</ele>
<time>2026-04-23T00:35:27.997Z</time>
</trkpt>
<trkpt lat="59.1046650" lon="29.9938370">
<ele>70.896484</ele>
<time>2026-04-23T00:35:54.004Z</time>
</trkpt>
<trkpt lat="59.1046520" lon="29.9940060">
<ele>70.835518</ele>
<time>2026-04-23T00:36:45.999Z</time>
</trkpt>
<trkpt lat="59.1047360" lon="29.9939770">
<ele>70.805038</ele>
<time>2026-04-23T00:37:14.002Z</time>
</trkpt>
<trkpt lat="59.1047440" lon="29.9938750">
<ele>70.926956</ele>
<time>2026-04-23T00:37:37.001Z</time>
</trkpt>
<trkpt lat="59.1048960" lon="29.9939440">
<ele>71.353683</ele>
<time>2026-04-23T00:38:51.996Z</time>
</trkpt>
<trkpt lat="59.1049170" lon="29.9939070">
<ele>70.957443</ele>
<time>2026-04-23T00:39:07.998Z</time>
</trkpt>
<trkpt lat="59.1048840" lon="29.9938690">
<ele>71.079361</ele>
<time>2026-04-23T00:39:34.004Z</time>
</trkpt>
<trkpt lat="59.1049280" lon="29.9938470">
<ele>71.292717</ele>
<time>2026-04-23T00:40:04.002Z</time>
</trkpt>
<trkpt lat="59.1049420" lon="29.9936700">
<ele>71.292717</ele>
<time>2026-04-23T00:40:50.002Z</time>
</trkpt>
<trkpt lat="59.1048810" lon="29.9932410">
<ele>71.567039</ele>
<time>2026-04-23T00:41:52.002Z</time>
</trkpt>
<trkpt lat="59.1048730" lon="29.9928830">
<ele>71.567039</ele>
<time>2026-04-23T00:42:34.001Z</time>
</trkpt>
<trkpt lat="59.1048290" lon="29.9926880">
<ele>71.902321</ele>
<time>2026-04-23T00:42:55.999Z</time>
</trkpt>
<trkpt lat="59.1048300" lon="29.9925220">
<ele>71.445122</ele>
<time>2026-04-23T00:43:14.998Z</time>
</trkpt>
<trkpt lat="59.1046730" lon="29.9921590">
<ele>72.389999</ele>
<time>2026-04-23T00:44:27.004Z</time>
</trkpt>
<trkpt lat="59.1046870" lon="29.9919550">
<ele>72.268082</ele>
<time>2026-04-23T00:45:13.997Z</time>
</trkpt>
<trkpt lat="59.1047060" lon="29.9920090">
<ele>72.450958</ele>
<time>2026-04-23T00:45:44.997Z</time>
</trkpt>
<trkpt lat="59.1046900" lon="29.9919660">
<ele>71.871841</ele>
<time>2026-04-23T00:46:15.004Z</time>
</trkpt>
<trkpt lat="59.1046520" lon="29.9920080">
<ele>72.633842</ele>
<time>2026-04-23T00:46:30.996Z</time>
</trkpt>
<trkpt lat="59.1046180" lon="29.9919360">
<ele>72.389999</ele>
<time>2026-04-23T00:46:53.996Z</time>
</trkpt>
<trkpt lat="59.1046710" lon="29.9916600">
<ele>72.603355</ele>
<time>2026-04-23T00:47:19.000Z</time>
</trkpt>
<trkpt lat="59.1046860" lon="29.9914220">
<ele>72.847198</ele>
<time>2026-04-23T00:47:43.996Z</time>
</trkpt>
<trkpt lat="59.1045180" lon="29.9911360">
<ele>73.212959</ele>
<time>2026-04-23T00:48:26.997Z</time>
</trkpt>
<trkpt lat="59.1045250" lon="29.9905520">
<ele>73.456802</ele>
<time>2026-04-23T00:49:48.999Z</time>
</trkpt>
<trkpt lat="59.1045250" lon="29.9906240">
<ele>73.273918</ele>
<time>2026-04-23T00:50:02.996Z</time>
</trkpt>
<trkpt lat="59.1046370" lon="29.9906910">
<ele>72.816719</ele>
<time>2026-04-23T00:50:21.002Z</time>
</trkpt>
<trkpt lat="59.1046720" lon="29.9907970">
<ele>72.115685</ele>
<time>2026-04-23T00:50:40.001Z</time>
</trkpt>
<trkpt lat="59.1047290" lon="29.9907940">
<ele>72.085197</ele>
<time>2026-04-23T00:51:05.999Z</time>
</trkpt>
<trkpt lat="59.1047130" lon="29.9907660">
<ele>73.578720</ele>
<time>2026-04-23T00:51:12.004Z</time>
</trkpt>
<trkpt lat="59.1047140" lon="29.9908920">
<ele>73.152000</ele>
<time>2026-04-23T00:51:43.998Z</time>
</trkpt>
<trkpt lat="59.1048780" lon="29.9912100">
<ele>73.548241</ele>
<time>2026-04-23T00:52:18.998Z</time>
</trkpt>
<trkpt lat="59.1047650" lon="29.9915430">
<ele>73.639679</ele>
<time>2026-04-23T00:52:52.997Z</time>
</trkpt>
<trkpt lat="59.1047840" lon="29.9916460">
<ele>73.121521</ele>
<time>2026-04-23T00:53:11.003Z</time>
</trkpt>
<trkpt lat="59.1049220" lon="29.9919050">
<ele>73.670158</ele>
<time>2026-04-23T00:53:43.999Z</time>
</trkpt>
<trkpt lat="59.1049450" lon="29.9921280">
<ele>73.578720</ele>
<time>2026-04-23T00:54:01.996Z</time>
</trkpt>
<trkpt lat="59.1049110" lon="29.9924370">
<ele>73.639679</ele>
<time>2026-04-23T00:54:33.998Z</time>
</trkpt>
<trkpt lat="59.1049290" lon="29.9924620">
<ele>73.639679</ele>
<time>2026-04-23T00:54:36.003Z</time>
</trkpt>
<trkpt lat="59.1049590" lon="29.9929230">
<ele>73.091042</ele>
<time>2026-04-23T00:55:41.002Z</time>
</trkpt>
<trkpt lat="59.1048290" lon="29.9928420">
<ele>72.420479</ele>
<time>2026-04-23T00:56:29.999Z</time>
</trkpt>
<trkpt lat="59.1049010" lon="29.9928630">
<ele>72.847198</ele>
<time>2026-04-23T00:56:39.002Z</time>
</trkpt>
<trkpt lat="59.1050610" lon="29.9931080">
<ele>72.999603</ele>
<time>2026-04-23T00:57:13.000Z</time>
</trkpt>
<trkpt lat="59.1050690" lon="29.9935080">
<ele>73.030083</ele>
<time>2026-04-23T00:57:50.999Z</time>
</trkpt>
<trkpt lat="59.1051310" lon="29.9936960">
<ele>72.389999</ele>
<time>2026-04-23T00:58:20.997Z</time>
</trkpt>
<trkpt lat="59.1050600" lon="29.9937790">
<ele>73.060562</ele>
<time>2026-04-23T00:58:43.003Z</time>
</trkpt>
<trkpt lat="59.1051180" lon="29.9938810">
<ele>72.847198</ele>
<time>2026-04-23T00:59:09.001Z</time>
</trkpt>
<trkpt lat="59.1051050" lon="29.9937290">
<ele>71.932800</ele>
<time>2026-04-23T00:59:29.996Z</time>
</trkpt>
<trkpt lat="59.1052280" lon="29.9938280">
<ele>72.999603</ele>
<time>2026-04-23T01:00:46.996Z</time>
</trkpt>
<trkpt lat="59.1052470" lon="29.9937630">
<ele>73.152000</ele>
<time>2026-04-23T01:01:13.996Z</time>
</trkpt>
<trkpt lat="59.1053650" lon="29.9939830">
<ele>72.542397</ele>
<time>2026-04-23T01:01:40.002Z</time>
</trkpt>
<trkpt lat="59.1054300" lon="29.9939780">
<ele>71.567039</ele>
<time>2026-04-23T01:02:03.002Z</time>
</trkpt>
<trkpt lat="59.1054770" lon="29.9938030">
<ele>73.212959</ele>
<time>2026-04-23T01:03:13.997Z</time>
</trkpt>
<trkpt lat="59.1055130" lon="29.9934410">
<ele>73.304398</ele>
<time>2026-04-23T01:03:58.000Z</time>
</trkpt>
<trkpt lat="59.1054120" lon="29.9932550">
<ele>72.786240</ele>
<time>2026-04-23T01:04:33.001Z</time>
</trkpt>
<trkpt lat="59.1051830" lon="29.9932240">
<ele>74.218803</ele>
<time>2026-04-23T01:05:13.998Z</time>
</trkpt>
<trkpt lat="59.1051740" lon="29.9931770">
<ele>73.182480</ele>
<time>2026-04-23T01:05:28.003Z</time>
</trkpt>
<trkpt lat="59.1052470" lon="29.9930120">
<ele>73.792084</ele>
<time>2026-04-23T01:05:48.998Z</time>
</trkpt>
<trkpt lat="59.1052430" lon="29.9928120">
<ele>73.792084</ele>
<time>2026-04-23T01:06:10.002Z</time>
</trkpt>
<trkpt lat="59.1052890" lon="29.9927160">
<ele>73.914001</ele>
<time>2026-04-23T01:06:30.997Z</time>
</trkpt>
<trkpt lat="59.1052630" lon="29.9923510">
<ele>73.822556</ele>
<time>2026-04-23T01:07:16.997Z</time>
</trkpt>
<trkpt lat="59.1052440" lon="29.9921370">
<ele>74.096878</ele>
<time>2026-04-23T01:07:50.002Z</time>
</trkpt>
<trkpt lat="59.1050500" lon="29.9919910">
<ele>74.676003</ele>
<time>2026-04-23T01:09:35.997Z</time>
</trkpt>
<trkpt lat="59.1050700" lon="29.9918440">
<ele>74.279762</ele>
<time>2026-04-23T01:10:01.001Z</time>
</trkpt>
<trkpt lat="59.1050060" lon="29.9914800">
<ele>74.736961</ele>
<time>2026-04-23T01:11:08.998Z</time>
</trkpt>
<trkpt lat="59.1051480" lon="29.9913990">
<ele>74.797920</ele>
<time>2026-04-23T01:12:25.004Z</time>
</trkpt>
<trkpt lat="59.1051390" lon="29.9913140">
<ele>74.523598</ele>
<time>2026-04-23T01:12:52.998Z</time>
</trkpt>
<trkpt lat="59.1052030" lon="29.9912160">
<ele>75.529442</ele>
<time>2026-04-23T01:13:15.004Z</time>
</trkpt>
<trkpt lat="59.1052070" lon="29.9909950">
<ele>75.620880</ele>
<time>2026-04-23T01:13:34.997Z</time>
</trkpt>
<trkpt lat="59.1051720" lon="29.9906690">
<ele>75.712318</ele>
<time>2026-04-23T01:13:50.998Z</time>
</trkpt>
<trkpt lat="59.1051090" lon="29.9905600">
<ele>75.773285</ele>
<time>2026-04-23T01:14:16.002Z</time>
</trkpt>
<trkpt lat="59.1050890" lon="29.9906610">
<ele>75.895203</ele>
<time>2026-04-23T01:14:27.001Z</time>
</trkpt>
<trkpt lat="59.1051160" lon="29.9907120">
<ele>75.986641</ele>
<time>2026-04-23T01:14:51.003Z</time>
</trkpt>
<trkpt lat="59.1051670" lon="29.9905880">
<ele>76.169518</ele>
<time>2026-04-23T01:15:13.000Z</time>
</trkpt>
<trkpt lat="59.1050020" lon="29.9899240">
<ele>76.169518</ele>
<time>2026-04-23T01:16:35.003Z</time>
</trkpt>
<trkpt lat="59.1049320" lon="29.9891970">
<ele>76.108559</ele>
<time>2026-04-23T01:17:28.000Z</time>
</trkpt>
<trkpt lat="59.1048430" lon="29.9887330">
<ele>76.078079</ele>
<time>2026-04-23T01:17:56.996Z</time>
</trkpt>
<trkpt lat="59.1048220" lon="29.9878160">
<ele>76.474319</ele>
<time>2026-04-23T01:19:10.998Z</time>
</trkpt>
<trkpt lat="59.1047600" lon="29.9875830">
<ele>76.901039</ele>
<time>2026-04-23T01:19:33.004Z</time>
</trkpt>
<trkpt lat="59.1047180" lon="29.9871540">
<ele>77.541115</ele>
<time>2026-04-23T01:20:10.000Z</time>
</trkpt>
<trkpt lat="59.1046760" lon="29.9870110">
<ele>77.845917</ele>
<time>2026-04-23T01:20:19.003Z</time>
</trkpt>
<trkpt lat="59.1046170" lon="29.9869470">
<ele>77.602081</ele>
<time>2026-04-23T01:20:41.001Z</time>
</trkpt>
<trkpt lat="59.1045450" lon="29.9859350">
<ele>77.388718</ele>
<time>2026-04-23T01:21:48.004Z</time>
</trkpt>
<trkpt lat="59.1044990" lon="29.9857150">
<ele>77.937363</ele>
<time>2026-04-23T01:22:08.999Z</time>
</trkpt>
<trkpt lat="59.1041490" lon="29.9855200">
<ele>77.693520</ele>
<time>2026-04-23T01:23:06.999Z</time>
</trkpt>
<trkpt lat="59.1041260" lon="29.9854050">
<ele>77.998322</ele>
<time>2026-04-23T01:23:16.002Z</time>
</trkpt>
<trkpt lat="59.1041800" lon="29.9848100">
<ele>78.120239</ele>
<time>2026-04-23T01:23:43.002Z</time>
</trkpt>
<trkpt lat="59.1042490" lon="29.9845190">
<ele>77.449684</ele>
<time>2026-04-23T01:23:56.999Z</time>
</trkpt>
<trkpt lat="59.1043410" lon="29.9838670">
<ele>77.967842</ele>
<time>2026-04-23T01:24:25.001Z</time>
</trkpt>
<trkpt lat="59.1043280" lon="29.9837770">
<ele>77.998322</ele>
<time>2026-04-23T01:24:46.999Z</time>
</trkpt>
<trkpt lat="59.1043920" lon="29.9832950">
<ele>77.236320</ele>
<time>2026-04-23T01:25:28.004Z</time>
</trkpt>
<trkpt lat="59.1044220" lon="29.9832020">
<ele>76.901039</ele>
<time>2026-04-23T01:25:32.998Z</time>
</trkpt>
<trkpt lat="59.1044570" lon="29.9831960">
<ele>76.961998</ele>
<time>2026-04-23T01:25:36.998Z</time>
</trkpt>
<trkpt lat="59.1051120" lon="29.9839310">
<ele>77.022957</ele>
<time>2026-04-23T01:26:37.003Z</time>
</trkpt>
<trkpt lat="59.1052690" lon="29.9841750">
<ele>77.449684</ele>
<time>2026-04-23T01:27:00.003Z</time>
</trkpt>
<trkpt lat="59.1062460" lon="29.9852210">
<ele>76.047600</ele>
<time>2026-04-23T01:28:25.003Z</time>
</trkpt>
<trkpt lat="59.1064790" lon="29.9854230">
<ele>75.956161</ele>
<time>2026-04-23T01:28:44.003Z</time>
</trkpt>
<trkpt lat="59.1071530" lon="29.9863190">
<ele>72.755760</ele>
<time>2026-04-23T01:29:45.001Z</time>
</trkpt>
<trkpt lat="59.1072630" lon="29.9863800">
<ele>72.329041</ele>
<time>2026-04-23T01:29:58.004Z</time>
</trkpt>
<trkpt lat="59.1072750" lon="29.9863340">
<ele>72.359520</ele>
<time>2026-04-23T01:30:24.002Z</time>
</trkpt>
<trkpt lat="59.1072490" lon="29.9863920">
<ele>72.694801</ele>
<time>2026-04-23T01:31:33.001Z</time>
</trkpt>
<trkpt lat="59.1073140" lon="29.9864120">
<ele>71.780403</ele>
<time>2026-04-23T01:31:53.996Z</time>
</trkpt>
<trkpt lat="59.1069210" lon="29.9859840">
<ele>72.786240</ele>
<time>2026-04-23T01:32:20.996Z</time>
</trkpt>
<trkpt lat="59.1064970" lon="29.9853520">
<ele>74.127357</ele>
<time>2026-04-23T01:32:43.996Z</time>
</trkpt>
<trkpt lat="59.1062000" lon="29.9851210">
<ele>74.096878</ele>
<time>2026-04-23T01:32:52.999Z</time>
</trkpt>
<trkpt lat="59.1057700" lon="29.9846920">
<ele>76.718163</ele>
<time>2026-04-23T01:33:07.998Z</time>
</trkpt>
<trkpt lat="59.1043650" lon="29.9830470">
<ele>75.620880</ele>
<time>2026-04-23T01:33:38.998Z</time>
</trkpt>
<trkpt lat="59.1039800" lon="29.9829630">
<ele>75.285599</ele>
<time>2026-04-23T01:33:49.997Z</time>
</trkpt>
<trkpt lat="59.1036820" lon="29.9829910">
<ele>75.255119</ele>
<time>2026-04-23T01:34:03.000Z</time>
</trkpt>
<trkpt lat="59.1034920" lon="29.9830420">
<ele>75.377045</ele>
<time>2026-04-23T01:34:12.003Z</time>
</trkpt>
<trkpt lat="59.1028900" lon="29.9833600">
<ele>73.822556</ele>
<time>2026-04-23T01:34:28.004Z</time>
</trkpt>
<trkpt lat="59.1026810" lon="29.9832960">
<ele>74.797920</ele>
<time>2026-04-23T01:34:35.996Z</time>
</trkpt>
<trkpt lat="59.1027090" lon="29.9823890">
<ele>74.493118</ele>
<time>2026-04-23T01:34:50.002Z</time>
</trkpt>
<trkpt lat="59.1028660" lon="29.9804470">
<ele>74.371201</ele>
<time>2026-04-23T01:35:15.999Z</time>
</trkpt>
<trkpt lat="59.1029130" lon="29.9802380">
<ele>75.224640</ele>
<time>2026-04-23T01:35:22.004Z</time>
</trkpt>
<trkpt lat="59.1030690" lon="29.9784970">
<ele>74.980797</ele>
<time>2026-04-23T01:35:49.998Z</time>
</trkpt>
<trkpt lat="59.1029630" lon="29.9783610">
<ele>75.224640</ele>
<time>2026-04-23T01:35:55.000Z</time>
</trkpt>
<trkpt lat="59.1021420" lon="29.9780240">
<ele>75.041756</ele>
<time>2026-04-23T01:36:39.004Z</time>
</trkpt>
<trkpt lat="59.1021240" lon="29.9780510">
<ele>75.498962</ele>
<time>2026-04-23T01:37:16.000Z</time>
</trkpt>
</trkseg>
</trk>
<trk>
 <name>20260423_Lisa63</name>
 <desc>20260423_Lisa63</desc>
<trkseg>
<trkpt lat="59.1022760" lon="29.9783690">
<ele>98.602798</ele>
<time>2026-04-22T19:14:32.997Z</time>
</trkpt>
<trkpt lat="59.1021730" lon="29.9782420">
<ele>71.780403</ele>
<time>2026-04-22T19:15:00.999Z</time>
</trkpt>
<trkpt lat="59.1022130" lon="29.9782080">
<ele>74.828400</ele>
<time>2026-04-22T19:15:30.997Z</time>
</trkpt>
<trkpt lat="59.1022050" lon="29.9781560">
<ele>75.956161</ele>
<time>2026-04-22T19:15:57.997Z</time>
</trkpt>
<trkpt lat="59.1021260" lon="29.9782650">
<ele>74.736961</ele>
<time>2026-04-22T19:16:27.002Z</time>
</trkpt>
<trkpt lat="59.1021310" lon="29.9783140">
<ele>75.529442</ele>
<time>2026-04-22T19:16:51.997Z</time>
</trkpt>
<trkpt lat="59.1021300" lon="29.9782850">
<ele>73.944481</ele>
<time>2026-04-22T19:17:18.004Z</time>
</trkpt>
<trkpt lat="59.1021510" lon="29.9782580">
<ele>72.694801</ele>
<time>2026-04-22T19:17:45.997Z</time>
</trkpt>
<trkpt lat="59.1021340" lon="29.9782700">
<ele>73.456802</ele>
<time>2026-04-22T19:18:12.004Z</time>
</trkpt>
<trkpt lat="59.1021150" lon="29.9782520">
<ele>71.932800</ele>
<time>2026-04-22T19:18:39.004Z</time>
</trkpt>
<trkpt lat="59.1021390" lon="29.9781860">
<ele>69.951599</ele>
<time>2026-04-22T19:19:03.999Z</time>
</trkpt>
<trkpt lat="59.1021960" lon="29.9781920">
<ele>70.926956</ele>
<time>2026-04-22T19:19:29.004Z</time>
</trkpt>
<trkpt lat="59.1022220" lon="29.9783890">
<ele>71.506081</ele>
<time>2026-04-22T19:19:44.996Z</time>
</trkpt>
<trkpt lat="59.1022320" lon="29.9783670">
<ele>72.359520</ele>
<time>2026-04-22T19:19:52.003Z</time>
</trkpt>
<trkpt lat="59.1023600" lon="29.9781600">
<ele>72.207115</ele>
<time>2026-04-22T19:20:08.998Z</time>
</trkpt>
<trkpt lat="59.1025110" lon="29.9782180">
<ele>71.170799</ele>
<time>2026-04-22T19:20:27.004Z</time>
</trkpt>
<trkpt lat="59.1026320" lon="29.9782500">
<ele>67.056000</ele>
<time>2026-04-22T19:20:45.001Z</time>
</trkpt>
<trkpt lat="59.1028440" lon="29.9783360">
<ele>64.434715</ele>
<time>2026-04-22T19:21:09.003Z</time>
</trkpt>
<trkpt lat="59.1029840" lon="29.9783730">
<ele>66.812157</ele>
<time>2026-04-22T19:21:24.002Z</time>
</trkpt>
<trkpt lat="59.1031170" lon="29.9784420">
<ele>69.250557</ele>
<time>2026-04-22T19:21:41.999Z</time>
</trkpt>
<trkpt lat="59.1031060" lon="29.9784890">
<ele>70.134483</ele>
<time>2026-04-22T19:21:47.002Z</time>
</trkpt>
<trkpt lat="59.1030950" lon="29.9785700">
<ele>69.860161</ele>
<time>2026-04-22T19:21:51.002Z</time>
</trkpt>
<trkpt lat="59.1030680" lon="29.9787390">
<ele>68.153282</ele>
<time>2026-04-22T19:22:03.003Z</time>
</trkpt>
<trkpt lat="59.1030500" lon="29.9787760">
<ele>67.421761</ele>
<time>2026-04-22T19:22:30.003Z</time>
</trkpt>
<trkpt lat="59.1030190" lon="29.9790850">
<ele>68.183762</ele>
<time>2026-04-22T19:22:46.004Z</time>
</trkpt>
<trkpt lat="59.1030160" lon="29.9792130">
<ele>69.128639</ele>
<time>2026-04-22T19:22:53.996Z</time>
</trkpt>
<trkpt lat="59.1030100" lon="29.9793360">
<ele>69.463921</ele>
<time>2026-04-22T19:22:58.999Z</time>
</trkpt>
<trkpt lat="59.1029990" lon="29.9794420">
<ele>69.616318</ele>
<time>2026-04-22T19:23:04.001Z</time>
</trkpt>
<trkpt lat="59.1029700" lon="29.9797100">
<ele>69.494400</ele>
<time>2026-04-22T19:23:19.000Z</time>
</trkpt>
<trkpt lat="59.1029540" lon="29.9798670">
<ele>68.823837</ele>
<time>2026-04-22T19:23:25.999Z</time>
</trkpt>
<trkpt lat="59.1029080" lon="29.9802710">
<ele>70.164963</ele>
<time>2026-04-22T19:23:43.996Z</time>
</trkpt>
<trkpt lat="59.1028740" lon="29.9804900">
<ele>70.774559</ele>
<time>2026-04-22T19:23:58.001Z</time>
</trkpt>
<trkpt lat="59.1028560" lon="29.9806300">
<ele>71.170799</ele>
<time>2026-04-22T19:24:10.996Z</time>
</trkpt>
<trkpt lat="59.1028370" lon="29.9808250">
<ele>71.414642</ele>
<time>2026-04-22T19:24:23.999Z</time>
</trkpt>
<trkpt lat="59.1028250" lon="29.9810330">
<ele>70.012558</ele>
<time>2026-04-22T19:24:37.002Z</time>
</trkpt>
<trkpt lat="59.1028120" lon="29.9813290">
<ele>68.275200</ele>
<time>2026-04-22T19:24:53.997Z</time>
</trkpt>
<trkpt lat="59.1027770" lon="29.9817210">
<ele>65.867279</ele>
<time>2026-04-22T19:25:13.999Z</time>
</trkpt>
<trkpt lat="59.1027400" lon="29.9821230">
<ele>63.367920</ele>
<time>2026-04-22T19:25:31.002Z</time>
</trkpt>
<trkpt lat="59.1027310" lon="29.9824760">
<ele>64.221359</ele>
<time>2026-04-22T19:25:46.001Z</time>
</trkpt>
<trkpt lat="59.1027140" lon="29.9827350">
<ele>65.318642</ele>
<time>2026-04-22T19:26:02.003Z</time>
</trkpt>
<trkpt lat="59.1027080" lon="29.9829530">
<ele>66.659760</ele>
<time>2026-04-22T19:26:14.997Z</time>
</trkpt>
<trkpt lat="59.1026920" lon="29.9832170">
<ele>67.177917</ele>
<time>2026-04-22T19:26:30.998Z</time>
</trkpt>
<trkpt lat="59.1026720" lon="29.9835520">
<ele>68.153282</ele>
<time>2026-04-22T19:26:47.000Z</time>
</trkpt>
<trkpt lat="59.1026670" lon="29.9839370">
<ele>67.939919</ele>
<time>2026-04-22T19:27:08.997Z</time>
</trkpt>
<trkpt lat="59.1026530" lon="29.9843140">
<ele>67.056000</ele>
<time>2026-04-22T19:27:24.998Z</time>
</trkpt>
<trkpt lat="59.1026420" lon="29.9845060">
<ele>66.690239</ele>
<time>2026-04-22T19:27:42.002Z</time>
</trkpt>
<trkpt lat="59.1026840" lon="29.9847600">
<ele>64.282318</ele>
<time>2026-04-22T19:28:02.997Z</time>
</trkpt>
<trkpt lat="59.1027260" lon="29.9848940">
<ele>65.958717</ele>
<time>2026-04-22T19:28:28.001Z</time>
</trkpt>
<trkpt lat="59.1027320" lon="29.9850640">
<ele>67.360802</ele>
<time>2026-04-22T19:28:39.000Z</time>
</trkpt>
<trkpt lat="59.1026920" lon="29.9852810">
<ele>67.238884</ele>
<time>2026-04-22T19:28:55.001Z</time>
</trkpt>
<trkpt lat="59.1026870" lon="29.9855420">
<ele>67.360802</ele>
<time>2026-04-22T19:29:12.998Z</time>
</trkpt>
<trkpt lat="59.1026550" lon="29.9857950">
<ele>67.116959</ele>
<time>2026-04-22T19:29:29.000Z</time>
</trkpt>
<trkpt lat="59.1026330" lon="29.9860170">
<ele>64.282318</ele>
<time>2026-04-22T19:29:42.996Z</time>
</trkpt>
<trkpt lat="59.1026510" lon="29.9862340">
<ele>61.539120</ele>
<time>2026-04-22T19:29:57.002Z</time>
</trkpt>
<trkpt lat="59.1026370" lon="29.9863680">
<ele>62.362083</ele>
<time>2026-04-22T19:30:10.999Z</time>
</trkpt>
<trkpt lat="59.1026650" lon="29.9865740">
<ele>64.221359</ele>
<time>2026-04-22T19:30:28.002Z</time>
</trkpt>
<trkpt lat="59.1027380" lon="29.9866920">
<ele>63.398399</ele>
<time>2026-04-22T19:30:44.004Z</time>
</trkpt>
<trkpt lat="59.1027640" lon="29.9867390">
<ele>64.434715</ele>
<time>2026-04-22T19:31:02.001Z</time>
</trkpt>
<trkpt lat="59.1028270" lon="29.9868830">
<ele>67.665604</ele>
<time>2026-04-22T19:31:19.998Z</time>
</trkpt>
<trkpt lat="59.1028430" lon="29.9869670">
<ele>71.109840</ele>
<time>2026-04-22T19:31:38.004Z</time>
</trkpt>
<trkpt lat="59.1028610" lon="29.9869650">
<ele>72.755760</ele>
<time>2026-04-22T19:31:58.999Z</time>
</trkpt>
<trkpt lat="59.1028530" lon="29.9868880">
<ele>75.194160</ele>
<time>2026-04-22T19:32:20.003Z</time>
</trkpt>
<trkpt lat="59.1028860" lon="29.9868830">
<ele>75.773285</ele>
<time>2026-04-22T19:32:47.996Z</time>
</trkpt>
<trkpt lat="59.1029420" lon="29.9868330">
<ele>79.979515</ele>
<time>2026-04-22T19:33:14.996Z</time>
</trkpt>
<trkpt lat="59.1029320" lon="29.9868590">
<ele>82.021683</ele>
<time>2026-04-22T19:33:41.996Z</time>
</trkpt>
<trkpt lat="59.1028870" lon="29.9868850">
<ele>81.381599</ele>
<time>2026-04-22T19:34:11.001Z</time>
</trkpt>
<trkpt lat="59.1028810" lon="29.9868570">
<ele>83.027519</ele>
<time>2026-04-22T19:34:46.001Z</time>
</trkpt>
<trkpt lat="59.1028970" lon="29.9868670">
<ele>83.393280</ele>
<time>2026-04-22T19:34:55.004Z</time>
</trkpt>
<trkpt lat="59.1029090" lon="29.9868800">
<ele>84.185760</ele>
<time>2026-04-22T19:35:24.000Z</time>
</trkpt>
<trkpt lat="59.1028530" lon="29.9867490">
<ele>82.966560</ele>
<time>2026-04-22T19:35:51.000Z</time>
</trkpt>
<trkpt lat="59.1028280" lon="29.9867680">
<ele>82.661766</ele>
<time>2026-04-22T19:36:22.000Z</time>
</trkpt>
<trkpt lat="59.1028110" lon="29.9869220">
<ele>79.949036</ele>
<time>2026-04-22T19:36:39.997Z</time>
</trkpt>
<trkpt lat="59.1028480" lon="29.9870690">
<ele>78.516479</ele>
<time>2026-04-22T19:37:01.001Z</time>
</trkpt>
<trkpt lat="59.1028980" lon="29.9872110">
<ele>77.419197</ele>
<time>2026-04-22T19:37:24.001Z</time>
</trkpt>
<trkpt lat="59.1029510" lon="29.9871960">
<ele>76.382881</ele>
<time>2026-04-22T19:37:51.001Z</time>
</trkpt>
<trkpt lat="59.1029460" lon="29.9871130">
<ele>74.889359</ele>
<time>2026-04-22T19:38:15.003Z</time>
</trkpt>
<trkpt lat="59.1029190" lon="29.9870740">
<ele>74.797920</ele>
<time>2026-04-22T19:38:46.003Z</time>
</trkpt>
<trkpt lat="59.1029460" lon="29.9871580">
<ele>75.468483</ele>
<time>2026-04-22T19:39:17.997Z</time>
</trkpt>
<trkpt lat="59.1029420" lon="29.9870770">
<ele>75.773285</ele>
<time>2026-04-22T19:39:44.997Z</time>
</trkpt>
<trkpt lat="59.1029030" lon="29.9870580">
<ele>75.163681</ele>
<time>2026-04-22T19:40:15.997Z</time>
</trkpt>
<trkpt lat="59.1029270" lon="29.9870390">
<ele>72.329041</ele>
<time>2026-04-22T19:40:41.002Z</time>
</trkpt>
<trkpt lat="59.1029640" lon="29.9871030">
<ele>71.902321</ele>
<time>2026-04-22T19:41:09.004Z</time>
</trkpt>
<trkpt lat="59.1029330" lon="29.9871030">
<ele>72.176643</ele>
<time>2026-04-22T19:41:39.002Z</time>
</trkpt>
<trkpt lat="59.1028650" lon="29.9871350">
<ele>71.627998</ele>
<time>2026-04-22T19:42:17.001Z</time>
</trkpt>
<trkpt lat="59.1028590" lon="29.9871280">
<ele>71.323196</ele>
<time>2026-04-22T19:42:44.001Z</time>
</trkpt>
<trkpt lat="59.1028630" lon="29.9871310">
<ele>69.982079</ele>
<time>2026-04-22T19:43:16.997Z</time>
</trkpt>
<trkpt lat="59.1029020" lon="29.9871310">
<ele>68.488556</ele>
<time>2026-04-22T19:43:47.004Z</time>
</trkpt>
<trkpt lat="59.1028830" lon="29.9870930">
<ele>69.524879</ele>
<time>2026-04-22T19:44:15.999Z</time>
</trkpt>
<trkpt lat="59.1028630" lon="29.9872100">
<ele>72.207115</ele>
<time>2026-04-22T19:44:44.002Z</time>
</trkpt>
<trkpt lat="59.1028980" lon="29.9871950">
<ele>72.024239</ele>
<time>2026-04-22T19:45:05.999Z</time>
</trkpt>
<trkpt lat="59.1029130" lon="29.9873290">
<ele>72.268082</ele>
<time>2026-04-22T19:45:31.003Z</time>
</trkpt>
<trkpt lat="59.1029160" lon="29.9874460">
<ele>71.902321</ele>
<time>2026-04-22T19:45:57.001Z</time>
</trkpt>
<trkpt lat="59.1029390" lon="29.9874350">
<ele>70.530716</ele>
<time>2026-04-22T19:46:25.997Z</time>
</trkpt>
<trkpt lat="59.1029090" lon="29.9875350">
<ele>70.530716</ele>
<time>2026-04-22T19:46:47.001Z</time>
</trkpt>
<trkpt lat="59.1028680" lon="29.9876680">
<ele>72.146156</ele>
<time>2026-04-22T19:47:08.998Z</time>
</trkpt>
<trkpt lat="59.1028350" lon="29.9877070">
<ele>72.024239</ele>
<time>2026-04-22T19:47:33.000Z</time>
</trkpt>
<trkpt lat="59.1028490" lon="29.9876920">
<ele>71.688957</ele>
<time>2026-04-22T19:47:54.004Z</time>
</trkpt>
<trkpt lat="59.1028310" lon="29.9877340">
<ele>70.835518</ele>
<time>2026-04-22T19:48:27.000Z</time>
</trkpt>
<trkpt lat="59.1028140" lon="29.9877430">
<ele>70.926956</ele>
<time>2026-04-22T19:48:59.003Z</time>
</trkpt>
<trkpt lat="59.1027960" lon="29.9877880">
<ele>71.536560</ele>
<time>2026-04-22T19:49:26.003Z</time>
</trkpt>
<trkpt lat="59.1027740" lon="29.9878060">
<ele>71.902321</ele>
<time>2026-04-22T19:49:46.004Z</time>
</trkpt>
<trkpt lat="59.1027860" lon="29.9879150">
<ele>72.268082</ele>
<time>2026-04-22T19:50:09.997Z</time>
</trkpt>
<trkpt lat="59.1027830" lon="29.9879940">
<ele>72.603355</ele>
<time>2026-04-22T19:50:35.002Z</time>
</trkpt>
<trkpt lat="59.1027180" lon="29.9880940">
<ele>72.694801</ele>
<time>2026-04-22T19:50:48.998Z</time>
</trkpt>
<trkpt lat="59.1026570" lon="29.9881750">
<ele>73.273918</ele>
<time>2026-04-22T19:51:05.000Z</time>
</trkpt>
<trkpt lat="59.1026940" lon="29.9882180">
<ele>74.218803</ele>
<time>2026-04-22T19:51:30.997Z</time>
</trkpt>
<trkpt lat="59.1026990" lon="29.9883920">
<ele>73.456802</ele>
<time>2026-04-22T19:51:54.999Z</time>
</trkpt>
<trkpt lat="59.1027060" lon="29.9884890">
<ele>73.152000</ele>
<time>2026-04-22T19:52:04.002Z</time>
</trkpt>
<trkpt lat="59.1026890" lon="29.9886630">
<ele>74.096878</ele>
<time>2026-04-22T19:52:24.004Z</time>
</trkpt>
<trkpt lat="59.1026980" lon="29.9887670">
<ele>73.426315</ele>
<time>2026-04-22T19:52:44.999Z</time>
</trkpt>
<trkpt lat="59.1027120" lon="29.9887910">
<ele>71.993759</ele>
<time>2026-04-22T19:53:10.003Z</time>
</trkpt>
<trkpt lat="59.1026370" lon="29.9886810">
<ele>69.860161</ele>
<time>2026-04-22T19:53:29.996Z</time>
</trkpt>
<trkpt lat="59.1026060" lon="29.9885890">
<ele>69.646797</ele>
<time>2026-04-22T19:53:49.004Z</time>
</trkpt>
<trkpt lat="59.1026240" lon="29.9885940">
<ele>69.281044</ele>
<time>2026-04-22T19:54:16.004Z</time>
</trkpt>
<trkpt lat="59.1025680" lon="29.9885970">
<ele>69.372482</ele>
<time>2026-04-22T19:54:39.997Z</time>
</trkpt>
<trkpt lat="59.1025390" lon="29.9886850">
<ele>67.970398</ele>
<time>2026-04-22T19:55:08.000Z</time>
</trkpt>
<trkpt lat="59.1025630" lon="29.9886730">
<ele>68.549515</ele>
<time>2026-04-22T19:55:35.000Z</time>
</trkpt>
<trkpt lat="59.1025850" lon="29.9886340">
<ele>70.408798</ele>
<time>2026-04-22T19:56:00.004Z</time>
</trkpt>
<trkpt lat="59.1025580" lon="29.9886400">
<ele>70.805038</ele>
<time>2026-04-22T19:56:29.000Z</time>
</trkpt>
<trkpt lat="59.1025640" lon="29.9885000">
<ele>70.500244</ele>
<time>2026-04-22T19:56:53.002Z</time>
</trkpt>
<trkpt lat="59.1026070" lon="29.9884900">
<ele>70.835518</ele>
<time>2026-04-22T19:57:17.997Z</time>
</trkpt>
<trkpt lat="59.1026590" lon="29.9884300">
<ele>71.658485</ele>
<time>2026-04-22T19:57:48.997Z</time>
</trkpt>
<trkpt lat="59.1026350" lon="29.9884400">
<ele>70.805038</ele>
<time>2026-04-22T19:58:21.000Z</time>
</trkpt>
<trkpt lat="59.1026280" lon="29.9885500">
<ele>71.262238</ele>
<time>2026-04-22T19:58:49.002Z</time>
</trkpt>
<trkpt lat="59.1026450" lon="29.9885620">
<ele>70.774559</ele>
<time>2026-04-22T19:59:15.000Z</time>
</trkpt>
<trkpt lat="59.1026350" lon="29.9886610">
<ele>70.347839</ele>
<time>2026-04-22T19:59:44.998Z</time>
</trkpt>
<trkpt lat="59.1026080" lon="29.9886650">
<ele>71.292717</ele>
<time>2026-04-22T20:00:13.000Z</time>
</trkpt>
<trkpt lat="59.1026040" lon="29.9886370">
<ele>72.146156</ele>
<time>2026-04-22T20:00:44.001Z</time>
</trkpt>
<trkpt lat="59.1026410" lon="29.9886520">
<ele>72.572884</ele>
<time>2026-04-22T20:01:12.003Z</time>
</trkpt>
<trkpt lat="59.1026350" lon="29.9886990">
<ele>72.176643</ele>
<time>2026-04-22T20:01:35.996Z</time>
</trkpt>
<trkpt lat="59.1026580" lon="29.9888140">
<ele>69.890640</ele>
<time>2026-04-22T20:01:55.004Z</time>
</trkpt>
<trkpt lat="59.1026720" lon="29.9888470">
<ele>68.915283</ele>
<time>2026-04-22T20:02:11.999Z</time>
</trkpt>
<trkpt lat="59.1026220" lon="29.9889600">
<ele>69.768715</ele>
<time>2026-04-22T20:02:41.004Z</time>
</trkpt>
<trkpt lat="59.1026640" lon="29.9889940">
<ele>70.439285</ele>
<time>2026-04-22T20:03:04.003Z</time>
</trkpt>
<trkpt lat="59.1027140" lon="29.9889800">
<ele>71.079361</ele>
<time>2026-04-22T20:03:23.996Z</time>
</trkpt>
<trkpt lat="59.1028280" lon="29.9889580">
<ele>70.530716</ele>
<time>2026-04-22T20:03:47.998Z</time>
</trkpt>
<trkpt lat="59.1027910" lon="29.9890270">
<ele>69.524879</ele>
<time>2026-04-22T20:04:20.001Z</time>
</trkpt>
<trkpt lat="59.1026990" lon="29.9890730">
<ele>70.835518</ele>
<time>2026-04-22T20:04:48.003Z</time>
</trkpt>
<trkpt lat="59.1027290" lon="29.9889670">
<ele>70.683121</ele>
<time>2026-04-22T20:05:20.999Z</time>
</trkpt>
<trkpt lat="59.1027660" lon="29.9889200">
<ele>72.207115</ele>
<time>2026-04-22T20:05:46.003Z</time>
</trkpt>
<trkpt lat="59.1027640" lon="29.9889350">
<ele>73.609200</ele>
<time>2026-04-22T20:06:09.996Z</time>
</trkpt>
<trkpt lat="59.1028090" lon="29.9889530">
<ele>74.828400</ele>
<time>2026-04-22T20:06:31.000Z</time>
</trkpt>
<trkpt lat="59.1028350" lon="29.9890780">
<ele>74.279762</ele>
<time>2026-04-22T20:06:58.000Z</time>
</trkpt>
<trkpt lat="59.1027950" lon="29.9891990">
<ele>74.615044</ele>
<time>2026-04-22T20:07:18.002Z</time>
</trkpt>
<trkpt lat="59.1027160" lon="29.9893770">
<ele>73.914001</ele>
<time>2026-04-22T20:07:34.997Z</time>
</trkpt>
<trkpt lat="59.1026960" lon="29.9895860">
<ele>74.462639</ele>
<time>2026-04-22T20:07:54.998Z</time>
</trkpt>
<trkpt lat="59.1027140" lon="29.9896320">
<ele>74.157845</ele>
<time>2026-04-22T20:08:12.002Z</time>
</trkpt>
<trkpt lat="59.1027380" lon="29.9896580">
<ele>73.365356</ele>
<time>2026-04-22T20:08:25.999Z</time>
</trkpt>
<trkpt lat="59.1027650" lon="29.9896620">
<ele>73.731117</ele>
<time>2026-04-22T20:08:55.003Z</time>
</trkpt>
<trkpt lat="59.1027360" lon="29.9896940">
<ele>74.249283</ele>
<time>2026-04-22T20:09:18.996Z</time>
</trkpt>
<trkpt lat="59.1027270" lon="29.9897120">
<ele>74.676003</ele>
<time>2026-04-22T20:09:49.997Z</time>
</trkpt>
<trkpt lat="59.1027470" lon="29.9897100">
<ele>73.639679</ele>
<time>2026-04-22T20:10:21.999Z</time>
</trkpt>
<trkpt lat="59.1027500" lon="29.9896340">
<ele>73.822556</ele>
<time>2026-04-22T20:10:59.998Z</time>
</trkpt>
<trkpt lat="59.1027450" lon="29.9895710">
<ele>73.060562</ele>
<time>2026-04-22T20:11:29.003Z</time>
</trkpt>
<trkpt lat="59.1027470" lon="29.9896080">
<ele>73.517761</ele>
<time>2026-04-22T20:11:59.001Z</time>
</trkpt>
<trkpt lat="59.1027450" lon="29.9896950">
<ele>73.273918</ele>
<time>2026-04-22T20:12:18.000Z</time>
</trkpt>
<trkpt lat="59.1027270" lon="29.9897960">
<ele>73.365356</ele>
<time>2026-04-22T20:12:43.004Z</time>
</trkpt>
<trkpt lat="59.1027450" lon="29.9899440">
<ele>73.426315</ele>
<time>2026-04-22T20:12:58.003Z</time>
</trkpt>
<trkpt lat="59.1027420" lon="29.9900630">
<ele>73.212959</ele>
<time>2026-04-22T20:13:10.004Z</time>
</trkpt>
<trkpt lat="59.1027560" lon="29.9901020">
<ele>72.877686</ele>
<time>2026-04-22T20:13:21.996Z</time>
</trkpt>
<trkpt lat="59.1027740" lon="29.9901750">
<ele>70.987915</ele>
<time>2026-04-22T20:13:33.997Z</time>
</trkpt>
<trkpt lat="59.1027950" lon="29.9902360">
<ele>70.896484</ele>
<time>2026-04-22T20:13:48.003Z</time>
</trkpt>
<trkpt lat="59.1028040" lon="29.9902920">
<ele>70.469757</ele>
<time>2026-04-22T20:14:00.997Z</time>
</trkpt>
<trkpt lat="59.1027940" lon="29.9903470">
<ele>70.561203</ele>
<time>2026-04-22T20:14:15.996Z</time>
</trkpt>
<trkpt lat="59.1027930" lon="29.9904310">
<ele>70.103996</ele>
<time>2026-04-22T20:14:27.997Z</time>
</trkpt>
<trkpt lat="59.1027910" lon="29.9904790">
<ele>70.347839</ele>
<time>2026-04-22T20:14:42.003Z</time>
</trkpt>
<trkpt lat="59.1027900" lon="29.9906100">
<ele>70.317360</ele>
<time>2026-04-22T20:14:56.000Z</time>
</trkpt>
<trkpt lat="59.1028090" lon="29.9906820">
<ele>70.164963</ele>
<time>2026-04-22T20:15:09.996Z</time>
</trkpt>
<trkpt lat="59.1028370" lon="29.9907630">
<ele>70.378319</ele>
<time>2026-04-22T20:15:21.997Z</time>
</trkpt>
<trkpt lat="59.1028700" lon="29.9908830">
<ele>70.622162</ele>
<time>2026-04-22T20:15:36.003Z</time>
</trkpt>
<trkpt lat="59.1028940" lon="29.9909930">
<ele>70.439285</ele>
<time>2026-04-22T20:15:50.000Z</time>
</trkpt>
<trkpt lat="59.1028930" lon="29.9910860">
<ele>70.926956</ele>
<time>2026-04-22T20:16:06.001Z</time>
</trkpt>
<trkpt lat="59.1029200" lon="29.9911610">
<ele>70.805038</ele>
<time>2026-04-22T20:16:19.004Z</time>
</trkpt>
<trkpt lat="59.1029610" lon="29.9912730">
<ele>69.067680</ele>
<time>2026-04-22T20:16:33.001Z</time>
</trkpt>
<trkpt lat="59.1029690" lon="29.9913430">
<ele>68.214241</ele>
<time>2026-04-22T20:16:46.004Z</time>
</trkpt>
<trkpt lat="59.1029780" lon="29.9914440">
<ele>68.458084</ele>
<time>2026-04-22T20:17:05.997Z</time>
</trkpt>
<trkpt lat="59.1029690" lon="29.9915300">
<ele>69.768715</ele>
<time>2026-04-22T20:17:40.998Z</time>
</trkpt>
<trkpt lat="59.1029390" lon="29.9915340">
<ele>69.768715</ele>
<time>2026-04-22T20:18:14.003Z</time>
</trkpt>
<trkpt lat="59.1029270" lon="29.9915590">
<ele>70.378319</ele>
<time>2026-04-22T20:18:45.996Z</time>
</trkpt>
<trkpt lat="59.1029370" lon="29.9915370">
<ele>70.896484</ele>
<time>2026-04-22T20:19:16.997Z</time>
</trkpt>
<trkpt lat="59.1029570" lon="29.9915180">
<ele>71.414642</ele>
<time>2026-04-22T20:19:43.997Z</time>
</trkpt>
<trkpt lat="59.1030400" lon="29.9915230">
<ele>72.085197</ele>
<time>2026-04-22T20:20:11.999Z</time>
</trkpt>
<trkpt lat="59.1029780" lon="29.9915140">
<ele>71.993759</ele>
<time>2026-04-22T20:20:48.002Z</time>
</trkpt>
<trkpt lat="59.1029710" lon="29.9913080">
<ele>71.993759</ele>
<time>2026-04-22T20:21:12.004Z</time>
</trkpt>
<trkpt lat="59.1029860" lon="29.9912450">
<ele>72.115685</ele>
<time>2026-04-22T20:21:35.004Z</time>
</trkpt>
<trkpt lat="59.1029890" lon="29.9912600">
<ele>73.030083</ele>
<time>2026-04-22T20:22:14.998Z</time>
</trkpt>
<trkpt lat="59.1029790" lon="29.9912330">
<ele>72.938644</ele>
<time>2026-04-22T20:22:44.996Z</time>
</trkpt>
<trkpt lat="59.1029630" lon="29.9912160">
<ele>72.542397</ele>
<time>2026-04-22T20:23:16.999Z</time>
</trkpt>
<trkpt lat="59.1029860" lon="29.9912920">
<ele>72.237602</ele>
<time>2026-04-22T20:23:46.003Z</time>
</trkpt>
<trkpt lat="59.1029940" lon="29.9913350">
<ele>72.389999</ele>
<time>2026-04-22T20:23:54.997Z</time>
</trkpt>
<trkpt lat="59.1029750" lon="29.9913240">
<ele>72.329041</ele>
<time>2026-04-22T20:24:32.003Z</time>
</trkpt>
<trkpt lat="59.1029490" lon="29.9912750">
<ele>72.847198</ele>
<time>2026-04-22T20:25:00.998Z</time>
</trkpt>
<trkpt lat="59.1029010" lon="29.9912150">
<ele>72.024239</ele>
<time>2026-04-22T20:25:31.999Z</time>
</trkpt>
<trkpt lat="59.1029600" lon="29.9912180">
<ele>72.085197</ele>
<time>2026-04-22T20:25:57.996Z</time>
</trkpt>
<trkpt lat="59.1029510" lon="29.9912100">
<ele>72.999603</ele>
<time>2026-04-22T20:26:31.001Z</time>
</trkpt>
<trkpt lat="59.1029640" lon="29.9912700">
<ele>73.030083</ele>
<time>2026-04-22T20:27:03.997Z</time>
</trkpt>
<trkpt lat="59.1029910" lon="29.9912520">
<ele>73.152000</ele>
<time>2026-04-22T20:27:30.004Z</time>
</trkpt>
<trkpt lat="59.1029920" lon="29.9912620">
<ele>73.334885</ele>
<time>2026-04-22T20:28:00.002Z</time>
</trkpt>
<trkpt lat="59.1029980" lon="29.9913460">
<ele>72.542397</ele>
<time>2026-04-22T20:28:21.999Z</time>
</trkpt>
<trkpt lat="59.1030070" lon="29.9914070">
<ele>71.963280</ele>
<time>2026-04-22T20:28:46.001Z</time>
</trkpt>
<trkpt lat="59.1030230" lon="29.9916380">
<ele>71.018402</ele>
<time>2026-04-22T20:29:06.996Z</time>
</trkpt>
<trkpt lat="59.1030410" lon="29.9918200">
<ele>69.890640</ele>
<time>2026-04-22T20:29:28.000Z</time>
</trkpt>
<trkpt lat="59.1030530" lon="29.9919010">
<ele>69.524879</ele>
<time>2026-04-22T20:29:48.002Z</time>
</trkpt>
<trkpt lat="59.1030370" lon="29.9919040">
<ele>69.982079</ele>
<time>2026-04-22T20:30:14.000Z</time>
</trkpt>
<trkpt lat="59.1029980" lon="29.9919920">
<ele>68.244720</ele>
<time>2026-04-22T20:30:43.998Z</time>
</trkpt>
<trkpt lat="59.1030040" lon="29.9919860">
<ele>66.598801</ele>
<time>2026-04-22T20:31:09.002Z</time>
</trkpt>
<trkpt lat="59.1030070" lon="29.9919650">
<ele>67.818001</ele>
<time>2026-04-22T20:31:39.000Z</time>
</trkpt>
<trkpt lat="59.1030210" lon="29.9919670">
<ele>66.598801</ele>
<time>2026-04-22T20:32:04.998Z</time>
</trkpt>
<trkpt lat="59.1030290" lon="29.9919500">
<ele>68.884804</ele>
<time>2026-04-22T20:32:31.998Z</time>
</trkpt>
<trkpt lat="59.1030660" lon="29.9920640">
<ele>68.214241</ele>
<time>2026-04-22T20:32:58.004Z</time>
</trkpt>
<trkpt lat="59.1031000" lon="29.9920660">
<ele>67.665604</ele>
<time>2026-04-22T20:33:24.002Z</time>
</trkpt>
<trkpt lat="59.1031180" lon="29.9921920">
<ele>70.043037</ele>
<time>2026-04-22T20:33:44.997Z</time>
</trkpt>
<trkpt lat="59.1031240" lon="29.9922660">
<ele>71.658485</ele>
<time>2026-04-22T20:34:07.997Z</time>
</trkpt>
<trkpt lat="59.1030680" lon="29.9923230">
<ele>71.841362</ele>
<time>2026-04-22T20:34:26.996Z</time>
</trkpt>
<trkpt lat="59.1030190" lon="29.9924050">
<ele>72.237602</ele>
<time>2026-04-22T20:34:37.001Z</time>
</trkpt>
<trkpt lat="59.1029630" lon="29.9924690">
<ele>72.725281</ele>
<time>2026-04-22T20:34:57.996Z</time>
</trkpt>
<trkpt lat="59.1029930" lon="29.9924070">
<ele>72.389999</ele>
<time>2026-04-22T20:35:21.998Z</time>
</trkpt>
<trkpt lat="59.1030310" lon="29.9924320">
<ele>74.218803</ele>
<time>2026-04-22T20:35:43.996Z</time>
</trkpt>
<trkpt lat="59.1030270" lon="29.9924020">
<ele>77.083916</ele>
<time>2026-04-22T20:36:15.998Z</time>
</trkpt>
<trkpt lat="59.1030400" lon="29.9923770">
<ele>78.486000</ele>
<time>2026-04-22T20:36:45.996Z</time>
</trkpt>
<trkpt lat="59.1030360" lon="29.9923860">
<ele>78.821281</ele>
<time>2026-04-22T20:37:05.998Z</time>
</trkpt>
<trkpt lat="59.1030020" lon="29.9924460">
<ele>79.583282</ele>
<time>2026-04-22T20:37:35.003Z</time>
</trkpt>
<trkpt lat="59.1029330" lon="29.9925110">
<ele>80.010002</ele>
<time>2026-04-22T20:38:10.003Z</time>
</trkpt>
<trkpt lat="59.1029210" lon="29.9924600">
<ele>79.400398</ele>
<time>2026-04-22T20:38:36.001Z</time>
</trkpt>
<trkpt lat="59.1029210" lon="29.9924850">
<ele>79.461365</ele>
<time>2026-04-22T20:38:40.001Z</time>
</trkpt>
<trkpt lat="59.1029180" lon="29.9925120">
<ele>81.564484</ele>
<time>2026-04-22T20:39:07.001Z</time>
</trkpt>
<trkpt lat="59.1028830" lon="29.9925410">
<ele>80.223366</ele>
<time>2026-04-22T20:39:32.999Z</time>
</trkpt>
<trkpt lat="59.1028270" lon="29.9924140">
<ele>79.583282</ele>
<time>2026-04-22T20:39:50.996Z</time>
</trkpt>
<trkpt lat="59.1028020" lon="29.9923730">
<ele>79.217522</ele>
<time>2026-04-22T20:40:13.996Z</time>
</trkpt>
<trkpt lat="59.1028070" lon="29.9924580">
<ele>78.028801</ele>
<time>2026-04-22T20:40:40.996Z</time>
</trkpt>
<trkpt lat="59.1027510" lon="29.9924760">
<ele>79.705200</ele>
<time>2026-04-22T20:41:07.996Z</time>
</trkpt>
<trkpt lat="59.1027840" lon="29.9924160">
<ele>79.187035</ele>
<time>2026-04-22T20:41:33.000Z</time>
</trkpt>
<trkpt lat="59.1027890" lon="29.9924050">
<ele>78.790802</ele>
<time>2026-04-22T20:42:10.999Z</time>
</trkpt>
<trkpt lat="59.1027940" lon="29.9924250">
<ele>79.278481</ele>
<time>2026-04-22T20:42:37.999Z</time>
</trkpt>
<trkpt lat="59.1028040" lon="29.9924520">
<ele>79.583282</ele>
<time>2026-04-22T20:43:03.003Z</time>
</trkpt>
<trkpt lat="59.1028860" lon="29.9923160">
<ele>79.705200</ele>
<time>2026-04-22T20:43:30.003Z</time>
</trkpt>
<trkpt lat="59.1029130" lon="29.9924330">
<ele>78.699364</ele>
<time>2026-04-22T20:43:53.996Z</time>
</trkpt>
<trkpt lat="59.1030190" lon="29.9924350">
<ele>79.369919</ele>
<time>2026-04-22T20:44:20.996Z</time>
</trkpt>
<trkpt lat="59.1030680" lon="29.9924670">
<ele>78.425034</ele>
<time>2026-04-22T20:44:43.002Z</time>
</trkpt>
<trkpt lat="59.1031110" lon="29.9925440">
<ele>78.425034</ele>
<time>2026-04-22T20:45:00.999Z</time>
</trkpt>
<trkpt lat="59.1031280" lon="29.9926520">
<ele>77.449684</ele>
<time>2026-04-22T20:45:14.996Z</time>
</trkpt>
<trkpt lat="59.1031160" lon="29.9927780">
<ele>76.779121</ele>
<time>2026-04-22T20:45:38.998Z</time>
</trkpt>
<trkpt lat="59.1031060" lon="29.9929230">
<ele>76.169518</ele>
<time>2026-04-22T20:46:01.998Z</time>
</trkpt>
<trkpt lat="59.1030980" lon="29.9930310">
<ele>74.797920</ele>
<time>2026-04-22T20:46:19.001Z</time>
</trkpt>
<trkpt lat="59.1031050" lon="29.9930380">
<ele>74.706482</ele>
<time>2026-04-22T20:46:23.002Z</time>
</trkpt>
<trkpt lat="59.1030800" lon="29.9931950">
<ele>74.767441</ele>
<time>2026-04-22T20:46:42.001Z</time>
</trkpt>
<trkpt lat="59.1030380" lon="29.9933880">
<ele>74.919838</ele>
<time>2026-04-22T20:47:02.996Z</time>
</trkpt>
<trkpt lat="59.1030860" lon="29.9935990">
<ele>72.694801</ele>
<time>2026-04-22T20:47:21.002Z</time>
</trkpt>
<trkpt lat="59.1031220" lon="29.9937410">
<ele>71.506081</ele>
<time>2026-04-22T20:47:41.997Z</time>
</trkpt>
<trkpt lat="59.1031420" lon="29.9939970">
<ele>68.671440</ele>
<time>2026-04-22T20:48:04.997Z</time>
</trkpt>
<trkpt lat="59.1031560" lon="29.9939950">
<ele>70.073517</ele>
<time>2026-04-22T20:48:35.004Z</time>
</trkpt>
<trkpt lat="59.1032060" lon="29.9939700">
<ele>70.622162</ele>
<time>2026-04-22T20:48:54.996Z</time>
</trkpt>
<trkpt lat="59.1032480" lon="29.9940010">
<ele>70.317360</ele>
<time>2026-04-22T20:49:29.004Z</time>
</trkpt>
<trkpt lat="59.1032360" lon="29.9940220">
<ele>68.823837</ele>
<time>2026-04-22T20:50:02.000Z</time>
</trkpt>
<trkpt lat="59.1031920" lon="29.9940680">
<ele>71.170799</ele>
<time>2026-04-22T20:50:38.003Z</time>
</trkpt>
<trkpt lat="59.1031580" lon="29.9941160">
<ele>72.786240</ele>
<time>2026-04-22T20:51:08.001Z</time>
</trkpt>
<trkpt lat="59.1032270" lon="29.9940840">
<ele>74.218803</ele>
<time>2026-04-22T20:51:33.998Z</time>
</trkpt>
<trkpt lat="59.1031860" lon="29.9939790">
<ele>73.761597</ele>
<time>2026-04-22T20:52:12.999Z</time>
</trkpt>
<trkpt lat="59.1032000" lon="29.9939680">
<ele>74.157845</ele>
<time>2026-04-22T20:52:34.997Z</time>
</trkpt>
<trkpt lat="59.1032060" lon="29.9940270">
<ele>75.498962</ele>
<time>2026-04-22T20:53:06.999Z</time>
</trkpt>
<trkpt lat="59.1031490" lon="29.9940840">
<ele>75.224640</ele>
<time>2026-04-22T20:53:31.001Z</time>
</trkpt>
<trkpt lat="59.1032040" lon="29.9941070">
<ele>75.011284</ele>
<time>2026-04-22T20:53:50.001Z</time>
</trkpt>
<trkpt lat="59.1031510" lon="29.9940990">
<ele>73.792084</ele>
<time>2026-04-22T20:54:11.998Z</time>
</trkpt>
<trkpt lat="59.1031630" lon="29.9941410">
<ele>73.792084</ele>
<time>2026-04-22T20:54:41.003Z</time>
</trkpt>
<trkpt lat="59.1031170" lon="29.9941650">
<ele>72.877686</ele>
<time>2026-04-22T20:55:12.003Z</time>
</trkpt>
<trkpt lat="59.1031330" lon="29.9941700">
<ele>72.847198</ele>
<time>2026-04-22T20:55:16.997Z</time>
</trkpt>
<trkpt lat="59.1031960" lon="29.9941900">
<ele>73.578720</ele>
<time>2026-04-22T20:55:47.004Z</time>
</trkpt>
<trkpt lat="59.1031580" lon="29.9942170">
<ele>74.797920</ele>
<time>2026-04-22T20:56:14.997Z</time>
</trkpt>
<trkpt lat="59.1031920" lon="29.9941690">
<ele>76.291443</ele>
<time>2026-04-22T20:56:42.999Z</time>
</trkpt>
<trkpt lat="59.1032540" lon="29.9942170">
<ele>76.291443</ele>
<time>2026-04-22T20:57:07.001Z</time>
</trkpt>
<trkpt lat="59.1033330" lon="29.9942140">
<ele>75.529442</ele>
<time>2026-04-22T20:57:26.001Z</time>
</trkpt>
<trkpt lat="59.1033540" lon="29.9942170">
<ele>75.255119</ele>
<time>2026-04-22T20:57:51.998Z</time>
</trkpt>
<trkpt lat="59.1033460" lon="29.9943430">
<ele>74.371201</ele>
<time>2026-04-22T20:58:09.002Z</time>
</trkpt>
<trkpt lat="59.1033640" lon="29.9943910">
<ele>73.914001</ele>
<time>2026-04-22T20:58:16.000Z</time>
</trkpt>
<trkpt lat="59.1033270" lon="29.9945750">
<ele>74.066399</ele>
<time>2026-04-22T20:58:39.000Z</time>
</trkpt>
<trkpt lat="59.1033660" lon="29.9946660">
<ele>72.603355</ele>
<time>2026-04-22T20:59:03.002Z</time>
</trkpt>
<trkpt lat="59.1033700" lon="29.9947500">
<ele>73.792084</ele>
<time>2026-04-22T20:59:30.002Z</time>
</trkpt>
<trkpt lat="59.1034100" lon="29.9948240">
<ele>74.767441</ele>
<time>2026-04-22T20:59:53.002Z</time>
</trkpt>
<trkpt lat="59.1034790" lon="29.9948750">
<ele>75.956161</ele>
<time>2026-04-22T21:00:13.003Z</time>
</trkpt>
<trkpt lat="59.1035560" lon="29.9948170">
<ele>77.723999</ele>
<time>2026-04-22T21:00:28.996Z</time>
</trkpt>
<trkpt lat="59.1036010" lon="29.9948880">
<ele>76.413361</ele>
<time>2026-04-22T21:00:45.999Z</time>
</trkpt>
<trkpt lat="59.1036030" lon="29.9950140">
<ele>74.767441</ele>
<time>2026-04-22T21:00:59.996Z</time>
</trkpt>
<trkpt lat="59.1035980" lon="29.9950280">
<ele>74.676003</ele>
<time>2026-04-22T21:01:00.998Z</time>
</trkpt>
<trkpt lat="59.1036210" lon="29.9951260">
<ele>76.870560</ele>
<time>2026-04-22T21:01:22.996Z</time>
</trkpt>
<trkpt lat="59.1035790" lon="29.9950920">
<ele>75.377045</ele>
<time>2026-04-22T21:01:54.998Z</time>
</trkpt>
<trkpt lat="59.1035490" lon="29.9951460">
<ele>73.456802</ele>
<time>2026-04-22T21:02:36.997Z</time>
</trkpt>
<trkpt lat="59.1034890" lon="29.9952330">
<ele>73.700638</ele>
<time>2026-04-22T21:02:54.001Z</time>
</trkpt>
<trkpt lat="59.1034320" lon="29.9953590">
<ele>74.950317</ele>
<time>2026-04-22T21:03:11.998Z</time>
</trkpt>
<trkpt lat="59.1034110" lon="29.9954780">
<ele>74.828400</ele>
<time>2026-04-22T21:03:34.998Z</time>
</trkpt>
<trkpt lat="59.1033130" lon="29.9954520">
<ele>75.834244</ele>
<time>2026-04-22T21:03:56.002Z</time>
</trkpt>
<trkpt lat="59.1033160" lon="29.9955060">
<ele>75.590401</ele>
<time>2026-04-22T21:04:17.999Z</time>
</trkpt>
<trkpt lat="59.1033370" lon="29.9956180">
<ele>76.779121</ele>
<time>2026-04-22T21:04:47.997Z</time>
</trkpt>
<trkpt lat="59.1033270" lon="29.9954710">
<ele>76.870560</ele>
<time>2026-04-22T21:05:14.997Z</time>
</trkpt>
<trkpt lat="59.1033170" lon="29.9954920">
<ele>77.480156</ele>
<time>2026-04-22T21:05:45.997Z</time>
</trkpt>
<trkpt lat="59.1033370" lon="29.9956760">
<ele>77.114403</ele>
<time>2026-04-22T21:06:08.004Z</time>
</trkpt>
<trkpt lat="59.1032630" lon="29.9958390">
<ele>76.870560</ele>
<time>2026-04-22T21:06:31.997Z</time>
</trkpt>
<trkpt lat="59.1032250" lon="29.9959010">
<ele>77.419197</ele>
<time>2026-04-22T21:06:54.003Z</time>
</trkpt>
<trkpt lat="59.1032030" lon="29.9959880">
<ele>77.541115</ele>
<time>2026-04-22T21:07:13.996Z</time>
</trkpt>
<trkpt lat="59.1031860" lon="29.9959950">
<ele>78.028801</ele>
<time>2026-04-22T21:07:18.998Z</time>
</trkpt>
<trkpt lat="59.1031170" lon="29.9959530">
<ele>79.308960</ele>
<time>2026-04-22T21:07:39.000Z</time>
</trkpt>
<trkpt lat="59.1030740" lon="29.9959640">
<ele>79.857597</ele>
<time>2026-04-22T21:08:02.000Z</time>
</trkpt>
<trkpt lat="59.1030470" lon="29.9958000">
<ele>79.156563</ele>
<time>2026-04-22T21:08:26.002Z</time>
</trkpt>
<trkpt lat="59.1030910" lon="29.9956800">
<ele>79.796638</ele>
<time>2026-04-22T21:08:43.999Z</time>
</trkpt>
<trkpt lat="59.1030810" lon="29.9955870">
<ele>80.467201</ele>
<time>2026-04-22T21:09:02.998Z</time>
</trkpt>
<trkpt lat="59.1030620" lon="29.9954920">
<ele>80.314796</ele>
<time>2026-04-22T21:09:18.999Z</time>
</trkpt>
<trkpt lat="59.1030280" lon="29.9953620">
<ele>80.406235</ele>
<time>2026-04-22T21:09:39.001Z</time>
</trkpt>
<trkpt lat="59.1030020" lon="29.9953250">
<ele>80.162399</ele>
<time>2026-04-22T21:09:56.998Z</time>
</trkpt>
<trkpt lat="59.1029590" lon="29.9952750">
<ele>80.436722</ele>
<time>2026-04-22T21:10:19.004Z</time>
</trkpt>
<trkpt lat="59.1029710" lon="29.9952270">
<ele>81.076797</ele>
<time>2026-04-22T21:10:49.002Z</time>
</trkpt>
<trkpt lat="59.1029520" lon="29.9951530">
<ele>81.137764</ele>
<time>2026-04-22T21:11:08.002Z</time>
</trkpt>
<trkpt lat="59.1028820" lon="29.9951520">
<ele>80.528160</ele>
<time>2026-04-22T21:11:32.997Z</time>
</trkpt>
<trkpt lat="59.1028990" lon="29.9950590">
<ele>79.126083</ele>
<time>2026-04-22T21:11:59.997Z</time>
</trkpt>
<trkpt lat="59.1029160" lon="29.9949120">
<ele>77.906883</ele>
<time>2026-04-22T21:12:26.004Z</time>
</trkpt>
<trkpt lat="59.1028210" lon="29.9948030">
<ele>78.150719</ele>
<time>2026-04-22T21:12:44.001Z</time>
</trkpt>
<trkpt lat="59.1027670" lon="29.9947500">
<ele>78.638397</ele>
<time>2026-04-22T21:12:54.999Z</time>
</trkpt>
<trkpt lat="59.1027900" lon="29.9946120">
<ele>79.735680</ele>
<time>2026-04-22T21:13:17.999Z</time>
</trkpt>
<trkpt lat="59.1028660" lon="29.9945270">
<ele>79.674721</ele>
<time>2026-04-22T21:13:39.003Z</time>
</trkpt>
<trkpt lat="59.1028770" lon="29.9944350">
<ele>79.949036</ele>
<time>2026-04-22T21:13:59.998Z</time>
</trkpt>
<trkpt lat="59.1028840" lon="29.9943860">
<ele>82.356964</ele>
<time>2026-04-22T21:14:30.998Z</time>
</trkpt>
<trkpt lat="59.1028830" lon="29.9943400">
<ele>82.021683</ele>
<time>2026-04-22T21:14:49.004Z</time>
</trkpt>
<trkpt lat="59.1028260" lon="29.9943340">
<ele>83.057999</ele>
<time>2026-04-22T21:15:16.998Z</time>
</trkpt>
<trkpt lat="59.1028360" lon="29.9943330">
<ele>84.277199</ele>
<time>2026-04-22T21:15:45.000Z</time>
</trkpt>
<trkpt lat="59.1028160" lon="29.9942840">
<ele>84.429604</ele>
<time>2026-04-22T21:16:12.000Z</time>
</trkpt>
<trkpt lat="59.1028130" lon="29.9942650">
<ele>84.978233</ele>
<time>2026-04-22T21:16:41.998Z</time>
</trkpt>
<trkpt lat="59.1027810" lon="29.9942750">
<ele>85.435440</ele>
<time>2026-04-22T21:17:11.996Z</time>
</trkpt>
<trkpt lat="59.1027990" lon="29.9942290">
<ele>85.496399</ele>
<time>2026-04-22T21:17:41.001Z</time>
</trkpt>
<trkpt lat="59.1028010" lon="29.9942400">
<ele>85.862167</ele>
<time>2026-04-22T21:18:08.001Z</time>
</trkpt>
<trkpt lat="59.1028340" lon="29.9942790">
<ele>86.258400</ele>
<time>2026-04-22T21:18:31.000Z</time>
</trkpt>
<trkpt lat="59.1028160" lon="29.9942320">
<ele>87.111839</ele>
<time>2026-04-22T21:18:52.998Z</time>
</trkpt>
<trkpt lat="59.1028360" lon="29.9941970">
<ele>87.416634</ele>
<time>2026-04-22T21:19:19.004Z</time>
</trkpt>
<trkpt lat="59.1028400" lon="29.9940590">
<ele>87.264236</ele>
<time>2026-04-22T21:19:42.004Z</time>
</trkpt>
<trkpt lat="59.1028140" lon="29.9939800">
<ele>85.161118</ele>
<time>2026-04-22T21:20:05.004Z</time>
</trkpt>
<trkpt lat="59.1027950" lon="29.9938830">
<ele>83.728561</ele>
<time>2026-04-22T21:20:32.004Z</time>
</trkpt>
<trkpt lat="59.1028340" lon="29.9939270">
<ele>84.124802</ele>
<time>2026-04-22T21:20:58.001Z</time>
</trkpt>
<trkpt lat="59.1028230" lon="29.9939180">
<ele>83.728561</ele>
<time>2026-04-22T21:21:02.002Z</time>
</trkpt>
<trkpt lat="59.1028380" lon="29.9938550">
<ele>83.332321</ele>
<time>2026-04-22T21:21:26.997Z</time>
</trkpt>
<trkpt lat="59.1028210" lon="29.9937780">
<ele>82.936081</ele>
<time>2026-04-22T21:21:48.001Z</time>
</trkpt>
<trkpt lat="59.1028060" lon="29.9937170">
<ele>81.259682</ele>
<time>2026-04-22T21:22:19.001Z</time>
</trkpt>
<trkpt lat="59.1028360" lon="29.9937340">
<ele>81.198715</ele>
<time>2026-04-22T21:22:40.999Z</time>
</trkpt>
<trkpt lat="59.1028000" lon="29.9936980">
<ele>79.735680</ele>
<time>2026-04-22T21:23:06.996Z</time>
</trkpt>
<trkpt lat="59.1027680" lon="29.9936260">
<ele>78.912720</ele>
<time>2026-04-22T21:23:28.000Z</time>
</trkpt>
<trkpt lat="59.1027740" lon="29.9936150">
<ele>78.912720</ele>
<time>2026-04-22T21:23:30.998Z</time>
</trkpt>
<trkpt lat="59.1027440" lon="29.9935430">
<ele>78.425034</ele>
<time>2026-04-22T21:23:48.002Z</time>
</trkpt>
<trkpt lat="59.1027230" lon="29.9934510">
<ele>78.150719</ele>
<time>2026-04-22T21:24:01.999Z</time>
</trkpt>
<trkpt lat="59.1027080" lon="29.9933880">
<ele>77.541115</ele>
<time>2026-04-22T21:24:31.003Z</time>
</trkpt>
<trkpt lat="59.1027320" lon="29.9934280">
<ele>77.693520</ele>
<time>2026-04-22T21:24:50.996Z</time>
</trkpt>
<trkpt lat="59.1027670" lon="29.9933590">
<ele>77.998322</ele>
<time>2026-04-22T21:25:10.998Z</time>
</trkpt>
<trkpt lat="59.1027940" lon="29.9931510">
<ele>78.303116</ele>
<time>2026-04-22T21:25:33.004Z</time>
</trkpt>
<trkpt lat="59.1028080" lon="29.9931160">
<ele>80.223366</ele>
<time>2026-04-22T21:25:57.999Z</time>
</trkpt>
<trkpt lat="59.1028100" lon="29.9929830">
<ele>80.101433</ele>
<time>2026-04-22T21:26:23.997Z</time>
</trkpt>
<trkpt lat="59.1027280" lon="29.9929390">
<ele>80.650085</ele>
<time>2026-04-22T21:26:43.999Z</time>
</trkpt>
<trkpt lat="59.1026760" lon="29.9928330">
<ele>79.705200</ele>
<time>2026-04-22T21:27:01.002Z</time>
</trkpt>
<trkpt lat="59.1026770" lon="29.9927860">
<ele>79.949036</ele>
<time>2026-04-22T21:27:20.002Z</time>
</trkpt>
<trkpt lat="59.1027210" lon="29.9926540">
<ele>79.949036</ele>
<time>2026-04-22T21:27:41.999Z</time>
</trkpt>
<trkpt lat="59.1027460" lon="29.9926360">
<ele>80.010002</ele>
<time>2026-04-22T21:27:59.003Z</time>
</trkpt>
<trkpt lat="59.1027480" lon="29.9925920">
<ele>80.314796</ele>
<time>2026-04-22T21:28:19.998Z</time>
</trkpt>
<trkpt lat="59.1027500" lon="29.9924370">
<ele>78.333603</ele>
<time>2026-04-22T21:28:38.997Z</time>
</trkpt>
<trkpt lat="59.1027100" lon="29.9922900">
<ele>76.718163</ele>
<time>2026-04-22T21:28:54.998Z</time>
</trkpt>
<trkpt lat="59.1026650" lon="29.9921130">
<ele>76.413361</ele>
<time>2026-04-22T21:29:13.998Z</time>
</trkpt>
<trkpt lat="59.1026900" lon="29.9920680">
<ele>76.352402</ele>
<time>2026-04-22T21:29:32.004Z</time>
</trkpt>
<trkpt lat="59.1026960" lon="29.9919490">
<ele>75.956161</ele>
<time>2026-04-22T21:29:51.996Z</time>
</trkpt>
<trkpt lat="59.1026570" lon="29.9918360">
<ele>75.590401</ele>
<time>2026-04-22T21:30:09.000Z</time>
</trkpt>
<trkpt lat="59.1026090" lon="29.9917750">
<ele>75.163681</ele>
<time>2026-04-22T21:30:26.004Z</time>
</trkpt>
<trkpt lat="59.1025580" lon="29.9917920">
<ele>73.974960</ele>
<time>2026-04-22T21:30:49.003Z</time>
</trkpt>
<trkpt lat="59.1025970" lon="29.9917450">
<ele>73.761597</ele>
<time>2026-04-22T21:31:12.003Z</time>
</trkpt>
<trkpt lat="59.1026100" lon="29.9917640">
<ele>73.578720</ele>
<time>2026-04-22T21:31:36.998Z</time>
</trkpt>
<trkpt lat="59.1025930" lon="29.9917660">
<ele>75.011284</ele>
<time>2026-04-22T21:32:02.996Z</time>
</trkpt>
<trkpt lat="59.1025570" lon="29.9917430">
<ele>75.194160</ele>
<time>2026-04-22T21:32:36.001Z</time>
</trkpt>
<trkpt lat="59.1025260" lon="29.9917960">
<ele>74.493118</ele>
<time>2026-04-22T21:32:56.003Z</time>
</trkpt>
<trkpt lat="59.1024780" lon="29.9918380">
<ele>73.853043</ele>
<time>2026-04-22T21:33:23.996Z</time>
</trkpt>
<trkpt lat="59.1024020" lon="29.9917630">
<ele>72.633842</ele>
<time>2026-04-22T21:33:43.998Z</time>
</trkpt>
<trkpt lat="59.1023880" lon="29.9918400">
<ele>73.060562</ele>
<time>2026-04-22T21:34:05.002Z</time>
</trkpt>
<trkpt lat="59.1023640" lon="29.9918930">
<ele>73.944481</ele>
<time>2026-04-22T21:34:37.004Z</time>
</trkpt>
<trkpt lat="59.1024060" lon="29.9918560">
<ele>74.554085</ele>
<time>2026-04-22T21:35:02.000Z</time>
</trkpt>
<trkpt lat="59.1024160" lon="29.9918920">
<ele>74.676003</ele>
<time>2026-04-22T21:35:26.002Z</time>
</trkpt>
<trkpt lat="59.1023690" lon="29.9919550">
<ele>75.072243</ele>
<time>2026-04-22T21:35:57.002Z</time>
</trkpt>
<trkpt lat="59.1023230" lon="29.9919300">
<ele>75.011284</ele>
<time>2026-04-22T21:36:25.004Z</time>
</trkpt>
<trkpt lat="59.1023420" lon="29.9919030">
<ele>75.498962</ele>
<time>2026-04-22T21:36:52.998Z</time>
</trkpt>
<trkpt lat="59.1023440" lon="29.9918840">
<ele>75.407516</ele>
<time>2026-04-22T21:37:22.002Z</time>
</trkpt>
<trkpt lat="59.1023590" lon="29.9919190">
<ele>75.163681</ele>
<time>2026-04-22T21:37:53.003Z</time>
</trkpt>
<trkpt lat="59.1023310" lon="29.9918740">
<ele>75.620880</ele>
<time>2026-04-22T21:38:20.996Z</time>
</trkpt>
<trkpt lat="59.1023900" lon="29.9918350">
<ele>74.615044</ele>
<time>2026-04-22T21:38:43.996Z</time>
</trkpt>
<trkpt lat="59.1024070" lon="29.9917720">
<ele>73.334885</ele>
<time>2026-04-22T21:39:14.996Z</time>
</trkpt>
<trkpt lat="59.1023310" lon="29.9918110">
<ele>75.194160</ele>
<time>2026-04-22T21:39:41.003Z</time>
</trkpt>
<trkpt lat="59.1023290" lon="29.9918290">
<ele>77.449684</ele>
<time>2026-04-22T21:40:08.996Z</time>
</trkpt>
<trkpt lat="59.1023760" lon="29.9918100">
<ele>77.723999</ele>
<time>2026-04-22T21:40:38.001Z</time>
</trkpt>
<trkpt lat="59.1023860" lon="29.9917830">
<ele>77.784958</ele>
<time>2026-04-22T21:41:03.998Z</time>
</trkpt>
<trkpt lat="59.1024030" lon="29.9917830">
<ele>78.455521</ele>
<time>2026-04-22T21:41:37.003Z</time>
</trkpt>
<trkpt lat="59.1024190" lon="29.9917970">
<ele>77.845917</ele>
<time>2026-04-22T21:42:08.004Z</time>
</trkpt>
<trkpt lat="59.1024490" lon="29.9918060">
<ele>77.327759</ele>
<time>2026-04-22T21:42:42.002Z</time>
</trkpt>
<trkpt lat="59.1024020" lon="29.9918320">
<ele>78.577438</ele>
<time>2026-04-22T21:43:08.000Z</time>
</trkpt>
<trkpt lat="59.1024050" lon="29.9919110">
<ele>77.784958</ele>
<time>2026-04-22T21:43:41.998Z</time>
</trkpt>
<trkpt lat="59.1023650" lon="29.9918250">
<ele>77.693520</ele>
<time>2026-04-22T21:44:22.001Z</time>
</trkpt>
<trkpt lat="59.1024190" lon="29.9918200">
<ele>74.828400</ele>
<time>2026-04-22T21:44:58.004Z</time>
</trkpt>
<trkpt lat="59.1023970" lon="29.9918290">
<ele>74.554085</ele>
<time>2026-04-22T21:45:27.000Z</time>
</trkpt>
<trkpt lat="59.1024040" lon="29.9918340">
<ele>74.188316</ele>
<time>2026-04-22T21:45:59.003Z</time>
</trkpt>
<trkpt lat="59.1023850" lon="29.9918760">
<ele>73.578720</ele>
<time>2026-04-22T21:46:31.999Z</time>
</trkpt>
<trkpt lat="59.1023710" lon="29.9918530">
<ele>74.615044</ele>
<time>2026-04-22T21:47:05.004Z</time>
</trkpt>
<trkpt lat="59.1023670" lon="29.9918550">
<ele>75.651360</ele>
<time>2026-04-22T21:47:38.000Z</time>
</trkpt>
<trkpt lat="59.1023820" lon="29.9917710">
<ele>76.230484</ele>
<time>2026-04-22T21:48:15.998Z</time>
</trkpt>
<trkpt lat="59.1024200" lon="29.9918510">
<ele>76.626717</ele>
<time>2026-04-22T21:48:41.996Z</time>
</trkpt>
<trkpt lat="59.1024010" lon="29.9918220">
<ele>75.316078</ele>
<time>2026-04-22T21:49:15.001Z</time>
</trkpt>
<trkpt lat="59.1023350" lon="29.9918440">
<ele>77.723999</ele>
<time>2026-04-22T21:49:50.002Z</time>
</trkpt>
<trkpt lat="59.1023180" lon="29.9918610">
<ele>78.546967</ele>
<time>2026-04-22T21:50:21.002Z</time>
</trkpt>
<trkpt lat="59.1022710" lon="29.9918120">
<ele>81.473038</ele>
<time>2026-04-22T21:50:53.998Z</time>
</trkpt>
<trkpt lat="59.1023050" lon="29.9918640">
<ele>82.204567</ele>
<time>2026-04-22T21:51:23.996Z</time>
</trkpt>
<trkpt lat="59.1022630" lon="29.9918760">
<ele>84.185760</ele>
<time>2026-04-22T21:51:58.003Z</time>
</trkpt>
<trkpt lat="59.1022940" lon="29.9918450">
<ele>81.838799</ele>
<time>2026-04-22T21:52:29.997Z</time>
</trkpt>
<trkpt lat="59.1023380" lon="29.9918730">
<ele>80.924400</ele>
<time>2026-04-22T21:53:04.004Z</time>
</trkpt>
<trkpt lat="59.1023170" lon="29.9918620">
<ele>79.705200</ele>
<time>2026-04-22T21:53:31.004Z</time>
</trkpt>
<trkpt lat="59.1023060" lon="29.9918650">
<ele>79.674721</ele>
<time>2026-04-22T21:53:57.002Z</time>
</trkpt>
<trkpt lat="59.1022920" lon="29.9918780">
<ele>82.295998</ele>
<time>2026-04-22T21:54:28.002Z</time>
</trkpt>
<trkpt lat="59.1023140" lon="29.9918380">
<ele>82.113121</ele>
<time>2026-04-22T21:54:55.996Z</time>
</trkpt>
<trkpt lat="59.1023180" lon="29.9918450">
<ele>82.143600</ele>
<time>2026-04-22T21:55:23.998Z</time>
</trkpt>
<trkpt lat="59.1022840" lon="29.9918280">
<ele>82.570320</ele>
<time>2026-04-22T21:55:57.003Z</time>
</trkpt>
<trkpt lat="59.1022850" lon="29.9918720">
<ele>82.692238</ele>
<time>2026-04-22T21:56:28.003Z</time>
</trkpt>
<trkpt lat="59.1022970" lon="29.9918610">
<ele>82.661766</ele>
<time>2026-04-22T21:56:58.001Z</time>
</trkpt>
<trkpt lat="59.1023000" lon="29.9918490">
<ele>81.838799</ele>
<time>2026-04-22T21:57:57.997Z</time>
</trkpt>
<trkpt lat="59.1023260" lon="29.9918300">
<ele>80.406235</ele>
<time>2026-04-22T21:58:28.998Z</time>
</trkpt>
<trkpt lat="59.1023310" lon="29.9917280">
<ele>77.297279</ele>
<time>2026-04-22T21:58:58.996Z</time>
</trkpt>
<trkpt lat="59.1023490" lon="29.9917600">
<ele>73.822556</ele>
<time>2026-04-22T21:59:29.996Z</time>
</trkpt>
<trkpt lat="59.1023650" lon="29.9917670">
<ele>73.334885</ele>
<time>2026-04-22T21:59:52.002Z</time>
</trkpt>
<trkpt lat="59.1024440" lon="29.9917250">
<ele>75.255119</ele>
<time>2026-04-22T22:00:24.998Z</time>
</trkpt>
<trkpt lat="59.1024670" lon="29.9917750">
<ele>74.919838</ele>
<time>2026-04-22T22:00:54.996Z</time>
</trkpt>
<trkpt lat="59.1024420" lon="29.9917640">
<ele>73.761597</ele>
<time>2026-04-22T22:01:22.999Z</time>
</trkpt>
<trkpt lat="59.1023880" lon="29.9917680">
<ele>72.877686</ele>
<time>2026-04-22T22:01:41.998Z</time>
</trkpt>
<trkpt lat="59.1024150" lon="29.9917390">
<ele>72.664322</ele>
<time>2026-04-22T22:02:07.002Z</time>
</trkpt>
<trkpt lat="59.1023960" lon="29.9917230">
<ele>72.115685</ele>
<time>2026-04-22T22:02:38.996Z</time>
</trkpt>
<trkpt lat="59.1023990" lon="29.9917180">
<ele>71.871841</ele>
<time>2026-04-22T22:02:46.997Z</time>
</trkpt>
<trkpt lat="59.1023900" lon="29.9917000">
<ele>71.445122</ele>
<time>2026-04-22T22:03:00.000Z</time>
</trkpt>
<trkpt lat="59.1023850" lon="29.9916980">
<ele>70.896484</ele>
<time>2026-04-22T22:03:02.998Z</time>
</trkpt>
</trkseg>
</trk>
<trk>
 <name>20260423_Lisa64</name>
 <desc>20250423_Lisa64</desc>
<trkseg>
<trkpt lat="59.1021150" lon="29.9783490">
<ele>73.609200</ele>
<time>2026-04-22T19:39:14.999Z</time>
</trkpt>
<trkpt lat="59.1021270" lon="29.9783870">
<ele>74.462639</ele>
<time>2026-04-22T19:39:44.004Z</time>
</trkpt>
<trkpt lat="59.1020840" lon="29.9783930">
<ele>70.835518</ele>
<time>2026-04-22T19:41:09.004Z</time>
</trkpt>
<trkpt lat="59.1021620" lon="29.9782280">
<ele>75.041756</ele>
<time>2026-04-22T19:43:04.996Z</time>
</trkpt>
<trkpt lat="59.1020950" lon="29.9782890">
<ele>72.633842</ele>
<time>2026-04-22T19:44:21.002Z</time>
</trkpt>
<trkpt lat="59.1020560" lon="29.9785480">
<ele>70.652641</ele>
<time>2026-04-22T19:45:27.003Z</time>
</trkpt>
<trkpt lat="59.1020420" lon="29.9784910">
<ele>69.342003</ele>
<time>2026-04-22T19:46:03.999Z</time>
</trkpt>
<trkpt lat="59.1021100" lon="29.9783040">
<ele>70.622162</ele>
<time>2026-04-22T19:47:12.998Z</time>
</trkpt>
<trkpt lat="59.1020800" lon="29.9782590">
<ele>71.688957</ele>
<time>2026-04-22T19:48:17.004Z</time>
</trkpt>
<trkpt lat="59.1020920" lon="29.9783210">
<ele>72.755760</ele>
<time>2026-04-22T19:49:34.997Z</time>
</trkpt>
<trkpt lat="59.1020900" lon="29.9782580">
<ele>73.731117</ele>
<time>2026-04-22T19:51:10.002Z</time>
</trkpt>
<trkpt lat="59.1021310" lon="29.9782290">
<ele>71.871841</ele>
<time>2026-04-22T19:52:17.999Z</time>
</trkpt>
<trkpt lat="59.1021030" lon="29.9782800">
<ele>70.683121</ele>
<time>2026-04-22T19:52:57.000Z</time>
</trkpt>
<trkpt lat="59.1021250" lon="29.9782670">
<ele>67.238884</ele>
<time>2026-04-22T19:54:20.998Z</time>
</trkpt>
<trkpt lat="59.1021220" lon="29.9781240">
<ele>70.865997</ele>
<time>2026-04-22T19:59:59.004Z</time>
</trkpt>
<trkpt lat="59.1021300" lon="29.9782050">
<ele>71.323196</ele>
<time>2026-04-22T20:01:30.000Z</time>
</trkpt>
<trkpt lat="59.1021550" lon="29.9781730">
<ele>70.805038</ele>
<time>2026-04-22T20:01:51.997Z</time>
</trkpt>
<trkpt lat="59.1021320" lon="29.9781810">
<ele>70.987915</ele>
<time>2026-04-22T20:02:24.000Z</time>
</trkpt>
<trkpt lat="59.1021260" lon="29.9781210">
<ele>72.786240</ele>
<time>2026-04-22T20:03:27.003Z</time>
</trkpt>
<trkpt lat="59.1021540" lon="29.9780730">
<ele>72.542397</ele>
<time>2026-04-22T20:04:28.001Z</time>
</trkpt>
<trkpt lat="59.1021560" lon="29.9781450">
<ele>72.511917</ele>
<time>2026-04-22T20:04:48.996Z</time>
</trkpt>
<trkpt lat="59.1021240" lon="29.9781650">
<ele>73.578720</ele>
<time>2026-04-22T20:05:19.997Z</time>
</trkpt>
<trkpt lat="59.1020600" lon="29.9779980">
<ele>74.005440</ele>
<time>2026-04-22T20:06:52.998Z</time>
</trkpt>
<trkpt lat="59.1007370" lon="29.9775600">
<ele>62.910717</ele>
<time>2026-04-22T20:07:57.996Z</time>
</trkpt>
<trkpt lat="59.0998710" lon="29.9773270">
<ele>68.793358</ele>
<time>2026-04-22T20:08:29.999Z</time>
</trkpt>
<trkpt lat="59.0992360" lon="29.9770630">
<ele>68.701920</ele>
<time>2026-04-22T20:08:56.999Z</time>
</trkpt>
<trkpt lat="59.0989590" lon="29.9769960">
<ele>67.086479</ele>
<time>2026-04-22T20:09:09.000Z</time>
</trkpt>
<trkpt lat="59.0982220" lon="29.9766700">
<ele>60.624718</ele>
<time>2026-04-22T20:09:44.001Z</time>
</trkpt>
<trkpt lat="59.0979470" lon="29.9766340">
<ele>60.228481</ele>
<time>2026-04-22T20:09:53.004Z</time>
</trkpt>
<trkpt lat="59.0965740" lon="29.9761710">
<ele>64.373756</ele>
<time>2026-04-22T20:10:55.004Z</time>
</trkpt>
<trkpt lat="59.0963090" lon="29.9761280">
<ele>62.514481</ele>
<time>2026-04-22T20:11:07.999Z</time>
</trkpt>
<trkpt lat="59.0961760" lon="29.9761830">
<ele>65.105286</ele>
<time>2026-04-22T20:11:25.002Z</time>
</trkpt>
<trkpt lat="59.0954740" lon="29.9760060">
<ele>67.391281</ele>
<time>2026-04-22T20:11:49.004Z</time>
</trkpt>
<trkpt lat="59.0949500" lon="29.9760250">
<ele>66.476883</ele>
<time>2026-04-22T20:12:03.001Z</time>
</trkpt>
<trkpt lat="59.0934350" lon="29.9758560">
<ele>70.835518</ele>
<time>2026-04-22T20:12:38.002Z</time>
</trkpt>
<trkpt lat="59.0931770" lon="29.9760600">
<ele>68.580002</ele>
<time>2026-04-22T20:12:50.003Z</time>
</trkpt>
<trkpt lat="59.0928460" lon="29.9788090">
<ele>60.045601</ele>
<time>2026-04-22T20:13:30.999Z</time>
</trkpt>
<trkpt lat="59.0926350" lon="29.9807430">
<ele>61.264801</ele>
<time>2026-04-22T20:14:00.997Z</time>
</trkpt>
<trkpt lat="59.0926000" lon="29.9814000">
<ele>60.594242</ele>
<time>2026-04-22T20:14:14.001Z</time>
</trkpt>
<trkpt lat="59.0925110" lon="29.9821480">
<ele>55.717442</ele>
<time>2026-04-22T20:14:29.000Z</time>
</trkpt>
<trkpt lat="59.0923660" lon="29.9838530">
<ele>59.466480</ele>
<time>2026-04-22T20:15:00.000Z</time>
</trkpt>
<trkpt lat="59.0922320" lon="29.9848030">
<ele>52.273201</ele>
<time>2026-04-22T20:15:14.999Z</time>
</trkpt>
<trkpt lat="59.0921350" lon="29.9858570">
<ele>52.577999</ele>
<time>2026-04-22T20:15:32.003Z</time>
</trkpt>
<trkpt lat="59.0921680" lon="29.9865180">
<ele>56.174641</ele>
<time>2026-04-22T20:15:44.004Z</time>
</trkpt>
<trkpt lat="59.0924930" lon="29.9882090">
<ele>64.312798</ele>
<time>2026-04-22T20:16:12.999Z</time>
</trkpt>
<trkpt lat="59.0926640" lon="29.9889180">
<ele>63.215519</ele>
<time>2026-04-22T20:16:26.003Z</time>
</trkpt>
<trkpt lat="59.0927090" lon="29.9893200">
<ele>58.948318</ele>
<time>2026-04-22T20:16:34.003Z</time>
</trkpt>
<trkpt lat="59.0932000" lon="29.9915540">
<ele>22.341841</ele>
<time>2026-04-22T20:17:29.999Z</time>
</trkpt>
<trkpt lat="59.0932980" lon="29.9921450">
<ele>12.435840</ele>
<time>2026-04-22T20:17:43.996Z</time>
</trkpt>
<trkpt lat="59.0932460" lon="29.9923930">
<ele>12.252960</ele>
<time>2026-04-22T20:17:48.998Z</time>
</trkpt>
<trkpt lat="59.0933290" lon="29.9933750">
<ele>16.428720</ele>
<time>2026-04-22T20:18:03.997Z</time>
</trkpt>
<trkpt lat="59.0934760" lon="29.9940120">
<ele>24.810720</ele>
<time>2026-04-22T20:18:14.996Z</time>
</trkpt>
<trkpt lat="59.0935430" lon="29.9945580">
<ele>33.588959</ele>
<time>2026-04-22T20:18:26.004Z</time>
</trkpt>
<trkpt lat="59.0936440" lon="29.9949370">
<ele>47.061119</ele>
<time>2026-04-22T20:18:59.000Z</time>
</trkpt>
<trkpt lat="59.0937190" lon="29.9950160">
<ele>65.867279</ele>
<time>2026-04-22T20:20:09.001Z</time>
</trkpt>
<trkpt lat="59.0936730" lon="29.9950680">
<ele>68.000885</ele>
<time>2026-04-22T20:21:03.001Z</time>
</trkpt>
<trkpt lat="59.0937300" lon="29.9949160">
<ele>69.220085</ele>
<time>2026-04-22T20:21:51.998Z</time>
</trkpt>
<trkpt lat="59.0937280" lon="29.9947960">
<ele>70.286880</ele>
<time>2026-04-22T20:22:13.002Z</time>
</trkpt>
<trkpt lat="59.0937580" lon="29.9949210">
<ele>69.677284</ele>
<time>2026-04-22T20:22:41.998Z</time>
</trkpt>
<trkpt lat="59.0938680" lon="29.9956530">
<ele>63.733681</ele>
<time>2026-04-22T20:23:31.998Z</time>
</trkpt>
<trkpt lat="59.0938900" lon="29.9960810">
<ele>53.522881</ele>
<time>2026-04-22T20:23:43.999Z</time>
</trkpt>
<trkpt lat="59.0940870" lon="29.9972270">
<ele>38.221920</ele>
<time>2026-04-22T20:24:08.001Z</time>
</trkpt>
<trkpt lat="59.0941860" lon="29.9979910">
<ele>30.083759</ele>
<time>2026-04-22T20:24:28.002Z</time>
</trkpt>
<trkpt lat="59.0943970" lon="29.9987480">
<ele>19.263361</ele>
<time>2026-04-22T20:24:50.000Z</time>
</trkpt>
<trkpt lat="59.0945180" lon="29.9996110">
<ele>4.053840</ele>
<time>2026-04-22T20:25:11.004Z</time>
</trkpt>
<trkpt lat="59.0944810" lon="29.9999520">
<ele>0.579120</ele>
<time>2026-04-22T20:25:17.000Z</time>
</trkpt>
<trkpt lat="59.0947560" lon="30.0010370">
<ele>-11.430000</ele>
<time>2026-04-22T20:25:44.000Z</time>
</trkpt>
<trkpt lat="59.0949450" lon="30.0020310">
<ele>-18.348961</ele>
<time>2026-04-22T20:26:05.997Z</time>
</trkpt>
<trkpt lat="59.0951200" lon="30.0035490">
<ele>7.284720</ele>
<time>2026-04-22T20:26:28.003Z</time>
</trkpt>
<trkpt lat="59.0951440" lon="30.0039760">
<ele>4.815840</ele>
<time>2026-04-22T20:26:40.998Z</time>
</trkpt>
<trkpt lat="59.0953740" lon="30.0044270">
<ele>3.444240</ele>
<time>2026-04-22T20:26:51.996Z</time>
</trkpt>
<trkpt lat="59.0955740" lon="30.0051680">
<ele>3.169920</ele>
<time>2026-04-22T20:27:06.002Z</time>
</trkpt>
<trkpt lat="59.0958140" lon="30.0066800">
<ele>10.546080</ele>
<time>2026-04-22T20:27:33.002Z</time>
</trkpt>
<trkpt lat="59.0962540" lon="30.0088590">
<ele>32.095440</ele>
<time>2026-04-22T20:28:08.003Z</time>
</trkpt>
<trkpt lat="59.0965650" lon="30.0100150">
<ele>24.810720</ele>
<time>2026-04-22T20:28:36.998Z</time>
</trkpt>
<trkpt lat="59.0965850" lon="30.0111310">
<ele>36.179760</ele>
<time>2026-04-22T20:28:51.997Z</time>
</trkpt>
<trkpt lat="59.0967490" lon="30.0118060">
<ele>32.948879</ele>
<time>2026-04-22T20:29:06.003Z</time>
</trkpt>
<trkpt lat="59.0969810" lon="30.0130420">
<ele>31.485842</ele>
<time>2026-04-22T20:29:28.000Z</time>
</trkpt>
<trkpt lat="59.0970520" lon="30.0132390">
<ele>28.224480</ele>
<time>2026-04-22T20:29:37.997Z</time>
</trkpt>
<trkpt lat="59.0970690" lon="30.0136650">
<ele>27.675840</ele>
<time>2026-04-22T20:29:45.997Z</time>
</trkpt>
<trkpt lat="59.0970410" lon="30.0142700">
<ele>22.555201</ele>
<time>2026-04-22T20:30:01.999Z</time>
</trkpt>
<trkpt lat="59.0971710" lon="30.0152640">
<ele>9.601200</ele>
<time>2026-04-22T20:30:30.001Z</time>
</trkpt>
<trkpt lat="59.0974100" lon="30.0164280">
<ele>28.041599</ele>
<time>2026-04-22T20:30:57.001Z</time>
</trkpt>
<trkpt lat="59.0977180" lon="30.0175190">
<ele>28.315920</ele>
<time>2026-04-22T20:31:35.000Z</time>
</trkpt>
<trkpt lat="59.0978810" lon="30.0187510">
<ele>38.648640</ele>
<time>2026-04-22T20:32:03.002Z</time>
</trkpt>
<trkpt lat="59.0979720" lon="30.0192390">
<ele>36.118801</ele>
<time>2026-04-22T20:32:18.001Z</time>
</trkpt>
<trkpt lat="59.0980420" lon="30.0194420">
<ele>34.137600</ele>
<time>2026-04-22T20:32:27.004Z</time>
</trkpt>
<trkpt lat="59.0980760" lon="30.0198580">
<ele>34.747200</ele>
<time>2026-04-22T20:32:38.003Z</time>
</trkpt>
<trkpt lat="59.0981920" lon="30.0202350">
<ele>30.114241</ele>
<time>2026-04-22T20:32:50.004Z</time>
</trkpt>
<trkpt lat="59.0983100" lon="30.0208140">
<ele>25.389841</ele>
<time>2026-04-22T20:33:09.003Z</time>
</trkpt>
<trkpt lat="59.0984480" lon="30.0219760">
<ele>17.830799</ele>
<time>2026-04-22T20:34:02.001Z</time>
</trkpt>
<trkpt lat="59.0985110" lon="30.0224090">
<ele>18.348961</ele>
<time>2026-04-22T20:34:18.002Z</time>
</trkpt>
<trkpt lat="59.0985760" lon="30.0226500">
<ele>17.282160</ele>
<time>2026-04-22T20:34:26.996Z</time>
</trkpt>
<trkpt lat="59.0985640" lon="30.0227850">
<ele>20.665442</ele>
<time>2026-04-22T20:34:39.999Z</time>
</trkpt>
<trkpt lat="59.0986970" lon="30.0234230">
<ele>30.845758</ele>
<time>2026-04-22T20:35:13.004Z</time>
</trkpt>
<trkpt lat="59.0986590" lon="30.0235920">
<ele>36.667442</ele>
<time>2026-04-22T20:35:38.000Z</time>
</trkpt>
<trkpt lat="59.0987920" lon="30.0241050">
<ele>44.256958</ele>
<time>2026-04-22T20:36:00.999Z</time>
</trkpt>
<trkpt lat="59.0990210" lon="30.0245710">
<ele>43.159683</ele>
<time>2026-04-22T20:36:18.996Z</time>
</trkpt>
<trkpt lat="59.0990680" lon="30.0247540">
<ele>40.081200</ele>
<time>2026-04-22T20:36:26.004Z</time>
</trkpt>
<trkpt lat="59.0991950" lon="30.0261090">
<ele>41.147999</ele>
<time>2026-04-22T20:36:59.000Z</time>
</trkpt>
<trkpt lat="59.0993550" lon="30.0267560">
<ele>36.576000</ele>
<time>2026-04-22T20:37:20.997Z</time>
</trkpt>
<trkpt lat="59.0995650" lon="30.0273980">
<ele>28.895041</ele>
<time>2026-04-22T20:37:39.996Z</time>
</trkpt>
<trkpt lat="59.0995630" lon="30.0285740">
<ele>44.378883</ele>
<time>2026-04-22T20:38:18.997Z</time>
</trkpt>
<trkpt lat="59.0997390" lon="30.0291060">
<ele>46.329601</ele>
<time>2026-04-22T20:38:44.002Z</time>
</trkpt>
<trkpt lat="59.0998260" lon="30.0296500">
<ele>44.683681</ele>
<time>2026-04-22T20:38:53.998Z</time>
</trkpt>
<trkpt lat="59.0999590" lon="30.0301500">
<ele>32.522160</ele>
<time>2026-04-22T20:39:18.000Z</time>
</trkpt>
<trkpt lat="59.0999450" lon="30.0308490">
<ele>43.007282</ele>
<time>2026-04-22T20:39:51.998Z</time>
</trkpt>
<trkpt lat="59.1001420" lon="30.0314780">
<ele>44.470318</ele>
<time>2026-04-22T20:40:13.996Z</time>
</trkpt>
<trkpt lat="59.1002750" lon="30.0323130">
<ele>36.454079</ele>
<time>2026-04-22T20:40:39.000Z</time>
</trkpt>
<trkpt lat="59.1003690" lon="30.0326180">
<ele>34.229042</ele>
<time>2026-04-22T20:40:48.996Z</time>
</trkpt>
<trkpt lat="59.1004580" lon="30.0327640">
<ele>32.552643</ele>
<time>2026-04-22T20:40:55.001Z</time>
</trkpt>
<trkpt lat="59.1003860" lon="30.0330870">
<ele>39.349682</ele>
<time>2026-04-22T20:41:11.003Z</time>
</trkpt>
<trkpt lat="59.1004510" lon="30.0333160">
<ele>41.391842</ele>
<time>2026-04-22T20:41:31.004Z</time>
</trkpt>
<trkpt lat="59.1004690" lon="30.0337030">
<ele>46.817284</ele>
<time>2026-04-22T20:41:46.003Z</time>
</trkpt>
<trkpt lat="59.1006140" lon="30.0343980">
<ele>48.280319</ele>
<time>2026-04-22T20:42:08.001Z</time>
</trkpt>
<trkpt lat="59.1008950" lon="30.0363140">
<ele>44.897041</ele>
<time>2026-04-22T20:42:55.002Z</time>
</trkpt>
<trkpt lat="59.1009900" lon="30.0365140">
<ele>55.686958</ele>
<time>2026-04-22T20:43:48.000Z</time>
</trkpt>
<trkpt lat="59.1010470" lon="30.0365470">
<ele>65.349121</ele>
<time>2026-04-22T20:44:43.996Z</time>
</trkpt>
<trkpt lat="59.1010480" lon="30.0364690">
<ele>65.531998</ele>
<time>2026-04-22T20:45:05.000Z</time>
</trkpt>
<trkpt lat="59.1009590" lon="30.0364720">
<ele>65.653915</ele>
<time>2026-04-22T20:45:29.002Z</time>
</trkpt>
<trkpt lat="59.1009840" lon="30.0365640">
<ele>65.531998</ele>
<time>2026-04-22T20:46:05.998Z</time>
</trkpt>
<trkpt lat="59.1010320" lon="30.0365690">
<ele>67.421761</ele>
<time>2026-04-22T20:46:28.998Z</time>
</trkpt>
<trkpt lat="59.1010120" lon="30.0364120">
<ele>67.726563</ele>
<time>2026-04-22T20:47:51.000Z</time>
</trkpt>
<trkpt lat="59.1009830" lon="30.0363750">
<ele>67.452240</ele>
<time>2026-04-22T20:48:19.996Z</time>
</trkpt>
<trkpt lat="59.1009730" lon="30.0365200">
<ele>68.214241</ele>
<time>2026-04-22T20:49:22.999Z</time>
</trkpt>
<trkpt lat="59.1009600" lon="30.0364730">
<ele>69.220085</ele>
<time>2026-04-22T20:49:52.003Z</time>
</trkpt>
<trkpt lat="59.1009470" lon="30.0365230">
<ele>68.793358</ele>
<time>2026-04-22T20:50:20.999Z</time>
</trkpt>
<trkpt lat="59.1009980" lon="30.0366070">
<ele>68.122803</ele>
<time>2026-04-22T20:51:10.999Z</time>
</trkpt>
<trkpt lat="59.1009610" lon="30.0365580">
<ele>67.391281</ele>
<time>2026-04-22T20:52:03.003Z</time>
</trkpt>
<trkpt lat="59.1009340" lon="30.0361580">
<ele>67.726563</ele>
<time>2026-04-22T20:52:46.998Z</time>
</trkpt>
<trkpt lat="59.1009190" lon="30.0361050">
<ele>71.018402</ele>
<time>2026-04-22T20:53:15.000Z</time>
</trkpt>
<trkpt lat="59.1008330" lon="30.0360920">
<ele>70.591682</ele>
<time>2026-04-22T20:53:51.003Z</time>
</trkpt>
<trkpt lat="59.1008480" lon="30.0360500">
<ele>71.201279</ele>
<time>2026-04-22T20:54:50.999Z</time>
</trkpt>
<trkpt lat="59.1008450" lon="30.0361430">
<ele>71.810883</ele>
<time>2026-04-22T20:55:43.003Z</time>
</trkpt>
<trkpt lat="59.1007950" lon="30.0362420">
<ele>72.633842</ele>
<time>2026-04-22T20:56:26.998Z</time>
</trkpt>
<trkpt lat="59.1007870" lon="30.0362130">
<ele>73.639679</ele>
<time>2026-04-22T20:56:55.000Z</time>
</trkpt>
<trkpt lat="59.1008580" lon="30.0362360">
<ele>72.816719</ele>
<time>2026-04-22T20:57:23.003Z</time>
</trkpt>
<trkpt lat="59.1008230" lon="30.0362720">
<ele>72.085197</ele>
<time>2026-04-22T20:57:46.996Z</time>
</trkpt>
<trkpt lat="59.1008140" lon="30.0361890">
<ele>72.572884</ele>
<time>2026-04-22T20:58:21.996Z</time>
</trkpt>
<trkpt lat="59.1008010" lon="30.0362690">
<ele>73.152000</ele>
<time>2026-04-22T20:58:56.997Z</time>
</trkpt>
<trkpt lat="59.1005230" lon="30.0363330">
<ele>73.182480</ele>
<time>2026-04-22T20:59:51.999Z</time>
</trkpt>
<trkpt lat="59.1002220" lon="30.0365070">
<ele>74.645515</ele>
<time>2026-04-22T21:01:07.003Z</time>
</trkpt>
<trkpt lat="59.0998950" lon="30.0364780">
<ele>79.583282</ele>
<time>2026-04-22T21:03:37.996Z</time>
</trkpt>
<trkpt lat="59.0999240" lon="30.0364990">
<ele>79.095596</ele>
<time>2026-04-22T21:04:04.996Z</time>
</trkpt>
<trkpt lat="59.0999330" lon="30.0364160">
<ele>78.973679</ele>
<time>2026-04-22T21:04:32.998Z</time>
</trkpt>
<trkpt lat="59.0997380" lon="30.0366430">
<ele>77.571602</ele>
<time>2026-04-22T21:05:52.002Z</time>
</trkpt>
<trkpt lat="59.0997350" lon="30.0366980">
<ele>77.327759</ele>
<time>2026-04-22T21:06:22.000Z</time>
</trkpt>
<trkpt lat="59.0994910" lon="30.0368770">
<ele>78.729836</ele>
<time>2026-04-22T21:07:08.000Z</time>
</trkpt>
<trkpt lat="59.0993940" lon="30.0368270">
<ele>77.175362</ele>
<time>2026-04-22T21:07:44.003Z</time>
</trkpt>
<trkpt lat="59.0992940" lon="30.0369130">
<ele>76.199997</ele>
<time>2026-04-22T21:08:07.996Z</time>
</trkpt>
<trkpt lat="59.0992790" lon="30.0368550">
<ele>75.925682</ele>
<time>2026-04-22T21:08:33.000Z</time>
</trkpt>
<trkpt lat="59.0992070" lon="30.0370240">
<ele>73.395844</ele>
<time>2026-04-22T21:09:54.000Z</time>
</trkpt>
<trkpt lat="59.0991190" lon="30.0369700">
<ele>73.853043</ele>
<time>2026-04-22T21:10:23.998Z</time>
</trkpt>
<trkpt lat="59.0989670" lon="30.0370300">
<ele>75.529442</ele>
<time>2026-04-22T21:11:00.001Z</time>
</trkpt>
<trkpt lat="59.0988900" lon="30.0369880">
<ele>77.205841</ele>
<time>2026-04-22T21:11:27.001Z</time>
</trkpt>
<trkpt lat="59.0988270" lon="30.0370790">
<ele>79.552803</ele>
<time>2026-04-22T21:12:27.999Z</time>
</trkpt>
<trkpt lat="59.0987800" lon="30.0370350">
<ele>80.802483</ele>
<time>2026-04-22T21:12:53.997Z</time>
</trkpt>
<trkpt lat="59.0989110" lon="30.0369850">
<ele>81.107285</ele>
<time>2026-04-22T21:13:51.997Z</time>
</trkpt>
<trkpt lat="59.0988540" lon="30.0368830">
<ele>82.265518</ele>
<time>2026-04-22T21:14:22.998Z</time>
</trkpt>
<trkpt lat="59.0988860" lon="30.0369330">
<ele>82.692238</ele>
<time>2026-04-22T21:14:53.998Z</time>
</trkpt>
<trkpt lat="59.0988280" lon="30.0370660">
<ele>83.393280</ele>
<time>2026-04-22T21:15:20.998Z</time>
</trkpt>
<trkpt lat="59.0987660" lon="30.0370730">
<ele>84.429604</ele>
<time>2026-04-22T21:15:49.000Z</time>
</trkpt>
<trkpt lat="59.0988950" lon="30.0369970">
<ele>83.149437</ele>
<time>2026-04-22T21:16:25.003Z</time>
</trkpt>
<trkpt lat="59.0988390" lon="30.0371230">
<ele>84.216240</ele>
<time>2026-04-22T21:16:59.002Z</time>
</trkpt>
<trkpt lat="59.0989160" lon="30.0370340">
<ele>84.886803</ele>
<time>2026-04-22T21:17:20.999Z</time>
</trkpt>
<trkpt lat="59.0989060" lon="30.0369190">
<ele>85.892639</ele>
<time>2026-04-22T21:17:53.002Z</time>
</trkpt>
<trkpt lat="59.0989480" lon="30.0369830">
<ele>87.172798</ele>
<time>2026-04-22T21:18:23.000Z</time>
</trkpt>
<trkpt lat="59.0988810" lon="30.0371020">
<ele>86.898483</ele>
<time>2026-04-22T21:18:55.996Z</time>
</trkpt>
<trkpt lat="59.0985010" lon="30.0371530">
<ele>83.240883</ele>
<time>2026-04-22T21:20:29.999Z</time>
</trkpt>
<trkpt lat="59.0984790" lon="30.0373290">
<ele>82.814163</ele>
<time>2026-04-22T21:20:50.001Z</time>
</trkpt>
<trkpt lat="59.0984180" lon="30.0374020">
<ele>82.570320</ele>
<time>2026-04-22T21:21:09.000Z</time>
</trkpt>
<trkpt lat="59.0983460" lon="30.0373390">
<ele>80.162399</ele>
<time>2026-04-22T21:21:34.004Z</time>
</trkpt>
<trkpt lat="59.0981930" lon="30.0374100">
<ele>80.589119</ele>
<time>2026-04-22T21:22:27.002Z</time>
</trkpt>
<trkpt lat="59.0981650" lon="30.0376050">
<ele>78.729836</ele>
<time>2026-04-22T21:23:15.999Z</time>
</trkpt>
<trkpt lat="59.0979620" lon="30.0376980">
<ele>80.040482</ele>
<time>2026-04-22T21:23:59.001Z</time>
</trkpt>
<trkpt lat="59.0980310" lon="30.0377730">
<ele>81.198715</ele>
<time>2026-04-22T21:24:55.999Z</time>
</trkpt>
<trkpt lat="59.0980340" lon="30.0378320">
<ele>81.686401</ele>
<time>2026-04-22T21:25:25.997Z</time>
</trkpt>
<trkpt lat="59.0979170" lon="30.0377250">
<ele>84.856316</ele>
<time>2026-04-22T21:25:53.999Z</time>
</trkpt>
<trkpt lat="59.0979750" lon="30.0378890">
<ele>88.239601</ele>
<time>2026-04-22T21:26:23.004Z</time>
</trkpt>
<trkpt lat="59.0980010" lon="30.0377780">
<ele>88.605362</ele>
<time>2026-04-22T21:26:50.004Z</time>
</trkpt>
<trkpt lat="59.0976630" lon="30.0378540">
<ele>85.069679</ele>
<time>2026-04-22T21:28:25.000Z</time>
</trkpt>
<trkpt lat="59.0972720" lon="30.0378130">
<ele>86.106003</ele>
<time>2026-04-22T21:29:36.004Z</time>
</trkpt>
<trkpt lat="59.0970890" lon="30.0379300">
<ele>85.892639</ele>
<time>2026-04-22T21:31:00.002Z</time>
</trkpt>
<trkpt lat="59.0971740" lon="30.0378590">
<ele>86.624161</ele>
<time>2026-04-22T21:31:24.004Z</time>
</trkpt>
<trkpt lat="59.0971380" lon="30.0379080">
<ele>86.532715</ele>
<time>2026-04-22T21:31:54.002Z</time>
</trkpt>
<trkpt lat="59.0971520" lon="30.0380240">
<ele>85.923119</ele>
<time>2026-04-22T21:32:25.996Z</time>
</trkpt>
<trkpt lat="59.0971020" lon="30.0381160">
<ele>85.709763</ele>
<time>2026-04-22T21:32:44.002Z</time>
</trkpt>
<trkpt lat="59.0969090" lon="30.0380590">
<ele>85.923119</ele>
<time>2026-04-22T21:33:43.998Z</time>
</trkpt>
<trkpt lat="59.0968470" lon="30.0381620">
<ele>84.612480</ele>
<time>2026-04-22T21:34:06.004Z</time>
</trkpt>
<trkpt lat="59.0967570" lon="30.0381980">
<ele>84.612480</ele>
<time>2026-04-22T21:34:32.002Z</time>
</trkpt>
<trkpt lat="59.0966650" lon="30.0382010">
<ele>84.703918</ele>
<time>2026-04-22T21:35:00.997Z</time>
</trkpt>
<trkpt lat="59.0966380" lon="30.0381600">
<ele>84.216240</ele>
<time>2026-04-22T21:35:27.997Z</time>
</trkpt>
<trkpt lat="59.0967020" lon="30.0382280">
<ele>84.399117</ele>
<time>2026-04-22T21:35:50.997Z</time>
</trkpt>
<trkpt lat="59.0966960" lon="30.0382920">
<ele>84.764885</ele>
<time>2026-04-22T21:36:24.002Z</time>
</trkpt>
<trkpt lat="59.0966330" lon="30.0382140">
<ele>84.764885</ele>
<time>2026-04-22T21:37:15.997Z</time>
</trkpt>
<trkpt lat="59.0966510" lon="30.0383010">
<ele>84.155281</ele>
<time>2026-04-22T21:37:34.997Z</time>
</trkpt>
<trkpt lat="59.0965300" lon="30.0382330">
<ele>84.277199</ele>
<time>2026-04-22T21:38:46.000Z</time>
</trkpt>
<trkpt lat="59.0965130" lon="30.0383310">
<ele>84.734398</ele>
<time>2026-04-22T21:39:05.000Z</time>
</trkpt>
<trkpt lat="59.0964290" lon="30.0384680">
<ele>86.776566</ele>
<time>2026-04-22T21:40:03.000Z</time>
</trkpt>
<trkpt lat="59.0964230" lon="30.0384210">
<ele>86.746078</ele>
<time>2026-04-22T21:40:31.002Z</time>
</trkpt>
<trkpt lat="59.0964420" lon="30.0384890">
<ele>87.965279</ele>
<time>2026-04-22T21:41:02.996Z</time>
</trkpt>
<trkpt lat="59.0963950" lon="30.0384330">
<ele>88.331039</ele>
<time>2026-04-22T21:41:33.003Z</time>
</trkpt>
<trkpt lat="59.0964560" lon="30.0384780">
<ele>87.721436</ele>
<time>2026-04-22T21:42:45.000Z</time>
</trkpt>
<trkpt lat="59.0963800" lon="30.0384860">
<ele>89.245438</ele>
<time>2026-04-22T21:43:40.002Z</time>
</trkpt>
<trkpt lat="59.0963820" lon="30.0384380">
<ele>90.037918</ele>
<time>2026-04-22T21:44:07.996Z</time>
</trkpt>
<trkpt lat="59.0965010" lon="30.0384590">
<ele>89.032082</ele>
<time>2026-04-22T21:44:46.003Z</time>
</trkpt>
<trkpt lat="59.0964780" lon="30.0385060">
<ele>88.696800</ele>
<time>2026-04-22T21:45:05.003Z</time>
</trkpt>
<trkpt lat="59.0963790" lon="30.0385300">
<ele>87.172798</ele>
<time>2026-04-22T21:45:35.001Z</time>
</trkpt>
<trkpt lat="59.0963740" lon="30.0384480">
<ele>86.197433</ele>
<time>2026-04-22T21:45:55.996Z</time>
</trkpt>
<trkpt lat="59.0964220" lon="30.0384070">
<ele>84.856316</ele>
<time>2026-04-22T21:47:20.003Z</time>
</trkpt>
<trkpt lat="59.0963450" lon="30.0384630">
<ele>83.454239</ele>
<time>2026-04-22T21:48:14.003Z</time>
</trkpt>
<trkpt lat="59.0963800" lon="30.0385060">
<ele>81.991203</ele>
<time>2026-04-22T21:48:42.998Z</time>
</trkpt>
<trkpt lat="59.0962750" lon="30.0384630">
<ele>81.655922</ele>
<time>2026-04-22T21:50:10.997Z</time>
</trkpt>
<trkpt lat="59.0962870" lon="30.0385230">
<ele>78.973679</ele>
<time>2026-04-22T21:50:40.001Z</time>
</trkpt>
<trkpt lat="59.0962890" lon="30.0384640">
<ele>77.602081</ele>
<time>2026-04-22T21:51:32.999Z</time>
</trkpt>
<trkpt lat="59.0961680" lon="30.0385560">
<ele>78.272636</ele>
<time>2026-04-22T21:52:10.998Z</time>
</trkpt>
<trkpt lat="59.0961170" lon="30.0384750">
<ele>78.729836</ele>
<time>2026-04-22T21:52:37.004Z</time>
</trkpt>
<trkpt lat="59.0959830" lon="30.0384620">
<ele>79.217522</ele>
<time>2026-04-22T21:53:03.002Z</time>
</trkpt>
<trkpt lat="59.0960600" lon="30.0385210">
<ele>80.711037</ele>
<time>2026-04-22T21:53:43.999Z</time>
</trkpt>
<trkpt lat="59.0957300" lon="30.0385920">
<ele>77.845917</ele>
<time>2026-04-22T21:54:58.000Z</time>
</trkpt>
<trkpt lat="59.0955750" lon="30.0385410">
<ele>77.663040</ele>
<time>2026-04-22T21:55:39.999Z</time>
</trkpt>
<trkpt lat="59.0955000" lon="30.0386880">
<ele>78.394562</ele>
<time>2026-04-22T21:56:19.000Z</time>
</trkpt>
<trkpt lat="59.0953490" lon="30.0387060">
<ele>78.364082</ele>
<time>2026-04-22T21:57:11.998Z</time>
</trkpt>
<trkpt lat="59.0954020" lon="30.0387360">
<ele>79.583282</ele>
<time>2026-04-22T21:58:07.000Z</time>
</trkpt>
<trkpt lat="59.0953970" lon="30.0388170">
<ele>78.546967</ele>
<time>2026-04-22T21:58:57.000Z</time>
</trkpt>
<trkpt lat="59.0953180" lon="30.0388990">
<ele>78.821281</ele>
<time>2026-04-22T21:59:22.004Z</time>
</trkpt>
<trkpt lat="59.0952600" lon="30.0388150">
<ele>79.034637</ele>
<time>2026-04-22T21:59:42.999Z</time>
</trkpt>
<trkpt lat="59.0951810" lon="30.0388130">
<ele>77.632561</ele>
<time>2026-04-22T22:00:07.001Z</time>
</trkpt>
<trkpt lat="59.0951250" lon="30.0388740">
<ele>77.906883</ele>
<time>2026-04-22T22:00:35.997Z</time>
</trkpt>
<trkpt lat="59.0950410" lon="30.0388540">
<ele>77.693520</ele>
<time>2026-04-22T22:00:55.999Z</time>
</trkpt>
<trkpt lat="59.0949850" lon="30.0389420">
<ele>77.022957</ele>
<time>2026-04-22T22:01:16.000Z</time>
</trkpt>
<trkpt lat="59.0949310" lon="30.0388960">
<ele>75.986641</ele>
<time>2026-04-22T22:01:33.004Z</time>
</trkpt>
<trkpt lat="59.0949680" lon="30.0389530">
<ele>74.950317</ele>
<time>2026-04-22T22:02:00.997Z</time>
</trkpt>
<trkpt lat="59.0949460" lon="30.0389730">
<ele>74.584557</ele>
<time>2026-04-22T22:02:27.997Z</time>
</trkpt>
<trkpt lat="59.0946320" lon="30.0390560">
<ele>73.243439</ele>
<time>2026-04-22T22:03:54.000Z</time>
</trkpt>
<trkpt lat="59.0946230" lon="30.0391390">
<ele>73.060562</ele>
<time>2026-04-22T22:04:12.999Z</time>
</trkpt>
<trkpt lat="59.0943940" lon="30.0391410">
<ele>73.091042</ele>
<time>2026-04-22T22:05:20.996Z</time>
</trkpt>
<trkpt lat="59.0943110" lon="30.0390250">
<ele>70.896484</ele>
<time>2026-04-22T22:06:45.003Z</time>
</trkpt>
<trkpt lat="59.0944790" lon="30.0387170">
<ele>71.414642</ele>
<time>2026-04-22T22:08:13.001Z</time>
</trkpt>
<trkpt lat="59.0944190" lon="30.0386000">
<ele>73.030083</ele>
<time>2026-04-22T22:08:40.001Z</time>
</trkpt>
<trkpt lat="59.0944340" lon="30.0384870">
<ele>73.182480</ele>
<time>2026-04-22T22:08:57.998Z</time>
</trkpt>
<trkpt lat="59.0944020" lon="30.0383390">
<ele>73.243439</ele>
<time>2026-04-22T22:09:19.002Z</time>
</trkpt>
<trkpt lat="59.0945640" lon="30.0379980">
<ele>73.639679</ele>
<time>2026-04-22T22:10:03.999Z</time>
</trkpt>
<trkpt lat="59.0947300" lon="30.0381120">
<ele>79.888084</ele>
<time>2026-04-22T22:11:43.999Z</time>
</trkpt>
<trkpt lat="59.0947390" lon="30.0381700">
<ele>79.644234</ele>
<time>2026-04-22T22:12:01.002Z</time>
</trkpt>
<trkpt lat="59.0949650" lon="30.0381200">
<ele>79.308960</ele>
<time>2026-04-22T22:13:07.003Z</time>
</trkpt>
<trkpt lat="59.0950430" lon="30.0379520">
<ele>79.766167</ele>
<time>2026-04-22T22:13:42.997Z</time>
</trkpt>
<trkpt lat="59.0949840" lon="30.0378580">
<ele>78.790802</ele>
<time>2026-04-22T22:14:05.004Z</time>
</trkpt>
<trkpt lat="59.0950250" lon="30.0380200">
<ele>77.053444</ele>
<time>2026-04-22T22:14:31.001Z</time>
</trkpt>
<trkpt lat="59.0949460" lon="30.0380340">
<ele>76.931519</ele>
<time>2026-04-22T22:15:25.001Z</time>
</trkpt>
<trkpt lat="59.0951060" lon="30.0378070">
<ele>75.407516</ele>
<time>2026-04-22T22:16:04.996Z</time>
</trkpt>
<trkpt lat="59.0951940" lon="30.0378080">
<ele>75.956161</ele>
<time>2026-04-22T22:16:27.002Z</time>
</trkpt>
<trkpt lat="59.0952870" lon="30.0378860">
<ele>77.114403</ele>
<time>2026-04-22T22:17:02.996Z</time>
</trkpt>
<trkpt lat="59.0953190" lon="30.0377870">
<ele>75.529442</ele>
<time>2026-04-22T22:17:33.003Z</time>
</trkpt>
<trkpt lat="59.0954390" lon="30.0377740">
<ele>73.944481</ele>
<time>2026-04-22T22:17:59.001Z</time>
</trkpt>
<trkpt lat="59.0956410" lon="30.0375920">
<ele>72.481438</ele>
<time>2026-04-22T22:18:57.001Z</time>
</trkpt>
<trkpt lat="59.0956500" lon="30.0374850">
<ele>72.054718</ele>
<time>2026-04-22T22:19:14.998Z</time>
</trkpt>
<trkpt lat="59.0958280" lon="30.0374030">
<ele>70.134483</ele>
<time>2026-04-22T22:20:37.000Z</time>
</trkpt>
<trkpt lat="59.0958270" lon="30.0374640">
<ele>69.372482</ele>
<time>2026-04-22T22:21:10.999Z</time>
</trkpt>
<trkpt lat="59.0958030" lon="30.0373440">
<ele>70.805038</ele>
<time>2026-04-22T22:22:02.001Z</time>
</trkpt>
<trkpt lat="59.0959270" lon="30.0374770">
<ele>71.597519</ele>
<time>2026-04-22T22:22:22.002Z</time>
</trkpt>
<trkpt lat="59.0957760" lon="30.0374130">
<ele>71.932800</ele>
<time>2026-04-22T22:22:46.998Z</time>
</trkpt>
<trkpt lat="59.0958470" lon="30.0373830">
<ele>71.841362</ele>
<time>2026-04-22T22:23:06.999Z</time>
</trkpt>
<trkpt lat="59.0958350" lon="30.0373120">
<ele>72.938644</ele>
<time>2026-04-22T22:23:23.001Z</time>
</trkpt>
<trkpt lat="59.0959470" lon="30.0373540">
<ele>75.194160</ele>
<time>2026-04-22T22:23:50.001Z</time>
</trkpt>
<trkpt lat="59.0959440" lon="30.0372500">
<ele>76.809601</ele>
<time>2026-04-22T22:24:26.004Z</time>
</trkpt>
<trkpt lat="59.0961840" lon="30.0371290">
<ele>77.358238</ele>
<time>2026-04-22T22:25:08.996Z</time>
</trkpt>
<trkpt lat="59.0965910" lon="30.0371340">
<ele>76.809601</ele>
<time>2026-04-22T22:26:22.004Z</time>
</trkpt>
<trkpt lat="59.0967770" lon="30.0368930">
<ele>77.419197</ele>
<time>2026-04-22T22:27:24.998Z</time>
</trkpt>
<trkpt lat="59.0967570" lon="30.0368480">
<ele>76.230484</ele>
<time>2026-04-22T22:27:50.996Z</time>
</trkpt>
<trkpt lat="59.0968460" lon="30.0368690">
<ele>76.870560</ele>
<time>2026-04-22T22:28:22.999Z</time>
</trkpt>
<trkpt lat="59.0971770" lon="30.0367330">
<ele>73.212959</ele>
<time>2026-04-22T22:29:23.004Z</time>
</trkpt>
<trkpt lat="59.0973710" lon="30.0367050">
<ele>76.474319</ele>
<time>2026-04-22T22:29:57.002Z</time>
</trkpt>
<trkpt lat="59.0976260" lon="30.0364680">
<ele>75.438004</ele>
<time>2026-04-22T22:31:37.001Z</time>
</trkpt>
<trkpt lat="59.0979980" lon="30.0363740">
<ele>74.279762</ele>
<time>2026-04-22T22:32:50.001Z</time>
</trkpt>
<trkpt lat="59.0981940" lon="30.0361240">
<ele>78.394562</ele>
<time>2026-04-22T22:33:59.000Z</time>
</trkpt>
<trkpt lat="59.0982340" lon="30.0361820">
<ele>76.870560</ele>
<time>2026-04-22T22:35:01.000Z</time>
</trkpt>
<trkpt lat="59.0982510" lon="30.0361090">
<ele>77.419197</ele>
<time>2026-04-22T22:35:20.000Z</time>
</trkpt>
<trkpt lat="59.0983590" lon="30.0361030">
<ele>76.931519</ele>
<time>2026-04-22T22:35:45.004Z</time>
</trkpt>
<trkpt lat="59.0987520" lon="30.0358810">
<ele>73.456802</ele>
<time>2026-04-22T22:36:47.998Z</time>
</trkpt>
<trkpt lat="59.0991680" lon="30.0358870">
<ele>74.462639</ele>
<time>2026-04-22T22:38:07.002Z</time>
</trkpt>
<trkpt lat="59.0991560" lon="30.0358560">
<ele>78.150719</ele>
<time>2026-04-22T22:38:35.998Z</time>
</trkpt>
<trkpt lat="59.0992160" lon="30.0357830">
<ele>77.571602</ele>
<time>2026-04-22T22:39:28.002Z</time>
</trkpt>
<trkpt lat="59.0992630" lon="30.0358480">
<ele>78.028801</ele>
<time>2026-04-22T22:39:58.000Z</time>
</trkpt>
<trkpt lat="59.0995570" lon="30.0357870">
<ele>73.853043</ele>
<time>2026-04-22T22:41:04.001Z</time>
</trkpt>
<trkpt lat="59.0998810" lon="30.0355620">
<ele>68.549515</ele>
<time>2026-04-22T22:42:09.000Z</time>
</trkpt>
<trkpt lat="59.0999550" lon="30.0353420">
<ele>66.111115</ele>
<time>2026-04-22T22:42:52.001Z</time>
</trkpt>
<trkpt lat="59.1000530" lon="30.0352600">
<ele>66.019684</ele>
<time>2026-04-22T22:43:16.003Z</time>
</trkpt>
<trkpt lat="59.1002050" lon="30.0353830">
<ele>74.767441</ele>
<time>2026-04-22T22:45:51.998Z</time>
</trkpt>
<trkpt lat="59.1003930" lon="30.0350680">
<ele>71.262238</ele>
<time>2026-04-22T22:46:51.001Z</time>
</trkpt>
<trkpt lat="59.1005440" lon="30.0349500">
<ele>70.164963</ele>
<time>2026-04-22T22:47:29.000Z</time>
</trkpt>
<trkpt lat="59.1007500" lon="30.0349310">
<ele>69.433441</ele>
<time>2026-04-22T22:48:43.001Z</time>
</trkpt>
<trkpt lat="59.1006610" lon="30.0349090">
<ele>71.567039</ele>
<time>2026-04-22T22:50:48.998Z</time>
</trkpt>
<trkpt lat="59.1006820" lon="30.0346750">
<ele>70.164963</ele>
<time>2026-04-22T22:51:11.998Z</time>
</trkpt>
<trkpt lat="59.1006350" lon="30.0343340">
<ele>68.214241</ele>
<time>2026-04-22T22:51:34.004Z</time>
</trkpt>
<trkpt lat="59.1006050" lon="30.0343010">
<ele>69.524879</ele>
<time>2026-04-22T22:51:49.997Z</time>
</trkpt>
<trkpt lat="59.1006830" lon="30.0345150">
<ele>63.733681</ele>
<time>2026-04-22T22:52:35.996Z</time>
</trkpt>
<trkpt lat="59.1006520" lon="30.0344740">
<ele>62.910717</ele>
<time>2026-04-22T22:53:06.996Z</time>
</trkpt>
<trkpt lat="59.1006310" lon="30.0345520">
<ele>63.459358</ele>
<time>2026-04-22T22:53:37.003Z</time>
</trkpt>
<trkpt lat="59.1006500" lon="30.0345440">
<ele>64.739517</ele>
<time>2026-04-22T22:54:04.003Z</time>
</trkpt>
<trkpt lat="59.1006430" lon="30.0344220">
<ele>64.556641</ele>
<time>2026-04-22T22:54:27.996Z</time>
</trkpt>
<trkpt lat="59.1006350" lon="30.0345500">
<ele>69.951599</ele>
<time>2026-04-22T22:55:17.996Z</time>
</trkpt>
<trkpt lat="59.1007130" lon="30.0344560">
<ele>71.048882</ele>
<time>2026-04-22T22:56:04.004Z</time>
</trkpt>
<trkpt lat="59.1005900" lon="30.0342000">
<ele>76.382881</ele>
<time>2026-04-22T22:57:52.998Z</time>
</trkpt>
<trkpt lat="59.1006080" lon="30.0343090">
<ele>76.321915</ele>
<time>2026-04-22T22:58:00.998Z</time>
</trkpt>
<trkpt lat="59.1006430" lon="30.0343350">
<ele>75.803757</ele>
<time>2026-04-22T22:58:22.002Z</time>
</trkpt>
<trkpt lat="59.1006240" lon="30.0341520">
<ele>73.761597</ele>
<time>2026-04-22T22:58:45.002Z</time>
</trkpt>
<trkpt lat="59.1005520" lon="30.0340430">
<ele>73.609200</ele>
<time>2026-04-22T22:59:29.999Z</time>
</trkpt>
<trkpt lat="59.1005690" lon="30.0340070">
<ele>75.742798</ele>
<time>2026-04-22T23:00:00.999Z</time>
</trkpt>
<trkpt lat="59.1001970" lon="30.0317310">
<ele>43.525440</ele>
<time>2026-04-22T23:02:42.999Z</time>
</trkpt>
<trkpt lat="59.1000590" lon="30.0305810">
<ele>30.053280</ele>
<time>2026-04-22T23:03:46.996Z</time>
</trkpt>
<trkpt lat="59.0998680" lon="30.0296240">
<ele>37.033199</ele>
<time>2026-04-22T23:04:48.996Z</time>
</trkpt>
<trkpt lat="59.0997080" lon="30.0285060">
<ele>36.484558</ele>
<time>2026-04-22T23:05:58.998Z</time>
</trkpt>
<trkpt lat="59.0994060" lon="30.0270520">
<ele>29.870399</ele>
<time>2026-04-22T23:07:22.002Z</time>
</trkpt>
<trkpt lat="59.0993810" lon="30.0266680">
<ele>30.053280</ele>
<time>2026-04-22T23:07:42.004Z</time>
</trkpt>
<trkpt lat="59.0992530" lon="30.0258840">
<ele>33.070801</ele>
<time>2026-04-22T23:08:27.001Z</time>
</trkpt>
<trkpt lat="59.0990560" lon="30.0251290">
<ele>40.660316</ele>
<time>2026-04-22T23:09:06.002Z</time>
</trkpt>
<trkpt lat="59.0988950" lon="30.0241380">
<ele>47.152557</ele>
<time>2026-04-22T23:10:08.996Z</time>
</trkpt>
<trkpt lat="59.0988270" lon="30.0242090">
<ele>66.080643</ele>
<time>2026-04-22T23:11:06.996Z</time>
</trkpt>
<trkpt lat="59.0987150" lon="30.0229080">
<ele>62.544960</ele>
<time>2026-04-22T23:12:51.998Z</time>
</trkpt>
<trkpt lat="59.0984450" lon="30.0213140">
<ele>41.788082</ele>
<time>2026-04-22T23:14:34.002Z</time>
</trkpt>
<trkpt lat="59.0984230" lon="30.0209820">
<ele>35.021519</ele>
<time>2026-04-22T23:14:54.997Z</time>
</trkpt>
<trkpt lat="59.0982030" lon="30.0199790">
<ele>23.896320</ele>
<time>2026-04-22T23:15:52.998Z</time>
</trkpt>
<trkpt lat="59.0981640" lon="30.0196060">
<ele>23.103842</ele>
<time>2026-04-22T23:16:11.997Z</time>
</trkpt>
<trkpt lat="59.0979860" lon="30.0186520">
<ele>24.749760</ele>
<time>2026-04-22T23:17:02.999Z</time>
</trkpt>
<trkpt lat="59.0979170" lon="30.0183270">
<ele>36.880798</ele>
<time>2026-04-22T23:17:20.996Z</time>
</trkpt>
<trkpt lat="59.0978270" lon="30.0182100">
<ele>64.434715</ele>
<time>2026-04-22T23:18:57.997Z</time>
</trkpt>
</trkseg>
</trk>
<trk>
 <name>20260423_Lisa65</name>
 <desc>20260423_Lisa65</desc>
<trkseg>
<trkpt lat="59.1021130" lon="29.9783490">
<ele>64.282318</ele>
<time>2026-04-22T19:53:09.001Z</time>
</trkpt>
<trkpt lat="59.1021090" lon="29.9782310">
<ele>67.177917</ele>
<time>2026-04-22T19:53:49.998Z</time>
</trkpt>
<trkpt lat="59.1020980" lon="29.9782960">
<ele>70.317360</ele>
<time>2026-04-22T19:54:03.001Z</time>
</trkpt>
<trkpt lat="59.1021220" lon="29.9783520">
<ele>72.298561</ele>
<time>2026-04-22T19:54:24.998Z</time>
</trkpt>
<trkpt lat="59.1021230" lon="29.9782150">
<ele>72.664322</ele>
<time>2026-04-22T19:54:49.000Z</time>
</trkpt>
<trkpt lat="59.1021170" lon="29.9782790">
<ele>70.530716</ele>
<time>2026-04-22T19:56:12.998Z</time>
</trkpt>
<trkpt lat="59.1021350" lon="29.9782760">
<ele>70.652641</ele>
<time>2026-04-22T19:56:50.997Z</time>
</trkpt>
<trkpt lat="59.1021050" lon="29.9782370">
<ele>72.481438</ele>
<time>2026-04-22T19:57:55.002Z</time>
</trkpt>
<trkpt lat="59.1021470" lon="29.9781330">
<ele>69.616318</ele>
<time>2026-04-22T19:58:38.004Z</time>
</trkpt>
<trkpt lat="59.1020910" lon="29.9783190">
<ele>75.803757</ele>
<time>2026-04-22T20:00:13.000Z</time>
</trkpt>
<trkpt lat="59.1020930" lon="29.9782600">
<ele>75.102715</ele>
<time>2026-04-22T20:00:30.997Z</time>
</trkpt>
<trkpt lat="59.1021220" lon="29.9782500">
<ele>77.083916</ele>
<time>2026-04-22T20:01:20.004Z</time>
</trkpt>
<trkpt lat="59.1020830" lon="29.9782000">
<ele>75.255119</ele>
<time>2026-04-22T20:05:18.001Z</time>
</trkpt>
<trkpt lat="59.1021630" lon="29.9784780">
<ele>76.901039</ele>
<time>2026-04-22T20:05:57.002Z</time>
</trkpt>
<trkpt lat="59.1021290" lon="29.9785250">
<ele>73.487282</ele>
<time>2026-04-22T20:06:28.996Z</time>
</trkpt>
<trkpt lat="59.1021460" lon="29.9785640">
<ele>76.657204</ele>
<time>2026-04-22T20:07:48.000Z</time>
</trkpt>
<trkpt lat="59.1021630" lon="29.9785100">
<ele>74.462639</ele>
<time>2026-04-22T20:10:20.997Z</time>
</trkpt>
<trkpt lat="59.1022190" lon="29.9785660">
<ele>81.442566</ele>
<time>2026-04-22T20:12:59.999Z</time>
</trkpt>
<trkpt lat="59.1021900" lon="29.9785450">
<ele>79.065117</ele>
<time>2026-04-22T20:13:26.999Z</time>
</trkpt>
<trkpt lat="59.1022000" lon="29.9783990">
<ele>81.869286</ele>
<time>2026-04-22T20:14:38.003Z</time>
</trkpt>
<trkpt lat="59.1021460" lon="29.9782660">
<ele>76.017120</ele>
<time>2026-04-22T20:14:53.002Z</time>
</trkpt>
<trkpt lat="59.1020560" lon="29.9782650">
<ele>65.227203</ele>
<time>2026-04-22T20:16:11.004Z</time>
</trkpt>
<trkpt lat="59.1021400" lon="29.9782510">
<ele>81.198715</ele>
<time>2026-04-22T20:18:46.999Z</time>
</trkpt>
<trkpt lat="59.1021180" lon="29.9782530">
<ele>78.181198</ele>
<time>2026-04-22T20:19:35.996Z</time>
</trkpt>
<trkpt lat="59.1021420" lon="29.9783520">
<ele>76.382881</ele>
<time>2026-04-22T20:21:00.003Z</time>
</trkpt>
<trkpt lat="59.1021070" lon="29.9782830">
<ele>72.268082</ele>
<time>2026-04-22T20:21:16.004Z</time>
</trkpt>
<trkpt lat="59.1020980" lon="29.9781650">
<ele>82.417915</ele>
<time>2026-04-22T20:23:57.002Z</time>
</trkpt>
<trkpt lat="59.1021200" lon="29.9781550">
<ele>79.004166</ele>
<time>2026-04-22T20:27:13.000Z</time>
</trkpt>
<trkpt lat="59.1020980" lon="29.9781260">
<ele>75.803757</ele>
<time>2026-04-22T20:28:24.997Z</time>
</trkpt>
<trkpt lat="59.1021320" lon="29.9781510">
<ele>80.284317</ele>
<time>2026-04-22T20:30:31.003Z</time>
</trkpt>
<trkpt lat="59.1021140" lon="29.9781910">
<ele>78.089767</ele>
<time>2026-04-22T20:30:59.999Z</time>
</trkpt>
<trkpt lat="59.1021300" lon="29.9781230">
<ele>76.779121</ele>
<time>2026-04-22T20:32:42.996Z</time>
</trkpt>
<trkpt lat="59.1021140" lon="29.9781690">
<ele>79.034637</ele>
<time>2026-04-22T20:34:52.000Z</time>
</trkpt>
<trkpt lat="59.1021970" lon="29.9781230">
<ele>76.596237</ele>
<time>2026-04-22T20:35:40.004Z</time>
</trkpt>
<trkpt lat="59.1018440" lon="29.9779120">
<ele>76.961998</ele>
<time>2026-04-22T20:36:13.000Z</time>
</trkpt>
<trkpt lat="59.1007800" lon="29.9776510">
<ele>66.903603</ele>
<time>2026-04-22T20:37:00.002Z</time>
</trkpt>
<trkpt lat="59.1000460" lon="29.9773170">
<ele>77.602081</ele>
<time>2026-04-22T20:37:30.000Z</time>
</trkpt>
<trkpt lat="59.0974510" lon="29.9765000">
<ele>68.610481</ele>
<time>2026-04-22T20:39:36.999Z</time>
</trkpt>
<trkpt lat="59.0971530" lon="29.9764420">
<ele>70.378319</ele>
<time>2026-04-22T20:39:53.001Z</time>
</trkpt>
<trkpt lat="59.0960360" lon="29.9760520">
<ele>75.194160</ele>
<time>2026-04-22T20:41:04.004Z</time>
</trkpt>
<trkpt lat="59.0957230" lon="29.9760040">
<ele>76.840080</ele>
<time>2026-04-22T20:41:19.003Z</time>
</trkpt>
<trkpt lat="59.0956530" lon="29.9761690">
<ele>75.803757</ele>
<time>2026-04-22T20:41:24.999Z</time>
</trkpt>
<trkpt lat="59.0955120" lon="29.9768270">
<ele>75.102715</ele>
<time>2026-04-22T20:41:42.996Z</time>
</trkpt>
<trkpt lat="59.0954380" lon="29.9775570">
<ele>73.152000</ele>
<time>2026-04-22T20:41:58.998Z</time>
</trkpt>
<trkpt lat="59.0953530" lon="29.9788660">
<ele>77.632561</ele>
<time>2026-04-22T20:42:32.003Z</time>
</trkpt>
<trkpt lat="59.0953670" lon="29.9790560">
<ele>72.420479</ele>
<time>2026-04-22T20:42:52.998Z</time>
</trkpt>
<trkpt lat="59.0953450" lon="29.9790780">
<ele>74.371201</ele>
<time>2026-04-22T20:43:14.002Z</time>
</trkpt>
<trkpt lat="59.0953660" lon="29.9791240">
<ele>71.262238</ele>
<time>2026-04-22T20:43:34.997Z</time>
</trkpt>
<trkpt lat="59.0953830" lon="29.9790990">
<ele>74.493118</ele>
<time>2026-04-22T20:43:57.003Z</time>
</trkpt>
<trkpt lat="59.0953620" lon="29.9791520">
<ele>79.339439</ele>
<time>2026-04-22T20:46:35.996Z</time>
</trkpt>
<trkpt lat="59.0953490" lon="29.9790930">
<ele>84.490562</ele>
<time>2026-04-22T20:47:51.000Z</time>
</trkpt>
<trkpt lat="59.0953600" lon="29.9792450">
<ele>79.004166</ele>
<time>2026-04-22T20:50:06.000Z</time>
</trkpt>
<trkpt lat="59.0951500" lon="29.9802500">
<ele>76.809601</ele>
<time>2026-04-22T20:51:56.998Z</time>
</trkpt>
<trkpt lat="59.0951140" lon="29.9812170">
<ele>72.877686</ele>
<time>2026-04-22T20:52:42.997Z</time>
</trkpt>
<trkpt lat="59.0951400" lon="29.9829150">
<ele>67.056000</ele>
<time>2026-04-22T20:53:55.003Z</time>
</trkpt>
<trkpt lat="59.0952370" lon="29.9831270">
<ele>67.787521</ele>
<time>2026-04-22T20:54:14.003Z</time>
</trkpt>
<trkpt lat="59.0953990" lon="29.9831240">
<ele>66.263519</ele>
<time>2026-04-22T20:54:29.002Z</time>
</trkpt>
<trkpt lat="59.0957100" lon="29.9827170">
<ele>60.015118</ele>
<time>2026-04-22T20:55:04.002Z</time>
</trkpt>
<trkpt lat="59.0958960" lon="29.9825120">
<ele>61.234318</ele>
<time>2026-04-22T20:55:23.002Z</time>
</trkpt>
<trkpt lat="59.0959890" lon="29.9825100">
<ele>76.017120</ele>
<time>2026-04-22T20:56:14.004Z</time>
</trkpt>
<trkpt lat="59.0959730" lon="29.9824810">
<ele>79.674721</ele>
<time>2026-04-22T20:57:01.999Z</time>
</trkpt>
<trkpt lat="59.0959760" lon="29.9826740">
<ele>74.554085</ele>
<time>2026-04-22T20:58:16.000Z</time>
</trkpt>
<trkpt lat="59.0958700" lon="29.9828270">
<ele>72.298561</ele>
<time>2026-04-22T20:59:07.996Z</time>
</trkpt>
<trkpt lat="59.0957090" lon="29.9829100">
<ele>72.389999</ele>
<time>2026-04-22T20:59:51.999Z</time>
</trkpt>
<trkpt lat="59.0955670" lon="29.9831170">
<ele>72.664322</ele>
<time>2026-04-22T21:00:35.001Z</time>
</trkpt>
<trkpt lat="59.0954780" lon="29.9833540">
<ele>65.928238</ele>
<time>2026-04-22T21:01:14.002Z</time>
</trkpt>
<trkpt lat="59.0954830" lon="29.9836770">
<ele>67.574158</ele>
<time>2026-04-22T21:01:49.996Z</time>
</trkpt>
<trkpt lat="59.0956100" lon="29.9837410">
<ele>69.128639</ele>
<time>2026-04-22T21:02:32.997Z</time>
</trkpt>
<trkpt lat="59.0958150" lon="29.9834900">
<ele>70.317360</ele>
<time>2026-04-22T21:03:25.001Z</time>
</trkpt>
<trkpt lat="59.0961080" lon="29.9829690">
<ele>82.143600</ele>
<time>2026-04-22T21:05:29.996Z</time>
</trkpt>
<trkpt lat="59.0963400" lon="29.9831010">
<ele>82.661766</ele>
<time>2026-04-22T21:07:35.000Z</time>
</trkpt>
<trkpt lat="59.0963720" lon="29.9833630">
<ele>73.426315</ele>
<time>2026-04-22T21:08:00.997Z</time>
</trkpt>
<trkpt lat="59.0963370" lon="29.9835250">
<ele>76.657204</ele>
<time>2026-04-22T21:08:22.001Z</time>
</trkpt>
<trkpt lat="59.0962830" lon="29.9834950">
<ele>67.848480</ele>
<time>2026-04-22T21:08:49.001Z</time>
</trkpt>
<trkpt lat="59.0962000" lon="29.9839580">
<ele>69.860161</ele>
<time>2026-04-22T21:10:02.001Z</time>
</trkpt>
<trkpt lat="59.0960590" lon="29.9840920">
<ele>73.152000</ele>
<time>2026-04-22T21:10:45.002Z</time>
</trkpt>
<trkpt lat="59.0960160" lon="29.9842140">
<ele>79.339439</ele>
<time>2026-04-22T21:11:16.996Z</time>
</trkpt>
<trkpt lat="59.0960200" lon="29.9841340">
<ele>87.812881</ele>
<time>2026-04-22T21:12:14.996Z</time>
</trkpt>
<trkpt lat="59.0959860" lon="29.9841170">
<ele>92.232483</ele>
<time>2026-04-22T21:13:01.004Z</time>
</trkpt>
<trkpt lat="59.0962160" lon="29.9844670">
<ele>75.986641</ele>
<time>2026-04-22T21:14:26.998Z</time>
</trkpt>
<trkpt lat="59.0962890" lon="29.9847400">
<ele>76.169518</ele>
<time>2026-04-22T21:15:00.996Z</time>
</trkpt>
<trkpt lat="59.0962910" lon="29.9849170">
<ele>74.980797</ele>
<time>2026-04-22T21:15:23.996Z</time>
</trkpt>
<trkpt lat="59.0961300" lon="29.9851630">
<ele>70.805038</ele>
<time>2026-04-22T21:16:17.996Z</time>
</trkpt>
<trkpt lat="59.0960870" lon="29.9853350">
<ele>74.797920</ele>
<time>2026-04-22T21:16:37.998Z</time>
</trkpt>
<trkpt lat="59.0961480" lon="29.9856710">
<ele>71.018402</ele>
<time>2026-04-22T21:17:45.001Z</time>
</trkpt>
<trkpt lat="59.0961830" lon="29.9856930">
<ele>80.619598</ele>
<time>2026-04-22T21:18:35.001Z</time>
</trkpt>
<trkpt lat="59.0961780" lon="29.9856550">
<ele>81.046318</ele>
<time>2026-04-22T21:18:59.996Z</time>
</trkpt>
<trkpt lat="59.0962480" lon="29.9857380">
<ele>78.425034</ele>
<time>2026-04-22T21:19:22.002Z</time>
</trkpt>
<trkpt lat="59.0962630" lon="29.9858140">
<ele>79.888084</ele>
<time>2026-04-22T21:19:45.002Z</time>
</trkpt>
<trkpt lat="59.0962350" lon="29.9859560">
<ele>80.985367</ele>
<time>2026-04-22T21:20:12.002Z</time>
</trkpt>
<trkpt lat="59.0963080" lon="29.9861800">
<ele>80.314796</ele>
<time>2026-04-22T21:20:56.999Z</time>
</trkpt>
<trkpt lat="59.0963160" lon="29.9862480">
<ele>75.011284</ele>
<time>2026-04-22T21:21:52.001Z</time>
</trkpt>
<trkpt lat="59.0962800" lon="29.9862260">
<ele>78.425034</ele>
<time>2026-04-22T21:23:29.003Z</time>
</trkpt>
<trkpt lat="59.0963240" lon="29.9863660">
<ele>83.576164</ele>
<time>2026-04-22T21:24:35.997Z</time>
</trkpt>
<trkpt lat="59.0963430" lon="29.9866230">
<ele>76.078079</ele>
<time>2026-04-22T21:25:17.003Z</time>
</trkpt>
<trkpt lat="59.0965580" lon="29.9869450">
<ele>72.694801</ele>
<time>2026-04-22T21:26:00.997Z</time>
</trkpt>
<trkpt lat="59.0967060" lon="29.9869560">
<ele>74.310242</ele>
<time>2026-04-22T21:26:26.002Z</time>
</trkpt>
<trkpt lat="59.0968170" lon="29.9871970">
<ele>70.530716</ele>
<time>2026-04-22T21:27:08.001Z</time>
</trkpt>
<trkpt lat="59.0968470" lon="29.9873410">
<ele>71.749916</ele>
<time>2026-04-22T21:27:31.000Z</time>
</trkpt>
<trkpt lat="59.0968280" lon="29.9875030">
<ele>76.504799</ele>
<time>2026-04-22T21:28:12.999Z</time>
</trkpt>
<trkpt lat="59.0968560" lon="29.9875370">
<ele>83.484718</ele>
<time>2026-04-22T21:29:01.003Z</time>
</trkpt>
<trkpt lat="59.0968290" lon="29.9876290">
<ele>75.316078</ele>
<time>2026-04-22T21:29:28.003Z</time>
</trkpt>
<trkpt lat="59.0968400" lon="29.9875220">
<ele>75.011284</ele>
<time>2026-04-22T21:29:51.996Z</time>
</trkpt>
<trkpt lat="59.0967950" lon="29.9874740">
<ele>79.461365</ele>
<time>2026-04-22T21:30:17.001Z</time>
</trkpt>
<trkpt lat="59.0967920" lon="29.9876220">
<ele>79.461365</ele>
<time>2026-04-22T21:31:09.998Z</time>
</trkpt>
<trkpt lat="59.0968850" lon="29.9877120">
<ele>76.291443</ele>
<time>2026-04-22T21:31:31.996Z</time>
</trkpt>
<trkpt lat="59.0969650" lon="29.9878410">
<ele>76.870560</ele>
<time>2026-04-22T21:31:54.002Z</time>
</trkpt>
<trkpt lat="59.0970040" lon="29.9880500">
<ele>75.407516</ele>
<time>2026-04-22T21:32:18.004Z</time>
</trkpt>
<trkpt lat="59.0970960" lon="29.9881810">
<ele>78.150719</ele>
<time>2026-04-22T21:32:53.998Z</time>
</trkpt>
<trkpt lat="59.0970710" lon="29.9882630">
<ele>73.731117</ele>
<time>2026-04-22T21:33:19.002Z</time>
</trkpt>
<trkpt lat="59.0970950" lon="29.9885090">
<ele>78.546967</ele>
<time>2026-04-22T21:34:06.004Z</time>
</trkpt>
<trkpt lat="59.0970520" lon="29.9885480">
<ele>81.168236</ele>
<time>2026-04-22T21:34:39.000Z</time>
</trkpt>
<trkpt lat="59.0969110" lon="29.9888850">
<ele>68.945763</ele>
<time>2026-04-22T21:35:41.001Z</time>
</trkpt>
<trkpt lat="59.0968450" lon="29.9888960">
<ele>69.921120</ele>
<time>2026-04-22T21:35:58.998Z</time>
</trkpt>
<trkpt lat="59.0964380" lon="29.9893560">
<ele>67.696083</ele>
<time>2026-04-22T21:37:39.999Z</time>
</trkpt>
<trkpt lat="59.0964590" lon="29.9895420">
<ele>80.467201</ele>
<time>2026-04-22T21:38:44.998Z</time>
</trkpt>
<trkpt lat="59.0964220" lon="29.9896020">
<ele>87.782402</ele>
<time>2026-04-22T21:39:37.002Z</time>
</trkpt>
<trkpt lat="59.0963610" lon="29.9895050">
<ele>85.100166</ele>
<time>2026-04-22T21:41:14.004Z</time>
</trkpt>
<trkpt lat="59.0962950" lon="29.9895040">
<ele>79.674721</ele>
<time>2026-04-22T21:41:40.001Z</time>
</trkpt>
<trkpt lat="59.0962820" lon="29.9895870">
<ele>81.168236</ele>
<time>2026-04-22T21:42:07.001Z</time>
</trkpt>
<trkpt lat="59.0959050" lon="29.9896000">
<ele>75.285599</ele>
<time>2026-04-22T21:44:08.998Z</time>
</trkpt>
<trkpt lat="59.0957200" lon="29.9897240">
<ele>73.456802</ele>
<time>2026-04-22T21:45:01.002Z</time>
</trkpt>
<trkpt lat="59.0955570" lon="29.9897310">
<ele>77.236320</ele>
<time>2026-04-22T21:45:24.002Z</time>
</trkpt>
<trkpt lat="59.0954600" lon="29.9898320">
<ele>68.762878</ele>
<time>2026-04-22T21:45:50.000Z</time>
</trkpt>
<trkpt lat="59.0953340" lon="29.9901960">
<ele>86.654633</ele>
<time>2026-04-22T21:46:57.003Z</time>
</trkpt>
<trkpt lat="59.0952860" lon="29.9901800">
<ele>89.428322</ele>
<time>2026-04-22T21:47:47.003Z</time>
</trkpt>
<trkpt lat="59.0950490" lon="29.9905290">
<ele>75.438004</ele>
<time>2026-04-22T21:49:24.997Z</time>
</trkpt>
<trkpt lat="59.0947390" lon="29.9907560">
<ele>71.658485</ele>
<time>2026-04-22T21:50:15.999Z</time>
</trkpt>
<trkpt lat="59.0947090" lon="29.9908220">
<ele>75.986641</ele>
<time>2026-04-22T21:50:40.001Z</time>
</trkpt>
<trkpt lat="59.0946670" lon="29.9908250">
<ele>79.766167</ele>
<time>2026-04-22T21:51:04.997Z</time>
</trkpt>
<trkpt lat="59.0946000" lon="29.9907420">
<ele>81.320633</ele>
<time>2026-04-22T21:51:49.000Z</time>
</trkpt>
<trkpt lat="59.0945390" lon="29.9908060">
<ele>79.644234</ele>
<time>2026-04-22T21:52:21.996Z</time>
</trkpt>
<trkpt lat="59.0945160" lon="29.9909310">
<ele>80.711037</ele>
<time>2026-04-22T21:52:48.996Z</time>
</trkpt>
<trkpt lat="59.0944550" lon="29.9909060">
<ele>83.301834</ele>
<time>2026-04-22T21:53:11.996Z</time>
</trkpt>
<trkpt lat="59.0944550" lon="29.9906660">
<ele>99.517197</ele>
<time>2026-04-22T21:54:52.998Z</time>
</trkpt>
<trkpt lat="59.0945190" lon="29.9907190">
<ele>112.623596</ele>
<time>2026-04-22T21:55:18.002Z</time>
</trkpt>
<trkpt lat="59.0945740" lon="29.9908620">
<ele>106.740967</ele>
<time>2026-04-22T21:56:56.999Z</time>
</trkpt>
<trkpt lat="59.0945620" lon="29.9907720">
<ele>106.680000</ele>
<time>2026-04-22T21:57:25.001Z</time>
</trkpt>
<trkpt lat="59.0945200" lon="29.9907580">
<ele>98.297997</ele>
<time>2026-04-22T21:57:54.999Z</time>
</trkpt>
<trkpt lat="59.0944850" lon="29.9908360">
<ele>85.161118</ele>
<time>2026-04-22T21:58:20.997Z</time>
</trkpt>
<trkpt lat="59.0944240" lon="29.9908400">
<ele>82.204567</ele>
<time>2026-04-22T21:59:41.997Z</time>
</trkpt>
<trkpt lat="59.0943780" lon="29.9907470">
<ele>83.240883</ele>
<time>2026-04-22T22:00:01.999Z</time>
</trkpt>
<trkpt lat="59.0943630" lon="29.9905580">
<ele>98.419922</ele>
<time>2026-04-22T22:01:09.002Z</time>
</trkpt>
<trkpt lat="59.0943230" lon="29.9906560">
<ele>82.448402</ele>
<time>2026-04-22T22:01:33.004Z</time>
</trkpt>
<trkpt lat="59.0943910" lon="29.9906620">
<ele>82.844635</ele>
<time>2026-04-22T22:01:57.999Z</time>
</trkpt>
<trkpt lat="59.0943380" lon="29.9907390">
<ele>81.991203</ele>
<time>2026-04-22T22:02:29.000Z</time>
</trkpt>
<trkpt lat="59.0942970" lon="29.9906310">
<ele>87.995766</ele>
<time>2026-04-22T22:03:25.004Z</time>
</trkpt>
<trkpt lat="59.0942600" lon="29.9906990">
<ele>85.069679</ele>
<time>2026-04-22T22:03:48.004Z</time>
</trkpt>
<trkpt lat="59.0942730" lon="29.9908100">
<ele>89.702637</ele>
<time>2026-04-22T22:04:12.999Z</time>
</trkpt>
<trkpt lat="59.0942340" lon="29.9907490">
<ele>85.313515</ele>
<time>2026-04-22T22:04:38.997Z</time>
</trkpt>
<trkpt lat="59.0943150" lon="29.9908250">
<ele>89.214966</ele>
<time>2026-04-22T22:05:25.999Z</time>
</trkpt>
<trkpt lat="59.0941810" lon="29.9911780">
<ele>84.094315</ele>
<time>2026-04-22T22:06:56.002Z</time>
</trkpt>
<trkpt lat="59.0942910" lon="29.9911950">
<ele>86.746078</ele>
<time>2026-04-22T22:08:07.999Z</time>
</trkpt>
<trkpt lat="59.0942310" lon="29.9912070">
<ele>82.997040</ele>
<time>2026-04-22T22:08:56.003Z</time>
</trkpt>
<trkpt lat="59.0940860" lon="29.9914220">
<ele>74.218803</ele>
<time>2026-04-22T22:10:10.998Z</time>
</trkpt>
<trkpt lat="59.0940900" lon="29.9913780">
<ele>76.382881</ele>
<time>2026-04-22T22:10:37.998Z</time>
</trkpt>
<trkpt lat="59.0940400" lon="29.9915360">
<ele>79.126083</ele>
<time>2026-04-22T22:12:09.003Z</time>
</trkpt>
<trkpt lat="59.0940760" lon="29.9916460">
<ele>83.362801</ele>
<time>2026-04-22T22:12:55.996Z</time>
</trkpt>
<trkpt lat="59.0945170" lon="29.9921250">
<ele>79.674721</ele>
<time>2026-04-22T22:15:37.002Z</time>
</trkpt>
<trkpt lat="59.0944920" lon="29.9923450">
<ele>78.577438</ele>
<time>2026-04-22T22:16:01.998Z</time>
</trkpt>
<trkpt lat="59.0944400" lon="29.9924710">
<ele>71.140320</ele>
<time>2026-04-22T22:16:23.002Z</time>
</trkpt>
<trkpt lat="59.0943410" lon="29.9925510">
<ele>66.720718</ele>
<time>2026-04-22T22:16:53.000Z</time>
</trkpt>
<trkpt lat="59.0941530" lon="29.9929980">
<ele>69.738243</ele>
<time>2026-04-22T22:18:19.002Z</time>
</trkpt>
<trkpt lat="59.0940690" lon="29.9930780">
<ele>73.243439</ele>
<time>2026-04-22T22:18:58.997Z</time>
</trkpt>
<trkpt lat="59.0939980" lon="29.9929820">
<ele>71.170799</ele>
<time>2026-04-22T22:19:21.003Z</time>
</trkpt>
<trkpt lat="59.0939310" lon="29.9930510">
<ele>72.511917</ele>
<time>2026-04-22T22:20:04.998Z</time>
</trkpt>
<trkpt lat="59.0939250" lon="29.9929620">
<ele>71.475601</ele>
<time>2026-04-22T22:20:31.004Z</time>
</trkpt>
<trkpt lat="59.0939450" lon="29.9930130">
<ele>70.957443</ele>
<time>2026-04-22T22:21:01.002Z</time>
</trkpt>
<trkpt lat="59.0939350" lon="29.9929840">
<ele>69.951599</ele>
<time>2026-04-22T22:21:58.000Z</time>
</trkpt>
<trkpt lat="59.0939640" lon="29.9929820">
<ele>71.963280</ele>
<time>2026-04-22T22:22:26.003Z</time>
</trkpt>
<trkpt lat="59.0939430" lon="29.9930160">
<ele>75.072243</ele>
<time>2026-04-22T22:22:52.000Z</time>
</trkpt>
<trkpt lat="59.0939210" lon="29.9929380">
<ele>70.591682</ele>
<time>2026-04-22T22:25:08.003Z</time>
</trkpt>
<trkpt lat="59.0939080" lon="29.9930160">
<ele>71.231758</ele>
<time>2026-04-22T22:26:30.998Z</time>
</trkpt>
<trkpt lat="59.0937860" lon="29.9929540">
<ele>70.195442</ele>
<time>2026-04-22T22:28:26.999Z</time>
</trkpt>
<trkpt lat="59.0936890" lon="29.9930900">
<ele>76.840080</ele>
<time>2026-04-22T22:29:14.001Z</time>
</trkpt>
<trkpt lat="59.0936930" lon="29.9932770">
<ele>68.823837</ele>
<time>2026-04-22T22:30:25.004Z</time>
</trkpt>
<trkpt lat="59.0936660" lon="29.9933320">
<ele>71.140320</ele>
<time>2026-04-22T22:31:07.003Z</time>
</trkpt>
<trkpt lat="59.0935530" lon="29.9933750">
<ele>69.768715</ele>
<time>2026-04-22T22:31:45.002Z</time>
</trkpt>
<trkpt lat="59.0935050" lon="29.9933660">
<ele>69.281044</ele>
<time>2026-04-22T22:31:58.999Z</time>
</trkpt>
<trkpt lat="59.0934620" lon="29.9932560">
<ele>69.250557</ele>
<time>2026-04-22T22:32:32.997Z</time>
</trkpt>
<trkpt lat="59.0934400" lon="29.9933070">
<ele>71.810883</ele>
<time>2026-04-22T22:33:46.999Z</time>
</trkpt>
<trkpt lat="59.0936360" lon="29.9942770">
<ele>70.561203</ele>
<time>2026-04-22T22:35:02.003Z</time>
</trkpt>
<trkpt lat="59.0935860" lon="29.9945290">
<ele>76.687683</ele>
<time>2026-04-22T22:35:49.998Z</time>
</trkpt>
<trkpt lat="59.0935960" lon="29.9945650">
<ele>73.487282</ele>
<time>2026-04-22T22:36:54.003Z</time>
</trkpt>
<trkpt lat="59.0936110" lon="29.9945430">
<ele>76.718163</ele>
<time>2026-04-22T22:37:53.999Z</time>
</trkpt>
<trkpt lat="59.0935580" lon="29.9946130">
<ele>73.639679</ele>
<time>2026-04-22T22:38:23.004Z</time>
</trkpt>
<trkpt lat="59.0935240" lon="29.9947510">
<ele>72.024239</ele>
<time>2026-04-22T22:38:42.003Z</time>
</trkpt>
<trkpt lat="59.0935640" lon="29.9953090">
<ele>70.652641</ele>
<time>2026-04-22T22:39:41.999Z</time>
</trkpt>
<trkpt lat="59.0937950" lon="29.9952460">
<ele>64.008003</ele>
<time>2026-04-22T22:40:49.996Z</time>
</trkpt>
<trkpt lat="59.0939450" lon="29.9952960">
<ele>70.561203</ele>
<time>2026-04-22T22:41:32.004Z</time>
</trkpt>
<trkpt lat="59.0941190" lon="29.9955730">
<ele>68.000885</ele>
<time>2026-04-22T22:42:14.996Z</time>
</trkpt>
<trkpt lat="59.0942040" lon="29.9959930">
<ele>67.208397</ele>
<time>2026-04-22T22:43:00.002Z</time>
</trkpt>
<trkpt lat="59.0941760" lon="29.9962770">
<ele>82.905602</ele>
<time>2026-04-22T22:43:34.000Z</time>
</trkpt>
<trkpt lat="59.0941180" lon="29.9962330">
<ele>87.416634</ele>
<time>2026-04-22T22:44:02.003Z</time>
</trkpt>
<trkpt lat="59.0941830" lon="29.9963140">
<ele>90.556084</ele>
<time>2026-04-22T22:44:29.996Z</time>
</trkpt>
<trkpt lat="59.0940640" lon="29.9964980">
<ele>90.342720</ele>
<time>2026-04-22T22:45:23.003Z</time>
</trkpt>
<trkpt lat="59.0941600" lon="29.9963650">
<ele>85.618317</ele>
<time>2026-04-22T22:46:48.996Z</time>
</trkpt>
<trkpt lat="59.0942410" lon="29.9964340">
<ele>87.386162</ele>
<time>2026-04-22T22:47:15.003Z</time>
</trkpt>
<trkpt lat="59.0942900" lon="29.9969360">
<ele>73.487282</ele>
<time>2026-04-22T22:48:24.002Z</time>
</trkpt>
<trkpt lat="59.0942670" lon="29.9971750">
<ele>70.591682</ele>
<time>2026-04-22T22:48:45.999Z</time>
</trkpt>
<trkpt lat="59.0944080" lon="29.9979750">
<ele>69.646797</ele>
<time>2026-04-22T22:50:09.004Z</time>
</trkpt>
<trkpt lat="59.0944520" lon="29.9979400">
<ele>63.124081</ele>
<time>2026-04-22T22:50:28.997Z</time>
</trkpt>
<trkpt lat="59.0946230" lon="29.9979710">
<ele>60.380882</ele>
<time>2026-04-22T22:51:33.002Z</time>
</trkpt>
<trkpt lat="59.0946700" lon="29.9980260">
<ele>76.260956</ele>
<time>2026-04-22T22:52:00.002Z</time>
</trkpt>
<trkpt lat="59.0946690" lon="29.9984550">
<ele>74.706482</ele>
<time>2026-04-22T22:53:29.003Z</time>
</trkpt>
<trkpt lat="59.0944330" lon="29.9988770">
<ele>66.111115</ele>
<time>2026-04-22T22:55:48.003Z</time>
</trkpt>
<trkpt lat="59.0944640" lon="29.9990520">
<ele>66.476883</ele>
<time>2026-04-22T22:56:15.003Z</time>
</trkpt>
<trkpt lat="59.0945430" lon="29.9990020">
<ele>80.528160</ele>
<time>2026-04-22T22:56:42.996Z</time>
</trkpt>
<trkpt lat="59.0945790" lon="29.9992920">
<ele>79.949036</ele>
<time>2026-04-22T22:58:35.999Z</time>
</trkpt>
<trkpt lat="59.0946600" lon="29.9993610">
<ele>71.445122</ele>
<time>2026-04-22T22:59:23.001Z</time>
</trkpt>
<trkpt lat="59.0945960" lon="29.9994940">
<ele>68.762878</ele>
<time>2026-04-22T22:59:43.002Z</time>
</trkpt>
<trkpt lat="59.0946050" lon="29.9998050">
<ele>71.567039</ele>
<time>2026-04-22T23:00:18.996Z</time>
</trkpt>
<trkpt lat="59.0946360" lon="29.9999390">
<ele>71.567039</ele>
<time>2026-04-22T23:00:34.004Z</time>
</trkpt>
<trkpt lat="59.0948020" lon="30.0000640">
<ele>75.163681</ele>
<time>2026-04-22T23:01:20.004Z</time>
</trkpt>
<trkpt lat="59.0947790" lon="30.0000900">
<ele>71.170799</ele>
<time>2026-04-22T23:01:43.997Z</time>
</trkpt>
<trkpt lat="59.0948330" lon="30.0001870">
<ele>74.249283</ele>
<time>2026-04-22T23:02:33.003Z</time>
</trkpt>
<trkpt lat="59.0948320" lon="30.0003040">
<ele>75.468483</ele>
<time>2026-04-22T23:02:56.996Z</time>
</trkpt>
<trkpt lat="59.0949400" lon="30.0008110">
<ele>71.993759</ele>
<time>2026-04-22T23:03:58.003Z</time>
</trkpt>
<trkpt lat="59.0949740" lon="30.0012840">
<ele>72.481438</ele>
<time>2026-04-22T23:05:16.999Z</time>
</trkpt>
<trkpt lat="59.0951120" lon="30.0012770">
<ele>90.129364</ele>
<time>2026-04-22T23:06:47.002Z</time>
</trkpt>
<trkpt lat="59.0950240" lon="30.0013540">
<ele>79.156563</ele>
<time>2026-04-22T23:07:38.997Z</time>
</trkpt>
<trkpt lat="59.0950660" lon="30.0014760">
<ele>76.626717</ele>
<time>2026-04-22T23:08:05.004Z</time>
</trkpt>
<trkpt lat="59.0951590" lon="30.0015050">
<ele>71.201279</ele>
<time>2026-04-22T23:08:58.001Z</time>
</trkpt>
<trkpt lat="59.0951860" lon="30.0018570">
<ele>72.268082</ele>
<time>2026-04-22T23:09:45.996Z</time>
</trkpt>
<trkpt lat="59.0953880" lon="30.0023080">
<ele>74.371201</ele>
<time>2026-04-22T23:11:14.997Z</time>
</trkpt>
<trkpt lat="59.0954770" lon="30.0024100">
<ele>77.998322</ele>
<time>2026-04-22T23:12:04.003Z</time>
</trkpt>
<trkpt lat="59.0955600" lon="30.0029400">
<ele>78.577438</ele>
<time>2026-04-22T23:14:08.998Z</time>
</trkpt>
<trkpt lat="59.0956360" lon="30.0031420">
<ele>73.578720</ele>
<time>2026-04-22T23:14:53.002Z</time>
</trkpt>
<trkpt lat="59.0957730" lon="30.0033130">
<ele>74.310242</ele>
<time>2026-04-22T23:15:44.004Z</time>
</trkpt>
<trkpt lat="59.0958070" lon="30.0034910">
<ele>70.164963</ele>
<time>2026-04-22T23:16:08.999Z</time>
</trkpt>
<trkpt lat="59.0957700" lon="30.0040740">
<ele>72.816719</ele>
<time>2026-04-22T23:18:18.996Z</time>
</trkpt>
<trkpt lat="59.0957690" lon="30.0040090">
<ele>74.310242</ele>
<time>2026-04-22T23:18:45.003Z</time>
</trkpt>
<trkpt lat="59.0958230" lon="30.0041830">
<ele>73.853043</ele>
<time>2026-04-22T23:19:39.003Z</time>
</trkpt>
<trkpt lat="59.0956930" lon="30.0046120">
<ele>59.801758</ele>
<time>2026-04-22T23:20:36.001Z</time>
</trkpt>
<trkpt lat="59.0956520" lon="30.0049350">
<ele>59.923683</ele>
<time>2026-04-22T23:21:19.996Z</time>
</trkpt>
<trkpt lat="59.0956820" lon="30.0053160">
<ele>60.106560</ele>
<time>2026-04-22T23:21:58.003Z</time>
</trkpt>
<trkpt lat="59.0958200" lon="30.0059370">
<ele>66.019684</ele>
<time>2026-04-22T23:22:59.002Z</time>
</trkpt>
<trkpt lat="59.0961740" lon="30.0058690">
<ele>69.677284</ele>
<time>2026-04-22T23:24:17.004Z</time>
</trkpt>
<trkpt lat="59.0964900" lon="30.0056990">
<ele>68.762878</ele>
<time>2026-04-22T23:25:26.996Z</time>
</trkpt>
<trkpt lat="59.0964960" lon="30.0055580">
<ele>67.421761</ele>
<time>2026-04-22T23:25:49.996Z</time>
</trkpt>
<trkpt lat="59.0964470" lon="30.0055330">
<ele>68.488556</ele>
<time>2026-04-22T23:26:13.998Z</time>
</trkpt>
<trkpt lat="59.0964610" lon="30.0054100">
<ele>70.683121</ele>
<time>2026-04-22T23:27:10.996Z</time>
</trkpt>
<trkpt lat="59.0964610" lon="30.0054540">
<ele>69.555359</ele>
<time>2026-04-22T23:28:03.000Z</time>
</trkpt>
<trkpt lat="59.0963950" lon="30.0052400">
<ele>58.186317</ele>
<time>2026-04-22T23:29:49.998Z</time>
</trkpt>
<trkpt lat="59.0963970" lon="30.0050870">
<ele>52.760883</ele>
<time>2026-04-22T23:30:15.002Z</time>
</trkpt>
<trkpt lat="59.0963990" lon="30.0049130">
<ele>54.894482</ele>
<time>2026-04-22T23:30:39.004Z</time>
</trkpt>
<trkpt lat="59.0964940" lon="30.0045280">
<ele>59.192158</ele>
<time>2026-04-22T23:31:33.004Z</time>
</trkpt>
<trkpt lat="59.0965280" lon="30.0040080">
<ele>60.929520</ele>
<time>2026-04-22T23:32:49.001Z</time>
</trkpt>
<trkpt lat="59.0964050" lon="30.0036560">
<ele>83.484718</ele>
<time>2026-04-22T23:35:15.000Z</time>
</trkpt>
<trkpt lat="59.0964190" lon="30.0036860">
<ele>84.002884</ele>
<time>2026-04-22T23:35:40.998Z</time>
</trkpt>
<trkpt lat="59.0963750" lon="30.0037850">
<ele>75.498962</ele>
<time>2026-04-22T23:36:02.002Z</time>
</trkpt>
<trkpt lat="59.0962780" lon="30.0038390">
<ele>70.347839</ele>
<time>2026-04-22T23:36:23.999Z</time>
</trkpt>
<trkpt lat="59.0961930" lon="30.0037930">
<ele>60.685680</ele>
<time>2026-04-22T23:36:49.003Z</time>
</trkpt>
<trkpt lat="59.0960380" lon="30.0032430">
<ele>70.683121</ele>
<time>2026-04-22T23:38:02.996Z</time>
</trkpt>
<trkpt lat="59.0960910" lon="30.0031780">
<ele>80.589119</ele>
<time>2026-04-22T23:38:47.000Z</time>
</trkpt>
<trkpt lat="59.0959380" lon="30.0026530">
<ele>76.169518</ele>
<time>2026-04-22T23:40:17.996Z</time>
</trkpt>
<trkpt lat="59.0959650" lon="30.0025800">
<ele>79.918564</ele>
<time>2026-04-22T23:40:44.996Z</time>
</trkpt>
<trkpt lat="59.0957280" lon="30.0024550">
<ele>72.207115</ele>
<time>2026-04-22T23:42:25.004Z</time>
</trkpt>
<trkpt lat="59.0957070" lon="30.0023650">
<ele>73.853043</ele>
<time>2026-04-22T23:42:48.004Z</time>
</trkpt>
<trkpt lat="59.0955880" lon="30.0023410">
<ele>74.706482</ele>
<time>2026-04-22T23:43:33.001Z</time>
</trkpt>
<trkpt lat="59.0953760" lon="30.0017370">
<ele>65.288162</ele>
<time>2026-04-22T23:45:03.004Z</time>
</trkpt>
<trkpt lat="59.0952940" lon="30.0013930">
<ele>73.182480</ele>
<time>2026-04-22T23:45:49.003Z</time>
</trkpt>
<trkpt lat="59.0953070" lon="30.0010840">
<ele>70.256401</ele>
<time>2026-04-22T23:46:34.000Z</time>
</trkpt>
<trkpt lat="59.0952170" lon="30.0006520">
<ele>77.571602</ele>
<time>2026-04-22T23:47:56.996Z</time>
</trkpt>
<trkpt lat="59.0950890" lon="30.0004000">
<ele>73.731117</ele>
<time>2026-04-22T23:48:38.002Z</time>
</trkpt>
<trkpt lat="59.0952340" lon="29.9997150">
<ele>69.128639</ele>
<time>2026-04-22T23:49:52.003Z</time>
</trkpt>
<trkpt lat="59.0953410" lon="29.9995720">
<ele>82.997040</ele>
<time>2026-04-22T23:50:22.001Z</time>
</trkpt>
<trkpt lat="59.0954090" lon="29.9996280">
<ele>85.709763</ele>
<time>2026-04-22T23:51:44.004Z</time>
</trkpt>
<trkpt lat="59.0953650" lon="29.9995200">
<ele>80.528160</ele>
<time>2026-04-22T23:52:11.997Z</time>
</trkpt>
<trkpt lat="59.0954080" lon="29.9995320">
<ele>79.217522</ele>
<time>2026-04-22T23:52:39.999Z</time>
</trkpt>
<trkpt lat="59.0956190" lon="29.9989100">
<ele>74.797920</ele>
<time>2026-04-22T23:53:59.997Z</time>
</trkpt>
<trkpt lat="59.0957140" lon="29.9987910">
<ele>77.906883</ele>
<time>2026-04-22T23:54:26.004Z</time>
</trkpt>
<trkpt lat="59.0958060" lon="29.9985480">
<ele>76.626717</ele>
<time>2026-04-22T23:54:48.001Z</time>
</trkpt>
<trkpt lat="59.0959050" lon="29.9981890">
<ele>76.443840</ele>
<time>2026-04-22T23:55:42.001Z</time>
</trkpt>
<trkpt lat="59.0960390" lon="29.9979940">
<ele>83.423767</ele>
<time>2026-04-22T23:56:20.000Z</time>
</trkpt>
<trkpt lat="59.0957390" lon="29.9976900">
<ele>70.164963</ele>
<time>2026-04-22T23:57:35.997Z</time>
</trkpt>
<trkpt lat="59.0954290" lon="29.9975180">
<ele>67.025520</ele>
<time>2026-04-22T23:58:33.004Z</time>
</trkpt>
<trkpt lat="59.0951580" lon="29.9975240">
<ele>77.632561</ele>
<time>2026-04-22T23:59:19.997Z</time>
</trkpt>
<trkpt lat="59.0950550" lon="29.9978530">
<ele>96.834961</ele>
<time>2026-04-23T00:00:44.997Z</time>
</trkpt>
<trkpt lat="59.0950950" lon="29.9977650">
<ele>100.187767</ele>
<time>2026-04-23T00:01:18.002Z</time>
</trkpt>
<trkpt lat="59.0950910" lon="29.9976710">
<ele>95.890083</ele>
<time>2026-04-23T00:01:46.998Z</time>
</trkpt>
<trkpt lat="59.0950640" lon="29.9975520">
<ele>87.904320</ele>
<time>2026-04-23T00:02:44.998Z</time>
</trkpt>
<trkpt lat="59.0948740" lon="29.9972390">
<ele>73.243439</ele>
<time>2026-04-23T00:03:37.002Z</time>
</trkpt>
<trkpt lat="59.0948760" lon="29.9970130">
<ele>72.054718</ele>
<time>2026-04-23T00:04:30.000Z</time>
</trkpt>
<trkpt lat="59.0950650" lon="29.9966250">
<ele>80.131920</ele>
<time>2026-04-23T00:05:47.000Z</time>
</trkpt>
<trkpt lat="59.0951530" lon="29.9965340">
<ele>79.126083</ele>
<time>2026-04-23T00:06:12.997Z</time>
</trkpt>
<trkpt lat="59.0951840" lon="29.9963200">
<ele>77.053444</ele>
<time>2026-04-23T00:06:36.999Z</time>
</trkpt>
<trkpt lat="59.0951290" lon="29.9961400">
<ele>75.285599</ele>
<time>2026-04-23T00:06:58.997Z</time>
</trkpt>
<trkpt lat="59.0950320" lon="29.9960910">
<ele>71.018402</ele>
<time>2026-04-23T00:07:25.003Z</time>
</trkpt>
<trkpt lat="59.0948870" lon="29.9958990">
<ele>70.957443</ele>
<time>2026-04-23T00:08:02.000Z</time>
</trkpt>
<trkpt lat="59.0948460" lon="29.9954970">
<ele>81.198715</ele>
<time>2026-04-23T00:08:54.997Z</time>
</trkpt>
<trkpt lat="59.0950800" lon="29.9957520">
<ele>89.367363</ele>
<time>2026-04-23T00:10:30.003Z</time>
</trkpt>
<trkpt lat="59.0951870" lon="29.9955880">
<ele>78.851761</ele>
<time>2026-04-23T00:11:35.002Z</time>
</trkpt>
<trkpt lat="59.0952590" lon="29.9955200">
<ele>80.741516</ele>
<time>2026-04-23T00:11:58.001Z</time>
</trkpt>
<trkpt lat="59.0953220" lon="29.9955480">
<ele>82.539833</ele>
<time>2026-04-23T00:12:45.996Z</time>
</trkpt>
<trkpt lat="59.0953200" lon="29.9957670">
<ele>81.290161</ele>
<time>2026-04-23T00:13:36.998Z</time>
</trkpt>
<trkpt lat="59.0954100" lon="29.9959060">
<ele>77.053444</ele>
<time>2026-04-23T00:14:15.999Z</time>
</trkpt>
<trkpt lat="59.0954980" lon="29.9959150">
<ele>101.681282</ele>
<time>2026-04-23T00:16:21.996Z</time>
</trkpt>
<trkpt lat="59.0955640" lon="29.9960350">
<ele>99.090485</ele>
<time>2026-04-23T00:16:52.003Z</time>
</trkpt>
<trkpt lat="59.0954660" lon="29.9960960">
<ele>94.427032</ele>
<time>2026-04-23T00:17:08.998Z</time>
</trkpt>
<trkpt lat="59.0954540" lon="29.9961970">
<ele>95.981522</ele>
<time>2026-04-23T00:17:34.002Z</time>
</trkpt>
<trkpt lat="59.0955580" lon="29.9963460">
<ele>107.320084</ele>
<time>2026-04-23T00:18:48.004Z</time>
</trkpt>
<trkpt lat="59.0955840" lon="29.9965200">
<ele>100.187767</ele>
<time>2026-04-23T00:19:08.999Z</time>
</trkpt>
<trkpt lat="59.0955440" lon="29.9966820">
<ele>94.091766</ele>
<time>2026-04-23T00:19:26.003Z</time>
</trkpt>
<trkpt lat="59.0955690" lon="29.9972290">
<ele>81.777840</ele>
<time>2026-04-23T00:20:15.000Z</time>
</trkpt>
<trkpt lat="59.0958120" lon="29.9980310">
<ele>92.963997</ele>
<time>2026-04-23T00:21:22.997Z</time>
</trkpt>
<trkpt lat="59.0961040" lon="29.9986480">
<ele>85.770721</ele>
<time>2026-04-23T00:22:24.997Z</time>
</trkpt>
<trkpt lat="59.0960910" lon="29.9989010">
<ele>81.381599</ele>
<time>2026-04-23T00:22:43.003Z</time>
</trkpt>
<trkpt lat="59.0960110" lon="29.9990810">
<ele>81.198715</ele>
<time>2026-04-23T00:23:02.996Z</time>
</trkpt>
<trkpt lat="59.0961010" lon="29.9991090">
<ele>96.286316</ele>
<time>2026-04-23T00:24:05.999Z</time>
</trkpt>
<trkpt lat="59.0959630" lon="29.9991710">
<ele>107.868721</ele>
<time>2026-04-23T00:24:55.999Z</time>
</trkpt>
<trkpt lat="59.0959250" lon="29.9996540">
<ele>83.880966</ele>
<time>2026-04-23T00:25:41.998Z</time>
</trkpt>
<trkpt lat="59.0961710" lon="30.0008040">
<ele>80.436722</ele>
<time>2026-04-23T00:28:19.004Z</time>
</trkpt>
<trkpt lat="59.0961130" lon="30.0008950">
<ele>89.794083</ele>
<time>2026-04-23T00:29:13.004Z</time>
</trkpt>
<trkpt lat="59.0961370" lon="30.0011330">
<ele>87.111839</ele>
<time>2026-04-23T00:29:51.003Z</time>
</trkpt>
<trkpt lat="59.0961800" lon="30.0011810">
<ele>88.849197</ele>
<time>2026-04-23T00:30:11.998Z</time>
</trkpt>
<trkpt lat="59.0961550" lon="30.0016200">
<ele>81.625435</ele>
<time>2026-04-23T00:31:39.003Z</time>
</trkpt>
<trkpt lat="59.0962650" lon="30.0017990">
<ele>81.015839</ele>
<time>2026-04-23T00:32:24.000Z</time>
</trkpt>
<trkpt lat="59.0963660" lon="30.0021110">
<ele>80.954880</ele>
<time>2026-04-23T00:33:07.001Z</time>
</trkpt>
<trkpt lat="59.0963660" lon="30.0027860">
<ele>73.914001</ele>
<time>2026-04-23T00:35:31.004Z</time>
</trkpt>
<trkpt lat="59.0964020" lon="30.0031920">
<ele>70.835518</ele>
<time>2026-04-23T00:36:14.999Z</time>
</trkpt>
<trkpt lat="59.0964670" lon="30.0034770">
<ele>70.347839</ele>
<time>2026-04-23T00:36:52.004Z</time>
</trkpt>
<trkpt lat="59.0966520" lon="30.0039340">
<ele>73.152000</ele>
<time>2026-04-23T00:37:48.000Z</time>
</trkpt>
<trkpt lat="59.0966420" lon="30.0042250">
<ele>76.748642</ele>
<time>2026-04-23T00:38:08.002Z</time>
</trkpt>
<trkpt lat="59.0966720" lon="30.0042910">
<ele>78.303116</ele>
<time>2026-04-23T00:38:32.997Z</time>
</trkpt>
<trkpt lat="59.0966080" lon="30.0042770">
<ele>76.139038</ele>
<time>2026-04-23T00:39:09.000Z</time>
</trkpt>
<trkpt lat="59.0966270" lon="30.0042190">
<ele>71.780403</ele>
<time>2026-04-23T00:39:34.998Z</time>
</trkpt>
<trkpt lat="59.0966570" lon="30.0043200">
<ele>77.754478</ele>
<time>2026-04-23T00:40:01.998Z</time>
</trkpt>
<trkpt lat="59.0966800" lon="30.0042600">
<ele>79.949036</ele>
<time>2026-04-23T00:40:27.002Z</time>
</trkpt>
<trkpt lat="59.0966500" lon="30.0041050">
<ele>76.748642</ele>
<time>2026-04-23T00:41:18.004Z</time>
</trkpt>
<trkpt lat="59.0967510" lon="30.0041740">
<ele>85.801201</ele>
<time>2026-04-23T00:43:09.002Z</time>
</trkpt>
<trkpt lat="59.0967400" lon="30.0042270">
<ele>88.056717</ele>
<time>2026-04-23T00:43:37.998Z</time>
</trkpt>
<trkpt lat="59.0966440" lon="30.0041200">
<ele>84.063835</ele>
<time>2026-04-23T00:44:23.997Z</time>
</trkpt>
<trkpt lat="59.0965940" lon="30.0041190">
<ele>82.600800</ele>
<time>2026-04-23T00:44:54.004Z</time>
</trkpt>
<trkpt lat="59.0967220" lon="30.0042880">
<ele>75.011284</ele>
<time>2026-04-23T00:48:07.998Z</time>
</trkpt>
<trkpt lat="59.0969700" lon="30.0047750">
<ele>72.024239</ele>
<time>2026-04-23T00:49:03.000Z</time>
</trkpt>
<trkpt lat="59.0969670" lon="30.0052610">
<ele>62.301117</ele>
<time>2026-04-23T00:49:43.997Z</time>
</trkpt>
<trkpt lat="59.0970220" lon="30.0054850">
<ele>71.140320</ele>
<time>2026-04-23T00:50:05.001Z</time>
</trkpt>
<trkpt lat="59.0971320" lon="30.0054130">
<ele>71.780403</ele>
<time>2026-04-23T00:50:25.996Z</time>
</trkpt>
<trkpt lat="59.0973010" lon="30.0054000">
<ele>71.475601</ele>
<time>2026-04-23T00:50:47.000Z</time>
</trkpt>
<trkpt lat="59.0974410" lon="30.0053110">
<ele>74.157845</ele>
<time>2026-04-23T00:51:09.999Z</time>
</trkpt>
<trkpt lat="59.0974500" lon="30.0049870">
<ele>74.828400</ele>
<time>2026-04-23T00:51:38.002Z</time>
</trkpt>
<trkpt lat="59.0973990" lon="30.0046330">
<ele>63.642242</ele>
<time>2026-04-23T00:52:10.998Z</time>
</trkpt>
<trkpt lat="59.0974180" lon="30.0042910">
<ele>62.270641</ele>
<time>2026-04-23T00:52:35.000Z</time>
</trkpt>
<trkpt lat="59.0974030" lon="30.0037540">
<ele>62.026798</ele>
<time>2026-04-23T00:53:18.001Z</time>
</trkpt>
<trkpt lat="59.0973550" lon="30.0034220">
<ele>59.984642</ele>
<time>2026-04-23T00:53:42.996Z</time>
</trkpt>
<trkpt lat="59.0972100" lon="30.0032580">
<ele>65.745361</ele>
<time>2026-04-23T00:54:06.998Z</time>
</trkpt>
<trkpt lat="59.0971650" lon="30.0031070">
<ele>71.414642</ele>
<time>2026-04-23T00:54:31.000Z</time>
</trkpt>
<trkpt lat="59.0972020" lon="30.0029360">
<ele>81.229202</ele>
<time>2026-04-23T00:54:54.000Z</time>
</trkpt>
<trkpt lat="59.0971520" lon="30.0028260">
<ele>83.972397</ele>
<time>2026-04-23T00:56:17.998Z</time>
</trkpt>
<trkpt lat="59.0971940" lon="30.0027350">
<ele>91.744797</ele>
<time>2026-04-23T00:57:21.001Z</time>
</trkpt>
<trkpt lat="59.0971730" lon="30.0027470">
<ele>86.776566</ele>
<time>2026-04-23T00:57:50.999Z</time>
</trkpt>
<trkpt lat="59.0971620" lon="30.0026270">
<ele>80.406235</ele>
<time>2026-04-23T00:58:12.003Z</time>
</trkpt>
<trkpt lat="59.0970950" lon="30.0024550">
<ele>75.133202</ele>
<time>2026-04-23T00:58:35.996Z</time>
</trkpt>
<trkpt lat="59.0970060" lon="30.0020400">
<ele>73.822556</ele>
<time>2026-04-23T00:59:21.002Z</time>
</trkpt>
<trkpt lat="59.0968270" lon="30.0015470">
<ele>78.120239</ele>
<time>2026-04-23T01:00:22.000Z</time>
</trkpt>
<trkpt lat="59.0968160" lon="30.0013610">
<ele>76.382881</ele>
<time>2026-04-23T01:00:46.002Z</time>
</trkpt>
<trkpt lat="59.0967390" lon="30.0009550">
<ele>80.741516</ele>
<time>2026-04-23T01:01:37.004Z</time>
</trkpt>
<trkpt lat="59.0967370" lon="30.0007640">
<ele>82.753197</ele>
<time>2026-04-23T01:01:56.997Z</time>
</trkpt>
<trkpt lat="59.0966880" lon="30.0006380">
<ele>80.284317</ele>
<time>2026-04-23T01:02:20.999Z</time>
</trkpt>
<trkpt lat="59.0966580" lon="30.0004480">
<ele>81.442566</ele>
<time>2026-04-23T01:02:46.003Z</time>
</trkpt>
<trkpt lat="59.0967150" lon="30.0001660">
<ele>83.240883</ele>
<time>2026-04-23T01:03:31.000Z</time>
</trkpt>
<trkpt lat="59.0967110" lon="29.9999330">
<ele>83.301834</ele>
<time>2026-04-23T01:04:15.004Z</time>
</trkpt>
<trkpt lat="59.0968200" lon="29.9997120">
<ele>83.118965</ele>
<time>2026-04-23T01:05:24.996Z</time>
</trkpt>
<trkpt lat="59.0964450" lon="29.9986630">
<ele>73.731117</ele>
<time>2026-04-23T01:07:39.003Z</time>
</trkpt>
<trkpt lat="59.0964270" lon="29.9983750">
<ele>82.021683</ele>
<time>2026-04-23T01:08:22.004Z</time>
</trkpt>
<trkpt lat="59.0965000" lon="29.9978250">
<ele>87.355682</ele>
<time>2026-04-23T01:10:09.002Z</time>
</trkpt>
<trkpt lat="59.0965050" lon="29.9974680">
<ele>82.174080</ele>
<time>2026-04-23T01:10:57.999Z</time>
</trkpt>
<trkpt lat="59.0964430" lon="29.9974670">
<ele>82.235039</ele>
<time>2026-04-23T01:11:26.002Z</time>
</trkpt>
<trkpt lat="59.0965270" lon="29.9973120">
<ele>96.530167</ele>
<time>2026-04-23T01:12:41.999Z</time>
</trkpt>
<trkpt lat="59.0965610" lon="29.9974010">
<ele>101.498398</ele>
<time>2026-04-23T01:13:10.001Z</time>
</trkpt>
<trkpt lat="59.0964870" lon="29.9973850">
<ele>91.165680</ele>
<time>2026-04-23T01:14:04.001Z</time>
</trkpt>
<trkpt lat="59.0964320" lon="29.9969160">
<ele>84.703918</ele>
<time>2026-04-23T01:14:51.996Z</time>
</trkpt>
<trkpt lat="59.0963610" lon="29.9967620">
<ele>82.478882</ele>
<time>2026-04-23T01:15:18.003Z</time>
</trkpt>
<trkpt lat="59.0960690" lon="29.9962950">
<ele>73.182480</ele>
<time>2026-04-23T01:16:27.002Z</time>
</trkpt>
<trkpt lat="59.0960550" lon="29.9959990">
<ele>74.828400</ele>
<time>2026-04-23T01:16:48.999Z</time>
</trkpt>
<trkpt lat="59.0962430" lon="29.9952080">
<ele>82.722717</ele>
<time>2026-04-23T01:18:27.003Z</time>
</trkpt>
<trkpt lat="59.0961900" lon="29.9950890">
<ele>83.027519</ele>
<time>2026-04-23T01:18:46.002Z</time>
</trkpt>
<trkpt lat="59.0962110" lon="29.9949160">
<ele>80.741516</ele>
<time>2026-04-23T01:19:09.002Z</time>
</trkpt>
<trkpt lat="59.0961650" lon="29.9947060">
<ele>77.175362</ele>
<time>2026-04-23T01:19:40.996Z</time>
</trkpt>
<trkpt lat="59.0960050" lon="29.9944410">
<ele>72.542397</ele>
<time>2026-04-23T01:20:45.001Z</time>
</trkpt>
<trkpt lat="59.0960300" lon="29.9944420">
<ele>72.786240</ele>
<time>2026-04-23T01:21:08.001Z</time>
</trkpt>
<trkpt lat="59.0960200" lon="29.9943340">
<ele>69.098160</ele>
<time>2026-04-23T01:21:28.002Z</time>
</trkpt>
<trkpt lat="59.0959650" lon="29.9938710">
<ele>66.141602</ele>
<time>2026-04-23T01:23:23.001Z</time>
</trkpt>
<trkpt lat="59.0960100" lon="29.9937200">
<ele>69.738243</ele>
<time>2026-04-23T01:24:07.998Z</time>
</trkpt>
<trkpt lat="59.0960310" lon="29.9935130">
<ele>73.609200</ele>
<time>2026-04-23T01:26:52.996Z</time>
</trkpt>
<trkpt lat="59.0961710" lon="29.9934770">
<ele>69.890640</ele>
<time>2026-04-23T01:27:31.003Z</time>
</trkpt>
<trkpt lat="59.0962250" lon="29.9934050">
<ele>70.317360</ele>
<time>2026-04-23T01:27:49.000Z</time>
</trkpt>
<trkpt lat="59.0965820" lon="29.9932750">
<ele>67.757042</ele>
<time>2026-04-23T01:29:56.000Z</time>
</trkpt>
<trkpt lat="59.0966410" lon="29.9932100">
<ele>77.906883</ele>
<time>2026-04-23T01:34:20.997Z</time>
</trkpt>
<trkpt lat="59.0968100" lon="29.9932100">
<ele>64.830956</ele>
<time>2026-04-23T01:35:18.997Z</time>
</trkpt>
<trkpt lat="59.0968590" lon="29.9931380">
<ele>66.111115</ele>
<time>2026-04-23T01:35:37.997Z</time>
</trkpt>
<trkpt lat="59.0969300" lon="29.9927590">
<ele>67.421761</ele>
<time>2026-04-23T01:36:35.004Z</time>
</trkpt>
<trkpt lat="59.0970470" lon="29.9926810">
<ele>70.805038</ele>
<time>2026-04-23T01:37:13.002Z</time>
</trkpt>
<trkpt lat="59.0970290" lon="29.9925590">
<ele>72.572884</ele>
<time>2026-04-23T01:38:11.996Z</time>
</trkpt>
<trkpt lat="59.0971860" lon="29.9924110">
<ele>70.926956</ele>
<time>2026-04-23T01:39:39.001Z</time>
</trkpt>
<trkpt lat="59.0971240" lon="29.9923960">
<ele>70.164963</ele>
<time>2026-04-23T01:39:58.000Z</time>
</trkpt>
<trkpt lat="59.0972520" lon="29.9923510">
<ele>75.163681</ele>
<time>2026-04-23T01:41:00.001Z</time>
</trkpt>
<trkpt lat="59.0972180" lon="29.9921420">
<ele>76.260956</ele>
<time>2026-04-23T01:41:43.996Z</time>
</trkpt>
<trkpt lat="59.0972520" lon="29.9920190">
<ele>71.719444</ele>
<time>2026-04-23T01:42:26.004Z</time>
</trkpt>
<trkpt lat="59.0972320" lon="29.9918980">
<ele>72.938644</ele>
<time>2026-04-23T01:42:50.999Z</time>
</trkpt>
<trkpt lat="59.0971000" lon="29.9918190">
<ele>78.059280</ele>
<time>2026-04-23T01:43:55.004Z</time>
</trkpt>
<trkpt lat="59.0971140" lon="29.9912860">
<ele>71.475601</ele>
<time>2026-04-23T01:45:35.997Z</time>
</trkpt>
<trkpt lat="59.0971430" lon="29.9911470">
<ele>69.829681</ele>
<time>2026-04-23T01:45:58.997Z</time>
</trkpt>
<trkpt lat="59.0969900" lon="29.9901280">
<ele>70.347839</ele>
<time>2026-04-23T01:47:47.999Z</time>
</trkpt>
<trkpt lat="59.0970120" lon="29.9899970">
<ele>71.323196</ele>
<time>2026-04-23T01:48:09.996Z</time>
</trkpt>
<trkpt lat="59.0970960" lon="29.9899060">
<ele>69.159119</ele>
<time>2026-04-23T01:48:31.000Z</time>
</trkpt>
<trkpt lat="59.0971500" lon="29.9897590">
<ele>72.725281</ele>
<time>2026-04-23T01:48:51.002Z</time>
</trkpt>
<trkpt lat="59.0971710" lon="29.9894190">
<ele>74.127357</ele>
<time>2026-04-23T01:49:30.003Z</time>
</trkpt>
<trkpt lat="59.0970150" lon="29.9893770">
<ele>75.133202</ele>
<time>2026-04-23T01:50:06.999Z</time>
</trkpt>
<trkpt lat="59.0969400" lon="29.9889230">
<ele>69.890640</ele>
<time>2026-04-23T01:50:48.998Z</time>
</trkpt>
<trkpt lat="59.0968670" lon="29.9887660">
<ele>71.018402</ele>
<time>2026-04-23T01:51:11.998Z</time>
</trkpt>
<trkpt lat="59.0968810" lon="29.9885780">
<ele>71.323196</ele>
<time>2026-04-23T01:51:33.002Z</time>
</trkpt>
<trkpt lat="59.0968050" lon="29.9883980">
<ele>67.147438</ele>
<time>2026-04-23T01:51:53.004Z</time>
</trkpt>
<trkpt lat="59.0967740" lon="29.9882170">
<ele>65.897758</ele>
<time>2026-04-23T01:52:13.999Z</time>
</trkpt>
<trkpt lat="59.0967770" lon="29.9879810">
<ele>69.707756</ele>
<time>2026-04-23T01:52:35.996Z</time>
</trkpt>
<trkpt lat="59.0965660" lon="29.9874480">
<ele>67.147438</ele>
<time>2026-04-23T01:53:21.002Z</time>
</trkpt>
<trkpt lat="59.0964280" lon="29.9873320">
<ele>66.293999</ele>
<time>2026-04-23T01:53:41.997Z</time>
</trkpt>
<trkpt lat="59.0963170" lon="29.9871460">
<ele>69.006721</ele>
<time>2026-04-23T01:54:03.001Z</time>
</trkpt>
<trkpt lat="59.0961970" lon="29.9868470">
<ele>68.122803</ele>
<time>2026-04-23T01:54:24.998Z</time>
</trkpt>
<trkpt lat="59.0962050" lon="29.9866070">
<ele>70.805038</ele>
<time>2026-04-23T01:54:42.002Z</time>
</trkpt>
<trkpt lat="59.0963030" lon="29.9863700">
<ele>69.128639</ele>
<time>2026-04-23T01:55:02.004Z</time>
</trkpt>
<trkpt lat="59.0961890" lon="29.9858540">
<ele>72.085197</ele>
<time>2026-04-23T01:56:22.001Z</time>
</trkpt>
<trkpt lat="59.0961970" lon="29.9855350">
<ele>73.395844</ele>
<time>2026-04-23T01:57:01.002Z</time>
</trkpt>
<trkpt lat="59.0962840" lon="29.9853000">
<ele>77.236320</ele>
<time>2026-04-23T01:57:43.001Z</time>
</trkpt>
<trkpt lat="59.0962810" lon="29.9852270">
<ele>77.845917</ele>
<time>2026-04-23T01:58:12.999Z</time>
</trkpt>
<trkpt lat="59.0964160" lon="29.9851220">
<ele>73.974960</ele>
<time>2026-04-23T01:58:54.998Z</time>
</trkpt>
<trkpt lat="59.0964570" lon="29.9849220">
<ele>72.786240</ele>
<time>2026-04-23T01:59:15.000Z</time>
</trkpt>
<trkpt lat="59.0964340" lon="29.9846070">
<ele>75.102715</ele>
<time>2026-04-23T01:59:56.999Z</time>
</trkpt>
<trkpt lat="59.0964990" lon="29.9844450">
<ele>74.340721</ele>
<time>2026-04-23T02:00:18.003Z</time>
</trkpt>
<trkpt lat="59.0965010" lon="29.9841940">
<ele>72.389999</ele>
<time>2026-04-23T02:00:37.002Z</time>
</trkpt>
<trkpt lat="59.0964670" lon="29.9839870">
<ele>70.012558</ele>
<time>2026-04-23T02:01:03.000Z</time>
</trkpt>
<trkpt lat="59.0965120" lon="29.9837600">
<ele>65.775841</ele>
<time>2026-04-23T02:01:27.002Z</time>
</trkpt>
<trkpt lat="59.0965460" lon="29.9837730">
<ele>67.116959</ele>
<time>2026-04-23T02:01:53.000Z</time>
</trkpt>
<trkpt lat="59.0965770" lon="29.9836870">
<ele>67.147438</ele>
<time>2026-04-23T02:02:18.004Z</time>
</trkpt>
<trkpt lat="59.0965900" lon="29.9835340">
<ele>71.140320</ele>
<time>2026-04-23T02:02:44.002Z</time>
</trkpt>
<trkpt lat="59.0963110" lon="29.9832030">
<ele>72.085197</ele>
<time>2026-04-23T02:03:28.999Z</time>
</trkpt>
<trkpt lat="59.0961380" lon="29.9824740">
<ele>72.085197</ele>
<time>2026-04-23T02:04:16.000Z</time>
</trkpt>
<trkpt lat="59.0960720" lon="29.9823580">
<ele>72.572884</ele>
<time>2026-04-23T02:04:28.001Z</time>
</trkpt>
<trkpt lat="59.0953130" lon="29.9831240">
<ele>75.712318</ele>
<time>2026-04-23T02:06:01.996Z</time>
</trkpt>
<trkpt lat="59.0951240" lon="29.9831860">
<ele>75.133202</ele>
<time>2026-04-23T02:06:20.002Z</time>
</trkpt>
<trkpt lat="59.0950900" lon="29.9830780">
<ele>74.523598</ele>
<time>2026-04-23T02:06:27.000Z</time>
</trkpt>
<trkpt lat="59.0950680" lon="29.9825390">
<ele>73.761597</ele>
<time>2026-04-23T02:06:52.004Z</time>
</trkpt>
<trkpt lat="59.0951100" lon="29.9803850">
<ele>71.292717</ele>
<time>2026-04-23T02:08:33.999Z</time>
</trkpt>
<trkpt lat="59.0952050" lon="29.9800420">
<ele>72.847198</ele>
<time>2026-04-23T02:08:54.001Z</time>
</trkpt>
<trkpt lat="59.0953290" lon="29.9792710">
<ele>65.897758</ele>
<time>2026-04-23T02:09:37.002Z</time>
</trkpt>
<trkpt lat="59.0952970" lon="29.9790760">
<ele>64.190880</ele>
<time>2026-04-23T02:09:50.999Z</time>
</trkpt>
<trkpt lat="59.0953640" lon="29.9790840">
<ele>82.113121</ele>
<time>2026-04-23T02:13:44.003Z</time>
</trkpt>
<trkpt lat="59.0953230" lon="29.9791080">
<ele>76.078079</ele>
<time>2026-04-23T02:15:09.996Z</time>
</trkpt>
<trkpt lat="59.0952920" lon="29.9790520">
<ele>73.761597</ele>
<time>2026-04-23T02:16:07.003Z</time>
</trkpt>
<trkpt lat="59.0953110" lon="29.9790970">
<ele>76.413361</ele>
<time>2026-04-23T02:18:06.002Z</time>
</trkpt>
<trkpt lat="59.0953370" lon="29.9790530">
<ele>75.559921</ele>
<time>2026-04-23T02:21:24.998Z</time>
</trkpt>
<trkpt lat="59.0954270" lon="29.9780430">
<ele>77.784958</ele>
<time>2026-04-23T02:23:15.003Z</time>
</trkpt>
<trkpt lat="59.0954140" lon="29.9779380">
<ele>77.632561</ele>
<time>2026-04-23T02:23:33.000Z</time>
</trkpt>
<trkpt lat="59.0958070" lon="29.9781030">
<ele>66.050156</ele>
<time>2026-04-23T02:24:16.001Z</time>
</trkpt>
<trkpt lat="59.0962640" lon="29.9781910">
<ele>66.172081</ele>
<time>2026-04-23T02:24:31.000Z</time>
</trkpt>
<trkpt lat="59.0988150" lon="29.9790440">
<ele>58.521599</ele>
<time>2026-04-23T02:25:31.999Z</time>
</trkpt>
<trkpt lat="59.0993850" lon="29.9791830">
<ele>56.967117</ele>
<time>2026-04-23T02:25:46.998Z</time>
</trkpt>
<trkpt lat="59.1008930" lon="29.9796890">
<ele>63.550800</ele>
<time>2026-04-23T02:26:17.998Z</time>
</trkpt>
<trkpt lat="59.1019780" lon="29.9799590">
<ele>63.825119</ele>
<time>2026-04-23T02:26:50.001Z</time>
</trkpt>
<trkpt lat="59.1020620" lon="29.9795050">
<ele>68.945763</ele>
<time>2026-04-23T02:27:00.999Z</time>
</trkpt>
<trkpt lat="59.1021940" lon="29.9782610">
<ele>74.340721</ele>
<time>2026-04-23T02:27:30.997Z</time>
</trkpt>
<trkpt lat="59.1021230" lon="29.9782460">
<ele>70.469757</ele>
<time>2026-04-23T02:27:41.996Z</time>
</trkpt>
<trkpt lat="59.1021250" lon="29.9781600">
<ele>70.439285</ele>
<time>2026-04-23T02:28:46.001Z</time>
</trkpt>
<trkpt lat="59.1020700" lon="29.9782720">
<ele>73.609200</ele>
<time>2026-04-23T02:31:36.002Z</time>
</trkpt>
</trkseg>
</trk>
<trk>
 <name>20260423_Lisa66</name>
 <desc>20260422_Lisa66</desc>
<trkseg>
<trkpt lat="59.1022150" lon="29.9779800">
<ele>51.694080</ele>
<time>2026-04-22T20:02:20.000Z</time>
</trkpt>
<trkpt lat="59.1021010" lon="29.9780450">
<ele>86.106003</ele>
<time>2026-04-22T20:02:33.996Z</time>
</trkpt>
<trkpt lat="59.1021270" lon="29.9781820">
<ele>73.974960</ele>
<time>2026-04-22T20:03:41.000Z</time>
</trkpt>
<trkpt lat="59.1021040" lon="29.9781830">
<ele>74.706482</ele>
<time>2026-04-22T20:04:08.000Z</time>
</trkpt>
<trkpt lat="59.1021420" lon="29.9781680">
<ele>73.761597</ele>
<time>2026-04-22T20:04:56.004Z</time>
</trkpt>
<trkpt lat="59.1020690" lon="29.9782320">
<ele>74.523598</ele>
<time>2026-04-22T20:05:33.000Z</time>
</trkpt>
<trkpt lat="59.1020700" lon="29.9781400">
<ele>75.681839</ele>
<time>2026-04-22T20:06:21.004Z</time>
</trkpt>
<trkpt lat="59.1020820" lon="29.9781590">
<ele>75.133202</ele>
<time>2026-04-22T20:06:45.999Z</time>
</trkpt>
<trkpt lat="59.1019160" lon="29.9779650">
<ele>74.035919</ele>
<time>2026-04-22T20:07:02.001Z</time>
</trkpt>
<trkpt lat="59.0987440" lon="29.9769900">
<ele>74.371201</ele>
<time>2026-04-22T20:09:14.003Z</time>
</trkpt>
<trkpt lat="59.0959250" lon="29.9760340">
<ele>76.230484</ele>
<time>2026-04-22T20:11:34.999Z</time>
</trkpt>
<trkpt lat="59.0932070" lon="29.9758800">
<ele>78.089767</ele>
<time>2026-04-22T20:12:45.000Z</time>
</trkpt>
<trkpt lat="59.0930910" lon="29.9763800">
<ele>78.668884</ele>
<time>2026-04-22T20:12:55.999Z</time>
</trkpt>
<trkpt lat="59.0928590" lon="29.9790820">
<ele>77.998322</ele>
<time>2026-04-22T20:13:33.997Z</time>
</trkpt>
<trkpt lat="59.0924900" lon="29.9824680">
<ele>78.546967</ele>
<time>2026-04-22T20:14:33.000Z</time>
</trkpt>
<trkpt lat="59.0921930" lon="29.9859850">
<ele>77.998322</ele>
<time>2026-04-22T20:15:33.998Z</time>
</trkpt>
<trkpt lat="59.0922940" lon="29.9869580">
<ele>77.114403</ele>
<time>2026-04-22T20:15:52.004Z</time>
</trkpt>
<trkpt lat="59.0925220" lon="29.9882210">
<ele>76.230484</ele>
<time>2026-04-22T20:16:12.999Z</time>
</trkpt>
<trkpt lat="59.0927330" lon="29.9892590">
<ele>75.529442</ele>
<time>2026-04-22T20:16:31.999Z</time>
</trkpt>
<trkpt lat="59.0933400" lon="29.9927210">
<ele>76.017120</ele>
<time>2026-04-22T20:17:47.996Z</time>
</trkpt>
<trkpt lat="59.0936730" lon="29.9941320">
<ele>75.224640</ele>
<time>2026-04-22T20:18:17.001Z</time>
</trkpt>
<trkpt lat="59.0937010" lon="29.9947000">
<ele>74.828400</ele>
<time>2026-04-22T20:18:30.004Z</time>
</trkpt>
<trkpt lat="59.0938150" lon="29.9952930">
<ele>75.529442</ele>
<time>2026-04-22T20:23:23.004Z</time>
</trkpt>
<trkpt lat="59.0938750" lon="29.9959520">
<ele>75.681839</ele>
<time>2026-04-22T20:23:38.003Z</time>
</trkpt>
<trkpt lat="59.0940170" lon="29.9967480">
<ele>75.224640</ele>
<time>2026-04-22T20:23:54.997Z</time>
</trkpt>
<trkpt lat="59.0941770" lon="29.9974780">
<ele>74.736961</ele>
<time>2026-04-22T20:24:10.999Z</time>
</trkpt>
<trkpt lat="59.0943860" lon="29.9982050">
<ele>73.456802</ele>
<time>2026-04-22T20:24:29.998Z</time>
</trkpt>
<trkpt lat="59.0944720" lon="29.9990810">
<ele>76.718163</ele>
<time>2026-04-22T20:24:48.004Z</time>
</trkpt>
<trkpt lat="59.0949610" lon="30.0015830">
<ele>73.914001</ele>
<time>2026-04-22T20:25:44.000Z</time>
</trkpt>
<trkpt lat="59.0950100" lon="30.0022940">
<ele>72.572884</ele>
<time>2026-04-22T20:25:58.999Z</time>
</trkpt>
<trkpt lat="59.0952090" lon="30.0036340">
<ele>71.871841</ele>
<time>2026-04-22T20:26:27.001Z</time>
</trkpt>
<trkpt lat="59.0953820" lon="30.0043350">
<ele>72.816719</ele>
<time>2026-04-22T20:26:42.000Z</time>
</trkpt>
<trkpt lat="59.0956600" lon="30.0058330">
<ele>72.176643</ele>
<time>2026-04-22T20:27:11.998Z</time>
</trkpt>
<trkpt lat="59.0958390" lon="30.0065370">
<ele>72.085197</ele>
<time>2026-04-22T20:27:26.004Z</time>
</trkpt>
<trkpt lat="59.0961140" lon="30.0082180">
<ele>69.189598</ele>
<time>2026-04-22T20:27:57.004Z</time>
</trkpt>
<trkpt lat="59.0962890" lon="30.0090550">
<ele>70.530716</ele>
<time>2026-04-22T20:28:09.998Z</time>
</trkpt>
<trkpt lat="59.0964010" lon="30.0099670">
<ele>71.688957</ele>
<time>2026-04-22T20:28:27.002Z</time>
</trkpt>
<trkpt lat="59.0965220" lon="30.0106730">
<ele>71.201279</ele>
<time>2026-04-22T20:28:43.003Z</time>
</trkpt>
<trkpt lat="59.0968280" lon="30.0123710">
<ele>69.890640</ele>
<time>2026-04-22T20:29:14.004Z</time>
</trkpt>
<trkpt lat="59.0970390" lon="30.0131530">
<ele>69.616318</ele>
<time>2026-04-22T20:29:28.000Z</time>
</trkpt>
<trkpt lat="59.0971360" lon="30.0142340">
<ele>67.513199</ele>
<time>2026-04-22T20:29:57.998Z</time>
</trkpt>
<trkpt lat="59.0973410" lon="30.0153040">
<ele>65.867279</ele>
<time>2026-04-22T20:30:31.003Z</time>
</trkpt>
<trkpt lat="59.0975180" lon="30.0157660">
<ele>66.019684</ele>
<time>2026-04-22T20:30:45.000Z</time>
</trkpt>
<trkpt lat="59.0980440" lon="30.0195230">
<ele>70.012558</ele>
<time>2026-04-22T20:32:23.997Z</time>
</trkpt>
<trkpt lat="59.0981500" lon="30.0200120">
<ele>69.860161</ele>
<time>2026-04-22T20:32:41.001Z</time>
</trkpt>
<trkpt lat="59.0981960" lon="30.0205820">
<ele>67.421761</ele>
<time>2026-04-22T20:32:58.004Z</time>
</trkpt>
<trkpt lat="59.0982900" lon="30.0210780">
<ele>67.635117</ele>
<time>2026-04-22T20:33:13.003Z</time>
</trkpt>
<trkpt lat="59.0982780" lon="30.0214090">
<ele>69.402962</ele>
<time>2026-04-22T20:33:28.002Z</time>
</trkpt>
<trkpt lat="59.0984420" lon="30.0220340">
<ele>68.488556</ele>
<time>2026-04-22T20:33:52.004Z</time>
</trkpt>
<trkpt lat="59.0984930" lon="30.0221310">
<ele>69.372482</ele>
<time>2026-04-22T20:33:59.996Z</time>
</trkpt>
<trkpt lat="59.0987880" lon="30.0238370">
<ele>72.847198</ele>
<time>2026-04-22T20:35:47.996Z</time>
</trkpt>
<trkpt lat="59.0991450" lon="30.0256230">
<ele>74.188316</ele>
<time>2026-04-22T20:36:41.003Z</time>
</trkpt>
<trkpt lat="59.0993660" lon="30.0271250">
<ele>73.609200</ele>
<time>2026-04-22T20:37:24.997Z</time>
</trkpt>
<trkpt lat="59.0995530" lon="30.0278190">
<ele>73.822556</ele>
<time>2026-04-22T20:37:42.001Z</time>
</trkpt>
<trkpt lat="59.0996320" lon="30.0284540">
<ele>73.365356</ele>
<time>2026-04-22T20:37:58.002Z</time>
</trkpt>
<trkpt lat="59.0996160" lon="30.0285930">
<ele>73.304398</ele>
<time>2026-04-22T20:38:18.004Z</time>
</trkpt>
<trkpt lat="59.0996590" lon="30.0288430">
<ele>73.792084</ele>
<time>2026-04-22T20:38:29.996Z</time>
</trkpt>
<trkpt lat="59.0997960" lon="30.0293110">
<ele>74.005440</ele>
<time>2026-04-22T20:38:45.004Z</time>
</trkpt>
<trkpt lat="59.0999890" lon="30.0306510">
<ele>72.298561</ele>
<time>2026-04-22T20:39:23.996Z</time>
</trkpt>
<trkpt lat="59.1000610" lon="30.0308470">
<ele>73.365356</ele>
<time>2026-04-22T20:39:46.002Z</time>
</trkpt>
<trkpt lat="59.1000850" lon="30.0312070">
<ele>72.633842</ele>
<time>2026-04-22T20:40:02.997Z</time>
</trkpt>
<trkpt lat="59.1001890" lon="30.0316500">
<ele>72.054718</ele>
<time>2026-04-22T20:40:16.000Z</time>
</trkpt>
<trkpt lat="59.1002310" lon="30.0321590">
<ele>72.268082</ele>
<time>2026-04-22T20:40:29.004Z</time>
</trkpt>
<trkpt lat="59.1003510" lon="30.0326510">
<ele>74.401680</ele>
<time>2026-04-22T20:40:43.000Z</time>
</trkpt>
<trkpt lat="59.1004630" lon="30.0333360">
<ele>75.559921</ele>
<time>2026-04-22T20:41:22.001Z</time>
</trkpt>
<trkpt lat="59.1005590" lon="30.0340150">
<ele>74.828400</ele>
<time>2026-04-22T20:41:53.002Z</time>
</trkpt>
<trkpt lat="59.1005740" lon="30.0343490">
<ele>75.742798</ele>
<time>2026-04-22T20:42:01.996Z</time>
</trkpt>
<trkpt lat="59.1006910" lon="30.0349530">
<ele>74.736961</ele>
<time>2026-04-22T20:42:17.997Z</time>
</trkpt>
<trkpt lat="59.1010680" lon="30.0359780">
<ele>73.060562</ele>
<time>2026-04-22T20:42:48.997Z</time>
</trkpt>
<trkpt lat="59.1010510" lon="30.0363510">
<ele>72.450958</ele>
<time>2026-04-22T20:43:04.999Z</time>
</trkpt>
<trkpt lat="59.1010000" lon="30.0364410">
<ele>74.035919</ele>
<time>2026-04-22T20:43:41.002Z</time>
</trkpt>
<trkpt lat="59.1010160" lon="30.0365190">
<ele>76.626717</ele>
<time>2026-04-22T20:43:57.996Z</time>
</trkpt>
<trkpt lat="59.1009880" lon="30.0364880">
<ele>75.346558</ele>
<time>2026-04-22T20:45:02.002Z</time>
</trkpt>
<trkpt lat="59.1010220" lon="30.0365250">
<ele>74.035919</ele>
<time>2026-04-22T20:46:54.002Z</time>
</trkpt>
<trkpt lat="59.1010090" lon="30.0365900">
<ele>71.932800</ele>
<time>2026-04-22T20:47:37.997Z</time>
</trkpt>
<trkpt lat="59.1009540" lon="30.0365930">
<ele>72.572884</ele>
<time>2026-04-22T20:48:08.997Z</time>
</trkpt>
<trkpt lat="59.1010030" lon="30.0365480">
<ele>73.395844</ele>
<time>2026-04-22T20:49:06.004Z</time>
</trkpt>
<trkpt lat="59.1010020" lon="30.0366900">
<ele>73.578720</ele>
<time>2026-04-22T20:51:48.997Z</time>
</trkpt>
<trkpt lat="59.1009750" lon="30.0366100">
<ele>73.914001</ele>
<time>2026-04-22T20:53:36.004Z</time>
</trkpt>
<trkpt lat="59.1009920" lon="30.0366660">
<ele>72.877686</ele>
<time>2026-04-22T20:54:07.004Z</time>
</trkpt>
<trkpt lat="59.1010170" lon="30.0366470">
<ele>74.371201</ele>
<time>2026-04-22T20:54:52.001Z</time>
</trkpt>
<trkpt lat="59.1010230" lon="30.0367820">
<ele>72.389999</ele>
<time>2026-04-22T20:55:47.004Z</time>
</trkpt>
<trkpt lat="59.1010520" lon="30.0367810">
<ele>72.725281</ele>
<time>2026-04-22T20:56:05.001Z</time>
</trkpt>
<trkpt lat="59.1010310" lon="30.0369440">
<ele>73.822556</ele>
<time>2026-04-22T20:56:21.002Z</time>
</trkpt>
<trkpt lat="59.1010700" lon="30.0371050">
<ele>74.493118</ele>
<time>2026-04-22T20:56:33.996Z</time>
</trkpt>
<trkpt lat="59.1011790" lon="30.0370720">
<ele>69.250557</ele>
<time>2026-04-22T20:57:38.002Z</time>
</trkpt>
<trkpt lat="59.1012490" lon="30.0371550">
<ele>71.323196</ele>
<time>2026-04-22T20:59:07.002Z</time>
</trkpt>
<trkpt lat="59.1012250" lon="30.0370780">
<ele>74.035919</ele>
<time>2026-04-22T21:00:05.003Z</time>
</trkpt>
<trkpt lat="59.1012530" lon="30.0371290">
<ele>77.723999</ele>
<time>2026-04-22T21:00:33.998Z</time>
</trkpt>
<trkpt lat="59.1012400" lon="30.0370960">
<ele>78.455521</ele>
<time>2026-04-22T21:01:03.996Z</time>
</trkpt>
<trkpt lat="59.1012210" lon="30.0371720">
<ele>76.626717</ele>
<time>2026-04-22T21:01:38.004Z</time>
</trkpt>
<trkpt lat="59.1012480" lon="30.0371480">
<ele>74.310242</ele>
<time>2026-04-22T21:01:57.996Z</time>
</trkpt>
<trkpt lat="59.1012480" lon="30.0372110">
<ele>73.578720</ele>
<time>2026-04-22T21:02:21.998Z</time>
</trkpt>
<trkpt lat="59.1014340" lon="30.0373420">
<ele>71.902321</ele>
<time>2026-04-22T21:03:18.996Z</time>
</trkpt>
<trkpt lat="59.1018140" lon="30.0372920">
<ele>72.572884</ele>
<time>2026-04-22T21:04:58.002Z</time>
</trkpt>
<trkpt lat="59.1019580" lon="30.0372050">
<ele>72.481438</ele>
<time>2026-04-22T21:05:25.996Z</time>
</trkpt>
<trkpt lat="59.1020590" lon="30.0373180">
<ele>70.469757</ele>
<time>2026-04-22T21:05:57.998Z</time>
</trkpt>
<trkpt lat="59.1020660" lon="30.0371170">
<ele>72.877686</ele>
<time>2026-04-22T21:06:12.997Z</time>
</trkpt>
<trkpt lat="59.1021390" lon="30.0369800">
<ele>74.005440</ele>
<time>2026-04-22T21:08:06.000Z</time>
</trkpt>
<trkpt lat="59.1021040" lon="30.0369790">
<ele>75.651360</ele>
<time>2026-04-22T21:08:54.997Z</time>
</trkpt>
<trkpt lat="59.1021610" lon="30.0370350">
<ele>75.529442</ele>
<time>2026-04-22T21:10:50.998Z</time>
</trkpt>
<trkpt lat="59.1021500" lon="30.0369980">
<ele>74.828400</ele>
<time>2026-04-22T21:11:39.002Z</time>
</trkpt>
<trkpt lat="59.1021910" lon="30.0368900">
<ele>77.022957</ele>
<time>2026-04-22T21:12:29.002Z</time>
</trkpt>
<trkpt lat="59.1021830" lon="30.0369520">
<ele>74.645515</ele>
<time>2026-04-22T21:12:59.000Z</time>
</trkpt>
<trkpt lat="59.1024520" lon="30.0365740">
<ele>72.908157</ele>
<time>2026-04-22T21:14:18.997Z</time>
</trkpt>
<trkpt lat="59.1024910" lon="30.0364740">
<ele>74.432159</ele>
<time>2026-04-22T21:14:33.003Z</time>
</trkpt>
<trkpt lat="59.1024960" lon="30.0361130">
<ele>70.256401</ele>
<time>2026-04-22T21:15:59.999Z</time>
</trkpt>
<trkpt lat="59.1023710" lon="30.0357950">
<ele>73.182480</ele>
<time>2026-04-22T21:17:41.001Z</time>
</trkpt>
<trkpt lat="59.1023660" lon="30.0355770">
<ele>73.639679</ele>
<time>2026-04-22T21:19:00.998Z</time>
</trkpt>
<trkpt lat="59.1023400" lon="30.0355690">
<ele>71.841362</ele>
<time>2026-04-22T21:19:22.996Z</time>
</trkpt>
<trkpt lat="59.1023270" lon="30.0354650">
<ele>69.829681</ele>
<time>2026-04-22T21:20:00.001Z</time>
</trkpt>
<trkpt lat="59.1024150" lon="30.0353620">
<ele>69.494400</ele>
<time>2026-04-22T21:21:14.003Z</time>
</trkpt>
<trkpt lat="59.1024010" lon="30.0353960">
<ele>69.037201</ele>
<time>2026-04-22T21:22:43.003Z</time>
</trkpt>
<trkpt lat="59.1024520" lon="30.0356590">
<ele>68.762878</ele>
<time>2026-04-22T21:24:57.001Z</time>
</trkpt>
<trkpt lat="59.1024450" lon="30.0358260">
<ele>71.079361</ele>
<time>2026-04-22T21:26:31.998Z</time>
</trkpt>
<trkpt lat="59.1024000" lon="30.0360130">
<ele>71.780403</ele>
<time>2026-04-22T21:27:05.996Z</time>
</trkpt>
<trkpt lat="59.1024290" lon="30.0361070">
<ele>70.865997</ele>
<time>2026-04-22T21:27:37.999Z</time>
</trkpt>
<trkpt lat="59.1023910" lon="30.0361960">
<ele>72.694801</ele>
<time>2026-04-22T21:28:23.998Z</time>
</trkpt>
<trkpt lat="59.1023930" lon="30.0363440">
<ele>71.871841</ele>
<time>2026-04-22T21:28:39.999Z</time>
</trkpt>
<trkpt lat="59.1024380" lon="30.0364460">
<ele>71.749916</ele>
<time>2026-04-22T21:28:57.003Z</time>
</trkpt>
<trkpt lat="59.1024600" lon="30.0366050">
<ele>71.810883</ele>
<time>2026-04-22T21:29:15.000Z</time>
</trkpt>
<trkpt lat="59.1024380" lon="30.0366110">
<ele>70.317360</ele>
<time>2026-04-22T21:29:55.003Z</time>
</trkpt>
<trkpt lat="59.1025670" lon="30.0362720">
<ele>72.938644</ele>
<time>2026-04-22T21:31:21.999Z</time>
</trkpt>
<trkpt lat="59.1027210" lon="30.0362820">
<ele>71.170799</ele>
<time>2026-04-22T21:32:49.998Z</time>
</trkpt>
<trkpt lat="59.1027480" lon="30.0364360">
<ele>68.701920</ele>
<time>2026-04-22T21:33:23.003Z</time>
</trkpt>
<trkpt lat="59.1029420" lon="30.0364590">
<ele>69.768715</ele>
<time>2026-04-22T21:35:07.002Z</time>
</trkpt>
<trkpt lat="59.1030310" lon="30.0363310">
<ele>69.159119</ele>
<time>2026-04-22T21:35:56.000Z</time>
</trkpt>
<trkpt lat="59.1031450" lon="30.0362770">
<ele>68.732399</ele>
<time>2026-04-22T21:36:40.997Z</time>
</trkpt>
<trkpt lat="59.1033050" lon="30.0360470">
<ele>67.909439</ele>
<time>2026-04-22T21:37:34.003Z</time>
</trkpt>
<trkpt lat="59.1034210" lon="30.0357460">
<ele>69.128639</ele>
<time>2026-04-22T21:41:18.004Z</time>
</trkpt>
<trkpt lat="59.1035520" lon="30.0355880">
<ele>69.646797</ele>
<time>2026-04-22T21:42:04.997Z</time>
</trkpt>
<trkpt lat="59.1036980" lon="30.0355870">
<ele>69.768715</ele>
<time>2026-04-22T21:42:45.000Z</time>
</trkpt>
<trkpt lat="59.1038170" lon="30.0353490">
<ele>70.286880</ele>
<time>2026-04-22T21:43:39.000Z</time>
</trkpt>
<trkpt lat="59.1039050" lon="30.0353190">
<ele>68.945763</ele>
<time>2026-04-22T21:43:59.002Z</time>
</trkpt>
<trkpt lat="59.1040040" lon="30.0355320">
<ele>66.263519</ele>
<time>2026-04-22T21:44:39.998Z</time>
</trkpt>
<trkpt lat="59.1040380" lon="30.0359370">
<ele>66.202560</ele>
<time>2026-04-22T21:45:36.996Z</time>
</trkpt>
<trkpt lat="59.1042220" lon="30.0361170">
<ele>67.818001</ele>
<time>2026-04-22T21:49:16.997Z</time>
</trkpt>
<trkpt lat="59.1041840" lon="30.0360220">
<ele>64.404243</ele>
<time>2026-04-22T21:51:54.003Z</time>
</trkpt>
<trkpt lat="59.1041830" lon="30.0357200">
<ele>64.068962</ele>
<time>2026-04-22T21:52:26.999Z</time>
</trkpt>
<trkpt lat="59.1042810" lon="30.0355400">
<ele>65.013840</ele>
<time>2026-04-22T21:53:43.999Z</time>
</trkpt>
<trkpt lat="59.1043720" lon="30.0355650">
<ele>67.635117</ele>
<time>2026-04-22T21:54:01.002Z</time>
</trkpt>
<trkpt lat="59.1044960" lon="30.0354770">
<ele>67.116959</ele>
<time>2026-04-22T21:54:36.003Z</time>
</trkpt>
<trkpt lat="59.1046590" lon="30.0354530">
<ele>67.878960</ele>
<time>2026-04-22T21:55:21.000Z</time>
</trkpt>
<trkpt lat="59.1047440" lon="30.0355880">
<ele>71.567039</ele>
<time>2026-04-22T21:57:40.000Z</time>
</trkpt>
<trkpt lat="59.1048360" lon="30.0353490">
<ele>66.995041</ele>
<time>2026-04-22T22:05:20.996Z</time>
</trkpt>
<trkpt lat="59.1048230" lon="30.0351310">
<ele>73.212959</ele>
<time>2026-04-22T22:07:31.002Z</time>
</trkpt>
<trkpt lat="59.1048500" lon="30.0351940">
<ele>72.176643</ele>
<time>2026-04-22T22:10:12.000Z</time>
</trkpt>
<trkpt lat="59.1048630" lon="30.0351560">
<ele>73.456802</ele>
<time>2026-04-22T22:11:49.001Z</time>
</trkpt>
<trkpt lat="59.1048430" lon="30.0351550">
<ele>71.932800</ele>
<time>2026-04-22T22:13:53.003Z</time>
</trkpt>
<trkpt lat="59.1048200" lon="30.0349080">
<ele>70.744080</ele>
<time>2026-04-22T22:14:43.996Z</time>
</trkpt>
<trkpt lat="59.1047170" lon="30.0347970">
<ele>68.031357</ele>
<time>2026-04-22T22:15:14.996Z</time>
</trkpt>
<trkpt lat="59.1046630" lon="30.0346630">
<ele>71.323196</ele>
<time>2026-04-22T22:15:50.999Z</time>
</trkpt>
<trkpt lat="59.1045680" lon="30.0346190">
<ele>72.389999</ele>
<time>2026-04-22T22:16:20.997Z</time>
</trkpt>
<trkpt lat="59.1045080" lon="30.0346900">
<ele>74.858879</ele>
<time>2026-04-22T22:18:14.000Z</time>
</trkpt>
<trkpt lat="59.1044450" lon="30.0346200">
<ele>72.999603</ele>
<time>2026-04-22T22:18:28.999Z</time>
</trkpt>
<trkpt lat="59.1044130" lon="30.0345280">
<ele>69.829681</ele>
<time>2026-04-22T22:18:47.998Z</time>
</trkpt>
<trkpt lat="59.1044240" lon="30.0344800">
<ele>70.408798</ele>
<time>2026-04-22T22:19:13.002Z</time>
</trkpt>
<trkpt lat="59.1045930" lon="30.0345000">
<ele>67.635117</ele>
<time>2026-04-22T22:20:08.998Z</time>
</trkpt>
<trkpt lat="59.1046350" lon="30.0345880">
<ele>67.025520</ele>
<time>2026-04-22T22:20:20.999Z</time>
</trkpt>
<trkpt lat="59.1046140" lon="30.0346700">
<ele>70.317360</ele>
<time>2026-04-22T22:21:25.004Z</time>
</trkpt>
<trkpt lat="59.1047290" lon="30.0347780">
<ele>71.841362</ele>
<time>2026-04-22T22:22:22.002Z</time>
</trkpt>
<trkpt lat="59.1048000" lon="30.0347820">
<ele>72.969116</ele>
<time>2026-04-22T22:22:39.999Z</time>
</trkpt>
<trkpt lat="59.1048510" lon="30.0346780">
<ele>74.096878</ele>
<time>2026-04-22T22:22:57.003Z</time>
</trkpt>
<trkpt lat="59.1048280" lon="30.0345230">
<ele>73.883514</ele>
<time>2026-04-22T22:23:09.997Z</time>
</trkpt>
<trkpt lat="59.1047880" lon="30.0343880">
<ele>73.365356</ele>
<time>2026-04-22T22:23:24.996Z</time>
</trkpt>
<trkpt lat="59.1047560" lon="30.0343920">
<ele>72.755760</ele>
<time>2026-04-22T22:23:38.000Z</time>
</trkpt>
<trkpt lat="59.1047250" lon="30.0344750">
<ele>71.932800</ele>
<time>2026-04-22T22:23:55.997Z</time>
</trkpt>
<trkpt lat="59.1047040" lon="30.0344500">
<ele>73.609200</ele>
<time>2026-04-22T22:25:12.996Z</time>
</trkpt>
<trkpt lat="59.1046690" lon="30.0345560">
<ele>71.140320</ele>
<time>2026-04-22T22:26:40.001Z</time>
</trkpt>
<trkpt lat="59.1044120" lon="30.0347200">
<ele>72.847198</ele>
<time>2026-04-22T22:27:46.996Z</time>
</trkpt>
<trkpt lat="59.1042990" lon="30.0346390">
<ele>70.317360</ele>
<time>2026-04-22T22:28:13.002Z</time>
</trkpt>
<trkpt lat="59.1039860" lon="30.0346940">
<ele>73.365356</ele>
<time>2026-04-22T22:29:27.004Z</time>
</trkpt>
<trkpt lat="59.1038070" lon="30.0351960">
<ele>72.969116</ele>
<time>2026-04-22T22:30:56.998Z</time>
</trkpt>
<trkpt lat="59.1037040" lon="30.0352940">
<ele>73.487282</ele>
<time>2026-04-22T22:31:25.000Z</time>
</trkpt>
<trkpt lat="59.1035930" lon="30.0351650">
<ele>71.536560</ele>
<time>2026-04-22T22:32:47.003Z</time>
</trkpt>
<trkpt lat="59.1035350" lon="30.0352410">
<ele>69.707756</ele>
<time>2026-04-22T22:33:17.001Z</time>
</trkpt>
<trkpt lat="59.1034330" lon="30.0352660">
<ele>73.152000</ele>
<time>2026-04-22T22:33:46.999Z</time>
</trkpt>
<trkpt lat="59.1033700" lon="30.0354490">
<ele>75.803757</ele>
<time>2026-04-22T22:34:32.998Z</time>
</trkpt>
<trkpt lat="59.1032270" lon="30.0353900">
<ele>75.559921</ele>
<time>2026-04-22T22:35:44.002Z</time>
</trkpt>
<trkpt lat="59.1030950" lon="30.0356140">
<ele>73.761597</ele>
<time>2026-04-22T22:37:05.002Z</time>
</trkpt>
<trkpt lat="59.1031060" lon="30.0356550">
<ele>71.841362</ele>
<time>2026-04-22T22:38:08.998Z</time>
</trkpt>
<trkpt lat="59.1029850" lon="30.0356710">
<ele>72.603355</ele>
<time>2026-04-22T22:40:49.996Z</time>
</trkpt>
<trkpt lat="59.1029380" lon="30.0359000">
<ele>72.450958</ele>
<time>2026-04-22T22:42:00.999Z</time>
</trkpt>
<trkpt lat="59.1028320" lon="30.0358240">
<ele>72.908157</ele>
<time>2026-04-22T22:42:32.000Z</time>
</trkpt>
<trkpt lat="59.1026980" lon="30.0358680">
<ele>73.121521</ele>
<time>2026-04-22T22:43:07.000Z</time>
</trkpt>
<trkpt lat="59.1026440" lon="30.0356890">
<ele>74.645515</ele>
<time>2026-04-22T22:43:39.003Z</time>
</trkpt>
<trkpt lat="59.1025390" lon="30.0355830">
<ele>74.340721</ele>
<time>2026-04-22T22:44:41.004Z</time>
</trkpt>
<trkpt lat="59.1024670" lon="30.0356620">
<ele>74.584557</ele>
<time>2026-04-22T22:45:09.999Z</time>
</trkpt>
<trkpt lat="59.1023460" lon="30.0356680">
<ele>74.310242</ele>
<time>2026-04-22T22:46:25.997Z</time>
</trkpt>
<trkpt lat="59.1023510" lon="30.0357230">
<ele>75.194160</ele>
<time>2026-04-22T22:47:16.999Z</time>
</trkpt>
<trkpt lat="59.1022810" lon="30.0357690">
<ele>75.742798</ele>
<time>2026-04-22T22:48:50.000Z</time>
</trkpt>
<trkpt lat="59.1022420" lon="30.0359240">
<ele>76.047600</ele>
<time>2026-04-22T22:49:46.998Z</time>
</trkpt>
<trkpt lat="59.1021410" lon="30.0360370">
<ele>74.371201</ele>
<time>2026-04-22T22:50:33.999Z</time>
</trkpt>
<trkpt lat="59.1018750" lon="30.0361850">
<ele>74.950317</ele>
<time>2026-04-22T22:53:01.000Z</time>
</trkpt>
<trkpt lat="59.1018170" lon="30.0364470">
<ele>77.083916</ele>
<time>2026-04-22T22:58:34.997Z</time>
</trkpt>
<trkpt lat="59.1017910" lon="30.0364020">
<ele>76.504799</ele>
<time>2026-04-22T22:59:42.000Z</time>
</trkpt>
<trkpt lat="59.1015870" lon="30.0365160">
<ele>72.237602</ele>
<time>2026-04-22T23:00:56.002Z</time>
</trkpt>
<trkpt lat="59.1015500" lon="30.0365000">
<ele>75.133202</ele>
<time>2026-04-22T23:01:53.000Z</time>
</trkpt>
<trkpt lat="59.1015460" lon="30.0363940">
<ele>74.676003</ele>
<time>2026-04-22T23:02:10.003Z</time>
</trkpt>
<trkpt lat="59.1013580" lon="30.0364400">
<ele>72.786240</ele>
<time>2026-04-22T23:03:34.001Z</time>
</trkpt>
<trkpt lat="59.1012310" lon="30.0361410">
<ele>74.493118</ele>
<time>2026-04-22T23:04:17.996Z</time>
</trkpt>
<trkpt lat="59.1011490" lon="30.0363750">
<ele>75.834244</ele>
<time>2026-04-22T23:05:00.004Z</time>
</trkpt>
<trkpt lat="59.1010740" lon="30.0363070">
<ele>76.017120</ele>
<time>2026-04-22T23:05:15.003Z</time>
</trkpt>
<trkpt lat="59.1010240" lon="30.0360740">
<ele>75.651360</ele>
<time>2026-04-22T23:05:46.003Z</time>
</trkpt>
<trkpt lat="59.1010180" lon="30.0358010">
<ele>75.986641</ele>
<time>2026-04-22T23:06:17.997Z</time>
</trkpt>
<trkpt lat="59.1009550" lon="30.0355850">
<ele>73.426315</ele>
<time>2026-04-22T23:06:48.004Z</time>
</trkpt>
<trkpt lat="59.1009830" lon="30.0356930">
<ele>70.987915</ele>
<time>2026-04-22T23:07:18.002Z</time>
</trkpt>
<trkpt lat="59.1009630" lon="30.0356450">
<ele>71.445122</ele>
<time>2026-04-22T23:07:45.002Z</time>
</trkpt>
<trkpt lat="59.1009430" lon="30.0356860">
<ele>72.603355</ele>
<time>2026-04-22T23:08:17.998Z</time>
</trkpt>
<trkpt lat="59.1009290" lon="30.0352220">
<ele>74.340721</ele>
<time>2026-04-22T23:12:03.001Z</time>
</trkpt>
<trkpt lat="59.1007800" lon="30.0347310">
<ele>72.420479</ele>
<time>2026-04-22T23:13:20.001Z</time>
</trkpt>
<trkpt lat="59.1007700" lon="30.0345690">
<ele>73.395844</ele>
<time>2026-04-22T23:14:22.001Z</time>
</trkpt>
<trkpt lat="59.1007950" lon="30.0345640">
<ele>74.493118</ele>
<time>2026-04-22T23:16:50.998Z</time>
</trkpt>
<trkpt lat="59.1007640" lon="30.0345700">
<ele>74.615044</ele>
<time>2026-04-22T23:19:54.002Z</time>
</trkpt>
<trkpt lat="59.1008780" lon="30.0345480">
<ele>74.279762</ele>
<time>2026-04-22T23:21:24.998Z</time>
</trkpt>
<trkpt lat="59.1009270" lon="30.0343940">
<ele>75.316078</ele>
<time>2026-04-22T23:21:45.000Z</time>
</trkpt>
<trkpt lat="59.1009980" lon="30.0344240">
<ele>78.089767</ele>
<time>2026-04-22T23:21:57.001Z</time>
</trkpt>
<trkpt lat="59.1012140" lon="30.0343280">
<ele>75.316078</ele>
<time>2026-04-22T23:23:00.004Z</time>
</trkpt>
<trkpt lat="59.1013690" lon="30.0341560">
<ele>74.066399</ele>
<time>2026-04-22T23:23:46.997Z</time>
</trkpt>
<trkpt lat="59.1014720" lon="30.0338600">
<ele>69.128639</ele>
<time>2026-04-22T23:24:56.998Z</time>
</trkpt>
<trkpt lat="59.1016000" lon="30.0339490">
<ele>71.048882</ele>
<time>2026-04-22T23:26:20.003Z</time>
</trkpt>
<trkpt lat="59.1016170" lon="30.0339210">
<ele>75.346558</ele>
<time>2026-04-22T23:27:49.003Z</time>
</trkpt>
<trkpt lat="59.1016290" lon="30.0340010">
<ele>73.243439</ele>
<time>2026-04-22T23:31:16.000Z</time>
</trkpt>
<trkpt lat="59.1017990" lon="30.0340420">
<ele>70.926956</ele>
<time>2026-04-22T23:32:06.000Z</time>
</trkpt>
<trkpt lat="59.1018860" lon="30.0340240">
<ele>71.048882</ele>
<time>2026-04-22T23:32:23.004Z</time>
</trkpt>
<trkpt lat="59.1020420" lon="30.0338900">
<ele>70.073517</ele>
<time>2026-04-22T23:33:08.001Z</time>
</trkpt>
<trkpt lat="59.1026790" lon="30.0339880">
<ele>63.703201</ele>
<time>2026-04-22T23:37:40.999Z</time>
</trkpt>
<trkpt lat="59.1029690" lon="30.0342360">
<ele>68.701920</ele>
<time>2026-04-22T23:40:22.999Z</time>
</trkpt>
<trkpt lat="59.1030470" lon="30.0341980">
<ele>68.031357</ele>
<time>2026-04-22T23:40:55.001Z</time>
</trkpt>
<trkpt lat="59.1030700" lon="30.0340740">
<ele>68.762878</ele>
<time>2026-04-22T23:41:26.002Z</time>
</trkpt>
<trkpt lat="59.1031190" lon="30.0340080">
<ele>69.159119</ele>
<time>2026-04-22T23:42:01.002Z</time>
</trkpt>
<trkpt lat="59.1032430" lon="30.0339470">
<ele>68.580002</ele>
<time>2026-04-22T23:44:36.997Z</time>
</trkpt>
<trkpt lat="59.1036040" lon="30.0344330">
<ele>69.372482</ele>
<time>2026-04-22T23:49:48.996Z</time>
</trkpt>
<trkpt lat="59.1037640" lon="30.0343300">
<ele>70.134483</ele>
<time>2026-04-22T23:50:35.998Z</time>
</trkpt>
<trkpt lat="59.1038360" lon="30.0342070">
<ele>73.334885</ele>
<time>2026-04-22T23:52:26.003Z</time>
</trkpt>
<trkpt lat="59.1040400" lon="30.0341630">
<ele>73.517761</ele>
<time>2026-04-22T23:55:00.002Z</time>
</trkpt>
<trkpt lat="59.1040280" lon="30.0340160">
<ele>72.146156</ele>
<time>2026-04-22T23:55:51.997Z</time>
</trkpt>
<trkpt lat="59.1039530" lon="30.0337440">
<ele>71.780403</ele>
<time>2026-04-22T23:56:21.002Z</time>
</trkpt>
<trkpt lat="59.1038740" lon="30.0336730">
<ele>70.500244</ele>
<time>2026-04-22T23:56:36.001Z</time>
</trkpt>
<trkpt lat="59.1038240" lon="30.0334890">
<ele>69.829681</ele>
<time>2026-04-22T23:57:31.003Z</time>
</trkpt>
<trkpt lat="59.1038420" lon="30.0335530">
<ele>70.896484</ele>
<time>2026-04-22T23:58:10.998Z</time>
</trkpt>
<trkpt lat="59.1037850" lon="30.0335090">
<ele>70.134483</ele>
<time>2026-04-22T23:58:41.998Z</time>
</trkpt>
<trkpt lat="59.1036780" lon="30.0331890">
<ele>66.934082</ele>
<time>2026-04-22T23:59:42.996Z</time>
</trkpt>
<trkpt lat="59.1036100" lon="30.0331950">
<ele>69.890640</ele>
<time>2026-04-23T00:01:42.997Z</time>
</trkpt>
<trkpt lat="59.1034480" lon="30.0329020">
<ele>69.860161</ele>
<time>2026-04-23T00:03:18.003Z</time>
</trkpt>
<trkpt lat="59.1033380" lon="30.0326400">
<ele>72.298561</ele>
<time>2026-04-23T00:04:04.002Z</time>
</trkpt>
<trkpt lat="59.1033330" lon="30.0324430">
<ele>72.633842</ele>
<time>2026-04-23T00:04:20.004Z</time>
</trkpt>
<trkpt lat="59.1032810" lon="30.0322590">
<ele>72.146156</ele>
<time>2026-04-23T00:04:54.002Z</time>
</trkpt>
<trkpt lat="59.1031850" lon="30.0321550">
<ele>69.921120</ele>
<time>2026-04-23T00:09:21.997Z</time>
</trkpt>
<trkpt lat="59.1029320" lon="30.0321990">
<ele>70.805038</ele>
<time>2026-04-23T00:10:31.999Z</time>
</trkpt>
<trkpt lat="59.1028280" lon="30.0322870">
<ele>68.762878</ele>
<time>2026-04-23T00:11:17.998Z</time>
</trkpt>
<trkpt lat="59.1027190" lon="30.0321810">
<ele>70.012558</ele>
<time>2026-04-23T00:12:03.004Z</time>
</trkpt>
<trkpt lat="59.1026410" lon="30.0319890">
<ele>69.250557</ele>
<time>2026-04-23T00:12:45.003Z</time>
</trkpt>
<trkpt lat="59.1024500" lon="30.0320800">
<ele>73.243439</ele>
<time>2026-04-23T00:14:21.002Z</time>
</trkpt>
<trkpt lat="59.1023900" lon="30.0320220">
<ele>73.670158</ele>
<time>2026-04-23T00:14:38.999Z</time>
</trkpt>
<trkpt lat="59.1022870" lon="30.0321670">
<ele>72.603355</ele>
<time>2026-04-23T00:15:09.999Z</time>
</trkpt>
<trkpt lat="59.1022660" lon="30.0323580">
<ele>72.237602</ele>
<time>2026-04-23T00:15:27.003Z</time>
</trkpt>
<trkpt lat="59.1021540" lon="30.0324280">
<ele>69.982079</ele>
<time>2026-04-23T00:15:57.001Z</time>
</trkpt>
<trkpt lat="59.1021620" lon="30.0324780">
<ele>69.616318</ele>
<time>2026-04-23T00:18:16.001Z</time>
</trkpt>
<trkpt lat="59.1019820" lon="30.0325820">
<ele>72.816719</ele>
<time>2026-04-23T00:19:52.000Z</time>
</trkpt>
<trkpt lat="59.1018590" lon="30.0325280">
<ele>70.591682</ele>
<time>2026-04-23T00:20:29.999Z</time>
</trkpt>
<trkpt lat="59.1017600" lon="30.0326510">
<ele>68.793358</ele>
<time>2026-04-23T00:21:22.997Z</time>
</trkpt>
<trkpt lat="59.1016360" lon="30.0326330">
<ele>71.262238</ele>
<time>2026-04-23T00:22:15.001Z</time>
</trkpt>
<trkpt lat="59.1016120" lon="30.0328010">
<ele>72.207115</ele>
<time>2026-04-23T00:22:28.998Z</time>
</trkpt>
<trkpt lat="59.1015410" lon="30.0329620">
<ele>70.774559</ele>
<time>2026-04-23T00:23:52.002Z</time>
</trkpt>
<trkpt lat="59.1015560" lon="30.0328650">
<ele>72.847198</ele>
<time>2026-04-23T00:24:36.999Z</time>
</trkpt>
<trkpt lat="59.1016190" lon="30.0327640">
<ele>72.298561</ele>
<time>2026-04-23T00:24:50.996Z</time>
</trkpt>
<trkpt lat="59.1016050" lon="30.0325970">
<ele>70.195442</ele>
<time>2026-04-23T00:26:07.002Z</time>
</trkpt>
<trkpt lat="59.1015250" lon="30.0322620">
<ele>70.195442</ele>
<time>2026-04-23T00:27:29.998Z</time>
</trkpt>
<trkpt lat="59.1013360" lon="30.0320320">
<ele>69.311516</ele>
<time>2026-04-23T00:28:42.004Z</time>
</trkpt>
<trkpt lat="59.1012660" lon="30.0320100">
<ele>68.336159</ele>
<time>2026-04-23T00:28:56.001Z</time>
</trkpt>
<trkpt lat="59.1012120" lon="30.0320280">
<ele>67.330315</ele>
<time>2026-04-23T00:29:12.002Z</time>
</trkpt>
<trkpt lat="59.1011800" lon="30.0323120">
<ele>68.305679</ele>
<time>2026-04-23T00:29:43.002Z</time>
</trkpt>
<trkpt lat="59.1011040" lon="30.0323120">
<ele>66.873116</ele>
<time>2026-04-23T00:30:18.003Z</time>
</trkpt>
<trkpt lat="59.1011730" lon="30.0320780">
<ele>67.056000</ele>
<time>2026-04-23T00:31:43.003Z</time>
</trkpt>
<trkpt lat="59.1011720" lon="30.0319570">
<ele>66.781685</ele>
<time>2026-04-23T00:31:58.002Z</time>
</trkpt>
<trkpt lat="59.1011200" lon="30.0318350">
<ele>67.391281</ele>
<time>2026-04-23T00:32:38.999Z</time>
</trkpt>
<trkpt lat="59.1008290" lon="30.0318500">
<ele>65.318642</ele>
<time>2026-04-23T00:35:23.004Z</time>
</trkpt>
<trkpt lat="59.1008700" lon="30.0317200">
<ele>64.678558</ele>
<time>2026-04-23T00:36:32.003Z</time>
</trkpt>
<trkpt lat="59.1008590" lon="30.0315160">
<ele>64.952881</ele>
<time>2026-04-23T00:39:53.997Z</time>
</trkpt>
<trkpt lat="59.1006940" lon="30.0316450">
<ele>68.549515</ele>
<time>2026-04-23T00:44:31.004Z</time>
</trkpt>
<trkpt lat="59.1006400" lon="30.0315750">
<ele>68.122803</ele>
<time>2026-04-23T00:45:14.999Z</time>
</trkpt>
<trkpt lat="59.1005950" lon="30.0318460">
<ele>67.116959</ele>
<time>2026-04-23T00:45:41.999Z</time>
</trkpt>
<trkpt lat="59.1004610" lon="30.0320450">
<ele>66.690239</ele>
<time>2026-04-23T00:46:11.997Z</time>
</trkpt>
<trkpt lat="59.1003280" lon="30.0321100">
<ele>64.678558</ele>
<time>2026-04-23T00:46:53.996Z</time>
</trkpt>
<trkpt lat="59.1002960" lon="30.0320490">
<ele>67.635117</ele>
<time>2026-04-23T00:47:09.997Z</time>
</trkpt>
<trkpt lat="59.1003450" lon="30.0317960">
<ele>70.225922</ele>
<time>2026-04-23T00:48:29.002Z</time>
</trkpt>
<trkpt lat="59.1001810" lon="30.0313320">
<ele>62.880241</ele>
<time>2026-04-23T00:49:50.002Z</time>
</trkpt>
<trkpt lat="59.1002300" lon="30.0311820">
<ele>61.904881</ele>
<time>2026-04-23T00:50:06.996Z</time>
</trkpt>
<trkpt lat="59.1002380" lon="30.0310380">
<ele>63.215519</ele>
<time>2026-04-23T00:50:24.000Z</time>
</trkpt>
<trkpt lat="59.1001690" lon="30.0309190">
<ele>62.057281</ele>
<time>2026-04-23T00:50:41.997Z</time>
</trkpt>
<trkpt lat="59.1002100" lon="30.0306850">
<ele>63.337440</ele>
<time>2026-04-23T00:51:18.000Z</time>
</trkpt>
<trkpt lat="59.1003530" lon="30.0305590">
<ele>62.148720</ele>
<time>2026-04-23T00:51:51.998Z</time>
</trkpt>
<trkpt lat="59.1005850" lon="30.0307270">
<ele>65.775841</ele>
<time>2026-04-23T00:52:56.997Z</time>
</trkpt>
<trkpt lat="59.1006400" lon="30.0306670">
<ele>64.465202</ele>
<time>2026-04-23T00:53:12.998Z</time>
</trkpt>
<trkpt lat="59.1006510" lon="30.0306950">
<ele>64.008003</ele>
<time>2026-04-23T00:53:29.000Z</time>
</trkpt>
<trkpt lat="59.1007130" lon="30.0305780">
<ele>63.185040</ele>
<time>2026-04-23T00:54:05.996Z</time>
</trkpt>
<trkpt lat="59.1008120" lon="30.0306070">
<ele>63.520317</ele>
<time>2026-04-23T00:54:21.997Z</time>
</trkpt>
<trkpt lat="59.1008920" lon="30.0305510">
<ele>64.068962</ele>
<time>2026-04-23T00:54:36.003Z</time>
</trkpt>
<trkpt lat="59.1008780" lon="30.0304920">
<ele>64.251839</ele>
<time>2026-04-23T00:54:58.000Z</time>
</trkpt>
<trkpt lat="59.1010040" lon="30.0306250">
<ele>64.251839</ele>
<time>2026-04-23T00:55:26.996Z</time>
</trkpt>
<trkpt lat="59.1011300" lon="30.0303770">
<ele>61.722000</ele>
<time>2026-04-23T00:56:39.002Z</time>
</trkpt>
<trkpt lat="59.1011140" lon="30.0303980">
<ele>63.672718</ele>
<time>2026-04-23T00:57:03.997Z</time>
</trkpt>
<trkpt lat="59.1011390" lon="30.0305010">
<ele>62.727840</ele>
<time>2026-04-23T00:57:34.998Z</time>
</trkpt>
<trkpt lat="59.1012400" lon="30.0307600">
<ele>63.916557</ele>
<time>2026-04-23T00:58:34.000Z</time>
</trkpt>
<trkpt lat="59.1013140" lon="30.0307090">
<ele>62.910717</ele>
<time>2026-04-23T00:59:13.001Z</time>
</trkpt>
<trkpt lat="59.1013360" lon="30.0305410">
<ele>58.978802</ele>
<time>2026-04-23T01:01:10.004Z</time>
</trkpt>
<trkpt lat="59.1014170" lon="30.0302690">
<ele>62.270641</ele>
<time>2026-04-23T01:02:15.003Z</time>
</trkpt>
<trkpt lat="59.1014930" lon="30.0302810">
<ele>59.344559</ele>
<time>2026-04-23T01:03:05.003Z</time>
</trkpt>
<trkpt lat="59.1015610" lon="30.0302170">
<ele>59.771282</ele>
<time>2026-04-23T01:03:20.002Z</time>
</trkpt>
<trkpt lat="59.1015500" lon="30.0301300">
<ele>57.637680</ele>
<time>2026-04-23T01:04:12.999Z</time>
</trkpt>
<trkpt lat="59.1015880" lon="30.0302000">
<ele>60.045601</ele>
<time>2026-04-23T01:05:09.997Z</time>
</trkpt>
<trkpt lat="59.1017380" lon="30.0291800">
<ele>63.428883</ele>
<time>2026-04-23T01:11:12.998Z</time>
</trkpt>
<trkpt lat="59.1016020" lon="30.0286850">
<ele>63.093601</ele>
<time>2026-04-23T01:12:10.999Z</time>
</trkpt>
<trkpt lat="59.1015480" lon="30.0286090">
<ele>63.185040</ele>
<time>2026-04-23T01:12:27.000Z</time>
</trkpt>
<trkpt lat="59.1013500" lon="30.0285790">
<ele>67.147438</ele>
<time>2026-04-23T01:12:56.998Z</time>
</trkpt>
<trkpt lat="59.1011240" lon="30.0287690">
<ele>62.575439</ele>
<time>2026-04-23T01:13:34.997Z</time>
</trkpt>
<trkpt lat="59.1009800" lon="30.0292320">
<ele>64.312798</ele>
<time>2026-04-23T01:14:13.998Z</time>
</trkpt>
<trkpt lat="59.1007000" lon="30.0297010">
<ele>67.665604</ele>
<time>2026-04-23T01:15:13.000Z</time>
</trkpt>
<trkpt lat="59.1006100" lon="30.0301380">
<ele>67.696083</ele>
<time>2026-04-23T01:15:54.999Z</time>
</trkpt>
<trkpt lat="59.1006290" lon="30.0302030">
<ele>66.964561</ele>
<time>2026-04-23T01:16:40.999Z</time>
</trkpt>
<trkpt lat="59.1005520" lon="30.0302900">
<ele>65.379601</ele>
<time>2026-04-23T01:16:57.000Z</time>
</trkpt>
<trkpt lat="59.1004240" lon="30.0300300">
<ele>67.330315</ele>
<time>2026-04-23T01:17:53.998Z</time>
</trkpt>
<trkpt lat="59.0999580" lon="30.0298010">
<ele>63.306957</ele>
<time>2026-04-23T01:18:58.997Z</time>
</trkpt>
<trkpt lat="59.0998780" lon="30.0298140">
<ele>63.398399</ele>
<time>2026-04-23T01:19:13.002Z</time>
</trkpt>
<trkpt lat="59.0998040" lon="30.0292760">
<ele>63.733681</ele>
<time>2026-04-23T01:19:40.002Z</time>
</trkpt>
<trkpt lat="59.0996270" lon="30.0284710">
<ele>63.520317</ele>
<time>2026-04-23T01:20:18.001Z</time>
</trkpt>
<trkpt lat="59.0995980" lon="30.0281330">
<ele>62.697357</ele>
<time>2026-04-23T01:20:33.000Z</time>
</trkpt>
<trkpt lat="59.0995320" lon="30.0279960">
<ele>62.301117</ele>
<time>2026-04-23T01:20:43.999Z</time>
</trkpt>
<trkpt lat="59.0995360" lon="30.0277610">
<ele>62.971684</ele>
<time>2026-04-23T01:20:58.004Z</time>
</trkpt>
<trkpt lat="59.0993020" lon="30.0263820">
<ele>65.928238</ele>
<time>2026-04-23T01:22:03.003Z</time>
</trkpt>
<trkpt lat="59.0992290" lon="30.0261090">
<ele>65.775841</ele>
<time>2026-04-23T01:22:21.000Z</time>
</trkpt>
<trkpt lat="59.0991990" lon="30.0257490">
<ele>65.044319</ele>
<time>2026-04-23T01:22:45.002Z</time>
</trkpt>
<trkpt lat="59.0990750" lon="30.0251730">
<ele>65.867279</ele>
<time>2026-04-23T01:23:24.996Z</time>
</trkpt>
<trkpt lat="59.0990440" lon="30.0248980">
<ele>66.964561</ele>
<time>2026-04-23T01:23:38.000Z</time>
</trkpt>
<trkpt lat="59.0989820" lon="30.0247210">
<ele>67.635117</ele>
<time>2026-04-23T01:23:48.998Z</time>
</trkpt>
<trkpt lat="59.0987670" lon="30.0234580">
<ele>66.385445</ele>
<time>2026-04-23T01:24:56.002Z</time>
</trkpt>
<trkpt lat="59.0987490" lon="30.0232170">
<ele>64.678558</ele>
<time>2026-04-23T01:25:20.997Z</time>
</trkpt>
<trkpt lat="59.0986500" lon="30.0227430">
<ele>63.459358</ele>
<time>2026-04-23T01:25:47.997Z</time>
</trkpt>
<trkpt lat="59.0986350" lon="30.0225000">
<ele>63.642242</ele>
<time>2026-04-23T01:26:02.996Z</time>
</trkpt>
<trkpt lat="59.0984950" lon="30.0218940">
<ele>67.116959</ele>
<time>2026-04-23T01:26:40.001Z</time>
</trkpt>
<trkpt lat="59.0984000" lon="30.0213130">
<ele>65.775841</ele>
<time>2026-04-23T01:27:08.997Z</time>
</trkpt>
<trkpt lat="59.0983820" lon="30.0210250">
<ele>61.386719</ele>
<time>2026-04-23T01:27:23.996Z</time>
</trkpt>
<trkpt lat="59.0979450" lon="30.0188950">
<ele>65.928238</ele>
<time>2026-04-23T01:29:19.003Z</time>
</trkpt>
<trkpt lat="59.0978330" lon="30.0181130">
<ele>66.293999</ele>
<time>2026-04-23T01:29:58.004Z</time>
</trkpt>
<trkpt lat="59.0976820" lon="30.0173870">
<ele>66.111115</ele>
<time>2026-04-23T01:30:36.003Z</time>
</trkpt>
<trkpt lat="59.0975230" lon="30.0163010">
<ele>66.263519</ele>
<time>2026-04-23T01:31:27.998Z</time>
</trkpt>
<trkpt lat="59.0974570" lon="30.0160140">
<ele>65.623444</ele>
<time>2026-04-23T01:31:42.997Z</time>
</trkpt>
<trkpt lat="59.0974440" lon="30.0157970">
<ele>64.709038</ele>
<time>2026-04-23T01:31:54.998Z</time>
</trkpt>
<trkpt lat="59.0973150" lon="30.0153650">
<ele>65.166245</ele>
<time>2026-04-23T01:32:21.998Z</time>
</trkpt>
<trkpt lat="59.0972080" lon="30.0144540">
<ele>67.330315</ele>
<time>2026-04-23T01:33:13.000Z</time>
</trkpt>
<trkpt lat="59.0970640" lon="30.0138030">
<ele>68.458084</ele>
<time>2026-04-23T01:33:50.999Z</time>
</trkpt>
<trkpt lat="59.0970670" lon="30.0136080">
<ele>69.524879</ele>
<time>2026-04-23T01:35:49.004Z</time>
</trkpt>
<trkpt lat="59.0969840" lon="30.0133530">
<ele>71.262238</ele>
<time>2026-04-23T01:36:31.997Z</time>
</trkpt>
<trkpt lat="59.0969790" lon="30.0131840">
<ele>71.871841</ele>
<time>2026-04-23T01:36:39.004Z</time>
</trkpt>
<trkpt lat="59.0967650" lon="30.0120920">
<ele>70.378319</ele>
<time>2026-04-23T01:37:29.004Z</time>
</trkpt>
<trkpt lat="59.0963550" lon="30.0095790">
<ele>66.751198</ele>
<time>2026-04-23T01:39:21.997Z</time>
</trkpt>
<trkpt lat="59.0959070" lon="30.0071650">
<ele>68.519043</ele>
<time>2026-04-23T01:41:12.002Z</time>
</trkpt>
<trkpt lat="59.0957650" lon="30.0065340">
<ele>71.780403</ele>
<time>2026-04-23T01:41:40.004Z</time>
</trkpt>
<trkpt lat="59.0957080" lon="30.0060700">
<ele>70.591682</ele>
<time>2026-04-23T01:42:03.997Z</time>
</trkpt>
<trkpt lat="59.0954850" lon="30.0048570">
<ele>73.365356</ele>
<time>2026-04-23T01:42:59.000Z</time>
</trkpt>
<trkpt lat="59.0953440" lon="30.0038750">
<ele>72.511917</ele>
<time>2026-04-23T01:43:46.001Z</time>
</trkpt>
<trkpt lat="59.0949560" lon="30.0018040">
<ele>74.401680</ele>
<time>2026-04-23T01:45:27.003Z</time>
</trkpt>
<trkpt lat="59.0947740" lon="30.0004490">
<ele>76.169518</ele>
<time>2026-04-23T01:46:35.000Z</time>
</trkpt>
<trkpt lat="59.0947030" lon="30.0002380">
<ele>75.590401</ele>
<time>2026-04-23T01:46:44.996Z</time>
</trkpt>
<trkpt lat="59.0945960" lon="29.9994160">
<ele>76.504799</ele>
<time>2026-04-23T01:47:24.999Z</time>
</trkpt>
<trkpt lat="59.0945510" lon="29.9992700">
<ele>76.718163</ele>
<time>2026-04-23T01:47:31.998Z</time>
</trkpt>
<trkpt lat="59.0943380" lon="29.9979490">
<ele>75.712318</ele>
<time>2026-04-23T01:48:28.002Z</time>
</trkpt>
<trkpt lat="59.0942700" lon="29.9976740">
<ele>75.895203</ele>
<time>2026-04-23T01:48:40.997Z</time>
</trkpt>
<trkpt lat="59.0938820" lon="29.9955120">
<ele>78.242165</ele>
<time>2026-04-23T01:50:20.996Z</time>
</trkpt>
<trkpt lat="59.0936340" lon="29.9939450">
<ele>78.211685</ele>
<time>2026-04-23T01:51:37.996Z</time>
</trkpt>
<trkpt lat="59.0935100" lon="29.9935150">
<ele>78.333603</ele>
<time>2026-04-23T01:52:03.000Z</time>
</trkpt>
<trkpt lat="59.0932910" lon="29.9921040">
<ele>75.925682</ele>
<time>2026-04-23T01:53:14.004Z</time>
</trkpt>
<trkpt lat="59.0930420" lon="29.9907950">
<ele>70.835518</ele>
<time>2026-04-23T01:54:27.003Z</time>
</trkpt>
<trkpt lat="59.0929680" lon="29.9904270">
<ele>73.914001</ele>
<time>2026-04-23T01:54:43.998Z</time>
</trkpt>
<trkpt lat="59.0929200" lon="29.9904410">
<ele>77.967842</ele>
<time>2026-04-23T01:56:19.997Z</time>
</trkpt>
<trkpt lat="59.0929440" lon="29.9904230">
<ele>75.986641</ele>
<time>2026-04-23T01:57:41.999Z</time>
</trkpt>
<trkpt lat="59.0929180" lon="29.9901770">
<ele>75.529442</ele>
<time>2026-04-23T01:57:59.996Z</time>
</trkpt>
<trkpt lat="59.0927510" lon="29.9890630">
<ele>78.028801</ele>
<time>2026-04-23T01:59:24.996Z</time>
</trkpt>
<trkpt lat="59.0925480" lon="29.9881790">
<ele>78.120239</ele>
<time>2026-04-23T02:00:14.003Z</time>
</trkpt>
<trkpt lat="59.0922420" lon="29.9864310">
<ele>78.364082</ele>
<time>2026-04-23T02:01:34.000Z</time>
</trkpt>
<trkpt lat="59.0922200" lon="29.9861280">
<ele>78.607918</ele>
<time>2026-04-23T02:01:47.004Z</time>
</trkpt>
<trkpt lat="59.0922300" lon="29.9857480">
<ele>79.217522</ele>
<time>2026-04-23T02:02:03.998Z</time>
</trkpt>
<trkpt lat="59.0924490" lon="29.9834870">
<ele>79.339439</ele>
<time>2026-04-23T02:03:53.001Z</time>
</trkpt>
<trkpt lat="59.0924920" lon="29.9828200">
<ele>78.394562</ele>
<time>2026-04-23T02:04:24.001Z</time>
</trkpt>
<trkpt lat="59.0925910" lon="29.9820930">
<ele>78.120239</ele>
<time>2026-04-23T02:04:56.997Z</time>
</trkpt>
<trkpt lat="59.0927150" lon="29.9805480">
<ele>78.181198</ele>
<time>2026-04-23T02:06:09.003Z</time>
</trkpt>
<trkpt lat="59.0932020" lon="29.9759140">
<ele>80.741516</ele>
<time>2026-04-23T02:09:38.998Z</time>
</trkpt>
<trkpt lat="59.0945350" lon="29.9760130">
<ele>80.375763</ele>
<time>2026-04-23T02:11:25.996Z</time>
</trkpt>
<trkpt lat="59.0958100" lon="29.9760090">
<ele>83.362801</ele>
<time>2026-04-23T02:13:10.998Z</time>
</trkpt>
<trkpt lat="59.0986500" lon="29.9769610">
<ele>78.425034</ele>
<time>2026-04-23T02:17:19.000Z</time>
</trkpt>
<trkpt lat="59.1018750" lon="29.9779160">
<ele>78.089767</ele>
<time>2026-04-23T02:21:42.002Z</time>
</trkpt>
<trkpt lat="59.1021130" lon="29.9781180">
<ele>78.790802</ele>
<time>2026-04-23T02:22:02.004Z</time>
</trkpt>
<trkpt lat="59.1020750" lon="29.9783000">
<ele>78.150719</ele>
<time>2026-04-23T02:23:18.001Z</time>
</trkpt>
</trkseg>
</trk>
<trk>
 <name>20260423_Lisa67</name>
 <desc>20260423_Lisa67</desc>
<trkseg>
<trkpt lat="59.1020940" lon="29.9782730">
<ele>86.014565</ele>
<time>2026-04-22T20:20:56.003Z</time>
</trkpt>
<trkpt lat="59.1020740" lon="29.9782550">
<ele>84.612480</ele>
<time>2026-04-22T20:22:28.001Z</time>
</trkpt>
<trkpt lat="59.1020740" lon="29.9783250">
<ele>82.692238</ele>
<time>2026-04-22T20:22:59.002Z</time>
</trkpt>
<trkpt lat="59.1019890" lon="29.9783400">
<ele>82.326485</ele>
<time>2026-04-22T20:24:00.000Z</time>
</trkpt>
<trkpt lat="59.1021820" lon="29.9782120">
<ele>79.644234</ele>
<time>2026-04-22T20:25:26.996Z</time>
</trkpt>
<trkpt lat="59.1021340" lon="29.9783240">
<ele>77.571602</ele>
<time>2026-04-22T20:28:58.002Z</time>
</trkpt>
<trkpt lat="59.1021670" lon="29.9782590">
<ele>78.028801</ele>
<time>2026-04-22T20:30:46.996Z</time>
</trkpt>
<trkpt lat="59.1021580" lon="29.9783000">
<ele>79.522316</ele>
<time>2026-04-22T20:31:33.997Z</time>
</trkpt>
<trkpt lat="59.1021870" lon="29.9782960">
<ele>79.674721</ele>
<time>2026-04-22T20:33:16.001Z</time>
</trkpt>
<trkpt lat="59.1021680" lon="29.9783230">
<ele>77.998322</ele>
<time>2026-04-22T20:35:19.000Z</time>
</trkpt>
<trkpt lat="59.1021870" lon="29.9782620">
<ele>78.059280</ele>
<time>2026-04-22T20:36:14.996Z</time>
</trkpt>
<trkpt lat="59.1021030" lon="29.9781820">
<ele>78.364082</ele>
<time>2026-04-22T20:37:55.004Z</time>
</trkpt>
<trkpt lat="59.1021340" lon="29.9781480">
<ele>79.705200</ele>
<time>2026-04-22T20:38:51.000Z</time>
</trkpt>
<trkpt lat="59.1021420" lon="29.9782270">
<ele>80.010002</ele>
<time>2026-04-22T20:40:14.998Z</time>
</trkpt>
<trkpt lat="59.1020670" lon="29.9781700">
<ele>70.774559</ele>
<time>2026-04-22T20:44:24.003Z</time>
</trkpt>
<trkpt lat="59.1021170" lon="29.9783860">
<ele>75.468483</ele>
<time>2026-04-22T20:48:43.004Z</time>
</trkpt>
<trkpt lat="59.1021340" lon="29.9783000">
<ele>81.137764</ele>
<time>2026-04-22T20:50:07.996Z</time>
</trkpt>
<trkpt lat="59.1021360" lon="29.9783680">
<ele>79.095596</ele>
<time>2026-04-22T20:52:29.001Z</time>
</trkpt>
<trkpt lat="59.1021090" lon="29.9783620">
<ele>78.851761</ele>
<time>2026-04-22T20:53:59.997Z</time>
</trkpt>
<trkpt lat="59.1021520" lon="29.9783690">
<ele>79.065117</ele>
<time>2026-04-22T20:54:53.997Z</time>
</trkpt>
<trkpt lat="59.1021420" lon="29.9784060">
<ele>79.491837</ele>
<time>2026-04-22T20:55:40.999Z</time>
</trkpt>
<trkpt lat="59.1021230" lon="29.9783460">
<ele>79.248001</ele>
<time>2026-04-22T20:57:19.002Z</time>
</trkpt>
<trkpt lat="59.1021290" lon="29.9782140">
<ele>78.211685</ele>
<time>2026-04-22T20:58:25.003Z</time>
</trkpt>
<trkpt lat="59.1020960" lon="29.9782630">
<ele>79.644234</ele>
<time>2026-04-22T21:00:21.997Z</time>
</trkpt>
<trkpt lat="59.1021080" lon="29.9783080">
<ele>80.010002</ele>
<time>2026-04-22T21:01:11.004Z</time>
</trkpt>
<trkpt lat="59.1020750" lon="29.9782670">
<ele>81.168236</ele>
<time>2026-04-22T21:03:48.001Z</time>
</trkpt>
<trkpt lat="59.1021270" lon="29.9782590">
<ele>81.259682</ele>
<time>2026-04-22T21:06:27.996Z</time>
</trkpt>
<trkpt lat="59.1020990" lon="29.9782230">
<ele>81.046318</ele>
<time>2026-04-22T21:07:39.000Z</time>
</trkpt>
<trkpt lat="59.1021120" lon="29.9782540">
<ele>79.156563</ele>
<time>2026-04-22T21:08:06.000Z</time>
</trkpt>
<trkpt lat="59.1021200" lon="29.9781890">
<ele>80.131920</ele>
<time>2026-04-22T21:08:35.998Z</time>
</trkpt>
<trkpt lat="59.1020960" lon="29.9782310">
<ele>81.076797</ele>
<time>2026-04-22T21:09:59.003Z</time>
</trkpt>
<trkpt lat="59.1021200" lon="29.9782870">
<ele>78.425034</ele>
<time>2026-04-22T21:11:59.004Z</time>
</trkpt>
<trkpt lat="59.1021070" lon="29.9781680">
<ele>80.162399</ele>
<time>2026-04-22T21:13:17.999Z</time>
</trkpt>
<trkpt lat="59.1020700" lon="29.9781680">
<ele>81.655922</ele>
<time>2026-04-22T21:15:35.997Z</time>
</trkpt>
<trkpt lat="59.1020920" lon="29.9782210">
<ele>80.467201</ele>
<time>2026-04-22T21:15:58.997Z</time>
</trkpt>
<trkpt lat="59.1021410" lon="29.9781600">
<ele>79.522316</ele>
<time>2026-04-22T21:16:16.000Z</time>
</trkpt>
<trkpt lat="59.1020990" lon="29.9780700">
<ele>77.754478</ele>
<time>2026-04-22T21:16:25.997Z</time>
</trkpt>
<trkpt lat="59.1019250" lon="29.9780460">
<ele>78.028801</ele>
<time>2026-04-22T21:16:48.003Z</time>
</trkpt>
<trkpt lat="59.1019710" lon="29.9781850">
<ele>77.876404</ele>
<time>2026-04-22T21:17:04.004Z</time>
</trkpt>
<trkpt lat="59.1021310" lon="29.9781100">
<ele>76.047600</ele>
<time>2026-04-22T21:17:43.999Z</time>
</trkpt>
<trkpt lat="59.1022070" lon="29.9781510">
<ele>75.986641</ele>
<time>2026-04-22T21:17:56.000Z</time>
</trkpt>
<trkpt lat="59.1022230" lon="29.9781100">
<ele>77.419197</ele>
<time>2026-04-22T21:18:52.998Z</time>
</trkpt>
<trkpt lat="59.1022110" lon="29.9781680">
<ele>77.480156</ele>
<time>2026-04-22T21:19:10.001Z</time>
</trkpt>
<trkpt lat="59.1021190" lon="29.9780940">
<ele>76.260956</ele>
<time>2026-04-22T21:19:26.003Z</time>
</trkpt>
<trkpt lat="59.1011350" lon="29.9777220">
<ele>72.115685</ele>
<time>2026-04-22T21:19:54.998Z</time>
</trkpt>
<trkpt lat="59.0991480" lon="29.9771360">
<ele>70.225922</ele>
<time>2026-04-22T21:20:42.000Z</time>
</trkpt>
<trkpt lat="59.0956340" lon="29.9760060">
<ele>72.389999</ele>
<time>2026-04-22T21:21:57.997Z</time>
</trkpt>
<trkpt lat="59.0947890" lon="29.9760500">
<ele>70.164963</ele>
<time>2026-04-22T21:22:15.001Z</time>
</trkpt>
<trkpt lat="59.0932360" lon="29.9758930">
<ele>80.284317</ele>
<time>2026-04-22T21:22:46.001Z</time>
</trkpt>
<trkpt lat="59.0929990" lon="29.9777170">
<ele>79.857597</ele>
<time>2026-04-22T21:23:10.003Z</time>
</trkpt>
<trkpt lat="59.0928170" lon="29.9799380">
<ele>79.126083</ele>
<time>2026-04-22T21:23:38.999Z</time>
</trkpt>
<trkpt lat="59.0925140" lon="29.9825220">
<ele>73.822556</ele>
<time>2026-04-22T21:24:22.000Z</time>
</trkpt>
<trkpt lat="59.0923430" lon="29.9843230">
<ele>71.353683</ele>
<time>2026-04-22T21:24:50.003Z</time>
</trkpt>
<trkpt lat="59.0922360" lon="29.9857960">
<ele>72.481438</ele>
<time>2026-04-22T21:25:13.002Z</time>
</trkpt>
<trkpt lat="59.0922350" lon="29.9862720">
<ele>73.243439</ele>
<time>2026-04-22T21:25:20.001Z</time>
</trkpt>
<trkpt lat="59.0926430" lon="29.9886480">
<ele>73.731117</ele>
<time>2026-04-22T21:25:52.003Z</time>
</trkpt>
<trkpt lat="59.0927440" lon="29.9889780">
<ele>73.365356</ele>
<time>2026-04-22T21:25:56.997Z</time>
</trkpt>
<trkpt lat="59.0927800" lon="29.9893360">
<ele>73.456802</ele>
<time>2026-04-22T21:26:02.000Z</time>
</trkpt>
<trkpt lat="59.0930710" lon="29.9908350">
<ele>67.878960</ele>
<time>2026-04-22T21:26:27.997Z</time>
</trkpt>
<trkpt lat="59.0932130" lon="29.9916610">
<ele>68.915283</ele>
<time>2026-04-22T21:26:39.998Z</time>
</trkpt>
<trkpt lat="59.0933050" lon="29.9924310">
<ele>67.147438</ele>
<time>2026-04-22T21:26:50.997Z</time>
</trkpt>
<trkpt lat="59.0937890" lon="29.9949360">
<ele>73.609200</ele>
<time>2026-04-22T21:27:33.998Z</time>
</trkpt>
<trkpt lat="59.0939740" lon="29.9963710">
<ele>64.952881</ele>
<time>2026-04-22T21:27:59.996Z</time>
</trkpt>
<trkpt lat="59.0946210" lon="30.0004350">
<ele>41.026081</ele>
<time>2026-04-22T21:28:53.003Z</time>
</trkpt>
<trkpt lat="59.0956950" lon="30.0065810">
<ele>51.389282</ele>
<time>2026-04-22T21:30:32.000Z</time>
</trkpt>
<trkpt lat="59.0964650" lon="30.0100360">
<ele>59.070240</ele>
<time>2026-04-22T21:31:23.002Z</time>
</trkpt>
<trkpt lat="59.0965900" lon="30.0110220">
<ele>64.434715</ele>
<time>2026-04-22T21:31:36.998Z</time>
</trkpt>
<trkpt lat="59.0969150" lon="30.0130750">
<ele>51.023518</ele>
<time>2026-04-22T21:32:14.004Z</time>
</trkpt>
<trkpt lat="59.0969830" lon="30.0139000">
<ele>39.928799</ele>
<time>2026-04-22T21:32:33.996Z</time>
</trkpt>
<trkpt lat="59.0971070" lon="30.0145300">
<ele>41.696640</ele>
<time>2026-04-22T21:32:48.002Z</time>
</trkpt>
<trkpt lat="59.0971900" lon="30.0153120">
<ele>42.123360</ele>
<time>2026-04-22T21:33:04.997Z</time>
</trkpt>
<trkpt lat="59.0973440" lon="30.0159490">
<ele>41.940483</ele>
<time>2026-04-22T21:33:20.998Z</time>
</trkpt>
<trkpt lat="59.0975090" lon="30.0169780">
<ele>34.930080</ele>
<time>2026-04-22T21:33:43.998Z</time>
</trkpt>
<trkpt lat="59.0979930" lon="30.0194350">
<ele>54.193439</ele>
<time>2026-04-22T21:34:45.998Z</time>
</trkpt>
<trkpt lat="59.0980390" lon="30.0195880">
<ele>60.594242</ele>
<time>2026-04-22T21:35:00.997Z</time>
</trkpt>
<trkpt lat="59.0981310" lon="30.0196750">
<ele>78.760315</ele>
<time>2026-04-22T21:35:45.001Z</time>
</trkpt>
<trkpt lat="59.0980590" lon="30.0196670">
<ele>72.359520</ele>
<time>2026-04-22T21:35:51.999Z</time>
</trkpt>
<trkpt lat="59.0981320" lon="30.0199310">
<ele>71.475601</ele>
<time>2026-04-22T21:36:12.001Z</time>
</trkpt>
<trkpt lat="59.0981310" lon="30.0202340">
<ele>64.099442</ele>
<time>2026-04-22T21:36:21.997Z</time>
</trkpt>
<trkpt lat="59.0982320" lon="30.0206370">
<ele>58.064400</ele>
<time>2026-04-22T21:36:31.000Z</time>
</trkpt>
<trkpt lat="59.0983520" lon="30.0214030">
<ele>50.901600</ele>
<time>2026-04-22T21:36:55.996Z</time>
</trkpt>
<trkpt lat="59.0983730" lon="30.0218210">
<ele>45.232319</ele>
<time>2026-04-22T21:37:10.001Z</time>
</trkpt>
<trkpt lat="59.0985130" lon="30.0223360">
<ele>53.492401</ele>
<time>2026-04-22T21:37:39.999Z</time>
</trkpt>
<trkpt lat="59.0987070" lon="30.0234330">
<ele>59.070240</ele>
<time>2026-04-22T21:38:32.997Z</time>
</trkpt>
<trkpt lat="59.0987130" lon="30.0236010">
<ele>61.234318</ele>
<time>2026-04-22T21:38:47.996Z</time>
</trkpt>
<trkpt lat="59.0989380" lon="30.0245830">
<ele>58.856880</ele>
<time>2026-04-22T21:39:22.003Z</time>
</trkpt>
<trkpt lat="59.0990350" lon="30.0253300">
<ele>51.602642</ele>
<time>2026-04-22T21:39:37.996Z</time>
</trkpt>
<trkpt lat="59.0992400" lon="30.0264670">
<ele>47.701199</ele>
<time>2026-04-22T21:40:04.002Z</time>
</trkpt>
<trkpt lat="59.0992710" lon="30.0269080">
<ele>44.836082</ele>
<time>2026-04-22T21:40:15.001Z</time>
</trkpt>
<trkpt lat="59.0993800" lon="30.0274720">
<ele>35.021519</ele>
<time>2026-04-22T21:40:28.998Z</time>
</trkpt>
<trkpt lat="59.0994230" lon="30.0279750">
<ele>32.217358</ele>
<time>2026-04-22T21:40:40.999Z</time>
</trkpt>
<trkpt lat="59.0995190" lon="30.0285430">
<ele>37.398960</ele>
<time>2026-04-22T21:40:51.997Z</time>
</trkpt>
<trkpt lat="59.0997110" lon="30.0292110">
<ele>49.103283</ele>
<time>2026-04-22T21:41:10.003Z</time>
</trkpt>
<trkpt lat="59.0999250" lon="30.0303480">
<ele>45.110401</ele>
<time>2026-04-22T21:41:36.001Z</time>
</trkpt>
<trkpt lat="59.0999570" lon="30.0307320">
<ele>46.207684</ele>
<time>2026-04-22T21:41:48.002Z</time>
</trkpt>
<trkpt lat="59.1001460" lon="30.0317670">
<ele>49.773842</ele>
<time>2026-04-22T21:42:16.004Z</time>
</trkpt>
<trkpt lat="59.1001680" lon="30.0320760">
<ele>48.950882</ele>
<time>2026-04-22T21:42:24.998Z</time>
</trkpt>
<trkpt lat="59.1003470" lon="30.0328490">
<ele>47.304958</ele>
<time>2026-04-22T21:42:46.002Z</time>
</trkpt>
<trkpt lat="59.1003470" lon="30.0329760">
<ele>46.634399</ele>
<time>2026-04-22T21:42:50.003Z</time>
</trkpt>
<trkpt lat="59.1005570" lon="30.0340090">
<ele>59.344559</ele>
<time>2026-04-22T21:43:44.996Z</time>
</trkpt>
<trkpt lat="59.1006180" lon="30.0346500">
<ele>51.450241</ele>
<time>2026-04-22T21:44:03.002Z</time>
</trkpt>
<trkpt lat="59.1006160" lon="30.0356770">
<ele>36.179760</ele>
<time>2026-04-22T21:44:23.004Z</time>
</trkpt>
<trkpt lat="59.1006480" lon="30.0361380">
<ele>27.675840</ele>
<time>2026-04-22T21:44:35.998Z</time>
</trkpt>
<trkpt lat="59.1007610" lon="30.0367930">
<ele>29.291279</ele>
<time>2026-04-22T21:44:46.003Z</time>
</trkpt>
<trkpt lat="59.1008620" lon="30.0371110">
<ele>26.395679</ele>
<time>2026-04-22T21:44:57.002Z</time>
</trkpt>
<trkpt lat="59.1009480" lon="30.0372370">
<ele>29.870399</ele>
<time>2026-04-22T21:45:09.996Z</time>
</trkpt>
<trkpt lat="59.1010390" lon="30.0379630">
<ele>36.911278</ele>
<time>2026-04-22T21:45:36.996Z</time>
</trkpt>
<trkpt lat="59.1012020" lon="30.0388290">
<ele>43.830242</ele>
<time>2026-04-22T21:46:06.001Z</time>
</trkpt>
<trkpt lat="59.1013760" lon="30.0394060">
<ele>59.466480</ele>
<time>2026-04-22T21:46:53.003Z</time>
</trkpt>
<trkpt lat="59.1015230" lon="30.0395080">
<ele>71.384155</ele>
<time>2026-04-22T21:48:46.999Z</time>
</trkpt>
<trkpt lat="59.1014850" lon="30.0395300">
<ele>71.719444</ele>
<time>2026-04-22T21:49:16.997Z</time>
</trkpt>
<trkpt lat="59.1014680" lon="30.0396060">
<ele>71.475601</ele>
<time>2026-04-22T21:49:43.997Z</time>
</trkpt>
<trkpt lat="59.1014700" lon="30.0395290">
<ele>77.236320</ele>
<time>2026-04-22T21:51:38.002Z</time>
</trkpt>
<trkpt lat="59.1015510" lon="30.0395860">
<ele>78.059280</ele>
<time>2026-04-22T21:52:09.002Z</time>
</trkpt>
<trkpt lat="59.1015150" lon="30.0395770">
<ele>77.998322</ele>
<time>2026-04-22T21:52:36.002Z</time>
</trkpt>
<trkpt lat="59.1015720" lon="30.0395920">
<ele>78.668884</ele>
<time>2026-04-22T21:53:07.996Z</time>
</trkpt>
<trkpt lat="59.1015730" lon="30.0395550">
<ele>79.644234</ele>
<time>2026-04-22T21:53:38.003Z</time>
</trkpt>
<trkpt lat="59.1014920" lon="30.0395310">
<ele>82.113121</ele>
<time>2026-04-22T21:54:45.999Z</time>
</trkpt>
<trkpt lat="59.1015930" lon="30.0396700">
<ele>82.875114</ele>
<time>2026-04-22T21:55:35.999Z</time>
</trkpt>
<trkpt lat="59.1015270" lon="30.0396510">
<ele>85.130638</ele>
<time>2026-04-22T21:56:05.997Z</time>
</trkpt>
<trkpt lat="59.1016230" lon="30.0396590">
<ele>84.124802</ele>
<time>2026-04-22T21:56:40.004Z</time>
</trkpt>
<trkpt lat="59.1015660" lon="30.0396280">
<ele>84.612480</ele>
<time>2026-04-22T21:57:07.998Z</time>
</trkpt>
<trkpt lat="59.1015770" lon="30.0395320">
<ele>83.332321</ele>
<time>2026-04-22T21:57:34.004Z</time>
</trkpt>
<trkpt lat="59.1016320" lon="30.0397390">
<ele>82.600800</ele>
<time>2026-04-22T21:57:59.000Z</time>
</trkpt>
<trkpt lat="59.1015990" lon="30.0401920">
<ele>81.960716</ele>
<time>2026-04-22T21:58:34.000Z</time>
</trkpt>
<trkpt lat="59.1016150" lon="30.0404260">
<ele>82.143600</ele>
<time>2026-04-22T21:58:54.002Z</time>
</trkpt>
<trkpt lat="59.1018300" lon="30.0413460">
<ele>81.320633</ele>
<time>2026-04-22T21:59:55.000Z</time>
</trkpt>
<trkpt lat="59.1018670" lon="30.0416930">
<ele>78.455521</ele>
<time>2026-04-22T22:00:19.002Z</time>
</trkpt>
<trkpt lat="59.1019510" lon="30.0420590">
<ele>73.487282</ele>
<time>2026-04-22T22:00:39.004Z</time>
</trkpt>
<trkpt lat="59.1019880" lon="30.0426470">
<ele>70.134483</ele>
<time>2026-04-22T22:01:18.998Z</time>
</trkpt>
<trkpt lat="59.1021900" lon="30.0435860">
<ele>71.018402</ele>
<time>2026-04-22T22:02:29.000Z</time>
</trkpt>
<trkpt lat="59.1022790" lon="30.0440810">
<ele>71.018402</ele>
<time>2026-04-22T22:03:08.001Z</time>
</trkpt>
<trkpt lat="59.1022810" lon="30.0443320">
<ele>70.957443</ele>
<time>2026-04-22T22:03:29.998Z</time>
</trkpt>
<trkpt lat="59.1024380" lon="30.0447720">
<ele>72.207115</ele>
<time>2026-04-22T22:04:03.003Z</time>
</trkpt>
<trkpt lat="59.1024480" lon="30.0450520">
<ele>72.816719</ele>
<time>2026-04-22T22:04:41.002Z</time>
</trkpt>
<trkpt lat="59.1025220" lon="30.0452280">
<ele>72.146156</ele>
<time>2026-04-22T22:05:04.001Z</time>
</trkpt>
<trkpt lat="59.1026120" lon="30.0456100">
<ele>71.841362</ele>
<time>2026-04-22T22:05:40.004Z</time>
</trkpt>
<trkpt lat="59.1026410" lon="30.0458750">
<ele>73.731117</ele>
<time>2026-04-22T22:06:07.998Z</time>
</trkpt>
<trkpt lat="59.1026890" lon="30.0459270">
<ele>79.034637</ele>
<time>2026-04-22T22:06:38.998Z</time>
</trkpt>
<trkpt lat="59.1027180" lon="30.0460440">
<ele>79.583282</ele>
<time>2026-04-22T22:07:05.998Z</time>
</trkpt>
<trkpt lat="59.1027130" lon="30.0461160">
<ele>79.796638</ele>
<time>2026-04-22T22:07:36.998Z</time>
</trkpt>
<trkpt lat="59.1026420" lon="30.0461870">
<ele>80.406235</ele>
<time>2026-04-22T22:08:33.003Z</time>
</trkpt>
<trkpt lat="59.1027490" lon="30.0459870">
<ele>82.448402</ele>
<time>2026-04-22T22:10:02.997Z</time>
</trkpt>
<trkpt lat="59.1027390" lon="30.0460360">
<ele>82.631279</ele>
<time>2026-04-22T22:10:30.999Z</time>
</trkpt>
<trkpt lat="59.1026890" lon="30.0459410">
<ele>82.356964</ele>
<time>2026-04-22T22:10:56.004Z</time>
</trkpt>
<trkpt lat="59.1026710" lon="30.0460020">
<ele>84.368637</ele>
<time>2026-04-22T22:11:23.004Z</time>
</trkpt>
<trkpt lat="59.1027490" lon="30.0460110">
<ele>83.606636</ele>
<time>2026-04-22T22:12:18.999Z</time>
</trkpt>
<trkpt lat="59.1027210" lon="30.0460950">
<ele>84.338165</ele>
<time>2026-04-22T22:12:52.004Z</time>
</trkpt>
<trkpt lat="59.1027960" lon="30.0459870">
<ele>83.606636</ele>
<time>2026-04-22T22:13:21.000Z</time>
</trkpt>
<trkpt lat="59.1027540" lon="30.0460080">
<ele>80.893921</ele>
<time>2026-04-22T22:13:48.000Z</time>
</trkpt>
<trkpt lat="59.1026930" lon="30.0461900">
<ele>79.552803</ele>
<time>2026-04-22T22:14:47.996Z</time>
</trkpt>
<trkpt lat="59.1026350" lon="30.0461420">
<ele>77.998322</ele>
<time>2026-04-22T22:15:17.001Z</time>
</trkpt>
<trkpt lat="59.1025760" lon="30.0462460">
<ele>83.698082</ele>
<time>2026-04-22T22:15:42.998Z</time>
</trkpt>
<trkpt lat="59.1025520" lon="30.0462140">
<ele>84.460083</ele>
<time>2026-04-22T22:16:08.003Z</time>
</trkpt>
<trkpt lat="59.1025690" lon="30.0461710">
<ele>85.679283</ele>
<time>2026-04-22T22:16:46.001Z</time>
</trkpt>
<trkpt lat="59.1026510" lon="30.0461640">
<ele>83.179916</ele>
<time>2026-04-22T22:17:36.001Z</time>
</trkpt>
<trkpt lat="59.1025670" lon="30.0465060">
<ele>79.095596</ele>
<time>2026-04-22T22:18:50.003Z</time>
</trkpt>
<trkpt lat="59.1026120" lon="30.0463330">
<ele>77.754478</ele>
<time>2026-04-22T22:19:55.001Z</time>
</trkpt>
<trkpt lat="59.1025740" lon="30.0463450">
<ele>77.175362</ele>
<time>2026-04-22T22:20:57.002Z</time>
</trkpt>
<trkpt lat="59.1025500" lon="30.0462740">
<ele>77.876404</ele>
<time>2026-04-22T22:21:51.002Z</time>
</trkpt>
<trkpt lat="59.1026070" lon="30.0462960">
<ele>82.326485</ele>
<time>2026-04-22T22:22:46.004Z</time>
</trkpt>
<trkpt lat="59.1025570" lon="30.0462830">
<ele>79.522316</ele>
<time>2026-04-22T22:25:15.001Z</time>
</trkpt>
<trkpt lat="59.1025910" lon="30.0462840">
<ele>78.364082</ele>
<time>2026-04-22T22:25:39.996Z</time>
</trkpt>
<trkpt lat="59.1025890" lon="30.0463400">
<ele>78.546967</ele>
<time>2026-04-22T22:26:14.004Z</time>
</trkpt>
<trkpt lat="59.1024540" lon="30.0462920">
<ele>74.828400</ele>
<time>2026-04-22T22:27:58.003Z</time>
</trkpt>
<trkpt lat="59.1024700" lon="30.0462320">
<ele>73.731117</ele>
<time>2026-04-22T22:28:22.999Z</time>
</trkpt>
<trkpt lat="59.1023830" lon="30.0460860">
<ele>71.506081</ele>
<time>2026-04-22T22:29:07.996Z</time>
</trkpt>
<trkpt lat="59.1024110" lon="30.0459580">
<ele>71.170799</ele>
<time>2026-04-22T22:29:27.997Z</time>
</trkpt>
<trkpt lat="59.1023760" lon="30.0458600">
<ele>72.298561</ele>
<time>2026-04-22T22:30:21.997Z</time>
</trkpt>
<trkpt lat="59.1024050" lon="30.0458350">
<ele>72.877686</ele>
<time>2026-04-22T22:30:40.003Z</time>
</trkpt>
<trkpt lat="59.1024940" lon="30.0459430">
<ele>72.481438</ele>
<time>2026-04-22T22:31:21.000Z</time>
</trkpt>
<trkpt lat="59.1025090" lon="30.0458980">
<ele>72.207115</ele>
<time>2026-04-22T22:31:42.997Z</time>
</trkpt>
<trkpt lat="59.1026440" lon="30.0458690">
<ele>71.932800</ele>
<time>2026-04-22T22:32:11.000Z</time>
</trkpt>
<trkpt lat="59.1026080" lon="30.0460670">
<ele>71.719444</ele>
<time>2026-04-22T22:33:09.000Z</time>
</trkpt>
<trkpt lat="59.1026360" lon="30.0462740">
<ele>72.694801</ele>
<time>2026-04-22T22:33:34.004Z</time>
</trkpt>
<trkpt lat="59.1025110" lon="30.0463600">
<ele>72.633842</ele>
<time>2026-04-22T22:34:16.003Z</time>
</trkpt>
<trkpt lat="59.1022270" lon="30.0461120">
<ele>70.225922</ele>
<time>2026-04-22T22:36:01.999Z</time>
</trkpt>
<trkpt lat="59.1022160" lon="30.0460120">
<ele>70.256401</ele>
<time>2026-04-22T22:36:45.000Z</time>
</trkpt>
<trkpt lat="59.1021580" lon="30.0459480">
<ele>69.220085</ele>
<time>2026-04-22T22:37:22.999Z</time>
</trkpt>
<trkpt lat="59.1020560" lon="30.0459730">
<ele>69.067680</ele>
<time>2026-04-22T22:38:04.998Z</time>
</trkpt>
<trkpt lat="59.1020490" lon="30.0461280">
<ele>74.371201</ele>
<time>2026-04-22T22:40:08.999Z</time>
</trkpt>
<trkpt lat="59.1020020" lon="30.0461760">
<ele>79.126083</ele>
<time>2026-04-22T22:41:19.000Z</time>
</trkpt>
<trkpt lat="59.1020070" lon="30.0459800">
<ele>78.150719</ele>
<time>2026-04-22T22:42:23.999Z</time>
</trkpt>
<trkpt lat="59.1020630" lon="30.0458620">
<ele>75.681839</ele>
<time>2026-04-22T22:43:17.999Z</time>
</trkpt>
<trkpt lat="59.1020980" lon="30.0458940">
<ele>70.500244</ele>
<time>2026-04-22T22:46:49.999Z</time>
</trkpt>
<trkpt lat="59.1020760" lon="30.0458910">
<ele>66.446404</ele>
<time>2026-04-22T22:47:49.001Z</time>
</trkpt>
<trkpt lat="59.1021110" lon="30.0459500">
<ele>66.873116</ele>
<time>2026-04-22T22:49:15.004Z</time>
</trkpt>
<trkpt lat="59.1020850" lon="30.0459970">
<ele>67.360802</ele>
<time>2026-04-22T22:50:11.000Z</time>
</trkpt>
<trkpt lat="59.1020950" lon="30.0459560">
<ele>66.781685</ele>
<time>2026-04-22T22:53:24.000Z</time>
</trkpt>
<trkpt lat="59.1020650" lon="30.0459670">
<ele>68.854317</ele>
<time>2026-04-22T22:54:27.003Z</time>
</trkpt>
<trkpt lat="59.1020470" lon="30.0458900">
<ele>68.854317</ele>
<time>2026-04-22T22:54:57.001Z</time>
</trkpt>
<trkpt lat="59.1020860" lon="30.0460190">
<ele>69.342003</ele>
<time>2026-04-22T22:56:00.004Z</time>
</trkpt>
<trkpt lat="59.1020870" lon="30.0458780">
<ele>70.896484</ele>
<time>2026-04-22T22:56:31.998Z</time>
</trkpt>
<trkpt lat="59.1020960" lon="30.0459400">
<ele>70.043037</ele>
<time>2026-04-22T22:57:31.000Z</time>
</trkpt>
<trkpt lat="59.1021280" lon="30.0459230">
<ele>70.073517</ele>
<time>2026-04-22T22:58:06.001Z</time>
</trkpt>
<trkpt lat="59.1020840" lon="30.0457890">
<ele>67.574158</ele>
<time>2026-04-22T23:03:30.001Z</time>
</trkpt>
<trkpt lat="59.1021140" lon="30.0457590">
<ele>66.812157</ele>
<time>2026-04-22T23:03:59.999Z</time>
</trkpt>
<trkpt lat="59.1021370" lon="30.0455180">
<ele>65.745361</ele>
<time>2026-04-22T23:05:29.000Z</time>
</trkpt>
<trkpt lat="59.1021180" lon="30.0454730">
<ele>64.922401</ele>
<time>2026-04-22T23:05:51.999Z</time>
</trkpt>
<trkpt lat="59.1021520" lon="30.0454170">
<ele>66.507362</ele>
<time>2026-04-22T23:06:36.996Z</time>
</trkpt>
<trkpt lat="59.1021340" lon="30.0453250">
<ele>67.421761</ele>
<time>2026-04-22T23:08:28.003Z</time>
</trkpt>
<trkpt lat="59.1021940" lon="30.0453440">
<ele>70.043037</ele>
<time>2026-04-22T23:11:03.998Z</time>
</trkpt>
<trkpt lat="59.1021300" lon="30.0451010">
<ele>71.963280</ele>
<time>2026-04-22T23:13:48.003Z</time>
</trkpt>
<trkpt lat="59.1020820" lon="30.0451420">
<ele>71.597519</ele>
<time>2026-04-22T23:14:34.996Z</time>
</trkpt>
<trkpt lat="59.1019920" lon="30.0450130">
<ele>79.278481</ele>
<time>2026-04-22T23:20:13.001Z</time>
</trkpt>
<trkpt lat="59.1020430" lon="30.0450720">
<ele>77.784958</ele>
<time>2026-04-22T23:21:31.997Z</time>
</trkpt>
<trkpt lat="59.1020090" lon="30.0450990">
<ele>77.723999</ele>
<time>2026-04-22T23:22:01.001Z</time>
</trkpt>
<trkpt lat="59.1020120" lon="30.0450490">
<ele>77.175362</ele>
<time>2026-04-22T23:23:00.997Z</time>
</trkpt>
<trkpt lat="59.1019750" lon="30.0451460">
<ele>75.498962</ele>
<time>2026-04-22T23:24:48.997Z</time>
</trkpt>
<trkpt lat="59.1019770" lon="30.0453360">
<ele>71.292717</ele>
<time>2026-04-22T23:26:42.000Z</time>
</trkpt>
<trkpt lat="59.1019960" lon="30.0454130">
<ele>69.799202</ele>
<time>2026-04-22T23:27:10.996Z</time>
</trkpt>
<trkpt lat="59.1020160" lon="30.0453720">
<ele>69.067680</ele>
<time>2026-04-22T23:27:37.996Z</time>
</trkpt>
<trkpt lat="59.1019680" lon="30.0453630">
<ele>68.884804</ele>
<time>2026-04-22T23:28:32.998Z</time>
</trkpt>
<trkpt lat="59.1020100" lon="30.0454420">
<ele>69.982079</ele>
<time>2026-04-22T23:29:22.998Z</time>
</trkpt>
<trkpt lat="59.1020350" lon="30.0454450">
<ele>68.762878</ele>
<time>2026-04-22T23:29:48.002Z</time>
</trkpt>
<trkpt lat="59.1019720" lon="30.0451740">
<ele>68.640961</ele>
<time>2026-04-22T23:30:46.996Z</time>
</trkpt>
<trkpt lat="59.1020620" lon="30.0452200">
<ele>65.349121</ele>
<time>2026-04-22T23:33:00.000Z</time>
</trkpt>
<trkpt lat="59.1020300" lon="30.0451890">
<ele>66.781685</ele>
<time>2026-04-22T23:34:02.001Z</time>
</trkpt>
<trkpt lat="59.1020410" lon="30.0452200">
<ele>66.934082</ele>
<time>2026-04-22T23:34:23.998Z</time>
</trkpt>
<trkpt lat="59.1020080" lon="30.0452830">
<ele>66.568321</ele>
<time>2026-04-22T23:34:48.000Z</time>
</trkpt>
<trkpt lat="59.1020660" lon="30.0452600">
<ele>67.147438</ele>
<time>2026-04-22T23:35:46.000Z</time>
</trkpt>
<trkpt lat="59.1020140" lon="30.0452730">
<ele>65.714882</ele>
<time>2026-04-22T23:36:09.000Z</time>
</trkpt>
<trkpt lat="59.1020220" lon="30.0452320">
<ele>65.897758</ele>
<time>2026-04-22T23:36:30.997Z</time>
</trkpt>
<trkpt lat="59.1020690" lon="30.0452660">
<ele>66.293999</ele>
<time>2026-04-22T23:36:59.000Z</time>
</trkpt>
<trkpt lat="59.1020990" lon="30.0452260">
<ele>67.452240</ele>
<time>2026-04-22T23:38:49.004Z</time>
</trkpt>
<trkpt lat="59.1021490" lon="30.0453990">
<ele>68.610481</ele>
<time>2026-04-22T23:40:33.997Z</time>
</trkpt>
<trkpt lat="59.1021710" lon="30.0453570">
<ele>68.915283</ele>
<time>2026-04-22T23:41:22.001Z</time>
</trkpt>
<trkpt lat="59.1022030" lon="30.0454360">
<ele>69.463921</ele>
<time>2026-04-22T23:42:09.996Z</time>
</trkpt>
<trkpt lat="59.1023130" lon="30.0453750">
<ele>73.548241</ele>
<time>2026-04-22T23:43:02.001Z</time>
</trkpt>
<trkpt lat="59.1021550" lon="30.0453940">
<ele>72.755760</ele>
<time>2026-04-22T23:44:15.000Z</time>
</trkpt>
<trkpt lat="59.1021440" lon="30.0454510">
<ele>71.567039</ele>
<time>2026-04-22T23:44:46.000Z</time>
</trkpt>
<trkpt lat="59.1022070" lon="30.0454690">
<ele>70.134483</ele>
<time>2026-04-22T23:45:14.996Z</time>
</trkpt>
<trkpt lat="59.1022800" lon="30.0453410">
<ele>72.542397</ele>
<time>2026-04-22T23:46:13.999Z</time>
</trkpt>
<trkpt lat="59.1022350" lon="30.0458270">
<ele>70.561203</ele>
<time>2026-04-22T23:48:08.997Z</time>
</trkpt>
<trkpt lat="59.1021810" lon="30.0459590">
<ele>70.225922</ele>
<time>2026-04-22T23:49:05.002Z</time>
</trkpt>
<trkpt lat="59.1022680" lon="30.0462280">
<ele>71.780403</ele>
<time>2026-04-22T23:50:33.000Z</time>
</trkpt>
<trkpt lat="59.1022170" lon="30.0462270">
<ele>74.066399</ele>
<time>2026-04-22T23:52:06.001Z</time>
</trkpt>
<trkpt lat="59.1022230" lon="30.0461900">
<ele>72.633842</ele>
<time>2026-04-22T23:53:00.001Z</time>
</trkpt>
<trkpt lat="59.1021930" lon="30.0462640">
<ele>71.993759</ele>
<time>2026-04-22T23:53:28.997Z</time>
</trkpt>
<trkpt lat="59.1022360" lon="30.0461890">
<ele>79.308960</ele>
<time>2026-04-22T23:54:36.000Z</time>
</trkpt>
<trkpt lat="59.1022460" lon="30.0462330">
<ele>77.967842</ele>
<time>2026-04-22T23:55:09.998Z</time>
</trkpt>
<trkpt lat="59.1022720" lon="30.0460820">
<ele>72.755760</ele>
<time>2026-04-22T23:56:42.999Z</time>
</trkpt>
<trkpt lat="59.1022650" lon="30.0461690">
<ele>74.615044</ele>
<time>2026-04-22T23:57:12.004Z</time>
</trkpt>
<trkpt lat="59.1022990" lon="30.0461200">
<ele>75.651360</ele>
<time>2026-04-22T23:57:43.004Z</time>
</trkpt>
<trkpt lat="59.1022770" lon="30.0462200">
<ele>79.034637</ele>
<time>2026-04-22T23:58:14.998Z</time>
</trkpt>
<trkpt lat="59.1023710" lon="30.0462200">
<ele>93.482162</ele>
<time>2026-04-22T23:59:35.998Z</time>
</trkpt>
<trkpt lat="59.1023570" lon="30.0461700">
<ele>90.738960</ele>
<time>2026-04-23T00:00:06.998Z</time>
</trkpt>
<trkpt lat="59.1023030" lon="30.0461940">
<ele>87.294716</ele>
<time>2026-04-23T00:01:42.997Z</time>
</trkpt>
<trkpt lat="59.1022600" lon="30.0461010">
<ele>84.216240</ele>
<time>2026-04-23T00:02:09.997Z</time>
</trkpt>
<trkpt lat="59.1022800" lon="30.0457400">
<ele>81.381599</ele>
<time>2026-04-23T00:04:01.004Z</time>
</trkpt>
<trkpt lat="59.1022240" lon="30.0457260">
<ele>78.668884</ele>
<time>2026-04-23T00:07:24.001Z</time>
</trkpt>
<trkpt lat="59.1021970" lon="30.0459250">
<ele>78.760315</ele>
<time>2026-04-23T00:08:15.003Z</time>
</trkpt>
<trkpt lat="59.1022250" lon="30.0460320">
<ele>79.248001</ele>
<time>2026-04-23T00:08:42.003Z</time>
</trkpt>
<trkpt lat="59.1021800" lon="30.0460680">
<ele>82.082634</ele>
<time>2026-04-23T00:09:10.999Z</time>
</trkpt>
<trkpt lat="59.1020660" lon="30.0457980">
<ele>78.607918</ele>
<time>2026-04-23T00:10:15.004Z</time>
</trkpt>
<trkpt lat="59.1020400" lon="30.0458200">
<ele>78.028801</ele>
<time>2026-04-23T00:11:11.000Z</time>
</trkpt>
<trkpt lat="59.1020210" lon="30.0459830">
<ele>79.065117</ele>
<time>2026-04-23T00:12:14.003Z</time>
</trkpt>
<trkpt lat="59.1020420" lon="30.0459590">
<ele>79.613762</ele>
<time>2026-04-23T00:12:40.000Z</time>
</trkpt>
<trkpt lat="59.1020140" lon="30.0458670">
<ele>81.076797</ele>
<time>2026-04-23T00:13:47.004Z</time>
</trkpt>
<trkpt lat="59.1021150" lon="30.0457480">
<ele>77.541115</ele>
<time>2026-04-23T00:15:08.004Z</time>
</trkpt>
<trkpt lat="59.1021000" lon="30.0456210">
<ele>81.381599</ele>
<time>2026-04-23T00:16:09.002Z</time>
</trkpt>
<trkpt lat="59.1021180" lon="30.0456740">
<ele>81.381599</ele>
<time>2026-04-23T00:16:29.997Z</time>
</trkpt>
<trkpt lat="59.1019690" lon="30.0456520">
<ele>80.345284</ele>
<time>2026-04-23T00:19:19.998Z</time>
</trkpt>
<trkpt lat="59.1020860" lon="30.0457800">
<ele>78.364082</ele>
<time>2026-04-23T00:21:45.003Z</time>
</trkpt>
<trkpt lat="59.1020530" lon="30.0457230">
<ele>79.857597</ele>
<time>2026-04-23T00:22:31.996Z</time>
</trkpt>
<trkpt lat="59.1020730" lon="30.0456930">
<ele>79.034637</ele>
<time>2026-04-23T00:23:10.997Z</time>
</trkpt>
<trkpt lat="59.1019720" lon="30.0456150">
<ele>74.858879</ele>
<time>2026-04-23T00:24:47.998Z</time>
</trkpt>
<trkpt lat="59.1020790" lon="30.0457120">
<ele>69.982079</ele>
<time>2026-04-23T00:27:09.003Z</time>
</trkpt>
<trkpt lat="59.1020980" lon="30.0458580">
<ele>72.999603</ele>
<time>2026-04-23T00:27:58.000Z</time>
</trkpt>
<trkpt lat="59.1020660" lon="30.0459720">
<ele>73.091042</ele>
<time>2026-04-23T00:28:18.002Z</time>
</trkpt>
<trkpt lat="59.1020130" lon="30.0459900">
<ele>73.731117</ele>
<time>2026-04-23T00:29:01.997Z</time>
</trkpt>
<trkpt lat="59.1019940" lon="30.0458800">
<ele>72.389999</ele>
<time>2026-04-23T00:29:40.998Z</time>
</trkpt>
<trkpt lat="59.1019490" lon="30.0460490">
<ele>72.237602</ele>
<time>2026-04-23T00:30:32.000Z</time>
</trkpt>
<trkpt lat="59.1018750" lon="30.0460000">
<ele>71.414642</ele>
<time>2026-04-23T00:31:26.000Z</time>
</trkpt>
<trkpt lat="59.1018080" lon="30.0461160">
<ele>72.481438</ele>
<time>2026-04-23T00:32:30.998Z</time>
</trkpt>
<trkpt lat="59.1018350" lon="30.0460520">
<ele>71.506081</ele>
<time>2026-04-23T00:32:55.000Z</time>
</trkpt>
<trkpt lat="59.1018090" lon="30.0460910">
<ele>71.079361</ele>
<time>2026-04-23T00:33:16.998Z</time>
</trkpt>
<trkpt lat="59.1018160" lon="30.0460030">
<ele>71.597519</ele>
<time>2026-04-23T00:33:46.996Z</time>
</trkpt>
<trkpt lat="59.1018440" lon="30.0460140">
<ele>73.517761</ele>
<time>2026-04-23T00:34:20.001Z</time>
</trkpt>
<trkpt lat="59.1018430" lon="30.0460970">
<ele>74.371201</ele>
<time>2026-04-23T00:36:01.002Z</time>
</trkpt>
<trkpt lat="59.1018620" lon="30.0460560">
<ele>75.803757</ele>
<time>2026-04-23T00:36:25.004Z</time>
</trkpt>
<trkpt lat="59.1019110" lon="30.0460810">
<ele>79.156563</ele>
<time>2026-04-23T00:37:00.998Z</time>
</trkpt>
<trkpt lat="59.1018110" lon="30.0461180">
<ele>73.639679</ele>
<time>2026-04-23T00:41:36.001Z</time>
</trkpt>
<trkpt lat="59.1018710" lon="30.0461290">
<ele>74.950317</ele>
<time>2026-04-23T00:41:57.998Z</time>
</trkpt>
<trkpt lat="59.1017510" lon="30.0461230">
<ele>75.803757</ele>
<time>2026-04-23T00:44:46.003Z</time>
</trkpt>
<trkpt lat="59.1017470" lon="30.0460770">
<ele>75.377045</ele>
<time>2026-04-23T00:45:05.003Z</time>
</trkpt>
<trkpt lat="59.1017220" lon="30.0461300">
<ele>75.102715</ele>
<time>2026-04-23T00:45:50.000Z</time>
</trkpt>
<trkpt lat="59.1017530" lon="30.0464050">
<ele>76.199997</ele>
<time>2026-04-23T00:47:58.001Z</time>
</trkpt>
<trkpt lat="59.1018850" lon="30.0466050">
<ele>80.741516</ele>
<time>2026-04-23T00:51:09.999Z</time>
</trkpt>
<trkpt lat="59.1018210" lon="30.0467220">
<ele>78.059280</ele>
<time>2026-04-23T00:51:27.996Z</time>
</trkpt>
<trkpt lat="59.1014950" lon="30.0467660">
<ele>74.736961</ele>
<time>2026-04-23T00:53:35.998Z</time>
</trkpt>
<trkpt lat="59.1014830" lon="30.0468570">
<ele>74.736961</ele>
<time>2026-04-23T00:53:54.997Z</time>
</trkpt>
<trkpt lat="59.1013860" lon="30.0469340">
<ele>74.858879</ele>
<time>2026-04-23T00:54:33.998Z</time>
</trkpt>
<trkpt lat="59.1013380" lon="30.0469170">
<ele>74.767441</ele>
<time>2026-04-23T00:55:33.001Z</time>
</trkpt>
<trkpt lat="59.1013700" lon="30.0469300">
<ele>72.816719</ele>
<time>2026-04-23T00:56:55.003Z</time>
</trkpt>
<trkpt lat="59.1013550" lon="30.0469770">
<ele>72.329041</ele>
<time>2026-04-23T00:57:25.001Z</time>
</trkpt>
<trkpt lat="59.1012820" lon="30.0469880">
<ele>72.329041</ele>
<time>2026-04-23T00:58:07.000Z</time>
</trkpt>
<trkpt lat="59.1012610" lon="30.0471350">
<ele>76.199997</ele>
<time>2026-04-23T00:59:06.003Z</time>
</trkpt>
<trkpt lat="59.1012130" lon="30.0470530">
<ele>77.937363</ele>
<time>2026-04-23T01:00:00.003Z</time>
</trkpt>
<trkpt lat="59.1009980" lon="30.0470910">
<ele>78.242165</ele>
<time>2026-04-23T01:01:30.999Z</time>
</trkpt>
<trkpt lat="59.1010430" lon="30.0470340">
<ele>78.242165</ele>
<time>2026-04-23T01:01:53.999Z</time>
</trkpt>
<trkpt lat="59.1007400" lon="30.0471090">
<ele>79.613762</ele>
<time>2026-04-23T01:04:33.001Z</time>
</trkpt>
<trkpt lat="59.1007230" lon="30.0471920">
<ele>80.406235</ele>
<time>2026-04-23T01:07:05.998Z</time>
</trkpt>
<trkpt lat="59.1007310" lon="30.0471340">
<ele>82.235039</ele>
<time>2026-04-23T01:08:07.999Z</time>
</trkpt>
<trkpt lat="59.1006910" lon="30.0469690">
<ele>80.375763</ele>
<time>2026-04-23T01:09:39.004Z</time>
</trkpt>
<trkpt lat="59.1005560" lon="30.0469000">
<ele>80.589119</ele>
<time>2026-04-23T01:10:22.999Z</time>
</trkpt>
<trkpt lat="59.1005250" lon="30.0466850">
<ele>77.327759</ele>
<time>2026-04-23T01:11:43.999Z</time>
</trkpt>
<trkpt lat="59.1005130" lon="30.0467410">
<ele>76.230484</ele>
<time>2026-04-23T01:12:00.000Z</time>
</trkpt>
<trkpt lat="59.1003960" lon="30.0467080">
<ele>73.974960</ele>
<time>2026-04-23T01:14:17.998Z</time>
</trkpt>
<trkpt lat="59.1004570" lon="30.0467530">
<ele>74.889359</ele>
<time>2026-04-23T01:14:47.003Z</time>
</trkpt>
<trkpt lat="59.1003320" lon="30.0464950">
<ele>74.066399</ele>
<time>2026-04-23T01:15:23.999Z</time>
</trkpt>
<trkpt lat="59.1001970" lon="30.0463070">
<ele>75.468483</ele>
<time>2026-04-23T01:15:54.999Z</time>
</trkpt>
<trkpt lat="59.1002550" lon="30.0460150">
<ele>74.432159</ele>
<time>2026-04-23T01:16:58.002Z</time>
</trkpt>
<trkpt lat="59.1002810" lon="30.0456200">
<ele>74.005440</ele>
<time>2026-04-23T01:17:47.000Z</time>
</trkpt>
<trkpt lat="59.1003480" lon="30.0457830">
<ele>76.078079</ele>
<time>2026-04-23T01:18:27.996Z</time>
</trkpt>
<trkpt lat="59.1004020" lon="30.0457770">
<ele>75.986641</ele>
<time>2026-04-23T01:18:59.999Z</time>
</trkpt>
<trkpt lat="59.1003990" lon="30.0458490">
<ele>79.339439</ele>
<time>2026-04-23T01:19:51.001Z</time>
</trkpt>
<trkpt lat="59.1004950" lon="30.0459700">
<ele>76.992485</ele>
<time>2026-04-23T01:20:45.001Z</time>
</trkpt>
<trkpt lat="59.1005780" lon="30.0464620">
<ele>74.645515</ele>
<time>2026-04-23T01:22:17.000Z</time>
</trkpt>
<trkpt lat="59.1006170" lon="30.0465380">
<ele>71.109840</ele>
<time>2026-04-23T01:22:30.996Z</time>
</trkpt>
<trkpt lat="59.1006970" lon="30.0465930">
<ele>69.738243</ele>
<time>2026-04-23T01:22:57.996Z</time>
</trkpt>
<trkpt lat="59.1007290" lon="30.0465560">
<ele>69.494400</ele>
<time>2026-04-23T01:23:09.997Z</time>
</trkpt>
<trkpt lat="59.1007230" lon="30.0464140">
<ele>70.073517</ele>
<time>2026-04-23T01:23:51.003Z</time>
</trkpt>
<trkpt lat="59.1007930" lon="30.0462960">
<ele>71.963280</ele>
<time>2026-04-23T01:25:19.001Z</time>
</trkpt>
<trkpt lat="59.1008160" lon="30.0463570">
<ele>70.805038</ele>
<time>2026-04-23T01:25:47.004Z</time>
</trkpt>
<trkpt lat="59.1008880" lon="30.0463770">
<ele>73.578720</ele>
<time>2026-04-23T01:27:19.996Z</time>
</trkpt>
<trkpt lat="59.1008760" lon="30.0465710">
<ele>71.688957</ele>
<time>2026-04-23T01:29:07.002Z</time>
</trkpt>
<trkpt lat="59.1008700" lon="30.0465090">
<ele>70.926956</ele>
<time>2026-04-23T01:29:47.999Z</time>
</trkpt>
<trkpt lat="59.1009930" lon="30.0467900">
<ele>68.519043</ele>
<time>2026-04-23T01:30:59.003Z</time>
</trkpt>
<trkpt lat="59.1011300" lon="30.0466920">
<ele>68.580002</ele>
<time>2026-04-23T01:31:33.001Z</time>
</trkpt>
<trkpt lat="59.1011560" lon="30.0466050">
<ele>68.275200</ele>
<time>2026-04-23T01:31:54.998Z</time>
</trkpt>
<trkpt lat="59.1011050" lon="30.0464510">
<ele>70.500244</ele>
<time>2026-04-23T01:32:50.001Z</time>
</trkpt>
<trkpt lat="59.1011420" lon="30.0466300">
<ele>71.353683</ele>
<time>2026-04-23T01:33:42.998Z</time>
</trkpt>
<trkpt lat="59.1011160" lon="30.0467200">
<ele>73.365356</ele>
<time>2026-04-23T01:35:41.997Z</time>
</trkpt>
<trkpt lat="59.1011600" lon="30.0465460">
<ele>73.487282</ele>
<time>2026-04-23T01:35:59.001Z</time>
</trkpt>
<trkpt lat="59.1011750" lon="30.0465950">
<ele>74.310242</ele>
<time>2026-04-23T01:36:19.002Z</time>
</trkpt>
<trkpt lat="59.1012910" lon="30.0466110">
<ele>73.578720</ele>
<time>2026-04-23T01:36:57.001Z</time>
</trkpt>
<trkpt lat="59.1013560" lon="30.0464570">
<ele>72.511917</ele>
<time>2026-04-23T01:37:17.996Z</time>
</trkpt>
<trkpt lat="59.1014260" lon="30.0461190">
<ele>69.372482</ele>
<time>2026-04-23T01:38:15.996Z</time>
</trkpt>
<trkpt lat="59.1013280" lon="30.0459090">
<ele>68.458084</ele>
<time>2026-04-23T01:39:31.000Z</time>
</trkpt>
<trkpt lat="59.1013720" lon="30.0457040">
<ele>67.330315</ele>
<time>2026-04-23T01:41:04.001Z</time>
</trkpt>
<trkpt lat="59.1013330" lon="30.0452710">
<ele>69.372482</ele>
<time>2026-04-23T01:42:29.002Z</time>
</trkpt>
<trkpt lat="59.1013780" lon="30.0449230">
<ele>68.610481</ele>
<time>2026-04-23T01:43:30.000Z</time>
</trkpt>
<trkpt lat="59.1014470" lon="30.0449060">
<ele>70.896484</ele>
<time>2026-04-23T01:44:29.996Z</time>
</trkpt>
<trkpt lat="59.1014250" lon="30.0449310">
<ele>72.542397</ele>
<time>2026-04-23T01:45:11.002Z</time>
</trkpt>
<trkpt lat="59.1016030" lon="30.0452170">
<ele>69.128639</ele>
<time>2026-04-23T01:47:00.004Z</time>
</trkpt>
<trkpt lat="59.1016520" lon="30.0454280">
<ele>66.598801</ele>
<time>2026-04-23T01:47:34.002Z</time>
</trkpt>
<trkpt lat="59.1018130" lon="30.0455160">
<ele>62.666882</ele>
<time>2026-04-23T01:48:36.996Z</time>
</trkpt>
<trkpt lat="59.1018800" lon="30.0456240">
<ele>65.989197</ele>
<time>2026-04-23T01:49:41.002Z</time>
</trkpt>
<trkpt lat="59.1019270" lon="30.0455050">
<ele>64.769997</ele>
<time>2026-04-23T01:50:32.997Z</time>
</trkpt>
<trkpt lat="59.1019700" lon="30.0455420">
<ele>64.983360</ele>
<time>2026-04-23T01:50:50.001Z</time>
</trkpt>
<trkpt lat="59.1019830" lon="30.0454630">
<ele>64.922401</ele>
<time>2026-04-23T01:51:05.000Z</time>
</trkpt>
<trkpt lat="59.1020730" lon="30.0453690">
<ele>63.764160</ele>
<time>2026-04-23T01:51:36.000Z</time>
</trkpt>
<trkpt lat="59.1021790" lon="30.0451070">
<ele>64.526161</ele>
<time>2026-04-23T01:52:26.000Z</time>
</trkpt>
<trkpt lat="59.1023170" lon="30.0450820">
<ele>61.965839</ele>
<time>2026-04-23T01:52:51.997Z</time>
</trkpt>
<trkpt lat="59.1024060" lon="30.0449340">
<ele>62.026798</ele>
<time>2026-04-23T01:53:36.001Z</time>
</trkpt>
<trkpt lat="59.1024380" lon="30.0449510">
<ele>62.240158</ele>
<time>2026-04-23T01:54:14.000Z</time>
</trkpt>
<trkpt lat="59.1024180" lon="30.0448330">
<ele>62.788799</ele>
<time>2026-04-23T01:54:34.001Z</time>
</trkpt>
<trkpt lat="59.1023580" lon="30.0448890">
<ele>65.592957</ele>
<time>2026-04-23T01:55:35.000Z</time>
</trkpt>
<trkpt lat="59.1023860" lon="30.0448320">
<ele>73.456802</ele>
<time>2026-04-23T01:59:02.999Z</time>
</trkpt>
</trkseg>
</trk>
<trk>
 <name>20260423_Lisa68</name>
 <desc>20260423_Lisa68</desc>
<trkseg>
<trkpt lat="59.1020370" lon="29.9783360">
<ele>64.312798</ele>
<time>2026-04-22T20:25:34.003Z</time>
</trkpt>
<trkpt lat="59.1020740" lon="29.9783160">
<ele>67.970398</ele>
<time>2026-04-22T20:26:32.004Z</time>
</trkpt>
<trkpt lat="59.1021590" lon="29.9784180">
<ele>68.823837</ele>
<time>2026-04-22T20:27:57.004Z</time>
</trkpt>
<trkpt lat="59.1020680" lon="29.9783280">
<ele>68.427597</ele>
<time>2026-04-22T20:28:50.002Z</time>
</trkpt>
<trkpt lat="59.1020400" lon="29.9783450">
<ele>68.976242</ele>
<time>2026-04-22T20:29:34.999Z</time>
</trkpt>
<trkpt lat="59.1020630" lon="29.9782790">
<ele>68.549515</ele>
<time>2026-04-22T20:31:39.000Z</time>
</trkpt>
<trkpt lat="59.1022090" lon="29.9784870">
<ele>68.640961</ele>
<time>2026-04-22T20:32:34.996Z</time>
</trkpt>
<trkpt lat="59.1021710" lon="29.9784920">
<ele>68.762878</ele>
<time>2026-04-22T20:34:42.997Z</time>
</trkpt>
<trkpt lat="59.1021610" lon="29.9784030">
<ele>68.701920</ele>
<time>2026-04-22T20:37:16.997Z</time>
</trkpt>
<trkpt lat="59.1021460" lon="29.9784790">
<ele>68.762878</ele>
<time>2026-04-22T20:38:13.001Z</time>
</trkpt>
<trkpt lat="59.1021760" lon="29.9784770">
<ele>69.098160</ele>
<time>2026-04-22T20:39:15.002Z</time>
</trkpt>
<trkpt lat="59.1020760" lon="29.9783620">
<ele>68.640961</ele>
<time>2026-04-22T20:39:53.001Z</time>
</trkpt>
<trkpt lat="59.1021900" lon="29.9783830">
<ele>68.945763</ele>
<time>2026-04-22T20:40:39.000Z</time>
</trkpt>
<trkpt lat="59.1021110" lon="29.9786160">
<ele>68.305679</ele>
<time>2026-04-22T20:41:27.004Z</time>
</trkpt>
<trkpt lat="59.1021540" lon="29.9784670">
<ele>68.945763</ele>
<time>2026-04-22T20:41:42.996Z</time>
</trkpt>
<trkpt lat="59.1020370" lon="29.9782760">
<ele>69.281044</ele>
<time>2026-04-22T20:42:20.002Z</time>
</trkpt>
<trkpt lat="59.1020110" lon="29.9786340">
<ele>71.353683</ele>
<time>2026-04-22T20:43:30.003Z</time>
</trkpt>
<trkpt lat="59.1020910" lon="29.9782850">
<ele>69.098160</ele>
<time>2026-04-22T20:44:51.003Z</time>
</trkpt>
<trkpt lat="59.1021650" lon="29.9785600">
<ele>69.860161</ele>
<time>2026-04-22T20:46:12.996Z</time>
</trkpt>
<trkpt lat="59.1021620" lon="29.9785140">
<ele>69.738243</ele>
<time>2026-04-22T20:47:24.000Z</time>
</trkpt>
<trkpt lat="59.1021860" lon="29.9785300">
<ele>69.860161</ele>
<time>2026-04-22T20:47:53.998Z</time>
</trkpt>
<trkpt lat="59.1021650" lon="29.9785080">
<ele>69.768715</ele>
<time>2026-04-22T20:48:27.003Z</time>
</trkpt>
<trkpt lat="59.1021640" lon="29.9785430">
<ele>70.286880</ele>
<time>2026-04-22T20:48:43.004Z</time>
</trkpt>
<trkpt lat="59.1021830" lon="29.9784480">
<ele>71.018402</ele>
<time>2026-04-22T20:51:21.997Z</time>
</trkpt>
<trkpt lat="59.1020360" lon="29.9782710">
<ele>71.688957</ele>
<time>2026-04-22T20:53:52.999Z</time>
</trkpt>
<trkpt lat="59.1020160" lon="29.9783630">
<ele>71.475601</ele>
<time>2026-04-22T20:54:18.003Z</time>
</trkpt>
<trkpt lat="59.1021040" lon="29.9783100">
<ele>70.103996</ele>
<time>2026-04-22T20:56:10.003Z</time>
</trkpt>
<trkpt lat="59.1021800" lon="29.9784400">
<ele>70.835518</ele>
<time>2026-04-22T20:56:22.998Z</time>
</trkpt>
<trkpt lat="59.1021610" lon="29.9784650">
<ele>70.652641</ele>
<time>2026-04-22T20:56:37.997Z</time>
</trkpt>
<trkpt lat="59.1021430" lon="29.9782730">
<ele>69.585838</ele>
<time>2026-04-22T20:56:52.002Z</time>
</trkpt>
<trkpt lat="59.1022570" lon="29.9782620">
<ele>68.305679</ele>
<time>2026-04-22T20:57:23.003Z</time>
</trkpt>
<trkpt lat="59.1022910" lon="29.9781820">
<ele>69.463921</ele>
<time>2026-04-22T20:58:29.004Z</time>
</trkpt>
<trkpt lat="59.1020250" lon="29.9780080">
<ele>70.043037</ele>
<time>2026-04-22T20:58:37.998Z</time>
</trkpt>
<trkpt lat="59.1015050" lon="29.9778250">
<ele>69.524879</ele>
<time>2026-04-22T20:58:52.003Z</time>
</trkpt>
<trkpt lat="59.0992200" lon="29.9771210">
<ele>69.250557</ele>
<time>2026-04-22T20:59:42.003Z</time>
</trkpt>
<trkpt lat="59.0963410" lon="29.9762990">
<ele>71.597519</ele>
<time>2026-04-22T21:00:36.996Z</time>
</trkpt>
<trkpt lat="59.0956980" lon="29.9759950">
<ele>70.683121</ele>
<time>2026-04-22T21:00:48.997Z</time>
</trkpt>
<trkpt lat="59.0942110" lon="29.9759760">
<ele>73.883514</ele>
<time>2026-04-22T21:01:14.002Z</time>
</trkpt>
<trkpt lat="59.0931630" lon="29.9758410">
<ele>73.365356</ele>
<time>2026-04-22T21:01:31.999Z</time>
</trkpt>
<trkpt lat="59.0930960" lon="29.9761430">
<ele>73.182480</ele>
<time>2026-04-22T21:01:35.999Z</time>
</trkpt>
<trkpt lat="59.0926180" lon="29.9813470">
<ele>68.945763</ele>
<time>2026-04-22T21:02:35.002Z</time>
</trkpt>
<trkpt lat="59.0925090" lon="29.9821080">
<ele>68.732399</ele>
<time>2026-04-22T21:02:48.998Z</time>
</trkpt>
<trkpt lat="59.0923960" lon="29.9837980">
<ele>68.305679</ele>
<time>2026-04-22T21:03:14.003Z</time>
</trkpt>
<trkpt lat="59.0923040" lon="29.9845950">
<ele>67.909439</ele>
<time>2026-04-22T21:03:26.004Z</time>
</trkpt>
<trkpt lat="59.0921720" lon="29.9861460">
<ele>67.513199</ele>
<time>2026-04-22T21:03:49.997Z</time>
</trkpt>
<trkpt lat="59.0924450" lon="29.9878700">
<ele>60.106560</ele>
<time>2026-04-22T21:04:27.002Z</time>
</trkpt>
<trkpt lat="59.0924190" lon="29.9877970">
<ele>66.934082</ele>
<time>2026-04-22T21:05:44.002Z</time>
</trkpt>
<trkpt lat="59.0923620" lon="29.9878970">
<ele>67.360802</ele>
<time>2026-04-22T21:07:47.001Z</time>
</trkpt>
<trkpt lat="59.0924280" lon="29.9878320">
<ele>69.159119</ele>
<time>2026-04-22T21:08:04.004Z</time>
</trkpt>
<trkpt lat="59.0924670" lon="29.9879450">
<ele>68.549515</ele>
<time>2026-04-22T21:08:42.003Z</time>
</trkpt>
<trkpt lat="59.0926590" lon="29.9888140">
<ele>70.439285</ele>
<time>2026-04-22T21:10:03.996Z</time>
</trkpt>
<trkpt lat="59.0927440" lon="29.9892160">
<ele>68.762878</ele>
<time>2026-04-22T21:10:21.000Z</time>
</trkpt>
<trkpt lat="59.0927600" lon="29.9895370">
<ele>69.402962</ele>
<time>2026-04-22T21:10:34.997Z</time>
</trkpt>
<trkpt lat="59.0928610" lon="29.9900070">
<ele>69.342003</ele>
<time>2026-04-22T21:11:05.004Z</time>
</trkpt>
<trkpt lat="59.0928740" lon="29.9903330">
<ele>68.671440</ele>
<time>2026-04-22T21:11:20.003Z</time>
</trkpt>
<trkpt lat="59.0929590" lon="29.9905960">
<ele>68.793358</ele>
<time>2026-04-22T21:11:33.999Z</time>
</trkpt>
<trkpt lat="59.0929850" lon="29.9909490">
<ele>68.336159</ele>
<time>2026-04-22T21:12:06.002Z</time>
</trkpt>
<trkpt lat="59.0930840" lon="29.9913760">
<ele>68.701920</ele>
<time>2026-04-22T21:12:22.997Z</time>
</trkpt>
<trkpt lat="59.0931520" lon="29.9918500">
<ele>68.945763</ele>
<time>2026-04-22T21:12:42.998Z</time>
</trkpt>
<trkpt lat="59.0933110" lon="29.9925530">
<ele>68.427597</ele>
<time>2026-04-22T21:13:08.996Z</time>
</trkpt>
<trkpt lat="59.0934220" lon="29.9931940">
<ele>69.189598</ele>
<time>2026-04-22T21:13:32.998Z</time>
</trkpt>
<trkpt lat="59.0935930" lon="29.9937840">
<ele>69.463921</ele>
<time>2026-04-22T21:13:58.996Z</time>
</trkpt>
<trkpt lat="59.0937110" lon="29.9943180">
<ele>69.463921</ele>
<time>2026-04-22T21:14:25.002Z</time>
</trkpt>
<trkpt lat="59.0937120" lon="29.9946120">
<ele>69.311516</ele>
<time>2026-04-22T21:14:37.003Z</time>
</trkpt>
<trkpt lat="59.0938340" lon="29.9953690">
<ele>69.342003</ele>
<time>2026-04-22T21:15:05.999Z</time>
</trkpt>
<trkpt lat="59.0938730" lon="29.9958660">
<ele>69.006721</ele>
<time>2026-04-22T21:15:26.001Z</time>
</trkpt>
<trkpt lat="59.0939500" lon="29.9962760">
<ele>68.976242</ele>
<time>2026-04-22T21:15:42.002Z</time>
</trkpt>
<trkpt lat="59.0940270" lon="29.9970260">
<ele>68.915283</ele>
<time>2026-04-22T21:16:10.004Z</time>
</trkpt>
<trkpt lat="59.0941200" lon="29.9974840">
<ele>69.189598</ele>
<time>2026-04-22T21:16:26.999Z</time>
</trkpt>
<trkpt lat="59.0943170" lon="29.9980450">
<ele>69.402962</ele>
<time>2026-04-22T21:16:52.997Z</time>
</trkpt>
<trkpt lat="59.0944400" lon="29.9988090">
<ele>70.164963</ele>
<time>2026-04-22T21:17:20.999Z</time>
</trkpt>
<trkpt lat="59.0944720" lon="29.9995760">
<ele>69.707756</ele>
<time>2026-04-22T21:17:50.004Z</time>
</trkpt>
<trkpt lat="59.0947200" lon="30.0004780">
<ele>68.793358</ele>
<time>2026-04-22T21:18:24.002Z</time>
</trkpt>
<trkpt lat="59.0947860" lon="30.0012830">
<ele>68.397118</ele>
<time>2026-04-22T21:18:55.002Z</time>
</trkpt>
<trkpt lat="59.0950770" lon="30.0028250">
<ele>69.372482</ele>
<time>2026-04-22T21:19:53.996Z</time>
</trkpt>
<trkpt lat="59.0952830" lon="30.0043000">
<ele>70.378319</ele>
<time>2026-04-22T21:20:59.004Z</time>
</trkpt>
<trkpt lat="59.0955970" lon="30.0057610">
<ele>70.713600</ele>
<time>2026-04-22T21:22:00.002Z</time>
</trkpt>
<trkpt lat="59.0956600" lon="30.0063850">
<ele>70.439285</ele>
<time>2026-04-22T21:22:24.997Z</time>
</trkpt>
<trkpt lat="59.0959440" lon="30.0078620">
<ele>70.164963</ele>
<time>2026-04-22T21:23:25.002Z</time>
</trkpt>
<trkpt lat="59.0960430" lon="30.0087680">
<ele>70.378319</ele>
<time>2026-04-22T21:24:03.001Z</time>
</trkpt>
<trkpt lat="59.0963400" lon="30.0098570">
<ele>70.134483</ele>
<time>2026-04-22T21:24:50.003Z</time>
</trkpt>
<trkpt lat="59.0965470" lon="30.0109970">
<ele>69.982079</ele>
<time>2026-04-22T21:25:33.004Z</time>
</trkpt>
<trkpt lat="59.0966400" lon="30.0117510">
<ele>69.494400</ele>
<time>2026-04-22T21:26:04.998Z</time>
</trkpt>
<trkpt lat="59.0969260" lon="30.0133750">
<ele>68.580002</ele>
<time>2026-04-22T21:27:09.003Z</time>
</trkpt>
<trkpt lat="59.0969350" lon="30.0135490">
<ele>68.244720</ele>
<time>2026-04-22T21:27:21.004Z</time>
</trkpt>
<trkpt lat="59.0971540" lon="30.0144890">
<ele>68.305679</ele>
<time>2026-04-22T21:28:03.003Z</time>
</trkpt>
<trkpt lat="59.0971930" lon="30.0148070">
<ele>67.635117</ele>
<time>2026-04-22T21:28:18.002Z</time>
</trkpt>
<trkpt lat="59.0972120" lon="30.0148190">
<ele>67.818001</ele>
<time>2026-04-22T21:28:42.004Z</time>
</trkpt>
<trkpt lat="59.0971990" lon="30.0147450">
<ele>67.696083</ele>
<time>2026-04-22T21:29:12.002Z</time>
</trkpt>
<trkpt lat="59.0970940" lon="30.0148210">
<ele>67.238884</ele>
<time>2026-04-22T21:29:47.996Z</time>
</trkpt>
<trkpt lat="59.0970080" lon="30.0147890">
<ele>66.934082</ele>
<time>2026-04-22T21:30:03.997Z</time>
</trkpt>
<trkpt lat="59.0969980" lon="30.0147450">
<ele>66.690239</ele>
<time>2026-04-22T21:30:37.996Z</time>
</trkpt>
<trkpt lat="59.0969740" lon="30.0148250">
<ele>67.391281</ele>
<time>2026-04-22T21:31:28.998Z</time>
</trkpt>
<trkpt lat="59.0969990" lon="30.0148390">
<ele>66.141602</ele>
<time>2026-04-22T21:32:10.003Z</time>
</trkpt>
<trkpt lat="59.0969570" lon="30.0147790">
<ele>66.629280</ele>
<time>2026-04-22T21:32:38.999Z</time>
</trkpt>
<trkpt lat="59.0968050" lon="30.0150300">
<ele>67.116959</ele>
<time>2026-04-22T21:33:18.000Z</time>
</trkpt>
<trkpt lat="59.0966600" lon="30.0149790">
<ele>67.238884</ele>
<time>2026-04-22T21:33:31.997Z</time>
</trkpt>
<trkpt lat="59.0966130" lon="30.0150850">
<ele>67.025520</ele>
<time>2026-04-22T21:33:50.996Z</time>
</trkpt>
<trkpt lat="59.0964080" lon="30.0152730">
<ele>66.934082</ele>
<time>2026-04-22T21:34:35.000Z</time>
</trkpt>
<trkpt lat="59.0962120" lon="30.0151760">
<ele>67.574158</ele>
<time>2026-04-22T21:35:27.004Z</time>
</trkpt>
<trkpt lat="59.0960860" lon="30.0150190">
<ele>67.909439</ele>
<time>2026-04-22T21:35:54.997Z</time>
</trkpt>
<trkpt lat="59.0960260" lon="30.0148550">
<ele>68.275200</ele>
<time>2026-04-22T21:37:38.004Z</time>
</trkpt>
<trkpt lat="59.0961500" lon="30.0153280">
<ele>67.757042</ele>
<time>2026-04-22T21:39:26.997Z</time>
</trkpt>
<trkpt lat="59.0961670" lon="30.0155210">
<ele>67.086479</ele>
<time>2026-04-22T21:39:45.996Z</time>
</trkpt>
<trkpt lat="59.0962690" lon="30.0157550">
<ele>67.757042</ele>
<time>2026-04-22T21:40:04.002Z</time>
</trkpt>
<trkpt lat="59.0962400" lon="30.0160370">
<ele>67.330315</ele>
<time>2026-04-22T21:40:30.000Z</time>
</trkpt>
<trkpt lat="59.0963140" lon="30.0165520">
<ele>67.635117</ele>
<time>2026-04-22T21:41:25.996Z</time>
</trkpt>
<trkpt lat="59.0964230" lon="30.0167650">
<ele>67.299843</ele>
<time>2026-04-22T21:42:07.001Z</time>
</trkpt>
<trkpt lat="59.0964490" lon="30.0167140">
<ele>67.635117</ele>
<time>2026-04-22T21:43:17.996Z</time>
</trkpt>
<trkpt lat="59.0964130" lon="30.0167370">
<ele>67.970398</ele>
<time>2026-04-22T21:43:43.000Z</time>
</trkpt>
<trkpt lat="59.0965190" lon="30.0171760">
<ele>67.878960</ele>
<time>2026-04-22T21:44:15.003Z</time>
</trkpt>
<trkpt lat="59.0965520" lon="30.0174480">
<ele>67.147438</ele>
<time>2026-04-22T21:44:33.000Z</time>
</trkpt>
<trkpt lat="59.0964990" lon="30.0177950">
<ele>67.818001</ele>
<time>2026-04-22T21:44:53.002Z</time>
</trkpt>
<trkpt lat="59.0965630" lon="30.0180680">
<ele>67.878960</ele>
<time>2026-04-22T21:46:30.996Z</time>
</trkpt>
<trkpt lat="59.0965480" lon="30.0180910">
<ele>67.726563</ele>
<time>2026-04-22T21:47:04.001Z</time>
</trkpt>
<trkpt lat="59.0965590" lon="30.0179780">
<ele>68.000885</ele>
<time>2026-04-22T21:48:03.004Z</time>
</trkpt>
<trkpt lat="59.0965120" lon="30.0179230">
<ele>68.183762</ele>
<time>2026-04-22T21:48:26.004Z</time>
</trkpt>
<trkpt lat="59.0964440" lon="30.0181590">
<ele>68.701920</ele>
<time>2026-04-22T21:48:45.003Z</time>
</trkpt>
<trkpt lat="59.0963870" lon="30.0180780">
<ele>68.183762</ele>
<time>2026-04-22T21:48:57.004Z</time>
</trkpt>
<trkpt lat="59.0960320" lon="30.0182140">
<ele>69.250557</ele>
<time>2026-04-22T21:50:17.002Z</time>
</trkpt>
<trkpt lat="59.0958410" lon="30.0185210">
<ele>68.793358</ele>
<time>2026-04-22T21:51:03.001Z</time>
</trkpt>
<trkpt lat="59.0955180" lon="30.0184470">
<ele>69.067680</ele>
<time>2026-04-22T21:53:24.999Z</time>
</trkpt>
<trkpt lat="59.0955230" lon="30.0185370">
<ele>70.500244</ele>
<time>2026-04-22T21:53:46.997Z</time>
</trkpt>
<trkpt lat="59.0954840" lon="30.0182800">
<ele>70.865997</ele>
<time>2026-04-22T21:54:21.004Z</time>
</trkpt>
<trkpt lat="59.0955050" lon="30.0181060">
<ele>70.987915</ele>
<time>2026-04-22T21:54:27.000Z</time>
</trkpt>
<trkpt lat="59.0954640" lon="30.0178270">
<ele>70.469757</ele>
<time>2026-04-22T21:55:03.996Z</time>
</trkpt>
<trkpt lat="59.0955120" lon="30.0175900">
<ele>70.073517</ele>
<time>2026-04-22T21:55:22.002Z</time>
</trkpt>
<trkpt lat="59.0955160" lon="30.0171810">
<ele>69.890640</ele>
<time>2026-04-22T21:55:49.996Z</time>
</trkpt>
<trkpt lat="59.0953670" lon="30.0170450">
<ele>71.627998</ele>
<time>2026-04-22T21:56:06.999Z</time>
</trkpt>
<trkpt lat="59.0953220" lon="30.0171030">
<ele>71.688957</ele>
<time>2026-04-22T21:56:29.999Z</time>
</trkpt>
<trkpt lat="59.0952650" lon="30.0170350">
<ele>71.262238</ele>
<time>2026-04-22T21:57:29.002Z</time>
</trkpt>
<trkpt lat="59.0952140" lon="30.0170940">
<ele>70.865997</ele>
<time>2026-04-22T21:58:04.002Z</time>
</trkpt>
<trkpt lat="59.0952550" lon="30.0170850">
<ele>71.384155</ele>
<time>2026-04-22T21:58:28.004Z</time>
</trkpt>
<trkpt lat="59.0953290" lon="30.0171850">
<ele>70.317360</ele>
<time>2026-04-22T22:00:04.997Z</time>
</trkpt>
<trkpt lat="59.0953120" lon="30.0172890">
<ele>70.652641</ele>
<time>2026-04-22T22:00:23.996Z</time>
</trkpt>
<trkpt lat="59.0951270" lon="30.0176010">
<ele>70.225922</ele>
<time>2026-04-22T22:01:17.003Z</time>
</trkpt>
<trkpt lat="59.0949900" lon="30.0177420">
<ele>70.774559</ele>
<time>2026-04-22T22:01:35.000Z</time>
</trkpt>
<trkpt lat="59.0947550" lon="30.0181620">
<ele>70.286880</ele>
<time>2026-04-22T22:02:15.996Z</time>
</trkpt>
<trkpt lat="59.0946660" lon="30.0182170">
<ele>69.890640</ele>
<time>2026-04-22T22:02:34.002Z</time>
</trkpt>
<trkpt lat="59.0946490" lon="30.0181620">
<ele>70.012558</ele>
<time>2026-04-22T22:02:53.002Z</time>
</trkpt>
<trkpt lat="59.0946840" lon="30.0181480">
<ele>70.286880</ele>
<time>2026-04-22T22:03:05.003Z</time>
</trkpt>
<trkpt lat="59.0945080" lon="30.0180730">
<ele>70.256401</ele>
<time>2026-04-22T22:03:35.001Z</time>
</trkpt>
<trkpt lat="59.0943310" lon="30.0178780">
<ele>70.591682</ele>
<time>2026-04-22T22:04:23.998Z</time>
</trkpt>
<trkpt lat="59.0943430" lon="30.0179730">
<ele>70.865997</ele>
<time>2026-04-22T22:05:02.999Z</time>
</trkpt>
<trkpt lat="59.0942670" lon="30.0178100">
<ele>71.292717</ele>
<time>2026-04-22T22:05:31.001Z</time>
</trkpt>
<trkpt lat="59.0942060" lon="30.0177980">
<ele>71.353683</ele>
<time>2026-04-22T22:06:00.999Z</time>
</trkpt>
<trkpt lat="59.0941130" lon="30.0182850">
<ele>71.079361</ele>
<time>2026-04-22T22:06:48.001Z</time>
</trkpt>
<trkpt lat="59.0941040" lon="30.0186370">
<ele>72.115685</ele>
<time>2026-04-22T22:07:16.003Z</time>
</trkpt>
<trkpt lat="59.0938710" lon="30.0189780">
<ele>72.207115</ele>
<time>2026-04-22T22:08:29.996Z</time>
</trkpt>
<trkpt lat="59.0938090" lon="30.0191660">
<ele>71.231758</ele>
<time>2026-04-22T22:08:42.999Z</time>
</trkpt>
<trkpt lat="59.0936690" lon="30.0192350">
<ele>71.719444</ele>
<time>2026-04-22T22:09:18.000Z</time>
</trkpt>
<trkpt lat="59.0935720" lon="30.0194350">
<ele>72.085197</ele>
<time>2026-04-22T22:09:36.999Z</time>
</trkpt>
<trkpt lat="59.0934590" lon="30.0195600">
<ele>71.993759</ele>
<time>2026-04-22T22:09:59.999Z</time>
</trkpt>
<trkpt lat="59.0933810" lon="30.0195560">
<ele>72.115685</ele>
<time>2026-04-22T22:10:47.001Z</time>
</trkpt>
<trkpt lat="59.0933590" lon="30.0196140">
<ele>72.176643</ele>
<time>2026-04-22T22:12:01.002Z</time>
</trkpt>
<trkpt lat="59.0933710" lon="30.0196880">
<ele>72.786240</ele>
<time>2026-04-22T22:13:02.001Z</time>
</trkpt>
<trkpt lat="59.0932040" lon="30.0197860">
<ele>71.567039</ele>
<time>2026-04-22T22:13:45.002Z</time>
</trkpt>
<trkpt lat="59.0929650" lon="30.0198400">
<ele>72.146156</ele>
<time>2026-04-22T22:14:16.002Z</time>
</trkpt>
<trkpt lat="59.0928410" lon="30.0197770">
<ele>72.268082</ele>
<time>2026-04-22T22:14:43.996Z</time>
</trkpt>
<trkpt lat="59.0923770" lon="30.0201350">
<ele>71.780403</ele>
<time>2026-04-22T22:16:28.004Z</time>
</trkpt>
<trkpt lat="59.0923800" lon="30.0200820">
<ele>72.207115</ele>
<time>2026-04-22T22:17:01.000Z</time>
</trkpt>
<trkpt lat="59.0923440" lon="30.0201870">
<ele>72.024239</ele>
<time>2026-04-22T22:17:25.002Z</time>
</trkpt>
<trkpt lat="59.0923600" lon="30.0202340">
<ele>72.054718</ele>
<time>2026-04-22T22:17:52.996Z</time>
</trkpt>
<trkpt lat="59.0923230" lon="30.0201420">
<ele>72.115685</ele>
<time>2026-04-22T22:18:38.002Z</time>
</trkpt>
<trkpt lat="59.0923620" lon="30.0191280">
<ele>72.329041</ele>
<time>2026-04-22T22:19:53.999Z</time>
</trkpt>
<trkpt lat="59.0923480" lon="30.0187790">
<ele>72.877686</ele>
<time>2026-04-22T22:20:27.997Z</time>
</trkpt>
<trkpt lat="59.0922970" lon="30.0184670">
<ele>72.359520</ele>
<time>2026-04-22T22:21:27.000Z</time>
</trkpt>
<trkpt lat="59.0922370" lon="30.0184380">
<ele>72.237602</ele>
<time>2026-04-22T22:22:33.001Z</time>
</trkpt>
<trkpt lat="59.0922100" lon="30.0184810">
<ele>72.237602</ele>
<time>2026-04-22T22:23:01.997Z</time>
</trkpt>
<trkpt lat="59.0922620" lon="30.0185480">
<ele>72.359520</ele>
<time>2026-04-22T22:24:21.001Z</time>
</trkpt>
<trkpt lat="59.0925170" lon="30.0183660">
<ele>72.511917</ele>
<time>2026-04-22T22:25:07.000Z</time>
</trkpt>
<trkpt lat="59.0927520" lon="30.0182750">
<ele>71.932800</ele>
<time>2026-04-22T22:26:25.002Z</time>
</trkpt>
<trkpt lat="59.0930220" lon="30.0180170">
<ele>71.688957</ele>
<time>2026-04-22T22:27:27.996Z</time>
</trkpt>
<trkpt lat="59.0931500" lon="30.0181030">
<ele>70.744080</ele>
<time>2026-04-22T22:28:13.996Z</time>
</trkpt>
<trkpt lat="59.0931720" lon="30.0181610">
<ele>70.622162</ele>
<time>2026-04-22T22:28:48.996Z</time>
</trkpt>
<trkpt lat="59.0932180" lon="30.0179690">
<ele>70.865997</ele>
<time>2026-04-22T22:30:44.004Z</time>
</trkpt>
<trkpt lat="59.0932660" lon="30.0178970">
<ele>68.305679</ele>
<time>2026-04-22T22:30:56.998Z</time>
</trkpt>
<trkpt lat="59.0934190" lon="30.0177820">
<ele>72.359520</ele>
<time>2026-04-22T22:31:22.002Z</time>
</trkpt>
<trkpt lat="59.0934520" lon="30.0178030">
<ele>72.298561</ele>
<time>2026-04-22T22:31:42.997Z</time>
</trkpt>
<trkpt lat="59.0936210" lon="30.0174410">
<ele>74.919838</ele>
<time>2026-04-22T22:32:40.004Z</time>
</trkpt>
<trkpt lat="59.0937530" lon="30.0173390">
<ele>74.066399</ele>
<time>2026-04-22T22:33:30.004Z</time>
</trkpt>
<trkpt lat="59.0938490" lon="30.0173670">
<ele>74.279762</ele>
<time>2026-04-22T22:33:41.003Z</time>
</trkpt>
<trkpt lat="59.0940650" lon="30.0172810">
<ele>74.676003</ele>
<time>2026-04-22T22:34:47.997Z</time>
</trkpt>
<trkpt lat="59.0941240" lon="30.0173830">
<ele>75.011284</ele>
<time>2026-04-22T22:35:52.002Z</time>
</trkpt>
<trkpt lat="59.0943480" lon="30.0170610">
<ele>75.255119</ele>
<time>2026-04-22T22:37:59.002Z</time>
</trkpt>
<trkpt lat="59.0946140" lon="30.0169430">
<ele>75.773285</ele>
<time>2026-04-22T22:38:34.996Z</time>
</trkpt>
<trkpt lat="59.0947000" lon="30.0167600">
<ele>75.651360</ele>
<time>2026-04-22T22:38:50.997Z</time>
</trkpt>
<trkpt lat="59.0949320" lon="30.0165720">
<ele>76.139038</ele>
<time>2026-04-22T22:39:48.997Z</time>
</trkpt>
<trkpt lat="59.0950940" lon="30.0166120">
<ele>75.498962</ele>
<time>2026-04-22T22:40:48.000Z</time>
</trkpt>
<trkpt lat="59.0950830" lon="30.0165730">
<ele>75.590401</ele>
<time>2026-04-22T22:41:16.996Z</time>
</trkpt>
<trkpt lat="59.0951230" lon="30.0165850">
<ele>75.194160</ele>
<time>2026-04-22T22:42:37.002Z</time>
</trkpt>
<trkpt lat="59.0950740" lon="30.0166130">
<ele>75.956161</ele>
<time>2026-04-22T22:43:43.997Z</time>
</trkpt>
<trkpt lat="59.0949490" lon="30.0165150">
<ele>76.413361</ele>
<time>2026-04-22T22:43:59.998Z</time>
</trkpt>
<trkpt lat="59.0948420" lon="30.0155780">
<ele>76.017120</ele>
<time>2026-04-22T22:46:48.003Z</time>
</trkpt>
<trkpt lat="59.0948550" lon="30.0156510">
<ele>75.438004</ele>
<time>2026-04-22T22:48:31.000Z</time>
</trkpt>
<trkpt lat="59.0948010" lon="30.0158570">
<ele>76.230484</ele>
<time>2026-04-22T22:49:14.002Z</time>
</trkpt>
<trkpt lat="59.0946950" lon="30.0158110">
<ele>74.615044</ele>
<time>2026-04-22T22:49:56.001Z</time>
</trkpt>
<trkpt lat="59.0946850" lon="30.0159290">
<ele>76.565758</ele>
<time>2026-04-22T22:50:28.003Z</time>
</trkpt>
<trkpt lat="59.0945320" lon="30.0161410">
<ele>76.108559</ele>
<time>2026-04-22T22:51:00.999Z</time>
</trkpt>
<trkpt lat="59.0941310" lon="30.0163170">
<ele>76.382881</ele>
<time>2026-04-22T22:51:56.002Z</time>
</trkpt>
<trkpt lat="59.0940450" lon="30.0164040">
<ele>76.108559</ele>
<time>2026-04-22T22:52:07.000Z</time>
</trkpt>
<trkpt lat="59.0938760" lon="30.0164280">
<ele>75.956161</ele>
<time>2026-04-22T22:52:26.000Z</time>
</trkpt>
<trkpt lat="59.0938660" lon="30.0163320">
<ele>76.291443</ele>
<time>2026-04-22T22:53:45.004Z</time>
</trkpt>
<trkpt lat="59.0938710" lon="30.0163950">
<ele>76.443840</ele>
<time>2026-04-22T22:54:38.002Z</time>
</trkpt>
<trkpt lat="59.0938110" lon="30.0165240">
<ele>75.377045</ele>
<time>2026-04-22T22:54:57.001Z</time>
</trkpt>
<trkpt lat="59.0934400" lon="30.0168260">
<ele>75.011284</ele>
<time>2026-04-22T22:55:55.001Z</time>
</trkpt>
<trkpt lat="59.0933310" lon="30.0172720">
<ele>74.127357</ele>
<time>2026-04-22T22:56:33.000Z</time>
</trkpt>
<trkpt lat="59.0931950" lon="30.0173980">
<ele>74.401680</ele>
<time>2026-04-22T22:56:58.004Z</time>
</trkpt>
<trkpt lat="59.0930660" lon="30.0174020">
<ele>73.974960</ele>
<time>2026-04-22T22:57:13.997Z</time>
</trkpt>
<trkpt lat="59.0931050" lon="30.0172550">
<ele>74.401680</ele>
<time>2026-04-22T22:58:00.998Z</time>
</trkpt>
<trkpt lat="59.0930950" lon="30.0171230">
<ele>73.974960</ele>
<time>2026-04-22T22:58:33.001Z</time>
</trkpt>
<trkpt lat="59.0931280" lon="30.0171340">
<ele>72.755760</ele>
<time>2026-04-22T22:58:57.003Z</time>
</trkpt>
<trkpt lat="59.0931420" lon="30.0170910">
<ele>75.072243</ele>
<time>2026-04-22T22:59:01.997Z</time>
</trkpt>
<trkpt lat="59.0931840" lon="30.0171590">
<ele>73.822556</ele>
<time>2026-04-22T22:59:36.997Z</time>
</trkpt>
<trkpt lat="59.0931000" lon="30.0171690">
<ele>74.005440</ele>
<time>2026-04-22T23:00:13.000Z</time>
</trkpt>
<trkpt lat="59.0930120" lon="30.0173160">
<ele>74.127357</ele>
<time>2026-04-22T23:00:30.004Z</time>
</trkpt>
<trkpt lat="59.0929020" lon="30.0170830">
<ele>74.066399</ele>
<time>2026-04-22T23:01:24.004Z</time>
</trkpt>
<trkpt lat="59.0929320" lon="30.0169290">
<ele>74.127357</ele>
<time>2026-04-22T23:02:26.998Z</time>
</trkpt>
<trkpt lat="59.0929110" lon="30.0170430">
<ele>74.188316</ele>
<time>2026-04-22T23:02:57.998Z</time>
</trkpt>
<trkpt lat="59.0926820" lon="30.0172760">
<ele>74.858879</ele>
<time>2026-04-22T23:04:06.004Z</time>
</trkpt>
<trkpt lat="59.0923630" lon="30.0178180">
<ele>74.980797</ele>
<time>2026-04-22T23:05:26.002Z</time>
</trkpt>
<trkpt lat="59.0921440" lon="30.0180880">
<ele>73.091042</ele>
<time>2026-04-22T23:06:17.004Z</time>
</trkpt>
<trkpt lat="59.0919870" lon="30.0182120">
<ele>73.761597</ele>
<time>2026-04-22T23:06:32.996Z</time>
</trkpt>
<trkpt lat="59.0919050" lon="30.0182060">
<ele>75.041756</ele>
<time>2026-04-22T23:07:38.004Z</time>
</trkpt>
<trkpt lat="59.0918670" lon="30.0179420">
<ele>75.255119</ele>
<time>2026-04-22T23:09:53.997Z</time>
</trkpt>
<trkpt lat="59.0918050" lon="30.0178150">
<ele>75.377045</ele>
<time>2026-04-22T23:10:16.003Z</time>
</trkpt>
<trkpt lat="59.0912260" lon="30.0171130">
<ele>75.407516</ele>
<time>2026-04-22T23:12:00.003Z</time>
</trkpt>
<trkpt lat="59.0910490" lon="30.0173430">
<ele>74.645515</ele>
<time>2026-04-22T23:12:59.999Z</time>
</trkpt>
<trkpt lat="59.0909780" lon="30.0173680">
<ele>75.011284</ele>
<time>2026-04-22T23:14:49.001Z</time>
</trkpt>
<trkpt lat="59.0909710" lon="30.0173280">
<ele>75.651360</ele>
<time>2026-04-22T23:15:20.002Z</time>
</trkpt>
<trkpt lat="59.0910230" lon="30.0172520">
<ele>75.407516</ele>
<time>2026-04-22T23:15:37.999Z</time>
</trkpt>
<trkpt lat="59.0908440" lon="30.0171820">
<ele>75.285599</ele>
<time>2026-04-22T23:16:17.000Z</time>
</trkpt>
<trkpt lat="59.0906690" lon="30.0167930">
<ele>76.139038</ele>
<time>2026-04-22T23:17:01.003Z</time>
</trkpt>
<trkpt lat="59.0904380" lon="30.0166940">
<ele>76.931519</ele>
<time>2026-04-22T23:17:32.997Z</time>
</trkpt>
<trkpt lat="59.0901990" lon="30.0164120">
<ele>75.620880</ele>
<time>2026-04-22T23:18:03.004Z</time>
</trkpt>
<trkpt lat="59.0900200" lon="30.0160330">
<ele>76.748642</ele>
<time>2026-04-22T23:20:06.996Z</time>
</trkpt>
<trkpt lat="59.0900720" lon="30.0160700">
<ele>76.870560</ele>
<time>2026-04-22T23:20:29.003Z</time>
</trkpt>
<trkpt lat="59.0900340" lon="30.0160770">
<ele>76.413361</ele>
<time>2026-04-22T23:20:49.004Z</time>
</trkpt>
<trkpt lat="59.0901860" lon="30.0158740">
<ele>76.504799</ele>
<time>2026-04-22T23:22:22.999Z</time>
</trkpt>
<trkpt lat="59.0905720" lon="30.0156450">
<ele>77.937363</ele>
<time>2026-04-22T23:23:39.998Z</time>
</trkpt>
<trkpt lat="59.0906520" lon="30.0155410">
<ele>76.291443</ele>
<time>2026-04-22T23:23:58.998Z</time>
</trkpt>
<trkpt lat="59.0909630" lon="30.0155360">
<ele>76.230484</ele>
<time>2026-04-22T23:25:08.999Z</time>
</trkpt>
<trkpt lat="59.0911020" lon="30.0156400">
<ele>75.864716</ele>
<time>2026-04-22T23:25:38.004Z</time>
</trkpt>
<trkpt lat="59.0911300" lon="30.0157160">
<ele>75.895203</ele>
<time>2026-04-22T23:26:16.996Z</time>
</trkpt>
<trkpt lat="59.0913510" lon="30.0154640">
<ele>75.651360</ele>
<time>2026-04-22T23:28:20.004Z</time>
</trkpt>
<trkpt lat="59.0916820" lon="30.0152870">
<ele>76.017120</ele>
<time>2026-04-22T23:28:55.004Z</time>
</trkpt>
<trkpt lat="59.0918400" lon="30.0152780">
<ele>75.712318</ele>
<time>2026-04-22T23:29:11.999Z</time>
</trkpt>
<trkpt lat="59.0919900" lon="30.0151050">
<ele>75.864716</ele>
<time>2026-04-22T23:29:52.002Z</time>
</trkpt>
<trkpt lat="59.0920800" lon="30.0148340">
<ele>75.559921</ele>
<time>2026-04-22T23:30:53.001Z</time>
</trkpt>
<trkpt lat="59.0924310" lon="30.0145040">
<ele>75.285599</ele>
<time>2026-04-22T23:34:06.001Z</time>
</trkpt>
<trkpt lat="59.0926950" lon="30.0143850">
<ele>74.554085</ele>
<time>2026-04-22T23:35:15.000Z</time>
</trkpt>
<trkpt lat="59.0929930" lon="30.0141310">
<ele>74.919838</ele>
<time>2026-04-22T23:36:17.001Z</time>
</trkpt>
<trkpt lat="59.0930900" lon="30.0141440">
<ele>74.493118</ele>
<time>2026-04-22T23:37:00.002Z</time>
</trkpt>
<trkpt lat="59.0930710" lon="30.0140840">
<ele>74.066399</ele>
<time>2026-04-22T23:37:42.001Z</time>
</trkpt>
<trkpt lat="59.0930550" lon="30.0141050">
<ele>74.035919</ele>
<time>2026-04-22T23:37:57.000Z</time>
</trkpt>
<trkpt lat="59.0930810" lon="30.0141180">
<ele>74.188316</ele>
<time>2026-04-22T23:38:22.004Z</time>
</trkpt>
<trkpt lat="59.0931030" lon="30.0139890">
<ele>74.066399</ele>
<time>2026-04-22T23:38:37.997Z</time>
</trkpt>
<trkpt lat="59.0931860" lon="30.0139880">
<ele>70.103996</ele>
<time>2026-04-22T23:39:43.998Z</time>
</trkpt>
<trkpt lat="59.0934330" lon="30.0136200">
<ele>74.340721</ele>
<time>2026-04-22T23:41:15.996Z</time>
</trkpt>
<trkpt lat="59.0937330" lon="30.0136240">
<ele>73.974960</ele>
<time>2026-04-22T23:42:20.002Z</time>
</trkpt>
<trkpt lat="59.0938220" lon="30.0134850">
<ele>73.334885</ele>
<time>2026-04-22T23:43:15.004Z</time>
</trkpt>
<trkpt lat="59.0937970" lon="30.0135720">
<ele>73.639679</ele>
<time>2026-04-22T23:44:44.998Z</time>
</trkpt>
<trkpt lat="59.0938270" lon="30.0136230">
<ele>74.371201</ele>
<time>2026-04-22T23:45:41.996Z</time>
</trkpt>
<trkpt lat="59.0938130" lon="30.0135170">
<ele>74.035919</ele>
<time>2026-04-22T23:46:04.996Z</time>
</trkpt>
<trkpt lat="59.0938110" lon="30.0135560">
<ele>73.548241</ele>
<time>2026-04-22T23:47:37.003Z</time>
</trkpt>
<trkpt lat="59.0937940" lon="30.0135280">
<ele>73.273918</ele>
<time>2026-04-22T23:49:49.999Z</time>
</trkpt>
<trkpt lat="59.0937900" lon="30.0136130">
<ele>73.456802</ele>
<time>2026-04-22T23:50:46.003Z</time>
</trkpt>
<trkpt lat="59.0937960" lon="30.0134970">
<ele>73.121521</ele>
<time>2026-04-22T23:52:48.000Z</time>
</trkpt>
<trkpt lat="59.0938510" lon="30.0134310">
<ele>72.786240</ele>
<time>2026-04-22T23:53:04.001Z</time>
</trkpt>
<trkpt lat="59.0939220" lon="30.0134770">
<ele>72.999603</ele>
<time>2026-04-22T23:53:27.001Z</time>
</trkpt>
<trkpt lat="59.0940120" lon="30.0134220">
<ele>73.091042</ele>
<time>2026-04-22T23:53:42.000Z</time>
</trkpt>
<trkpt lat="59.0941930" lon="30.0132010">
<ele>72.725281</ele>
<time>2026-04-22T23:54:26.004Z</time>
</trkpt>
<trkpt lat="59.0943720" lon="30.0130650">
<ele>73.670158</ele>
<time>2026-04-22T23:55:05.998Z</time>
</trkpt>
<trkpt lat="59.0944230" lon="30.0131420">
<ele>73.487282</ele>
<time>2026-04-22T23:56:06.996Z</time>
</trkpt>
<trkpt lat="59.0941510" lon="30.0123490">
<ele>72.969116</ele>
<time>2026-04-22T23:59:49.001Z</time>
</trkpt>
<trkpt lat="59.0941810" lon="30.0119770">
<ele>71.780403</ele>
<time>2026-04-23T00:02:32.997Z</time>
</trkpt>
<trkpt lat="59.0941920" lon="30.0120330">
<ele>73.060562</ele>
<time>2026-04-23T00:02:46.000Z</time>
</trkpt>
<trkpt lat="59.0939220" lon="30.0123500">
<ele>72.329041</ele>
<time>2026-04-23T00:05:11.999Z</time>
</trkpt>
<trkpt lat="59.0937790" lon="30.0124420">
<ele>72.359520</ele>
<time>2026-04-23T00:05:33.003Z</time>
</trkpt>
<trkpt lat="59.0934850" lon="30.0129200">
<ele>72.755760</ele>
<time>2026-04-23T00:07:05.002Z</time>
</trkpt>
<trkpt lat="59.0933980" lon="30.0127770">
<ele>73.914001</ele>
<time>2026-04-23T00:08:03.002Z</time>
</trkpt>
<trkpt lat="59.0932230" lon="30.0126880">
<ele>72.755760</ele>
<time>2026-04-23T00:09:17.004Z</time>
</trkpt>
<trkpt lat="59.0930060" lon="30.0130250">
<ele>73.152000</ele>
<time>2026-04-23T00:11:59.997Z</time>
</trkpt>
<trkpt lat="59.0928790" lon="30.0131500">
<ele>73.761597</ele>
<time>2026-04-23T00:12:30.997Z</time>
</trkpt>
<trkpt lat="59.0927890" lon="30.0131650">
<ele>72.877686</ele>
<time>2026-04-23T00:12:52.001Z</time>
</trkpt>
<trkpt lat="59.0927230" lon="30.0133460">
<ele>72.877686</ele>
<time>2026-04-23T00:13:31.996Z</time>
</trkpt>
<trkpt lat="59.0925400" lon="30.0134280">
<ele>72.847198</ele>
<time>2026-04-23T00:14:13.001Z</time>
</trkpt>
<trkpt lat="59.0921260" lon="30.0133700">
<ele>72.694801</ele>
<time>2026-04-23T00:16:36.002Z</time>
</trkpt>
<trkpt lat="59.0921480" lon="30.0134530">
<ele>73.670158</ele>
<time>2026-04-23T00:17:04.004Z</time>
</trkpt>
<trkpt lat="59.0921140" lon="30.0135040">
<ele>73.883514</ele>
<time>2026-04-23T00:17:16.999Z</time>
</trkpt>
<trkpt lat="59.0920240" lon="30.0135270">
<ele>73.639679</ele>
<time>2026-04-23T00:17:31.004Z</time>
</trkpt>
<trkpt lat="59.0917650" lon="30.0137990">
<ele>74.188316</ele>
<time>2026-04-23T00:18:35.001Z</time>
</trkpt>
<trkpt lat="59.0917540" lon="30.0138640">
<ele>70.195442</ele>
<time>2026-04-23T00:18:47.002Z</time>
</trkpt>
<trkpt lat="59.0915890" lon="30.0139180">
<ele>73.548241</ele>
<time>2026-04-23T00:19:21.000Z</time>
</trkpt>
<trkpt lat="59.0912890" lon="30.0142860">
<ele>73.152000</ele>
<time>2026-04-23T00:20:20.996Z</time>
</trkpt>
<trkpt lat="59.0911950" lon="30.0141940">
<ele>73.731117</ele>
<time>2026-04-23T00:20:38.000Z</time>
</trkpt>
<trkpt lat="59.0911440" lon="30.0142260">
<ele>73.944481</ele>
<time>2026-04-23T00:21:14.003Z</time>
</trkpt>
<trkpt lat="59.0911650" lon="30.0143210">
<ele>73.548241</ele>
<time>2026-04-23T00:22:39.003Z</time>
</trkpt>
<trkpt lat="59.0911700" lon="30.0142870">
<ele>73.974960</ele>
<time>2026-04-23T00:23:02.996Z</time>
</trkpt>
<trkpt lat="59.0910660" lon="30.0143690">
<ele>73.883514</ele>
<time>2026-04-23T00:23:21.002Z</time>
</trkpt>
<trkpt lat="59.0908700" lon="30.0146400">
<ele>74.127357</ele>
<time>2026-04-23T00:23:59.001Z</time>
</trkpt>
<trkpt lat="59.0904090" lon="30.0147550">
<ele>74.584557</ele>
<time>2026-04-23T00:25:08.000Z</time>
</trkpt>
<trkpt lat="59.0903410" lon="30.0146380">
<ele>74.310242</ele>
<time>2026-04-23T00:25:25.003Z</time>
</trkpt>
<trkpt lat="59.0901140" lon="30.0145840">
<ele>74.736961</ele>
<time>2026-04-23T00:26:24.999Z</time>
</trkpt>
<trkpt lat="59.0900660" lon="30.0145200">
<ele>74.584557</ele>
<time>2026-04-23T00:27:05.996Z</time>
</trkpt>
<trkpt lat="59.0900240" lon="30.0146180">
<ele>73.639679</ele>
<time>2026-04-23T00:27:55.996Z</time>
</trkpt>
<trkpt lat="59.0900310" lon="30.0145620">
<ele>75.438004</ele>
<time>2026-04-23T00:28:22.996Z</time>
</trkpt>
<trkpt lat="59.0900300" lon="30.0147040">
<ele>75.346558</ele>
<time>2026-04-23T00:28:35.999Z</time>
</trkpt>
<trkpt lat="59.0899570" lon="30.0148850">
<ele>76.321915</ele>
<time>2026-04-23T00:28:49.002Z</time>
</trkpt>
<trkpt lat="59.0899410" lon="30.0150360">
<ele>76.230484</ele>
<time>2026-04-23T00:29:02.999Z</time>
</trkpt>
<trkpt lat="59.0899070" lon="30.0151300">
<ele>76.321915</ele>
<time>2026-04-23T00:29:16.002Z</time>
</trkpt>
<trkpt lat="59.0898450" lon="30.0151540">
<ele>75.468483</ele>
<time>2026-04-23T00:29:29.999Z</time>
</trkpt>
<trkpt lat="59.0898230" lon="30.0152360">
<ele>75.498962</ele>
<time>2026-04-23T00:30:19.999Z</time>
</trkpt>
<trkpt lat="59.0897940" lon="30.0152160">
<ele>75.163681</ele>
<time>2026-04-23T00:30:45.996Z</time>
</trkpt>
<trkpt lat="59.0898170" lon="30.0150920">
<ele>75.285599</ele>
<time>2026-04-23T00:31:20.997Z</time>
</trkpt>
<trkpt lat="59.0896950" lon="30.0143530">
<ele>75.255119</ele>
<time>2026-04-23T00:32:21.002Z</time>
</trkpt>
<trkpt lat="59.0896990" lon="30.0142180">
<ele>74.066399</ele>
<time>2026-04-23T00:32:33.003Z</time>
</trkpt>
<trkpt lat="59.0897380" lon="30.0141890">
<ele>74.615044</ele>
<time>2026-04-23T00:33:07.001Z</time>
</trkpt>
<trkpt lat="59.0897190" lon="30.0140660">
<ele>75.438004</ele>
<time>2026-04-23T00:33:27.003Z</time>
</trkpt>
<trkpt lat="59.0896090" lon="30.0140020">
<ele>75.316078</ele>
<time>2026-04-23T00:34:01.001Z</time>
</trkpt>
<trkpt lat="59.0894710" lon="30.0141850">
<ele>76.047600</ele>
<time>2026-04-23T00:34:36.002Z</time>
</trkpt>
<trkpt lat="59.0894350" lon="30.0140310">
<ele>75.102715</ele>
<time>2026-04-23T00:35:04.998Z</time>
</trkpt>
<trkpt lat="59.0893140" lon="30.0138830">
<ele>74.736961</ele>
<time>2026-04-23T00:37:03.996Z</time>
</trkpt>
<trkpt lat="59.0893540" lon="30.0139800">
<ele>70.805038</ele>
<time>2026-04-23T00:38:05.997Z</time>
</trkpt>
<trkpt lat="59.0894930" lon="30.0137460">
<ele>74.279762</ele>
<time>2026-04-23T00:39:45.003Z</time>
</trkpt>
<trkpt lat="59.0895170" lon="30.0136380">
<ele>74.462639</ele>
<time>2026-04-23T00:39:54.999Z</time>
</trkpt>
<trkpt lat="59.0897990" lon="30.0134170">
<ele>74.249283</ele>
<time>2026-04-23T00:41:18.997Z</time>
</trkpt>
<trkpt lat="59.0900160" lon="30.0133470">
<ele>74.889359</ele>
<time>2026-04-23T00:42:19.996Z</time>
</trkpt>
<trkpt lat="59.0902960" lon="30.0135650">
<ele>74.035919</ele>
<time>2026-04-23T00:44:58.004Z</time>
</trkpt>
<trkpt lat="59.0902470" lon="30.0135150">
<ele>75.102715</ele>
<time>2026-04-23T00:45:10.999Z</time>
</trkpt>
<trkpt lat="59.0902900" lon="30.0133620">
<ele>73.761597</ele>
<time>2026-04-23T00:45:35.001Z</time>
</trkpt>
<trkpt lat="59.0904180" lon="30.0132610">
<ele>74.157845</ele>
<time>2026-04-23T00:46:00.998Z</time>
</trkpt>
<trkpt lat="59.0904350" lon="30.0131280">
<ele>74.249283</ele>
<time>2026-04-23T00:46:17.000Z</time>
</trkpt>
<trkpt lat="59.0905050" lon="30.0130730">
<ele>74.035919</ele>
<time>2026-04-23T00:46:34.997Z</time>
</trkpt>
<trkpt lat="59.0906090" lon="30.0128760">
<ele>73.822556</ele>
<time>2026-04-23T00:47:09.997Z</time>
</trkpt>
<trkpt lat="59.0909060" lon="30.0127070">
<ele>74.066399</ele>
<time>2026-04-23T00:47:56.999Z</time>
</trkpt>
<trkpt lat="59.0909700" lon="30.0128570">
<ele>74.035919</ele>
<time>2026-04-23T00:48:21.001Z</time>
</trkpt>
<trkpt lat="59.0910360" lon="30.0131520">
<ele>73.883514</ele>
<time>2026-04-23T00:48:40.000Z</time>
</trkpt>
<trkpt lat="59.0911400" lon="30.0132100">
<ele>73.914001</ele>
<time>2026-04-23T00:48:57.004Z</time>
</trkpt>
<trkpt lat="59.0911490" lon="30.0133090">
<ele>73.212959</ele>
<time>2026-04-23T00:49:48.999Z</time>
</trkpt>
<trkpt lat="59.0911190" lon="30.0132040">
<ele>73.761597</ele>
<time>2026-04-23T00:50:37.997Z</time>
</trkpt>
<trkpt lat="59.0911310" lon="30.0132760">
<ele>73.761597</ele>
<time>2026-04-23T00:51:14.000Z</time>
</trkpt>
<trkpt lat="59.0911640" lon="30.0132360">
<ele>73.639679</ele>
<time>2026-04-23T00:51:51.998Z</time>
</trkpt>
<trkpt lat="59.0911970" lon="30.0130620">
<ele>73.731117</ele>
<time>2026-04-23T00:52:29.997Z</time>
</trkpt>
<trkpt lat="59.0912900" lon="30.0129530">
<ele>73.792084</ele>
<time>2026-04-23T00:52:48.996Z</time>
</trkpt>
<trkpt lat="59.0914480" lon="30.0126020">
<ele>73.578720</ele>
<time>2026-04-23T00:53:24.999Z</time>
</trkpt>
<trkpt lat="59.0915230" lon="30.0125580">
<ele>73.578720</ele>
<time>2026-04-23T00:53:39.998Z</time>
</trkpt>
<trkpt lat="59.0916740" lon="30.0123240">
<ele>73.670158</ele>
<time>2026-04-23T00:54:00.000Z</time>
</trkpt>
<trkpt lat="59.0917770" lon="30.0122710">
<ele>73.487282</ele>
<time>2026-04-23T00:54:13.003Z</time>
</trkpt>
<trkpt lat="59.0919100" lon="30.0123260">
<ele>73.273918</ele>
<time>2026-04-23T00:54:29.998Z</time>
</trkpt>
<trkpt lat="59.0919500" lon="30.0123860">
<ele>73.456802</ele>
<time>2026-04-23T00:54:47.002Z</time>
</trkpt>
<trkpt lat="59.0919240" lon="30.0124670">
<ele>73.182480</ele>
<time>2026-04-23T00:55:03.003Z</time>
</trkpt>
<trkpt lat="59.0919710" lon="30.0124760">
<ele>73.517761</ele>
<time>2026-04-23T00:55:44.000Z</time>
</trkpt>
<trkpt lat="59.0919100" lon="30.0124540">
<ele>73.152000</ele>
<time>2026-04-23T00:56:28.003Z</time>
</trkpt>
<trkpt lat="59.0919130" lon="30.0123330">
<ele>73.212959</ele>
<time>2026-04-23T00:58:16.003Z</time>
</trkpt>
<trkpt lat="59.0921070" lon="30.0122740">
<ele>73.121521</ele>
<time>2026-04-23T00:59:29.003Z</time>
</trkpt>
<trkpt lat="59.0921910" lon="30.0121530">
<ele>73.426315</ele>
<time>2026-04-23T00:59:47.000Z</time>
</trkpt>
<trkpt lat="59.0922930" lon="30.0122280">
<ele>73.060562</ele>
<time>2026-04-23T01:00:00.996Z</time>
</trkpt>
<trkpt lat="59.0924180" lon="30.0118970">
<ele>73.304398</ele>
<time>2026-04-23T01:00:32.999Z</time>
</trkpt>
<trkpt lat="59.0925730" lon="30.0116550">
<ele>73.548241</ele>
<time>2026-04-23T01:01:02.997Z</time>
</trkpt>
<trkpt lat="59.0927960" lon="30.0116060">
<ele>73.670158</ele>
<time>2026-04-23T01:01:40.002Z</time>
</trkpt>
<trkpt lat="59.0928760" lon="30.0114950">
<ele>73.731117</ele>
<time>2026-04-23T01:03:45.999Z</time>
</trkpt>
<trkpt lat="59.0928790" lon="30.0115390">
<ele>74.554085</ele>
<time>2026-04-23T01:04:45.002Z</time>
</trkpt>
<trkpt lat="59.0929230" lon="30.0114800">
<ele>73.853043</ele>
<time>2026-04-23T01:06:27.999Z</time>
</trkpt>
<trkpt lat="59.0929880" lon="30.0115000">
<ele>74.584557</ele>
<time>2026-04-23T01:06:45.996Z</time>
</trkpt>
<trkpt lat="59.0932180" lon="30.0113440">
<ele>73.944481</ele>
<time>2026-04-23T01:07:35.996Z</time>
</trkpt>
<trkpt lat="59.0933860" lon="30.0114660">
<ele>73.853043</ele>
<time>2026-04-23T01:08:10.003Z</time>
</trkpt>
<trkpt lat="59.0935050" lon="30.0113350">
<ele>74.493118</ele>
<time>2026-04-23T01:08:28.000Z</time>
</trkpt>
<trkpt lat="59.0935240" lon="30.0112350">
<ele>74.432159</ele>
<time>2026-04-23T01:08:41.004Z</time>
</trkpt>
<trkpt lat="59.0937220" lon="30.0110240">
<ele>74.980797</ele>
<time>2026-04-23T01:09:36.999Z</time>
</trkpt>
<trkpt lat="59.0937790" lon="30.0111100">
<ele>73.700638</ele>
<time>2026-04-23T01:11:22.001Z</time>
</trkpt>
<trkpt lat="59.0939170" lon="30.0109340">
<ele>73.548241</ele>
<time>2026-04-23T01:12:25.998Z</time>
</trkpt>
<trkpt lat="59.0943360" lon="30.0106660">
<ele>73.578720</ele>
<time>2026-04-23T01:13:53.003Z</time>
</trkpt>
<trkpt lat="59.0944290" lon="30.0104490">
<ele>73.060562</ele>
<time>2026-04-23T01:14:24.996Z</time>
</trkpt>
<trkpt lat="59.0945390" lon="30.0103360">
<ele>73.243439</ele>
<time>2026-04-23T01:14:39.002Z</time>
</trkpt>
<trkpt lat="59.0947450" lon="30.0103550">
<ele>72.877686</ele>
<time>2026-04-23T01:15:32.000Z</time>
</trkpt>
<trkpt lat="59.0947370" lon="30.0102790">
<ele>70.622162</ele>
<time>2026-04-23T01:16:31.002Z</time>
</trkpt>
<trkpt lat="59.0948600" lon="30.0102970">
<ele>72.054718</ele>
<time>2026-04-23T01:17:24.000Z</time>
</trkpt>
<trkpt lat="59.0950870" lon="30.0101420">
<ele>72.359520</ele>
<time>2026-04-23T01:17:52.996Z</time>
</trkpt>
<trkpt lat="59.0952720" lon="30.0101340">
<ele>72.481438</ele>
<time>2026-04-23T01:18:32.999Z</time>
</trkpt>
<trkpt lat="59.0953020" lon="30.0100630">
<ele>72.329041</ele>
<time>2026-04-23T01:18:50.003Z</time>
</trkpt>
<trkpt lat="59.0953870" lon="30.0101280">
<ele>72.664322</ele>
<time>2026-04-23T01:19:12.000Z</time>
</trkpt>
<trkpt lat="59.0961470" lon="30.0095900">
<ele>71.658485</ele>
<time>2026-04-23T01:21:08.001Z</time>
</trkpt>
<trkpt lat="59.0962110" lon="30.0096050">
<ele>71.536560</ele>
<time>2026-04-23T01:21:43.001Z</time>
</trkpt>
<trkpt lat="59.0962880" lon="30.0094900">
<ele>71.993759</ele>
<time>2026-04-23T01:22:03.003Z</time>
</trkpt>
<trkpt lat="59.0962580" lon="30.0092170">
<ele>72.420479</ele>
<time>2026-04-23T01:22:15.997Z</time>
</trkpt>
<trkpt lat="59.0960650" lon="30.0083170">
<ele>73.761597</ele>
<time>2026-04-23T01:22:56.001Z</time>
</trkpt>
<trkpt lat="59.0959380" lon="30.0074030">
<ele>71.902321</ele>
<time>2026-04-23T01:23:35.002Z</time>
</trkpt>
<trkpt lat="59.0957270" lon="30.0062320">
<ele>73.334885</ele>
<time>2026-04-23T01:24:26.997Z</time>
</trkpt>
<trkpt lat="59.0955190" lon="30.0052620">
<ele>72.694801</ele>
<time>2026-04-23T01:25:09.998Z</time>
</trkpt>
<trkpt lat="59.0953760" lon="30.0043860">
<ele>72.877686</ele>
<time>2026-04-23T01:25:48.999Z</time>
</trkpt>
<trkpt lat="59.0953350" lon="30.0038790">
<ele>72.511917</ele>
<time>2026-04-23T01:26:10.997Z</time>
</trkpt>
<trkpt lat="59.0950950" lon="30.0028280">
<ele>70.286880</ele>
<time>2026-04-23T01:27:03.001Z</time>
</trkpt>
<trkpt lat="59.0951060" lon="30.0025730">
<ele>72.664322</ele>
<time>2026-04-23T01:27:19.002Z</time>
</trkpt>
<trkpt lat="59.0950950" lon="30.0026070">
<ele>72.511917</ele>
<time>2026-04-23T01:27:32.999Z</time>
</trkpt>
<trkpt lat="59.0950580" lon="30.0024420">
<ele>72.786240</ele>
<time>2026-04-23T01:27:39.004Z</time>
</trkpt>
<trkpt lat="59.0947970" lon="30.0010920">
<ele>74.035919</ele>
<time>2026-04-23T01:28:06.997Z</time>
</trkpt>
<trkpt lat="59.0947110" lon="30.0004610">
<ele>73.761597</ele>
<time>2026-04-23T01:28:18.998Z</time>
</trkpt>
<trkpt lat="59.0939220" lon="29.9959470">
<ele>74.889359</ele>
<time>2026-04-23T01:29:27.004Z</time>
</trkpt>
<trkpt lat="59.0937990" lon="29.9949800">
<ele>74.950317</ele>
<time>2026-04-23T01:29:50.004Z</time>
</trkpt>
<trkpt lat="59.0928740" lon="29.9900600">
<ele>75.346558</ele>
<time>2026-04-23T01:31:27.998Z</time>
</trkpt>
<trkpt lat="59.0926930" lon="29.9887500">
<ele>75.590401</ele>
<time>2026-04-23T01:31:53.003Z</time>
</trkpt>
<trkpt lat="59.0924870" lon="29.9878750">
<ele>75.895203</ele>
<time>2026-04-23T01:32:09.004Z</time>
</trkpt>
<trkpt lat="59.0922080" lon="29.9860720">
<ele>76.504799</ele>
<time>2026-04-23T01:32:38.000Z</time>
</trkpt>
<trkpt lat="59.0922490" lon="29.9853970">
<ele>76.687683</ele>
<time>2026-04-23T01:32:48.998Z</time>
</trkpt>
<trkpt lat="59.0924290" lon="29.9836740">
<ele>76.870560</ele>
<time>2026-04-23T01:33:18.003Z</time>
</trkpt>
<trkpt lat="59.0924840" lon="29.9829060">
<ele>77.144882</ele>
<time>2026-04-23T01:33:32.000Z</time>
</trkpt>
<trkpt lat="59.0932050" lon="29.9759850">
<ele>79.369919</ele>
<time>2026-04-23T01:35:33.003Z</time>
</trkpt>
<trkpt lat="59.0932950" lon="29.9758740">
<ele>79.369919</ele>
<time>2026-04-23T01:35:37.003Z</time>
</trkpt>
<trkpt lat="59.0939060" lon="29.9759940">
<ele>79.034637</ele>
<time>2026-04-23T01:35:52.002Z</time>
</trkpt>
<trkpt lat="59.0952950" lon="29.9760460">
<ele>77.083916</ele>
<time>2026-04-23T01:36:26.001Z</time>
</trkpt>
<trkpt lat="59.0964070" lon="29.9762340">
<ele>76.413361</ele>
<time>2026-04-23T01:36:49.000Z</time>
</trkpt>
<trkpt lat="59.0982920" lon="29.9768490">
<ele>74.950317</ele>
<time>2026-04-23T01:37:37.004Z</time>
</trkpt>
<trkpt lat="59.0986440" lon="29.9770220">
<ele>74.401680</ele>
<time>2026-04-23T01:37:48.996Z</time>
</trkpt>
<trkpt lat="59.0994770" lon="29.9772250">
<ele>73.883514</ele>
<time>2026-04-23T01:38:14.001Z</time>
</trkpt>
<trkpt lat="59.0999310" lon="29.9774230">
<ele>73.883514</ele>
<time>2026-04-23T01:38:29.000Z</time>
</trkpt>
<trkpt lat="59.1020340" lon="29.9779920">
<ele>73.517761</ele>
<time>2026-04-23T01:39:28.996Z</time>
</trkpt>
<trkpt lat="59.1021770" lon="29.9781940">
<ele>72.999603</ele>
<time>2026-04-23T01:40:26.003Z</time>
</trkpt>
<trkpt lat="59.1021500" lon="29.9782640">
<ele>73.030083</ele>
<time>2026-04-23T01:40:49.996Z</time>
</trkpt>
<trkpt lat="59.1020780" lon="29.9782670">
<ele>73.121521</ele>
<time>2026-04-23T01:42:50.999Z</time>
</trkpt>
</trkseg>
</trk>
<trk>
 <name>20260423_Lisa69</name>
 <desc>20260423_Lisa69</desc>
<trkseg>
<trkpt lat="59.1020930" lon="29.9787550">
<ele>69.372482</ele>
<time>2026-04-22T21:26:56.000Z</time>
</trkpt>
<trkpt lat="59.1020380" lon="29.9790370">
<ele>67.878960</ele>
<time>2026-04-22T21:27:09.996Z</time>
</trkpt>
<trkpt lat="59.1020430" lon="29.9795830">
<ele>69.982079</ele>
<time>2026-04-22T21:27:41.999Z</time>
</trkpt>
<trkpt lat="59.1019730" lon="29.9800050">
<ele>70.408798</ele>
<time>2026-04-22T21:28:11.004Z</time>
</trkpt>
<trkpt lat="59.1001520" lon="29.9794710">
<ele>71.414642</ele>
<time>2026-04-22T21:31:04.996Z</time>
</trkpt>
<trkpt lat="59.0994290" lon="29.9791880">
<ele>71.414642</ele>
<time>2026-04-22T21:32:33.003Z</time>
</trkpt>
<trkpt lat="59.0992520" lon="29.9792370">
<ele>71.993759</ele>
<time>2026-04-22T21:32:52.002Z</time>
</trkpt>
<trkpt lat="59.0991570" lon="29.9801770">
<ele>70.134483</ele>
<time>2026-04-22T21:33:31.003Z</time>
</trkpt>
<trkpt lat="59.0990530" lon="29.9808100">
<ele>68.945763</ele>
<time>2026-04-22T21:33:59.999Z</time>
</trkpt>
<trkpt lat="59.0989700" lon="29.9809250">
<ele>68.945763</ele>
<time>2026-04-22T21:34:13.002Z</time>
</trkpt>
<trkpt lat="59.0984790" lon="29.9809380">
<ele>71.993759</ele>
<time>2026-04-22T21:35:06.000Z</time>
</trkpt>
<trkpt lat="59.0984360" lon="29.9810740">
<ele>71.993759</ele>
<time>2026-04-22T21:35:20.999Z</time>
</trkpt>
<trkpt lat="59.0984660" lon="29.9813220">
<ele>69.585838</ele>
<time>2026-04-22T21:35:34.996Z</time>
</trkpt>
<trkpt lat="59.0984400" lon="29.9816340">
<ele>69.677284</ele>
<time>2026-04-22T21:35:49.001Z</time>
</trkpt>
<trkpt lat="59.0983800" lon="29.9818940">
<ele>75.102715</ele>
<time>2026-04-22T21:36:36.003Z</time>
</trkpt>
<trkpt lat="59.0983400" lon="29.9818940">
<ele>76.779121</ele>
<time>2026-04-22T21:37:19.998Z</time>
</trkpt>
<trkpt lat="59.0983380" lon="29.9818060">
<ele>78.059280</ele>
<time>2026-04-22T21:37:34.997Z</time>
</trkpt>
<trkpt lat="59.0984580" lon="29.9818050">
<ele>75.956161</ele>
<time>2026-04-22T21:38:51.003Z</time>
</trkpt>
<trkpt lat="59.0984110" lon="29.9817670">
<ele>77.205841</ele>
<time>2026-04-22T21:40:16.003Z</time>
</trkpt>
<trkpt lat="59.0983920" lon="29.9818290">
<ele>75.163681</ele>
<time>2026-04-22T21:40:46.001Z</time>
</trkpt>
<trkpt lat="59.0984240" lon="29.9818460">
<ele>75.377045</ele>
<time>2026-04-22T21:41:25.996Z</time>
</trkpt>
<trkpt lat="59.0984090" lon="29.9817700">
<ele>75.041756</ele>
<time>2026-04-22T21:41:56.003Z</time>
</trkpt>
<trkpt lat="59.0983190" lon="29.9817600">
<ele>75.133202</ele>
<time>2026-04-22T21:42:22.000Z</time>
</trkpt>
<trkpt lat="59.0983510" lon="29.9817900">
<ele>74.767441</ele>
<time>2026-04-22T21:42:46.996Z</time>
</trkpt>
<trkpt lat="59.0984520" lon="29.9816150">
<ele>75.377045</ele>
<time>2026-04-22T21:43:02.004Z</time>
</trkpt>
<trkpt lat="59.0984270" lon="29.9810690">
<ele>74.950317</ele>
<time>2026-04-22T21:43:26.999Z</time>
</trkpt>
<trkpt lat="59.0983370" lon="29.9809210">
<ele>74.919838</ele>
<time>2026-04-22T21:43:40.996Z</time>
</trkpt>
<trkpt lat="59.0982220" lon="29.9811130">
<ele>74.157845</ele>
<time>2026-04-22T21:43:59.002Z</time>
</trkpt>
<trkpt lat="59.0979550" lon="29.9811210">
<ele>72.603355</ele>
<time>2026-04-22T21:44:27.004Z</time>
</trkpt>
<trkpt lat="59.0979260" lon="29.9811080">
<ele>72.359520</ele>
<time>2026-04-22T21:44:42.996Z</time>
</trkpt>
<trkpt lat="59.0979260" lon="29.9810580">
<ele>75.620880</ele>
<time>2026-04-22T21:45:08.001Z</time>
</trkpt>
<trkpt lat="59.0982250" lon="29.9811010">
<ele>73.395844</ele>
<time>2026-04-22T21:47:16.996Z</time>
</trkpt>
<trkpt lat="59.0983670" lon="29.9809140">
<ele>74.005440</ele>
<time>2026-04-22T21:47:33.999Z</time>
</trkpt>
<trkpt lat="59.0984110" lon="29.9809840">
<ele>73.548241</ele>
<time>2026-04-22T21:47:40.004Z</time>
</trkpt>
<trkpt lat="59.0984580" lon="29.9812730">
<ele>72.999603</ele>
<time>2026-04-22T21:47:54.001Z</time>
</trkpt>
<trkpt lat="59.0984770" lon="29.9814320">
<ele>70.469757</ele>
<time>2026-04-22T21:48:07.998Z</time>
</trkpt>
<trkpt lat="59.0984500" lon="29.9817410">
<ele>69.982079</ele>
<time>2026-04-22T21:48:26.997Z</time>
</trkpt>
<trkpt lat="59.0983360" lon="29.9819700">
<ele>71.658485</ele>
<time>2026-04-22T21:48:44.001Z</time>
</trkpt>
<trkpt lat="59.0983480" lon="29.9822530">
<ele>72.298561</ele>
<time>2026-04-22T21:49:16.003Z</time>
</trkpt>
<trkpt lat="59.0983730" lon="29.9824570">
<ele>72.450958</ele>
<time>2026-04-22T21:49:57.000Z</time>
</trkpt>
<trkpt lat="59.0984070" lon="29.9824560">
<ele>73.548241</ele>
<time>2026-04-22T21:51:03.001Z</time>
</trkpt>
<trkpt lat="59.0983660" lon="29.9824780">
<ele>71.902321</ele>
<time>2026-04-22T21:51:45.000Z</time>
</trkpt>
<trkpt lat="59.0983760" lon="29.9826510">
<ele>73.853043</ele>
<time>2026-04-22T21:54:04.000Z</time>
</trkpt>
<trkpt lat="59.0984100" lon="29.9826280">
<ele>80.528160</ele>
<time>2026-04-22T21:55:07.997Z</time>
</trkpt>
<trkpt lat="59.0984220" lon="29.9827820">
<ele>80.589119</ele>
<time>2026-04-22T21:55:37.001Z</time>
</trkpt>
<trkpt lat="59.0985800" lon="29.9832230">
<ele>80.101433</ele>
<time>2026-04-22T21:56:12.002Z</time>
</trkpt>
<trkpt lat="59.0986330" lon="29.9836280">
<ele>80.528160</ele>
<time>2026-04-22T21:56:42.000Z</time>
</trkpt>
<trkpt lat="59.0986040" lon="29.9839210">
<ele>79.339439</ele>
<time>2026-04-22T21:57:22.997Z</time>
</trkpt>
<trkpt lat="59.0986510" lon="29.9841790">
<ele>78.943199</ele>
<time>2026-04-22T21:57:44.001Z</time>
</trkpt>
<trkpt lat="59.0986500" lon="29.9841160">
<ele>78.729836</ele>
<time>2026-04-22T21:58:50.002Z</time>
</trkpt>
<trkpt lat="59.0986300" lon="29.9843780">
<ele>72.786240</ele>
<time>2026-04-22T21:59:44.002Z</time>
</trkpt>
<trkpt lat="59.0986560" lon="29.9845330">
<ele>73.609200</ele>
<time>2026-04-22T22:00:22.000Z</time>
</trkpt>
<trkpt lat="59.0986380" lon="29.9844180">
<ele>75.498962</ele>
<time>2026-04-22T22:03:52.004Z</time>
</trkpt>
<trkpt lat="59.0986470" lon="29.9845020">
<ele>74.462639</ele>
<time>2026-04-22T22:04:19.998Z</time>
</trkpt>
<trkpt lat="59.0985100" lon="29.9848780">
<ele>73.182480</ele>
<time>2026-04-22T22:05:06.999Z</time>
</trkpt>
<trkpt lat="59.0984750" lon="29.9848010">
<ele>75.133202</ele>
<time>2026-04-22T22:05:40.004Z</time>
</trkpt>
<trkpt lat="59.0984950" lon="29.9849000">
<ele>73.243439</ele>
<time>2026-04-22T22:06:27.999Z</time>
</trkpt>
<trkpt lat="59.0984640" lon="29.9849860">
<ele>74.736961</ele>
<time>2026-04-22T22:06:50.999Z</time>
</trkpt>
<trkpt lat="59.0983010" lon="29.9849080">
<ele>75.620880</ele>
<time>2026-04-22T22:07:35.996Z</time>
</trkpt>
<trkpt lat="59.0983810" lon="29.9851660">
<ele>75.834244</ele>
<time>2026-04-22T22:08:02.003Z</time>
</trkpt>
<trkpt lat="59.0986420" lon="29.9856380">
<ele>72.694801</ele>
<time>2026-04-22T22:09:23.996Z</time>
</trkpt>
<trkpt lat="59.0986930" lon="29.9855950">
<ele>74.279762</ele>
<time>2026-04-22T22:10:03.999Z</time>
</trkpt>
<trkpt lat="59.0986000" lon="29.9855940">
<ele>75.895203</ele>
<time>2026-04-22T22:10:26.999Z</time>
</trkpt>
<trkpt lat="59.0986110" lon="29.9857140">
<ele>75.438004</ele>
<time>2026-04-22T22:10:57.999Z</time>
</trkpt>
<trkpt lat="59.0986910" lon="29.9856640">
<ele>75.681839</ele>
<time>2026-04-22T22:11:26.002Z</time>
</trkpt>
<trkpt lat="59.0987450" lon="29.9857280">
<ele>74.767441</ele>
<time>2026-04-22T22:11:46.003Z</time>
</trkpt>
<trkpt lat="59.0986970" lon="29.9861330">
<ele>73.853043</ele>
<time>2026-04-22T22:13:30.003Z</time>
</trkpt>
<trkpt lat="59.0987490" lon="29.9862050">
<ele>71.902321</ele>
<time>2026-04-22T22:14:02.999Z</time>
</trkpt>
<trkpt lat="59.0987720" lon="29.9860480">
<ele>71.140320</ele>
<time>2026-04-22T22:14:20.996Z</time>
</trkpt>
<trkpt lat="59.0988210" lon="29.9860380">
<ele>71.445122</ele>
<time>2026-04-22T22:14:43.002Z</time>
</trkpt>
<trkpt lat="59.0988330" lon="29.9861550">
<ele>72.908157</ele>
<time>2026-04-22T22:19:08.000Z</time>
</trkpt>
<trkpt lat="59.0988990" lon="29.9860990">
<ele>72.085197</ele>
<time>2026-04-22T22:19:32.002Z</time>
</trkpt>
<trkpt lat="59.0990570" lon="29.9865740">
<ele>73.700638</ele>
<time>2026-04-22T22:20:58.998Z</time>
</trkpt>
<trkpt lat="59.0990690" lon="29.9869520">
<ele>73.304398</ele>
<time>2026-04-22T22:21:48.004Z</time>
</trkpt>
<trkpt lat="59.0991350" lon="29.9870190">
<ele>72.786240</ele>
<time>2026-04-22T22:22:03.996Z</time>
</trkpt>
<trkpt lat="59.0991850" lon="29.9869410">
<ele>72.603355</ele>
<time>2026-04-22T22:22:26.003Z</time>
</trkpt>
<trkpt lat="59.0991780" lon="29.9868010">
<ele>74.005440</ele>
<time>2026-04-22T22:22:39.999Z</time>
</trkpt>
<trkpt lat="59.0992140" lon="29.9868820">
<ele>73.609200</ele>
<time>2026-04-22T22:22:54.998Z</time>
</trkpt>
<trkpt lat="59.0992720" lon="29.9868620">
<ele>76.382881</ele>
<time>2026-04-22T22:23:13.004Z</time>
</trkpt>
<trkpt lat="59.0991590" lon="29.9874550">
<ele>75.133202</ele>
<time>2026-04-22T22:25:01.004Z</time>
</trkpt>
<trkpt lat="59.0990570" lon="29.9875680">
<ele>72.694801</ele>
<time>2026-04-22T22:25:31.002Z</time>
</trkpt>
<trkpt lat="59.0990610" lon="29.9876470">
<ele>71.627998</ele>
<time>2026-04-22T22:25:51.997Z</time>
</trkpt>
<trkpt lat="59.0989470" lon="29.9878690">
<ele>77.022957</ele>
<time>2026-04-22T22:28:37.998Z</time>
</trkpt>
<trkpt lat="59.0989770" lon="29.9878750">
<ele>75.925682</ele>
<time>2026-04-22T22:30:31.000Z</time>
</trkpt>
<trkpt lat="59.0989780" lon="29.9878320">
<ele>77.815437</ele>
<time>2026-04-22T22:30:52.998Z</time>
</trkpt>
<trkpt lat="59.0989650" lon="29.9879290">
<ele>80.985367</ele>
<time>2026-04-22T22:31:46.998Z</time>
</trkpt>
<trkpt lat="59.0989620" lon="29.9878140">
<ele>80.436722</ele>
<time>2026-04-22T22:34:13.999Z</time>
</trkpt>
<trkpt lat="59.0990250" lon="29.9878730">
<ele>80.558640</ele>
<time>2026-04-22T22:35:02.003Z</time>
</trkpt>
<trkpt lat="59.0990990" lon="29.9882050">
<ele>80.162399</ele>
<time>2026-04-22T22:35:59.001Z</time>
</trkpt>
<trkpt lat="59.0993090" lon="29.9884870">
<ele>79.369919</ele>
<time>2026-04-22T22:37:13.002Z</time>
</trkpt>
<trkpt lat="59.0992890" lon="29.9885570">
<ele>79.308960</ele>
<time>2026-04-22T22:37:44.996Z</time>
</trkpt>
<trkpt lat="59.0993160" lon="29.9888680">
<ele>78.242165</ele>
<time>2026-04-22T22:38:15.003Z</time>
</trkpt>
<trkpt lat="59.0993690" lon="29.9889840">
<ele>76.901039</ele>
<time>2026-04-22T22:38:50.997Z</time>
</trkpt>
<trkpt lat="59.0994070" lon="29.9889790">
<ele>72.603355</ele>
<time>2026-04-22T22:39:12.001Z</time>
</trkpt>
<trkpt lat="59.0994040" lon="29.9890230">
<ele>76.840080</ele>
<time>2026-04-22T22:40:17.000Z</time>
</trkpt>
<trkpt lat="59.0994360" lon="29.9889570">
<ele>78.486000</ele>
<time>2026-04-22T22:40:46.998Z</time>
</trkpt>
<trkpt lat="59.0994630" lon="29.9889890">
<ele>78.668884</ele>
<time>2026-04-22T22:41:06.999Z</time>
</trkpt>
<trkpt lat="59.0994270" lon="29.9891360">
<ele>75.559921</ele>
<time>2026-04-22T22:41:47.996Z</time>
</trkpt>
<trkpt lat="59.0994250" lon="29.9895880">
<ele>76.596237</ele>
<time>2026-04-22T22:42:45.996Z</time>
</trkpt>
<trkpt lat="59.0993120" lon="29.9894680">
<ele>75.316078</ele>
<time>2026-04-22T22:43:40.999Z</time>
</trkpt>
<trkpt lat="59.0992280" lon="29.9894650">
<ele>76.961998</ele>
<time>2026-04-22T22:44:37.003Z</time>
</trkpt>
<trkpt lat="59.0991560" lon="29.9894800">
<ele>77.266800</ele>
<time>2026-04-22T22:44:59.001Z</time>
</trkpt>
<trkpt lat="59.0990840" lon="29.9896170">
<ele>82.753197</ele>
<time>2026-04-22T22:46:33.004Z</time>
</trkpt>
<trkpt lat="59.0991820" lon="29.9895470">
<ele>82.539833</ele>
<time>2026-04-22T22:50:00.001Z</time>
</trkpt>
<trkpt lat="59.0992020" lon="29.9897050">
<ele>83.362801</ele>
<time>2026-04-22T22:51:10.002Z</time>
</trkpt>
<trkpt lat="59.0992380" lon="29.9897820">
<ele>83.118965</ele>
<time>2026-04-22T22:51:29.002Z</time>
</trkpt>
<trkpt lat="59.0991380" lon="29.9903220">
<ele>80.772003</ele>
<time>2026-04-22T22:53:02.003Z</time>
</trkpt>
<trkpt lat="59.0991840" lon="29.9903070">
<ele>77.937363</ele>
<time>2026-04-22T22:53:21.002Z</time>
</trkpt>
<trkpt lat="59.0991930" lon="29.9903790">
<ele>77.144882</ele>
<time>2026-04-22T22:53:41.004Z</time>
</trkpt>
<trkpt lat="59.0992260" lon="29.9903820">
<ele>80.772003</ele>
<time>2026-04-22T22:53:57.998Z</time>
</trkpt>
<trkpt lat="59.0993860" lon="29.9910410">
<ele>72.725281</ele>
<time>2026-04-22T22:55:52.997Z</time>
</trkpt>
<trkpt lat="59.0994600" lon="29.9910990">
<ele>72.877686</ele>
<time>2026-04-22T22:56:23.997Z</time>
</trkpt>
<trkpt lat="59.0995230" lon="29.9910820">
<ele>72.725281</ele>
<time>2026-04-22T22:56:43.999Z</time>
</trkpt>
<trkpt lat="59.0995210" lon="29.9909890">
<ele>75.194160</ele>
<time>2026-04-22T22:57:44.004Z</time>
</trkpt>
<trkpt lat="59.0995550" lon="29.9910530">
<ele>73.761597</ele>
<time>2026-04-22T22:58:34.003Z</time>
</trkpt>
<trkpt lat="59.0995250" lon="29.9910400">
<ele>70.408798</ele>
<time>2026-04-22T23:01:58.996Z</time>
</trkpt>
<trkpt lat="59.0995310" lon="29.9912060">
<ele>70.164963</ele>
<time>2026-04-22T23:03:19.996Z</time>
</trkpt>
<trkpt lat="59.0995820" lon="29.9912230">
<ele>71.780403</ele>
<time>2026-04-22T23:03:53.001Z</time>
</trkpt>
<trkpt lat="59.0996320" lon="29.9914720">
<ele>70.134483</ele>
<time>2026-04-22T23:06:00.000Z</time>
</trkpt>
<trkpt lat="59.0997350" lon="29.9916010">
<ele>74.432159</ele>
<time>2026-04-22T23:07:31.999Z</time>
</trkpt>
<trkpt lat="59.0997030" lon="29.9916620">
<ele>74.401680</ele>
<time>2026-04-22T23:08:38.000Z</time>
</trkpt>
<trkpt lat="59.0997580" lon="29.9916790">
<ele>74.889359</ele>
<time>2026-04-22T23:09:10.002Z</time>
</trkpt>
<trkpt lat="59.0997600" lon="29.9917560">
<ele>75.011284</ele>
<time>2026-04-22T23:09:36.000Z</time>
</trkpt>
<trkpt lat="59.0997220" lon="29.9917920">
<ele>76.260956</ele>
<time>2026-04-22T23:10:21.999Z</time>
</trkpt>
<trkpt lat="59.0997620" lon="29.9919420">
<ele>75.224640</ele>
<time>2026-04-22T23:10:43.003Z</time>
</trkpt>
<trkpt lat="59.0998260" lon="29.9919440">
<ele>74.401680</ele>
<time>2026-04-22T23:11:33.003Z</time>
</trkpt>
<trkpt lat="59.0998310" lon="29.9920230">
<ele>73.548241</ele>
<time>2026-04-22T23:11:53.998Z</time>
</trkpt>
<trkpt lat="59.0998460" lon="29.9919880">
<ele>74.462639</ele>
<time>2026-04-22T23:11:57.998Z</time>
</trkpt>
<trkpt lat="59.0999160" lon="29.9920550">
<ele>75.102715</ele>
<time>2026-04-22T23:12:55.999Z</time>
</trkpt>
<trkpt lat="59.0998260" lon="29.9922710">
<ele>73.792084</ele>
<time>2026-04-22T23:15:32.003Z</time>
</trkpt>
<trkpt lat="59.0999100" lon="29.9925680">
<ele>72.633842</ele>
<time>2026-04-22T23:17:05.004Z</time>
</trkpt>
<trkpt lat="59.0998850" lon="29.9927910">
<ele>72.115685</ele>
<time>2026-04-22T23:17:55.003Z</time>
</trkpt>
<trkpt lat="59.0998220" lon="29.9929440">
<ele>72.786240</ele>
<time>2026-04-22T23:18:18.003Z</time>
</trkpt>
<trkpt lat="59.0997630" lon="29.9928510">
<ele>70.469757</ele>
<time>2026-04-22T23:18:49.997Z</time>
</trkpt>
<trkpt lat="59.0998140" lon="29.9929650">
<ele>79.187035</ele>
<time>2026-04-22T23:20:25.002Z</time>
</trkpt>
<trkpt lat="59.0997800" lon="29.9929540">
<ele>81.747360</ele>
<time>2026-04-22T23:21:49.000Z</time>
</trkpt>
<trkpt lat="59.0998250" lon="29.9928340">
<ele>78.181198</ele>
<time>2026-04-22T23:29:18.997Z</time>
</trkpt>
<trkpt lat="59.0998010" lon="29.9928850">
<ele>80.680565</ele>
<time>2026-04-22T23:30:00.003Z</time>
</trkpt>
<trkpt lat="59.0998580" lon="29.9933870">
<ele>81.259682</ele>
<time>2026-04-22T23:32:54.997Z</time>
</trkpt>
<trkpt lat="59.0998370" lon="29.9933320">
<ele>78.668884</ele>
<time>2026-04-22T23:33:10.999Z</time>
</trkpt>
<trkpt lat="59.0998390" lon="29.9934910">
<ele>78.516479</ele>
<time>2026-04-22T23:33:40.997Z</time>
</trkpt>
<trkpt lat="59.0997990" lon="29.9934800">
<ele>79.065117</ele>
<time>2026-04-22T23:33:59.003Z</time>
</trkpt>
<trkpt lat="59.0997940" lon="29.9934240">
<ele>80.101433</ele>
<time>2026-04-22T23:34:18.002Z</time>
</trkpt>
<trkpt lat="59.0998460" lon="29.9935810">
<ele>80.589119</ele>
<time>2026-04-22T23:34:46.004Z</time>
</trkpt>
<trkpt lat="59.0998160" lon="29.9937760">
<ele>79.065117</ele>
<time>2026-04-22T23:35:06.999Z</time>
</trkpt>
<trkpt lat="59.0998480" lon="29.9937570">
<ele>76.230484</ele>
<time>2026-04-22T23:35:32.004Z</time>
</trkpt>
<trkpt lat="59.0998550" lon="29.9935740">
<ele>75.895203</ele>
<time>2026-04-22T23:40:06.004Z</time>
</trkpt>
<trkpt lat="59.0999140" lon="29.9937170">
<ele>74.127357</ele>
<time>2026-04-22T23:43:10.001Z</time>
</trkpt>
<trkpt lat="59.0997990" lon="29.9938740">
<ele>75.438004</ele>
<time>2026-04-22T23:43:44.000Z</time>
</trkpt>
<trkpt lat="59.0997030" lon="29.9941140">
<ele>76.961998</ele>
<time>2026-04-22T23:44:36.997Z</time>
</trkpt>
<trkpt lat="59.0996560" lon="29.9941550">
<ele>79.217522</ele>
<time>2026-04-22T23:46:16.997Z</time>
</trkpt>
<trkpt lat="59.0996610" lon="29.9942640">
<ele>80.131920</ele>
<time>2026-04-22T23:47:06.996Z</time>
</trkpt>
<trkpt lat="59.0998240" lon="29.9944000">
<ele>81.747360</ele>
<time>2026-04-22T23:47:32.001Z</time>
</trkpt>
<trkpt lat="59.0998500" lon="29.9945460">
<ele>81.198715</ele>
<time>2026-04-22T23:47:49.998Z</time>
</trkpt>
<trkpt lat="59.0999200" lon="29.9945340">
<ele>82.387436</ele>
<time>2026-04-22T23:48:07.001Z</time>
</trkpt>
<trkpt lat="59.0999360" lon="29.9945790">
<ele>83.210403</ele>
<time>2026-04-22T23:48:32.999Z</time>
</trkpt>
<trkpt lat="59.0999080" lon="29.9946170">
<ele>81.290161</ele>
<time>2026-04-22T23:48:45.000Z</time>
</trkpt>
<trkpt lat="59.0999270" lon="29.9945760">
<ele>86.136482</ele>
<time>2026-04-22T23:49:24.001Z</time>
</trkpt>
<trkpt lat="59.0999280" lon="29.9946380">
<ele>88.422485</ele>
<time>2026-04-22T23:50:12.998Z</time>
</trkpt>
<trkpt lat="59.1000670" lon="29.9948140">
<ele>86.319366</ele>
<time>2026-04-22T23:51:25.998Z</time>
</trkpt>
<trkpt lat="59.1001050" lon="29.9950490">
<ele>87.142319</ele>
<time>2026-04-22T23:51:47.002Z</time>
</trkpt>
<trkpt lat="59.1000820" lon="29.9951610">
<ele>87.599518</ele>
<time>2026-04-22T23:52:06.001Z</time>
</trkpt>
<trkpt lat="59.1001340" lon="29.9955180">
<ele>85.404961</ele>
<time>2026-04-22T23:52:42.004Z</time>
</trkpt>
<trkpt lat="59.1001220" lon="29.9959570">
<ele>84.642967</ele>
<time>2026-04-22T23:53:28.003Z</time>
</trkpt>
<trkpt lat="59.1001690" lon="29.9961160">
<ele>81.412079</ele>
<time>2026-04-22T23:53:47.003Z</time>
</trkpt>
<trkpt lat="59.1001730" lon="29.9962530">
<ele>79.369919</ele>
<time>2026-04-22T23:54:02.002Z</time>
</trkpt>
<trkpt lat="59.1001350" lon="29.9963180">
<ele>80.253838</ele>
<time>2026-04-22T23:54:26.004Z</time>
</trkpt>
<trkpt lat="59.1001460" lon="29.9963760">
<ele>79.949036</ele>
<time>2026-04-22T23:55:19.001Z</time>
</trkpt>
<trkpt lat="59.1001910" lon="29.9963610">
<ele>85.008720</ele>
<time>2026-04-22T23:56:40.001Z</time>
</trkpt>
<trkpt lat="59.1001630" lon="29.9963870">
<ele>84.673439</ele>
<time>2026-04-22T23:57:19.002Z</time>
</trkpt>
<trkpt lat="59.1002060" lon="29.9966020">
<ele>84.642967</ele>
<time>2026-04-22T23:57:51.998Z</time>
</trkpt>
<trkpt lat="59.1004090" lon="29.9969250">
<ele>83.667603</ele>
<time>2026-04-22T23:59:04.998Z</time>
</trkpt>
<trkpt lat="59.1004780" lon="29.9969360">
<ele>81.168236</ele>
<time>2026-04-22T23:59:20.999Z</time>
</trkpt>
<trkpt lat="59.1005780" lon="29.9970900">
<ele>77.144882</ele>
<time>2026-04-23T00:00:13.003Z</time>
</trkpt>
<trkpt lat="59.1006090" lon="29.9970440">
<ele>76.535278</ele>
<time>2026-04-23T00:00:44.997Z</time>
</trkpt>
<trkpt lat="59.1006480" lon="29.9970950">
<ele>76.870560</ele>
<time>2026-04-23T00:01:50.998Z</time>
</trkpt>
<trkpt lat="59.1005950" lon="29.9970720">
<ele>76.199997</ele>
<time>2026-04-23T00:02:47.003Z</time>
</trkpt>
<trkpt lat="59.1005950" lon="29.9971430">
<ele>76.352402</ele>
<time>2026-04-23T00:03:36.000Z</time>
</trkpt>
<trkpt lat="59.1005490" lon="29.9970300">
<ele>75.011284</ele>
<time>2026-04-23T00:03:50.999Z</time>
</trkpt>
<trkpt lat="59.1005830" lon="29.9969410">
<ele>76.413361</ele>
<time>2026-04-23T00:04:19.001Z</time>
</trkpt>
<trkpt lat="59.1005890" lon="29.9972860">
<ele>77.388718</ele>
<time>2026-04-23T00:05:06.003Z</time>
</trkpt>
<trkpt lat="59.1005240" lon="29.9979250">
<ele>84.063835</ele>
<time>2026-04-23T00:06:01.999Z</time>
</trkpt>
<trkpt lat="59.1005460" lon="29.9984050">
<ele>83.789520</ele>
<time>2026-04-23T00:06:43.004Z</time>
</trkpt>
<trkpt lat="59.1004720" lon="29.9987120">
<ele>81.594963</ele>
<time>2026-04-23T00:07:29.997Z</time>
</trkpt>
<trkpt lat="59.1004840" lon="29.9988010">
<ele>83.850479</ele>
<time>2026-04-23T00:08:14.001Z</time>
</trkpt>
<trkpt lat="59.1005500" lon="29.9988070">
<ele>89.245438</ele>
<time>2026-04-23T00:10:39.999Z</time>
</trkpt>
<trkpt lat="59.1005160" lon="29.9992100">
<ele>89.397835</ele>
<time>2026-04-23T00:11:09.004Z</time>
</trkpt>
<trkpt lat="59.1005690" lon="29.9996810">
<ele>90.891365</ele>
<time>2026-04-23T00:11:55.997Z</time>
</trkpt>
<trkpt lat="59.1005410" lon="29.9998390">
<ele>87.965279</ele>
<time>2026-04-23T00:12:14.003Z</time>
</trkpt>
<trkpt lat="59.1005710" lon="30.0001820">
<ele>87.355682</ele>
<time>2026-04-23T00:12:45.996Z</time>
</trkpt>
<trkpt lat="59.1006540" lon="30.0003460">
<ele>89.611198</ele>
<time>2026-04-23T00:12:59.000Z</time>
</trkpt>
<trkpt lat="59.1007310" lon="30.0006840">
<ele>87.660484</ele>
<time>2026-04-23T00:13:51.997Z</time>
</trkpt>
<trkpt lat="59.1007330" lon="30.0007750">
<ele>88.422485</ele>
<time>2026-04-23T00:15:00.003Z</time>
</trkpt>
<trkpt lat="59.1007040" lon="30.0008470">
<ele>88.148163</ele>
<time>2026-04-23T00:15:53.001Z</time>
</trkpt>
<trkpt lat="59.1007010" lon="30.0007610">
<ele>88.574883</ele>
<time>2026-04-23T00:16:18.998Z</time>
</trkpt>
<trkpt lat="59.1006450" lon="30.0008960">
<ele>86.837517</ele>
<time>2026-04-23T00:16:40.996Z</time>
</trkpt>
<trkpt lat="59.1006550" lon="30.0012840">
<ele>85.740234</ele>
<time>2026-04-23T00:17:06.000Z</time>
</trkpt>
<trkpt lat="59.1006130" lon="30.0014640">
<ele>87.355682</ele>
<time>2026-04-23T00:17:22.001Z</time>
</trkpt>
<trkpt lat="59.1005740" lon="30.0019590">
<ele>87.172798</ele>
<time>2026-04-23T00:18:17.004Z</time>
</trkpt>
<trkpt lat="59.1006020" lon="30.0021150">
<ele>86.319366</ele>
<time>2026-04-23T00:18:32.003Z</time>
</trkpt>
<trkpt lat="59.1009560" lon="30.0022840">
<ele>86.593681</ele>
<time>2026-04-23T00:19:22.002Z</time>
</trkpt>
<trkpt lat="59.1009940" lon="30.0024240">
<ele>86.867996</ele>
<time>2026-04-23T00:19:49.002Z</time>
</trkpt>
<trkpt lat="59.1009700" lon="30.0024740">
<ele>86.928963</ele>
<time>2026-04-23T00:20:13.998Z</time>
</trkpt>
<trkpt lat="59.1010110" lon="30.0024700">
<ele>88.026237</ele>
<time>2026-04-23T00:20:58.001Z</time>
</trkpt>
<trkpt lat="59.1010160" lon="30.0023510">
<ele>88.239601</ele>
<time>2026-04-23T00:21:30.004Z</time>
</trkpt>
<trkpt lat="59.1010710" lon="30.0025550">
<ele>92.842079</ele>
<time>2026-04-23T00:22:24.997Z</time>
</trkpt>
<trkpt lat="59.1010620" lon="30.0027630">
<ele>91.165680</ele>
<time>2026-04-23T00:22:43.997Z</time>
</trkpt>
<trkpt lat="59.1010120" lon="30.0028810">
<ele>86.532715</ele>
<time>2026-04-23T00:22:55.004Z</time>
</trkpt>
<trkpt lat="59.1010610" lon="30.0030110">
<ele>88.087196</ele>
<time>2026-04-23T00:23:10.003Z</time>
</trkpt>
<trkpt lat="59.1010960" lon="30.0032480">
<ele>86.959435</ele>
<time>2026-04-23T00:23:29.996Z</time>
</trkpt>
<trkpt lat="59.1010830" lon="30.0034210">
<ele>86.502235</ele>
<time>2026-04-23T00:23:47.000Z</time>
</trkpt>
<trkpt lat="59.1010730" lon="30.0033710">
<ele>85.984085</ele>
<time>2026-04-23T00:24:16.004Z</time>
</trkpt>
<trkpt lat="59.1011090" lon="30.0034310">
<ele>83.515198</ele>
<time>2026-04-23T00:25:37.998Z</time>
</trkpt>
<trkpt lat="59.1010640" lon="30.0034540">
<ele>83.606636</ele>
<time>2026-04-23T00:26:27.004Z</time>
</trkpt>
<trkpt lat="59.1010550" lon="30.0034110">
<ele>80.802483</ele>
<time>2026-04-23T00:27:10.999Z</time>
</trkpt>
<trkpt lat="59.1010560" lon="30.0034720">
<ele>81.351120</ele>
<time>2026-04-23T00:27:40.003Z</time>
</trkpt>
<trkpt lat="59.1007100" lon="30.0038860">
<ele>80.863434</ele>
<time>2026-04-23T00:28:42.997Z</time>
</trkpt>
<trkpt lat="59.1004950" lon="30.0038720">
<ele>80.467201</ele>
<time>2026-04-23T00:30:26.004Z</time>
</trkpt>
<trkpt lat="59.1005420" lon="30.0037630">
<ele>83.880966</ele>
<time>2026-04-23T00:32:21.002Z</time>
</trkpt>
<trkpt lat="59.1005540" lon="30.0039000">
<ele>82.326485</ele>
<time>2026-04-23T00:32:45.004Z</time>
</trkpt>
<trkpt lat="59.1005050" lon="30.0038400">
<ele>80.040482</ele>
<time>2026-04-23T00:33:24.998Z</time>
</trkpt>
<trkpt lat="59.1005970" lon="30.0033130">
<ele>79.644234</ele>
<time>2026-04-23T00:34:13.996Z</time>
</trkpt>
<trkpt lat="59.1005810" lon="30.0031410">
<ele>80.772003</ele>
<time>2026-04-23T00:34:33.004Z</time>
</trkpt>
<trkpt lat="59.1005190" lon="30.0029960">
<ele>80.619598</ele>
<time>2026-04-23T00:34:48.996Z</time>
</trkpt>
<trkpt lat="59.1003750" lon="30.0029420">
<ele>81.960716</ele>
<time>2026-04-23T00:35:19.003Z</time>
</trkpt>
<trkpt lat="59.1003980" lon="30.0026630">
<ele>82.417915</ele>
<time>2026-04-23T00:35:42.003Z</time>
</trkpt>
<trkpt lat="59.1003590" lon="30.0025440">
<ele>83.820000</ele>
<time>2026-04-23T00:35:56.000Z</time>
</trkpt>
<trkpt lat="59.1002680" lon="30.0025330">
<ele>80.528160</ele>
<time>2026-04-23T00:36:14.999Z</time>
</trkpt>
<trkpt lat="59.1002480" lon="30.0024760">
<ele>79.888084</ele>
<time>2026-04-23T00:36:33.998Z</time>
</trkpt>
<trkpt lat="59.1003550" lon="30.0021850">
<ele>79.735680</ele>
<time>2026-04-23T00:37:15.004Z</time>
</trkpt>
<trkpt lat="59.1004560" lon="30.0020810">
<ele>77.693520</ele>
<time>2026-04-23T00:37:30.996Z</time>
</trkpt>
<trkpt lat="59.1004750" lon="30.0019690">
<ele>84.521034</ele>
<time>2026-04-23T00:38:40.004Z</time>
</trkpt>
<trkpt lat="59.1004950" lon="30.0019920">
<ele>90.159836</ele>
<time>2026-04-23T00:40:08.996Z</time>
</trkpt>
<trkpt lat="59.1003220" lon="30.0012800">
<ele>93.878403</ele>
<time>2026-04-23T00:41:53.998Z</time>
</trkpt>
<trkpt lat="59.1001000" lon="30.0010460">
<ele>88.544403</ele>
<time>2026-04-23T00:42:28.999Z</time>
</trkpt>
<trkpt lat="59.1000900" lon="30.0006940">
<ele>88.635834</ele>
<time>2026-04-23T00:42:51.998Z</time>
</trkpt>
<trkpt lat="59.1001890" lon="30.0006600">
<ele>86.563202</ele>
<time>2026-04-23T00:43:41.998Z</time>
</trkpt>
<trkpt lat="59.1002140" lon="30.0005410">
<ele>86.288879</ele>
<time>2026-04-23T00:44:38.003Z</time>
</trkpt>
<trkpt lat="59.1001830" lon="30.0003790">
<ele>86.075516</ele>
<time>2026-04-23T00:45:48.004Z</time>
</trkpt>
<trkpt lat="59.1001550" lon="30.0004080">
<ele>87.782402</ele>
<time>2026-04-23T00:46:15.997Z</time>
</trkpt>
<trkpt lat="59.1001680" lon="30.0004430">
<ele>87.934799</ele>
<time>2026-04-23T00:47:11.000Z</time>
</trkpt>
<trkpt lat="59.1001520" lon="30.0000540">
<ele>87.934799</ele>
<time>2026-04-23T00:48:07.998Z</time>
</trkpt>
<trkpt lat="59.1000460" lon="29.9992050">
<ele>87.995766</ele>
<time>2026-04-23T00:49:44.999Z</time>
</trkpt>
<trkpt lat="59.1000640" lon="29.9987300">
<ele>88.087196</ele>
<time>2026-04-23T00:50:25.002Z</time>
</trkpt>
<trkpt lat="59.0999730" lon="29.9986920">
<ele>87.050880</ele>
<time>2026-04-23T00:50:41.004Z</time>
</trkpt>
<trkpt lat="59.0999600" lon="29.9986440">
<ele>85.404961</ele>
<time>2026-04-23T00:51:14.000Z</time>
</trkpt>
<trkpt lat="59.0999900" lon="29.9986310">
<ele>91.866714</ele>
<time>2026-04-23T00:53:43.999Z</time>
</trkpt>
<trkpt lat="59.0999720" lon="29.9983440">
<ele>89.916000</ele>
<time>2026-04-23T00:54:25.998Z</time>
</trkpt>
<trkpt lat="59.0999020" lon="29.9980970">
<ele>89.184479</ele>
<time>2026-04-23T00:55:04.999Z</time>
</trkpt>
<trkpt lat="59.0998530" lon="29.9972970">
<ele>86.502235</ele>
<time>2026-04-23T00:56:05.004Z</time>
</trkpt>
<trkpt lat="59.0998120" lon="29.9971800">
<ele>85.984085</ele>
<time>2026-04-23T00:56:20.996Z</time>
</trkpt>
<trkpt lat="59.0998520" lon="29.9971290">
<ele>86.593681</ele>
<time>2026-04-23T00:56:38.000Z</time>
</trkpt>
<trkpt lat="59.0998550" lon="29.9969590">
<ele>85.770721</ele>
<time>2026-04-23T00:57:34.004Z</time>
</trkpt>
<trkpt lat="59.0998360" lon="29.9971480">
<ele>85.100166</ele>
<time>2026-04-23T00:59:01.000Z</time>
</trkpt>
<trkpt lat="59.0997980" lon="29.9968720">
<ele>87.111839</ele>
<time>2026-04-23T00:59:42.999Z</time>
</trkpt>
<trkpt lat="59.0998440" lon="29.9965290">
<ele>85.191597</ele>
<time>2026-04-23T01:00:08.997Z</time>
</trkpt>
<trkpt lat="59.0997610" lon="29.9962830">
<ele>81.808319</ele>
<time>2026-04-23T01:00:31.003Z</time>
</trkpt>
<trkpt lat="59.0997440" lon="29.9959490">
<ele>79.766167</ele>
<time>2026-04-23T01:00:55.999Z</time>
</trkpt>
<trkpt lat="59.0996120" lon="29.9958770">
<ele>86.410797</ele>
<time>2026-04-23T01:01:56.004Z</time>
</trkpt>
<trkpt lat="59.0996720" lon="29.9958240">
<ele>85.984085</ele>
<time>2026-04-23T01:03:02.998Z</time>
</trkpt>
<trkpt lat="59.0996740" lon="29.9957540">
<ele>93.878403</ele>
<time>2026-04-23T01:04:18.002Z</time>
</trkpt>
<trkpt lat="59.0996200" lon="29.9957170">
<ele>91.775284</ele>
<time>2026-04-23T01:04:53.996Z</time>
</trkpt>
<trkpt lat="59.0994330" lon="29.9949770">
<ele>89.397835</ele>
<time>2026-04-23T01:05:56.999Z</time>
</trkpt>
<trkpt lat="59.0994550" lon="29.9945710">
<ele>86.624161</ele>
<time>2026-04-23T01:07:00.002Z</time>
</trkpt>
<trkpt lat="59.0995180" lon="29.9943170">
<ele>83.240883</ele>
<time>2026-04-23T01:10:29.004Z</time>
</trkpt>
<trkpt lat="59.0995250" lon="29.9943670">
<ele>86.136482</ele>
<time>2026-04-23T01:11:03.002Z</time>
</trkpt>
<trkpt lat="59.0994740" lon="29.9942950">
<ele>86.045036</ele>
<time>2026-04-23T01:12:08.001Z</time>
</trkpt>
<trkpt lat="59.0994230" lon="29.9939360">
<ele>82.814163</ele>
<time>2026-04-23T01:13:19.998Z</time>
</trkpt>
<trkpt lat="59.0994500" lon="29.9938890">
<ele>81.259682</ele>
<time>2026-04-23T01:13:39.999Z</time>
</trkpt>
<trkpt lat="59.0994590" lon="29.9939240">
<ele>78.364082</ele>
<time>2026-04-23T01:14:02.999Z</time>
</trkpt>
<trkpt lat="59.0994510" lon="29.9938250">
<ele>75.590401</ele>
<time>2026-04-23T01:14:24.996Z</time>
</trkpt>
<trkpt lat="59.0994390" lon="29.9938720">
<ele>73.883514</ele>
<time>2026-04-23T01:14:40.004Z</time>
</trkpt>
<trkpt lat="59.0993960" lon="29.9936440">
<ele>71.475601</ele>
<time>2026-04-23T01:15:19.999Z</time>
</trkpt>
<trkpt lat="59.0993250" lon="29.9935780">
<ele>72.511917</ele>
<time>2026-04-23T01:15:37.002Z</time>
</trkpt>
<trkpt lat="59.0993420" lon="29.9935610">
<ele>72.664322</ele>
<time>2026-04-23T01:15:59.000Z</time>
</trkpt>
<trkpt lat="59.0993050" lon="29.9933260">
<ele>72.207115</ele>
<time>2026-04-23T01:17:18.997Z</time>
</trkpt>
<trkpt lat="59.0992850" lon="29.9932960">
<ele>68.732399</ele>
<time>2026-04-23T01:18:12.004Z</time>
</trkpt>
<trkpt lat="59.0992690" lon="29.9933640">
<ele>67.635117</ele>
<time>2026-04-23T01:18:31.997Z</time>
</trkpt>
<trkpt lat="59.0992370" lon="29.9932850">
<ele>63.916557</ele>
<time>2026-04-23T01:18:55.999Z</time>
</trkpt>
<trkpt lat="59.0992610" lon="29.9932350">
<ele>67.482719</ele>
<time>2026-04-23T01:19:10.004Z</time>
</trkpt>
<trkpt lat="59.0992450" lon="29.9931800">
<ele>70.530716</ele>
<time>2026-04-23T01:19:36.002Z</time>
</trkpt>
<trkpt lat="59.0993150" lon="29.9930370">
<ele>70.500244</ele>
<time>2026-04-23T01:20:02.000Z</time>
</trkpt>
<trkpt lat="59.0993630" lon="29.9930640">
<ele>74.188316</ele>
<time>2026-04-23T01:22:19.998Z</time>
</trkpt>
<trkpt lat="59.0993220" lon="29.9930310">
<ele>71.841362</ele>
<time>2026-04-23T01:24:23.999Z</time>
</trkpt>
<trkpt lat="59.0993140" lon="29.9931140">
<ele>71.475601</ele>
<time>2026-04-23T01:24:42.998Z</time>
</trkpt>
<trkpt lat="59.0992080" lon="29.9931340">
<ele>71.871841</ele>
<time>2026-04-23T01:24:59.000Z</time>
</trkpt>
<trkpt lat="59.0990410" lon="29.9930910">
<ele>73.182480</ele>
<time>2026-04-23T01:25:31.996Z</time>
</trkpt>
<trkpt lat="59.0988300" lon="29.9932330">
<ele>74.828400</ele>
<time>2026-04-23T01:26:15.999Z</time>
</trkpt>
<trkpt lat="59.0987330" lon="29.9934330">
<ele>77.327759</ele>
<time>2026-04-23T01:27:49.000Z</time>
</trkpt>
<trkpt lat="59.0987430" lon="29.9935040">
<ele>78.181198</ele>
<time>2026-04-23T01:28:35.000Z</time>
</trkpt>
<trkpt lat="59.0986930" lon="29.9935010">
<ele>79.065117</ele>
<time>2026-04-23T01:29:29.000Z</time>
</trkpt>
<trkpt lat="59.0987970" lon="29.9935270">
<ele>78.028801</ele>
<time>2026-04-23T01:30:54.000Z</time>
</trkpt>
<trkpt lat="59.0988410" lon="29.9935910">
<ele>78.303116</ele>
<time>2026-04-23T01:31:25.000Z</time>
</trkpt>
<trkpt lat="59.0988130" lon="29.9936920">
<ele>77.693520</ele>
<time>2026-04-23T01:31:44.000Z</time>
</trkpt>
<trkpt lat="59.0988160" lon="29.9941400">
<ele>75.895203</ele>
<time>2026-04-23T01:32:23.001Z</time>
</trkpt>
<trkpt lat="59.0988690" lon="29.9943550">
<ele>76.108559</ele>
<time>2026-04-23T01:32:59.004Z</time>
</trkpt>
<trkpt lat="59.0988420" lon="29.9943340">
<ele>75.377045</ele>
<time>2026-04-23T01:33:19.999Z</time>
</trkpt>
<trkpt lat="59.0988250" lon="29.9944500">
<ele>74.858879</ele>
<time>2026-04-23T01:33:49.003Z</time>
</trkpt>
<trkpt lat="59.0989020" lon="29.9944830">
<ele>77.175362</ele>
<time>2026-04-23T01:34:34.000Z</time>
</trkpt>
<trkpt lat="59.0988790" lon="29.9945840">
<ele>78.760315</ele>
<time>2026-04-23T01:34:57.000Z</time>
</trkpt>
<trkpt lat="59.0989770" lon="29.9944190">
<ele>77.876404</ele>
<time>2026-04-23T01:35:48.002Z</time>
</trkpt>
<trkpt lat="59.0990470" lon="29.9946120">
<ele>79.065117</ele>
<time>2026-04-23T01:36:47.998Z</time>
</trkpt>
<trkpt lat="59.0990390" lon="29.9947380">
<ele>78.760315</ele>
<time>2026-04-23T01:37:22.999Z</time>
</trkpt>
<trkpt lat="59.0991470" lon="29.9948480">
<ele>79.766167</ele>
<time>2026-04-23T01:37:48.003Z</time>
</trkpt>
<trkpt lat="59.0990570" lon="29.9950970">
<ele>80.131920</ele>
<time>2026-04-23T01:38:12.998Z</time>
</trkpt>
<trkpt lat="59.0990650" lon="29.9952120">
<ele>77.205841</ele>
<time>2026-04-23T01:38:37.000Z</time>
</trkpt>
<trkpt lat="59.0990400" lon="29.9952410">
<ele>79.583282</ele>
<time>2026-04-23T01:39:01.996Z</time>
</trkpt>
<trkpt lat="59.0990680" lon="29.9952520">
<ele>78.516479</ele>
<time>2026-04-23T01:39:24.002Z</time>
</trkpt>
<trkpt lat="59.0990310" lon="29.9953420">
<ele>78.729836</ele>
<time>2026-04-23T01:40:06.001Z</time>
</trkpt>
<trkpt lat="59.0991460" lon="29.9955180">
<ele>75.712318</ele>
<time>2026-04-23T01:41:55.997Z</time>
</trkpt>
<trkpt lat="59.0991160" lon="29.9956900">
<ele>75.651360</ele>
<time>2026-04-23T01:42:07.004Z</time>
</trkpt>
<trkpt lat="59.0992400" lon="29.9962280">
<ele>80.680565</ele>
<time>2026-04-23T01:42:56.002Z</time>
</trkpt>
<trkpt lat="59.0991940" lon="29.9964420">
<ele>80.345284</ele>
<time>2026-04-23T01:43:11.001Z</time>
</trkpt>
<trkpt lat="59.0992240" lon="29.9966300">
<ele>79.461365</ele>
<time>2026-04-23T01:43:31.002Z</time>
</trkpt>
<trkpt lat="59.0992050" lon="29.9968520">
<ele>79.888084</ele>
<time>2026-04-23T01:43:51.997Z</time>
</trkpt>
<trkpt lat="59.0992920" lon="29.9969930">
<ele>80.253838</ele>
<time>2026-04-23T01:44:05.001Z</time>
</trkpt>
<trkpt lat="59.0992700" lon="29.9971640">
<ele>78.242165</ele>
<time>2026-04-23T01:45:54.996Z</time>
</trkpt>
<trkpt lat="59.0993040" lon="29.9971270">
<ele>80.802483</ele>
<time>2026-04-23T01:47:15.003Z</time>
</trkpt>
<trkpt lat="59.0992710" lon="29.9970200">
<ele>77.967842</ele>
<time>2026-04-23T01:48:40.997Z</time>
</trkpt>
<trkpt lat="59.0992190" lon="29.9970200">
<ele>82.113121</ele>
<time>2026-04-23T01:53:09.001Z</time>
</trkpt>
<trkpt lat="59.0992250" lon="29.9969260">
<ele>79.339439</ele>
<time>2026-04-23T01:53:40.001Z</time>
</trkpt>
<trkpt lat="59.0992460" lon="29.9969750">
<ele>82.082634</ele>
<time>2026-04-23T01:54:01.999Z</time>
</trkpt>
<trkpt lat="59.0992500" lon="29.9969270">
<ele>78.821281</ele>
<time>2026-04-23T01:54:31.997Z</time>
</trkpt>
<trkpt lat="59.0992500" lon="29.9970020">
<ele>72.664322</ele>
<time>2026-04-23T01:55:29.997Z</time>
</trkpt>
<trkpt lat="59.0994050" lon="29.9972130">
<ele>78.699364</ele>
<time>2026-04-23T01:56:27.004Z</time>
</trkpt>
<trkpt lat="59.0993880" lon="29.9973100">
<ele>75.773285</ele>
<time>2026-04-23T01:56:43.999Z</time>
</trkpt>
<trkpt lat="59.0995050" lon="29.9976850">
<ele>76.047600</ele>
<time>2026-04-23T01:57:17.004Z</time>
</trkpt>
<trkpt lat="59.0994250" lon="29.9977570">
<ele>80.924400</ele>
<time>2026-04-23T01:59:05.997Z</time>
</trkpt>
<trkpt lat="59.0994910" lon="29.9979400">
<ele>79.339439</ele>
<time>2026-04-23T02:00:48.001Z</time>
</trkpt>
<trkpt lat="59.0995200" lon="29.9981150">
<ele>78.882233</ele>
<time>2026-04-23T02:01:01.004Z</time>
</trkpt>
<trkpt lat="59.0995060" lon="29.9983120">
<ele>80.253838</ele>
<time>2026-04-23T02:01:12.996Z</time>
</trkpt>
<trkpt lat="59.0994360" lon="29.9986610">
<ele>75.163681</ele>
<time>2026-04-23T02:01:47.004Z</time>
</trkpt>
<trkpt lat="59.0993830" lon="29.9987150">
<ele>77.083916</ele>
<time>2026-04-23T02:02:14.997Z</time>
</trkpt>
<trkpt lat="59.0993560" lon="29.9986630">
<ele>81.686401</ele>
<time>2026-04-23T02:02:55.000Z</time>
</trkpt>
<trkpt lat="59.0993560" lon="29.9987770">
<ele>86.715599</ele>
<time>2026-04-23T02:06:21.997Z</time>
</trkpt>
<trkpt lat="59.0993630" lon="29.9986810">
<ele>85.496399</ele>
<time>2026-04-23T02:08:47.996Z</time>
</trkpt>
<trkpt lat="59.0993830" lon="29.9986860">
<ele>81.808319</ele>
<time>2026-04-23T02:10:12.996Z</time>
</trkpt>
<trkpt lat="59.0993490" lon="29.9988390">
<ele>82.783684</ele>
<time>2026-04-23T02:12:11.002Z</time>
</trkpt>
<trkpt lat="59.0993490" lon="29.9988050">
<ele>81.198715</ele>
<time>2026-04-23T02:12:35.997Z</time>
</trkpt>
<trkpt lat="59.0993760" lon="29.9988300">
<ele>82.113121</ele>
<time>2026-04-23T02:12:51.998Z</time>
</trkpt>
<trkpt lat="59.0993860" lon="29.9986360">
<ele>83.088478</ele>
<time>2026-04-23T02:13:36.002Z</time>
</trkpt>
<trkpt lat="59.0993980" lon="29.9986820">
<ele>81.808319</ele>
<time>2026-04-23T02:14:03.002Z</time>
</trkpt>
<trkpt lat="59.0993650" lon="29.9988250">
<ele>79.248001</ele>
<time>2026-04-23T02:14:43.999Z</time>
</trkpt>
<trkpt lat="59.0993560" lon="29.9987500">
<ele>79.278481</ele>
<time>2026-04-23T02:15:43.001Z</time>
</trkpt>
<trkpt lat="59.0993890" lon="29.9987700">
<ele>81.381599</ele>
<time>2026-04-23T02:16:49.002Z</time>
</trkpt>
<trkpt lat="59.0993760" lon="29.9988120">
<ele>78.607918</ele>
<time>2026-04-23T02:17:17.998Z</time>
</trkpt>
<trkpt lat="59.0994310" lon="29.9988770">
<ele>80.010002</ele>
<time>2026-04-23T02:17:59.997Z</time>
</trkpt>
<trkpt lat="59.0996050" lon="29.9992860">
<ele>80.375763</ele>
<time>2026-04-23T02:19:26.000Z</time>
</trkpt>
<trkpt lat="59.0997580" lon="29.9999340">
<ele>83.454239</ele>
<time>2026-04-23T02:20:03.998Z</time>
</trkpt>
<trkpt lat="59.0996790" lon="30.0000770">
<ele>85.679283</ele>
<time>2026-04-23T02:20:18.004Z</time>
</trkpt>
<trkpt lat="59.0996750" lon="30.0002150">
<ele>84.094315</ele>
<time>2026-04-23T02:20:47.000Z</time>
</trkpt>
<trkpt lat="59.0996770" lon="30.0001780">
<ele>86.563202</ele>
<time>2026-04-23T02:21:28.999Z</time>
</trkpt>
<trkpt lat="59.0997270" lon="30.0001700">
<ele>86.959435</ele>
<time>2026-04-23T02:22:06.004Z</time>
</trkpt>
<trkpt lat="59.0997120" lon="30.0003780">
<ele>86.837517</ele>
<time>2026-04-23T02:22:53.999Z</time>
</trkpt>
<trkpt lat="59.0998770" lon="30.0009940">
<ele>87.355682</ele>
<time>2026-04-23T02:23:46.997Z</time>
</trkpt>
<trkpt lat="59.0998840" lon="30.0011840">
<ele>86.471764</ele>
<time>2026-04-23T02:24:06.998Z</time>
</trkpt>
<trkpt lat="59.0997080" lon="30.0017060">
<ele>87.325203</ele>
<time>2026-04-23T02:25:03.003Z</time>
</trkpt>
<trkpt lat="59.0997360" lon="30.0019170">
<ele>86.928963</ele>
<time>2026-04-23T02:25:21.000Z</time>
</trkpt>
<trkpt lat="59.0999180" lon="30.0019570">
<ele>86.532715</ele>
<time>2026-04-23T02:25:38.997Z</time>
</trkpt>
<trkpt lat="59.1000040" lon="30.0020970">
<ele>86.654633</ele>
<time>2026-04-23T02:26:36.997Z</time>
</trkpt>
<trkpt lat="59.0999760" lon="30.0020490">
<ele>84.825836</ele>
<time>2026-04-23T02:28:05.998Z</time>
</trkpt>
<trkpt lat="59.1000100" lon="30.0021440">
<ele>85.709763</ele>
<time>2026-04-23T02:28:39.003Z</time>
</trkpt>
<trkpt lat="59.0999800" lon="30.0022470">
<ele>84.521034</ele>
<time>2026-04-23T02:28:59.998Z</time>
</trkpt>
<trkpt lat="59.1000030" lon="30.0024300">
<ele>84.033363</ele>
<time>2026-04-23T02:29:21.002Z</time>
</trkpt>
<trkpt lat="59.0999720" lon="30.0027170">
<ele>85.801201</ele>
<time>2026-04-23T02:29:51.000Z</time>
</trkpt>
<trkpt lat="59.1000070" lon="30.0029820">
<ele>86.441284</ele>
<time>2026-04-23T02:30:08.004Z</time>
</trkpt>
<trkpt lat="59.1000660" lon="30.0030930">
<ele>86.563202</ele>
<time>2026-04-23T02:30:26.001Z</time>
</trkpt>
<trkpt lat="59.1001770" lon="30.0034930">
<ele>86.624161</ele>
<time>2026-04-23T02:30:47.998Z</time>
</trkpt>
<trkpt lat="59.1001520" lon="30.0037270">
<ele>85.953598</ele>
<time>2026-04-23T02:31:06.997Z</time>
</trkpt>
<trkpt lat="59.1001170" lon="30.0037840">
<ele>84.551521</ele>
<time>2026-04-23T02:31:13.002Z</time>
</trkpt>
<trkpt lat="59.1001160" lon="30.0041630">
<ele>82.417915</ele>
<time>2026-04-23T02:31:41.998Z</time>
</trkpt>
<trkpt lat="59.0999940" lon="30.0040230">
<ele>80.040482</ele>
<time>2026-04-23T02:34:52.000Z</time>
</trkpt>
<trkpt lat="59.0995700" lon="30.0041420">
<ele>76.017120</ele>
<time>2026-04-23T02:35:48.998Z</time>
</trkpt>
<trkpt lat="59.0995240" lon="30.0043860">
<ele>82.539833</ele>
<time>2026-04-23T02:36:56.002Z</time>
</trkpt>
<trkpt lat="59.0995590" lon="30.0042980">
<ele>82.875114</ele>
<time>2026-04-23T02:38:22.004Z</time>
</trkpt>
<trkpt lat="59.0995510" lon="30.0041480">
<ele>82.875114</ele>
<time>2026-04-23T02:38:55.000Z</time>
</trkpt>
<trkpt lat="59.0994930" lon="30.0037950">
<ele>82.753197</ele>
<time>2026-04-23T02:39:19.996Z</time>
</trkpt>
<trkpt lat="59.0994200" lon="30.0029360">
<ele>89.367363</ele>
<time>2026-04-23T02:40:36.002Z</time>
</trkpt>
<trkpt lat="59.0994250" lon="30.0026230">
<ele>88.605362</ele>
<time>2026-04-23T02:40:56.004Z</time>
</trkpt>
<trkpt lat="59.0995550" lon="30.0023740">
<ele>88.513916</ele>
<time>2026-04-23T02:42:43.001Z</time>
</trkpt>
<trkpt lat="59.0995160" lon="30.0023890">
<ele>87.995766</ele>
<time>2026-04-23T02:43:25.000Z</time>
</trkpt>
<trkpt lat="59.0995460" lon="30.0021880">
<ele>88.788239</ele>
<time>2026-04-23T02:44:01.003Z</time>
</trkpt>
<trkpt lat="59.0995470" lon="30.0017130">
<ele>90.037918</ele>
<time>2026-04-23T02:44:29.999Z</time>
</trkpt>
<trkpt lat="59.0994420" lon="30.0015990">
<ele>89.123520</ele>
<time>2026-04-23T02:44:40.998Z</time>
</trkpt>
<trkpt lat="59.0993050" lon="30.0013360">
<ele>87.325203</ele>
<time>2026-04-23T02:45:05.000Z</time>
</trkpt>
<trkpt lat="59.0992890" lon="30.0011140">
<ele>88.148163</ele>
<time>2026-04-23T02:45:18.003Z</time>
</trkpt>
<trkpt lat="59.0991570" lon="30.0009370">
<ele>86.136482</ele>
<time>2026-04-23T02:45:49.003Z</time>
</trkpt>
<trkpt lat="59.0990160" lon="30.0003540">
<ele>90.860886</ele>
<time>2026-04-23T02:48:22.000Z</time>
</trkpt>
<trkpt lat="59.0989830" lon="30.0000830">
<ele>90.708481</ele>
<time>2026-04-23T02:48:36.999Z</time>
</trkpt>
<trkpt lat="59.0989950" lon="29.9998500">
<ele>91.257118</ele>
<time>2026-04-23T02:48:49.000Z</time>
</trkpt>
<trkpt lat="59.0988330" lon="29.9997440">
<ele>88.270081</ele>
<time>2026-04-23T02:49:13.002Z</time>
</trkpt>
<trkpt lat="59.0988770" lon="29.9995130">
<ele>87.995766</ele>
<time>2026-04-23T02:49:29.004Z</time>
</trkpt>
<trkpt lat="59.0988240" lon="29.9991830">
<ele>86.959435</ele>
<time>2026-04-23T02:49:59.002Z</time>
</trkpt>
<trkpt lat="59.0989010" lon="29.9991470">
<ele>88.727280</ele>
<time>2026-04-23T02:50:11.003Z</time>
</trkpt>
<trkpt lat="59.0988490" lon="29.9990400">
<ele>84.063835</ele>
<time>2026-04-23T02:51:08.001Z</time>
</trkpt>
<trkpt lat="59.0988830" lon="29.9990710">
<ele>86.441284</ele>
<time>2026-04-23T02:52:30.996Z</time>
</trkpt>
<trkpt lat="59.0988590" lon="29.9990050">
<ele>86.776566</ele>
<time>2026-04-23T02:52:52.000Z</time>
</trkpt>
<trkpt lat="59.0988780" lon="29.9988080">
<ele>87.325203</ele>
<time>2026-04-23T02:53:09.997Z</time>
</trkpt>
<trkpt lat="59.0987730" lon="29.9985540">
<ele>86.593681</ele>
<time>2026-04-23T02:53:32.004Z</time>
</trkpt>
<trkpt lat="59.0987530" lon="29.9982670">
<ele>86.563202</ele>
<time>2026-04-23T02:54:00.999Z</time>
</trkpt>
<trkpt lat="59.0987170" lon="29.9983360">
<ele>86.563202</ele>
<time>2026-04-23T02:54:18.003Z</time>
</trkpt>
<trkpt lat="59.0987120" lon="29.9982190">
<ele>85.923119</ele>
<time>2026-04-23T02:54:49.003Z</time>
</trkpt>
<trkpt lat="59.0986190" lon="29.9980320">
<ele>87.782402</ele>
<time>2026-04-23T02:55:40.999Z</time>
</trkpt>
<trkpt lat="59.0986880" lon="29.9978270">
<ele>80.619598</ele>
<time>2026-04-23T02:57:27.003Z</time>
</trkpt>
<trkpt lat="59.0987110" lon="29.9972630">
<ele>78.577438</ele>
<time>2026-04-23T02:58:56.004Z</time>
</trkpt>
<trkpt lat="59.0987770" lon="29.9972320">
<ele>80.954880</ele>
<time>2026-04-23T03:00:06.998Z</time>
</trkpt>
<trkpt lat="59.0987520" lon="29.9971890">
<ele>83.240883</ele>
<time>2026-04-23T03:00:59.996Z</time>
</trkpt>
<trkpt lat="59.0987720" lon="29.9971800">
<ele>82.600800</ele>
<time>2026-04-23T03:01:34.997Z</time>
</trkpt>
<trkpt lat="59.0987320" lon="29.9968630">
<ele>82.417915</ele>
<time>2026-04-23T03:02:12.002Z</time>
</trkpt>
<trkpt lat="59.0987430" lon="29.9964710">
<ele>82.143600</ele>
<time>2026-04-23T03:02:32.997Z</time>
</trkpt>
<trkpt lat="59.0987060" lon="29.9960880">
<ele>83.271362</ele>
<time>2026-04-23T03:02:51.996Z</time>
</trkpt>
<trkpt lat="59.0986340" lon="29.9960900">
<ele>81.533997</ele>
<time>2026-04-23T03:03:07.998Z</time>
</trkpt>
<trkpt lat="59.0985570" lon="29.9963420">
<ele>81.015839</ele>
<time>2026-04-23T03:03:36.000Z</time>
</trkpt>
<trkpt lat="59.0985070" lon="29.9962830">
<ele>81.168236</ele>
<time>2026-04-23T03:03:57.004Z</time>
</trkpt>
<trkpt lat="59.0984950" lon="29.9961310">
<ele>80.832962</ele>
<time>2026-04-23T03:04:16.997Z</time>
</trkpt>
<trkpt lat="59.0985230" lon="29.9961380">
<ele>80.528160</ele>
<time>2026-04-23T03:04:39.003Z</time>
</trkpt>
<trkpt lat="59.0984840" lon="29.9959550">
<ele>80.223366</ele>
<time>2026-04-23T03:05:07.999Z</time>
</trkpt>
<trkpt lat="59.0983160" lon="29.9955310">
<ele>80.345284</ele>
<time>2026-04-23T03:06:31.003Z</time>
</trkpt>
<trkpt lat="59.0983200" lon="29.9954420">
<ele>89.794083</ele>
<time>2026-04-23T03:08:23.004Z</time>
</trkpt>
<trkpt lat="59.0982730" lon="29.9954970">
<ele>88.910164</ele>
<time>2026-04-23T03:08:58.004Z</time>
</trkpt>
<trkpt lat="59.0982710" lon="29.9953450">
<ele>86.471764</ele>
<time>2026-04-23T03:09:25.004Z</time>
</trkpt>
<trkpt lat="59.0981980" lon="29.9953060">
<ele>85.344002</ele>
<time>2026-04-23T03:10:14.002Z</time>
</trkpt>
<trkpt lat="59.0982260" lon="29.9949990">
<ele>84.277199</ele>
<time>2026-04-23T03:10:38.004Z</time>
</trkpt>
<trkpt lat="59.0983080" lon="29.9946050">
<ele>83.576164</ele>
<time>2026-04-23T03:11:27.001Z</time>
</trkpt>
<trkpt lat="59.0983080" lon="29.9944360">
<ele>83.880966</ele>
<time>2026-04-23T03:11:47.003Z</time>
</trkpt>
<trkpt lat="59.0982220" lon="29.9940030">
<ele>83.576164</ele>
<time>2026-04-23T03:12:50.999Z</time>
</trkpt>
<trkpt lat="59.0982560" lon="29.9938740">
<ele>83.210403</ele>
<time>2026-04-23T03:13:19.001Z</time>
</trkpt>
<trkpt lat="59.0983150" lon="29.9938110">
<ele>81.594963</ele>
<time>2026-04-23T03:13:31.002Z</time>
</trkpt>
<trkpt lat="59.0983530" lon="29.9936370">
<ele>82.143600</ele>
<time>2026-04-23T03:13:58.002Z</time>
</trkpt>
<trkpt lat="59.0983510" lon="29.9934360">
<ele>79.766167</ele>
<time>2026-04-23T03:14:26.998Z</time>
</trkpt>
<trkpt lat="59.0982760" lon="29.9933160">
<ele>78.729836</ele>
<time>2026-04-23T03:14:49.998Z</time>
</trkpt>
<trkpt lat="59.0982200" lon="29.9934220">
<ele>78.364082</ele>
<time>2026-04-23T03:15:00.996Z</time>
</trkpt>
<trkpt lat="59.0981510" lon="29.9934110">
<ele>76.291443</ele>
<time>2026-04-23T03:16:44.003Z</time>
</trkpt>
<trkpt lat="59.0981350" lon="29.9932580">
<ele>78.760315</ele>
<time>2026-04-23T03:18:13.003Z</time>
</trkpt>
<trkpt lat="59.0981890" lon="29.9929110">
<ele>76.443840</ele>
<time>2026-04-23T03:19:26.996Z</time>
</trkpt>
<trkpt lat="59.0980860" lon="29.9925840">
<ele>68.366638</ele>
<time>2026-04-23T03:20:16.996Z</time>
</trkpt>
<trkpt lat="59.0980370" lon="29.9925320">
<ele>68.153282</ele>
<time>2026-04-23T03:20:31.001Z</time>
</trkpt>
<trkpt lat="59.0980460" lon="29.9923820">
<ele>68.580002</ele>
<time>2026-04-23T03:20:43.996Z</time>
</trkpt>
<trkpt lat="59.0980080" lon="29.9922050">
<ele>70.378319</ele>
<time>2026-04-23T03:21:23.999Z</time>
</trkpt>
<trkpt lat="59.0980280" lon="29.9919890">
<ele>73.091042</ele>
<time>2026-04-23T03:21:45.003Z</time>
</trkpt>
<trkpt lat="59.0979970" lon="29.9919310">
<ele>72.999603</ele>
<time>2026-04-23T03:22:03.000Z</time>
</trkpt>
<trkpt lat="59.0980330" lon="29.9918450">
<ele>72.633842</ele>
<time>2026-04-23T03:22:20.004Z</time>
</trkpt>
<trkpt lat="59.0980240" lon="29.9916680">
<ele>75.803757</ele>
<time>2026-04-23T03:23:41.004Z</time>
</trkpt>
<trkpt lat="59.0980600" lon="29.9916750">
<ele>74.584557</ele>
<time>2026-04-23T03:25:33.004Z</time>
</trkpt>
<trkpt lat="59.0980210" lon="29.9915940">
<ele>74.858879</ele>
<time>2026-04-23T03:25:55.001Z</time>
</trkpt>
<trkpt lat="59.0979050" lon="29.9909980">
<ele>75.346558</ele>
<time>2026-04-23T03:26:43.999Z</time>
</trkpt>
<trkpt lat="59.0979070" lon="29.9907220">
<ele>76.870560</ele>
<time>2026-04-23T03:26:56.000Z</time>
</trkpt>
<trkpt lat="59.0978100" lon="29.9905210">
<ele>76.260956</ele>
<time>2026-04-23T03:27:29.998Z</time>
</trkpt>
<trkpt lat="59.0977060" lon="29.9901360">
<ele>75.255119</ele>
<time>2026-04-23T03:29:52.999Z</time>
</trkpt>
<trkpt lat="59.0976860" lon="29.9898930">
<ele>76.931519</ele>
<time>2026-04-23T03:30:05.000Z</time>
</trkpt>
<trkpt lat="59.0977130" lon="29.9898700">
<ele>81.594963</ele>
<time>2026-04-23T03:32:07.999Z</time>
</trkpt>
<trkpt lat="59.0977280" lon="29.9896750">
<ele>81.564484</ele>
<time>2026-04-23T03:32:22.004Z</time>
</trkpt>
<trkpt lat="59.0976560" lon="29.9895260">
<ele>76.017120</ele>
<time>2026-04-23T03:32:53.998Z</time>
</trkpt>
<trkpt lat="59.0975880" lon="29.9892590">
<ele>74.127357</ele>
<time>2026-04-23T03:33:26.001Z</time>
</trkpt>
<trkpt lat="59.0976180" lon="29.9892530">
<ele>77.236320</ele>
<time>2026-04-23T03:33:43.998Z</time>
</trkpt>
<trkpt lat="59.0976790" lon="29.9890530">
<ele>79.065117</ele>
<time>2026-04-23T03:34:10.004Z</time>
</trkpt>
<trkpt lat="59.0977100" lon="29.9887210">
<ele>79.004166</ele>
<time>2026-04-23T03:35:12.998Z</time>
</trkpt>
<trkpt lat="59.0976700" lon="29.9885920">
<ele>78.760315</ele>
<time>2026-04-23T03:35:30.002Z</time>
</trkpt>
<trkpt lat="59.0975550" lon="29.9885170">
<ele>76.718163</ele>
<time>2026-04-23T03:35:43.999Z</time>
</trkpt>
<trkpt lat="59.0975150" lon="29.9883210">
<ele>78.364082</ele>
<time>2026-04-23T03:36:01.996Z</time>
</trkpt>
<trkpt lat="59.0974110" lon="29.9882050">
<ele>78.943199</ele>
<time>2026-04-23T03:36:50.000Z</time>
</trkpt>
<trkpt lat="59.0973930" lon="29.9882360">
<ele>79.552803</ele>
<time>2026-04-23T03:38:29.999Z</time>
</trkpt>
<trkpt lat="59.0973750" lon="29.9879970">
<ele>80.741516</ele>
<time>2026-04-23T03:39:25.001Z</time>
</trkpt>
<trkpt lat="59.0972490" lon="29.9877720">
<ele>80.253838</ele>
<time>2026-04-23T03:39:41.003Z</time>
</trkpt>
<trkpt lat="59.0972900" lon="29.9876440">
<ele>80.192879</ele>
<time>2026-04-23T03:39:53.004Z</time>
</trkpt>
<trkpt lat="59.0972350" lon="29.9876080">
<ele>78.943199</ele>
<time>2026-04-23T03:40:30.000Z</time>
</trkpt>
<trkpt lat="59.0972340" lon="29.9872080">
<ele>78.607918</ele>
<time>2026-04-23T03:40:58.996Z</time>
</trkpt>
<trkpt lat="59.0971830" lon="29.9867070">
<ele>81.564484</ele>
<time>2026-04-23T03:41:25.996Z</time>
</trkpt>
<trkpt lat="59.0972850" lon="29.9866790">
<ele>79.278481</ele>
<time>2026-04-23T03:42:31.997Z</time>
</trkpt>
<trkpt lat="59.0972520" lon="29.9865460">
<ele>78.150719</ele>
<time>2026-04-23T03:44:38.003Z</time>
</trkpt>
<trkpt lat="59.0972860" lon="29.9862550">
<ele>77.693520</ele>
<time>2026-04-23T03:44:58.004Z</time>
</trkpt>
<trkpt lat="59.0972830" lon="29.9858610">
<ele>78.790802</ele>
<time>2026-04-23T03:45:17.997Z</time>
</trkpt>
<trkpt lat="59.0972290" lon="29.9857200">
<ele>79.400398</ele>
<time>2026-04-23T03:45:32.996Z</time>
</trkpt>
<trkpt lat="59.0972750" lon="29.9856460">
<ele>79.187035</ele>
<time>2026-04-23T03:46:19.998Z</time>
</trkpt>
<trkpt lat="59.0973320" lon="29.9853280">
<ele>79.400398</ele>
<time>2026-04-23T03:46:42.004Z</time>
</trkpt>
<trkpt lat="59.0972560" lon="29.9852810">
<ele>79.491837</ele>
<time>2026-04-23T03:47:01.997Z</time>
</trkpt>
<trkpt lat="59.0971290" lon="29.9853750">
<ele>77.815437</ele>
<time>2026-04-23T03:47:20.996Z</time>
</trkpt>
<trkpt lat="59.0970350" lon="29.9847990">
<ele>78.790802</ele>
<time>2026-04-23T03:48:38.998Z</time>
</trkpt>
<trkpt lat="59.0970080" lon="29.9840130">
<ele>76.596237</ele>
<time>2026-04-23T03:51:43.004Z</time>
</trkpt>
<trkpt lat="59.0968790" lon="29.9833590">
<ele>75.590401</ele>
<time>2026-04-23T03:52:33.004Z</time>
</trkpt>
<trkpt lat="59.0969300" lon="29.9832210">
<ele>75.346558</ele>
<time>2026-04-23T03:52:48.996Z</time>
</trkpt>
<trkpt lat="59.0968370" lon="29.9827870">
<ele>73.700638</ele>
<time>2026-04-23T03:54:01.996Z</time>
</trkpt>
<trkpt lat="59.0967820" lon="29.9827450">
<ele>71.719444</ele>
<time>2026-04-23T03:54:39.001Z</time>
</trkpt>
<trkpt lat="59.0968180" lon="29.9827660">
<ele>74.493118</ele>
<time>2026-04-23T03:55:14.002Z</time>
</trkpt>
<trkpt lat="59.0968150" lon="29.9826240">
<ele>74.340721</ele>
<time>2026-04-23T03:55:38.004Z</time>
</trkpt>
<trkpt lat="59.0967270" lon="29.9823730">
<ele>73.761597</ele>
<time>2026-04-23T03:56:00.001Z</time>
</trkpt>
<trkpt lat="59.0967690" lon="29.9819360">
<ele>73.761597</ele>
<time>2026-04-23T03:56:16.002Z</time>
</trkpt>
<trkpt lat="59.0968920" lon="29.9816860">
<ele>72.207115</ele>
<time>2026-04-23T03:56:55.997Z</time>
</trkpt>
<trkpt lat="59.0970680" lon="29.9815370">
<ele>72.329041</ele>
<time>2026-04-23T03:57:10.996Z</time>
</trkpt>
<trkpt lat="59.0970430" lon="29.9798700">
<ele>75.956161</ele>
<time>2026-04-23T03:58:28.004Z</time>
</trkpt>
<trkpt lat="59.0970610" lon="29.9797010">
<ele>76.779121</ele>
<time>2026-04-23T03:58:34.000Z</time>
</trkpt>
<trkpt lat="59.0971790" lon="29.9796950">
<ele>76.382881</ele>
<time>2026-04-23T03:58:50.002Z</time>
</trkpt>
<trkpt lat="59.0970010" lon="29.9798000">
<ele>76.504799</ele>
<time>2026-04-23T03:59:03.998Z</time>
</trkpt>
<trkpt lat="59.0968010" lon="29.9797770">
<ele>76.504799</ele>
<time>2026-04-23T03:59:21.002Z</time>
</trkpt>
<trkpt lat="59.0967500" lon="29.9794740">
<ele>76.169518</ele>
<time>2026-04-23T03:59:36.001Z</time>
</trkpt>
<trkpt lat="59.0967570" lon="29.9793370">
<ele>77.388718</ele>
<time>2026-04-23T03:59:41.004Z</time>
</trkpt>
<trkpt lat="59.0968250" lon="29.9786350">
<ele>75.498962</ele>
<time>2026-04-23T04:00:12.004Z</time>
</trkpt>
<trkpt lat="59.0968550" lon="29.9784410">
<ele>74.858879</ele>
<time>2026-04-23T04:00:23.996Z</time>
</trkpt>
<trkpt lat="59.0969060" lon="29.9783850">
<ele>74.676003</ele>
<time>2026-04-23T04:00:30.001Z</time>
</trkpt>
<trkpt lat="59.0974700" lon="29.9785670">
<ele>75.986641</ele>
<time>2026-04-23T04:01:14.998Z</time>
</trkpt>
<trkpt lat="59.0977450" lon="29.9787230">
<ele>76.169518</ele>
<time>2026-04-23T04:01:40.002Z</time>
</trkpt>
<trkpt lat="59.0980400" lon="29.9787520">
<ele>75.498962</ele>
<time>2026-04-23T04:02:03.002Z</time>
</trkpt>
<trkpt lat="59.0990070" lon="29.9791080">
<ele>72.542397</ele>
<time>2026-04-23T04:03:23.000Z</time>
</trkpt>
<trkpt lat="59.0991600" lon="29.9790970">
<ele>72.329041</ele>
<time>2026-04-23T04:03:33.998Z</time>
</trkpt>
<trkpt lat="59.1019110" lon="29.9799800">
<ele>71.231758</ele>
<time>2026-04-23T04:07:13.999Z</time>
</trkpt>
<trkpt lat="59.1019990" lon="29.9799150">
<ele>71.292717</ele>
<time>2026-04-23T04:07:20.997Z</time>
</trkpt>
<trkpt lat="59.1020740" lon="29.9794940">
<ele>73.060562</ele>
<time>2026-04-23T04:07:38.001Z</time>
</trkpt>
<trkpt lat="59.1021610" lon="29.9783660">
<ele>75.803757</ele>
<time>2026-04-23T04:08:47.000Z</time>
</trkpt>
</trkseg>
</trk>
<trk>
 <name>20260423_Lisa70</name>
 <desc>20260423_Lisa70</desc>
<trkseg>
<trkpt lat="59.1020830" lon="29.9783110">
<ele>71.140320</ele>
<time>2026-04-22T21:18:28.996Z</time>
</trkpt>
<trkpt lat="59.1020800" lon="29.9782620">
<ele>73.304398</ele>
<time>2026-04-22T21:18:58.000Z</time>
</trkpt>
<trkpt lat="59.1020020" lon="29.9782860">
<ele>73.914001</ele>
<time>2026-04-22T21:19:27.998Z</time>
</trkpt>
<trkpt lat="59.1020620" lon="29.9782840">
<ele>75.590401</ele>
<time>2026-04-22T21:20:01.997Z</time>
</trkpt>
<trkpt lat="59.1020450" lon="29.9782330">
<ele>81.198715</ele>
<time>2026-04-22T21:20:32.004Z</time>
</trkpt>
<trkpt lat="59.1020600" lon="29.9783840">
<ele>84.033363</ele>
<time>2026-04-22T21:21:00.999Z</time>
</trkpt>
<trkpt lat="59.1021480" lon="29.9782160">
<ele>84.825836</ele>
<time>2026-04-22T21:22:28.998Z</time>
</trkpt>
<trkpt lat="59.1022820" lon="29.9782650">
<ele>83.423767</ele>
<time>2026-04-22T21:22:59.998Z</time>
</trkpt>
<trkpt lat="59.1022200" lon="29.9782810">
<ele>81.991203</ele>
<time>2026-04-22T21:24:00.003Z</time>
</trkpt>
<trkpt lat="59.1022010" lon="29.9783450">
<ele>77.663040</ele>
<time>2026-04-22T21:24:24.998Z</time>
</trkpt>
<trkpt lat="59.1022170" lon="29.9783020">
<ele>76.870560</ele>
<time>2026-04-22T21:24:50.996Z</time>
</trkpt>
<trkpt lat="59.1022520" lon="29.9783340">
<ele>76.992485</ele>
<time>2026-04-22T21:26:54.004Z</time>
</trkpt>
<trkpt lat="59.1022780" lon="29.9783080">
<ele>77.510643</ele>
<time>2026-04-22T21:27:41.999Z</time>
</trkpt>
<trkpt lat="59.1021340" lon="29.9783020">
<ele>74.645515</ele>
<time>2026-04-22T21:29:01.003Z</time>
</trkpt>
<trkpt lat="59.1021630" lon="29.9781230">
<ele>74.066399</ele>
<time>2026-04-22T21:29:32.997Z</time>
</trkpt>
<trkpt lat="59.1022490" lon="29.9782010">
<ele>74.462639</ele>
<time>2026-04-22T21:29:47.996Z</time>
</trkpt>
<trkpt lat="59.1022760" lon="29.9782950">
<ele>76.352402</ele>
<time>2026-04-22T21:30:36.000Z</time>
</trkpt>
<trkpt lat="59.1022590" lon="29.9782430">
<ele>77.754478</ele>
<time>2026-04-22T21:31:27.002Z</time>
</trkpt>
<trkpt lat="59.1023270" lon="29.9781140">
<ele>77.022957</ele>
<time>2026-04-22T21:31:40.999Z</time>
</trkpt>
<trkpt lat="59.1024850" lon="29.9781440">
<ele>77.449684</ele>
<time>2026-04-22T21:31:59.998Z</time>
</trkpt>
<trkpt lat="59.1031850" lon="29.9784390">
<ele>71.688957</ele>
<time>2026-04-22T21:33:04.003Z</time>
</trkpt>
<trkpt lat="59.1049700" lon="29.9789530">
<ele>67.970398</ele>
<time>2026-04-22T21:36:17.997Z</time>
</trkpt>
<trkpt lat="59.1053170" lon="29.9791030">
<ele>68.580002</ele>
<time>2026-04-22T21:36:52.004Z</time>
</trkpt>
<trkpt lat="59.1061430" lon="29.9792640">
<ele>65.074799</ele>
<time>2026-04-22T21:38:11.000Z</time>
</trkpt>
<trkpt lat="59.1061650" lon="29.9793830">
<ele>72.969116</ele>
<time>2026-04-22T21:39:53.004Z</time>
</trkpt>
<trkpt lat="59.1061850" lon="29.9793240">
<ele>74.279762</ele>
<time>2026-04-22T21:40:24.997Z</time>
</trkpt>
<trkpt lat="59.1061640" lon="29.9793740">
<ele>74.676003</ele>
<time>2026-04-22T21:40:53.000Z</time>
</trkpt>
<trkpt lat="59.1075090" lon="29.9799070">
<ele>69.037201</ele>
<time>2026-04-22T21:43:30.999Z</time>
</trkpt>
<trkpt lat="59.1077980" lon="29.9800770">
<ele>68.762878</ele>
<time>2026-04-22T21:44:00.997Z</time>
</trkpt>
<trkpt lat="59.1078550" lon="29.9801740">
<ele>68.854317</ele>
<time>2026-04-22T21:45:17.004Z</time>
</trkpt>
<trkpt lat="59.1080100" lon="29.9802230">
<ele>69.860161</ele>
<time>2026-04-22T21:45:58.000Z</time>
</trkpt>
<trkpt lat="59.1078250" lon="29.9800770">
<ele>69.463921</ele>
<time>2026-04-22T21:46:22.002Z</time>
</trkpt>
<trkpt lat="59.1071040" lon="29.9797570">
<ele>71.231758</ele>
<time>2026-04-22T21:47:29.999Z</time>
</trkpt>
<trkpt lat="59.1070390" lon="29.9797390">
<ele>70.713600</ele>
<time>2026-04-22T21:47:32.997Z</time>
</trkpt>
<trkpt lat="59.1069700" lon="29.9799260">
<ele>70.622162</ele>
<time>2026-04-22T21:47:47.003Z</time>
</trkpt>
<trkpt lat="59.1067950" lon="29.9818640">
<ele>69.402962</ele>
<time>2026-04-22T21:49:12.996Z</time>
</trkpt>
<trkpt lat="59.1065950" lon="29.9847950">
<ele>69.951599</ele>
<time>2026-04-22T21:51:51.998Z</time>
</trkpt>
<trkpt lat="59.1065840" lon="29.9849360">
<ele>75.407516</ele>
<time>2026-04-22T21:53:15.003Z</time>
</trkpt>
<trkpt lat="59.1065610" lon="29.9849420">
<ele>75.834244</ele>
<time>2026-04-22T21:53:42.996Z</time>
</trkpt>
<trkpt lat="59.1065600" lon="29.9851660">
<ele>75.895203</ele>
<time>2026-04-22T21:54:05.003Z</time>
</trkpt>
<trkpt lat="59.1066240" lon="29.9855410">
<ele>72.389999</ele>
<time>2026-04-22T21:54:27.000Z</time>
</trkpt>
<trkpt lat="59.1069360" lon="29.9859760">
<ele>69.555359</ele>
<time>2026-04-22T21:54:58.000Z</time>
</trkpt>
<trkpt lat="59.1073590" lon="29.9864290">
<ele>63.093601</ele>
<time>2026-04-22T21:55:46.004Z</time>
</trkpt>
<trkpt lat="59.1074500" lon="29.9866030">
<ele>58.277760</ele>
<time>2026-04-22T21:56:00.001Z</time>
</trkpt>
<trkpt lat="59.1074580" lon="29.9867450">
<ele>60.990482</ele>
<time>2026-04-22T21:56:23.001Z</time>
</trkpt>
<trkpt lat="59.1073930" lon="29.9870790">
<ele>63.093601</ele>
<time>2026-04-22T21:57:02.002Z</time>
</trkpt>
<trkpt lat="59.1073860" lon="29.9873340">
<ele>62.331600</ele>
<time>2026-04-22T21:57:22.997Z</time>
</trkpt>
<trkpt lat="59.1071610" lon="29.9879710">
<ele>65.166245</ele>
<time>2026-04-22T21:58:40.999Z</time>
</trkpt>
<trkpt lat="59.1071830" lon="29.9879500">
<ele>64.891914</ele>
<time>2026-04-22T21:59:10.003Z</time>
</trkpt>
<trkpt lat="59.1071430" lon="29.9878990">
<ele>66.172081</ele>
<time>2026-04-22T22:01:06.004Z</time>
</trkpt>
<trkpt lat="59.1071490" lon="29.9879670">
<ele>66.050156</ele>
<time>2026-04-22T22:01:33.997Z</time>
</trkpt>
<trkpt lat="59.1071650" lon="29.9879280">
<ele>65.867279</ele>
<time>2026-04-22T22:02:16.999Z</time>
</trkpt>
<trkpt lat="59.1071430" lon="29.9879340">
<ele>66.751198</ele>
<time>2026-04-22T22:02:42.003Z</time>
</trkpt>
<trkpt lat="59.1071000" lon="29.9882940">
<ele>68.305679</ele>
<time>2026-04-22T22:05:09.004Z</time>
</trkpt>
<trkpt lat="59.1069710" lon="29.9882910">
<ele>67.939919</ele>
<time>2026-04-22T22:06:07.998Z</time>
</trkpt>
<trkpt lat="59.1068590" lon="29.9883730">
<ele>66.080643</ele>
<time>2026-04-22T22:07:01.004Z</time>
</trkpt>
<trkpt lat="59.1068190" lon="29.9883360">
<ele>66.293999</ele>
<time>2026-04-22T22:07:20.004Z</time>
</trkpt>
<trkpt lat="59.1065530" lon="29.9886870">
<ele>67.818001</ele>
<time>2026-04-22T22:09:54.003Z</time>
</trkpt>
<trkpt lat="59.1063920" lon="29.9887340">
<ele>67.208397</ele>
<time>2026-04-22T22:10:37.998Z</time>
</trkpt>
<trkpt lat="59.1061740" lon="29.9888760">
<ele>67.665604</ele>
<time>2026-04-22T22:11:46.003Z</time>
</trkpt>
<trkpt lat="59.1060980" lon="29.9888120">
<ele>68.214241</ele>
<time>2026-04-22T22:12:17.997Z</time>
</trkpt>
<trkpt lat="59.1060500" lon="29.9888860">
<ele>69.037201</ele>
<time>2026-04-22T22:13:15.004Z</time>
</trkpt>
<trkpt lat="59.1059220" lon="29.9887700">
<ele>68.915283</ele>
<time>2026-04-22T22:16:46.001Z</time>
</trkpt>
<trkpt lat="59.1058380" lon="29.9887580">
<ele>68.915283</ele>
<time>2026-04-22T22:17:05.001Z</time>
</trkpt>
<trkpt lat="59.1057370" lon="29.9888970">
<ele>69.555359</ele>
<time>2026-04-22T22:18:12.004Z</time>
</trkpt>
<trkpt lat="59.1056630" lon="29.9888490">
<ele>68.488556</ele>
<time>2026-04-22T22:18:46.002Z</time>
</trkpt>
<trkpt lat="59.1054570" lon="29.9890150">
<ele>68.854317</ele>
<time>2026-04-22T22:19:52.997Z</time>
</trkpt>
<trkpt lat="59.1052130" lon="29.9891030">
<ele>66.690239</ele>
<time>2026-04-22T22:21:50.000Z</time>
</trkpt>
<trkpt lat="59.1050920" lon="29.9890030">
<ele>70.469757</ele>
<time>2026-04-22T22:25:31.996Z</time>
</trkpt>
<trkpt lat="59.1047080" lon="29.9889730">
<ele>68.153282</ele>
<time>2026-04-22T22:27:39.004Z</time>
</trkpt>
<trkpt lat="59.1045230" lon="29.9890950">
<ele>67.970398</ele>
<time>2026-04-22T22:28:37.004Z</time>
</trkpt>
<trkpt lat="59.1044530" lon="29.9890700">
<ele>67.482719</ele>
<time>2026-04-22T22:29:07.002Z</time>
</trkpt>
<trkpt lat="59.1043530" lon="29.9891650">
<ele>66.995041</ele>
<time>2026-04-22T22:29:38.996Z</time>
</trkpt>
<trkpt lat="59.1042590" lon="29.9891560">
<ele>67.818001</ele>
<time>2026-04-22T22:29:56.000Z</time>
</trkpt>
<trkpt lat="59.1042250" lon="29.9891130">
<ele>70.164963</ele>
<time>2026-04-22T22:31:34.997Z</time>
</trkpt>
<trkpt lat="59.1042410" lon="29.9890820">
<ele>69.037201</ele>
<time>2026-04-22T22:32:00.001Z</time>
</trkpt>
<trkpt lat="59.1042450" lon="29.9891480">
<ele>68.701920</ele>
<time>2026-04-22T22:33:23.999Z</time>
</trkpt>
<trkpt lat="59.1039480" lon="29.9892280">
<ele>66.995041</ele>
<time>2026-04-22T22:34:39.003Z</time>
</trkpt>
<trkpt lat="59.1037500" lon="29.9894320">
<ele>67.391281</ele>
<time>2026-04-22T22:35:44.002Z</time>
</trkpt>
<trkpt lat="59.1034450" lon="29.9895660">
<ele>67.787521</ele>
<time>2026-04-22T22:36:49.000Z</time>
</trkpt>
<trkpt lat="59.1030090" lon="29.9898790">
<ele>68.610481</ele>
<time>2026-04-22T22:39:21.004Z</time>
</trkpt>
<trkpt lat="59.1028200" lon="29.9899250">
<ele>68.244720</ele>
<time>2026-04-22T22:40:57.003Z</time>
</trkpt>
<trkpt lat="59.1027610" lon="29.9898450">
<ele>68.701920</ele>
<time>2026-04-22T22:41:29.999Z</time>
</trkpt>
<trkpt lat="59.1025160" lon="29.9899660">
<ele>68.214241</ele>
<time>2026-04-22T22:42:32.000Z</time>
</trkpt>
<trkpt lat="59.1024460" lon="29.9898870">
<ele>69.006721</ele>
<time>2026-04-22T22:43:21.999Z</time>
</trkpt>
<trkpt lat="59.1023400" lon="29.9899790">
<ele>70.164963</ele>
<time>2026-04-22T22:45:16.998Z</time>
</trkpt>
<trkpt lat="59.1020770" lon="29.9900250">
<ele>70.317360</ele>
<time>2026-04-22T22:46:57.999Z</time>
</trkpt>
<trkpt lat="59.1018720" lon="29.9901760">
<ele>69.463921</ele>
<time>2026-04-22T22:48:17.004Z</time>
</trkpt>
<trkpt lat="59.1018370" lon="29.9900540">
<ele>71.932800</ele>
<time>2026-04-22T22:57:48.997Z</time>
</trkpt>
<trkpt lat="59.1017080" lon="29.9902170">
<ele>73.152000</ele>
<time>2026-04-22T23:00:38.998Z</time>
</trkpt>
<trkpt lat="59.1015870" lon="29.9902410">
<ele>71.810883</ele>
<time>2026-04-22T23:01:12.996Z</time>
</trkpt>
<trkpt lat="59.1013910" lon="29.9904120">
<ele>69.982079</ele>
<time>2026-04-22T23:02:05.001Z</time>
</trkpt>
<trkpt lat="59.1012230" lon="29.9904830">
<ele>69.555359</ele>
<time>2026-04-22T23:02:33.996Z</time>
</trkpt>
<trkpt lat="59.1011720" lon="29.9905420">
<ele>69.585838</ele>
<time>2026-04-22T23:02:49.998Z</time>
</trkpt>
<trkpt lat="59.1011900" lon="29.9905620">
<ele>69.616318</ele>
<time>2026-04-22T23:03:15.002Z</time>
</trkpt>
<trkpt lat="59.1012320" lon="29.9905000">
<ele>69.402962</ele>
<time>2026-04-22T23:03:31.003Z</time>
</trkpt>
<trkpt lat="59.1012080" lon="29.9905380">
<ele>68.549515</ele>
<time>2026-04-22T23:04:06.997Z</time>
</trkpt>
<trkpt lat="59.1011860" lon="29.9904730">
<ele>70.805038</ele>
<time>2026-04-22T23:06:25.004Z</time>
</trkpt>
<trkpt lat="59.1011170" lon="29.9905620">
<ele>72.359520</ele>
<time>2026-04-22T23:07:29.001Z</time>
</trkpt>
<trkpt lat="59.1010940" lon="29.9905160">
<ele>72.450958</ele>
<time>2026-04-22T23:08:33.999Z</time>
</trkpt>
<trkpt lat="59.1010740" lon="29.9906310">
<ele>70.683121</ele>
<time>2026-04-22T23:10:43.997Z</time>
</trkpt>
<trkpt lat="59.1008280" lon="29.9908190">
<ele>68.915283</ele>
<time>2026-04-22T23:13:13.002Z</time>
</trkpt>
<trkpt lat="59.1008100" lon="29.9907750">
<ele>67.970398</ele>
<time>2026-04-22T23:14:12.998Z</time>
</trkpt>
<trkpt lat="59.1007520" lon="29.9909240">
<ele>67.665604</ele>
<time>2026-04-22T23:15:56.998Z</time>
</trkpt>
<trkpt lat="59.1006760" lon="29.9908390">
<ele>67.818001</ele>
<time>2026-04-22T23:16:29.001Z</time>
</trkpt>
<trkpt lat="59.1006430" lon="29.9908510">
<ele>67.970398</ele>
<time>2026-04-22T23:16:48.000Z</time>
</trkpt>
<trkpt lat="59.1006010" lon="29.9907830">
<ele>68.336159</ele>
<time>2026-04-22T23:17:00.001Z</time>
</trkpt>
<trkpt lat="59.1005110" lon="29.9907540">
<ele>68.458084</ele>
<time>2026-04-22T23:17:32.004Z</time>
</trkpt>
<trkpt lat="59.1003260" lon="29.9908760">
<ele>68.793358</ele>
<time>2026-04-22T23:18:59.000Z</time>
</trkpt>
<trkpt lat="59.1002210" lon="29.9909720">
<ele>70.286880</ele>
<time>2026-04-22T23:19:31.002Z</time>
</trkpt>
<trkpt lat="59.1002320" lon="29.9910150">
<ele>71.353683</ele>
<time>2026-04-22T23:20:49.998Z</time>
</trkpt>
<trkpt lat="59.0999950" lon="29.9910290">
<ele>70.591682</ele>
<time>2026-04-22T23:23:16.999Z</time>
</trkpt>
<trkpt lat="59.0999190" lon="29.9911150">
<ele>69.921120</ele>
<time>2026-04-22T23:24:25.998Z</time>
</trkpt>
<trkpt lat="59.0994860" lon="29.9913190">
<ele>67.574158</ele>
<time>2026-04-22T23:28:16.997Z</time>
</trkpt>
<trkpt lat="59.0994010" lon="29.9913390">
<ele>68.122803</ele>
<time>2026-04-22T23:28:46.001Z</time>
</trkpt>
<trkpt lat="59.0992920" lon="29.9912750">
<ele>68.275200</ele>
<time>2026-04-22T23:29:24.000Z</time>
</trkpt>
<trkpt lat="59.0987530" lon="29.9915800">
<ele>66.263519</ele>
<time>2026-04-22T23:31:01.001Z</time>
</trkpt>
<trkpt lat="59.0985820" lon="29.9916610">
<ele>65.806320</ele>
<time>2026-04-22T23:31:37.004Z</time>
</trkpt>
<trkpt lat="59.0984980" lon="29.9916530">
<ele>64.830956</ele>
<time>2026-04-22T23:31:57.999Z</time>
</trkpt>
<trkpt lat="59.0984190" lon="29.9917240">
<ele>65.288162</ele>
<time>2026-04-22T23:32:15.996Z</time>
</trkpt>
<trkpt lat="59.0983720" lon="29.9918570">
<ele>67.177917</ele>
<time>2026-04-22T23:33:44.997Z</time>
</trkpt>
<trkpt lat="59.0983350" lon="29.9918080">
<ele>68.092316</ele>
<time>2026-04-22T23:34:07.003Z</time>
</trkpt>
<trkpt lat="59.0982370" lon="29.9918140">
<ele>66.446404</ele>
<time>2026-04-22T23:34:26.003Z</time>
</trkpt>
<trkpt lat="59.0978340" lon="29.9919760">
<ele>63.428883</ele>
<time>2026-04-22T23:35:42.000Z</time>
</trkpt>
<trkpt lat="59.0977180" lon="29.9919210">
<ele>63.093601</ele>
<time>2026-04-22T23:36:38.998Z</time>
</trkpt>
<trkpt lat="59.0977320" lon="29.9919750">
<ele>65.714882</ele>
<time>2026-04-22T23:38:06.003Z</time>
</trkpt>
<trkpt lat="59.0975460" lon="29.9920260">
<ele>67.513199</ele>
<time>2026-04-22T23:39:36.999Z</time>
</trkpt>
<trkpt lat="59.0975300" lon="29.9921010">
<ele>69.220085</ele>
<time>2026-04-22T23:40:12.000Z</time>
</trkpt>
<trkpt lat="59.0975480" lon="29.9920500">
<ele>67.909439</ele>
<time>2026-04-22T23:40:33.997Z</time>
</trkpt>
<trkpt lat="59.0974740" lon="29.9920870">
<ele>67.757042</ele>
<time>2026-04-22T23:41:11.996Z</time>
</trkpt>
<trkpt lat="59.0973810" lon="29.9919420">
<ele>69.250557</ele>
<time>2026-04-22T23:42:31.000Z</time>
</trkpt>
<trkpt lat="59.0973060" lon="29.9921510">
<ele>70.164963</ele>
<time>2026-04-22T23:43:25.000Z</time>
</trkpt>
<trkpt lat="59.0973360" lon="29.9921080">
<ele>68.854317</ele>
<time>2026-04-22T23:44:29.999Z</time>
</trkpt>
<trkpt lat="59.0973400" lon="29.9921460">
<ele>68.854317</ele>
<time>2026-04-22T23:44:56.999Z</time>
</trkpt>
<trkpt lat="59.0973350" lon="29.9921010">
<ele>68.092316</ele>
<time>2026-04-22T23:45:37.996Z</time>
</trkpt>
<trkpt lat="59.0973170" lon="29.9921500">
<ele>68.762878</ele>
<time>2026-04-22T23:46:34.000Z</time>
</trkpt>
<trkpt lat="59.0973860" lon="29.9916770">
<ele>70.561203</ele>
<time>2026-04-22T23:49:21.996Z</time>
</trkpt>
<trkpt lat="59.0973720" lon="29.9915830">
<ele>73.700638</ele>
<time>2026-04-22T23:50:12.998Z</time>
</trkpt>
<trkpt lat="59.0973910" lon="29.9915880">
<ele>73.670158</ele>
<time>2026-04-22T23:50:42.996Z</time>
</trkpt>
<trkpt lat="59.0973780" lon="29.9915440">
<ele>74.310242</ele>
<time>2026-04-22T23:51:44.997Z</time>
</trkpt>
<trkpt lat="59.0973630" lon="29.9915980">
<ele>78.851761</ele>
<time>2026-04-22T23:53:09.997Z</time>
</trkpt>
<trkpt lat="59.0973210" lon="29.9914410">
<ele>77.205841</ele>
<time>2026-04-22T23:54:26.004Z</time>
</trkpt>
<trkpt lat="59.0972570" lon="29.9914300">
<ele>76.779121</ele>
<time>2026-04-22T23:55:12.996Z</time>
</trkpt>
<trkpt lat="59.0972910" lon="29.9913280">
<ele>78.059280</ele>
<time>2026-04-22T23:55:42.001Z</time>
</trkpt>
<trkpt lat="59.0972810" lon="29.9912460">
<ele>80.558640</ele>
<time>2026-04-22T23:56:18.004Z</time>
</trkpt>
<trkpt lat="59.0972650" lon="29.9914060">
<ele>80.192879</ele>
<time>2026-04-22T23:57:16.004Z</time>
</trkpt>
<trkpt lat="59.0972990" lon="29.9913960">
<ele>79.339439</ele>
<time>2026-04-22T23:57:46.002Z</time>
</trkpt>
<trkpt lat="59.0972800" lon="29.9913550">
<ele>79.248001</ele>
<time>2026-04-22T23:58:36.002Z</time>
</trkpt>
<trkpt lat="59.0972930" lon="29.9914190">
<ele>75.498962</ele>
<time>2026-04-22T23:59:35.998Z</time>
</trkpt>
<trkpt lat="59.0972550" lon="29.9913880">
<ele>78.790802</ele>
<time>2026-04-23T00:01:23.998Z</time>
</trkpt>
<trkpt lat="59.0972940" lon="29.9913820">
<ele>78.272636</ele>
<time>2026-04-23T00:02:12.002Z</time>
</trkpt>
<trkpt lat="59.0972780" lon="29.9914140">
<ele>77.053444</ele>
<time>2026-04-23T00:02:42.000Z</time>
</trkpt>
<trkpt lat="59.0973960" lon="29.9917650">
<ele>71.719444</ele>
<time>2026-04-23T00:04:30.000Z</time>
</trkpt>
<trkpt lat="59.0974000" lon="29.9919470">
<ele>70.043037</ele>
<time>2026-04-23T00:04:59.998Z</time>
</trkpt>
<trkpt lat="59.0971830" lon="29.9922280">
<ele>68.762878</ele>
<time>2026-04-23T00:06:47.998Z</time>
</trkpt>
<trkpt lat="59.0970830" lon="29.9922430">
<ele>68.610481</ele>
<time>2026-04-23T00:07:06.997Z</time>
</trkpt>
<trkpt lat="59.0970050" lon="29.9923210">
<ele>69.098160</ele>
<time>2026-04-23T00:07:43.000Z</time>
</trkpt>
<trkpt lat="59.0968810" lon="29.9923310">
<ele>69.037201</ele>
<time>2026-04-23T00:08:30.002Z</time>
</trkpt>
<trkpt lat="59.0967390" lon="29.9924470">
<ele>68.397118</ele>
<time>2026-04-23T00:09:06.998Z</time>
</trkpt>
<trkpt lat="59.0965020" lon="29.9924780">
<ele>69.037201</ele>
<time>2026-04-23T00:10:46.004Z</time>
</trkpt>
<trkpt lat="59.0964340" lon="29.9925220">
<ele>69.189598</ele>
<time>2026-04-23T00:11:01.997Z</time>
</trkpt>
<trkpt lat="59.0964050" lon="29.9926140">
<ele>69.890640</ele>
<time>2026-04-23T00:12:41.003Z</time>
</trkpt>
<trkpt lat="59.0963370" lon="29.9926020">
<ele>70.225922</ele>
<time>2026-04-23T00:14:17.002Z</time>
</trkpt>
<trkpt lat="59.0963010" lon="29.9926900">
<ele>69.342003</ele>
<time>2026-04-23T00:15:08.997Z</time>
</trkpt>
<trkpt lat="59.0960290" lon="29.9926750">
<ele>72.176643</ele>
<time>2026-04-23T00:17:33.000Z</time>
</trkpt>
<trkpt lat="59.0958920" lon="29.9927360">
<ele>70.713600</ele>
<time>2026-04-23T00:18:10.999Z</time>
</trkpt>
<trkpt lat="59.0958460" lon="29.9928630">
<ele>70.347839</ele>
<time>2026-04-23T00:18:51.002Z</time>
</trkpt>
<trkpt lat="59.0957260" lon="29.9928620">
<ele>69.646797</ele>
<time>2026-04-23T00:19:31.999Z</time>
</trkpt>
<trkpt lat="59.0956620" lon="29.9928050">
<ele>70.378319</ele>
<time>2026-04-23T00:19:54.998Z</time>
</trkpt>
<trkpt lat="59.0956160" lon="29.9928670">
<ele>70.103996</ele>
<time>2026-04-23T00:20:12.002Z</time>
</trkpt>
<trkpt lat="59.0949370" lon="29.9931610">
<ele>67.056000</ele>
<time>2026-04-23T00:22:27.002Z</time>
</trkpt>
<trkpt lat="59.0949290" lon="29.9932620">
<ele>68.915283</ele>
<time>2026-04-23T00:24:04.003Z</time>
</trkpt>
<trkpt lat="59.0946570" lon="29.9931970">
<ele>67.574158</ele>
<time>2026-04-23T00:26:34.002Z</time>
</trkpt>
<trkpt lat="59.0944590" lon="29.9934410">
<ele>68.945763</ele>
<time>2026-04-23T00:27:27.000Z</time>
</trkpt>
<trkpt lat="59.0942210" lon="29.9933260">
<ele>68.305679</ele>
<time>2026-04-23T00:28:12.999Z</time>
</trkpt>
<trkpt lat="59.0939030" lon="29.9933130">
<ele>69.037201</ele>
<time>2026-04-23T00:29:47.996Z</time>
</trkpt>
<trkpt lat="59.0937660" lon="29.9932530">
<ele>69.921120</ele>
<time>2026-04-23T00:30:23.999Z</time>
</trkpt>
<trkpt lat="59.0935930" lon="29.9933360">
<ele>72.146156</ele>
<time>2026-04-23T00:31:24.997Z</time>
</trkpt>
<trkpt lat="59.0934650" lon="29.9933220">
<ele>73.731117</ele>
<time>2026-04-23T00:32:49.004Z</time>
</trkpt>
<trkpt lat="59.0936580" lon="29.9943020">
<ele>72.389999</ele>
<time>2026-04-23T00:33:53.001Z</time>
</trkpt>
<trkpt lat="59.0937760" lon="29.9943740">
<ele>74.005440</ele>
<time>2026-04-23T00:34:16.000Z</time>
</trkpt>
<trkpt lat="59.0940900" lon="29.9943360">
<ele>69.555359</ele>
<time>2026-04-23T00:34:56.004Z</time>
</trkpt>
<trkpt lat="59.0940860" lon="29.9942510">
<ele>73.060562</ele>
<time>2026-04-23T00:36:32.996Z</time>
</trkpt>
<trkpt lat="59.0943340" lon="29.9941650">
<ele>73.273918</ele>
<time>2026-04-23T00:37:38.004Z</time>
</trkpt>
<trkpt lat="59.0945710" lon="29.9942600">
<ele>77.541115</ele>
<time>2026-04-23T00:38:09.997Z</time>
</trkpt>
<trkpt lat="59.0947410" lon="29.9944790">
<ele>78.638397</ele>
<time>2026-04-23T00:38:48.998Z</time>
</trkpt>
<trkpt lat="59.0949160" lon="29.9944550">
<ele>77.845917</ele>
<time>2026-04-23T00:39:37.002Z</time>
</trkpt>
<trkpt lat="59.0950820" lon="29.9945540">
<ele>75.956161</ele>
<time>2026-04-23T00:40:27.002Z</time>
</trkpt>
<trkpt lat="59.0951550" lon="29.9943320">
<ele>79.339439</ele>
<time>2026-04-23T00:42:04.997Z</time>
</trkpt>
<trkpt lat="59.0952230" lon="29.9944020">
<ele>79.430885</ele>
<time>2026-04-23T00:43:05.002Z</time>
</trkpt>
<trkpt lat="59.0953030" lon="29.9943920">
<ele>78.790802</ele>
<time>2026-04-23T00:43:47.001Z</time>
</trkpt>
<trkpt lat="59.0953390" lon="29.9943140">
<ele>76.992485</ele>
<time>2026-04-23T00:44:30.002Z</time>
</trkpt>
<trkpt lat="59.0954060" lon="29.9944570">
<ele>76.169518</ele>
<time>2026-04-23T00:45:12.001Z</time>
</trkpt>
<trkpt lat="59.0955360" lon="29.9945170">
<ele>74.462639</ele>
<time>2026-04-23T00:45:51.002Z</time>
</trkpt>
<trkpt lat="59.0956110" lon="29.9944900">
<ele>73.974960</ele>
<time>2026-04-23T00:46:10.001Z</time>
</trkpt>
<trkpt lat="59.0956700" lon="29.9943260">
<ele>75.468483</ele>
<time>2026-04-23T00:47:05.997Z</time>
</trkpt>
<trkpt lat="59.0957040" lon="29.9943980">
<ele>75.468483</ele>
<time>2026-04-23T00:47:28.003Z</time>
</trkpt>
<trkpt lat="59.0957920" lon="29.9944320">
<ele>75.072243</ele>
<time>2026-04-23T00:47:46.000Z</time>
</trkpt>
<trkpt lat="59.0959660" lon="29.9944370">
<ele>75.346558</ele>
<time>2026-04-23T00:48:22.997Z</time>
</trkpt>
<trkpt lat="59.0960630" lon="29.9943020">
<ele>74.127357</ele>
<time>2026-04-23T00:49:23.002Z</time>
</trkpt>
<trkpt lat="59.0962610" lon="29.9943100">
<ele>72.237602</ele>
<time>2026-04-23T00:50:03.998Z</time>
</trkpt>
<trkpt lat="59.0962680" lon="29.9942610">
<ele>72.481438</ele>
<time>2026-04-23T00:50:25.002Z</time>
</trkpt>
<trkpt lat="59.0962900" lon="29.9943290">
<ele>72.908157</ele>
<time>2026-04-23T00:51:16.004Z</time>
</trkpt>
<trkpt lat="59.0962890" lon="29.9942300">
<ele>71.627998</ele>
<time>2026-04-23T00:52:18.998Z</time>
</trkpt>
<trkpt lat="59.0965180" lon="29.9942410">
<ele>73.974960</ele>
<time>2026-04-23T00:53:23.997Z</time>
</trkpt>
<trkpt lat="59.0968250" lon="29.9940230">
<ele>76.260956</ele>
<time>2026-04-23T00:54:45.999Z</time>
</trkpt>
<trkpt lat="59.0968420" lon="29.9940640">
<ele>77.175362</ele>
<time>2026-04-23T00:55:41.002Z</time>
</trkpt>
<trkpt lat="59.0968210" lon="29.9939620">
<ele>76.321915</ele>
<time>2026-04-23T00:56:05.997Z</time>
</trkpt>
<trkpt lat="59.0972090" lon="29.9939160">
<ele>75.255119</ele>
<time>2026-04-23T01:03:05.003Z</time>
</trkpt>
<trkpt lat="59.0978320" lon="29.9935490">
<ele>73.853043</ele>
<time>2026-04-23T01:04:49.002Z</time>
</trkpt>
<trkpt lat="59.0979690" lon="29.9935500">
<ele>73.456802</ele>
<time>2026-04-23T01:05:06.999Z</time>
</trkpt>
<trkpt lat="59.0980870" lon="29.9934570">
<ele>73.517761</ele>
<time>2026-04-23T01:05:24.003Z</time>
</trkpt>
<trkpt lat="59.0981490" lon="29.9932930">
<ele>78.546967</ele>
<time>2026-04-23T01:07:28.004Z</time>
</trkpt>
<trkpt lat="59.0981530" lon="29.9933380">
<ele>77.205841</ele>
<time>2026-04-23T01:07:57.000Z</time>
</trkpt>
<trkpt lat="59.0983790" lon="29.9933650">
<ele>76.382881</ele>
<time>2026-04-23T01:09:16.004Z</time>
</trkpt>
<trkpt lat="59.0984370" lon="29.9932990">
<ele>76.413361</ele>
<time>2026-04-23T01:09:49.000Z</time>
</trkpt>
<trkpt lat="59.0984530" lon="29.9932000">
<ele>76.321915</ele>
<time>2026-04-23T01:10:09.002Z</time>
</trkpt>
<trkpt lat="59.0986210" lon="29.9931640">
<ele>76.108559</ele>
<time>2026-04-23T01:10:44.003Z</time>
</trkpt>
<trkpt lat="59.0986460" lon="29.9932030">
<ele>75.895203</ele>
<time>2026-04-23T01:11:04.998Z</time>
</trkpt>
<trkpt lat="59.0986230" lon="29.9930560">
<ele>75.255119</ele>
<time>2026-04-23T01:12:01.996Z</time>
</trkpt>
<trkpt lat="59.0986490" lon="29.9929230">
<ele>75.072243</ele>
<time>2026-04-23T01:12:36.996Z</time>
</trkpt>
<trkpt lat="59.0987150" lon="29.9928580">
<ele>75.986641</ele>
<time>2026-04-23T01:13:21.000Z</time>
</trkpt>
<trkpt lat="59.0987420" lon="29.9929020">
<ele>75.559921</ele>
<time>2026-04-23T01:13:38.997Z</time>
</trkpt>
<trkpt lat="59.0988290" lon="29.9928190">
<ele>74.676003</ele>
<time>2026-04-23T01:14:09.997Z</time>
</trkpt>
<trkpt lat="59.0988580" lon="29.9928970">
<ele>74.401680</ele>
<time>2026-04-23T01:14:51.003Z</time>
</trkpt>
<trkpt lat="59.0989800" lon="29.9929340">
<ele>74.858879</ele>
<time>2026-04-23T01:15:33.002Z</time>
</trkpt>
<trkpt lat="59.0990510" lon="29.9930200">
<ele>74.371201</ele>
<time>2026-04-23T01:16:12.003Z</time>
</trkpt>
<trkpt lat="59.0992070" lon="29.9929600">
<ele>73.761597</ele>
<time>2026-04-23T01:17:07.999Z</time>
</trkpt>
<trkpt lat="59.0992910" lon="29.9930870">
<ele>74.615044</ele>
<time>2026-04-23T01:17:44.002Z</time>
</trkpt>
<trkpt lat="59.0992840" lon="29.9931410">
<ele>74.523598</ele>
<time>2026-04-23T01:18:09.999Z</time>
</trkpt>
<trkpt lat="59.0993650" lon="29.9931590">
<ele>75.255119</ele>
<time>2026-04-23T01:18:32.999Z</time>
</trkpt>
<trkpt lat="59.0993580" lon="29.9931010">
<ele>75.529442</ele>
<time>2026-04-23T01:18:54.996Z</time>
</trkpt>
<trkpt lat="59.0994700" lon="29.9928160">
<ele>75.224640</ele>
<time>2026-04-23T01:20:26.002Z</time>
</trkpt>
<trkpt lat="59.0995280" lon="29.9927500">
<ele>75.438004</ele>
<time>2026-04-23T01:20:46.003Z</time>
</trkpt>
<trkpt lat="59.0995970" lon="29.9927050">
<ele>75.163681</ele>
<time>2026-04-23T01:21:05.003Z</time>
</trkpt>
<trkpt lat="59.0997030" lon="29.9927150">
<ele>74.676003</ele>
<time>2026-04-23T01:21:55.996Z</time>
</trkpt>
<trkpt lat="59.0997570" lon="29.9927800">
<ele>74.706482</ele>
<time>2026-04-23T01:22:56.001Z</time>
</trkpt>
<trkpt lat="59.0998710" lon="29.9927550">
<ele>73.700638</ele>
<time>2026-04-23T01:23:32.997Z</time>
</trkpt>
<trkpt lat="59.0999100" lon="29.9926770">
<ele>73.152000</ele>
<time>2026-04-23T01:23:48.998Z</time>
</trkpt>
<trkpt lat="59.0999640" lon="29.9927010">
<ele>72.603355</ele>
<time>2026-04-23T01:24:06.002Z</time>
</trkpt>
<trkpt lat="59.1001950" lon="29.9924970">
<ele>70.256401</ele>
<time>2026-04-23T01:25:15.001Z</time>
</trkpt>
<trkpt lat="59.1001740" lon="29.9923680">
<ele>70.103996</ele>
<time>2026-04-23T01:25:51.997Z</time>
</trkpt>
<trkpt lat="59.1004140" lon="29.9923800">
<ele>72.725281</ele>
<time>2026-04-23T01:28:59.002Z</time>
</trkpt>
<trkpt lat="59.1005180" lon="29.9922880">
<ele>73.091042</ele>
<time>2026-04-23T01:29:53.002Z</time>
</trkpt>
<trkpt lat="59.1006020" lon="29.9923040">
<ele>72.877686</ele>
<time>2026-04-23T01:30:10.999Z</time>
</trkpt>
<trkpt lat="59.1006730" lon="29.9921730">
<ele>72.816719</ele>
<time>2026-04-23T01:31:02.001Z</time>
</trkpt>
<trkpt lat="59.1007790" lon="29.9921140">
<ele>71.506081</ele>
<time>2026-04-23T01:31:34.997Z</time>
</trkpt>
<trkpt lat="59.1008200" lon="29.9919890">
<ele>70.713600</ele>
<time>2026-04-23T01:32:05.004Z</time>
</trkpt>
<trkpt lat="59.1010890" lon="29.9920050">
<ele>70.408798</ele>
<time>2026-04-23T01:33:27.999Z</time>
</trkpt>
<trkpt lat="59.1011860" lon="29.9919420">
<ele>72.298561</ele>
<time>2026-04-23T01:34:15.001Z</time>
</trkpt>
<trkpt lat="59.1016890" lon="29.9918180">
<ele>66.385445</ele>
<time>2026-04-23T01:35:42.999Z</time>
</trkpt>
<trkpt lat="59.1017670" lon="29.9917720">
<ele>65.349121</ele>
<time>2026-04-23T01:36:00.996Z</time>
</trkpt>
<trkpt lat="59.1017660" lon="29.9917310">
<ele>69.951599</ele>
<time>2026-04-23T01:36:57.001Z</time>
</trkpt>
<trkpt lat="59.1017930" lon="29.9919130">
<ele>72.054718</ele>
<time>2026-04-23T01:41:13.004Z</time>
</trkpt>
<trkpt lat="59.1018280" lon="29.9918100">
<ele>71.841362</ele>
<time>2026-04-23T01:41:38.000Z</time>
</trkpt>
<trkpt lat="59.1019440" lon="29.9917110">
<ele>70.683121</ele>
<time>2026-04-23T01:41:55.003Z</time>
</trkpt>
<trkpt lat="59.1024120" lon="29.9915480">
<ele>62.605919</ele>
<time>2026-04-23T01:43:23.002Z</time>
</trkpt>
<trkpt lat="59.1031640" lon="29.9911840">
<ele>52.486561</ele>
<time>2026-04-23T01:45:00.003Z</time>
</trkpt>
<trkpt lat="59.1033210" lon="29.9910430">
<ele>52.517040</ele>
<time>2026-04-23T01:45:19.002Z</time>
</trkpt>
<trkpt lat="59.1034800" lon="29.9910490">
<ele>51.968399</ele>
<time>2026-04-23T01:45:36.999Z</time>
</trkpt>
<trkpt lat="59.1037170" lon="29.9909300">
<ele>49.743359</ele>
<time>2026-04-23T01:46:10.004Z</time>
</trkpt>
<trkpt lat="59.1037670" lon="29.9909820">
<ele>52.181759</ele>
<time>2026-04-23T01:46:33.004Z</time>
</trkpt>
<trkpt lat="59.1037730" lon="29.9909010">
<ele>55.443119</ele>
<time>2026-04-23T01:47:18.001Z</time>
</trkpt>
<trkpt lat="59.1043740" lon="29.9906520">
<ele>58.582558</ele>
<time>2026-04-23T01:49:30.003Z</time>
</trkpt>
<trkpt lat="59.1045510" lon="29.9905140">
<ele>59.832241</ele>
<time>2026-04-23T01:50:23.001Z</time>
</trkpt>
<trkpt lat="59.1046690" lon="29.9905450">
<ele>61.447681</ele>
<time>2026-04-23T01:51:00.999Z</time>
</trkpt>
<trkpt lat="59.1049280" lon="29.9904170">
<ele>61.142883</ele>
<time>2026-04-23T01:51:48.001Z</time>
</trkpt>
<trkpt lat="59.1050810" lon="29.9902680">
<ele>64.129921</ele>
<time>2026-04-23T01:52:47.004Z</time>
</trkpt>
<trkpt lat="59.1051300" lon="29.9902990">
<ele>63.642242</ele>
<time>2026-04-23T01:54:19.002Z</time>
</trkpt>
<trkpt lat="59.1051140" lon="29.9903390">
<ele>64.678558</ele>
<time>2026-04-23T01:55:09.002Z</time>
</trkpt>
<trkpt lat="59.1050860" lon="29.9902990">
<ele>65.440559</ele>
<time>2026-04-23T01:56:31.998Z</time>
</trkpt>
<trkpt lat="59.1051160" lon="29.9903180">
<ele>66.598801</ele>
<time>2026-04-23T01:59:20.003Z</time>
</trkpt>
<trkpt lat="59.1051120" lon="29.9902630">
<ele>66.507362</ele>
<time>2026-04-23T02:01:36.998Z</time>
</trkpt>
<trkpt lat="59.1055410" lon="29.9901650">
<ele>59.771282</ele>
<time>2026-04-23T02:02:45.004Z</time>
</trkpt>
<trkpt lat="59.1057380" lon="29.9898720">
<ele>60.716160</ele>
<time>2026-04-23T02:03:31.997Z</time>
</trkpt>
<trkpt lat="59.1057980" lon="29.9898800">
<ele>60.624718</ele>
<time>2026-04-23T02:03:46.996Z</time>
</trkpt>
<trkpt lat="59.1060580" lon="29.9896930">
<ele>61.965839</ele>
<time>2026-04-23T02:05:15.003Z</time>
</trkpt>
<trkpt lat="59.1061130" lon="29.9897640">
<ele>63.063118</ele>
<time>2026-04-23T02:05:31.998Z</time>
</trkpt>
<trkpt lat="59.1062920" lon="29.9896070">
<ele>64.099442</ele>
<time>2026-04-23T02:06:10.999Z</time>
</trkpt>
<trkpt lat="59.1065790" lon="29.9895060">
<ele>61.874401</ele>
<time>2026-04-23T02:07:39.999Z</time>
</trkpt>
<trkpt lat="59.1066750" lon="29.9892980">
<ele>62.179199</ele>
<time>2026-04-23T02:08:16.996Z</time>
</trkpt>
<trkpt lat="59.1069630" lon="29.9891470">
<ele>62.605919</ele>
<time>2026-04-23T02:10:31.996Z</time>
</trkpt>
<trkpt lat="59.1070400" lon="29.9889640">
<ele>62.758320</ele>
<time>2026-04-23T02:10:58.996Z</time>
</trkpt>
<trkpt lat="59.1071270" lon="29.9883240">
<ele>64.373756</ele>
<time>2026-04-23T02:11:47.000Z</time>
</trkpt>
<trkpt lat="59.1071650" lon="29.9878340">
<ele>61.782959</ele>
<time>2026-04-23T02:12:20.998Z</time>
</trkpt>
<trkpt lat="59.1074610" lon="29.9868600">
<ele>58.033916</ele>
<time>2026-04-23T02:13:39.000Z</time>
</trkpt>
<trkpt lat="59.1073930" lon="29.9866080">
<ele>56.845200</ele>
<time>2026-04-23T02:13:56.997Z</time>
</trkpt>
<trkpt lat="59.1070930" lon="29.9861640">
<ele>57.119518</ele>
<time>2026-04-23T02:14:41.001Z</time>
</trkpt>
<trkpt lat="59.1066160" lon="29.9856290">
<ele>60.655201</ele>
<time>2026-04-23T02:15:28.002Z</time>
</trkpt>
<trkpt lat="59.1065220" lon="29.9854170">
<ele>61.722000</ele>
<time>2026-04-23T02:15:44.997Z</time>
</trkpt>
<trkpt lat="59.1060370" lon="29.9849980">
<ele>62.087761</ele>
<time>2026-04-23T02:16:39.999Z</time>
</trkpt>
<trkpt lat="59.1054470" lon="29.9843640">
<ele>64.983360</ele>
<time>2026-04-23T02:17:32.004Z</time>
</trkpt>
<trkpt lat="59.1044170" lon="29.9831090">
<ele>68.793358</ele>
<time>2026-04-23T02:19:15.001Z</time>
</trkpt>
<trkpt lat="59.1044130" lon="29.9829760">
<ele>68.732399</ele>
<time>2026-04-23T02:19:24.997Z</time>
</trkpt>
<trkpt lat="59.1045530" lon="29.9822270">
<ele>67.543678</ele>
<time>2026-04-23T02:19:58.002Z</time>
</trkpt>
<trkpt lat="59.1046310" lon="29.9812900">
<ele>69.159119</ele>
<time>2026-04-23T02:20:36.001Z</time>
</trkpt>
<trkpt lat="59.1046800" lon="29.9810120">
<ele>69.311516</ele>
<time>2026-04-23T02:20:47.000Z</time>
</trkpt>
<trkpt lat="59.1046090" lon="29.9808550">
<ele>69.799202</ele>
<time>2026-04-23T02:20:56.996Z</time>
</trkpt>
<trkpt lat="59.1047030" lon="29.9808210">
<ele>69.128639</ele>
<time>2026-04-23T02:21:05.999Z</time>
</trkpt>
<trkpt lat="59.1047530" lon="29.9805050">
<ele>67.330315</ele>
<time>2026-04-23T02:21:22.000Z</time>
</trkpt>
<trkpt lat="59.1048350" lon="29.9791920">
<ele>65.562485</ele>
<time>2026-04-23T02:22:17.003Z</time>
</trkpt>
<trkpt lat="59.1047180" lon="29.9789630">
<ele>65.288162</ele>
<time>2026-04-23T02:22:29.997Z</time>
</trkpt>
<trkpt lat="59.1027140" lon="29.9783190">
<ele>63.124081</ele>
<time>2026-04-23T02:25:12.999Z</time>
</trkpt>
<trkpt lat="59.1023190" lon="29.9782000">
<ele>59.557919</ele>
<time>2026-04-23T02:25:45.002Z</time>
</trkpt>
<trkpt lat="59.1021710" lon="29.9782660">
<ele>61.691517</ele>
<time>2026-04-23T02:26:05.004Z</time>
</trkpt>
<trkpt lat="59.1021720" lon="29.9783410">
<ele>65.166245</ele>
<time>2026-04-23T02:26:51.996Z</time>
</trkpt>
<trkpt lat="59.1021560" lon="29.9782600">
<ele>66.934082</ele>
<time>2026-04-23T02:28:01.998Z</time>
</trkpt>
<trkpt lat="59.1020820" lon="29.9783010">
<ele>67.848480</ele>
<time>2026-04-23T02:28:20.997Z</time>
</trkpt>
<trkpt lat="59.1020660" lon="29.9783670">
<ele>67.757042</ele>
<time>2026-04-23T02:30:54.996Z</time>
</trkpt>
</trkseg>
</trk>
<trk>
 <name>20260423_Lisa71</name>
 <desc>20260423_Lisa71</desc>
<trkseg>
<trkpt lat="59.0926000" lon="29.9885690">
<ele>75.316078</ele>
<time>2026-04-22T22:06:53.004Z</time>
</trkpt>
<trkpt lat="59.0927330" lon="29.9891200">
<ele>74.249283</ele>
<time>2026-04-22T22:07:27.002Z</time>
</trkpt>
<trkpt lat="59.0927660" lon="29.9896070">
<ele>74.523598</ele>
<time>2026-04-22T22:07:54.002Z</time>
</trkpt>
<trkpt lat="59.0928900" lon="29.9903740">
<ele>73.639679</ele>
<time>2026-04-22T22:08:37.003Z</time>
</trkpt>
<trkpt lat="59.0929850" lon="29.9908130">
<ele>72.572884</ele>
<time>2026-04-22T22:08:59.001Z</time>
</trkpt>
<trkpt lat="59.0930570" lon="29.9909930">
<ele>72.938644</ele>
<time>2026-04-22T22:09:12.997Z</time>
</trkpt>
<trkpt lat="59.0934590" lon="29.9932000">
<ele>72.877686</ele>
<time>2026-04-22T22:11:04.004Z</time>
</trkpt>
<trkpt lat="59.0936630" lon="29.9940350">
<ele>72.329041</ele>
<time>2026-04-22T22:11:46.003Z</time>
</trkpt>
<trkpt lat="59.0936780" lon="29.9943770">
<ele>71.384155</ele>
<time>2026-04-22T22:12:01.996Z</time>
</trkpt>
<trkpt lat="59.0938330" lon="29.9953050">
<ele>71.048882</ele>
<time>2026-04-22T22:12:48.004Z</time>
</trkpt>
<trkpt lat="59.0940470" lon="29.9968350">
<ele>73.212959</ele>
<time>2026-04-22T22:13:54.998Z</time>
</trkpt>
<trkpt lat="59.0941060" lon="29.9971510">
<ele>73.974960</ele>
<time>2026-04-22T22:14:12.002Z</time>
</trkpt>
<trkpt lat="59.0941520" lon="29.9971970">
<ele>75.712318</ele>
<time>2026-04-22T22:14:56.999Z</time>
</trkpt>
<trkpt lat="59.0941390" lon="29.9971300">
<ele>78.882233</ele>
<time>2026-04-22T22:15:49.003Z</time>
</trkpt>
<trkpt lat="59.0943170" lon="29.9980970">
<ele>81.442566</ele>
<time>2026-04-22T22:16:35.996Z</time>
</trkpt>
<trkpt lat="59.0956220" lon="30.0060390">
<ele>84.155281</ele>
<time>2026-04-22T22:19:37.004Z</time>
</trkpt>
<trkpt lat="59.0959030" lon="30.0075270">
<ele>85.222084</ele>
<time>2026-04-22T22:20:04.998Z</time>
</trkpt>
<trkpt lat="59.0960600" lon="30.0085290">
<ele>85.130638</ele>
<time>2026-04-22T22:20:22.001Z</time>
</trkpt>
<trkpt lat="59.0964080" lon="30.0101420">
<ele>82.875114</ele>
<time>2026-04-22T22:20:50.004Z</time>
</trkpt>
<trkpt lat="59.0969010" lon="30.0130590">
<ele>76.078079</ele>
<time>2026-04-22T22:21:39.001Z</time>
</trkpt>
<trkpt lat="59.0969700" lon="30.0133860">
<ele>76.017120</ele>
<time>2026-04-22T22:21:48.997Z</time>
</trkpt>
<trkpt lat="59.0969750" lon="30.0133200">
<ele>75.011284</ele>
<time>2026-04-22T22:22:34.003Z</time>
</trkpt>
<trkpt lat="59.0969590" lon="30.0133800">
<ele>74.858879</ele>
<time>2026-04-22T22:23:08.002Z</time>
</trkpt>
<trkpt lat="59.0969980" lon="30.0133800">
<ele>73.670158</ele>
<time>2026-04-22T22:24:37.996Z</time>
</trkpt>
<trkpt lat="59.0970650" lon="30.0138790">
<ele>73.182480</ele>
<time>2026-04-22T22:25:17.999Z</time>
</trkpt>
<trkpt lat="59.0971190" lon="30.0139540">
<ele>73.456802</ele>
<time>2026-04-22T22:25:31.996Z</time>
</trkpt>
<trkpt lat="59.0971360" lon="30.0142930">
<ele>71.567039</ele>
<time>2026-04-22T22:25:59.998Z</time>
</trkpt>
<trkpt lat="59.0973080" lon="30.0150260">
<ele>70.043037</ele>
<time>2026-04-22T22:27:00.003Z</time>
</trkpt>
<trkpt lat="59.0973180" lon="30.0152460">
<ele>67.238884</ele>
<time>2026-04-22T22:27:28.999Z</time>
</trkpt>
<trkpt lat="59.0973870" lon="30.0153880">
<ele>68.610481</ele>
<time>2026-04-22T22:27:42.002Z</time>
</trkpt>
<trkpt lat="59.0973910" lon="30.0156160">
<ele>69.555359</ele>
<time>2026-04-22T22:27:58.003Z</time>
</trkpt>
<trkpt lat="59.0974380" lon="30.0157400">
<ele>69.860161</ele>
<time>2026-04-22T22:28:13.996Z</time>
</trkpt>
<trkpt lat="59.0973540" lon="30.0155410">
<ele>72.085197</ele>
<time>2026-04-22T22:28:44.996Z</time>
</trkpt>
<trkpt lat="59.0973030" lon="30.0149790">
<ele>74.554085</ele>
<time>2026-04-22T22:29:15.003Z</time>
</trkpt>
<trkpt lat="59.0970930" lon="30.0140680">
<ele>74.523598</ele>
<time>2026-04-22T22:30:05.003Z</time>
</trkpt>
<trkpt lat="59.0970030" lon="30.0133690">
<ele>75.255119</ele>
<time>2026-04-22T22:30:59.003Z</time>
</trkpt>
<trkpt lat="59.0970030" lon="30.0131980">
<ele>75.224640</ele>
<time>2026-04-22T22:31:17.000Z</time>
</trkpt>
<trkpt lat="59.0969900" lon="30.0132210">
<ele>73.487282</ele>
<time>2026-04-22T22:31:49.996Z</time>
</trkpt>
<trkpt lat="59.0971810" lon="30.0131990">
<ele>75.407516</ele>
<time>2026-04-22T22:33:18.996Z</time>
</trkpt>
<trkpt lat="59.0972350" lon="30.0132400">
<ele>74.584557</ele>
<time>2026-04-22T22:34:12.003Z</time>
</trkpt>
<trkpt lat="59.0974730" lon="30.0130750">
<ele>76.078079</ele>
<time>2026-04-22T22:35:41.997Z</time>
</trkpt>
<trkpt lat="59.0975210" lon="30.0132100">
<ele>76.078079</ele>
<time>2026-04-22T22:36:04.997Z</time>
</trkpt>
<trkpt lat="59.0975330" lon="30.0134600">
<ele>75.956161</ele>
<time>2026-04-22T22:36:30.001Z</time>
</trkpt>
<trkpt lat="59.0974840" lon="30.0136500">
<ele>75.041756</ele>
<time>2026-04-22T22:36:46.002Z</time>
</trkpt>
<trkpt lat="59.0974790" lon="30.0137970">
<ele>72.847198</ele>
<time>2026-04-22T22:37:02.997Z</time>
</trkpt>
<trkpt lat="59.0974510" lon="30.0139280">
<ele>72.115685</ele>
<time>2026-04-22T22:37:20.001Z</time>
</trkpt>
<trkpt lat="59.0973330" lon="30.0140260">
<ele>73.456802</ele>
<time>2026-04-22T22:37:55.001Z</time>
</trkpt>
<trkpt lat="59.0973270" lon="30.0140750">
<ele>73.487282</ele>
<time>2026-04-22T22:38:18.001Z</time>
</trkpt>
<trkpt lat="59.0973570" lon="30.0141260">
<ele>72.176643</ele>
<time>2026-04-22T22:38:50.004Z</time>
</trkpt>
<trkpt lat="59.0973130" lon="30.0140500">
<ele>77.906883</ele>
<time>2026-04-22T22:40:46.998Z</time>
</trkpt>
<trkpt lat="59.0972840" lon="30.0140920">
<ele>79.461365</ele>
<time>2026-04-22T22:41:15.000Z</time>
</trkpt>
<trkpt lat="59.0972950" lon="30.0141440">
<ele>75.498962</ele>
<time>2026-04-22T22:44:09.001Z</time>
</trkpt>
<trkpt lat="59.0973200" lon="30.0140310">
<ele>75.803757</ele>
<time>2026-04-22T22:44:36.001Z</time>
</trkpt>
<trkpt lat="59.0972990" lon="30.0140680">
<ele>77.053444</ele>
<time>2026-04-22T22:45:39.004Z</time>
</trkpt>
<trkpt lat="59.0974740" lon="30.0139030">
<ele>75.803757</ele>
<time>2026-04-22T22:46:25.003Z</time>
</trkpt>
<trkpt lat="59.0974520" lon="30.0137980">
<ele>75.194160</ele>
<time>2026-04-22T22:46:36.002Z</time>
</trkpt>
<trkpt lat="59.0975390" lon="30.0138000">
<ele>75.133202</ele>
<time>2026-04-22T22:46:47.001Z</time>
</trkpt>
<trkpt lat="59.0979380" lon="30.0140320">
<ele>78.059280</ele>
<time>2026-04-22T22:48:31.000Z</time>
</trkpt>
<trkpt lat="59.0979080" lon="30.0140780">
<ele>76.657204</ele>
<time>2026-04-22T22:48:48.004Z</time>
</trkpt>
<trkpt lat="59.0979570" lon="30.0142700">
<ele>73.914001</ele>
<time>2026-04-22T22:49:39.999Z</time>
</trkpt>
<trkpt lat="59.0977910" lon="30.0141900">
<ele>77.022957</ele>
<time>2026-04-22T22:51:19.999Z</time>
</trkpt>
<trkpt lat="59.0978720" lon="30.0137320">
<ele>76.901039</ele>
<time>2026-04-22T22:52:44.999Z</time>
</trkpt>
<trkpt lat="59.0979340" lon="30.0136020">
<ele>74.950317</ele>
<time>2026-04-22T22:53:11.999Z</time>
</trkpt>
<trkpt lat="59.0980460" lon="30.0135870">
<ele>73.609200</ele>
<time>2026-04-22T22:54:00.003Z</time>
</trkpt>
<trkpt lat="59.0980500" lon="30.0134580">
<ele>71.627998</ele>
<time>2026-04-22T22:54:43.004Z</time>
</trkpt>
<trkpt lat="59.0980810" lon="30.0135180">
<ele>72.786240</ele>
<time>2026-04-22T22:55:06.997Z</time>
</trkpt>
<trkpt lat="59.0980660" lon="30.0134100">
<ele>74.980797</ele>
<time>2026-04-22T22:55:29.997Z</time>
</trkpt>
<trkpt lat="59.0980890" lon="30.0134550">
<ele>73.334885</ele>
<time>2026-04-22T22:56:00.997Z</time>
</trkpt>
<trkpt lat="59.0980760" lon="30.0134260">
<ele>76.078079</ele>
<time>2026-04-22T22:57:14.999Z</time>
</trkpt>
<trkpt lat="59.0980470" lon="30.0134920">
<ele>73.914001</ele>
<time>2026-04-22T22:58:14.002Z</time>
</trkpt>
<trkpt lat="59.0981250" lon="30.0134190">
<ele>76.108559</ele>
<time>2026-04-22T22:59:15.000Z</time>
</trkpt>
<trkpt lat="59.0982330" lon="30.0135090">
<ele>74.371201</ele>
<time>2026-04-22T23:00:00.999Z</time>
</trkpt>
<trkpt lat="59.0982930" lon="30.0134070">
<ele>74.554085</ele>
<time>2026-04-22T23:00:37.002Z</time>
</trkpt>
<trkpt lat="59.0983800" lon="30.0133660">
<ele>73.091042</ele>
<time>2026-04-22T23:01:09.998Z</time>
</trkpt>
<trkpt lat="59.0982830" lon="30.0130750">
<ele>70.926956</ele>
<time>2026-04-22T23:02:10.003Z</time>
</trkpt>
<trkpt lat="59.0982830" lon="30.0129350">
<ele>69.433441</ele>
<time>2026-04-22T23:02:22.998Z</time>
</trkpt>
<trkpt lat="59.0984420" lon="30.0128770">
<ele>70.622162</ele>
<time>2026-04-22T23:03:03.001Z</time>
</trkpt>
<trkpt lat="59.0985680" lon="30.0130070">
<ele>70.408798</ele>
<time>2026-04-22T23:03:31.997Z</time>
</trkpt>
<trkpt lat="59.0986040" lon="30.0131110">
<ele>72.237602</ele>
<time>2026-04-22T23:03:43.998Z</time>
</trkpt>
<trkpt lat="59.0986400" lon="30.0130610">
<ele>74.554085</ele>
<time>2026-04-22T23:03:58.997Z</time>
</trkpt>
<trkpt lat="59.0986530" lon="30.0128740">
<ele>76.718163</ele>
<time>2026-04-22T23:04:28.001Z</time>
</trkpt>
<trkpt lat="59.0985920" lon="30.0126740">
<ele>74.188316</ele>
<time>2026-04-22T23:04:55.001Z</time>
</trkpt>
<trkpt lat="59.0986040" lon="30.0125400">
<ele>71.170799</ele>
<time>2026-04-22T23:05:38.003Z</time>
</trkpt>
<trkpt lat="59.0985640" lon="30.0125940">
<ele>70.347839</ele>
<time>2026-04-22T23:06:13.997Z</time>
</trkpt>
<trkpt lat="59.0985090" lon="30.0125590">
<ele>72.146156</ele>
<time>2026-04-22T23:06:28.002Z</time>
</trkpt>
<trkpt lat="59.0985600" lon="30.0124770">
<ele>73.974960</ele>
<time>2026-04-22T23:07:21.000Z</time>
</trkpt>
<trkpt lat="59.0986890" lon="30.0124710">
<ele>74.736961</ele>
<time>2026-04-22T23:07:46.998Z</time>
</trkpt>
<trkpt lat="59.0987650" lon="30.0123960">
<ele>74.889359</ele>
<time>2026-04-22T23:07:58.999Z</time>
</trkpt>
<trkpt lat="59.0988240" lon="30.0124700">
<ele>75.133202</ele>
<time>2026-04-22T23:08:11.000Z</time>
</trkpt>
<trkpt lat="59.0987790" lon="30.0126950">
<ele>75.986641</ele>
<time>2026-04-22T23:08:44.998Z</time>
</trkpt>
<trkpt lat="59.0988530" lon="30.0127470">
<ele>74.645515</ele>
<time>2026-04-22T23:10:19.001Z</time>
</trkpt>
<trkpt lat="59.0988230" lon="30.0126840">
<ele>76.596237</ele>
<time>2026-04-22T23:11:33.003Z</time>
</trkpt>
<trkpt lat="59.0988720" lon="30.0126560">
<ele>70.805038</ele>
<time>2026-04-22T23:13:10.998Z</time>
</trkpt>
<trkpt lat="59.0988270" lon="30.0127070">
<ele>68.945763</ele>
<time>2026-04-22T23:13:43.000Z</time>
</trkpt>
<trkpt lat="59.0989520" lon="30.0127550">
<ele>70.530716</ele>
<time>2026-04-22T23:14:15.996Z</time>
</trkpt>
<trkpt lat="59.0990100" lon="30.0128560">
<ele>70.652641</ele>
<time>2026-04-22T23:14:30.002Z</time>
</trkpt>
<trkpt lat="59.0991310" lon="30.0128280">
<ele>70.683121</ele>
<time>2026-04-22T23:14:58.004Z</time>
</trkpt>
<trkpt lat="59.0993900" lon="30.0131770">
<ele>74.554085</ele>
<time>2026-04-22T23:16:02.001Z</time>
</trkpt>
<trkpt lat="59.0996340" lon="30.0131890">
<ele>72.694801</ele>
<time>2026-04-22T23:17:01.997Z</time>
</trkpt>
<trkpt lat="59.0996740" lon="30.0130640">
<ele>72.024239</ele>
<time>2026-04-22T23:17:16.996Z</time>
</trkpt>
<trkpt lat="59.0996560" lon="30.0129520">
<ele>71.201279</ele>
<time>2026-04-22T23:17:28.997Z</time>
</trkpt>
<trkpt lat="59.0995850" lon="30.0128180">
<ele>73.395844</ele>
<time>2026-04-22T23:17:59.004Z</time>
</trkpt>
<trkpt lat="59.0995570" lon="30.0128690">
<ele>73.243439</ele>
<time>2026-04-22T23:18:15.998Z</time>
</trkpt>
<trkpt lat="59.0995590" lon="30.0127730">
<ele>69.067680</ele>
<time>2026-04-22T23:20:29.003Z</time>
</trkpt>
<trkpt lat="59.0995790" lon="30.0128070">
<ele>68.488556</ele>
<time>2026-04-22T23:21:00.996Z</time>
</trkpt>
<trkpt lat="59.0994330" lon="30.0130010">
<ele>61.020958</ele>
<time>2026-04-22T23:24:21.997Z</time>
</trkpt>
<trkpt lat="59.0995550" lon="30.0127390">
<ele>69.951599</ele>
<time>2026-04-22T23:25:00.998Z</time>
</trkpt>
<trkpt lat="59.0996020" lon="30.0126850">
<ele>68.610481</ele>
<time>2026-04-22T23:25:14.002Z</time>
</trkpt>
<trkpt lat="59.0997100" lon="30.0126730">
<ele>69.860161</ele>
<time>2026-04-22T23:25:30.003Z</time>
</trkpt>
<trkpt lat="59.0998650" lon="30.0125150">
<ele>66.934082</ele>
<time>2026-04-22T23:26:04.001Z</time>
</trkpt>
<trkpt lat="59.0999560" lon="30.0126000">
<ele>67.116959</ele>
<time>2026-04-22T23:26:31.001Z</time>
</trkpt>
<trkpt lat="59.1000980" lon="30.0124090">
<ele>67.878960</ele>
<time>2026-04-22T23:27:17.001Z</time>
</trkpt>
<trkpt lat="59.1001850" lon="30.0124950">
<ele>65.318642</ele>
<time>2026-04-22T23:27:53.004Z</time>
</trkpt>
<trkpt lat="59.1002590" lon="30.0124870">
<ele>67.391281</ele>
<time>2026-04-22T23:28:08.003Z</time>
</trkpt>
<trkpt lat="59.1003010" lon="30.0125740">
<ele>68.854317</ele>
<time>2026-04-22T23:28:24.997Z</time>
</trkpt>
<trkpt lat="59.1004400" lon="30.0125900">
<ele>68.092316</ele>
<time>2026-04-22T23:29:48.002Z</time>
</trkpt>
<trkpt lat="59.1004140" lon="30.0125800">
<ele>69.616318</ele>
<time>2026-04-22T23:30:35.997Z</time>
</trkpt>
<trkpt lat="59.1004340" lon="30.0125820">
<ele>70.500244</ele>
<time>2026-04-22T23:32:31.004Z</time>
</trkpt>
<trkpt lat="59.1004220" lon="30.0126100">
<ele>69.433441</ele>
<time>2026-04-22T23:32:58.998Z</time>
</trkpt>
<trkpt lat="59.1004200" lon="30.0125590">
<ele>70.073517</ele>
<time>2026-04-22T23:33:33.998Z</time>
</trkpt>
<trkpt lat="59.1004140" lon="30.0127050">
<ele>70.469757</ele>
<time>2026-04-22T23:35:13.004Z</time>
</trkpt>
<trkpt lat="59.1005660" lon="30.0126790">
<ele>70.469757</ele>
<time>2026-04-22T23:35:43.996Z</time>
</trkpt>
<trkpt lat="59.1005740" lon="30.0128710">
<ele>70.134483</ele>
<time>2026-04-22T23:36:44.001Z</time>
</trkpt>
<trkpt lat="59.1006960" lon="30.0130240">
<ele>72.115685</ele>
<time>2026-04-22T23:37:35.003Z</time>
</trkpt>
<trkpt lat="59.1006710" lon="30.0130300">
<ele>73.822556</ele>
<time>2026-04-22T23:38:34.999Z</time>
</trkpt>
<trkpt lat="59.1006710" lon="30.0129300">
<ele>74.279762</ele>
<time>2026-04-22T23:39:00.996Z</time>
</trkpt>
<trkpt lat="59.1006610" lon="30.0131250">
<ele>72.359520</ele>
<time>2026-04-22T23:41:57.002Z</time>
</trkpt>
<trkpt lat="59.1006970" lon="30.0130210">
<ele>74.767441</ele>
<time>2026-04-22T23:42:54.000Z</time>
</trkpt>
<trkpt lat="59.1006590" lon="30.0130330">
<ele>75.072243</ele>
<time>2026-04-22T23:44:09.997Z</time>
</trkpt>
<trkpt lat="59.1006710" lon="30.0130810">
<ele>77.845917</ele>
<time>2026-04-22T23:44:47.996Z</time>
</trkpt>
<trkpt lat="59.1007210" lon="30.0129640">
<ele>76.291443</ele>
<time>2026-04-22T23:45:42.998Z</time>
</trkpt>
<trkpt lat="59.1006560" lon="30.0128630">
<ele>71.963280</ele>
<time>2026-04-22T23:47:10.997Z</time>
</trkpt>
<trkpt lat="59.1006720" lon="30.0130340">
<ele>71.018402</ele>
<time>2026-04-22T23:48:32.999Z</time>
</trkpt>
<trkpt lat="59.1005680" lon="30.0129580">
<ele>72.511917</ele>
<time>2026-04-22T23:49:13.002Z</time>
</trkpt>
<trkpt lat="59.1004140" lon="30.0129990">
<ele>70.987915</ele>
<time>2026-04-22T23:50:19.003Z</time>
</trkpt>
<trkpt lat="59.1004020" lon="30.0128410">
<ele>69.829681</ele>
<time>2026-04-22T23:50:53.002Z</time>
</trkpt>
<trkpt lat="59.1003390" lon="30.0129890">
<ele>69.799202</ele>
<time>2026-04-22T23:51:45.999Z</time>
</trkpt>
<trkpt lat="59.1003460" lon="30.0128500">
<ele>69.555359</ele>
<time>2026-04-22T23:53:04.001Z</time>
</trkpt>
<trkpt lat="59.1002630" lon="30.0127400">
<ele>68.823837</ele>
<time>2026-04-22T23:53:51.996Z</time>
</trkpt>
<trkpt lat="59.1001890" lon="30.0127740">
<ele>71.993759</ele>
<time>2026-04-22T23:54:30.997Z</time>
</trkpt>
<trkpt lat="59.1001710" lon="30.0128960">
<ele>72.633842</ele>
<time>2026-04-22T23:54:45.003Z</time>
</trkpt>
<trkpt lat="59.1002540" lon="30.0131540">
<ele>71.902321</ele>
<time>2026-04-22T23:55:17.999Z</time>
</trkpt>
<trkpt lat="59.1002540" lon="30.0132420">
<ele>72.664322</ele>
<time>2026-04-22T23:55:28.998Z</time>
</trkpt>
<trkpt lat="59.1002110" lon="30.0132980">
<ele>72.603355</ele>
<time>2026-04-22T23:55:47.004Z</time>
</trkpt>
<trkpt lat="59.1002590" lon="30.0132150">
<ele>71.445122</ele>
<time>2026-04-22T23:56:37.003Z</time>
</trkpt>
<trkpt lat="59.1003070" lon="30.0132440">
<ele>71.384155</ele>
<time>2026-04-22T23:56:52.002Z</time>
</trkpt>
<trkpt lat="59.1002740" lon="30.0132810">
<ele>73.395844</ele>
<time>2026-04-22T23:58:17.996Z</time>
</trkpt>
<trkpt lat="59.1002750" lon="30.0132130">
<ele>77.266800</ele>
<time>2026-04-22T23:59:37.000Z</time>
</trkpt>
<trkpt lat="59.1002460" lon="30.0132950">
<ele>76.108559</ele>
<time>2026-04-23T00:00:29.998Z</time>
</trkpt>
<trkpt lat="59.1001960" lon="30.0132840">
<ele>79.065117</ele>
<time>2026-04-23T00:01:07.003Z</time>
</trkpt>
<trkpt lat="59.1002280" lon="30.0131940">
<ele>80.924400</ele>
<time>2026-04-23T00:02:16.002Z</time>
</trkpt>
<trkpt lat="59.1001600" lon="30.0135200">
<ele>69.037201</ele>
<time>2026-04-23T00:05:10.997Z</time>
</trkpt>
<trkpt lat="59.1001730" lon="30.0136070">
<ele>70.164963</ele>
<time>2026-04-23T00:06:07.001Z</time>
</trkpt>
<trkpt lat="59.1001200" lon="30.0136910">
<ele>71.536560</ele>
<time>2026-04-23T00:06:20.998Z</time>
</trkpt>
<trkpt lat="59.1001390" lon="30.0137710">
<ele>70.774559</ele>
<time>2026-04-23T00:06:35.004Z</time>
</trkpt>
<trkpt lat="59.1000050" lon="30.0138340">
<ele>71.963280</ele>
<time>2026-04-23T00:07:25.003Z</time>
</trkpt>
<trkpt lat="59.1000380" lon="30.0138100">
<ele>72.176643</ele>
<time>2026-04-23T00:07:56.997Z</time>
</trkpt>
<trkpt lat="59.1000200" lon="30.0138970">
<ele>72.725281</ele>
<time>2026-04-23T00:08:38.003Z</time>
</trkpt>
<trkpt lat="59.1000450" lon="30.0138240">
<ele>72.420479</ele>
<time>2026-04-23T00:09:29.998Z</time>
</trkpt>
<trkpt lat="59.1000660" lon="30.0138720">
<ele>74.005440</ele>
<time>2026-04-23T00:10:10.001Z</time>
</trkpt>
<trkpt lat="59.1000370" lon="30.0138880">
<ele>75.590401</ele>
<time>2026-04-23T00:11:24.003Z</time>
</trkpt>
<trkpt lat="59.1000590" lon="30.0138450">
<ele>78.546967</ele>
<time>2026-04-23T00:12:06.002Z</time>
</trkpt>
<trkpt lat="59.0997730" lon="30.0138830">
<ele>73.670158</ele>
<time>2026-04-23T00:16:14.998Z</time>
</trkpt>
<trkpt lat="59.0997360" lon="30.0138470">
<ele>73.426315</ele>
<time>2026-04-23T00:16:37.998Z</time>
</trkpt>
<trkpt lat="59.0997600" lon="30.0137420">
<ele>73.883514</ele>
<time>2026-04-23T00:17:11.003Z</time>
</trkpt>
<trkpt lat="59.0996670" lon="30.0137790">
<ele>72.024239</ele>
<time>2026-04-23T00:18:09.003Z</time>
</trkpt>
<trkpt lat="59.0996350" lon="30.0140040">
<ele>71.292717</ele>
<time>2026-04-23T00:18:39.001Z</time>
</trkpt>
<trkpt lat="59.0995420" lon="30.0141440">
<ele>71.871841</ele>
<time>2026-04-23T00:19:07.997Z</time>
</trkpt>
<trkpt lat="59.0995670" lon="30.0142770">
<ele>73.700638</ele>
<time>2026-04-23T00:19:35.999Z</time>
</trkpt>
<trkpt lat="59.0995050" lon="30.0144790">
<ele>73.334885</ele>
<time>2026-04-23T00:20:08.002Z</time>
</trkpt>
<trkpt lat="59.0995070" lon="30.0145730">
<ele>74.736961</ele>
<time>2026-04-23T00:20:25.999Z</time>
</trkpt>
<trkpt lat="59.0995210" lon="30.0144920">
<ele>75.438004</ele>
<time>2026-04-23T00:22:17.999Z</time>
</trkpt>
<trkpt lat="59.0995530" lon="30.0144970">
<ele>78.760315</ele>
<time>2026-04-23T00:22:55.004Z</time>
</trkpt>
<trkpt lat="59.0994960" lon="30.0146140">
<ele>76.078079</ele>
<time>2026-04-23T00:24:31.003Z</time>
</trkpt>
<trkpt lat="59.0993290" lon="30.0146380">
<ele>75.377045</ele>
<time>2026-04-23T00:25:21.003Z</time>
</trkpt>
<trkpt lat="59.0990920" lon="30.0143440">
<ele>70.652641</ele>
<time>2026-04-23T00:29:32.004Z</time>
</trkpt>
<trkpt lat="59.0989740" lon="30.0145130">
<ele>71.445122</ele>
<time>2026-04-23T00:30:14.996Z</time>
</trkpt>
<trkpt lat="59.0986340" lon="30.0145910">
<ele>68.945763</ele>
<time>2026-04-23T00:31:58.002Z</time>
</trkpt>
<trkpt lat="59.0986260" lon="30.0146650">
<ele>69.921120</ele>
<time>2026-04-23T00:32:14.997Z</time>
</trkpt>
<trkpt lat="59.0984940" lon="30.0145850">
<ele>70.317360</ele>
<time>2026-04-23T00:33:22.000Z</time>
</trkpt>
<trkpt lat="59.0984120" lon="30.0147040">
<ele>70.683121</ele>
<time>2026-04-23T00:33:57.001Z</time>
</trkpt>
<trkpt lat="59.0983920" lon="30.0146880">
<ele>70.103996</ele>
<time>2026-04-23T00:34:40.996Z</time>
</trkpt>
<trkpt lat="59.0984110" lon="30.0147240">
<ele>71.292717</ele>
<time>2026-04-23T00:36:36.003Z</time>
</trkpt>
<trkpt lat="59.0984070" lon="30.0146260">
<ele>69.799202</ele>
<time>2026-04-23T00:37:27.998Z</time>
</trkpt>
<trkpt lat="59.0983580" lon="30.0147150">
<ele>68.671440</ele>
<time>2026-04-23T00:37:53.003Z</time>
</trkpt>
<trkpt lat="59.0982830" lon="30.0147340">
<ele>66.324478</ele>
<time>2026-04-23T00:39:05.000Z</time>
</trkpt>
<trkpt lat="59.0982400" lon="30.0146980">
<ele>67.878960</ele>
<time>2026-04-23T00:39:22.997Z</time>
</trkpt>
<trkpt lat="59.0982360" lon="30.0145910">
<ele>69.006721</ele>
<time>2026-04-23T00:40:01.004Z</time>
</trkpt>
<trkpt lat="59.0981790" lon="30.0145790">
<ele>70.012558</ele>
<time>2026-04-23T00:40:13.999Z</time>
</trkpt>
<trkpt lat="59.0981490" lon="30.0145870">
<ele>70.195442</ele>
<time>2026-04-23T00:40:30.000Z</time>
</trkpt>
<trkpt lat="59.0981170" lon="30.0148160">
<ele>71.323196</ele>
<time>2026-04-23T00:41:03.998Z</time>
</trkpt>
<trkpt lat="59.0980520" lon="30.0149210">
<ele>70.195442</ele>
<time>2026-04-23T00:41:49.998Z</time>
</trkpt>
<trkpt lat="59.0980360" lon="30.0150610">
<ele>69.128639</ele>
<time>2026-04-23T00:42:23.003Z</time>
</trkpt>
<trkpt lat="59.0977960" lon="30.0150850">
<ele>67.604637</ele>
<time>2026-04-23T00:43:56.997Z</time>
</trkpt>
<trkpt lat="59.0978010" lon="30.0151470">
<ele>66.598801</ele>
<time>2026-04-23T00:44:23.004Z</time>
</trkpt>
<trkpt lat="59.0977460" lon="30.0151280">
<ele>66.324478</ele>
<time>2026-04-23T00:44:34.996Z</time>
</trkpt>
<trkpt lat="59.0977300" lon="30.0151980">
<ele>67.086479</ele>
<time>2026-04-23T00:44:51.999Z</time>
</trkpt>
<trkpt lat="59.0976940" lon="30.0151370">
<ele>65.806320</ele>
<time>2026-04-23T00:46:22.002Z</time>
</trkpt>
<trkpt lat="59.0977210" lon="30.0151950">
<ele>66.446404</ele>
<time>2026-04-23T00:47:01.003Z</time>
</trkpt>
<trkpt lat="59.0975240" lon="30.0150980">
<ele>67.452240</ele>
<time>2026-04-23T00:48:21.001Z</time>
</trkpt>
<trkpt lat="59.0974150" lon="30.0151860">
<ele>67.513199</ele>
<time>2026-04-23T00:49:30.000Z</time>
</trkpt>
<trkpt lat="59.0973650" lon="30.0150470">
<ele>68.000885</ele>
<time>2026-04-23T00:50:05.001Z</time>
</trkpt>
<trkpt lat="59.0973650" lon="30.0147220">
<ele>68.366638</ele>
<time>2026-04-23T00:51:05.999Z</time>
</trkpt>
<trkpt lat="59.0973050" lon="30.0146200">
<ele>67.970398</ele>
<time>2026-04-23T00:51:20.998Z</time>
</trkpt>
<trkpt lat="59.0972420" lon="30.0146670">
<ele>72.633842</ele>
<time>2026-04-23T00:53:42.996Z</time>
</trkpt>
<trkpt lat="59.0972950" lon="30.0146180">
<ele>70.591682</ele>
<time>2026-04-23T00:54:39.001Z</time>
</trkpt>
<trkpt lat="59.0972550" lon="30.0146010">
<ele>70.286880</ele>
<time>2026-04-23T00:55:02.001Z</time>
</trkpt>
<trkpt lat="59.0973140" lon="30.0144520">
<ele>69.951599</ele>
<time>2026-04-23T00:55:18.002Z</time>
</trkpt>
<trkpt lat="59.0973060" lon="30.0142190">
<ele>68.823837</ele>
<time>2026-04-23T00:56:05.004Z</time>
</trkpt>
<trkpt lat="59.0971470" lon="30.0136310">
<ele>66.568321</ele>
<time>2026-04-23T00:57:02.002Z</time>
</trkpt>
<trkpt lat="59.0970940" lon="30.0132970">
<ele>67.818001</ele>
<time>2026-04-23T00:57:33.002Z</time>
</trkpt>
<trkpt lat="59.0970390" lon="30.0131610">
<ele>65.714882</ele>
<time>2026-04-23T00:58:04.996Z</time>
</trkpt>
<trkpt lat="59.0970050" lon="30.0132140">
<ele>64.587120</ele>
<time>2026-04-23T00:58:26.000Z</time>
</trkpt>
<trkpt lat="59.0970190" lon="30.0131790">
<ele>68.427597</ele>
<time>2026-04-23T00:59:09.001Z</time>
</trkpt>
<trkpt lat="59.0969830" lon="30.0131880">
<ele>67.238884</ele>
<time>2026-04-23T00:59:40.001Z</time>
</trkpt>
<trkpt lat="59.0969800" lon="30.0131100">
<ele>66.873116</ele>
<time>2026-04-23T01:00:04.997Z</time>
</trkpt>
<trkpt lat="59.0969400" lon="30.0130880">
<ele>69.006721</ele>
<time>2026-04-23T01:02:23.004Z</time>
</trkpt>
<trkpt lat="59.0969210" lon="30.0129540">
<ele>69.463921</ele>
<time>2026-04-23T01:02:38.996Z</time>
</trkpt>
<trkpt lat="59.0970030" lon="30.0129790">
<ele>69.890640</ele>
<time>2026-04-23T01:03:31.000Z</time>
</trkpt>
<trkpt lat="59.0969390" lon="30.0128710">
<ele>66.781685</ele>
<time>2026-04-23T01:03:56.998Z</time>
</trkpt>
<trkpt lat="59.0967620" lon="30.0120380">
<ele>68.610481</ele>
<time>2026-04-23T01:04:41.002Z</time>
</trkpt>
<trkpt lat="59.0967020" lon="30.0114710">
<ele>68.000885</ele>
<time>2026-04-23T01:05:12.002Z</time>
</trkpt>
<trkpt lat="59.0964980" lon="30.0103390">
<ele>67.909439</ele>
<time>2026-04-23T01:06:11.998Z</time>
</trkpt>
<trkpt lat="59.0964690" lon="30.0100310">
<ele>68.427597</ele>
<time>2026-04-23T01:06:27.999Z</time>
</trkpt>
<trkpt lat="59.0963870" lon="30.0097950">
<ele>69.311516</ele>
<time>2026-04-23T01:06:41.003Z</time>
</trkpt>
<trkpt lat="59.0963090" lon="30.0092460">
<ele>69.220085</ele>
<time>2026-04-23T01:07:08.996Z</time>
</trkpt>
<trkpt lat="59.0960710" lon="30.0082770">
<ele>69.402962</ele>
<time>2026-04-23T01:07:55.998Z</time>
</trkpt>
<trkpt lat="59.0960240" lon="30.0079440">
<ele>73.091042</ele>
<time>2026-04-23T01:08:17.002Z</time>
</trkpt>
<trkpt lat="59.0960050" lon="30.0074870">
<ele>73.761597</ele>
<time>2026-04-23T01:08:36.001Z</time>
</trkpt>
<trkpt lat="59.0959000" lon="30.0071520">
<ele>75.651360</ele>
<time>2026-04-23T01:08:53.998Z</time>
</trkpt>
<trkpt lat="59.0957360" lon="30.0063510">
<ele>77.327759</ele>
<time>2026-04-23T01:09:35.004Z</time>
</trkpt>
<trkpt lat="59.0956210" lon="30.0055060">
<ele>76.291443</ele>
<time>2026-04-23T01:10:18.998Z</time>
</trkpt>
<trkpt lat="59.0956210" lon="30.0055820">
<ele>79.126083</ele>
<time>2026-04-23T01:11:06.000Z</time>
</trkpt>
<trkpt lat="59.0955990" lon="30.0055750">
<ele>72.085197</ele>
<time>2026-04-23T01:11:57.002Z</time>
</trkpt>
<trkpt lat="59.0956410" lon="30.0055280">
<ele>69.342003</ele>
<time>2026-04-23T01:12:37.999Z</time>
</trkpt>
<trkpt lat="59.0956010" lon="30.0054590">
<ele>73.243439</ele>
<time>2026-04-23T01:15:36.000Z</time>
</trkpt>
<trkpt lat="59.0956060" lon="30.0055850">
<ele>70.987915</ele>
<time>2026-04-23T01:16:30.000Z</time>
</trkpt>
<trkpt lat="59.0956110" lon="30.0054040">
<ele>70.774559</ele>
<time>2026-04-23T01:16:39.003Z</time>
</trkpt>
<trkpt lat="59.0954860" lon="30.0047020">
<ele>70.530716</ele>
<time>2026-04-23T01:17:14.004Z</time>
</trkpt>
<trkpt lat="59.0954380" lon="30.0045470">
<ele>70.926956</ele>
<time>2026-04-23T01:17:26.998Z</time>
</trkpt>
<trkpt lat="59.0953510" lon="30.0038030">
<ele>72.511917</ele>
<time>2026-04-23T01:18:07.001Z</time>
</trkpt>
<trkpt lat="59.0952890" lon="30.0035920">
<ele>73.091042</ele>
<time>2026-04-23T01:18:20.998Z</time>
</trkpt>
<trkpt lat="59.0948830" lon="30.0012960">
<ele>73.365356</ele>
<time>2026-04-23T01:20:30.002Z</time>
</trkpt>
<trkpt lat="59.0948760" lon="30.0011230">
<ele>72.877686</ele>
<time>2026-04-23T01:20:38.003Z</time>
</trkpt>
<trkpt lat="59.0947840" lon="30.0007030">
<ele>71.719444</ele>
<time>2026-04-23T01:21:05.996Z</time>
</trkpt>
<trkpt lat="59.0945240" lon="29.9990090">
<ele>75.712318</ele>
<time>2026-04-23T01:22:30.996Z</time>
</trkpt>
<trkpt lat="59.0944100" lon="29.9983940">
<ele>75.224640</ele>
<time>2026-04-23T01:23:05.004Z</time>
</trkpt>
<trkpt lat="59.0943370" lon="29.9981750">
<ele>74.797920</ele>
<time>2026-04-23T01:23:16.996Z</time>
</trkpt>
<trkpt lat="59.0943020" lon="29.9978450">
<ele>76.504799</ele>
<time>2026-04-23T01:23:33.999Z</time>
</trkpt>
<trkpt lat="59.0942020" lon="29.9973690">
<ele>78.546967</ele>
<time>2026-04-23T01:24:07.004Z</time>
</trkpt>
<trkpt lat="59.0941550" lon="29.9968790">
<ele>79.491837</ele>
<time>2026-04-23T01:24:48.001Z</time>
</trkpt>
<trkpt lat="59.0940290" lon="29.9962750">
<ele>78.577438</ele>
<time>2026-04-23T01:25:16.003Z</time>
</trkpt>
<trkpt lat="59.0940010" lon="29.9960110">
<ele>77.967842</ele>
<time>2026-04-23T01:25:36.998Z</time>
</trkpt>
<trkpt lat="59.0938950" lon="29.9956100">
<ele>75.956161</ele>
<time>2026-04-23T01:26:05.001Z</time>
</trkpt>
<trkpt lat="59.0938660" lon="29.9953290">
<ele>75.224640</ele>
<time>2026-04-23T01:26:18.004Z</time>
</trkpt>
<trkpt lat="59.0937730" lon="29.9949100">
<ele>76.078079</ele>
<time>2026-04-23T01:26:42.999Z</time>
</trkpt>
<trkpt lat="59.0936270" lon="29.9939240">
<ele>75.377045</ele>
<time>2026-04-23T01:27:39.004Z</time>
</trkpt>
<trkpt lat="59.0933850" lon="29.9930310">
<ele>71.231758</ele>
<time>2026-04-23T01:29:11.996Z</time>
</trkpt>
<trkpt lat="59.0933860" lon="29.9926520">
<ele>72.877686</ele>
<time>2026-04-23T01:30:09.003Z</time>
</trkpt>
<trkpt lat="59.0931200" lon="29.9912340">
<ele>70.591682</ele>
<time>2026-04-23T01:31:27.998Z</time>
</trkpt>
<trkpt lat="59.0929940" lon="29.9907240">
<ele>69.098160</ele>
<time>2026-04-23T01:31:54.998Z</time>
</trkpt>
<trkpt lat="59.0929100" lon="29.9901480">
<ele>69.768715</ele>
<time>2026-04-23T01:32:24.003Z</time>
</trkpt>
<trkpt lat="59.0927900" lon="29.9895870">
<ele>70.286880</ele>
<time>2026-04-23T01:32:51.996Z</time>
</trkpt>
<trkpt lat="59.0927280" lon="29.9889730">
<ele>71.810883</ele>
<time>2026-04-23T01:33:21.001Z</time>
</trkpt>
<trkpt lat="59.0925200" lon="29.9880140">
<ele>72.024239</ele>
<time>2026-04-23T01:34:16.003Z</time>
</trkpt>
<trkpt lat="59.0924640" lon="29.9879120">
<ele>71.048882</ele>
<time>2026-04-23T01:34:31.002Z</time>
</trkpt>
<trkpt lat="59.0924610" lon="29.9878080">
<ele>72.999603</ele>
<time>2026-04-23T01:35:49.998Z</time>
</trkpt>
<trkpt lat="59.0924570" lon="29.9878790">
<ele>71.323196</ele>
<time>2026-04-23T01:38:37.000Z</time>
</trkpt>
</trkseg>
</trk>
</gpx>
